<?xml version="1.0" encoding="UTF-8" standalone="no" ?>
<gpx xmlns="http://www.topografix.com/GPX/1/1" xmlns:xsi="http://www.w3.org/2001/XMLSchema-instance" xsi:schemaLocation="http://www.topografix.com/GPX/1/1 http://www.topografix.com/GPX/1/1/gpx.xsd" version="1.1" creator="VisuGPX - https://www.visugpx.com">
  <metadata>
    <name>Bonne Ballade</name>
    <desc><![CDATA[une bon petit tour]]></desc>
  </metadata>
  <wpt lat="46.0595" lon="6.37353">
    <ele>491</ele>
  </wpt>
  <wpt lat="46.05951" lon="6.37343">
    <ele>482</ele>
  </wpt>
  <trk>
    <name><![CDATA[Bonne Ballade_1]]></name>
    <trkseg>
      <trkpt lat="46.0595" lon="6.37353">
        <ele>491</ele>
        <time>2012-05-10T10:36:57Z</time>
      </trkpt>
      <trkpt lat="46.05952" lon="6.37338">
        <ele>491</ele>
        <time>2012-05-10T10:38:14Z</time>
      </trkpt>
      <trkpt lat="46.05962" lon="6.37334">
        <ele>491</ele>
        <time>2012-05-10T10:38:17Z</time>
      </trkpt>
      <trkpt lat="46.05978" lon="6.37339">
        <ele>491</ele>
        <time>2012-05-10T10:38:19Z</time>
      </trkpt>
      <trkpt lat="46.05994" lon="6.37343">
        <ele>491</ele>
        <time>2012-05-10T10:38:21Z</time>
      </trkpt>
      <trkpt lat="46.0601" lon="6.37348">
        <ele>491</ele>
        <time>2012-05-10T10:38:23Z</time>
      </trkpt>
      <trkpt lat="46.06022" lon="6.37351">
        <ele>491</ele>
        <time>2012-05-10T10:38:25Z</time>
      </trkpt>
      <trkpt lat="46.06027" lon="6.37365">
        <ele>491</ele>
        <time>2012-05-10T10:38:28Z</time>
      </trkpt>
      <trkpt lat="46.06024" lon="6.37383">
        <ele>491</ele>
        <time>2012-05-10T10:38:30Z</time>
      </trkpt>
      <trkpt lat="46.0602" lon="6.37407">
        <ele>491</ele>
        <time>2012-05-10T10:38:32Z</time>
      </trkpt>
      <trkpt lat="46.06017" lon="6.3742">
        <ele>491</ele>
        <time>2012-05-10T10:38:33Z</time>
      </trkpt>
      <trkpt lat="46.06015" lon="6.37434">
        <ele>491</ele>
        <time>2012-05-10T10:38:34Z</time>
      </trkpt>
      <trkpt lat="46.06013" lon="6.37447">
        <ele>491</ele>
        <time>2012-05-10T10:38:35Z</time>
      </trkpt>
      <trkpt lat="46.06012" lon="6.37462">
        <ele>486</ele>
        <time>2012-05-10T10:38:36Z</time>
      </trkpt>
      <trkpt lat="46.0601" lon="6.37478">
        <ele>486</ele>
        <time>2012-05-10T10:38:37Z</time>
      </trkpt>
      <trkpt lat="46.06009" lon="6.37493">
        <ele>486</ele>
        <time>2012-05-10T10:38:38Z</time>
      </trkpt>
      <trkpt lat="46.06008" lon="6.37507">
        <ele>486</ele>
        <time>2012-05-10T10:38:39Z</time>
      </trkpt>
      <trkpt lat="46.06006" lon="6.3752">
        <ele>486</ele>
        <time>2012-05-10T10:38:40Z</time>
      </trkpt>
      <trkpt lat="46.06005" lon="6.37534">
        <ele>486</ele>
        <time>2012-05-10T10:38:41Z</time>
      </trkpt>
      <trkpt lat="46.06002" lon="6.37557">
        <ele>486</ele>
        <time>2012-05-10T10:38:43Z</time>
      </trkpt>
      <trkpt lat="46.05998" lon="6.3758">
        <ele>486</ele>
        <time>2012-05-10T10:38:45Z</time>
      </trkpt>
      <trkpt lat="46.05995" lon="6.37596">
        <ele>486</ele>
        <time>2012-05-10T10:38:47Z</time>
      </trkpt>
      <trkpt lat="46.05989" lon="6.37608">
        <ele>486</ele>
        <time>2012-05-10T10:38:49Z</time>
      </trkpt>
      <trkpt lat="46.05983" lon="6.37619">
        <ele>486</ele>
        <time>2012-05-10T10:38:53Z</time>
      </trkpt>
      <trkpt lat="46.05986" lon="6.37633">
        <ele>486</ele>
        <time>2012-05-10T10:38:55Z</time>
      </trkpt>
      <trkpt lat="46.05996" lon="6.37655">
        <ele>486</ele>
        <time>2012-05-10T10:38:57Z</time>
      </trkpt>
      <trkpt lat="46.06002" lon="6.37667">
        <ele>486</ele>
        <time>2012-05-10T10:38:58Z</time>
      </trkpt>
      <trkpt lat="46.06007" lon="6.3768">
        <ele>486</ele>
        <time>2012-05-10T10:38:59Z</time>
      </trkpt>
      <trkpt lat="46.06013" lon="6.37693">
        <ele>486</ele>
        <time>2012-05-10T10:39:00Z</time>
      </trkpt>
      <trkpt lat="46.0602" lon="6.37705">
        <ele>486</ele>
        <time>2012-05-10T10:39:01Z</time>
      </trkpt>
      <trkpt lat="46.06027" lon="6.37719">
        <ele>481</ele>
        <time>2012-05-10T10:39:02Z</time>
      </trkpt>
      <trkpt lat="46.06033" lon="6.37734">
        <ele>481</ele>
        <time>2012-05-10T10:39:03Z</time>
      </trkpt>
      <trkpt lat="46.0604" lon="6.3775">
        <ele>481</ele>
        <time>2012-05-10T10:39:04Z</time>
      </trkpt>
      <trkpt lat="46.06047" lon="6.37766">
        <ele>481</ele>
        <time>2012-05-10T10:39:05Z</time>
      </trkpt>
      <trkpt lat="46.06053" lon="6.37782">
        <ele>481</ele>
        <time>2012-05-10T10:39:06Z</time>
      </trkpt>
      <trkpt lat="46.0606" lon="6.37799">
        <ele>481</ele>
        <time>2012-05-10T10:39:07Z</time>
      </trkpt>
      <trkpt lat="46.06066" lon="6.37816">
        <ele>481</ele>
        <time>2012-05-10T10:39:08Z</time>
      </trkpt>
      <trkpt lat="46.06072" lon="6.37835">
        <ele>481</ele>
        <time>2012-05-10T10:39:09Z</time>
      </trkpt>
      <trkpt lat="46.06079" lon="6.37855">
        <ele>481</ele>
        <time>2012-05-10T10:39:10Z</time>
      </trkpt>
      <trkpt lat="46.06085" lon="6.37875">
        <ele>481</ele>
        <time>2012-05-10T10:39:11Z</time>
      </trkpt>
      <trkpt lat="46.06092" lon="6.37895">
        <ele>481</ele>
        <time>2012-05-10T10:39:12Z</time>
      </trkpt>
      <trkpt lat="46.06098" lon="6.37915">
        <ele>481</ele>
        <time>2012-05-10T10:39:13Z</time>
      </trkpt>
      <trkpt lat="46.06104" lon="6.37935">
        <ele>481</ele>
        <time>2012-05-10T10:39:14Z</time>
      </trkpt>
      <trkpt lat="46.0611" lon="6.37955">
        <ele>481</ele>
        <time>2012-05-10T10:39:15Z</time>
      </trkpt>
      <trkpt lat="46.06115" lon="6.37975">
        <ele>481</ele>
        <time>2012-05-10T10:39:16Z</time>
      </trkpt>
      <trkpt lat="46.0612" lon="6.37995">
        <ele>481</ele>
        <time>2012-05-10T10:39:17Z</time>
      </trkpt>
      <trkpt lat="46.06125" lon="6.38015">
        <ele>481</ele>
        <time>2012-05-10T10:39:18Z</time>
      </trkpt>
      <trkpt lat="46.06129" lon="6.38036">
        <ele>481</ele>
        <time>2012-05-10T10:39:19Z</time>
      </trkpt>
      <trkpt lat="46.06133" lon="6.38057">
        <ele>481</ele>
        <time>2012-05-10T10:39:20Z</time>
      </trkpt>
      <trkpt lat="46.06138" lon="6.38079">
        <ele>481</ele>
        <time>2012-05-10T10:39:21Z</time>
      </trkpt>
      <trkpt lat="46.06141" lon="6.381">
        <ele>481</ele>
        <time>2012-05-10T10:39:22Z</time>
      </trkpt>
      <trkpt lat="46.06143" lon="6.38122">
        <ele>481</ele>
        <time>2012-05-10T10:39:23Z</time>
      </trkpt>
      <trkpt lat="46.06145" lon="6.38143">
        <ele>481</ele>
        <time>2012-05-10T10:39:24Z</time>
      </trkpt>
      <trkpt lat="46.06147" lon="6.38165">
        <ele>481</ele>
        <time>2012-05-10T10:39:25Z</time>
      </trkpt>
      <trkpt lat="46.06148" lon="6.38186">
        <ele>481</ele>
        <time>2012-05-10T10:39:26Z</time>
      </trkpt>
      <trkpt lat="46.06148" lon="6.38207">
        <ele>475</ele>
        <time>2012-05-10T10:39:27Z</time>
      </trkpt>
      <trkpt lat="46.0615" lon="6.38229">
        <ele>475</ele>
        <time>2012-05-10T10:39:28Z</time>
      </trkpt>
      <trkpt lat="46.0615" lon="6.38249">
        <ele>475</ele>
        <time>2012-05-10T10:39:29Z</time>
      </trkpt>
      <trkpt lat="46.06151" lon="6.3827">
        <ele>475</ele>
        <time>2012-05-10T10:39:30Z</time>
      </trkpt>
      <trkpt lat="46.06152" lon="6.38291">
        <ele>475</ele>
        <time>2012-05-10T10:39:31Z</time>
      </trkpt>
      <trkpt lat="46.06153" lon="6.3831">
        <ele>475</ele>
        <time>2012-05-10T10:39:32Z</time>
      </trkpt>
      <trkpt lat="46.06153" lon="6.38327">
        <ele>475</ele>
        <time>2012-05-10T10:39:33Z</time>
      </trkpt>
      <trkpt lat="46.06153" lon="6.38341">
        <ele>475</ele>
        <time>2012-05-10T10:39:34Z</time>
      </trkpt>
      <trkpt lat="46.06153" lon="6.38364">
        <ele>475</ele>
        <time>2012-05-10T10:39:36Z</time>
      </trkpt>
      <trkpt lat="46.06151" lon="6.38385">
        <ele>475</ele>
        <time>2012-05-10T10:39:38Z</time>
      </trkpt>
      <trkpt lat="46.06148" lon="6.38399">
        <ele>475</ele>
        <time>2012-05-10T10:39:40Z</time>
      </trkpt>
      <trkpt lat="46.06157" lon="6.38416">
        <ele>475</ele>
        <time>2012-05-10T10:39:46Z</time>
      </trkpt>
      <trkpt lat="46.06168" lon="6.38428">
        <ele>475</ele>
        <time>2012-05-10T10:39:48Z</time>
      </trkpt>
      <trkpt lat="46.06183" lon="6.38445">
        <ele>475</ele>
        <time>2012-05-10T10:39:50Z</time>
      </trkpt>
      <trkpt lat="46.06192" lon="6.38454">
        <ele>475</ele>
        <time>2012-05-10T10:39:51Z</time>
      </trkpt>
      <trkpt lat="46.06202" lon="6.38465">
        <ele>475</ele>
        <time>2012-05-10T10:39:52Z</time>
      </trkpt>
      <trkpt lat="46.06214" lon="6.38475">
        <ele>475</ele>
        <time>2012-05-10T10:39:53Z</time>
      </trkpt>
      <trkpt lat="46.06225" lon="6.38487">
        <ele>475</ele>
        <time>2012-05-10T10:39:54Z</time>
      </trkpt>
      <trkpt lat="46.06239" lon="6.38499">
        <ele>475</ele>
        <time>2012-05-10T10:39:55Z</time>
      </trkpt>
      <trkpt lat="46.06251" lon="6.38512">
        <ele>475</ele>
        <time>2012-05-10T10:39:56Z</time>
      </trkpt>
      <trkpt lat="46.06265" lon="6.38525">
        <ele>475</ele>
        <time>2012-05-10T10:39:57Z</time>
      </trkpt>
      <trkpt lat="46.06279" lon="6.3854">
        <ele>475</ele>
        <time>2012-05-10T10:39:58Z</time>
      </trkpt>
      <trkpt lat="46.06293" lon="6.38553">
        <ele>475</ele>
        <time>2012-05-10T10:39:59Z</time>
      </trkpt>
      <trkpt lat="46.06307" lon="6.38567">
        <ele>475</ele>
        <time>2012-05-10T10:40:00Z</time>
      </trkpt>
      <trkpt lat="46.06322" lon="6.38579">
        <ele>475</ele>
        <time>2012-05-10T10:40:01Z</time>
      </trkpt>
      <trkpt lat="46.06336" lon="6.38593">
        <ele>475</ele>
        <time>2012-05-10T10:40:02Z</time>
      </trkpt>
      <trkpt lat="46.0635" lon="6.38606">
        <ele>475</ele>
        <time>2012-05-10T10:40:03Z</time>
      </trkpt>
      <trkpt lat="46.06365" lon="6.3862">
        <ele>475</ele>
        <time>2012-05-10T10:40:04Z</time>
      </trkpt>
      <trkpt lat="46.06379" lon="6.38634">
        <ele>475</ele>
        <time>2012-05-10T10:40:05Z</time>
      </trkpt>
      <trkpt lat="46.06393" lon="6.38647">
        <ele>475</ele>
        <time>2012-05-10T10:40:06Z</time>
      </trkpt>
      <trkpt lat="46.06407" lon="6.38661">
        <ele>475</ele>
        <time>2012-05-10T10:40:07Z</time>
      </trkpt>
      <trkpt lat="46.0642" lon="6.38674">
        <ele>475</ele>
        <time>2012-05-10T10:40:08Z</time>
      </trkpt>
      <trkpt lat="46.06434" lon="6.38688">
        <ele>475</ele>
        <time>2012-05-10T10:40:09Z</time>
      </trkpt>
      <trkpt lat="46.06448" lon="6.38701">
        <ele>475</ele>
        <time>2012-05-10T10:40:10Z</time>
      </trkpt>
      <trkpt lat="46.06462" lon="6.38716">
        <ele>475</ele>
        <time>2012-05-10T10:40:11Z</time>
      </trkpt>
      <trkpt lat="46.06476" lon="6.38729">
        <ele>475</ele>
        <time>2012-05-10T10:40:12Z</time>
      </trkpt>
      <trkpt lat="46.06489" lon="6.38744">
        <ele>475</ele>
        <time>2012-05-10T10:40:13Z</time>
      </trkpt>
      <trkpt lat="46.06504" lon="6.38758">
        <ele>475</ele>
        <time>2012-05-10T10:40:14Z</time>
      </trkpt>
      <trkpt lat="46.06519" lon="6.38772">
        <ele>475</ele>
        <time>2012-05-10T10:40:15Z</time>
      </trkpt>
      <trkpt lat="46.06533" lon="6.38786">
        <ele>475</ele>
        <time>2012-05-10T10:40:16Z</time>
      </trkpt>
      <trkpt lat="46.06547" lon="6.388">
        <ele>470</ele>
        <time>2012-05-10T10:40:17Z</time>
      </trkpt>
      <trkpt lat="46.06562" lon="6.38815">
        <ele>470</ele>
        <time>2012-05-10T10:40:18Z</time>
      </trkpt>
      <trkpt lat="46.06577" lon="6.38829">
        <ele>470</ele>
        <time>2012-05-10T10:40:19Z</time>
      </trkpt>
      <trkpt lat="46.06592" lon="6.38842">
        <ele>470</ele>
        <time>2012-05-10T10:40:20Z</time>
      </trkpt>
      <trkpt lat="46.06607" lon="6.38856">
        <ele>470</ele>
        <time>2012-05-10T10:40:21Z</time>
      </trkpt>
      <trkpt lat="46.06622" lon="6.3887">
        <ele>470</ele>
        <time>2012-05-10T10:40:22Z</time>
      </trkpt>
      <trkpt lat="46.06636" lon="6.38885">
        <ele>470</ele>
        <time>2012-05-10T10:40:23Z</time>
      </trkpt>
      <trkpt lat="46.06651" lon="6.38898">
        <ele>470</ele>
        <time>2012-05-10T10:40:24Z</time>
      </trkpt>
      <trkpt lat="46.06664" lon="6.38912">
        <ele>470</ele>
        <time>2012-05-10T10:40:25Z</time>
      </trkpt>
      <trkpt lat="46.06678" lon="6.38925">
        <ele>470</ele>
        <time>2012-05-10T10:40:26Z</time>
      </trkpt>
      <trkpt lat="46.06692" lon="6.38938">
        <ele>470</ele>
        <time>2012-05-10T10:40:27Z</time>
      </trkpt>
      <trkpt lat="46.06706" lon="6.38953">
        <ele>470</ele>
        <time>2012-05-10T10:40:28Z</time>
      </trkpt>
      <trkpt lat="46.06719" lon="6.38966">
        <ele>470</ele>
        <time>2012-05-10T10:40:29Z</time>
      </trkpt>
      <trkpt lat="46.06733" lon="6.3898">
        <ele>470</ele>
        <time>2012-05-10T10:40:30Z</time>
      </trkpt>
      <trkpt lat="46.06746" lon="6.38992">
        <ele>470</ele>
        <time>2012-05-10T10:40:31Z</time>
      </trkpt>
      <trkpt lat="46.0676" lon="6.39005">
        <ele>470</ele>
        <time>2012-05-10T10:40:32Z</time>
      </trkpt>
      <trkpt lat="46.06774" lon="6.39019">
        <ele>470</ele>
        <time>2012-05-10T10:40:33Z</time>
      </trkpt>
      <trkpt lat="46.06788" lon="6.39032">
        <ele>470</ele>
        <time>2012-05-10T10:40:34Z</time>
      </trkpt>
      <trkpt lat="46.06802" lon="6.39045">
        <ele>470</ele>
        <time>2012-05-10T10:40:35Z</time>
      </trkpt>
      <trkpt lat="46.06816" lon="6.39059">
        <ele>470</ele>
        <time>2012-05-10T10:40:36Z</time>
      </trkpt>
      <trkpt lat="46.0683" lon="6.39074">
        <ele>470</ele>
        <time>2012-05-10T10:40:37Z</time>
      </trkpt>
      <trkpt lat="46.06844" lon="6.39088">
        <ele>465</ele>
        <time>2012-05-10T10:40:38Z</time>
      </trkpt>
      <trkpt lat="46.06859" lon="6.39103">
        <ele>465</ele>
        <time>2012-05-10T10:40:39Z</time>
      </trkpt>
      <trkpt lat="46.06873" lon="6.39116">
        <ele>465</ele>
        <time>2012-05-10T10:40:40Z</time>
      </trkpt>
      <trkpt lat="46.06886" lon="6.3913">
        <ele>465</ele>
        <time>2012-05-10T10:40:41Z</time>
      </trkpt>
      <trkpt lat="46.06901" lon="6.39143">
        <ele>465</ele>
        <time>2012-05-10T10:40:42Z</time>
      </trkpt>
      <trkpt lat="46.06914" lon="6.39157">
        <ele>465</ele>
        <time>2012-05-10T10:40:43Z</time>
      </trkpt>
      <trkpt lat="46.06929" lon="6.39171">
        <ele>465</ele>
        <time>2012-05-10T10:40:44Z</time>
      </trkpt>
      <trkpt lat="46.06943" lon="6.39185">
        <ele>465</ele>
        <time>2012-05-10T10:40:45Z</time>
      </trkpt>
      <trkpt lat="46.06958" lon="6.39197">
        <ele>465</ele>
        <time>2012-05-10T10:40:46Z</time>
      </trkpt>
      <trkpt lat="46.06973" lon="6.39211">
        <ele>465</ele>
        <time>2012-05-10T10:40:47Z</time>
      </trkpt>
      <trkpt lat="46.06988" lon="6.39224">
        <ele>465</ele>
        <time>2012-05-10T10:40:48Z</time>
      </trkpt>
      <trkpt lat="46.07002" lon="6.39239">
        <ele>465</ele>
        <time>2012-05-10T10:40:49Z</time>
      </trkpt>
      <trkpt lat="46.07015" lon="6.39252">
        <ele>465</ele>
        <time>2012-05-10T10:40:50Z</time>
      </trkpt>
      <trkpt lat="46.07028" lon="6.39265">
        <ele>465</ele>
        <time>2012-05-10T10:40:51Z</time>
      </trkpt>
      <trkpt lat="46.07041" lon="6.39278">
        <ele>465</ele>
        <time>2012-05-10T10:40:52Z</time>
      </trkpt>
      <trkpt lat="46.07055" lon="6.3929">
        <ele>465</ele>
        <time>2012-05-10T10:40:53Z</time>
      </trkpt>
      <trkpt lat="46.07067" lon="6.39302">
        <ele>465</ele>
        <time>2012-05-10T10:40:54Z</time>
      </trkpt>
      <trkpt lat="46.07079" lon="6.39314">
        <ele>465</ele>
        <time>2012-05-10T10:40:55Z</time>
      </trkpt>
      <trkpt lat="46.07091" lon="6.39326">
        <ele>465</ele>
        <time>2012-05-10T10:40:56Z</time>
      </trkpt>
      <trkpt lat="46.07104" lon="6.39337">
        <ele>465</ele>
        <time>2012-05-10T10:40:57Z</time>
      </trkpt>
      <trkpt lat="46.07116" lon="6.39349">
        <ele>465</ele>
        <time>2012-05-10T10:40:58Z</time>
      </trkpt>
      <trkpt lat="46.07128" lon="6.3936">
        <ele>465</ele>
        <time>2012-05-10T10:40:59Z</time>
      </trkpt>
      <trkpt lat="46.07138" lon="6.39371">
        <ele>465</ele>
        <time>2012-05-10T10:41:00Z</time>
      </trkpt>
      <trkpt lat="46.07149" lon="6.3938">
        <ele>465</ele>
        <time>2012-05-10T10:41:01Z</time>
      </trkpt>
      <trkpt lat="46.0716" lon="6.3939">
        <ele>465</ele>
        <time>2012-05-10T10:41:02Z</time>
      </trkpt>
      <trkpt lat="46.0717" lon="6.394">
        <ele>465</ele>
        <time>2012-05-10T10:41:03Z</time>
      </trkpt>
      <trkpt lat="46.07179" lon="6.39409">
        <ele>460</ele>
        <time>2012-05-10T10:41:04Z</time>
      </trkpt>
      <trkpt lat="46.07189" lon="6.39418">
        <ele>460</ele>
        <time>2012-05-10T10:41:05Z</time>
      </trkpt>
      <trkpt lat="46.07198" lon="6.39427">
        <ele>460</ele>
        <time>2012-05-10T10:41:06Z</time>
      </trkpt>
      <trkpt lat="46.07206" lon="6.39435">
        <ele>460</ele>
        <time>2012-05-10T10:41:07Z</time>
      </trkpt>
      <trkpt lat="46.07215" lon="6.39443">
        <ele>460</ele>
        <time>2012-05-10T10:41:08Z</time>
      </trkpt>
      <trkpt lat="46.07223" lon="6.39451">
        <ele>460</ele>
        <time>2012-05-10T10:41:09Z</time>
      </trkpt>
      <trkpt lat="46.07232" lon="6.3946">
        <ele>460</ele>
        <time>2012-05-10T10:41:10Z</time>
      </trkpt>
      <trkpt lat="46.07241" lon="6.39468">
        <ele>460</ele>
        <time>2012-05-10T10:41:11Z</time>
      </trkpt>
      <trkpt lat="46.07249" lon="6.39476">
        <ele>460</ele>
        <time>2012-05-10T10:41:12Z</time>
      </trkpt>
      <trkpt lat="46.07263" lon="6.39489">
        <ele>460</ele>
        <time>2012-05-10T10:41:14Z</time>
      </trkpt>
      <trkpt lat="46.07278" lon="6.39503">
        <ele>460</ele>
        <time>2012-05-10T10:41:16Z</time>
      </trkpt>
      <trkpt lat="46.07293" lon="6.39516">
        <ele>460</ele>
        <time>2012-05-10T10:41:18Z</time>
      </trkpt>
      <trkpt lat="46.07303" lon="6.39525">
        <ele>460</ele>
        <time>2012-05-10T10:41:20Z</time>
      </trkpt>
      <trkpt lat="46.07311" lon="6.39534">
        <ele>460</ele>
        <time>2012-05-10T10:41:24Z</time>
      </trkpt>
      <trkpt lat="46.07322" lon="6.39547">
        <ele>460</ele>
        <time>2012-05-10T10:41:34Z</time>
      </trkpt>
      <trkpt lat="46.07327" lon="6.39558">
        <ele>460</ele>
        <time>2012-05-10T10:41:35Z</time>
      </trkpt>
      <trkpt lat="46.07337" lon="6.39569">
        <ele>460</ele>
        <time>2012-05-10T10:41:36Z</time>
      </trkpt>
      <trkpt lat="46.07348" lon="6.39578">
        <ele>460</ele>
        <time>2012-05-10T10:41:37Z</time>
      </trkpt>
      <trkpt lat="46.07358" lon="6.39588">
        <ele>460</ele>
        <time>2012-05-10T10:41:38Z</time>
      </trkpt>
      <trkpt lat="46.07369" lon="6.39597">
        <ele>455</ele>
        <time>2012-05-10T10:41:39Z</time>
      </trkpt>
      <trkpt lat="46.0738" lon="6.39607">
        <ele>455</ele>
        <time>2012-05-10T10:41:40Z</time>
      </trkpt>
      <trkpt lat="46.07392" lon="6.39617">
        <ele>455</ele>
        <time>2012-05-10T10:41:41Z</time>
      </trkpt>
      <trkpt lat="46.07403" lon="6.39627">
        <ele>455</ele>
        <time>2012-05-10T10:41:42Z</time>
      </trkpt>
      <trkpt lat="46.07415" lon="6.39636">
        <ele>455</ele>
        <time>2012-05-10T10:41:43Z</time>
      </trkpt>
      <trkpt lat="46.07425" lon="6.39645">
        <ele>455</ele>
        <time>2012-05-10T10:41:44Z</time>
      </trkpt>
      <trkpt lat="46.07435" lon="6.39654">
        <ele>455</ele>
        <time>2012-05-10T10:41:45Z</time>
      </trkpt>
      <trkpt lat="46.07443" lon="6.39662">
        <ele>455</ele>
        <time>2012-05-10T10:41:46Z</time>
      </trkpt>
      <trkpt lat="46.07457" lon="6.39675">
        <ele>455</ele>
        <time>2012-05-10T10:41:48Z</time>
      </trkpt>
      <trkpt lat="46.07469" lon="6.39686">
        <ele>455</ele>
        <time>2012-05-10T10:41:50Z</time>
      </trkpt>
      <trkpt lat="46.07477" lon="6.39697">
        <ele>455</ele>
        <time>2012-05-10T10:41:52Z</time>
      </trkpt>
      <trkpt lat="46.07485" lon="6.39702">
        <ele>455</ele>
        <time>2012-05-10T10:41:55Z</time>
      </trkpt>
      <trkpt lat="46.07497" lon="6.39712">
        <ele>455</ele>
        <time>2012-05-10T10:41:57Z</time>
      </trkpt>
      <trkpt lat="46.0751" lon="6.39724">
        <ele>455</ele>
        <time>2012-05-10T10:41:59Z</time>
      </trkpt>
      <trkpt lat="46.0752" lon="6.39731">
        <ele>455</ele>
        <time>2012-05-10T10:42:01Z</time>
      </trkpt>
      <trkpt lat="46.07525" lon="6.39745">
        <ele>455</ele>
        <time>2012-05-10T10:42:04Z</time>
      </trkpt>
      <trkpt lat="46.07528" lon="6.39762">
        <ele>455</ele>
        <time>2012-05-10T10:42:08Z</time>
      </trkpt>
      <trkpt lat="46.07537" lon="6.39773">
        <ele>455</ele>
        <time>2012-05-10T10:42:10Z</time>
      </trkpt>
      <trkpt lat="46.07548" lon="6.39786">
        <ele>455</ele>
        <time>2012-05-10T10:42:12Z</time>
      </trkpt>
      <trkpt lat="46.07563" lon="6.39798">
        <ele>455</ele>
        <time>2012-05-10T10:42:14Z</time>
      </trkpt>
      <trkpt lat="46.07572" lon="6.39804">
        <ele>455</ele>
        <time>2012-05-10T10:42:15Z</time>
      </trkpt>
      <trkpt lat="46.0758" lon="6.39812">
        <ele>455</ele>
        <time>2012-05-10T10:42:16Z</time>
      </trkpt>
      <trkpt lat="46.07588" lon="6.39819">
        <ele>455</ele>
        <time>2012-05-10T10:42:17Z</time>
      </trkpt>
      <trkpt lat="46.07596" lon="6.39827">
        <ele>455</ele>
        <time>2012-05-10T10:42:18Z</time>
      </trkpt>
      <trkpt lat="46.07603" lon="6.39835">
        <ele>455</ele>
        <time>2012-05-10T10:42:19Z</time>
      </trkpt>
      <trkpt lat="46.07611" lon="6.39843">
        <ele>455</ele>
        <time>2012-05-10T10:42:20Z</time>
      </trkpt>
      <trkpt lat="46.07618" lon="6.39852">
        <ele>455</ele>
        <time>2012-05-10T10:42:21Z</time>
      </trkpt>
      <trkpt lat="46.07626" lon="6.39861">
        <ele>455</ele>
        <time>2012-05-10T10:42:22Z</time>
      </trkpt>
      <trkpt lat="46.07635" lon="6.39869">
        <ele>455</ele>
        <time>2012-05-10T10:42:23Z</time>
      </trkpt>
      <trkpt lat="46.07645" lon="6.39877">
        <ele>455</ele>
        <time>2012-05-10T10:42:24Z</time>
      </trkpt>
      <trkpt lat="46.07654" lon="6.39886">
        <ele>455</ele>
        <time>2012-05-10T10:42:25Z</time>
      </trkpt>
      <trkpt lat="46.07664" lon="6.39894">
        <ele>455</ele>
        <time>2012-05-10T10:42:26Z</time>
      </trkpt>
      <trkpt lat="46.07673" lon="6.39901">
        <ele>455</ele>
        <time>2012-05-10T10:42:27Z</time>
      </trkpt>
      <trkpt lat="46.07683" lon="6.39907">
        <ele>455</ele>
        <time>2012-05-10T10:42:28Z</time>
      </trkpt>
      <trkpt lat="46.07694" lon="6.39914">
        <ele>455</ele>
        <time>2012-05-10T10:42:29Z</time>
      </trkpt>
      <trkpt lat="46.07703" lon="6.3992">
        <ele>455</ele>
        <time>2012-05-10T10:42:30Z</time>
      </trkpt>
      <trkpt lat="46.07712" lon="6.39927">
        <ele>455</ele>
        <time>2012-05-10T10:42:31Z</time>
      </trkpt>
      <trkpt lat="46.07723" lon="6.39931">
        <ele>455</ele>
        <time>2012-05-10T10:42:32Z</time>
      </trkpt>
      <trkpt lat="46.07739" lon="6.39938">
        <ele>455</ele>
        <time>2012-05-10T10:42:34Z</time>
      </trkpt>
      <trkpt lat="46.07747" lon="6.39944">
        <ele>455</ele>
        <time>2012-05-10T10:42:35Z</time>
      </trkpt>
      <trkpt lat="46.07757" lon="6.39947">
        <ele>455</ele>
        <time>2012-05-10T10:42:36Z</time>
      </trkpt>
      <trkpt lat="46.07767" lon="6.39953">
        <ele>455</ele>
        <time>2012-05-10T10:42:37Z</time>
      </trkpt>
      <trkpt lat="46.07777" lon="6.39958">
        <ele>455</ele>
        <time>2012-05-10T10:42:38Z</time>
      </trkpt>
      <trkpt lat="46.07788" lon="6.39962">
        <ele>455</ele>
        <time>2012-05-10T10:42:39Z</time>
      </trkpt>
      <trkpt lat="46.07799" lon="6.39964">
        <ele>455</ele>
        <time>2012-05-10T10:42:40Z</time>
      </trkpt>
      <trkpt lat="46.0781" lon="6.39968">
        <ele>455</ele>
        <time>2012-05-10T10:42:41Z</time>
      </trkpt>
      <trkpt lat="46.07822" lon="6.39971">
        <ele>455</ele>
        <time>2012-05-10T10:42:42Z</time>
      </trkpt>
      <trkpt lat="46.0783" lon="6.39975">
        <ele>455</ele>
        <time>2012-05-10T10:42:43Z</time>
      </trkpt>
      <trkpt lat="46.0784" lon="6.39978">
        <ele>455</ele>
        <time>2012-05-10T10:42:44Z</time>
      </trkpt>
      <trkpt lat="46.07852" lon="6.39981">
        <ele>455</ele>
        <time>2012-05-10T10:42:45Z</time>
      </trkpt>
      <trkpt lat="46.07864" lon="6.39983">
        <ele>455</ele>
        <time>2012-05-10T10:42:46Z</time>
      </trkpt>
      <trkpt lat="46.07874" lon="6.39985">
        <ele>455</ele>
        <time>2012-05-10T10:42:47Z</time>
      </trkpt>
      <trkpt lat="46.07884" lon="6.39987">
        <ele>455</ele>
        <time>2012-05-10T10:42:48Z</time>
      </trkpt>
      <trkpt lat="46.07902" lon="6.39988">
        <ele>455</ele>
        <time>2012-05-10T10:42:50Z</time>
      </trkpt>
      <trkpt lat="46.07917" lon="6.39984">
        <ele>455</ele>
        <time>2012-05-10T10:42:52Z</time>
      </trkpt>
      <trkpt lat="46.07925" lon="6.39978">
        <ele>455</ele>
        <time>2012-05-10T10:42:54Z</time>
      </trkpt>
      <trkpt lat="46.07928" lon="6.39994">
        <ele>455</ele>
        <time>2012-05-10T10:42:58Z</time>
      </trkpt>
      <trkpt lat="46.07925" lon="6.40017">
        <ele>455</ele>
        <time>2012-05-10T10:43:00Z</time>
      </trkpt>
      <trkpt lat="46.07924" lon="6.40032">
        <ele>455</ele>
        <time>2012-05-10T10:43:01Z</time>
      </trkpt>
      <trkpt lat="46.07922" lon="6.40045">
        <ele>455</ele>
        <time>2012-05-10T10:43:02Z</time>
      </trkpt>
      <trkpt lat="46.07917" lon="6.40069">
        <ele>455</ele>
        <time>2012-05-10T10:43:04Z</time>
      </trkpt>
      <trkpt lat="46.07913" lon="6.40094">
        <ele>455</ele>
        <time>2012-05-10T10:43:06Z</time>
      </trkpt>
      <trkpt lat="46.0791" lon="6.40106">
        <ele>455</ele>
        <time>2012-05-10T10:43:07Z</time>
      </trkpt>
      <trkpt lat="46.07907" lon="6.40129">
        <ele>449</ele>
        <time>2012-05-10T10:43:09Z</time>
      </trkpt>
      <trkpt lat="46.07904" lon="6.40146">
        <ele>449</ele>
        <time>2012-05-10T10:43:11Z</time>
      </trkpt>
      <trkpt lat="46.07901" lon="6.40159">
        <ele>449</ele>
        <time>2012-05-10T10:43:14Z</time>
      </trkpt>
      <trkpt lat="46.07901" lon="6.40178">
        <ele>449</ele>
        <time>2012-05-10T10:43:38Z</time>
      </trkpt>
      <trkpt lat="46.07907" lon="6.40188">
        <ele>449</ele>
        <time>2012-05-10T10:43:40Z</time>
      </trkpt>
      <trkpt lat="46.0792" lon="6.4019">
        <ele>449</ele>
        <time>2012-05-10T10:43:42Z</time>
      </trkpt>
      <trkpt lat="46.07934" lon="6.40188">
        <ele>449</ele>
        <time>2012-05-10T10:43:44Z</time>
      </trkpt>
      <trkpt lat="46.07949" lon="6.40187">
        <ele>449</ele>
        <time>2012-05-10T10:43:46Z</time>
      </trkpt>
      <trkpt lat="46.07967" lon="6.40186">
        <ele>449</ele>
        <time>2012-05-10T10:43:48Z</time>
      </trkpt>
      <trkpt lat="46.0798" lon="6.40184">
        <ele>449</ele>
        <time>2012-05-10T10:43:50Z</time>
      </trkpt>
      <trkpt lat="46.07994" lon="6.40185">
        <ele>449</ele>
        <time>2012-05-10T10:43:53Z</time>
      </trkpt>
      <trkpt lat="46.08009" lon="6.40194">
        <ele>449</ele>
        <time>2012-05-10T10:43:55Z</time>
      </trkpt>
      <trkpt lat="46.08017" lon="6.40202">
        <ele>449</ele>
        <time>2012-05-10T10:43:56Z</time>
      </trkpt>
      <trkpt lat="46.08027" lon="6.40208">
        <ele>449</ele>
        <time>2012-05-10T10:43:57Z</time>
      </trkpt>
      <trkpt lat="46.08037" lon="6.40215">
        <ele>449</ele>
        <time>2012-05-10T10:43:58Z</time>
      </trkpt>
      <trkpt lat="46.08048" lon="6.40223">
        <ele>449</ele>
        <time>2012-05-10T10:43:59Z</time>
      </trkpt>
      <trkpt lat="46.08059" lon="6.40233">
        <ele>449</ele>
        <time>2012-05-10T10:44:00Z</time>
      </trkpt>
      <trkpt lat="46.0807" lon="6.40244">
        <ele>449</ele>
        <time>2012-05-10T10:44:01Z</time>
      </trkpt>
      <trkpt lat="46.08081" lon="6.40253">
        <ele>449</ele>
        <time>2012-05-10T10:44:02Z</time>
      </trkpt>
      <trkpt lat="46.08091" lon="6.40263">
        <ele>449</ele>
        <time>2012-05-10T10:44:03Z</time>
      </trkpt>
      <trkpt lat="46.081" lon="6.40273">
        <ele>449</ele>
        <time>2012-05-10T10:44:04Z</time>
      </trkpt>
      <trkpt lat="46.0811" lon="6.40286">
        <ele>449</ele>
        <time>2012-05-10T10:44:05Z</time>
      </trkpt>
      <trkpt lat="46.0812" lon="6.40299">
        <ele>449</ele>
        <time>2012-05-10T10:44:06Z</time>
      </trkpt>
      <trkpt lat="46.08129" lon="6.40314">
        <ele>449</ele>
        <time>2012-05-10T10:44:07Z</time>
      </trkpt>
      <trkpt lat="46.08139" lon="6.40327">
        <ele>449</ele>
        <time>2012-05-10T10:44:08Z</time>
      </trkpt>
      <trkpt lat="46.08147" lon="6.4034">
        <ele>449</ele>
        <time>2012-05-10T10:44:09Z</time>
      </trkpt>
      <trkpt lat="46.08155" lon="6.40352">
        <ele>449</ele>
        <time>2012-05-10T10:44:10Z</time>
      </trkpt>
      <trkpt lat="46.08164" lon="6.40365">
        <ele>449</ele>
        <time>2012-05-10T10:44:11Z</time>
      </trkpt>
      <trkpt lat="46.08172" lon="6.40376">
        <ele>449</ele>
        <time>2012-05-10T10:44:12Z</time>
      </trkpt>
      <trkpt lat="46.08179" lon="6.40386">
        <ele>449</ele>
        <time>2012-05-10T10:44:13Z</time>
      </trkpt>
      <trkpt lat="46.08186" lon="6.40394">
        <ele>449</ele>
        <time>2012-05-10T10:44:14Z</time>
      </trkpt>
      <trkpt lat="46.082" lon="6.40403">
        <ele>449</ele>
        <time>2012-05-10T10:44:16Z</time>
      </trkpt>
      <trkpt lat="46.08213" lon="6.40397">
        <ele>449</ele>
        <time>2012-05-10T10:44:18Z</time>
      </trkpt>
      <trkpt lat="46.08221" lon="6.40389">
        <ele>449</ele>
        <time>2012-05-10T10:44:19Z</time>
      </trkpt>
      <trkpt lat="46.0823" lon="6.4038">
        <ele>449</ele>
        <time>2012-05-10T10:44:20Z</time>
      </trkpt>
      <trkpt lat="46.0824" lon="6.4037">
        <ele>449</ele>
        <time>2012-05-10T10:44:21Z</time>
      </trkpt>
      <trkpt lat="46.0825" lon="6.40361">
        <ele>449</ele>
        <time>2012-05-10T10:44:22Z</time>
      </trkpt>
      <trkpt lat="46.08261" lon="6.4035">
        <ele>449</ele>
        <time>2012-05-10T10:44:23Z</time>
      </trkpt>
      <trkpt lat="46.08273" lon="6.4034">
        <ele>449</ele>
        <time>2012-05-10T10:44:24Z</time>
      </trkpt>
      <trkpt lat="46.08286" lon="6.40328">
        <ele>449</ele>
        <time>2012-05-10T10:44:25Z</time>
      </trkpt>
      <trkpt lat="46.08298" lon="6.40317">
        <ele>449</ele>
        <time>2012-05-10T10:44:26Z</time>
      </trkpt>
      <trkpt lat="46.08309" lon="6.40308">
        <ele>449</ele>
        <time>2012-05-10T10:44:27Z</time>
      </trkpt>
      <trkpt lat="46.08321" lon="6.40299">
        <ele>449</ele>
        <time>2012-05-10T10:44:28Z</time>
      </trkpt>
      <trkpt lat="46.08331" lon="6.4029">
        <ele>449</ele>
        <time>2012-05-10T10:44:29Z</time>
      </trkpt>
      <trkpt lat="46.08344" lon="6.4028">
        <ele>449</ele>
        <time>2012-05-10T10:44:31Z</time>
      </trkpt>
      <trkpt lat="46.08354" lon="6.40272">
        <ele>449</ele>
        <time>2012-05-10T10:44:33Z</time>
      </trkpt>
      <trkpt lat="46.08363" lon="6.40262">
        <ele>449</ele>
        <time>2012-05-10T10:44:36Z</time>
      </trkpt>
      <trkpt lat="46.08371" lon="6.40253">
        <ele>449</ele>
        <time>2012-05-10T10:44:50Z</time>
      </trkpt>
      <trkpt lat="46.08381" lon="6.40242">
        <ele>449</ele>
        <time>2012-05-10T10:44:52Z</time>
      </trkpt>
      <trkpt lat="46.08389" lon="6.40235">
        <ele>449</ele>
        <time>2012-05-10T10:44:53Z</time>
      </trkpt>
      <trkpt lat="46.08398" lon="6.40226">
        <ele>449</ele>
        <time>2012-05-10T10:44:54Z</time>
      </trkpt>
      <trkpt lat="46.08408" lon="6.40217">
        <ele>449</ele>
        <time>2012-05-10T10:44:55Z</time>
      </trkpt>
      <trkpt lat="46.08419" lon="6.40207">
        <ele>449</ele>
        <time>2012-05-10T10:44:56Z</time>
      </trkpt>
      <trkpt lat="46.08431" lon="6.40196">
        <ele>449</ele>
        <time>2012-05-10T10:44:57Z</time>
      </trkpt>
      <trkpt lat="46.08444" lon="6.40185">
        <ele>449</ele>
        <time>2012-05-10T10:44:58Z</time>
      </trkpt>
      <trkpt lat="46.08459" lon="6.40174">
        <ele>449</ele>
        <time>2012-05-10T10:44:59Z</time>
      </trkpt>
      <trkpt lat="46.08472" lon="6.40161">
        <ele>449</ele>
        <time>2012-05-10T10:45:00Z</time>
      </trkpt>
      <trkpt lat="46.08489" lon="6.40149">
        <ele>449</ele>
        <time>2012-05-10T10:45:01Z</time>
      </trkpt>
      <trkpt lat="46.08502" lon="6.40137">
        <ele>449</ele>
        <time>2012-05-10T10:45:02Z</time>
      </trkpt>
      <trkpt lat="46.08516" lon="6.40126">
        <ele>449</ele>
        <time>2012-05-10T10:45:03Z</time>
      </trkpt>
      <trkpt lat="46.08529" lon="6.40115">
        <ele>449</ele>
        <time>2012-05-10T10:45:04Z</time>
      </trkpt>
      <trkpt lat="46.08541" lon="6.40104">
        <ele>449</ele>
        <time>2012-05-10T10:45:05Z</time>
      </trkpt>
      <trkpt lat="46.08554" lon="6.40091">
        <ele>449</ele>
        <time>2012-05-10T10:45:06Z</time>
      </trkpt>
      <trkpt lat="46.08567" lon="6.40079">
        <ele>449</ele>
        <time>2012-05-10T10:45:07Z</time>
      </trkpt>
      <trkpt lat="46.08581" lon="6.40068">
        <ele>449</ele>
        <time>2012-05-10T10:45:08Z</time>
      </trkpt>
      <trkpt lat="46.08594" lon="6.40055">
        <ele>449</ele>
        <time>2012-05-10T10:45:09Z</time>
      </trkpt>
      <trkpt lat="46.08607" lon="6.40042">
        <ele>449</ele>
        <time>2012-05-10T10:45:10Z</time>
      </trkpt>
      <trkpt lat="46.08619" lon="6.40028">
        <ele>444</ele>
        <time>2012-05-10T10:45:11Z</time>
      </trkpt>
      <trkpt lat="46.08631" lon="6.40012">
        <ele>444</ele>
        <time>2012-05-10T10:45:12Z</time>
      </trkpt>
      <trkpt lat="46.08641" lon="6.39995">
        <ele>444</ele>
        <time>2012-05-10T10:45:13Z</time>
      </trkpt>
      <trkpt lat="46.08651" lon="6.39975">
        <ele>444</ele>
        <time>2012-05-10T10:45:14Z</time>
      </trkpt>
      <trkpt lat="46.0866" lon="6.39954">
        <ele>444</ele>
        <time>2012-05-10T10:45:15Z</time>
      </trkpt>
      <trkpt lat="46.08667" lon="6.3993">
        <ele>444</ele>
        <time>2012-05-10T10:45:16Z</time>
      </trkpt>
      <trkpt lat="46.08674" lon="6.39906">
        <ele>444</ele>
        <time>2012-05-10T10:45:17Z</time>
      </trkpt>
      <trkpt lat="46.08679" lon="6.3988">
        <ele>444</ele>
        <time>2012-05-10T10:45:18Z</time>
      </trkpt>
      <trkpt lat="46.08682" lon="6.39852">
        <ele>444</ele>
        <time>2012-05-10T10:45:19Z</time>
      </trkpt>
      <trkpt lat="46.08686" lon="6.39824">
        <ele>444</ele>
        <time>2012-05-10T10:45:20Z</time>
      </trkpt>
      <trkpt lat="46.08689" lon="6.39796">
        <ele>444</ele>
        <time>2012-05-10T10:45:21Z</time>
      </trkpt>
      <trkpt lat="46.08689" lon="6.39768">
        <ele>444</ele>
        <time>2012-05-10T10:45:22Z</time>
      </trkpt>
      <trkpt lat="46.08688" lon="6.39738">
        <ele>444</ele>
        <time>2012-05-10T10:45:23Z</time>
      </trkpt>
      <trkpt lat="46.08686" lon="6.39708">
        <ele>444</ele>
        <time>2012-05-10T10:45:24Z</time>
      </trkpt>
      <trkpt lat="46.08684" lon="6.3968">
        <ele>444</ele>
        <time>2012-05-10T10:45:25Z</time>
      </trkpt>
      <trkpt lat="46.08681" lon="6.39651">
        <ele>444</ele>
        <time>2012-05-10T10:45:26Z</time>
      </trkpt>
      <trkpt lat="46.08678" lon="6.39625">
        <ele>449</ele>
        <time>2012-05-10T10:45:27Z</time>
      </trkpt>
      <trkpt lat="46.08675" lon="6.39601">
        <ele>449</ele>
        <time>2012-05-10T10:45:28Z</time>
      </trkpt>
      <trkpt lat="46.08672" lon="6.39579">
        <ele>449</ele>
        <time>2012-05-10T10:45:29Z</time>
      </trkpt>
      <trkpt lat="46.08669" lon="6.39563">
        <ele>449</ele>
        <time>2012-05-10T10:45:30Z</time>
      </trkpt>
      <trkpt lat="46.08667" lon="6.39543">
        <ele>456</ele>
        <time>2012-05-10T10:45:32Z</time>
      </trkpt>
      <trkpt lat="46.08677" lon="6.39532">
        <ele>456</ele>
        <time>2012-05-10T10:45:36Z</time>
      </trkpt>
      <trkpt lat="46.0869" lon="6.39524">
        <ele>456</ele>
        <time>2012-05-10T10:45:38Z</time>
      </trkpt>
      <trkpt lat="46.08704" lon="6.39511">
        <ele>463</ele>
        <time>2012-05-10T10:45:40Z</time>
      </trkpt>
      <trkpt lat="46.08716" lon="6.39495">
        <ele>463</ele>
        <time>2012-05-10T10:45:42Z</time>
      </trkpt>
      <trkpt lat="46.08724" lon="6.39487">
        <ele>469</ele>
        <time>2012-05-10T10:45:44Z</time>
      </trkpt>
      <trkpt lat="46.08734" lon="6.39477">
        <ele>469</ele>
        <time>2012-05-10T10:45:47Z</time>
      </trkpt>
      <trkpt lat="46.08742" lon="6.39465">
        <ele>469</ele>
        <time>2012-05-10T10:45:49Z</time>
      </trkpt>
      <trkpt lat="46.08752" lon="6.39451">
        <ele>475</ele>
        <time>2012-05-10T10:45:51Z</time>
      </trkpt>
      <trkpt lat="46.08765" lon="6.39442">
        <ele>475</ele>
        <time>2012-05-10T10:45:53Z</time>
      </trkpt>
      <trkpt lat="46.08777" lon="6.3944">
        <ele>481</ele>
        <time>2012-05-10T10:45:55Z</time>
      </trkpt>
      <trkpt lat="46.0879" lon="6.39444">
        <ele>481</ele>
        <time>2012-05-10T10:45:57Z</time>
      </trkpt>
      <trkpt lat="46.08802" lon="6.39452">
        <ele>488</ele>
        <time>2012-05-10T10:45:59Z</time>
      </trkpt>
      <trkpt lat="46.08812" lon="6.39462">
        <ele>488</ele>
        <time>2012-05-10T10:46:01Z</time>
      </trkpt>
      <trkpt lat="46.08823" lon="6.39468">
        <ele>499</ele>
        <time>2012-05-10T10:46:04Z</time>
      </trkpt>
      <trkpt lat="46.08834" lon="6.39477">
        <ele>505</ele>
        <time>2012-05-10T10:46:07Z</time>
      </trkpt>
      <trkpt lat="46.08842" lon="6.39494">
        <ele>505</ele>
        <time>2012-05-10T10:46:10Z</time>
      </trkpt>
      <trkpt lat="46.08848" lon="6.39508">
        <ele>514</ele>
        <time>2012-05-10T10:46:12Z</time>
      </trkpt>
      <trkpt lat="46.08849" lon="6.39524">
        <ele>514</ele>
        <time>2012-05-10T10:46:14Z</time>
      </trkpt>
      <trkpt lat="46.08842" lon="6.39539">
        <ele>524</ele>
        <time>2012-05-10T10:46:16Z</time>
      </trkpt>
      <trkpt lat="46.08839" lon="6.39554">
        <ele>524</ele>
        <time>2012-05-10T10:46:18Z</time>
      </trkpt>
      <trkpt lat="46.08844" lon="6.39565">
        <ele>535</ele>
        <time>2012-05-10T10:46:21Z</time>
      </trkpt>
      <trkpt lat="46.08856" lon="6.39558">
        <ele>535</ele>
        <time>2012-05-10T10:46:24Z</time>
      </trkpt>
      <trkpt lat="46.08865" lon="6.39553">
        <ele>535</ele>
        <time>2012-05-10T10:46:27Z</time>
      </trkpt>
      <trkpt lat="46.08867" lon="6.39567">
        <ele>528</ele>
        <time>2012-05-10T10:46:34Z</time>
      </trkpt>
      <trkpt lat="46.08877" lon="6.39559">
        <ele>528</ele>
        <time>2012-05-10T10:46:39Z</time>
      </trkpt>
      <trkpt lat="46.08882" lon="6.39541">
        <ele>528</ele>
        <time>2012-05-10T10:46:41Z</time>
      </trkpt>
      <trkpt lat="46.08886" lon="6.39528">
        <ele>528</ele>
        <time>2012-05-10T10:46:42Z</time>
      </trkpt>
      <trkpt lat="46.08887" lon="6.39514">
        <ele>528</ele>
        <time>2012-05-10T10:46:43Z</time>
      </trkpt>
      <trkpt lat="46.08891" lon="6.395">
        <ele>528</ele>
        <time>2012-05-10T10:46:44Z</time>
      </trkpt>
      <trkpt lat="46.08891" lon="6.39485">
        <ele>528</ele>
        <time>2012-05-10T10:46:45Z</time>
      </trkpt>
      <trkpt lat="46.08892" lon="6.39469">
        <ele>528</ele>
        <time>2012-05-10T10:46:46Z</time>
      </trkpt>
      <trkpt lat="46.08894" lon="6.39455">
        <ele>522</ele>
        <time>2012-05-10T10:46:47Z</time>
      </trkpt>
      <trkpt lat="46.08895" lon="6.39439">
        <ele>522</ele>
        <time>2012-05-10T10:46:48Z</time>
      </trkpt>
      <trkpt lat="46.08897" lon="6.39424">
        <ele>522</ele>
        <time>2012-05-10T10:46:49Z</time>
      </trkpt>
      <trkpt lat="46.08898" lon="6.3941">
        <ele>522</ele>
        <time>2012-05-10T10:46:50Z</time>
      </trkpt>
      <trkpt lat="46.08899" lon="6.39395">
        <ele>522</ele>
        <time>2012-05-10T10:46:51Z</time>
      </trkpt>
      <trkpt lat="46.08902" lon="6.39379">
        <ele>522</ele>
        <time>2012-05-10T10:46:52Z</time>
      </trkpt>
      <trkpt lat="46.08906" lon="6.39362">
        <ele>522</ele>
        <time>2012-05-10T10:46:53Z</time>
      </trkpt>
      <trkpt lat="46.0891" lon="6.39346">
        <ele>522</ele>
        <time>2012-05-10T10:46:54Z</time>
      </trkpt>
      <trkpt lat="46.08912" lon="6.39331">
        <ele>522</ele>
        <time>2012-05-10T10:46:55Z</time>
      </trkpt>
      <trkpt lat="46.08916" lon="6.39308">
        <ele>522</ele>
        <time>2012-05-10T10:46:57Z</time>
      </trkpt>
      <trkpt lat="46.0892" lon="6.39295">
        <ele>522</ele>
        <time>2012-05-10T10:46:58Z</time>
      </trkpt>
      <trkpt lat="46.08928" lon="6.39272">
        <ele>522</ele>
        <time>2012-05-10T10:47:00Z</time>
      </trkpt>
      <trkpt lat="46.08937" lon="6.39251">
        <ele>522</ele>
        <time>2012-05-10T10:47:02Z</time>
      </trkpt>
      <trkpt lat="46.0894" lon="6.39237">
        <ele>533</ele>
        <time>2012-05-10T10:47:03Z</time>
      </trkpt>
      <trkpt lat="46.08946" lon="6.39212">
        <ele>539</ele>
        <time>2012-05-10T10:47:05Z</time>
      </trkpt>
      <trkpt lat="46.08952" lon="6.39191">
        <ele>539</ele>
        <time>2012-05-10T10:47:07Z</time>
      </trkpt>
      <trkpt lat="46.08957" lon="6.39171">
        <ele>539</ele>
        <time>2012-05-10T10:47:09Z</time>
      </trkpt>
      <trkpt lat="46.08966" lon="6.39151">
        <ele>546</ele>
        <time>2012-05-10T10:47:11Z</time>
      </trkpt>
      <trkpt lat="46.08971" lon="6.3914">
        <ele>546</ele>
        <time>2012-05-10T10:47:12Z</time>
      </trkpt>
      <trkpt lat="46.08977" lon="6.39125">
        <ele>546</ele>
        <time>2012-05-10T10:47:13Z</time>
      </trkpt>
      <trkpt lat="46.08981" lon="6.39112">
        <ele>551</ele>
        <time>2012-05-10T10:47:14Z</time>
      </trkpt>
      <trkpt lat="46.08987" lon="6.391">
        <ele>551</ele>
        <time>2012-05-10T10:47:15Z</time>
      </trkpt>
      <trkpt lat="46.08995" lon="6.3908">
        <ele>551</ele>
        <time>2012-05-10T10:47:17Z</time>
      </trkpt>
      <trkpt lat="46.09001" lon="6.3906">
        <ele>551</ele>
        <time>2012-05-10T10:47:19Z</time>
      </trkpt>
      <trkpt lat="46.09002" lon="6.39045">
        <ele>557</ele>
        <time>2012-05-10T10:47:20Z</time>
      </trkpt>
      <trkpt lat="46.09006" lon="6.39027">
        <ele>557</ele>
        <time>2012-05-10T10:47:21Z</time>
      </trkpt>
      <trkpt lat="46.09008" lon="6.39009">
        <ele>557</ele>
        <time>2012-05-10T10:47:22Z</time>
      </trkpt>
      <trkpt lat="46.09012" lon="6.38991">
        <ele>557</ele>
        <time>2012-05-10T10:47:23Z</time>
      </trkpt>
      <trkpt lat="46.09014" lon="6.38975">
        <ele>557</ele>
        <time>2012-05-10T10:47:24Z</time>
      </trkpt>
      <trkpt lat="46.09016" lon="6.38961">
        <ele>557</ele>
        <time>2012-05-10T10:47:25Z</time>
      </trkpt>
      <trkpt lat="46.09019" lon="6.38947">
        <ele>557</ele>
        <time>2012-05-10T10:47:26Z</time>
      </trkpt>
      <trkpt lat="46.09021" lon="6.3893">
        <ele>557</ele>
        <time>2012-05-10T10:47:27Z</time>
      </trkpt>
      <trkpt lat="46.09023" lon="6.38917">
        <ele>557</ele>
        <time>2012-05-10T10:47:28Z</time>
      </trkpt>
      <trkpt lat="46.09026" lon="6.38903">
        <ele>557</ele>
        <time>2012-05-10T10:47:29Z</time>
      </trkpt>
      <trkpt lat="46.09029" lon="6.38891">
        <ele>557</ele>
        <time>2012-05-10T10:47:30Z</time>
      </trkpt>
      <trkpt lat="46.09034" lon="6.38867">
        <ele>557</ele>
        <time>2012-05-10T10:47:32Z</time>
      </trkpt>
      <trkpt lat="46.09035" lon="6.38852">
        <ele>557</ele>
        <time>2012-05-10T10:47:33Z</time>
      </trkpt>
      <trkpt lat="46.09036" lon="6.38839">
        <ele>557</ele>
        <time>2012-05-10T10:47:34Z</time>
      </trkpt>
      <trkpt lat="46.09036" lon="6.38819">
        <ele>562</ele>
        <time>2012-05-10T10:47:36Z</time>
      </trkpt>
      <trkpt lat="46.09037" lon="6.38801">
        <ele>562</ele>
        <time>2012-05-10T10:47:38Z</time>
      </trkpt>
      <trkpt lat="46.09037" lon="6.38779">
        <ele>562</ele>
        <time>2012-05-10T10:47:40Z</time>
      </trkpt>
      <trkpt lat="46.09038" lon="6.38765">
        <ele>562</ele>
        <time>2012-05-10T10:47:41Z</time>
      </trkpt>
      <trkpt lat="46.09039" lon="6.38751">
        <ele>562</ele>
        <time>2012-05-10T10:47:42Z</time>
      </trkpt>
      <trkpt lat="46.09041" lon="6.38726">
        <ele>562</ele>
        <time>2012-05-10T10:47:44Z</time>
      </trkpt>
      <trkpt lat="46.09042" lon="6.38701">
        <ele>562</ele>
        <time>2012-05-10T10:47:46Z</time>
      </trkpt>
      <trkpt lat="46.09046" lon="6.38688">
        <ele>562</ele>
        <time>2012-05-10T10:47:47Z</time>
      </trkpt>
      <trkpt lat="46.09051" lon="6.38673">
        <ele>562</ele>
        <time>2012-05-10T10:47:48Z</time>
      </trkpt>
      <trkpt lat="46.09056" lon="6.3866">
        <ele>562</ele>
        <time>2012-05-10T10:47:49Z</time>
      </trkpt>
      <trkpt lat="46.09064" lon="6.38647">
        <ele>562</ele>
        <time>2012-05-10T10:47:50Z</time>
      </trkpt>
      <trkpt lat="46.0907" lon="6.38637">
        <ele>562</ele>
        <time>2012-05-10T10:47:51Z</time>
      </trkpt>
      <trkpt lat="46.09076" lon="6.38627">
        <ele>562</ele>
        <time>2012-05-10T10:47:52Z</time>
      </trkpt>
      <trkpt lat="46.09083" lon="6.38607">
        <ele>562</ele>
        <time>2012-05-10T10:47:54Z</time>
      </trkpt>
      <trkpt lat="46.09083" lon="6.38589">
        <ele>555</ele>
        <time>2012-05-10T10:47:56Z</time>
      </trkpt>
      <trkpt lat="46.09084" lon="6.38574">
        <ele>555</ele>
        <time>2012-05-10T10:47:58Z</time>
      </trkpt>
      <trkpt lat="46.09086" lon="6.38559">
        <ele>550</ele>
        <time>2012-05-10T10:48:00Z</time>
      </trkpt>
      <trkpt lat="46.09098" lon="6.38549">
        <ele>550</ele>
        <time>2012-05-10T10:48:03Z</time>
      </trkpt>
      <trkpt lat="46.09116" lon="6.3855">
        <ele>550</ele>
        <time>2012-05-10T10:48:05Z</time>
      </trkpt>
      <trkpt lat="46.09125" lon="6.38547">
        <ele>550</ele>
        <time>2012-05-10T10:48:06Z</time>
      </trkpt>
      <trkpt lat="46.09142" lon="6.3854">
        <ele>555</ele>
        <time>2012-05-10T10:48:08Z</time>
      </trkpt>
      <trkpt lat="46.09152" lon="6.38534">
        <ele>555</ele>
        <time>2012-05-10T10:48:09Z</time>
      </trkpt>
      <trkpt lat="46.09168" lon="6.38524">
        <ele>555</ele>
        <time>2012-05-10T10:48:11Z</time>
      </trkpt>
      <trkpt lat="46.09177" lon="6.38517">
        <ele>555</ele>
        <time>2012-05-10T10:48:12Z</time>
      </trkpt>
      <trkpt lat="46.09186" lon="6.3851">
        <ele>555</ele>
        <time>2012-05-10T10:48:13Z</time>
      </trkpt>
      <trkpt lat="46.09192" lon="6.38499">
        <ele>561</ele>
        <time>2012-05-10T10:48:14Z</time>
      </trkpt>
      <trkpt lat="46.09202" lon="6.38482">
        <ele>561</ele>
        <time>2012-05-10T10:48:16Z</time>
      </trkpt>
      <trkpt lat="46.09214" lon="6.38475">
        <ele>567</ele>
        <time>2012-05-10T10:48:18Z</time>
      </trkpt>
      <trkpt lat="46.09225" lon="6.38463">
        <ele>567</ele>
        <time>2012-05-10T10:48:20Z</time>
      </trkpt>
      <trkpt lat="46.09233" lon="6.38445">
        <ele>574</ele>
        <time>2012-05-10T10:48:22Z</time>
      </trkpt>
      <trkpt lat="46.09242" lon="6.38429">
        <ele>574</ele>
        <time>2012-05-10T10:48:24Z</time>
      </trkpt>
      <trkpt lat="46.09256" lon="6.38416">
        <ele>582</ele>
        <time>2012-05-10T10:48:26Z</time>
      </trkpt>
      <trkpt lat="46.09266" lon="6.38408">
        <ele>582</ele>
        <time>2012-05-10T10:48:27Z</time>
      </trkpt>
      <trkpt lat="46.09277" lon="6.38403">
        <ele>588</ele>
        <time>2012-05-10T10:48:28Z</time>
      </trkpt>
      <trkpt lat="46.09287" lon="6.38398">
        <ele>588</ele>
        <time>2012-05-10T10:48:29Z</time>
      </trkpt>
      <trkpt lat="46.09298" lon="6.38391">
        <ele>588</ele>
        <time>2012-05-10T10:48:30Z</time>
      </trkpt>
      <trkpt lat="46.09307" lon="6.38386">
        <ele>595</ele>
        <time>2012-05-10T10:48:31Z</time>
      </trkpt>
      <trkpt lat="46.09321" lon="6.38372">
        <ele>595</ele>
        <time>2012-05-10T10:48:33Z</time>
      </trkpt>
      <trkpt lat="46.09332" lon="6.38355">
        <ele>601</ele>
        <time>2012-05-10T10:48:35Z</time>
      </trkpt>
      <trkpt lat="46.09345" lon="6.38339">
        <ele>601</ele>
        <time>2012-05-10T10:48:37Z</time>
      </trkpt>
      <trkpt lat="46.09356" lon="6.38323">
        <ele>610</ele>
        <time>2012-05-10T10:48:39Z</time>
      </trkpt>
      <trkpt lat="46.09363" lon="6.38314">
        <ele>610</ele>
        <time>2012-05-10T10:48:40Z</time>
      </trkpt>
      <trkpt lat="46.0937" lon="6.38294">
        <ele>617</ele>
        <time>2012-05-10T10:48:42Z</time>
      </trkpt>
      <trkpt lat="46.09376" lon="6.38275">
        <ele>617</ele>
        <time>2012-05-10T10:48:44Z</time>
      </trkpt>
      <trkpt lat="46.09383" lon="6.38258">
        <ele>625</ele>
        <time>2012-05-10T10:48:46Z</time>
      </trkpt>
      <trkpt lat="46.09392" lon="6.38237">
        <ele>625</ele>
        <time>2012-05-10T10:48:48Z</time>
      </trkpt>
      <trkpt lat="46.094" lon="6.38222">
        <ele>635</ele>
        <time>2012-05-10T10:48:50Z</time>
      </trkpt>
      <trkpt lat="46.09412" lon="6.38208">
        <ele>635</ele>
        <time>2012-05-10T10:48:52Z</time>
      </trkpt>
      <trkpt lat="46.09424" lon="6.38194">
        <ele>635</ele>
        <time>2012-05-10T10:48:54Z</time>
      </trkpt>
      <trkpt lat="46.09436" lon="6.38175">
        <ele>635</ele>
        <time>2012-05-10T10:48:56Z</time>
      </trkpt>
      <trkpt lat="46.09443" lon="6.38166">
        <ele>635</ele>
        <time>2012-05-10T10:48:57Z</time>
      </trkpt>
      <trkpt lat="46.09451" lon="6.38157">
        <ele>641</ele>
        <time>2012-05-10T10:48:58Z</time>
      </trkpt>
      <trkpt lat="46.09461" lon="6.38141">
        <ele>641</ele>
        <time>2012-05-10T10:49:00Z</time>
      </trkpt>
      <trkpt lat="46.09474" lon="6.38128">
        <ele>641</ele>
        <time>2012-05-10T10:49:02Z</time>
      </trkpt>
      <trkpt lat="46.09489" lon="6.38113">
        <ele>641</ele>
        <time>2012-05-10T10:49:04Z</time>
      </trkpt>
      <trkpt lat="46.09495" lon="6.38103">
        <ele>641</ele>
        <time>2012-05-10T10:49:05Z</time>
      </trkpt>
      <trkpt lat="46.09505" lon="6.38085">
        <ele>641</ele>
        <time>2012-05-10T10:49:07Z</time>
      </trkpt>
      <trkpt lat="46.0951" lon="6.38065">
        <ele>641</ele>
        <time>2012-05-10T10:49:09Z</time>
      </trkpt>
      <trkpt lat="46.09517" lon="6.38049">
        <ele>641</ele>
        <time>2012-05-10T10:49:11Z</time>
      </trkpt>
      <trkpt lat="46.09526" lon="6.38034">
        <ele>641</ele>
        <time>2012-05-10T10:49:13Z</time>
      </trkpt>
      <trkpt lat="46.09535" lon="6.3802">
        <ele>635</ele>
        <time>2012-05-10T10:49:15Z</time>
      </trkpt>
      <trkpt lat="46.09542" lon="6.3801">
        <ele>635</ele>
        <time>2012-05-10T10:49:17Z</time>
      </trkpt>
      <trkpt lat="46.09551" lon="6.38002">
        <ele>635</ele>
        <time>2012-05-10T10:49:19Z</time>
      </trkpt>
      <trkpt lat="46.09558" lon="6.37991">
        <ele>635</ele>
        <time>2012-05-10T10:49:21Z</time>
      </trkpt>
      <trkpt lat="46.09562" lon="6.37976">
        <ele>635</ele>
        <time>2012-05-10T10:49:23Z</time>
      </trkpt>
      <trkpt lat="46.09565" lon="6.37961">
        <ele>635</ele>
        <time>2012-05-10T10:49:25Z</time>
      </trkpt>
      <trkpt lat="46.09569" lon="6.37944">
        <ele>635</ele>
        <time>2012-05-10T10:49:27Z</time>
      </trkpt>
      <trkpt lat="46.09577" lon="6.37933">
        <ele>635</ele>
        <time>2012-05-10T10:49:29Z</time>
      </trkpt>
      <trkpt lat="46.09591" lon="6.37927">
        <ele>635</ele>
        <time>2012-05-10T10:49:31Z</time>
      </trkpt>
      <trkpt lat="46.09607" lon="6.37917">
        <ele>635</ele>
        <time>2012-05-10T10:49:33Z</time>
      </trkpt>
      <trkpt lat="46.09615" lon="6.3791">
        <ele>635</ele>
        <time>2012-05-10T10:49:34Z</time>
      </trkpt>
      <trkpt lat="46.09623" lon="6.37903">
        <ele>635</ele>
        <time>2012-05-10T10:49:35Z</time>
      </trkpt>
      <trkpt lat="46.09632" lon="6.37895">
        <ele>635</ele>
        <time>2012-05-10T10:49:36Z</time>
      </trkpt>
      <trkpt lat="46.09641" lon="6.37887">
        <ele>635</ele>
        <time>2012-05-10T10:49:37Z</time>
      </trkpt>
      <trkpt lat="46.0965" lon="6.37878">
        <ele>635</ele>
        <time>2012-05-10T10:49:38Z</time>
      </trkpt>
      <trkpt lat="46.09659" lon="6.37869">
        <ele>635</ele>
        <time>2012-05-10T10:49:39Z</time>
      </trkpt>
      <trkpt lat="46.09668" lon="6.3786">
        <ele>641</ele>
        <time>2012-05-10T10:49:40Z</time>
      </trkpt>
      <trkpt lat="46.09678" lon="6.37852">
        <ele>641</ele>
        <time>2012-05-10T10:49:41Z</time>
      </trkpt>
      <trkpt lat="46.09689" lon="6.37842">
        <ele>641</ele>
        <time>2012-05-10T10:49:42Z</time>
      </trkpt>
      <trkpt lat="46.09699" lon="6.37833">
        <ele>647</ele>
        <time>2012-05-10T10:49:43Z</time>
      </trkpt>
      <trkpt lat="46.09708" lon="6.37822">
        <ele>647</ele>
        <time>2012-05-10T10:49:44Z</time>
      </trkpt>
      <trkpt lat="46.09717" lon="6.37814">
        <ele>647</ele>
        <time>2012-05-10T10:49:45Z</time>
      </trkpt>
      <trkpt lat="46.09728" lon="6.37807">
        <ele>652</ele>
        <time>2012-05-10T10:49:46Z</time>
      </trkpt>
      <trkpt lat="46.09739" lon="6.37801">
        <ele>652</ele>
        <time>2012-05-10T10:49:47Z</time>
      </trkpt>
      <trkpt lat="46.09751" lon="6.37798">
        <ele>652</ele>
        <time>2012-05-10T10:49:48Z</time>
      </trkpt>
      <trkpt lat="46.09764" lon="6.37796">
        <ele>658</ele>
        <time>2012-05-10T10:49:49Z</time>
      </trkpt>
      <trkpt lat="46.09776" lon="6.37795">
        <ele>658</ele>
        <time>2012-05-10T10:49:50Z</time>
      </trkpt>
      <trkpt lat="46.09787" lon="6.37792">
        <ele>658</ele>
        <time>2012-05-10T10:49:51Z</time>
      </trkpt>
      <trkpt lat="46.09797" lon="6.37789">
        <ele>658</ele>
        <time>2012-05-10T10:49:52Z</time>
      </trkpt>
      <trkpt lat="46.09805" lon="6.37782">
        <ele>665</ele>
        <time>2012-05-10T10:49:53Z</time>
      </trkpt>
      <trkpt lat="46.09811" lon="6.37772">
        <ele>665</ele>
        <time>2012-05-10T10:49:54Z</time>
      </trkpt>
      <trkpt lat="46.09817" lon="6.3776">
        <ele>665</ele>
        <time>2012-05-10T10:49:55Z</time>
      </trkpt>
      <trkpt lat="46.09824" lon="6.37747">
        <ele>665</ele>
        <time>2012-05-10T10:49:56Z</time>
      </trkpt>
      <trkpt lat="46.09831" lon="6.37736">
        <ele>671</ele>
        <time>2012-05-10T10:49:57Z</time>
      </trkpt>
      <trkpt lat="46.09839" lon="6.37722">
        <ele>671</ele>
        <time>2012-05-10T10:49:58Z</time>
      </trkpt>
      <trkpt lat="46.09846" lon="6.37708">
        <ele>671</ele>
        <time>2012-05-10T10:49:59Z</time>
      </trkpt>
      <trkpt lat="46.09854" lon="6.37694">
        <ele>677</ele>
        <time>2012-05-10T10:50:00Z</time>
      </trkpt>
      <trkpt lat="46.09861" lon="6.3768">
        <ele>677</ele>
        <time>2012-05-10T10:50:01Z</time>
      </trkpt>
      <trkpt lat="46.09867" lon="6.37666">
        <ele>677</ele>
        <time>2012-05-10T10:50:02Z</time>
      </trkpt>
      <trkpt lat="46.09875" lon="6.37653">
        <ele>682</ele>
        <time>2012-05-10T10:50:03Z</time>
      </trkpt>
      <trkpt lat="46.09882" lon="6.37639">
        <ele>682</ele>
        <time>2012-05-10T10:50:04Z</time>
      </trkpt>
      <trkpt lat="46.09889" lon="6.37626">
        <ele>682</ele>
        <time>2012-05-10T10:50:05Z</time>
      </trkpt>
      <trkpt lat="46.09896" lon="6.37616">
        <ele>682</ele>
        <time>2012-05-10T10:50:06Z</time>
      </trkpt>
      <trkpt lat="46.09904" lon="6.37606">
        <ele>682</ele>
        <time>2012-05-10T10:50:07Z</time>
      </trkpt>
      <trkpt lat="46.09912" lon="6.37595">
        <ele>688</ele>
        <time>2012-05-10T10:50:08Z</time>
      </trkpt>
      <trkpt lat="46.09922" lon="6.37587">
        <ele>688</ele>
        <time>2012-05-10T10:50:09Z</time>
      </trkpt>
      <trkpt lat="46.09933" lon="6.37576">
        <ele>688</ele>
        <time>2012-05-10T10:50:10Z</time>
      </trkpt>
      <trkpt lat="46.09944" lon="6.37565">
        <ele>688</ele>
        <time>2012-05-10T10:50:11Z</time>
      </trkpt>
      <trkpt lat="46.09954" lon="6.37555">
        <ele>688</ele>
        <time>2012-05-10T10:50:12Z</time>
      </trkpt>
      <trkpt lat="46.09962" lon="6.37547">
        <ele>693</ele>
        <time>2012-05-10T10:50:13Z</time>
      </trkpt>
      <trkpt lat="46.0997" lon="6.37538">
        <ele>693</ele>
        <time>2012-05-10T10:50:14Z</time>
      </trkpt>
      <trkpt lat="46.09984" lon="6.37528">
        <ele>693</ele>
        <time>2012-05-10T10:50:16Z</time>
      </trkpt>
      <trkpt lat="46.09997" lon="6.37532">
        <ele>693</ele>
        <time>2012-05-10T10:50:18Z</time>
      </trkpt>
      <trkpt lat="46.10004" lon="6.37547">
        <ele>699</ele>
        <time>2012-05-10T10:50:20Z</time>
      </trkpt>
      <trkpt lat="46.10002" lon="6.37562">
        <ele>699</ele>
        <time>2012-05-10T10:50:21Z</time>
      </trkpt>
      <trkpt lat="46.09997" lon="6.37582">
        <ele>699</ele>
        <time>2012-05-10T10:50:22Z</time>
      </trkpt>
      <trkpt lat="46.09992" lon="6.37602">
        <ele>705</ele>
        <time>2012-05-10T10:50:23Z</time>
      </trkpt>
      <trkpt lat="46.09989" lon="6.37622">
        <ele>705</ele>
        <time>2012-05-10T10:50:24Z</time>
      </trkpt>
      <trkpt lat="46.09986" lon="6.37643">
        <ele>705</ele>
        <time>2012-05-10T10:50:25Z</time>
      </trkpt>
      <trkpt lat="46.09981" lon="6.37664">
        <ele>705</ele>
        <time>2012-05-10T10:50:26Z</time>
      </trkpt>
      <trkpt lat="46.09976" lon="6.37684">
        <ele>705</ele>
        <time>2012-05-10T10:50:27Z</time>
      </trkpt>
      <trkpt lat="46.09971" lon="6.37702">
        <ele>710</ele>
        <time>2012-05-10T10:50:28Z</time>
      </trkpt>
      <trkpt lat="46.09966" lon="6.37719">
        <ele>710</ele>
        <time>2012-05-10T10:50:29Z</time>
      </trkpt>
      <trkpt lat="46.09962" lon="6.37736">
        <ele>710</ele>
        <time>2012-05-10T10:50:30Z</time>
      </trkpt>
      <trkpt lat="46.09961" lon="6.3775">
        <ele>710</ele>
        <time>2012-05-10T10:50:31Z</time>
      </trkpt>
      <trkpt lat="46.09962" lon="6.37766">
        <ele>710</ele>
        <time>2012-05-10T10:50:32Z</time>
      </trkpt>
      <trkpt lat="46.09962" lon="6.37783">
        <ele>710</ele>
        <time>2012-05-10T10:50:33Z</time>
      </trkpt>
      <trkpt lat="46.09963" lon="6.37799">
        <ele>717</ele>
        <time>2012-05-10T10:50:34Z</time>
      </trkpt>
      <trkpt lat="46.09964" lon="6.37813">
        <ele>717</ele>
        <time>2012-05-10T10:50:35Z</time>
      </trkpt>
      <trkpt lat="46.0996" lon="6.37838">
        <ele>717</ele>
        <time>2012-05-10T10:50:37Z</time>
      </trkpt>
      <trkpt lat="46.09955" lon="6.37852">
        <ele>722</ele>
        <time>2012-05-10T10:50:38Z</time>
      </trkpt>
      <trkpt lat="46.09949" lon="6.37865">
        <ele>722</ele>
        <time>2012-05-10T10:50:39Z</time>
      </trkpt>
      <trkpt lat="46.09944" lon="6.37878">
        <ele>722</ele>
        <time>2012-05-10T10:50:40Z</time>
      </trkpt>
      <trkpt lat="46.09937" lon="6.37887">
        <ele>722</ele>
        <time>2012-05-10T10:50:41Z</time>
      </trkpt>
      <trkpt lat="46.09928" lon="6.37895">
        <ele>722</ele>
        <time>2012-05-10T10:50:42Z</time>
      </trkpt>
      <trkpt lat="46.09917" lon="6.37915">
        <ele>722</ele>
        <time>2012-05-10T10:50:44Z</time>
      </trkpt>
      <trkpt lat="46.09913" lon="6.3794">
        <ele>728</ele>
        <time>2012-05-10T10:50:46Z</time>
      </trkpt>
      <trkpt lat="46.09916" lon="6.37966">
        <ele>728</ele>
        <time>2012-05-10T10:50:48Z</time>
      </trkpt>
      <trkpt lat="46.09919" lon="6.37978">
        <ele>728</ele>
        <time>2012-05-10T10:50:49Z</time>
      </trkpt>
      <trkpt lat="46.09923" lon="6.37991">
        <ele>728</ele>
        <time>2012-05-10T10:50:50Z</time>
      </trkpt>
      <trkpt lat="46.09926" lon="6.38003">
        <ele>728</ele>
        <time>2012-05-10T10:50:51Z</time>
      </trkpt>
      <trkpt lat="46.09927" lon="6.38027">
        <ele>734</ele>
        <time>2012-05-10T10:50:53Z</time>
      </trkpt>
      <trkpt lat="46.09922" lon="6.38046">
        <ele>734</ele>
        <time>2012-05-10T10:50:55Z</time>
      </trkpt>
      <trkpt lat="46.09909" lon="6.38064">
        <ele>734</ele>
        <time>2012-05-10T10:50:57Z</time>
      </trkpt>
      <trkpt lat="46.09901" lon="6.38071">
        <ele>734</ele>
        <time>2012-05-10T10:50:58Z</time>
      </trkpt>
      <trkpt lat="46.09892" lon="6.38077">
        <ele>734</ele>
        <time>2012-05-10T10:50:59Z</time>
      </trkpt>
      <trkpt lat="46.09884" lon="6.38083">
        <ele>740</ele>
        <time>2012-05-10T10:51:00Z</time>
      </trkpt>
      <trkpt lat="46.09869" lon="6.38093">
        <ele>745</ele>
        <time>2012-05-10T10:51:02Z</time>
      </trkpt>
      <trkpt lat="46.09859" lon="6.38108">
        <ele>745</ele>
        <time>2012-05-10T10:51:04Z</time>
      </trkpt>
      <trkpt lat="46.09859" lon="6.38127">
        <ele>750</ele>
        <time>2012-05-10T10:51:06Z</time>
      </trkpt>
      <trkpt lat="46.09859" lon="6.38147">
        <ele>750</ele>
        <time>2012-05-10T10:51:08Z</time>
      </trkpt>
      <trkpt lat="46.09851" lon="6.38162">
        <ele>750</ele>
        <time>2012-05-10T10:51:10Z</time>
      </trkpt>
      <trkpt lat="46.09836" lon="6.38178">
        <ele>756</ele>
        <time>2012-05-10T10:51:12Z</time>
      </trkpt>
      <trkpt lat="46.09827" lon="6.38187">
        <ele>756</ele>
        <time>2012-05-10T10:51:13Z</time>
      </trkpt>
      <trkpt lat="46.09819" lon="6.38198">
        <ele>756</ele>
        <time>2012-05-10T10:51:14Z</time>
      </trkpt>
      <trkpt lat="46.09809" lon="6.38206">
        <ele>756</ele>
        <time>2012-05-10T10:51:15Z</time>
      </trkpt>
      <trkpt lat="46.09797" lon="6.3821">
        <ele>756</ele>
        <time>2012-05-10T10:51:16Z</time>
      </trkpt>
      <trkpt lat="46.09787" lon="6.38215">
        <ele>756</ele>
        <time>2012-05-10T10:51:17Z</time>
      </trkpt>
      <trkpt lat="46.09777" lon="6.38221">
        <ele>762</ele>
        <time>2012-05-10T10:51:18Z</time>
      </trkpt>
      <trkpt lat="46.09769" lon="6.38226">
        <ele>762</ele>
        <time>2012-05-10T10:51:19Z</time>
      </trkpt>
      <trkpt lat="46.09759" lon="6.38233">
        <ele>762</ele>
        <time>2012-05-10T10:51:20Z</time>
      </trkpt>
      <trkpt lat="46.0975" lon="6.38241">
        <ele>762</ele>
        <time>2012-05-10T10:51:21Z</time>
      </trkpt>
      <trkpt lat="46.0974" lon="6.38258">
        <ele>768</ele>
        <time>2012-05-10T10:51:23Z</time>
      </trkpt>
      <trkpt lat="46.09736" lon="6.38276">
        <ele>768</ele>
        <time>2012-05-10T10:51:25Z</time>
      </trkpt>
      <trkpt lat="46.09736" lon="6.38296">
        <ele>768</ele>
        <time>2012-05-10T10:51:27Z</time>
      </trkpt>
      <trkpt lat="46.0974" lon="6.38312">
        <ele>768</ele>
        <time>2012-05-10T10:51:29Z</time>
      </trkpt>
      <trkpt lat="46.0975" lon="6.38329">
        <ele>768</ele>
        <time>2012-05-10T10:51:31Z</time>
      </trkpt>
      <trkpt lat="46.09759" lon="6.38346">
        <ele>768</ele>
        <time>2012-05-10T10:51:33Z</time>
      </trkpt>
      <trkpt lat="46.09761" lon="6.38364">
        <ele>768</ele>
        <time>2012-05-10T10:51:35Z</time>
      </trkpt>
      <trkpt lat="46.09757" lon="6.38382">
        <ele>768</ele>
        <time>2012-05-10T10:51:37Z</time>
      </trkpt>
      <trkpt lat="46.09752" lon="6.38397">
        <ele>774</ele>
        <time>2012-05-10T10:51:39Z</time>
      </trkpt>
      <trkpt lat="46.09747" lon="6.38411">
        <ele>774</ele>
        <time>2012-05-10T10:51:42Z</time>
      </trkpt>
      <trkpt lat="46.09742" lon="6.38428">
        <ele>774</ele>
        <time>2012-05-10T10:51:45Z</time>
      </trkpt>
      <trkpt lat="46.09742" lon="6.38444">
        <ele>780</ele>
        <time>2012-05-10T10:51:47Z</time>
      </trkpt>
      <trkpt lat="46.09741" lon="6.38462">
        <ele>780</ele>
        <time>2012-05-10T10:51:49Z</time>
      </trkpt>
      <trkpt lat="46.09742" lon="6.3848">
        <ele>780</ele>
        <time>2012-05-10T10:51:51Z</time>
      </trkpt>
      <trkpt lat="46.09746" lon="6.38496">
        <ele>785</ele>
        <time>2012-05-10T10:51:53Z</time>
      </trkpt>
      <trkpt lat="46.09751" lon="6.3851">
        <ele>785</ele>
        <time>2012-05-10T10:51:55Z</time>
      </trkpt>
      <trkpt lat="46.09756" lon="6.38523">
        <ele>792</ele>
        <time>2012-05-10T10:51:57Z</time>
      </trkpt>
      <trkpt lat="46.09762" lon="6.38533">
        <ele>799</ele>
        <time>2012-05-10T10:51:59Z</time>
      </trkpt>
      <trkpt lat="46.09774" lon="6.38544">
        <ele>799</ele>
        <time>2012-05-10T10:52:01Z</time>
      </trkpt>
      <trkpt lat="46.09787" lon="6.38553">
        <ele>807</ele>
        <time>2012-05-10T10:52:03Z</time>
      </trkpt>
      <trkpt lat="46.09797" lon="6.38564">
        <ele>807</ele>
        <time>2012-05-10T10:52:05Z</time>
      </trkpt>
      <trkpt lat="46.09807" lon="6.38575">
        <ele>807</ele>
        <time>2012-05-10T10:52:07Z</time>
      </trkpt>
      <trkpt lat="46.09817" lon="6.38585">
        <ele>815</ele>
        <time>2012-05-10T10:52:09Z</time>
      </trkpt>
      <trkpt lat="46.09826" lon="6.38596">
        <ele>815</ele>
        <time>2012-05-10T10:52:11Z</time>
      </trkpt>
      <trkpt lat="46.09836" lon="6.38605">
        <ele>821</ele>
        <time>2012-05-10T10:52:13Z</time>
      </trkpt>
      <trkpt lat="46.09848" lon="6.38615">
        <ele>821</ele>
        <time>2012-05-10T10:52:15Z</time>
      </trkpt>
      <trkpt lat="46.09857" lon="6.38625">
        <ele>821</ele>
        <time>2012-05-10T10:52:17Z</time>
      </trkpt>
      <trkpt lat="46.09868" lon="6.38637">
        <ele>821</ele>
        <time>2012-05-10T10:52:20Z</time>
      </trkpt>
      <trkpt lat="46.09879" lon="6.38642">
        <ele>830</ele>
        <time>2012-05-10T10:52:22Z</time>
      </trkpt>
      <trkpt lat="46.09889" lon="6.38649">
        <ele>830</ele>
        <time>2012-05-10T10:52:24Z</time>
      </trkpt>
      <trkpt lat="46.09901" lon="6.38657">
        <ele>830</ele>
        <time>2012-05-10T10:52:27Z</time>
      </trkpt>
      <trkpt lat="46.09907" lon="6.38667">
        <ele>837</ele>
        <time>2012-05-10T10:52:29Z</time>
      </trkpt>
      <trkpt lat="46.09914" lon="6.38684">
        <ele>837</ele>
        <time>2012-05-10T10:52:32Z</time>
      </trkpt>
      <trkpt lat="46.09922" lon="6.38694">
        <ele>843</ele>
        <time>2012-05-10T10:52:34Z</time>
      </trkpt>
      <trkpt lat="46.09932" lon="6.38698">
        <ele>851</ele>
        <time>2012-05-10T10:52:36Z</time>
      </trkpt>
      <trkpt lat="46.09942" lon="6.38703">
        <ele>851</ele>
        <time>2012-05-10T10:52:38Z</time>
      </trkpt>
      <trkpt lat="46.09955" lon="6.38709">
        <ele>856</ele>
        <time>2012-05-10T10:52:40Z</time>
      </trkpt>
      <trkpt lat="46.09966" lon="6.38718">
        <ele>856</ele>
        <time>2012-05-10T10:52:42Z</time>
      </trkpt>
      <trkpt lat="46.09973" lon="6.38727">
        <ele>856</ele>
        <time>2012-05-10T10:52:44Z</time>
      </trkpt>
      <trkpt lat="46.09981" lon="6.38737">
        <ele>856</ele>
        <time>2012-05-10T10:52:46Z</time>
      </trkpt>
      <trkpt lat="46.09992" lon="6.38744">
        <ele>863</ele>
        <time>2012-05-10T10:52:49Z</time>
      </trkpt>
      <trkpt lat="46.10001" lon="6.38752">
        <ele>863</ele>
        <time>2012-05-10T10:52:51Z</time>
      </trkpt>
      <trkpt lat="46.10012" lon="6.38761">
        <ele>868</ele>
        <time>2012-05-10T10:52:54Z</time>
      </trkpt>
      <trkpt lat="46.10021" lon="6.38768">
        <ele>868</ele>
        <time>2012-05-10T10:52:56Z</time>
      </trkpt>
      <trkpt lat="46.10031" lon="6.38777">
        <ele>868</ele>
        <time>2012-05-10T10:52:58Z</time>
      </trkpt>
      <trkpt lat="46.10039" lon="6.38784">
        <ele>868</ele>
        <time>2012-05-10T10:53:00Z</time>
      </trkpt>
      <trkpt lat="46.10047" lon="6.38795">
        <ele>874</ele>
        <time>2012-05-10T10:53:02Z</time>
      </trkpt>
      <trkpt lat="46.10057" lon="6.38804">
        <ele>874</ele>
        <time>2012-05-10T10:53:04Z</time>
      </trkpt>
      <trkpt lat="46.10064" lon="6.38816">
        <ele>885</ele>
        <time>2012-05-10T10:53:16Z</time>
      </trkpt>
      <trkpt lat="46.10071" lon="6.38832">
        <ele>885</ele>
        <time>2012-05-10T10:53:19Z</time>
      </trkpt>
      <trkpt lat="46.10076" lon="6.38844">
        <ele>885</ele>
        <time>2012-05-10T10:53:23Z</time>
      </trkpt>
      <trkpt lat="46.10083" lon="6.38853">
        <ele>892</ele>
        <time>2012-05-10T10:53:30Z</time>
      </trkpt>
      <trkpt lat="46.1009" lon="6.38864">
        <ele>892</ele>
        <time>2012-05-10T10:53:33Z</time>
      </trkpt>
      <trkpt lat="46.10097" lon="6.38873">
        <ele>902</ele>
        <time>2012-05-10T10:53:37Z</time>
      </trkpt>
      <trkpt lat="46.10106" lon="6.38878">
        <ele>902</ele>
        <time>2012-05-10T10:53:40Z</time>
      </trkpt>
      <trkpt lat="46.10117" lon="6.38887">
        <ele>907</ele>
        <time>2012-05-10T10:53:44Z</time>
      </trkpt>
      <trkpt lat="46.10127" lon="6.389">
        <ele>907</ele>
        <time>2012-05-10T10:53:47Z</time>
      </trkpt>
      <trkpt lat="46.10135" lon="6.38919">
        <ele>907</ele>
        <time>2012-05-10T10:53:49Z</time>
      </trkpt>
      <trkpt lat="46.10142" lon="6.38935">
        <ele>907</ele>
        <time>2012-05-10T10:53:51Z</time>
      </trkpt>
      <trkpt lat="46.10149" lon="6.38948">
        <ele>907</ele>
        <time>2012-05-10T10:53:53Z</time>
      </trkpt>
      <trkpt lat="46.10156" lon="6.38969">
        <ele>907</ele>
        <time>2012-05-10T10:53:56Z</time>
      </trkpt>
      <trkpt lat="46.10162" lon="6.38987">
        <ele>907</ele>
        <time>2012-05-10T10:53:58Z</time>
      </trkpt>
      <trkpt lat="46.10167" lon="6.39002">
        <ele>907</ele>
        <time>2012-05-10T10:54:00Z</time>
      </trkpt>
      <trkpt lat="46.10173" lon="6.39019">
        <ele>915</ele>
        <time>2012-05-10T10:54:02Z</time>
      </trkpt>
      <trkpt lat="46.10186" lon="6.39038">
        <ele>921</ele>
        <time>2012-05-10T10:54:04Z</time>
      </trkpt>
      <trkpt lat="46.10198" lon="6.39054">
        <ele>926</ele>
        <time>2012-05-10T10:54:06Z</time>
      </trkpt>
      <trkpt lat="46.1021" lon="6.39071">
        <ele>926</ele>
        <time>2012-05-10T10:54:08Z</time>
      </trkpt>
      <trkpt lat="46.10218" lon="6.39078">
        <ele>934</ele>
        <time>2012-05-10T10:54:09Z</time>
      </trkpt>
      <trkpt lat="46.10228" lon="6.39093">
        <ele>934</ele>
        <time>2012-05-10T10:54:11Z</time>
      </trkpt>
      <trkpt lat="46.10234" lon="6.39108">
        <ele>934</ele>
        <time>2012-05-10T10:54:13Z</time>
      </trkpt>
      <trkpt lat="46.10238" lon="6.39123">
        <ele>934</ele>
        <time>2012-05-10T10:54:15Z</time>
      </trkpt>
      <trkpt lat="46.10241" lon="6.3914">
        <ele>934</ele>
        <time>2012-05-10T10:54:17Z</time>
      </trkpt>
      <trkpt lat="46.10249" lon="6.39152">
        <ele>934</ele>
        <time>2012-05-10T10:54:19Z</time>
      </trkpt>
      <trkpt lat="46.1026" lon="6.39161">
        <ele>939</ele>
        <time>2012-05-10T10:54:21Z</time>
      </trkpt>
      <trkpt lat="46.10274" lon="6.3917">
        <ele>939</ele>
        <time>2012-05-10T10:54:23Z</time>
      </trkpt>
      <trkpt lat="46.10287" lon="6.39179">
        <ele>939</ele>
        <time>2012-05-10T10:54:25Z</time>
      </trkpt>
      <trkpt lat="46.10302" lon="6.39189">
        <ele>939</ele>
        <time>2012-05-10T10:54:27Z</time>
      </trkpt>
      <trkpt lat="46.10312" lon="6.39197">
        <ele>939</ele>
        <time>2012-05-10T10:54:28Z</time>
      </trkpt>
      <trkpt lat="46.10322" lon="6.39205">
        <ele>939</ele>
        <time>2012-05-10T10:54:29Z</time>
      </trkpt>
      <trkpt lat="46.10332" lon="6.39214">
        <ele>939</ele>
        <time>2012-05-10T10:54:30Z</time>
      </trkpt>
      <trkpt lat="46.1034" lon="6.39222">
        <ele>939</ele>
        <time>2012-05-10T10:54:31Z</time>
      </trkpt>
      <trkpt lat="46.1035" lon="6.3923">
        <ele>939</ele>
        <time>2012-05-10T10:54:32Z</time>
      </trkpt>
      <trkpt lat="46.10359" lon="6.39239">
        <ele>939</ele>
        <time>2012-05-10T10:54:33Z</time>
      </trkpt>
      <trkpt lat="46.10369" lon="6.39247">
        <ele>932</ele>
        <time>2012-05-10T10:54:34Z</time>
      </trkpt>
      <trkpt lat="46.10377" lon="6.39258">
        <ele>932</ele>
        <time>2012-05-10T10:54:35Z</time>
      </trkpt>
      <trkpt lat="46.10384" lon="6.39268">
        <ele>932</ele>
        <time>2012-05-10T10:54:36Z</time>
      </trkpt>
      <trkpt lat="46.10392" lon="6.39276">
        <ele>932</ele>
        <time>2012-05-10T10:54:37Z</time>
      </trkpt>
      <trkpt lat="46.10399" lon="6.39286">
        <ele>932</ele>
        <time>2012-05-10T10:54:38Z</time>
      </trkpt>
      <trkpt lat="46.10405" lon="6.39297">
        <ele>926</ele>
        <time>2012-05-10T10:54:39Z</time>
      </trkpt>
      <trkpt lat="46.1041" lon="6.3931">
        <ele>926</ele>
        <time>2012-05-10T10:54:40Z</time>
      </trkpt>
      <trkpt lat="46.10415" lon="6.39326">
        <ele>926</ele>
        <time>2012-05-10T10:54:41Z</time>
      </trkpt>
      <trkpt lat="46.1042" lon="6.39342">
        <ele>926</ele>
        <time>2012-05-10T10:54:42Z</time>
      </trkpt>
      <trkpt lat="46.10424" lon="6.39358">
        <ele>926</ele>
        <time>2012-05-10T10:54:43Z</time>
      </trkpt>
      <trkpt lat="46.10427" lon="6.39374">
        <ele>926</ele>
        <time>2012-05-10T10:54:44Z</time>
      </trkpt>
      <trkpt lat="46.10432" lon="6.39389">
        <ele>926</ele>
        <time>2012-05-10T10:54:45Z</time>
      </trkpt>
      <trkpt lat="46.10437" lon="6.39404">
        <ele>926</ele>
        <time>2012-05-10T10:54:46Z</time>
      </trkpt>
      <trkpt lat="46.10442" lon="6.39416">
        <ele>921</ele>
        <time>2012-05-10T10:54:47Z</time>
      </trkpt>
      <trkpt lat="46.10448" lon="6.39439">
        <ele>921</ele>
        <time>2012-05-10T10:54:49Z</time>
      </trkpt>
      <trkpt lat="46.10452" lon="6.39456">
        <ele>921</ele>
        <time>2012-05-10T10:54:51Z</time>
      </trkpt>
      <trkpt lat="46.10459" lon="6.39472">
        <ele>921</ele>
        <time>2012-05-10T10:54:53Z</time>
      </trkpt>
      <trkpt lat="46.10469" lon="6.39487">
        <ele>921</ele>
        <time>2012-05-10T10:54:55Z</time>
      </trkpt>
      <trkpt lat="46.1048" lon="6.39503">
        <ele>921</ele>
        <time>2012-05-10T10:54:57Z</time>
      </trkpt>
      <trkpt lat="46.10491" lon="6.39519">
        <ele>916</ele>
        <time>2012-05-10T10:54:59Z</time>
      </trkpt>
      <trkpt lat="46.10502" lon="6.39535">
        <ele>916</ele>
        <time>2012-05-10T10:55:01Z</time>
      </trkpt>
      <trkpt lat="46.1051" lon="6.39551">
        <ele>916</ele>
        <time>2012-05-10T10:55:03Z</time>
      </trkpt>
      <trkpt lat="46.10515" lon="6.39571">
        <ele>916</ele>
        <time>2012-05-10T10:55:05Z</time>
      </trkpt>
      <trkpt lat="46.10519" lon="6.3959">
        <ele>916</ele>
        <time>2012-05-10T10:55:07Z</time>
      </trkpt>
      <trkpt lat="46.1052" lon="6.39608">
        <ele>909</ele>
        <time>2012-05-10T10:55:09Z</time>
      </trkpt>
      <trkpt lat="46.10522" lon="6.39625">
        <ele>909</ele>
        <time>2012-05-10T10:55:11Z</time>
      </trkpt>
      <trkpt lat="46.1052" lon="6.39646">
        <ele>909</ele>
        <time>2012-05-10T10:55:13Z</time>
      </trkpt>
      <trkpt lat="46.10517" lon="6.3967">
        <ele>902</ele>
        <time>2012-05-10T10:55:15Z</time>
      </trkpt>
      <trkpt lat="46.10512" lon="6.39691">
        <ele>902</ele>
        <time>2012-05-10T10:55:17Z</time>
      </trkpt>
      <trkpt lat="46.10507" lon="6.39711">
        <ele>897</ele>
        <time>2012-05-10T10:55:19Z</time>
      </trkpt>
      <trkpt lat="46.10504" lon="6.39733">
        <ele>897</ele>
        <time>2012-05-10T10:55:21Z</time>
      </trkpt>
      <trkpt lat="46.10502" lon="6.39759">
        <ele>891</ele>
        <time>2012-05-10T10:55:23Z</time>
      </trkpt>
      <trkpt lat="46.10505" lon="6.39784">
        <ele>891</ele>
        <time>2012-05-10T10:55:25Z</time>
      </trkpt>
      <trkpt lat="46.10507" lon="6.39796">
        <ele>891</ele>
        <time>2012-05-10T10:55:26Z</time>
      </trkpt>
      <trkpt lat="46.10513" lon="6.39818">
        <ele>884</ele>
        <time>2012-05-10T10:55:28Z</time>
      </trkpt>
      <trkpt lat="46.10515" lon="6.39834">
        <ele>884</ele>
        <time>2012-05-10T10:55:30Z</time>
      </trkpt>
      <trkpt lat="46.1052" lon="6.39848">
        <ele>884</ele>
        <time>2012-05-10T10:55:33Z</time>
      </trkpt>
      <trkpt lat="46.10527" lon="6.39864">
        <ele>884</ele>
        <time>2012-05-10T10:55:36Z</time>
      </trkpt>
      <trkpt lat="46.10534" lon="6.39875">
        <ele>884</ele>
        <time>2012-05-10T10:55:39Z</time>
      </trkpt>
      <trkpt lat="46.10539" lon="6.39891">
        <ele>884</ele>
        <time>2012-05-10T10:55:42Z</time>
      </trkpt>
      <trkpt lat="46.1054" lon="6.39908">
        <ele>884</ele>
        <time>2012-05-10T10:55:44Z</time>
      </trkpt>
      <trkpt lat="46.10539" lon="6.39925">
        <ele>884</ele>
        <time>2012-05-10T10:55:46Z</time>
      </trkpt>
      <trkpt lat="46.1054" lon="6.39938">
        <ele>884</ele>
        <time>2012-05-10T10:55:48Z</time>
      </trkpt>
      <trkpt lat="46.10542" lon="6.39953">
        <ele>884</ele>
        <time>2012-05-10T10:55:51Z</time>
      </trkpt>
      <trkpt lat="46.10545" lon="6.39968">
        <ele>884</ele>
        <time>2012-05-10T10:55:54Z</time>
      </trkpt>
      <trkpt lat="46.10547" lon="6.39989">
        <ele>884</ele>
        <time>2012-05-10T10:55:56Z</time>
      </trkpt>
      <trkpt lat="46.10549" lon="6.40015">
        <ele>884</ele>
        <time>2012-05-10T10:55:58Z</time>
      </trkpt>
      <trkpt lat="46.10552" lon="6.40027">
        <ele>890</ele>
        <time>2012-05-10T10:55:59Z</time>
      </trkpt>
      <trkpt lat="46.10554" lon="6.40041">
        <ele>890</ele>
        <time>2012-05-10T10:56:00Z</time>
      </trkpt>
      <trkpt lat="46.10554" lon="6.40067">
        <ele>890</ele>
        <time>2012-05-10T10:56:02Z</time>
      </trkpt>
      <trkpt lat="46.10551" lon="6.4008">
        <ele>890</ele>
        <time>2012-05-10T10:56:03Z</time>
      </trkpt>
      <trkpt lat="46.10547" lon="6.40095">
        <ele>895</ele>
        <time>2012-05-10T10:56:04Z</time>
      </trkpt>
      <trkpt lat="46.10543" lon="6.40111">
        <ele>895</ele>
        <time>2012-05-10T10:56:05Z</time>
      </trkpt>
      <trkpt lat="46.10538" lon="6.40128">
        <ele>895</ele>
        <time>2012-05-10T10:56:06Z</time>
      </trkpt>
      <trkpt lat="46.10533" lon="6.40146">
        <ele>895</ele>
        <time>2012-05-10T10:56:07Z</time>
      </trkpt>
      <trkpt lat="46.10529" lon="6.40164">
        <ele>901</ele>
        <time>2012-05-10T10:56:08Z</time>
      </trkpt>
      <trkpt lat="46.10527" lon="6.40181">
        <ele>901</ele>
        <time>2012-05-10T10:56:09Z</time>
      </trkpt>
      <trkpt lat="46.10525" lon="6.40198">
        <ele>901</ele>
        <time>2012-05-10T10:56:10Z</time>
      </trkpt>
      <trkpt lat="46.10524" lon="6.40213">
        <ele>901</ele>
        <time>2012-05-10T10:56:11Z</time>
      </trkpt>
      <trkpt lat="46.10522" lon="6.40226">
        <ele>901</ele>
        <time>2012-05-10T10:56:12Z</time>
      </trkpt>
      <trkpt lat="46.10517" lon="6.40238">
        <ele>907</ele>
        <time>2012-05-10T10:56:13Z</time>
      </trkpt>
      <trkpt lat="46.1051" lon="6.4025">
        <ele>907</ele>
        <time>2012-05-10T10:56:14Z</time>
      </trkpt>
      <trkpt lat="46.10503" lon="6.40262">
        <ele>907</ele>
        <time>2012-05-10T10:56:15Z</time>
      </trkpt>
      <trkpt lat="46.10497" lon="6.40272">
        <ele>907</ele>
        <time>2012-05-10T10:56:16Z</time>
      </trkpt>
      <trkpt lat="46.1049" lon="6.40283">
        <ele>907</ele>
        <time>2012-05-10T10:56:17Z</time>
      </trkpt>
      <trkpt lat="46.10483" lon="6.40293">
        <ele>912</ele>
        <time>2012-05-10T10:56:18Z</time>
      </trkpt>
      <trkpt lat="46.10475" lon="6.40304">
        <ele>912</ele>
        <time>2012-05-10T10:56:19Z</time>
      </trkpt>
      <trkpt lat="46.10468" lon="6.40314">
        <ele>912</ele>
        <time>2012-05-10T10:56:20Z</time>
      </trkpt>
      <trkpt lat="46.10461" lon="6.40324">
        <ele>912</ele>
        <time>2012-05-10T10:56:21Z</time>
      </trkpt>
      <trkpt lat="46.1045" lon="6.40343">
        <ele>917</ele>
        <time>2012-05-10T10:56:23Z</time>
      </trkpt>
      <trkpt lat="46.1044" lon="6.40361">
        <ele>917</ele>
        <time>2012-05-10T10:56:25Z</time>
      </trkpt>
      <trkpt lat="46.10429" lon="6.40379">
        <ele>917</ele>
        <time>2012-05-10T10:56:27Z</time>
      </trkpt>
      <trkpt lat="46.10419" lon="6.40395">
        <ele>917</ele>
        <time>2012-05-10T10:56:29Z</time>
      </trkpt>
      <trkpt lat="46.10407" lon="6.4041">
        <ele>917</ele>
        <time>2012-05-10T10:56:31Z</time>
      </trkpt>
      <trkpt lat="46.10395" lon="6.40421">
        <ele>917</ele>
        <time>2012-05-10T10:56:33Z</time>
      </trkpt>
      <trkpt lat="46.10382" lon="6.4043">
        <ele>917</ele>
        <time>2012-05-10T10:56:35Z</time>
      </trkpt>
      <trkpt lat="46.1037" lon="6.40434">
        <ele>923</ele>
        <time>2012-05-10T10:56:37Z</time>
      </trkpt>
      <trkpt lat="46.10359" lon="6.40436">
        <ele>923</ele>
        <time>2012-05-10T10:56:39Z</time>
      </trkpt>
      <trkpt lat="46.1035" lon="6.40443">
        <ele>923</ele>
        <time>2012-05-10T10:56:42Z</time>
      </trkpt>
      <trkpt lat="46.10345" lon="6.4046">
        <ele>923</ele>
        <time>2012-05-10T10:56:45Z</time>
      </trkpt>
      <trkpt lat="46.10344" lon="6.40475">
        <ele>923</ele>
        <time>2012-05-10T10:56:47Z</time>
      </trkpt>
      <trkpt lat="46.10345" lon="6.40492">
        <ele>923</ele>
        <time>2012-05-10T10:56:49Z</time>
      </trkpt>
      <trkpt lat="46.10345" lon="6.40507">
        <ele>923</ele>
        <time>2012-05-10T10:56:51Z</time>
      </trkpt>
      <trkpt lat="46.10349" lon="6.40521">
        <ele>923</ele>
        <time>2012-05-10T10:56:53Z</time>
      </trkpt>
      <trkpt lat="46.10352" lon="6.40534">
        <ele>923</ele>
        <time>2012-05-10T10:56:55Z</time>
      </trkpt>
      <trkpt lat="46.1035" lon="6.40549">
        <ele>923</ele>
        <time>2012-05-10T10:56:57Z</time>
      </trkpt>
      <trkpt lat="46.10346" lon="6.40567">
        <ele>923</ele>
        <time>2012-05-10T10:56:59Z</time>
      </trkpt>
      <trkpt lat="46.10348" lon="6.40588">
        <ele>923</ele>
        <time>2012-05-10T10:57:01Z</time>
      </trkpt>
      <trkpt lat="46.10351" lon="6.406">
        <ele>923</ele>
        <time>2012-05-10T10:57:03Z</time>
      </trkpt>
      <trkpt lat="46.10357" lon="6.40611">
        <ele>923</ele>
        <time>2012-05-10T10:57:12Z</time>
      </trkpt>
      <trkpt lat="46.10362" lon="6.40626">
        <ele>923</ele>
        <time>2012-05-10T10:57:15Z</time>
      </trkpt>
      <trkpt lat="46.10365" lon="6.40639">
        <ele>923</ele>
        <time>2012-05-10T10:57:17Z</time>
      </trkpt>
      <trkpt lat="46.10365" lon="6.40654">
        <ele>928</ele>
        <time>2012-05-10T10:57:21Z</time>
      </trkpt>
      <trkpt lat="46.10365" lon="6.40641">
        <ele>934</ele>
        <time>2012-05-10T10:58:05Z</time>
      </trkpt>
      <trkpt lat="46.10365" lon="6.40626">
        <ele>934</ele>
        <time>2012-05-10T10:58:10Z</time>
      </trkpt>
      <trkpt lat="46.10374" lon="6.40631">
        <ele>934</ele>
        <time>2012-05-10T10:58:32Z</time>
      </trkpt>
      <trkpt lat="46.10375" lon="6.40645">
        <ele>928</ele>
        <time>2012-05-10T10:58:38Z</time>
      </trkpt>
      <trkpt lat="46.10384" lon="6.40652">
        <ele>943</ele>
        <time>2012-05-10T10:58:51Z</time>
      </trkpt>
      <trkpt lat="46.10384" lon="6.40667">
        <ele>943</ele>
        <time>2012-05-10T10:59:05Z</time>
      </trkpt>
      <trkpt lat="46.10377" lon="6.40682">
        <ele>943</ele>
        <time>2012-05-10T10:59:09Z</time>
      </trkpt>
      <trkpt lat="46.1037" lon="6.40695">
        <ele>943</ele>
        <time>2012-05-10T10:59:12Z</time>
      </trkpt>
      <trkpt lat="46.10364" lon="6.40705">
        <ele>943</ele>
        <time>2012-05-10T10:59:14Z</time>
      </trkpt>
      <trkpt lat="46.10354" lon="6.40716">
        <ele>943</ele>
        <time>2012-05-10T10:59:17Z</time>
      </trkpt>
      <trkpt lat="46.10346" lon="6.40723">
        <ele>943</ele>
        <time>2012-05-10T10:59:19Z</time>
      </trkpt>
      <trkpt lat="46.10337" lon="6.40729">
        <ele>937</ele>
        <time>2012-05-10T10:59:21Z</time>
      </trkpt>
      <trkpt lat="46.10325" lon="6.40732">
        <ele>937</ele>
        <time>2012-05-10T10:59:24Z</time>
      </trkpt>
      <trkpt lat="46.10316" lon="6.40732">
        <ele>937</ele>
        <time>2012-05-10T10:59:49Z</time>
      </trkpt>
      <trkpt lat="46.10322" lon="6.40722">
        <ele>930</ele>
        <time>2012-05-10T11:01:00Z</time>
      </trkpt>
      <trkpt lat="46.10316" lon="6.40732">
        <ele>930</ele>
        <time>2012-05-10T11:01:23Z</time>
      </trkpt>
      <trkpt lat="46.10322" lon="6.40722">
        <ele>930</ele>
        <time>2012-05-10T11:01:49Z</time>
      </trkpt>
      <trkpt lat="46.10314" lon="6.40731">
        <ele>936</ele>
        <time>2012-05-10T11:02:22Z</time>
      </trkpt>
      <trkpt lat="46.10306" lon="6.40739">
        <ele>936</ele>
        <time>2012-05-10T11:02:37Z</time>
      </trkpt>
      <trkpt lat="46.10299" lon="6.40731">
        <ele>936</ele>
        <time>2012-05-10T11:03:36Z</time>
      </trkpt>
      <trkpt lat="46.10298" lon="6.40744">
        <ele>927</ele>
        <time>2012-05-10T11:03:59Z</time>
      </trkpt>
      <trkpt lat="46.103" lon="6.40731">
        <ele>934</ele>
        <time>2012-05-10T11:05:54Z</time>
      </trkpt>
      <trkpt lat="46.10299" lon="6.40744">
        <ele>950</ele>
        <time>2012-05-10T11:09:06Z</time>
      </trkpt>
      <trkpt lat="46.10307" lon="6.40736">
        <ele>941</ele>
        <time>2012-05-10T11:09:48Z</time>
      </trkpt>
      <trkpt lat="46.10316" lon="6.4073">
        <ele>932</ele>
        <time>2012-05-10T11:11:10Z</time>
      </trkpt>
      <trkpt lat="46.10325" lon="6.40732">
        <ele>932</ele>
        <time>2012-05-10T11:11:37Z</time>
      </trkpt>
      <trkpt lat="46.10335" lon="6.40729">
        <ele>932</ele>
        <time>2012-05-10T11:11:41Z</time>
      </trkpt>
      <trkpt lat="46.10346" lon="6.40725">
        <ele>932</ele>
        <time>2012-05-10T11:11:44Z</time>
      </trkpt>
      <trkpt lat="46.10355" lon="6.40719">
        <ele>932</ele>
        <time>2012-05-10T11:11:47Z</time>
      </trkpt>
      <trkpt lat="46.10362" lon="6.40706">
        <ele>932</ele>
        <time>2012-05-10T11:11:51Z</time>
      </trkpt>
      <trkpt lat="46.10369" lon="6.40691">
        <ele>932</ele>
        <time>2012-05-10T11:11:54Z</time>
      </trkpt>
      <trkpt lat="46.10374" lon="6.40679">
        <ele>923</ele>
        <time>2012-05-10T11:12:11Z</time>
      </trkpt>
      <trkpt lat="46.10377" lon="6.40667">
        <ele>923</ele>
        <time>2012-05-10T11:12:17Z</time>
      </trkpt>
      <trkpt lat="46.10382" lon="6.40655">
        <ele>930</ele>
        <time>2012-05-10T11:12:22Z</time>
      </trkpt>
      <trkpt lat="46.10389" lon="6.40644">
        <ele>930</ele>
        <time>2012-05-10T11:12:33Z</time>
      </trkpt>
      <trkpt lat="46.10383" lon="6.40633">
        <ele>930</ele>
        <time>2012-05-10T11:12:40Z</time>
      </trkpt>
      <trkpt lat="46.10375" lon="6.4062">
        <ele>930</ele>
        <time>2012-05-10T11:12:46Z</time>
      </trkpt>
      <trkpt lat="46.10369" lon="6.40611">
        <ele>930</ele>
        <time>2012-05-10T11:12:50Z</time>
      </trkpt>
      <trkpt lat="46.10363" lon="6.40595">
        <ele>930</ele>
        <time>2012-05-10T11:12:53Z</time>
      </trkpt>
      <trkpt lat="46.1036" lon="6.40579">
        <ele>930</ele>
        <time>2012-05-10T11:12:55Z</time>
      </trkpt>
      <trkpt lat="46.10359" lon="6.40563">
        <ele>930</ele>
        <time>2012-05-10T11:12:57Z</time>
      </trkpt>
      <trkpt lat="46.10357" lon="6.40546">
        <ele>930</ele>
        <time>2012-05-10T11:12:59Z</time>
      </trkpt>
      <trkpt lat="46.10356" lon="6.40528">
        <ele>930</ele>
        <time>2012-05-10T11:13:01Z</time>
      </trkpt>
      <trkpt lat="46.10355" lon="6.40513">
        <ele>930</ele>
        <time>2012-05-10T11:13:03Z</time>
      </trkpt>
      <trkpt lat="46.10354" lon="6.40496">
        <ele>930</ele>
        <time>2012-05-10T11:13:05Z</time>
      </trkpt>
      <trkpt lat="46.1035" lon="6.40476">
        <ele>930</ele>
        <time>2012-05-10T11:13:07Z</time>
      </trkpt>
      <trkpt lat="46.1035" lon="6.40458">
        <ele>930</ele>
        <time>2012-05-10T11:13:09Z</time>
      </trkpt>
      <trkpt lat="46.10352" lon="6.40444">
        <ele>930</ele>
        <time>2012-05-10T11:13:11Z</time>
      </trkpt>
      <trkpt lat="46.10357" lon="6.40433">
        <ele>930</ele>
        <time>2012-05-10T11:13:14Z</time>
      </trkpt>
      <trkpt lat="46.10369" lon="6.40436">
        <ele>930</ele>
        <time>2012-05-10T11:13:17Z</time>
      </trkpt>
      <trkpt lat="46.10382" lon="6.40433">
        <ele>930</ele>
        <time>2012-05-10T11:13:20Z</time>
      </trkpt>
      <trkpt lat="46.10395" lon="6.40424">
        <ele>924</ele>
        <time>2012-05-10T11:13:22Z</time>
      </trkpt>
      <trkpt lat="46.10409" lon="6.40412">
        <ele>924</ele>
        <time>2012-05-10T11:13:24Z</time>
      </trkpt>
      <trkpt lat="46.1042" lon="6.40397">
        <ele>924</ele>
        <time>2012-05-10T11:13:26Z</time>
      </trkpt>
      <trkpt lat="46.1043" lon="6.40382">
        <ele>924</ele>
        <time>2012-05-10T11:13:28Z</time>
      </trkpt>
      <trkpt lat="46.10439" lon="6.40368">
        <ele>924</ele>
        <time>2012-05-10T11:13:30Z</time>
      </trkpt>
      <trkpt lat="46.10448" lon="6.40352">
        <ele>918</ele>
        <time>2012-05-10T11:13:32Z</time>
      </trkpt>
      <trkpt lat="46.10457" lon="6.40335">
        <ele>918</ele>
        <time>2012-05-10T11:13:34Z</time>
      </trkpt>
      <trkpt lat="46.10467" lon="6.40316">
        <ele>918</ele>
        <time>2012-05-10T11:13:36Z</time>
      </trkpt>
      <trkpt lat="46.10478" lon="6.40299">
        <ele>913</ele>
        <time>2012-05-10T11:13:38Z</time>
      </trkpt>
      <trkpt lat="46.10489" lon="6.40282">
        <ele>913</ele>
        <time>2012-05-10T11:13:40Z</time>
      </trkpt>
      <trkpt lat="46.10499" lon="6.40265">
        <ele>913</ele>
        <time>2012-05-10T11:13:42Z</time>
      </trkpt>
      <trkpt lat="46.1051" lon="6.40246">
        <ele>907</ele>
        <time>2012-05-10T11:13:44Z</time>
      </trkpt>
      <trkpt lat="46.10519" lon="6.40228">
        <ele>907</ele>
        <time>2012-05-10T11:13:46Z</time>
      </trkpt>
      <trkpt lat="46.10525" lon="6.40215">
        <ele>907</ele>
        <time>2012-05-10T11:13:49Z</time>
      </trkpt>
      <trkpt lat="46.10532" lon="6.40224">
        <ele>901</ele>
        <time>2012-05-10T11:13:53Z</time>
      </trkpt>
      <trkpt lat="46.10522" lon="6.40237">
        <ele>901</ele>
        <time>2012-05-10T11:13:56Z</time>
      </trkpt>
      <trkpt lat="46.10514" lon="6.40246">
        <ele>901</ele>
        <time>2012-05-10T11:13:58Z</time>
      </trkpt>
      <trkpt lat="46.10511" lon="6.40259">
        <ele>901</ele>
        <time>2012-05-10T11:14:02Z</time>
      </trkpt>
      <trkpt lat="46.10509" lon="6.40273">
        <ele>901</ele>
        <time>2012-05-10T11:14:04Z</time>
      </trkpt>
      <trkpt lat="46.10507" lon="6.4029">
        <ele>901</ele>
        <time>2012-05-10T11:14:06Z</time>
      </trkpt>
      <trkpt lat="46.10506" lon="6.40305">
        <ele>901</ele>
        <time>2012-05-10T11:14:08Z</time>
      </trkpt>
      <trkpt lat="46.10505" lon="6.4032">
        <ele>901</ele>
        <time>2012-05-10T11:14:10Z</time>
      </trkpt>
      <trkpt lat="46.10502" lon="6.40339">
        <ele>901</ele>
        <time>2012-05-10T11:14:12Z</time>
      </trkpt>
      <trkpt lat="46.105" lon="6.40358">
        <ele>901</ele>
        <time>2012-05-10T11:14:14Z</time>
      </trkpt>
      <trkpt lat="46.10498" lon="6.4038">
        <ele>901</ele>
        <time>2012-05-10T11:14:16Z</time>
      </trkpt>
      <trkpt lat="46.10495" lon="6.40403">
        <ele>901</ele>
        <time>2012-05-10T11:14:18Z</time>
      </trkpt>
      <trkpt lat="46.10492" lon="6.40423">
        <ele>901</ele>
        <time>2012-05-10T11:14:20Z</time>
      </trkpt>
      <trkpt lat="46.1049" lon="6.40442">
        <ele>901</ele>
        <time>2012-05-10T11:14:22Z</time>
      </trkpt>
      <trkpt lat="46.10489" lon="6.40457">
        <ele>901</ele>
        <time>2012-05-10T11:14:24Z</time>
      </trkpt>
      <trkpt lat="46.10488" lon="6.4047">
        <ele>901</ele>
        <time>2012-05-10T11:14:26Z</time>
      </trkpt>
      <trkpt lat="46.10487" lon="6.40486">
        <ele>901</ele>
        <time>2012-05-10T11:14:28Z</time>
      </trkpt>
      <trkpt lat="46.10485" lon="6.40503">
        <ele>895</ele>
        <time>2012-05-10T11:14:31Z</time>
      </trkpt>
      <trkpt lat="46.10497" lon="6.40502">
        <ele>895</ele>
        <time>2012-05-10T11:14:35Z</time>
      </trkpt>
      <trkpt lat="46.10504" lon="6.40493">
        <ele>895</ele>
        <time>2012-05-10T11:14:49Z</time>
      </trkpt>
      <trkpt lat="46.105" lon="6.4048">
        <ele>895</ele>
        <time>2012-05-10T11:14:53Z</time>
      </trkpt>
      <trkpt lat="46.105" lon="6.40493">
        <ele>895</ele>
        <time>2012-05-10T11:14:57Z</time>
      </trkpt>
      <trkpt lat="46.10512" lon="6.40497">
        <ele>895</ele>
        <time>2012-05-10T11:15:00Z</time>
      </trkpt>
      <trkpt lat="46.10523" lon="6.40502">
        <ele>895</ele>
        <time>2012-05-10T11:15:03Z</time>
      </trkpt>
      <trkpt lat="46.10533" lon="6.40503">
        <ele>895</ele>
        <time>2012-05-10T11:15:13Z</time>
      </trkpt>
      <trkpt lat="46.10522" lon="6.40495">
        <ele>895</ele>
        <time>2012-05-10T11:15:19Z</time>
      </trkpt>
      <trkpt lat="46.10512" lon="6.40492">
        <ele>895</ele>
        <time>2012-05-10T11:15:21Z</time>
      </trkpt>
      <trkpt lat="46.10502" lon="6.40484">
        <ele>895</ele>
        <time>2012-05-10T11:15:23Z</time>
      </trkpt>
      <trkpt lat="46.10494" lon="6.40468">
        <ele>895</ele>
        <time>2012-05-10T11:15:25Z</time>
      </trkpt>
      <trkpt lat="46.1049" lon="6.4045">
        <ele>895</ele>
        <time>2012-05-10T11:15:27Z</time>
      </trkpt>
      <trkpt lat="46.10487" lon="6.40429">
        <ele>895</ele>
        <time>2012-05-10T11:15:29Z</time>
      </trkpt>
      <trkpt lat="46.1049" lon="6.40402">
        <ele>901</ele>
        <time>2012-05-10T11:15:31Z</time>
      </trkpt>
      <trkpt lat="46.10493" lon="6.40388">
        <ele>901</ele>
        <time>2012-05-10T11:15:32Z</time>
      </trkpt>
      <trkpt lat="46.10495" lon="6.40373">
        <ele>901</ele>
        <time>2012-05-10T11:15:33Z</time>
      </trkpt>
      <trkpt lat="46.10498" lon="6.40359">
        <ele>901</ele>
        <time>2012-05-10T11:15:34Z</time>
      </trkpt>
      <trkpt lat="46.105" lon="6.40344">
        <ele>901</ele>
        <time>2012-05-10T11:15:35Z</time>
      </trkpt>
      <trkpt lat="46.10502" lon="6.4033">
        <ele>907</ele>
        <time>2012-05-10T11:15:36Z</time>
      </trkpt>
      <trkpt lat="46.10503" lon="6.40316">
        <ele>907</ele>
        <time>2012-05-10T11:15:37Z</time>
      </trkpt>
      <trkpt lat="46.10505" lon="6.40293">
        <ele>907</ele>
        <time>2012-05-10T11:15:39Z</time>
      </trkpt>
      <trkpt lat="46.10507" lon="6.40271">
        <ele>907</ele>
        <time>2012-05-10T11:15:41Z</time>
      </trkpt>
      <trkpt lat="46.1051" lon="6.40249">
        <ele>907</ele>
        <time>2012-05-10T11:15:43Z</time>
      </trkpt>
      <trkpt lat="46.10519" lon="6.40228">
        <ele>907</ele>
        <time>2012-05-10T11:15:45Z</time>
      </trkpt>
      <trkpt lat="46.10523" lon="6.40203">
        <ele>907</ele>
        <time>2012-05-10T11:15:47Z</time>
      </trkpt>
      <trkpt lat="46.10524" lon="6.4019">
        <ele>907</ele>
        <time>2012-05-10T11:15:48Z</time>
      </trkpt>
      <trkpt lat="46.10526" lon="6.40175">
        <ele>907</ele>
        <time>2012-05-10T11:15:49Z</time>
      </trkpt>
      <trkpt lat="46.10529" lon="6.40162">
        <ele>907</ele>
        <time>2012-05-10T11:15:50Z</time>
      </trkpt>
      <trkpt lat="46.10531" lon="6.40149">
        <ele>907</ele>
        <time>2012-05-10T11:15:51Z</time>
      </trkpt>
      <trkpt lat="46.10534" lon="6.40136">
        <ele>901</ele>
        <time>2012-05-10T11:15:52Z</time>
      </trkpt>
      <trkpt lat="46.10537" lon="6.40122">
        <ele>901</ele>
        <time>2012-05-10T11:15:53Z</time>
      </trkpt>
      <trkpt lat="46.1054" lon="6.4011">
        <ele>901</ele>
        <time>2012-05-10T11:15:54Z</time>
      </trkpt>
      <trkpt lat="46.10545" lon="6.40088">
        <ele>896</ele>
        <time>2012-05-10T11:15:56Z</time>
      </trkpt>
      <trkpt lat="46.10552" lon="6.40069">
        <ele>896</ele>
        <time>2012-05-10T11:15:58Z</time>
      </trkpt>
      <trkpt lat="46.10554" lon="6.40054">
        <ele>896</ele>
        <time>2012-05-10T11:16:00Z</time>
      </trkpt>
      <trkpt lat="46.10552" lon="6.40034">
        <ele>890</ele>
        <time>2012-05-10T11:16:03Z</time>
      </trkpt>
      <trkpt lat="46.10549" lon="6.40013">
        <ele>890</ele>
        <time>2012-05-10T11:16:05Z</time>
      </trkpt>
      <trkpt lat="46.10545" lon="6.3999">
        <ele>890</ele>
        <time>2012-05-10T11:16:07Z</time>
      </trkpt>
      <trkpt lat="46.10544" lon="6.39963">
        <ele>890</ele>
        <time>2012-05-10T11:16:09Z</time>
      </trkpt>
      <trkpt lat="46.10541" lon="6.3994">
        <ele>884</ele>
        <time>2012-05-10T11:16:11Z</time>
      </trkpt>
      <trkpt lat="46.10539" lon="6.39918">
        <ele>884</ele>
        <time>2012-05-10T11:16:13Z</time>
      </trkpt>
      <trkpt lat="46.10541" lon="6.39893">
        <ele>884</ele>
        <time>2012-05-10T11:16:15Z</time>
      </trkpt>
      <trkpt lat="46.10547" lon="6.39869">
        <ele>884</ele>
        <time>2012-05-10T11:16:17Z</time>
      </trkpt>
      <trkpt lat="46.10553" lon="6.39857">
        <ele>884</ele>
        <time>2012-05-10T11:16:18Z</time>
      </trkpt>
      <trkpt lat="46.1056" lon="6.39847">
        <ele>884</ele>
        <time>2012-05-10T11:16:19Z</time>
      </trkpt>
      <trkpt lat="46.10566" lon="6.39837">
        <ele>884</ele>
        <time>2012-05-10T11:16:20Z</time>
      </trkpt>
      <trkpt lat="46.10574" lon="6.39828">
        <ele>884</ele>
        <time>2012-05-10T11:16:21Z</time>
      </trkpt>
      <trkpt lat="46.10582" lon="6.39821">
        <ele>884</ele>
        <time>2012-05-10T11:16:22Z</time>
      </trkpt>
      <trkpt lat="46.1059" lon="6.39814">
        <ele>879</ele>
        <time>2012-05-10T11:16:23Z</time>
      </trkpt>
      <trkpt lat="46.10599" lon="6.39809">
        <ele>879</ele>
        <time>2012-05-10T11:16:24Z</time>
      </trkpt>
      <trkpt lat="46.10607" lon="6.39803">
        <ele>879</ele>
        <time>2012-05-10T11:16:25Z</time>
      </trkpt>
      <trkpt lat="46.10615" lon="6.39794">
        <ele>879</ele>
        <time>2012-05-10T11:16:26Z</time>
      </trkpt>
      <trkpt lat="46.10623" lon="6.39784">
        <ele>879</ele>
        <time>2012-05-10T11:16:27Z</time>
      </trkpt>
      <trkpt lat="46.1063" lon="6.39774">
        <ele>879</ele>
        <time>2012-05-10T11:16:28Z</time>
      </trkpt>
      <trkpt lat="46.10639" lon="6.39766">
        <ele>879</ele>
        <time>2012-05-10T11:16:29Z</time>
      </trkpt>
      <trkpt lat="46.10649" lon="6.3976">
        <ele>879</ele>
        <time>2012-05-10T11:16:30Z</time>
      </trkpt>
      <trkpt lat="46.10659" lon="6.39755">
        <ele>879</ele>
        <time>2012-05-10T11:16:31Z</time>
      </trkpt>
      <trkpt lat="46.1067" lon="6.39752">
        <ele>879</ele>
        <time>2012-05-10T11:16:32Z</time>
      </trkpt>
      <trkpt lat="46.10682" lon="6.3975">
        <ele>879</ele>
        <time>2012-05-10T11:16:33Z</time>
      </trkpt>
      <trkpt lat="46.10692" lon="6.39747">
        <ele>872</ele>
        <time>2012-05-10T11:16:34Z</time>
      </trkpt>
      <trkpt lat="46.10704" lon="6.39745">
        <ele>872</ele>
        <time>2012-05-10T11:16:35Z</time>
      </trkpt>
      <trkpt lat="46.10716" lon="6.39741">
        <ele>872</ele>
        <time>2012-05-10T11:16:36Z</time>
      </trkpt>
      <trkpt lat="46.10728" lon="6.39736">
        <ele>872</ele>
        <time>2012-05-10T11:16:37Z</time>
      </trkpt>
      <trkpt lat="46.1074" lon="6.3973">
        <ele>872</ele>
        <time>2012-05-10T11:16:38Z</time>
      </trkpt>
      <trkpt lat="46.10752" lon="6.39724">
        <ele>866</ele>
        <time>2012-05-10T11:16:39Z</time>
      </trkpt>
      <trkpt lat="46.10765" lon="6.39719">
        <ele>866</ele>
        <time>2012-05-10T11:16:40Z</time>
      </trkpt>
      <trkpt lat="46.10778" lon="6.39716">
        <ele>866</ele>
        <time>2012-05-10T11:16:41Z</time>
      </trkpt>
      <trkpt lat="46.10791" lon="6.39714">
        <ele>860</ele>
        <time>2012-05-10T11:16:42Z</time>
      </trkpt>
      <trkpt lat="46.10803" lon="6.39713">
        <ele>860</ele>
        <time>2012-05-10T11:16:43Z</time>
      </trkpt>
      <trkpt lat="46.10815" lon="6.3971">
        <ele>860</ele>
        <time>2012-05-10T11:16:44Z</time>
      </trkpt>
      <trkpt lat="46.10827" lon="6.39709">
        <ele>860</ele>
        <time>2012-05-10T11:16:45Z</time>
      </trkpt>
      <trkpt lat="46.10837" lon="6.39708">
        <ele>860</ele>
        <time>2012-05-10T11:16:46Z</time>
      </trkpt>
      <trkpt lat="46.10847" lon="6.39707">
        <ele>860</ele>
        <time>2012-05-10T11:16:47Z</time>
      </trkpt>
      <trkpt lat="46.10863" lon="6.39701">
        <ele>853</ele>
        <time>2012-05-10T11:16:49Z</time>
      </trkpt>
      <trkpt lat="46.10874" lon="6.39681">
        <ele>853</ele>
        <time>2012-05-10T11:16:51Z</time>
      </trkpt>
      <trkpt lat="46.10877" lon="6.39665">
        <ele>853</ele>
        <time>2012-05-10T11:16:52Z</time>
      </trkpt>
      <trkpt lat="46.10879" lon="6.39649">
        <ele>853</ele>
        <time>2012-05-10T11:16:53Z</time>
      </trkpt>
      <trkpt lat="46.10882" lon="6.39633">
        <ele>853</ele>
        <time>2012-05-10T11:16:54Z</time>
      </trkpt>
      <trkpt lat="46.10885" lon="6.39616">
        <ele>853</ele>
        <time>2012-05-10T11:16:55Z</time>
      </trkpt>
      <trkpt lat="46.10888" lon="6.39599">
        <ele>853</ele>
        <time>2012-05-10T11:16:56Z</time>
      </trkpt>
      <trkpt lat="46.10893" lon="6.39583">
        <ele>853</ele>
        <time>2012-05-10T11:16:57Z</time>
      </trkpt>
      <trkpt lat="46.10901" lon="6.39571">
        <ele>853</ele>
        <time>2012-05-10T11:16:58Z</time>
      </trkpt>
      <trkpt lat="46.1091" lon="6.3956">
        <ele>848</ele>
        <time>2012-05-10T11:16:59Z</time>
      </trkpt>
      <trkpt lat="46.1092" lon="6.39551">
        <ele>848</ele>
        <time>2012-05-10T11:17:00Z</time>
      </trkpt>
      <trkpt lat="46.1093" lon="6.39542">
        <ele>848</ele>
        <time>2012-05-10T11:17:01Z</time>
      </trkpt>
      <trkpt lat="46.1094" lon="6.39534">
        <ele>848</ele>
        <time>2012-05-10T11:17:02Z</time>
      </trkpt>
      <trkpt lat="46.10949" lon="6.39525">
        <ele>848</ele>
        <time>2012-05-10T11:17:03Z</time>
      </trkpt>
      <trkpt lat="46.10957" lon="6.39514">
        <ele>848</ele>
        <time>2012-05-10T11:17:04Z</time>
      </trkpt>
      <trkpt lat="46.10962" lon="6.395">
        <ele>843</ele>
        <time>2012-05-10T11:17:05Z</time>
      </trkpt>
      <trkpt lat="46.10967" lon="6.39483">
        <ele>843</ele>
        <time>2012-05-10T11:17:06Z</time>
      </trkpt>
      <trkpt lat="46.10971" lon="6.39467">
        <ele>843</ele>
        <time>2012-05-10T11:17:07Z</time>
      </trkpt>
      <trkpt lat="46.10975" lon="6.39451">
        <ele>843</ele>
        <time>2012-05-10T11:17:08Z</time>
      </trkpt>
      <trkpt lat="46.10978" lon="6.39435">
        <ele>843</ele>
        <time>2012-05-10T11:17:09Z</time>
      </trkpt>
      <trkpt lat="46.10982" lon="6.39423">
        <ele>843</ele>
        <time>2012-05-10T11:17:10Z</time>
      </trkpt>
      <trkpt lat="46.10988" lon="6.39405">
        <ele>836</ele>
        <time>2012-05-10T11:17:12Z</time>
      </trkpt>
      <trkpt lat="46.11001" lon="6.39394">
        <ele>836</ele>
        <time>2012-05-10T11:17:14Z</time>
      </trkpt>
      <trkpt lat="46.1102" lon="6.39392">
        <ele>836</ele>
        <time>2012-05-10T11:17:16Z</time>
      </trkpt>
      <trkpt lat="46.1103" lon="6.39392">
        <ele>836</ele>
        <time>2012-05-10T11:17:17Z</time>
      </trkpt>
      <trkpt lat="46.11042" lon="6.39392">
        <ele>831</ele>
        <time>2012-05-10T11:17:18Z</time>
      </trkpt>
      <trkpt lat="46.11054" lon="6.39393">
        <ele>831</ele>
        <time>2012-05-10T11:17:19Z</time>
      </trkpt>
      <trkpt lat="46.11066" lon="6.39395">
        <ele>831</ele>
        <time>2012-05-10T11:17:20Z</time>
      </trkpt>
      <trkpt lat="46.11077" lon="6.39398">
        <ele>831</ele>
        <time>2012-05-10T11:17:21Z</time>
      </trkpt>
      <trkpt lat="46.11088" lon="6.394">
        <ele>826</ele>
        <time>2012-05-10T11:17:22Z</time>
      </trkpt>
      <trkpt lat="46.11098" lon="6.39403">
        <ele>826</ele>
        <time>2012-05-10T11:17:23Z</time>
      </trkpt>
      <trkpt lat="46.11109" lon="6.39406">
        <ele>826</ele>
        <time>2012-05-10T11:17:24Z</time>
      </trkpt>
      <trkpt lat="46.11119" lon="6.39408">
        <ele>826</ele>
        <time>2012-05-10T11:17:25Z</time>
      </trkpt>
      <trkpt lat="46.11128" lon="6.39413">
        <ele>820</ele>
        <time>2012-05-10T11:17:26Z</time>
      </trkpt>
      <trkpt lat="46.11137" lon="6.39421">
        <ele>820</ele>
        <time>2012-05-10T11:17:27Z</time>
      </trkpt>
      <trkpt lat="46.11145" lon="6.3943">
        <ele>820</ele>
        <time>2012-05-10T11:17:28Z</time>
      </trkpt>
      <trkpt lat="46.11153" lon="6.39439">
        <ele>820</ele>
        <time>2012-05-10T11:17:29Z</time>
      </trkpt>
      <trkpt lat="46.11161" lon="6.39449">
        <ele>820</ele>
        <time>2012-05-10T11:17:30Z</time>
      </trkpt>
      <trkpt lat="46.1117" lon="6.39457">
        <ele>815</ele>
        <time>2012-05-10T11:17:31Z</time>
      </trkpt>
      <trkpt lat="46.11179" lon="6.39464">
        <ele>815</ele>
        <time>2012-05-10T11:17:32Z</time>
      </trkpt>
      <trkpt lat="46.11193" lon="6.39476">
        <ele>815</ele>
        <time>2012-05-10T11:17:34Z</time>
      </trkpt>
      <trkpt lat="46.11203" lon="6.39483">
        <ele>815</ele>
        <time>2012-05-10T11:17:36Z</time>
      </trkpt>
      <trkpt lat="46.11213" lon="6.39492">
        <ele>815</ele>
        <time>2012-05-10T11:17:38Z</time>
      </trkpt>
      <trkpt lat="46.11221" lon="6.39506">
        <ele>810</ele>
        <time>2012-05-10T11:17:40Z</time>
      </trkpt>
      <trkpt lat="46.11226" lon="6.39518">
        <ele>810</ele>
        <time>2012-05-10T11:17:42Z</time>
      </trkpt>
      <trkpt lat="46.11227" lon="6.39534">
        <ele>810</ele>
        <time>2012-05-10T11:17:45Z</time>
      </trkpt>
      <trkpt lat="46.1122" lon="6.3955">
        <ele>810</ele>
        <time>2012-05-10T11:17:47Z</time>
      </trkpt>
      <trkpt lat="46.1121" lon="6.39571">
        <ele>810</ele>
        <time>2012-05-10T11:17:49Z</time>
      </trkpt>
      <trkpt lat="46.11198" lon="6.39592">
        <ele>810</ele>
        <time>2012-05-10T11:17:51Z</time>
      </trkpt>
      <trkpt lat="46.11193" lon="6.39604">
        <ele>810</ele>
        <time>2012-05-10T11:17:52Z</time>
      </trkpt>
      <trkpt lat="46.11188" lon="6.39618">
        <ele>810</ele>
        <time>2012-05-10T11:17:53Z</time>
      </trkpt>
      <trkpt lat="46.11182" lon="6.39631">
        <ele>810</ele>
        <time>2012-05-10T11:17:54Z</time>
      </trkpt>
      <trkpt lat="46.11176" lon="6.39645">
        <ele>810</ele>
        <time>2012-05-10T11:17:55Z</time>
      </trkpt>
      <trkpt lat="46.1117" lon="6.3966">
        <ele>810</ele>
        <time>2012-05-10T11:17:56Z</time>
      </trkpt>
      <trkpt lat="46.11163" lon="6.39675">
        <ele>810</ele>
        <time>2012-05-10T11:17:57Z</time>
      </trkpt>
      <trkpt lat="46.11155" lon="6.39689">
        <ele>810</ele>
        <time>2012-05-10T11:17:58Z</time>
      </trkpt>
      <trkpt lat="46.11147" lon="6.39703">
        <ele>810</ele>
        <time>2012-05-10T11:17:59Z</time>
      </trkpt>
      <trkpt lat="46.11139" lon="6.39716">
        <ele>810</ele>
        <time>2012-05-10T11:18:00Z</time>
      </trkpt>
      <trkpt lat="46.11132" lon="6.3973">
        <ele>810</ele>
        <time>2012-05-10T11:18:01Z</time>
      </trkpt>
      <trkpt lat="46.11124" lon="6.39744">
        <ele>804</ele>
        <time>2012-05-10T11:18:02Z</time>
      </trkpt>
      <trkpt lat="46.11118" lon="6.3976">
        <ele>804</ele>
        <time>2012-05-10T11:18:03Z</time>
      </trkpt>
      <trkpt lat="46.11114" lon="6.39777">
        <ele>804</ele>
        <time>2012-05-10T11:18:04Z</time>
      </trkpt>
      <trkpt lat="46.1111" lon="6.39794">
        <ele>804</ele>
        <time>2012-05-10T11:18:05Z</time>
      </trkpt>
      <trkpt lat="46.11106" lon="6.3981">
        <ele>804</ele>
        <time>2012-05-10T11:18:06Z</time>
      </trkpt>
      <trkpt lat="46.11102" lon="6.39825">
        <ele>804</ele>
        <time>2012-05-10T11:18:07Z</time>
      </trkpt>
      <trkpt lat="46.11098" lon="6.39839">
        <ele>804</ele>
        <time>2012-05-10T11:18:08Z</time>
      </trkpt>
      <trkpt lat="46.11095" lon="6.39855">
        <ele>804</ele>
        <time>2012-05-10T11:18:09Z</time>
      </trkpt>
      <trkpt lat="46.11092" lon="6.3987">
        <ele>804</ele>
        <time>2012-05-10T11:18:10Z</time>
      </trkpt>
      <trkpt lat="46.11089" lon="6.39885">
        <ele>804</ele>
        <time>2012-05-10T11:18:11Z</time>
      </trkpt>
      <trkpt lat="46.11086" lon="6.39901">
        <ele>804</ele>
        <time>2012-05-10T11:18:12Z</time>
      </trkpt>
      <trkpt lat="46.11082" lon="6.39917">
        <ele>804</ele>
        <time>2012-05-10T11:18:13Z</time>
      </trkpt>
      <trkpt lat="46.11079" lon="6.39931">
        <ele>804</ele>
        <time>2012-05-10T11:18:14Z</time>
      </trkpt>
      <trkpt lat="46.11075" lon="6.39945">
        <ele>804</ele>
        <time>2012-05-10T11:18:15Z</time>
      </trkpt>
      <trkpt lat="46.1107" lon="6.3996">
        <ele>804</ele>
        <time>2012-05-10T11:18:16Z</time>
      </trkpt>
      <trkpt lat="46.11064" lon="6.39974">
        <ele>804</ele>
        <time>2012-05-10T11:18:17Z</time>
      </trkpt>
      <trkpt lat="46.11058" lon="6.39987">
        <ele>804</ele>
        <time>2012-05-10T11:18:18Z</time>
      </trkpt>
      <trkpt lat="46.11051" lon="6.39998">
        <ele>804</ele>
        <time>2012-05-10T11:18:19Z</time>
      </trkpt>
      <trkpt lat="46.11043" lon="6.4001">
        <ele>804</ele>
        <time>2012-05-10T11:18:20Z</time>
      </trkpt>
      <trkpt lat="46.11037" lon="6.40021">
        <ele>810</ele>
        <time>2012-05-10T11:18:21Z</time>
      </trkpt>
      <trkpt lat="46.1103" lon="6.40033">
        <ele>810</ele>
        <time>2012-05-10T11:18:22Z</time>
      </trkpt>
      <trkpt lat="46.11023" lon="6.40045">
        <ele>810</ele>
        <time>2012-05-10T11:18:23Z</time>
      </trkpt>
      <trkpt lat="46.11017" lon="6.40059">
        <ele>810</ele>
        <time>2012-05-10T11:18:24Z</time>
      </trkpt>
      <trkpt lat="46.1101" lon="6.40073">
        <ele>810</ele>
        <time>2012-05-10T11:18:25Z</time>
      </trkpt>
      <trkpt lat="46.11003" lon="6.40088">
        <ele>810</ele>
        <time>2012-05-10T11:18:26Z</time>
      </trkpt>
      <trkpt lat="46.10997" lon="6.40105">
        <ele>810</ele>
        <time>2012-05-10T11:18:27Z</time>
      </trkpt>
      <trkpt lat="46.10991" lon="6.40123">
        <ele>815</ele>
        <time>2012-05-10T11:18:28Z</time>
      </trkpt>
      <trkpt lat="46.10986" lon="6.40142">
        <ele>815</ele>
        <time>2012-05-10T11:18:29Z</time>
      </trkpt>
      <trkpt lat="46.10981" lon="6.40162">
        <ele>815</ele>
        <time>2012-05-10T11:18:30Z</time>
      </trkpt>
      <trkpt lat="46.10977" lon="6.40181">
        <ele>815</ele>
        <time>2012-05-10T11:18:31Z</time>
      </trkpt>
      <trkpt lat="46.10972" lon="6.40199">
        <ele>815</ele>
        <time>2012-05-10T11:18:32Z</time>
      </trkpt>
      <trkpt lat="46.10967" lon="6.40217">
        <ele>815</ele>
        <time>2012-05-10T11:18:33Z</time>
      </trkpt>
      <trkpt lat="46.1096" lon="6.40235">
        <ele>815</ele>
        <time>2012-05-10T11:18:34Z</time>
      </trkpt>
      <trkpt lat="46.10953" lon="6.40251">
        <ele>815</ele>
        <time>2012-05-10T11:18:35Z</time>
      </trkpt>
      <trkpt lat="46.10943" lon="6.40267">
        <ele>821</ele>
        <time>2012-05-10T11:18:36Z</time>
      </trkpt>
      <trkpt lat="46.10932" lon="6.40282">
        <ele>821</ele>
        <time>2012-05-10T11:18:37Z</time>
      </trkpt>
      <trkpt lat="46.1092" lon="6.40297">
        <ele>821</ele>
        <time>2012-05-10T11:18:38Z</time>
      </trkpt>
      <trkpt lat="46.10907" lon="6.40311">
        <ele>821</ele>
        <time>2012-05-10T11:18:39Z</time>
      </trkpt>
      <trkpt lat="46.10894" lon="6.40324">
        <ele>821</ele>
        <time>2012-05-10T11:18:40Z</time>
      </trkpt>
      <trkpt lat="46.1088" lon="6.40338">
        <ele>821</ele>
        <time>2012-05-10T11:18:41Z</time>
      </trkpt>
      <trkpt lat="46.10867" lon="6.40352">
        <ele>821</ele>
        <time>2012-05-10T11:18:42Z</time>
      </trkpt>
      <trkpt lat="46.10853" lon="6.40365">
        <ele>828</ele>
        <time>2012-05-10T11:18:43Z</time>
      </trkpt>
      <trkpt lat="46.1084" lon="6.40378">
        <ele>828</ele>
        <time>2012-05-10T11:18:44Z</time>
      </trkpt>
      <trkpt lat="46.10829" lon="6.40392">
        <ele>828</ele>
        <time>2012-05-10T11:18:45Z</time>
      </trkpt>
      <trkpt lat="46.10818" lon="6.40406">
        <ele>828</ele>
        <time>2012-05-10T11:18:46Z</time>
      </trkpt>
      <trkpt lat="46.10807" lon="6.40422">
        <ele>828</ele>
        <time>2012-05-10T11:18:47Z</time>
      </trkpt>
      <trkpt lat="46.10797" lon="6.40439">
        <ele>834</ele>
        <time>2012-05-10T11:18:48Z</time>
      </trkpt>
      <trkpt lat="46.10785" lon="6.40457">
        <ele>834</ele>
        <time>2012-05-10T11:18:49Z</time>
      </trkpt>
      <trkpt lat="46.10775" lon="6.40473">
        <ele>834</ele>
        <time>2012-05-10T11:18:50Z</time>
      </trkpt>
      <trkpt lat="46.10767" lon="6.4049">
        <ele>834</ele>
        <time>2012-05-10T11:18:51Z</time>
      </trkpt>
      <trkpt lat="46.10757" lon="6.4051">
        <ele>834</ele>
        <time>2012-05-10T11:18:52Z</time>
      </trkpt>
      <trkpt lat="46.1075" lon="6.40528">
        <ele>840</ele>
        <time>2012-05-10T11:18:53Z</time>
      </trkpt>
      <trkpt lat="46.10743" lon="6.40549">
        <ele>840</ele>
        <time>2012-05-10T11:18:54Z</time>
      </trkpt>
      <trkpt lat="46.10734" lon="6.40573">
        <ele>840</ele>
        <time>2012-05-10T11:18:55Z</time>
      </trkpt>
      <trkpt lat="46.10727" lon="6.40596">
        <ele>840</ele>
        <time>2012-05-10T11:18:56Z</time>
      </trkpt>
      <trkpt lat="46.1072" lon="6.40618">
        <ele>846</ele>
        <time>2012-05-10T11:18:57Z</time>
      </trkpt>
      <trkpt lat="46.10714" lon="6.40639">
        <ele>846</ele>
        <time>2012-05-10T11:18:58Z</time>
      </trkpt>
      <trkpt lat="46.10709" lon="6.40656">
        <ele>846</ele>
        <time>2012-05-10T11:18:59Z</time>
      </trkpt>
      <trkpt lat="46.10704" lon="6.40671">
        <ele>846</ele>
        <time>2012-05-10T11:19:00Z</time>
      </trkpt>
      <trkpt lat="46.107" lon="6.40685">
        <ele>852</ele>
        <time>2012-05-10T11:19:01Z</time>
      </trkpt>
      <trkpt lat="46.10696" lon="6.40705">
        <ele>852</ele>
        <time>2012-05-10T11:19:03Z</time>
      </trkpt>
      <trkpt lat="46.10701" lon="6.40722">
        <ele>852</ele>
        <time>2012-05-10T11:19:05Z</time>
      </trkpt>
      <trkpt lat="46.10715" lon="6.40728">
        <ele>858</ele>
        <time>2012-05-10T11:19:07Z</time>
      </trkpt>
      <trkpt lat="46.10724" lon="6.40724">
        <ele>858</ele>
        <time>2012-05-10T11:19:08Z</time>
      </trkpt>
      <trkpt lat="46.10734" lon="6.40718">
        <ele>858</ele>
        <time>2012-05-10T11:19:09Z</time>
      </trkpt>
      <trkpt lat="46.10744" lon="6.40711">
        <ele>858</ele>
        <time>2012-05-10T11:19:10Z</time>
      </trkpt>
      <trkpt lat="46.10755" lon="6.40704">
        <ele>858</ele>
        <time>2012-05-10T11:19:11Z</time>
      </trkpt>
      <trkpt lat="46.10767" lon="6.40696">
        <ele>858</ele>
        <time>2012-05-10T11:19:12Z</time>
      </trkpt>
      <trkpt lat="46.10778" lon="6.40689">
        <ele>858</ele>
        <time>2012-05-10T11:19:13Z</time>
      </trkpt>
      <trkpt lat="46.10789" lon="6.40683">
        <ele>858</ele>
        <time>2012-05-10T11:19:14Z</time>
      </trkpt>
      <trkpt lat="46.108" lon="6.40678">
        <ele>858</ele>
        <time>2012-05-10T11:19:15Z</time>
      </trkpt>
      <trkpt lat="46.1081" lon="6.40675">
        <ele>863</ele>
        <time>2012-05-10T11:19:16Z</time>
      </trkpt>
      <trkpt lat="46.10826" lon="6.4068">
        <ele>863</ele>
        <time>2012-05-10T11:19:18Z</time>
      </trkpt>
      <trkpt lat="46.10836" lon="6.407">
        <ele>863</ele>
        <time>2012-05-10T11:19:20Z</time>
      </trkpt>
      <trkpt lat="46.10838" lon="6.40726">
        <ele>869</ele>
        <time>2012-05-10T11:19:22Z</time>
      </trkpt>
      <trkpt lat="46.10837" lon="6.4074">
        <ele>869</ele>
        <time>2012-05-10T11:19:23Z</time>
      </trkpt>
      <trkpt lat="46.10836" lon="6.40756">
        <ele>869</ele>
        <time>2012-05-10T11:19:24Z</time>
      </trkpt>
      <trkpt lat="46.10833" lon="6.40772">
        <ele>869</ele>
        <time>2012-05-10T11:19:25Z</time>
      </trkpt>
      <trkpt lat="46.10827" lon="6.40788">
        <ele>869</ele>
        <time>2012-05-10T11:19:26Z</time>
      </trkpt>
      <trkpt lat="46.10817" lon="6.40807">
        <ele>869</ele>
        <time>2012-05-10T11:19:27Z</time>
      </trkpt>
      <trkpt lat="46.10808" lon="6.40825">
        <ele>869</ele>
        <time>2012-05-10T11:19:28Z</time>
      </trkpt>
      <trkpt lat="46.10799" lon="6.40844">
        <ele>874</ele>
        <time>2012-05-10T11:19:29Z</time>
      </trkpt>
      <trkpt lat="46.10789" lon="6.40864">
        <ele>874</ele>
        <time>2012-05-10T11:19:30Z</time>
      </trkpt>
      <trkpt lat="46.1078" lon="6.40882">
        <ele>874</ele>
        <time>2012-05-10T11:19:31Z</time>
      </trkpt>
      <trkpt lat="46.10774" lon="6.40898">
        <ele>874</ele>
        <time>2012-05-10T11:19:32Z</time>
      </trkpt>
      <trkpt lat="46.1077" lon="6.40914">
        <ele>874</ele>
        <time>2012-05-10T11:19:33Z</time>
      </trkpt>
      <trkpt lat="46.10768" lon="6.40931">
        <ele>879</ele>
        <time>2012-05-10T11:19:34Z</time>
      </trkpt>
      <trkpt lat="46.10767" lon="6.40951">
        <ele>879</ele>
        <time>2012-05-10T11:19:35Z</time>
      </trkpt>
      <trkpt lat="46.10765" lon="6.4097">
        <ele>879</ele>
        <time>2012-05-10T11:19:36Z</time>
      </trkpt>
      <trkpt lat="46.10762" lon="6.40991">
        <ele>879</ele>
        <time>2012-05-10T11:19:37Z</time>
      </trkpt>
      <trkpt lat="46.10757" lon="6.41011">
        <ele>879</ele>
        <time>2012-05-10T11:19:38Z</time>
      </trkpt>
      <trkpt lat="46.10752" lon="6.41031">
        <ele>879</ele>
        <time>2012-05-10T11:19:39Z</time>
      </trkpt>
      <trkpt lat="46.10747" lon="6.4105">
        <ele>879</ele>
        <time>2012-05-10T11:19:40Z</time>
      </trkpt>
      <trkpt lat="46.10742" lon="6.41069">
        <ele>879</ele>
        <time>2012-05-10T11:19:41Z</time>
      </trkpt>
      <trkpt lat="46.10737" lon="6.41087">
        <ele>879</ele>
        <time>2012-05-10T11:19:42Z</time>
      </trkpt>
      <trkpt lat="46.10731" lon="6.41103">
        <ele>879</ele>
        <time>2012-05-10T11:19:43Z</time>
      </trkpt>
      <trkpt lat="46.10723" lon="6.4112">
        <ele>879</ele>
        <time>2012-05-10T11:19:44Z</time>
      </trkpt>
      <trkpt lat="46.10714" lon="6.41134">
        <ele>879</ele>
        <time>2012-05-10T11:19:45Z</time>
      </trkpt>
      <trkpt lat="46.10704" lon="6.41147">
        <ele>879</ele>
        <time>2012-05-10T11:19:46Z</time>
      </trkpt>
      <trkpt lat="46.10695" lon="6.41157">
        <ele>879</ele>
        <time>2012-05-10T11:19:47Z</time>
      </trkpt>
      <trkpt lat="46.10686" lon="6.4117">
        <ele>879</ele>
        <time>2012-05-10T11:19:48Z</time>
      </trkpt>
      <trkpt lat="46.10678" lon="6.41183">
        <ele>879</ele>
        <time>2012-05-10T11:19:49Z</time>
      </trkpt>
      <trkpt lat="46.10671" lon="6.412">
        <ele>879</ele>
        <time>2012-05-10T11:19:50Z</time>
      </trkpt>
      <trkpt lat="46.10667" lon="6.41217">
        <ele>879</ele>
        <time>2012-05-10T11:19:51Z</time>
      </trkpt>
      <trkpt lat="46.10665" lon="6.41237">
        <ele>879</ele>
        <time>2012-05-10T11:19:52Z</time>
      </trkpt>
      <trkpt lat="46.10665" lon="6.41257">
        <ele>879</ele>
        <time>2012-05-10T11:19:53Z</time>
      </trkpt>
      <trkpt lat="46.10666" lon="6.41279">
        <ele>879</ele>
        <time>2012-05-10T11:19:54Z</time>
      </trkpt>
      <trkpt lat="46.10669" lon="6.413">
        <ele>879</ele>
        <time>2012-05-10T11:19:55Z</time>
      </trkpt>
      <trkpt lat="46.10671" lon="6.41322">
        <ele>879</ele>
        <time>2012-05-10T11:19:56Z</time>
      </trkpt>
      <trkpt lat="46.10675" lon="6.41342">
        <ele>879</ele>
        <time>2012-05-10T11:19:57Z</time>
      </trkpt>
      <trkpt lat="46.1068" lon="6.4136">
        <ele>879</ele>
        <time>2012-05-10T11:19:58Z</time>
      </trkpt>
      <trkpt lat="46.10685" lon="6.41377">
        <ele>879</ele>
        <time>2012-05-10T11:19:59Z</time>
      </trkpt>
      <trkpt lat="46.10688" lon="6.41393">
        <ele>879</ele>
        <time>2012-05-10T11:20:00Z</time>
      </trkpt>
      <trkpt lat="46.1069" lon="6.41408">
        <ele>879</ele>
        <time>2012-05-10T11:20:01Z</time>
      </trkpt>
      <trkpt lat="46.10692" lon="6.41422">
        <ele>879</ele>
        <time>2012-05-10T11:20:02Z</time>
      </trkpt>
      <trkpt lat="46.10694" lon="6.41438">
        <ele>879</ele>
        <time>2012-05-10T11:20:03Z</time>
      </trkpt>
      <trkpt lat="46.10694" lon="6.41454">
        <ele>879</ele>
        <time>2012-05-10T11:20:04Z</time>
      </trkpt>
      <trkpt lat="46.10694" lon="6.41471">
        <ele>879</ele>
        <time>2012-05-10T11:20:05Z</time>
      </trkpt>
      <trkpt lat="46.10694" lon="6.41488">
        <ele>879</ele>
        <time>2012-05-10T11:20:06Z</time>
      </trkpt>
      <trkpt lat="46.10695" lon="6.41505">
        <ele>879</ele>
        <time>2012-05-10T11:20:07Z</time>
      </trkpt>
      <trkpt lat="46.10696" lon="6.41523">
        <ele>879</ele>
        <time>2012-05-10T11:20:08Z</time>
      </trkpt>
      <trkpt lat="46.10699" lon="6.4154">
        <ele>879</ele>
        <time>2012-05-10T11:20:09Z</time>
      </trkpt>
      <trkpt lat="46.10702" lon="6.41556">
        <ele>879</ele>
        <time>2012-05-10T11:20:10Z</time>
      </trkpt>
      <trkpt lat="46.10705" lon="6.41572">
        <ele>879</ele>
        <time>2012-05-10T11:20:11Z</time>
      </trkpt>
      <trkpt lat="46.10709" lon="6.41589">
        <ele>879</ele>
        <time>2012-05-10T11:20:12Z</time>
      </trkpt>
      <trkpt lat="46.10714" lon="6.41604">
        <ele>879</ele>
        <time>2012-05-10T11:20:13Z</time>
      </trkpt>
      <trkpt lat="46.10719" lon="6.41619">
        <ele>879</ele>
        <time>2012-05-10T11:20:14Z</time>
      </trkpt>
      <trkpt lat="46.10725" lon="6.41633">
        <ele>879</ele>
        <time>2012-05-10T11:20:15Z</time>
      </trkpt>
      <trkpt lat="46.10731" lon="6.41649">
        <ele>879</ele>
        <time>2012-05-10T11:20:16Z</time>
      </trkpt>
      <trkpt lat="46.10739" lon="6.41664">
        <ele>879</ele>
        <time>2012-05-10T11:20:17Z</time>
      </trkpt>
      <trkpt lat="46.10745" lon="6.4168">
        <ele>879</ele>
        <time>2012-05-10T11:20:18Z</time>
      </trkpt>
      <trkpt lat="46.10752" lon="6.41696">
        <ele>884</ele>
        <time>2012-05-10T11:20:19Z</time>
      </trkpt>
      <trkpt lat="46.10757" lon="6.41712">
        <ele>884</ele>
        <time>2012-05-10T11:20:20Z</time>
      </trkpt>
      <trkpt lat="46.10763" lon="6.41726">
        <ele>884</ele>
        <time>2012-05-10T11:20:21Z</time>
      </trkpt>
      <trkpt lat="46.10767" lon="6.41739">
        <ele>884</ele>
        <time>2012-05-10T11:20:22Z</time>
      </trkpt>
      <trkpt lat="46.1077" lon="6.41753">
        <ele>884</ele>
        <time>2012-05-10T11:20:23Z</time>
      </trkpt>
      <trkpt lat="46.10773" lon="6.41766">
        <ele>884</ele>
        <time>2012-05-10T11:20:24Z</time>
      </trkpt>
      <trkpt lat="46.10779" lon="6.41786">
        <ele>884</ele>
        <time>2012-05-10T11:20:26Z</time>
      </trkpt>
      <trkpt lat="46.10792" lon="6.41793">
        <ele>884</ele>
        <time>2012-05-10T11:20:28Z</time>
      </trkpt>
      <trkpt lat="46.10808" lon="6.41789">
        <ele>884</ele>
        <time>2012-05-10T11:20:30Z</time>
      </trkpt>
      <trkpt lat="46.10822" lon="6.41773">
        <ele>884</ele>
        <time>2012-05-10T11:20:32Z</time>
      </trkpt>
      <trkpt lat="46.10828" lon="6.4176">
        <ele>890</ele>
        <time>2012-05-10T11:20:33Z</time>
      </trkpt>
      <trkpt lat="46.10835" lon="6.41744">
        <ele>890</ele>
        <time>2012-05-10T11:20:34Z</time>
      </trkpt>
      <trkpt lat="46.1084" lon="6.41728">
        <ele>890</ele>
        <time>2012-05-10T11:20:35Z</time>
      </trkpt>
      <trkpt lat="46.10843" lon="6.4171">
        <ele>890</ele>
        <time>2012-05-10T11:20:36Z</time>
      </trkpt>
      <trkpt lat="46.10847" lon="6.41692">
        <ele>890</ele>
        <time>2012-05-10T11:20:37Z</time>
      </trkpt>
      <trkpt lat="46.10848" lon="6.41673">
        <ele>895</ele>
        <time>2012-05-10T11:20:38Z</time>
      </trkpt>
      <trkpt lat="46.1085" lon="6.41657">
        <ele>895</ele>
        <time>2012-05-10T11:20:39Z</time>
      </trkpt>
      <trkpt lat="46.10852" lon="6.41642">
        <ele>895</ele>
        <time>2012-05-10T11:20:40Z</time>
      </trkpt>
      <trkpt lat="46.10857" lon="6.41629">
        <ele>895</ele>
        <time>2012-05-10T11:20:41Z</time>
      </trkpt>
      <trkpt lat="46.10862" lon="6.41617">
        <ele>895</ele>
        <time>2012-05-10T11:20:42Z</time>
      </trkpt>
      <trkpt lat="46.10868" lon="6.41608">
        <ele>895</ele>
        <time>2012-05-10T11:20:43Z</time>
      </trkpt>
      <trkpt lat="46.10879" lon="6.41604">
        <ele>895</ele>
        <time>2012-05-10T11:20:44Z</time>
      </trkpt>
      <trkpt lat="46.10889" lon="6.41602">
        <ele>901</ele>
        <time>2012-05-10T11:20:45Z</time>
      </trkpt>
      <trkpt lat="46.10899" lon="6.41603">
        <ele>901</ele>
        <time>2012-05-10T11:20:46Z</time>
      </trkpt>
      <trkpt lat="46.10908" lon="6.41609">
        <ele>901</ele>
        <time>2012-05-10T11:20:47Z</time>
      </trkpt>
      <trkpt lat="46.10916" lon="6.41619">
        <ele>901</ele>
        <time>2012-05-10T11:20:48Z</time>
      </trkpt>
      <trkpt lat="46.10923" lon="6.41632">
        <ele>901</ele>
        <time>2012-05-10T11:20:49Z</time>
      </trkpt>
      <trkpt lat="46.10929" lon="6.41645">
        <ele>907</ele>
        <time>2012-05-10T11:20:50Z</time>
      </trkpt>
      <trkpt lat="46.10935" lon="6.41658">
        <ele>907</ele>
        <time>2012-05-10T11:20:51Z</time>
      </trkpt>
      <trkpt lat="46.10938" lon="6.41671">
        <ele>907</ele>
        <time>2012-05-10T11:20:52Z</time>
      </trkpt>
      <trkpt lat="46.1094" lon="6.41684">
        <ele>907</ele>
        <time>2012-05-10T11:20:53Z</time>
      </trkpt>
      <trkpt lat="46.1094" lon="6.41708">
        <ele>907</ele>
        <time>2012-05-10T11:20:55Z</time>
      </trkpt>
      <trkpt lat="46.10944" lon="6.41727">
        <ele>912</ele>
        <time>2012-05-10T11:20:57Z</time>
      </trkpt>
      <trkpt lat="46.10954" lon="6.41739">
        <ele>912</ele>
        <time>2012-05-10T11:20:59Z</time>
      </trkpt>
      <trkpt lat="46.10967" lon="6.41748">
        <ele>912</ele>
        <time>2012-05-10T11:21:01Z</time>
      </trkpt>
      <trkpt lat="46.1098" lon="6.41761">
        <ele>912</ele>
        <time>2012-05-10T11:21:03Z</time>
      </trkpt>
      <trkpt lat="46.10993" lon="6.41776">
        <ele>919</ele>
        <time>2012-05-10T11:21:05Z</time>
      </trkpt>
      <trkpt lat="46.11" lon="6.41785">
        <ele>919</ele>
        <time>2012-05-10T11:21:06Z</time>
      </trkpt>
      <trkpt lat="46.11013" lon="6.41802">
        <ele>919</ele>
        <time>2012-05-10T11:21:08Z</time>
      </trkpt>
      <trkpt lat="46.11028" lon="6.41818">
        <ele>919</ele>
        <time>2012-05-10T11:21:10Z</time>
      </trkpt>
      <trkpt lat="46.11035" lon="6.41827">
        <ele>919</ele>
        <time>2012-05-10T11:21:11Z</time>
      </trkpt>
      <trkpt lat="46.11043" lon="6.41835">
        <ele>924</ele>
        <time>2012-05-10T11:21:12Z</time>
      </trkpt>
      <trkpt lat="46.11051" lon="6.41843">
        <ele>924</ele>
        <time>2012-05-10T11:21:13Z</time>
      </trkpt>
      <trkpt lat="46.11059" lon="6.41849">
        <ele>924</ele>
        <time>2012-05-10T11:21:14Z</time>
      </trkpt>
      <trkpt lat="46.11075" lon="6.41857">
        <ele>930</ele>
        <time>2012-05-10T11:21:16Z</time>
      </trkpt>
      <trkpt lat="46.1109" lon="6.41858">
        <ele>930</ele>
        <time>2012-05-10T11:21:18Z</time>
      </trkpt>
      <trkpt lat="46.11103" lon="6.4186">
        <ele>930</ele>
        <time>2012-05-10T11:21:20Z</time>
      </trkpt>
      <trkpt lat="46.11117" lon="6.41858">
        <ele>930</ele>
        <time>2012-05-10T11:21:22Z</time>
      </trkpt>
      <trkpt lat="46.11133" lon="6.41853">
        <ele>930</ele>
        <time>2012-05-10T11:21:24Z</time>
      </trkpt>
      <trkpt lat="46.11149" lon="6.41845">
        <ele>930</ele>
        <time>2012-05-10T11:21:26Z</time>
      </trkpt>
      <trkpt lat="46.11165" lon="6.41836">
        <ele>930</ele>
        <time>2012-05-10T11:21:28Z</time>
      </trkpt>
      <trkpt lat="46.11174" lon="6.4183">
        <ele>935</ele>
        <time>2012-05-10T11:21:29Z</time>
      </trkpt>
      <trkpt lat="46.1119" lon="6.41819">
        <ele>935</ele>
        <time>2012-05-10T11:21:31Z</time>
      </trkpt>
      <trkpt lat="46.11204" lon="6.41809">
        <ele>935</ele>
        <time>2012-05-10T11:21:33Z</time>
      </trkpt>
      <trkpt lat="46.11219" lon="6.41799">
        <ele>935</ele>
        <time>2012-05-10T11:21:35Z</time>
      </trkpt>
      <trkpt lat="46.11231" lon="6.4179">
        <ele>935</ele>
        <time>2012-05-10T11:21:37Z</time>
      </trkpt>
      <trkpt lat="46.11244" lon="6.4178">
        <ele>935</ele>
        <time>2012-05-10T11:21:39Z</time>
      </trkpt>
      <trkpt lat="46.11258" lon="6.41769">
        <ele>935</ele>
        <time>2012-05-10T11:21:41Z</time>
      </trkpt>
      <trkpt lat="46.11275" lon="6.41758">
        <ele>935</ele>
        <time>2012-05-10T11:21:43Z</time>
      </trkpt>
      <trkpt lat="46.11284" lon="6.41752">
        <ele>935</ele>
        <time>2012-05-10T11:21:44Z</time>
      </trkpt>
      <trkpt lat="46.11293" lon="6.41747">
        <ele>935</ele>
        <time>2012-05-10T11:21:45Z</time>
      </trkpt>
      <trkpt lat="46.11303" lon="6.41742">
        <ele>935</ele>
        <time>2012-05-10T11:21:46Z</time>
      </trkpt>
      <trkpt lat="46.11313" lon="6.41739">
        <ele>935</ele>
        <time>2012-05-10T11:21:47Z</time>
      </trkpt>
      <trkpt lat="46.11323" lon="6.41737">
        <ele>935</ele>
        <time>2012-05-10T11:21:48Z</time>
      </trkpt>
      <trkpt lat="46.11333" lon="6.41736">
        <ele>935</ele>
        <time>2012-05-10T11:21:49Z</time>
      </trkpt>
      <trkpt lat="46.11343" lon="6.41737">
        <ele>935</ele>
        <time>2012-05-10T11:21:50Z</time>
      </trkpt>
      <trkpt lat="46.11352" lon="6.41739">
        <ele>935</ele>
        <time>2012-05-10T11:21:51Z</time>
      </trkpt>
      <trkpt lat="46.11362" lon="6.41743">
        <ele>935</ele>
        <time>2012-05-10T11:21:52Z</time>
      </trkpt>
      <trkpt lat="46.11371" lon="6.41747">
        <ele>935</ele>
        <time>2012-05-10T11:21:53Z</time>
      </trkpt>
      <trkpt lat="46.11381" lon="6.41751">
        <ele>935</ele>
        <time>2012-05-10T11:21:54Z</time>
      </trkpt>
      <trkpt lat="46.1139" lon="6.41755">
        <ele>935</ele>
        <time>2012-05-10T11:21:55Z</time>
      </trkpt>
      <trkpt lat="46.11406" lon="6.41765">
        <ele>935</ele>
        <time>2012-05-10T11:21:57Z</time>
      </trkpt>
      <trkpt lat="46.11419" lon="6.41781">
        <ele>935</ele>
        <time>2012-05-10T11:21:59Z</time>
      </trkpt>
      <trkpt lat="46.11425" lon="6.41791">
        <ele>935</ele>
        <time>2012-05-10T11:22:00Z</time>
      </trkpt>
      <trkpt lat="46.11432" lon="6.418">
        <ele>935</ele>
        <time>2012-05-10T11:22:01Z</time>
      </trkpt>
      <trkpt lat="46.11438" lon="6.4181">
        <ele>935</ele>
        <time>2012-05-10T11:22:02Z</time>
      </trkpt>
      <trkpt lat="46.11443" lon="6.41822">
        <ele>935</ele>
        <time>2012-05-10T11:22:03Z</time>
      </trkpt>
      <trkpt lat="46.11448" lon="6.41835">
        <ele>935</ele>
        <time>2012-05-10T11:22:04Z</time>
      </trkpt>
      <trkpt lat="46.11453" lon="6.41848">
        <ele>935</ele>
        <time>2012-05-10T11:22:05Z</time>
      </trkpt>
      <trkpt lat="46.1146" lon="6.41871">
        <ele>935</ele>
        <time>2012-05-10T11:22:07Z</time>
      </trkpt>
      <trkpt lat="46.1146" lon="6.41893">
        <ele>941</ele>
        <time>2012-05-10T11:22:09Z</time>
      </trkpt>
      <trkpt lat="46.11455" lon="6.4191">
        <ele>941</ele>
        <time>2012-05-10T11:22:11Z</time>
      </trkpt>
      <trkpt lat="46.11445" lon="6.41924">
        <ele>946</ele>
        <time>2012-05-10T11:22:13Z</time>
      </trkpt>
      <trkpt lat="46.11436" lon="6.41932">
        <ele>946</ele>
        <time>2012-05-10T11:22:14Z</time>
      </trkpt>
      <trkpt lat="46.11428" lon="6.41941">
        <ele>946</ele>
        <time>2012-05-10T11:22:15Z</time>
      </trkpt>
      <trkpt lat="46.1142" lon="6.41951">
        <ele>946</ele>
        <time>2012-05-10T11:22:16Z</time>
      </trkpt>
      <trkpt lat="46.11413" lon="6.41964">
        <ele>952</ele>
        <time>2012-05-10T11:22:17Z</time>
      </trkpt>
      <trkpt lat="46.11406" lon="6.4198">
        <ele>952</ele>
        <time>2012-05-10T11:22:18Z</time>
      </trkpt>
      <trkpt lat="46.11402" lon="6.41998">
        <ele>952</ele>
        <time>2012-05-10T11:22:19Z</time>
      </trkpt>
      <trkpt lat="46.11401" lon="6.42013">
        <ele>952</ele>
        <time>2012-05-10T11:22:20Z</time>
      </trkpt>
      <trkpt lat="46.11402" lon="6.42028">
        <ele>952</ele>
        <time>2012-05-10T11:22:21Z</time>
      </trkpt>
      <trkpt lat="46.11403" lon="6.42042">
        <ele>959</ele>
        <time>2012-05-10T11:22:22Z</time>
      </trkpt>
      <trkpt lat="46.11402" lon="6.42056">
        <ele>959</ele>
        <time>2012-05-10T11:22:23Z</time>
      </trkpt>
      <trkpt lat="46.11396" lon="6.42083">
        <ele>959</ele>
        <time>2012-05-10T11:22:25Z</time>
      </trkpt>
      <trkpt lat="46.1139" lon="6.42096">
        <ele>964</ele>
        <time>2012-05-10T11:22:26Z</time>
      </trkpt>
      <trkpt lat="46.11385" lon="6.42108">
        <ele>964</ele>
        <time>2012-05-10T11:22:27Z</time>
      </trkpt>
      <trkpt lat="46.11381" lon="6.4212">
        <ele>964</ele>
        <time>2012-05-10T11:22:28Z</time>
      </trkpt>
      <trkpt lat="46.11378" lon="6.42133">
        <ele>964</ele>
        <time>2012-05-10T11:22:29Z</time>
      </trkpt>
      <trkpt lat="46.11376" lon="6.42146">
        <ele>964</ele>
        <time>2012-05-10T11:22:30Z</time>
      </trkpt>
      <trkpt lat="46.11377" lon="6.42172">
        <ele>964</ele>
        <time>2012-05-10T11:22:32Z</time>
      </trkpt>
      <trkpt lat="46.11379" lon="6.42188">
        <ele>964</ele>
        <time>2012-05-10T11:22:33Z</time>
      </trkpt>
      <trkpt lat="46.11385" lon="6.42204">
        <ele>964</ele>
        <time>2012-05-10T11:22:34Z</time>
      </trkpt>
      <trkpt lat="46.11394" lon="6.42219">
        <ele>964</ele>
        <time>2012-05-10T11:22:35Z</time>
      </trkpt>
      <trkpt lat="46.11402" lon="6.42233">
        <ele>964</ele>
        <time>2012-05-10T11:22:36Z</time>
      </trkpt>
      <trkpt lat="46.11411" lon="6.42244">
        <ele>964</ele>
        <time>2012-05-10T11:22:37Z</time>
      </trkpt>
      <trkpt lat="46.11418" lon="6.42258">
        <ele>964</ele>
        <time>2012-05-10T11:22:38Z</time>
      </trkpt>
      <trkpt lat="46.11425" lon="6.42272">
        <ele>964</ele>
        <time>2012-05-10T11:22:39Z</time>
      </trkpt>
      <trkpt lat="46.11438" lon="6.42293">
        <ele>959</ele>
        <time>2012-05-10T11:22:41Z</time>
      </trkpt>
      <trkpt lat="46.11469" lon="6.42308">
        <ele>959</ele>
        <time>2012-05-10T11:22:44Z</time>
      </trkpt>
      <trkpt lat="46.11487" lon="6.42308">
        <ele>959</ele>
        <time>2012-05-10T11:22:45Z</time>
      </trkpt>
      <trkpt lat="46.115" lon="6.42309">
        <ele>966</ele>
        <time>2012-05-10T11:22:46Z</time>
      </trkpt>
      <trkpt lat="46.11512" lon="6.42317">
        <ele>966</ele>
        <time>2012-05-10T11:22:47Z</time>
      </trkpt>
      <trkpt lat="46.11523" lon="6.42326">
        <ele>966</ele>
        <time>2012-05-10T11:22:48Z</time>
      </trkpt>
      <trkpt lat="46.1153" lon="6.42338">
        <ele>966</ele>
        <time>2012-05-10T11:22:49Z</time>
      </trkpt>
      <trkpt lat="46.1154" lon="6.42347">
        <ele>966</ele>
        <time>2012-05-10T11:22:50Z</time>
      </trkpt>
      <trkpt lat="46.11551" lon="6.42353">
        <ele>966</ele>
        <time>2012-05-10T11:22:51Z</time>
      </trkpt>
      <trkpt lat="46.11562" lon="6.42362">
        <ele>966</ele>
        <time>2012-05-10T11:22:52Z</time>
      </trkpt>
      <trkpt lat="46.11573" lon="6.42373">
        <ele>966</ele>
        <time>2012-05-10T11:22:53Z</time>
      </trkpt>
      <trkpt lat="46.11581" lon="6.42384">
        <ele>966</ele>
        <time>2012-05-10T11:22:54Z</time>
      </trkpt>
      <trkpt lat="46.11592" lon="6.42394">
        <ele>966</ele>
        <time>2012-05-10T11:22:55Z</time>
      </trkpt>
      <trkpt lat="46.11603" lon="6.42406">
        <ele>966</ele>
        <time>2012-05-10T11:22:56Z</time>
      </trkpt>
      <trkpt lat="46.11617" lon="6.42418">
        <ele>966</ele>
        <time>2012-05-10T11:22:57Z</time>
      </trkpt>
      <trkpt lat="46.11654" lon="6.42468">
        <ele>966</ele>
        <time>2012-05-10T11:23:01Z</time>
      </trkpt>
      <trkpt lat="46.11661" lon="6.42492">
        <ele>973</ele>
        <time>2012-05-10T11:23:02Z</time>
      </trkpt>
      <trkpt lat="46.11675" lon="6.42509">
        <ele>973</ele>
        <time>2012-05-10T11:23:03Z</time>
      </trkpt>
      <trkpt lat="46.11689" lon="6.42521">
        <ele>981</ele>
        <time>2012-05-10T11:23:04Z</time>
      </trkpt>
      <trkpt lat="46.11698" lon="6.42532">
        <ele>981</ele>
        <time>2012-05-10T11:23:05Z</time>
      </trkpt>
      <trkpt lat="46.11709" lon="6.4255">
        <ele>981</ele>
        <time>2012-05-10T11:23:07Z</time>
      </trkpt>
      <trkpt lat="46.11717" lon="6.42562">
        <ele>981</ele>
        <time>2012-05-10T11:23:09Z</time>
      </trkpt>
      <trkpt lat="46.11723" lon="6.42572">
        <ele>981</ele>
        <time>2012-05-10T11:23:11Z</time>
      </trkpt>
      <trkpt lat="46.11732" lon="6.4258">
        <ele>992</ele>
        <time>2012-05-10T11:23:13Z</time>
      </trkpt>
      <trkpt lat="46.11741" lon="6.42591">
        <ele>992</ele>
        <time>2012-05-10T11:23:15Z</time>
      </trkpt>
      <trkpt lat="46.11751" lon="6.42601">
        <ele>992</ele>
        <time>2012-05-10T11:23:17Z</time>
      </trkpt>
      <trkpt lat="46.11764" lon="6.42619">
        <ele>992</ele>
        <time>2012-05-10T11:23:19Z</time>
      </trkpt>
      <trkpt lat="46.11771" lon="6.42629">
        <ele>992</ele>
        <time>2012-05-10T11:23:20Z</time>
      </trkpt>
      <trkpt lat="46.11777" lon="6.4264">
        <ele>992</ele>
        <time>2012-05-10T11:23:21Z</time>
      </trkpt>
      <trkpt lat="46.1179" lon="6.42656">
        <ele>992</ele>
        <time>2012-05-10T11:23:23Z</time>
      </trkpt>
      <trkpt lat="46.11797" lon="6.42665">
        <ele>992</ele>
        <time>2012-05-10T11:23:24Z</time>
      </trkpt>
      <trkpt lat="46.11805" lon="6.42676">
        <ele>992</ele>
        <time>2012-05-10T11:23:25Z</time>
      </trkpt>
      <trkpt lat="46.11812" lon="6.42691">
        <ele>992</ele>
        <time>2012-05-10T11:23:26Z</time>
      </trkpt>
      <trkpt lat="46.11821" lon="6.42706">
        <ele>992</ele>
        <time>2012-05-10T11:23:27Z</time>
      </trkpt>
      <trkpt lat="46.11829" lon="6.42722">
        <ele>992</ele>
        <time>2012-05-10T11:23:28Z</time>
      </trkpt>
      <trkpt lat="46.11837" lon="6.42742">
        <ele>992</ele>
        <time>2012-05-10T11:23:29Z</time>
      </trkpt>
      <trkpt lat="46.11844" lon="6.42762">
        <ele>992</ele>
        <time>2012-05-10T11:23:30Z</time>
      </trkpt>
      <trkpt lat="46.11852" lon="6.42776">
        <ele>992</ele>
        <time>2012-05-10T11:23:31Z</time>
      </trkpt>
      <trkpt lat="46.11861" lon="6.42787">
        <ele>992</ele>
        <time>2012-05-10T11:23:32Z</time>
      </trkpt>
      <trkpt lat="46.11869" lon="6.42805">
        <ele>992</ele>
        <time>2012-05-10T11:23:34Z</time>
      </trkpt>
      <trkpt lat="46.11879" lon="6.42821">
        <ele>1001</ele>
        <time>2012-05-10T11:23:36Z</time>
      </trkpt>
      <trkpt lat="46.11884" lon="6.42843">
        <ele>1001</ele>
        <time>2012-05-10T11:23:38Z</time>
      </trkpt>
      <trkpt lat="46.11889" lon="6.42855">
        <ele>1001</ele>
        <time>2012-05-10T11:23:39Z</time>
      </trkpt>
      <trkpt lat="46.11894" lon="6.42868">
        <ele>1001</ele>
        <time>2012-05-10T11:23:40Z</time>
      </trkpt>
      <trkpt lat="46.11901" lon="6.42882">
        <ele>1001</ele>
        <time>2012-05-10T11:23:41Z</time>
      </trkpt>
      <trkpt lat="46.11909" lon="6.42896">
        <ele>1001</ele>
        <time>2012-05-10T11:23:42Z</time>
      </trkpt>
      <trkpt lat="46.11917" lon="6.42911">
        <ele>1001</ele>
        <time>2012-05-10T11:23:43Z</time>
      </trkpt>
      <trkpt lat="46.11926" lon="6.42928">
        <ele>1008</ele>
        <time>2012-05-10T11:23:44Z</time>
      </trkpt>
      <trkpt lat="46.11936" lon="6.42945">
        <ele>1008</ele>
        <time>2012-05-10T11:23:45Z</time>
      </trkpt>
      <trkpt lat="46.11946" lon="6.42962">
        <ele>1008</ele>
        <time>2012-05-10T11:23:46Z</time>
      </trkpt>
      <trkpt lat="46.11957" lon="6.42977">
        <ele>1013</ele>
        <time>2012-05-10T11:23:47Z</time>
      </trkpt>
      <trkpt lat="46.11967" lon="6.42993">
        <ele>1013</ele>
        <time>2012-05-10T11:23:48Z</time>
      </trkpt>
      <trkpt lat="46.11976" lon="6.43011">
        <ele>1013</ele>
        <time>2012-05-10T11:23:49Z</time>
      </trkpt>
      <trkpt lat="46.11985" lon="6.43026">
        <ele>1019</ele>
        <time>2012-05-10T11:23:50Z</time>
      </trkpt>
      <trkpt lat="46.11994" lon="6.43042">
        <ele>1019</ele>
        <time>2012-05-10T11:23:51Z</time>
      </trkpt>
      <trkpt lat="46.12002" lon="6.4306">
        <ele>1019</ele>
        <time>2012-05-10T11:23:52Z</time>
      </trkpt>
      <trkpt lat="46.12009" lon="6.43078">
        <ele>1019</ele>
        <time>2012-05-10T11:23:53Z</time>
      </trkpt>
      <trkpt lat="46.12016" lon="6.43097">
        <ele>1019</ele>
        <time>2012-05-10T11:23:54Z</time>
      </trkpt>
      <trkpt lat="46.12025" lon="6.43113">
        <ele>1019</ele>
        <time>2012-05-10T11:23:55Z</time>
      </trkpt>
      <trkpt lat="46.12032" lon="6.4313">
        <ele>1025</ele>
        <time>2012-05-10T11:23:56Z</time>
      </trkpt>
      <trkpt lat="46.12037" lon="6.43147">
        <ele>1025</ele>
        <time>2012-05-10T11:23:57Z</time>
      </trkpt>
      <trkpt lat="46.12044" lon="6.43163">
        <ele>1025</ele>
        <time>2012-05-10T11:23:58Z</time>
      </trkpt>
      <trkpt lat="46.1205" lon="6.43179">
        <ele>1025</ele>
        <time>2012-05-10T11:23:59Z</time>
      </trkpt>
      <trkpt lat="46.12055" lon="6.43195">
        <ele>1030</ele>
        <time>2012-05-10T11:24:00Z</time>
      </trkpt>
      <trkpt lat="46.12061" lon="6.43209">
        <ele>1030</ele>
        <time>2012-05-10T11:24:01Z</time>
      </trkpt>
      <trkpt lat="46.12066" lon="6.43225">
        <ele>1030</ele>
        <time>2012-05-10T11:24:02Z</time>
      </trkpt>
      <trkpt lat="46.12072" lon="6.4324">
        <ele>1030</ele>
        <time>2012-05-10T11:24:03Z</time>
      </trkpt>
      <trkpt lat="46.12079" lon="6.43251">
        <ele>1035</ele>
        <time>2012-05-10T11:24:04Z</time>
      </trkpt>
      <trkpt lat="46.1209" lon="6.43267">
        <ele>1035</ele>
        <time>2012-05-10T11:24:06Z</time>
      </trkpt>
      <trkpt lat="46.12098" lon="6.43275">
        <ele>1042</ele>
        <time>2012-05-10T11:24:07Z</time>
      </trkpt>
      <trkpt lat="46.12109" lon="6.43288">
        <ele>1042</ele>
        <time>2012-05-10T11:24:09Z</time>
      </trkpt>
      <trkpt lat="46.1212" lon="6.433">
        <ele>1042</ele>
        <time>2012-05-10T11:24:11Z</time>
      </trkpt>
      <trkpt lat="46.12134" lon="6.43312">
        <ele>1052</ele>
        <time>2012-05-10T11:24:13Z</time>
      </trkpt>
      <trkpt lat="46.12145" lon="6.43324">
        <ele>1052</ele>
        <time>2012-05-10T11:24:15Z</time>
      </trkpt>
      <trkpt lat="46.12155" lon="6.43335">
        <ele>1058</ele>
        <time>2012-05-10T11:24:17Z</time>
      </trkpt>
      <trkpt lat="46.12161" lon="6.43347">
        <ele>1058</ele>
        <time>2012-05-10T11:24:19Z</time>
      </trkpt>
      <trkpt lat="46.12165" lon="6.43364">
        <ele>1058</ele>
        <time>2012-05-10T11:24:21Z</time>
      </trkpt>
      <trkpt lat="46.12175" lon="6.43382">
        <ele>1058</ele>
        <time>2012-05-10T11:24:23Z</time>
      </trkpt>
      <trkpt lat="46.12184" lon="6.43401">
        <ele>1058</ele>
        <time>2012-05-10T11:24:25Z</time>
      </trkpt>
      <trkpt lat="46.12194" lon="6.43424">
        <ele>1058</ele>
        <time>2012-05-10T11:24:27Z</time>
      </trkpt>
      <trkpt lat="46.12199" lon="6.43435">
        <ele>1058</ele>
        <time>2012-05-10T11:24:28Z</time>
      </trkpt>
      <trkpt lat="46.12205" lon="6.43446">
        <ele>1058</ele>
        <time>2012-05-10T11:24:29Z</time>
      </trkpt>
      <trkpt lat="46.12214" lon="6.43465">
        <ele>1058</ele>
        <time>2012-05-10T11:24:31Z</time>
      </trkpt>
      <trkpt lat="46.12223" lon="6.43474">
        <ele>1066</ele>
        <time>2012-05-10T11:24:49Z</time>
      </trkpt>
      <trkpt lat="46.12232" lon="6.43482">
        <ele>1066</ele>
        <time>2012-05-10T11:24:51Z</time>
      </trkpt>
      <trkpt lat="46.12242" lon="6.43497">
        <ele>1066</ele>
        <time>2012-05-10T11:24:53Z</time>
      </trkpt>
      <trkpt lat="46.12252" lon="6.43514">
        <ele>1066</ele>
        <time>2012-05-10T11:24:55Z</time>
      </trkpt>
      <trkpt lat="46.12262" lon="6.43535">
        <ele>1066</ele>
        <time>2012-05-10T11:24:57Z</time>
      </trkpt>
      <trkpt lat="46.12266" lon="6.43548">
        <ele>1066</ele>
        <time>2012-05-10T11:24:58Z</time>
      </trkpt>
      <trkpt lat="46.12269" lon="6.43562">
        <ele>1066</ele>
        <time>2012-05-10T11:24:59Z</time>
      </trkpt>
      <trkpt lat="46.12273" lon="6.43576">
        <ele>1066</ele>
        <time>2012-05-10T11:25:00Z</time>
      </trkpt>
      <trkpt lat="46.12277" lon="6.43591">
        <ele>1066</ele>
        <time>2012-05-10T11:25:01Z</time>
      </trkpt>
      <trkpt lat="46.1228" lon="6.43607">
        <ele>1072</ele>
        <time>2012-05-10T11:25:02Z</time>
      </trkpt>
      <trkpt lat="46.12284" lon="6.43623">
        <ele>1072</ele>
        <time>2012-05-10T11:25:03Z</time>
      </trkpt>
      <trkpt lat="46.12287" lon="6.43638">
        <ele>1072</ele>
        <time>2012-05-10T11:25:04Z</time>
      </trkpt>
      <trkpt lat="46.12289" lon="6.43654">
        <ele>1072</ele>
        <time>2012-05-10T11:25:05Z</time>
      </trkpt>
      <trkpt lat="46.12293" lon="6.43668">
        <ele>1072</ele>
        <time>2012-05-10T11:25:06Z</time>
      </trkpt>
      <trkpt lat="46.12298" lon="6.43683">
        <ele>1072</ele>
        <time>2012-05-10T11:25:07Z</time>
      </trkpt>
      <trkpt lat="46.12303" lon="6.43698">
        <ele>1072</ele>
        <time>2012-05-10T11:25:08Z</time>
      </trkpt>
      <trkpt lat="46.12311" lon="6.43713">
        <ele>1078</ele>
        <time>2012-05-10T11:25:09Z</time>
      </trkpt>
      <trkpt lat="46.12318" lon="6.43727">
        <ele>1078</ele>
        <time>2012-05-10T11:25:10Z</time>
      </trkpt>
      <trkpt lat="46.12323" lon="6.43742">
        <ele>1078</ele>
        <time>2012-05-10T11:25:11Z</time>
      </trkpt>
      <trkpt lat="46.12327" lon="6.43759">
        <ele>1084</ele>
        <time>2012-05-10T11:25:12Z</time>
      </trkpt>
      <trkpt lat="46.12329" lon="6.43777">
        <ele>1084</ele>
        <time>2012-05-10T11:25:13Z</time>
      </trkpt>
      <trkpt lat="46.12333" lon="6.43797">
        <ele>1084</ele>
        <time>2012-05-10T11:25:14Z</time>
      </trkpt>
      <trkpt lat="46.12335" lon="6.43815">
        <ele>1084</ele>
        <time>2012-05-10T11:25:15Z</time>
      </trkpt>
      <trkpt lat="46.12339" lon="6.43831">
        <ele>1084</ele>
        <time>2012-05-10T11:25:16Z</time>
      </trkpt>
      <trkpt lat="46.12343" lon="6.43847">
        <ele>1084</ele>
        <time>2012-05-10T11:25:17Z</time>
      </trkpt>
      <trkpt lat="46.12348" lon="6.43863">
        <ele>1090</ele>
        <time>2012-05-10T11:25:18Z</time>
      </trkpt>
      <trkpt lat="46.12356" lon="6.43878">
        <ele>1090</ele>
        <time>2012-05-10T11:25:19Z</time>
      </trkpt>
      <trkpt lat="46.12363" lon="6.43894">
        <ele>1090</ele>
        <time>2012-05-10T11:25:20Z</time>
      </trkpt>
      <trkpt lat="46.12369" lon="6.43911">
        <ele>1095</ele>
        <time>2012-05-10T11:25:21Z</time>
      </trkpt>
      <trkpt lat="46.12375" lon="6.4393">
        <ele>1095</ele>
        <time>2012-05-10T11:25:22Z</time>
      </trkpt>
      <trkpt lat="46.12379" lon="6.43947">
        <ele>1095</ele>
        <time>2012-05-10T11:25:23Z</time>
      </trkpt>
      <trkpt lat="46.12385" lon="6.43965">
        <ele>1095</ele>
        <time>2012-05-10T11:25:24Z</time>
      </trkpt>
      <trkpt lat="46.1239" lon="6.43979">
        <ele>1095</ele>
        <time>2012-05-10T11:25:25Z</time>
      </trkpt>
      <trkpt lat="46.12395" lon="6.43991">
        <ele>1095</ele>
        <time>2012-05-10T11:25:26Z</time>
      </trkpt>
      <trkpt lat="46.12397" lon="6.44011">
        <ele>1101</ele>
        <time>2012-05-10T11:25:28Z</time>
      </trkpt>
      <trkpt lat="46.12393" lon="6.44031">
        <ele>1101</ele>
        <time>2012-05-10T11:25:30Z</time>
      </trkpt>
      <trkpt lat="46.12382" lon="6.44047">
        <ele>1101</ele>
        <time>2012-05-10T11:25:32Z</time>
      </trkpt>
      <trkpt lat="46.12368" lon="6.44064">
        <ele>1107</ele>
        <time>2012-05-10T11:25:34Z</time>
      </trkpt>
      <trkpt lat="46.12357" lon="6.44086">
        <ele>1107</ele>
        <time>2012-05-10T11:25:36Z</time>
      </trkpt>
      <trkpt lat="46.12352" lon="6.44099">
        <ele>1107</ele>
        <time>2012-05-10T11:25:37Z</time>
      </trkpt>
      <trkpt lat="46.12345" lon="6.44127">
        <ele>1107</ele>
        <time>2012-05-10T11:25:39Z</time>
      </trkpt>
      <trkpt lat="46.12351" lon="6.4415">
        <ele>1107</ele>
        <time>2012-05-10T11:25:41Z</time>
      </trkpt>
      <trkpt lat="46.12357" lon="6.44163">
        <ele>1107</ele>
        <time>2012-05-10T11:25:42Z</time>
      </trkpt>
      <trkpt lat="46.12362" lon="6.44178">
        <ele>1107</ele>
        <time>2012-05-10T11:25:43Z</time>
      </trkpt>
      <trkpt lat="46.12368" lon="6.4419">
        <ele>1107</ele>
        <time>2012-05-10T11:25:44Z</time>
      </trkpt>
      <trkpt lat="46.12377" lon="6.44211">
        <ele>1107</ele>
        <time>2012-05-10T11:25:46Z</time>
      </trkpt>
      <trkpt lat="46.12378" lon="6.44232">
        <ele>1107</ele>
        <time>2012-05-10T11:25:48Z</time>
      </trkpt>
      <trkpt lat="46.12377" lon="6.44257">
        <ele>1112</ele>
        <time>2012-05-10T11:25:50Z</time>
      </trkpt>
      <trkpt lat="46.12375" lon="6.4427">
        <ele>1112</ele>
        <time>2012-05-10T11:25:51Z</time>
      </trkpt>
      <trkpt lat="46.12371" lon="6.44293">
        <ele>1112</ele>
        <time>2012-05-10T11:25:53Z</time>
      </trkpt>
      <trkpt lat="46.12363" lon="6.4431">
        <ele>1120</ele>
        <time>2012-05-10T11:25:55Z</time>
      </trkpt>
      <trkpt lat="46.1235" lon="6.44321">
        <ele>1120</ele>
        <time>2012-05-10T11:25:57Z</time>
      </trkpt>
      <trkpt lat="46.12332" lon="6.44327">
        <ele>1126</ele>
        <time>2012-05-10T11:25:59Z</time>
      </trkpt>
      <trkpt lat="46.12321" lon="6.44328">
        <ele>1126</ele>
        <time>2012-05-10T11:26:00Z</time>
      </trkpt>
      <trkpt lat="46.12308" lon="6.44327">
        <ele>1126</ele>
        <time>2012-05-10T11:26:01Z</time>
      </trkpt>
      <trkpt lat="46.12297" lon="6.44327">
        <ele>1126</ele>
        <time>2012-05-10T11:26:02Z</time>
      </trkpt>
      <trkpt lat="46.12285" lon="6.44327">
        <ele>1126</ele>
        <time>2012-05-10T11:26:03Z</time>
      </trkpt>
      <trkpt lat="46.12273" lon="6.44326">
        <ele>1126</ele>
        <time>2012-05-10T11:26:04Z</time>
      </trkpt>
      <trkpt lat="46.12261" lon="6.44325">
        <ele>1132</ele>
        <time>2012-05-10T11:26:05Z</time>
      </trkpt>
      <trkpt lat="46.12249" lon="6.44325">
        <ele>1132</ele>
        <time>2012-05-10T11:26:06Z</time>
      </trkpt>
      <trkpt lat="46.12237" lon="6.44327">
        <ele>1132</ele>
        <time>2012-05-10T11:26:07Z</time>
      </trkpt>
      <trkpt lat="46.12225" lon="6.4433">
        <ele>1132</ele>
        <time>2012-05-10T11:26:08Z</time>
      </trkpt>
      <trkpt lat="46.12212" lon="6.44335">
        <ele>1137</ele>
        <time>2012-05-10T11:26:09Z</time>
      </trkpt>
      <trkpt lat="46.12199" lon="6.44341">
        <ele>1137</ele>
        <time>2012-05-10T11:26:10Z</time>
      </trkpt>
      <trkpt lat="46.12185" lon="6.44348">
        <ele>1137</ele>
        <time>2012-05-10T11:26:11Z</time>
      </trkpt>
      <trkpt lat="46.12172" lon="6.44356">
        <ele>1137</ele>
        <time>2012-05-10T11:26:12Z</time>
      </trkpt>
      <trkpt lat="46.12159" lon="6.44363">
        <ele>1137</ele>
        <time>2012-05-10T11:26:13Z</time>
      </trkpt>
      <trkpt lat="46.12144" lon="6.44373">
        <ele>1143</ele>
        <time>2012-05-10T11:26:14Z</time>
      </trkpt>
      <trkpt lat="46.1213" lon="6.44381">
        <ele>1143</ele>
        <time>2012-05-10T11:26:15Z</time>
      </trkpt>
      <trkpt lat="46.12115" lon="6.4439">
        <ele>1143</ele>
        <time>2012-05-10T11:26:16Z</time>
      </trkpt>
      <trkpt lat="46.12103" lon="6.44399">
        <ele>1143</ele>
        <time>2012-05-10T11:26:17Z</time>
      </trkpt>
      <trkpt lat="46.1209" lon="6.44408">
        <ele>1149</ele>
        <time>2012-05-10T11:26:18Z</time>
      </trkpt>
      <trkpt lat="46.12077" lon="6.44419">
        <ele>1149</ele>
        <time>2012-05-10T11:26:19Z</time>
      </trkpt>
      <trkpt lat="46.12065" lon="6.4443">
        <ele>1149</ele>
        <time>2012-05-10T11:26:20Z</time>
      </trkpt>
      <trkpt lat="46.12052" lon="6.44442">
        <ele>1149</ele>
        <time>2012-05-10T11:26:21Z</time>
      </trkpt>
      <trkpt lat="46.12039" lon="6.44456">
        <ele>1149</ele>
        <time>2012-05-10T11:26:22Z</time>
      </trkpt>
      <trkpt lat="46.12024" lon="6.44475">
        <ele>1155</ele>
        <time>2012-05-10T11:26:23Z</time>
      </trkpt>
      <trkpt lat="46.12012" lon="6.44489">
        <ele>1155</ele>
        <time>2012-05-10T11:26:24Z</time>
      </trkpt>
      <trkpt lat="46.11999" lon="6.44504">
        <ele>1155</ele>
        <time>2012-05-10T11:26:25Z</time>
      </trkpt>
      <trkpt lat="46.11989" lon="6.44513">
        <ele>1155</ele>
        <time>2012-05-10T11:26:26Z</time>
      </trkpt>
      <trkpt lat="46.1198" lon="6.44523">
        <ele>1155</ele>
        <time>2012-05-10T11:26:28Z</time>
      </trkpt>
      <trkpt lat="46.11977" lon="6.44539">
        <ele>1169</ele>
        <time>2012-05-10T11:26:38Z</time>
      </trkpt>
      <trkpt lat="46.11969" lon="6.44551">
        <ele>1169</ele>
        <time>2012-05-10T11:26:40Z</time>
      </trkpt>
      <trkpt lat="46.11957" lon="6.44563">
        <ele>1169</ele>
        <time>2012-05-10T11:26:42Z</time>
      </trkpt>
      <trkpt lat="46.11947" lon="6.44579">
        <ele>1169</ele>
        <time>2012-05-10T11:26:44Z</time>
      </trkpt>
      <trkpt lat="46.11941" lon="6.44597">
        <ele>1169</ele>
        <time>2012-05-10T11:26:46Z</time>
      </trkpt>
      <trkpt lat="46.11934" lon="6.44612">
        <ele>1162</ele>
        <time>2012-05-10T11:26:48Z</time>
      </trkpt>
      <trkpt lat="46.11927" lon="6.44632">
        <ele>1162</ele>
        <time>2012-05-10T11:26:50Z</time>
      </trkpt>
      <trkpt lat="46.11918" lon="6.44654">
        <ele>1157</ele>
        <time>2012-05-10T11:26:52Z</time>
      </trkpt>
      <trkpt lat="46.11912" lon="6.44677">
        <ele>1157</ele>
        <time>2012-05-10T11:26:54Z</time>
      </trkpt>
      <trkpt lat="46.11903" lon="6.44699">
        <ele>1148</ele>
        <time>2012-05-10T11:26:56Z</time>
      </trkpt>
      <trkpt lat="46.11892" lon="6.44721">
        <ele>1148</ele>
        <time>2012-05-10T11:26:58Z</time>
      </trkpt>
      <trkpt lat="46.11882" lon="6.44739">
        <ele>1141</ele>
        <time>2012-05-10T11:27:00Z</time>
      </trkpt>
      <trkpt lat="46.11874" lon="6.44758">
        <ele>1141</ele>
        <time>2012-05-10T11:27:02Z</time>
      </trkpt>
      <trkpt lat="46.11867" lon="6.44779">
        <ele>1135</ele>
        <time>2012-05-10T11:27:04Z</time>
      </trkpt>
      <trkpt lat="46.11863" lon="6.448">
        <ele>1135</ele>
        <time>2012-05-10T11:27:06Z</time>
      </trkpt>
      <trkpt lat="46.11858" lon="6.44822">
        <ele>1127</ele>
        <time>2012-05-10T11:27:08Z</time>
      </trkpt>
      <trkpt lat="46.11851" lon="6.44843">
        <ele>1127</ele>
        <time>2012-05-10T11:27:10Z</time>
      </trkpt>
      <trkpt lat="46.11842" lon="6.44861">
        <ele>1121</ele>
        <time>2012-05-10T11:27:12Z</time>
      </trkpt>
      <trkpt lat="46.11833" lon="6.44881">
        <ele>1121</ele>
        <time>2012-05-10T11:27:14Z</time>
      </trkpt>
      <trkpt lat="46.11825" lon="6.44897">
        <ele>1121</ele>
        <time>2012-05-10T11:27:16Z</time>
      </trkpt>
      <trkpt lat="46.11819" lon="6.44911">
        <ele>1121</ele>
        <time>2012-05-10T11:27:18Z</time>
      </trkpt>
      <trkpt lat="46.11814" lon="6.44924">
        <ele>1121</ele>
        <time>2012-05-10T11:27:20Z</time>
      </trkpt>
      <trkpt lat="46.11826" lon="6.44933">
        <ele>1121</ele>
        <time>2012-05-10T11:27:23Z</time>
      </trkpt>
      <trkpt lat="46.11845" lon="6.44928">
        <ele>1121</ele>
        <time>2012-05-10T11:27:26Z</time>
      </trkpt>
      <trkpt lat="46.11854" lon="6.44923">
        <ele>1121</ele>
        <time>2012-05-10T11:27:27Z</time>
      </trkpt>
      <trkpt lat="46.11867" lon="6.44915">
        <ele>1121</ele>
        <time>2012-05-10T11:27:29Z</time>
      </trkpt>
      <trkpt lat="46.11883" lon="6.44915">
        <ele>1121</ele>
        <time>2012-05-10T11:27:31Z</time>
      </trkpt>
      <trkpt lat="46.11899" lon="6.44914">
        <ele>1121</ele>
        <time>2012-05-10T11:27:33Z</time>
      </trkpt>
      <trkpt lat="46.11916" lon="6.44917">
        <ele>1121</ele>
        <time>2012-05-10T11:27:35Z</time>
      </trkpt>
      <trkpt lat="46.11926" lon="6.44917">
        <ele>1121</ele>
        <time>2012-05-10T11:27:36Z</time>
      </trkpt>
      <trkpt lat="46.11936" lon="6.44919">
        <ele>1115</ele>
        <time>2012-05-10T11:27:37Z</time>
      </trkpt>
      <trkpt lat="46.11945" lon="6.44918">
        <ele>1115</ele>
        <time>2012-05-10T11:27:38Z</time>
      </trkpt>
      <trkpt lat="46.11962" lon="6.44916">
        <ele>1115</ele>
        <time>2012-05-10T11:27:40Z</time>
      </trkpt>
      <trkpt lat="46.11975" lon="6.44914">
        <ele>1115</ele>
        <time>2012-05-10T11:27:42Z</time>
      </trkpt>
      <trkpt lat="46.11984" lon="6.44915">
        <ele>1109</ele>
        <time>2012-05-10T11:27:44Z</time>
      </trkpt>
      <trkpt lat="46.11991" lon="6.44903">
        <ele>1116</ele>
        <time>2012-05-10T11:27:54Z</time>
      </trkpt>
      <trkpt lat="46.12001" lon="6.449">
        <ele>1116</ele>
        <time>2012-05-10T11:27:56Z</time>
      </trkpt>
      <trkpt lat="46.12013" lon="6.44892">
        <ele>1116</ele>
        <time>2012-05-10T11:27:58Z</time>
      </trkpt>
      <trkpt lat="46.12026" lon="6.44888">
        <ele>1116</ele>
        <time>2012-05-10T11:28:00Z</time>
      </trkpt>
      <trkpt lat="46.12039" lon="6.4489">
        <ele>1116</ele>
        <time>2012-05-10T11:28:02Z</time>
      </trkpt>
      <trkpt lat="46.12057" lon="6.44887">
        <ele>1116</ele>
        <time>2012-05-10T11:28:04Z</time>
      </trkpt>
      <trkpt lat="46.12069" lon="6.44878">
        <ele>1116</ele>
        <time>2012-05-10T11:28:06Z</time>
      </trkpt>
      <trkpt lat="46.1208" lon="6.44875">
        <ele>1116</ele>
        <time>2012-05-10T11:28:08Z</time>
      </trkpt>
      <trkpt lat="46.12095" lon="6.44874">
        <ele>1111</ele>
        <time>2012-05-10T11:28:10Z</time>
      </trkpt>
      <trkpt lat="46.1211" lon="6.44873">
        <ele>1111</ele>
        <time>2012-05-10T11:28:12Z</time>
      </trkpt>
      <trkpt lat="46.12125" lon="6.44875">
        <ele>1094</ele>
        <time>2012-05-10T11:28:14Z</time>
      </trkpt>
      <trkpt lat="46.1214" lon="6.44874">
        <ele>1084</ele>
        <time>2012-05-10T11:28:16Z</time>
      </trkpt>
      <trkpt lat="46.12155" lon="6.44868">
        <ele>1077</ele>
        <time>2012-05-10T11:28:18Z</time>
      </trkpt>
      <trkpt lat="46.12169" lon="6.44862">
        <ele>1077</ele>
        <time>2012-05-10T11:28:20Z</time>
      </trkpt>
      <trkpt lat="46.1218" lon="6.44857">
        <ele>1077</ele>
        <time>2012-05-10T11:28:22Z</time>
      </trkpt>
      <trkpt lat="46.12193" lon="6.44853">
        <ele>1077</ele>
        <time>2012-05-10T11:28:24Z</time>
      </trkpt>
      <trkpt lat="46.12205" lon="6.44854">
        <ele>1069</ele>
        <time>2012-05-10T11:28:26Z</time>
      </trkpt>
      <trkpt lat="46.12216" lon="6.44852">
        <ele>1069</ele>
        <time>2012-05-10T11:28:30Z</time>
      </trkpt>
      <trkpt lat="46.12226" lon="6.44854">
        <ele>1056</ele>
        <time>2012-05-10T11:28:33Z</time>
      </trkpt>
      <trkpt lat="46.12237" lon="6.44856">
        <ele>1048</ele>
        <time>2012-05-10T11:28:36Z</time>
      </trkpt>
      <trkpt lat="46.12262" lon="6.44853">
        <ele>1042</ele>
        <time>2012-05-10T11:28:40Z</time>
      </trkpt>
      <trkpt lat="46.12277" lon="6.44857">
        <ele>1035</ele>
        <time>2012-05-10T11:28:42Z</time>
      </trkpt>
      <trkpt lat="46.12292" lon="6.44859">
        <ele>1024</ele>
        <time>2012-05-10T11:28:44Z</time>
      </trkpt>
      <trkpt lat="46.12307" lon="6.44862">
        <ele>1016</ele>
        <time>2012-05-10T11:28:46Z</time>
      </trkpt>
      <trkpt lat="46.12322" lon="6.44867">
        <ele>1010</ele>
        <time>2012-05-10T11:28:48Z</time>
      </trkpt>
      <trkpt lat="46.12335" lon="6.44871">
        <ele>1010</ele>
        <time>2012-05-10T11:28:50Z</time>
      </trkpt>
      <trkpt lat="46.12346" lon="6.44875">
        <ele>998</ele>
        <time>2012-05-10T11:28:52Z</time>
      </trkpt>
      <trkpt lat="46.12359" lon="6.44876">
        <ele>992</ele>
        <time>2012-05-10T11:28:54Z</time>
      </trkpt>
      <trkpt lat="46.12374" lon="6.44877">
        <ele>992</ele>
        <time>2012-05-10T11:28:56Z</time>
      </trkpt>
      <trkpt lat="46.12389" lon="6.44877">
        <ele>992</ele>
        <time>2012-05-10T11:28:58Z</time>
      </trkpt>
      <trkpt lat="46.12403" lon="6.44877">
        <ele>992</ele>
        <time>2012-05-10T11:29:00Z</time>
      </trkpt>
      <trkpt lat="46.12418" lon="6.44878">
        <ele>992</ele>
        <time>2012-05-10T11:29:02Z</time>
      </trkpt>
      <trkpt lat="46.12432" lon="6.44879">
        <ele>992</ele>
        <time>2012-05-10T11:29:04Z</time>
      </trkpt>
      <trkpt lat="46.12445" lon="6.44878">
        <ele>986</ele>
        <time>2012-05-10T11:29:06Z</time>
      </trkpt>
      <trkpt lat="46.12455" lon="6.44878">
        <ele>986</ele>
        <time>2012-05-10T11:29:08Z</time>
      </trkpt>
      <trkpt lat="46.12468" lon="6.4488">
        <ele>986</ele>
        <time>2012-05-10T11:29:10Z</time>
      </trkpt>
      <trkpt lat="46.12481" lon="6.44879">
        <ele>981</ele>
        <time>2012-05-10T11:29:12Z</time>
      </trkpt>
      <trkpt lat="46.12495" lon="6.4488">
        <ele>981</ele>
        <time>2012-05-10T11:29:14Z</time>
      </trkpt>
      <trkpt lat="46.12506" lon="6.4488">
        <ele>975</ele>
        <time>2012-05-10T11:29:16Z</time>
      </trkpt>
      <trkpt lat="46.12518" lon="6.44883">
        <ele>975</ele>
        <time>2012-05-10T11:29:18Z</time>
      </trkpt>
      <trkpt lat="46.12526" lon="6.44888">
        <ele>966</ele>
        <time>2012-05-10T11:29:20Z</time>
      </trkpt>
      <trkpt lat="46.12537" lon="6.44893">
        <ele>966</ele>
        <time>2012-05-10T11:29:22Z</time>
      </trkpt>
      <trkpt lat="46.12547" lon="6.44897">
        <ele>957</ele>
        <time>2012-05-10T11:29:24Z</time>
      </trkpt>
      <trkpt lat="46.12556" lon="6.44908">
        <ele>957</ele>
        <time>2012-05-10T11:29:26Z</time>
      </trkpt>
      <trkpt lat="46.12568" lon="6.44915">
        <ele>948</ele>
        <time>2012-05-10T11:29:28Z</time>
      </trkpt>
      <trkpt lat="46.12581" lon="6.44925">
        <ele>948</ele>
        <time>2012-05-10T11:29:30Z</time>
      </trkpt>
      <trkpt lat="46.12593" lon="6.44932">
        <ele>941</ele>
        <time>2012-05-10T11:29:32Z</time>
      </trkpt>
      <trkpt lat="46.12602" lon="6.44937">
        <ele>941</ele>
        <time>2012-05-10T11:29:40Z</time>
      </trkpt>
      <trkpt lat="46.12611" lon="6.44947">
        <ele>934</ele>
        <time>2012-05-10T11:29:43Z</time>
      </trkpt>
      <trkpt lat="46.1262" lon="6.44954">
        <ele>934</ele>
        <time>2012-05-10T11:29:45Z</time>
      </trkpt>
      <trkpt lat="46.12631" lon="6.44964">
        <ele>934</ele>
        <time>2012-05-10T11:29:47Z</time>
      </trkpt>
      <trkpt lat="46.12641" lon="6.44979">
        <ele>927</ele>
        <time>2012-05-10T11:29:49Z</time>
      </trkpt>
      <trkpt lat="46.1265" lon="6.44993">
        <ele>927</ele>
        <time>2012-05-10T11:29:51Z</time>
      </trkpt>
      <trkpt lat="46.12655" lon="6.45007">
        <ele>920</ele>
        <time>2012-05-10T11:29:53Z</time>
      </trkpt>
      <trkpt lat="46.12662" lon="6.45018">
        <ele>920</ele>
        <time>2012-05-10T11:29:55Z</time>
      </trkpt>
      <trkpt lat="46.12668" lon="6.4503">
        <ele>920</ele>
        <time>2012-05-10T11:29:57Z</time>
      </trkpt>
      <trkpt lat="46.12672" lon="6.45042">
        <ele>912</ele>
        <time>2012-05-10T11:29:59Z</time>
      </trkpt>
      <trkpt lat="46.1267" lon="6.45055">
        <ele>912</ele>
        <time>2012-05-10T11:30:01Z</time>
      </trkpt>
      <trkpt lat="46.12665" lon="6.45069">
        <ele>912</ele>
        <time>2012-05-10T11:30:03Z</time>
      </trkpt>
      <trkpt lat="46.12654" lon="6.45082">
        <ele>904</ele>
        <time>2012-05-10T11:30:05Z</time>
      </trkpt>
      <trkpt lat="46.12643" lon="6.45097">
        <ele>904</ele>
        <time>2012-05-10T11:30:07Z</time>
      </trkpt>
      <trkpt lat="46.12631" lon="6.45116">
        <ele>904</ele>
        <time>2012-05-10T11:30:09Z</time>
      </trkpt>
      <trkpt lat="46.12623" lon="6.45128">
        <ele>904</ele>
        <time>2012-05-10T11:30:11Z</time>
      </trkpt>
      <trkpt lat="46.12631" lon="6.45131">
        <ele>904</ele>
        <time>2012-05-10T11:30:21Z</time>
      </trkpt>
      <trkpt lat="46.1264" lon="6.45128">
        <ele>904</ele>
        <time>2012-05-10T11:30:25Z</time>
      </trkpt>
      <trkpt lat="46.12651" lon="6.45122">
        <ele>904</ele>
        <time>2012-05-10T11:30:28Z</time>
      </trkpt>
      <trkpt lat="46.12668" lon="6.45117">
        <ele>893</ele>
        <time>2012-05-10T11:30:31Z</time>
      </trkpt>
      <trkpt lat="46.12678" lon="6.45114">
        <ele>886</ele>
        <time>2012-05-10T11:30:33Z</time>
      </trkpt>
      <trkpt lat="46.12689" lon="6.45113">
        <ele>881</ele>
        <time>2012-05-10T11:30:35Z</time>
      </trkpt>
      <trkpt lat="46.12702" lon="6.45113">
        <ele>875</ele>
        <time>2012-05-10T11:30:37Z</time>
      </trkpt>
      <trkpt lat="46.12713" lon="6.45114">
        <ele>870</ele>
        <time>2012-05-10T11:30:40Z</time>
      </trkpt>
      <trkpt lat="46.12707" lon="6.45129">
        <ele>858</ele>
        <time>2012-05-10T11:30:48Z</time>
      </trkpt>
      <trkpt lat="46.12699" lon="6.45143">
        <ele>858</ele>
        <time>2012-05-10T11:30:51Z</time>
      </trkpt>
      <trkpt lat="46.12708" lon="6.45149">
        <ele>847</ele>
        <time>2012-05-10T11:30:57Z</time>
      </trkpt>
      <trkpt lat="46.12719" lon="6.45139">
        <ele>847</ele>
        <time>2012-05-10T11:31:00Z</time>
      </trkpt>
      <trkpt lat="46.12728" lon="6.45135">
        <ele>841</ele>
        <time>2012-05-10T11:31:02Z</time>
      </trkpt>
      <trkpt lat="46.1274" lon="6.45131">
        <ele>841</ele>
        <time>2012-05-10T11:31:04Z</time>
      </trkpt>
      <trkpt lat="46.12753" lon="6.45132">
        <ele>835</ele>
        <time>2012-05-10T11:31:06Z</time>
      </trkpt>
      <trkpt lat="46.12765" lon="6.45135">
        <ele>835</ele>
        <time>2012-05-10T11:31:08Z</time>
      </trkpt>
      <trkpt lat="46.12778" lon="6.45138">
        <ele>829</ele>
        <time>2012-05-10T11:31:10Z</time>
      </trkpt>
      <trkpt lat="46.12788" lon="6.4514">
        <ele>829</ele>
        <time>2012-05-10T11:31:12Z</time>
      </trkpt>
      <trkpt lat="46.12799" lon="6.45138">
        <ele>829</ele>
        <time>2012-05-10T11:31:14Z</time>
      </trkpt>
      <trkpt lat="46.1281" lon="6.45135">
        <ele>821</ele>
        <time>2012-05-10T11:31:16Z</time>
      </trkpt>
      <trkpt lat="46.12819" lon="6.45137">
        <ele>821</ele>
        <time>2012-05-10T11:31:18Z</time>
      </trkpt>
      <trkpt lat="46.12831" lon="6.4514">
        <ele>813</ele>
        <time>2012-05-10T11:31:20Z</time>
      </trkpt>
      <trkpt lat="46.12844" lon="6.45145">
        <ele>813</ele>
        <time>2012-05-10T11:31:22Z</time>
      </trkpt>
      <trkpt lat="46.12856" lon="6.45149">
        <ele>806</ele>
        <time>2012-05-10T11:31:24Z</time>
      </trkpt>
      <trkpt lat="46.12868" lon="6.45154">
        <ele>806</ele>
        <time>2012-05-10T11:31:26Z</time>
      </trkpt>
      <trkpt lat="46.1288" lon="6.45161">
        <ele>799</ele>
        <time>2012-05-10T11:31:28Z</time>
      </trkpt>
      <trkpt lat="46.12891" lon="6.45168">
        <ele>799</ele>
        <time>2012-05-10T11:31:30Z</time>
      </trkpt>
      <trkpt lat="46.129" lon="6.45175">
        <ele>791</ele>
        <time>2012-05-10T11:31:32Z</time>
      </trkpt>
      <trkpt lat="46.12907" lon="6.45184">
        <ele>791</ele>
        <time>2012-05-10T11:31:35Z</time>
      </trkpt>
      <trkpt lat="46.12897" lon="6.45192">
        <ele>781</ele>
        <time>2012-05-10T11:31:39Z</time>
      </trkpt>
      <trkpt lat="46.12884" lon="6.45189">
        <ele>781</ele>
        <time>2012-05-10T11:31:42Z</time>
      </trkpt>
      <trkpt lat="46.12874" lon="6.45189">
        <ele>781</ele>
        <time>2012-05-10T11:31:44Z</time>
      </trkpt>
      <trkpt lat="46.12863" lon="6.45191">
        <ele>776</ele>
        <time>2012-05-10T11:31:46Z</time>
      </trkpt>
      <trkpt lat="46.12854" lon="6.45193">
        <ele>776</ele>
        <time>2012-05-10T11:31:48Z</time>
      </trkpt>
      <trkpt lat="46.12844" lon="6.45195">
        <ele>771</ele>
        <time>2012-05-10T11:31:50Z</time>
      </trkpt>
      <trkpt lat="46.12834" lon="6.45194">
        <ele>771</ele>
        <time>2012-05-10T11:31:52Z</time>
      </trkpt>
      <trkpt lat="46.12824" lon="6.45193">
        <ele>771</ele>
        <time>2012-05-10T11:31:54Z</time>
      </trkpt>
      <trkpt lat="46.12827" lon="6.45208">
        <ele>771</ele>
        <time>2012-05-10T11:32:03Z</time>
      </trkpt>
      <trkpt lat="46.12836" lon="6.45211">
        <ele>771</ele>
        <time>2012-05-10T11:32:05Z</time>
      </trkpt>
      <trkpt lat="46.12848" lon="6.45216">
        <ele>762</ele>
        <time>2012-05-10T11:32:07Z</time>
      </trkpt>
      <trkpt lat="46.1286" lon="6.45221">
        <ele>762</ele>
        <time>2012-05-10T11:32:09Z</time>
      </trkpt>
      <trkpt lat="46.12871" lon="6.45228">
        <ele>762</ele>
        <time>2012-05-10T11:32:11Z</time>
      </trkpt>
      <trkpt lat="46.12879" lon="6.45233">
        <ele>754</ele>
        <time>2012-05-10T11:32:13Z</time>
      </trkpt>
      <trkpt lat="46.12889" lon="6.45242">
        <ele>754</ele>
        <time>2012-05-10T11:32:15Z</time>
      </trkpt>
      <trkpt lat="46.12898" lon="6.45251">
        <ele>749</ele>
        <time>2012-05-10T11:32:17Z</time>
      </trkpt>
      <trkpt lat="46.12908" lon="6.45256">
        <ele>749</ele>
        <time>2012-05-10T11:32:19Z</time>
      </trkpt>
      <trkpt lat="46.1292" lon="6.45261">
        <ele>749</ele>
        <time>2012-05-10T11:32:21Z</time>
      </trkpt>
      <trkpt lat="46.12931" lon="6.45264">
        <ele>741</ele>
        <time>2012-05-10T11:32:23Z</time>
      </trkpt>
      <trkpt lat="46.12942" lon="6.45268">
        <ele>741</ele>
        <time>2012-05-10T11:32:25Z</time>
      </trkpt>
      <trkpt lat="46.12957" lon="6.45271">
        <ele>736</ele>
        <time>2012-05-10T11:32:27Z</time>
      </trkpt>
      <trkpt lat="46.12971" lon="6.45272">
        <ele>736</ele>
        <time>2012-05-10T11:32:29Z</time>
      </trkpt>
      <trkpt lat="46.12986" lon="6.45268">
        <ele>736</ele>
        <time>2012-05-10T11:32:31Z</time>
      </trkpt>
      <trkpt lat="46.12999" lon="6.45261">
        <ele>728</ele>
        <time>2012-05-10T11:32:33Z</time>
      </trkpt>
      <trkpt lat="46.13007" lon="6.45252">
        <ele>728</ele>
        <time>2012-05-10T11:32:35Z</time>
      </trkpt>
      <trkpt lat="46.13009" lon="6.45231">
        <ele>714</ele>
        <time>2012-05-10T11:32:38Z</time>
      </trkpt>
      <trkpt lat="46.13007" lon="6.45213">
        <ele>714</ele>
        <time>2012-05-10T11:32:40Z</time>
      </trkpt>
      <trkpt lat="46.13003" lon="6.45195">
        <ele>708</ele>
        <time>2012-05-10T11:32:42Z</time>
      </trkpt>
      <trkpt lat="46.12999" lon="6.45173">
        <ele>708</ele>
        <time>2012-05-10T11:32:44Z</time>
      </trkpt>
      <trkpt lat="46.12996" lon="6.4516">
        <ele>708</ele>
        <time>2012-05-10T11:32:45Z</time>
      </trkpt>
      <trkpt lat="46.12994" lon="6.45146">
        <ele>708</ele>
        <time>2012-05-10T11:32:46Z</time>
      </trkpt>
      <trkpt lat="46.12992" lon="6.45122">
        <ele>699</ele>
        <time>2012-05-10T11:32:48Z</time>
      </trkpt>
      <trkpt lat="46.12992" lon="6.451">
        <ele>699</ele>
        <time>2012-05-10T11:32:50Z</time>
      </trkpt>
      <trkpt lat="46.12995" lon="6.45083">
        <ele>699</ele>
        <time>2012-05-10T11:32:52Z</time>
      </trkpt>
      <trkpt lat="46.13001" lon="6.4507">
        <ele>699</ele>
        <time>2012-05-10T11:32:54Z</time>
      </trkpt>
      <trkpt lat="46.13012" lon="6.45064">
        <ele>699</ele>
        <time>2012-05-10T11:32:56Z</time>
      </trkpt>
      <trkpt lat="46.13021" lon="6.45059">
        <ele>693</ele>
        <time>2012-05-10T11:32:58Z</time>
      </trkpt>
      <trkpt lat="46.1303" lon="6.45063">
        <ele>693</ele>
        <time>2012-05-10T11:33:00Z</time>
      </trkpt>
      <trkpt lat="46.13041" lon="6.45073">
        <ele>693</ele>
        <time>2012-05-10T11:33:02Z</time>
      </trkpt>
      <trkpt lat="46.13052" lon="6.45079">
        <ele>688</ele>
        <time>2012-05-10T11:33:05Z</time>
      </trkpt>
      <trkpt lat="46.13067" lon="6.45089">
        <ele>688</ele>
        <time>2012-05-10T11:33:08Z</time>
      </trkpt>
      <trkpt lat="46.13082" lon="6.45095">
        <ele>682</ele>
        <time>2012-05-10T11:33:10Z</time>
      </trkpt>
      <trkpt lat="46.13097" lon="6.45099">
        <ele>682</ele>
        <time>2012-05-10T11:33:12Z</time>
      </trkpt>
      <trkpt lat="46.13109" lon="6.45104">
        <ele>682</ele>
        <time>2012-05-10T11:33:14Z</time>
      </trkpt>
      <trkpt lat="46.13122" lon="6.45108">
        <ele>674</ele>
        <time>2012-05-10T11:33:16Z</time>
      </trkpt>
      <trkpt lat="46.13139" lon="6.45111">
        <ele>674</ele>
        <time>2012-05-10T11:33:18Z</time>
      </trkpt>
      <trkpt lat="46.13154" lon="6.45111">
        <ele>669</ele>
        <time>2012-05-10T11:33:20Z</time>
      </trkpt>
      <trkpt lat="46.13167" lon="6.45113">
        <ele>669</ele>
        <time>2012-05-10T11:33:22Z</time>
      </trkpt>
      <trkpt lat="46.13183" lon="6.45119">
        <ele>662</ele>
        <time>2012-05-10T11:33:24Z</time>
      </trkpt>
      <trkpt lat="46.13199" lon="6.45129">
        <ele>662</ele>
        <time>2012-05-10T11:33:26Z</time>
      </trkpt>
      <trkpt lat="46.13211" lon="6.45138">
        <ele>656</ele>
        <time>2012-05-10T11:33:28Z</time>
      </trkpt>
      <trkpt lat="46.13223" lon="6.45143">
        <ele>656</ele>
        <time>2012-05-10T11:33:30Z</time>
      </trkpt>
      <trkpt lat="46.13238" lon="6.4515">
        <ele>649</ele>
        <time>2012-05-10T11:33:32Z</time>
      </trkpt>
      <trkpt lat="46.13253" lon="6.4516">
        <ele>649</ele>
        <time>2012-05-10T11:33:34Z</time>
      </trkpt>
      <trkpt lat="46.13262" lon="6.45167">
        <ele>644</ele>
        <time>2012-05-10T11:33:35Z</time>
      </trkpt>
      <trkpt lat="46.13269" lon="6.45176">
        <ele>644</ele>
        <time>2012-05-10T11:33:36Z</time>
      </trkpt>
      <trkpt lat="46.13277" lon="6.45185">
        <ele>644</ele>
        <time>2012-05-10T11:33:37Z</time>
      </trkpt>
      <trkpt lat="46.13285" lon="6.45194">
        <ele>639</ele>
        <time>2012-05-10T11:33:38Z</time>
      </trkpt>
      <trkpt lat="46.13293" lon="6.45203">
        <ele>639</ele>
        <time>2012-05-10T11:33:39Z</time>
      </trkpt>
      <trkpt lat="46.133" lon="6.45212">
        <ele>639</ele>
        <time>2012-05-10T11:33:40Z</time>
      </trkpt>
      <trkpt lat="46.13308" lon="6.45221">
        <ele>633</ele>
        <time>2012-05-10T11:33:41Z</time>
      </trkpt>
      <trkpt lat="46.13316" lon="6.45229">
        <ele>633</ele>
        <time>2012-05-10T11:33:42Z</time>
      </trkpt>
      <trkpt lat="46.13324" lon="6.45237">
        <ele>633</ele>
        <time>2012-05-10T11:33:43Z</time>
      </trkpt>
      <trkpt lat="46.13333" lon="6.45246">
        <ele>628</ele>
        <time>2012-05-10T11:33:44Z</time>
      </trkpt>
      <trkpt lat="46.13342" lon="6.45253">
        <ele>628</ele>
        <time>2012-05-10T11:33:45Z</time>
      </trkpt>
      <trkpt lat="46.1335" lon="6.45259">
        <ele>628</ele>
        <time>2012-05-10T11:33:46Z</time>
      </trkpt>
      <trkpt lat="46.1336" lon="6.45265">
        <ele>623</ele>
        <time>2012-05-10T11:33:47Z</time>
      </trkpt>
      <trkpt lat="46.13368" lon="6.45272">
        <ele>623</ele>
        <time>2012-05-10T11:33:48Z</time>
      </trkpt>
      <trkpt lat="46.13377" lon="6.45279">
        <ele>623</ele>
        <time>2012-05-10T11:33:49Z</time>
      </trkpt>
      <trkpt lat="46.13385" lon="6.45286">
        <ele>623</ele>
        <time>2012-05-10T11:33:50Z</time>
      </trkpt>
      <trkpt lat="46.13394" lon="6.45294">
        <ele>617</ele>
        <time>2012-05-10T11:33:51Z</time>
      </trkpt>
      <trkpt lat="46.13402" lon="6.45301">
        <ele>617</ele>
        <time>2012-05-10T11:33:52Z</time>
      </trkpt>
      <trkpt lat="46.13419" lon="6.45312">
        <ele>617</ele>
        <time>2012-05-10T11:33:54Z</time>
      </trkpt>
      <trkpt lat="46.13428" lon="6.45316">
        <ele>611</ele>
        <time>2012-05-10T11:33:55Z</time>
      </trkpt>
      <trkpt lat="46.13443" lon="6.4532">
        <ele>611</ele>
        <time>2012-05-10T11:33:57Z</time>
      </trkpt>
      <trkpt lat="46.13454" lon="6.45323">
        <ele>611</ele>
        <time>2012-05-10T11:33:59Z</time>
      </trkpt>
      <trkpt lat="46.13463" lon="6.45323">
        <ele>604</ele>
        <time>2012-05-10T11:34:09Z</time>
      </trkpt>
      <trkpt lat="46.13477" lon="6.45327">
        <ele>604</ele>
        <time>2012-05-10T11:34:12Z</time>
      </trkpt>
      <trkpt lat="46.1349" lon="6.4533">
        <ele>604</ele>
        <time>2012-05-10T11:34:14Z</time>
      </trkpt>
      <trkpt lat="46.13505" lon="6.45334">
        <ele>604</ele>
        <time>2012-05-10T11:34:16Z</time>
      </trkpt>
      <trkpt lat="46.13515" lon="6.45337">
        <ele>599</ele>
        <time>2012-05-10T11:34:17Z</time>
      </trkpt>
      <trkpt lat="46.13524" lon="6.45342">
        <ele>599</ele>
        <time>2012-05-10T11:34:18Z</time>
      </trkpt>
      <trkpt lat="46.13533" lon="6.45345">
        <ele>599</ele>
        <time>2012-05-10T11:34:19Z</time>
      </trkpt>
      <trkpt lat="46.13542" lon="6.45349">
        <ele>599</ele>
        <time>2012-05-10T11:34:20Z</time>
      </trkpt>
      <trkpt lat="46.13551" lon="6.45352">
        <ele>599</ele>
        <time>2012-05-10T11:34:21Z</time>
      </trkpt>
      <trkpt lat="46.1356" lon="6.45356">
        <ele>599</ele>
        <time>2012-05-10T11:34:22Z</time>
      </trkpt>
      <trkpt lat="46.13576" lon="6.45362">
        <ele>592</ele>
        <time>2012-05-10T11:34:24Z</time>
      </trkpt>
      <trkpt lat="46.13589" lon="6.45367">
        <ele>592</ele>
        <time>2012-05-10T11:34:26Z</time>
      </trkpt>
      <trkpt lat="46.13601" lon="6.45372">
        <ele>592</ele>
        <time>2012-05-10T11:34:28Z</time>
      </trkpt>
      <trkpt lat="46.13614" lon="6.45378">
        <ele>592</ele>
        <time>2012-05-10T11:34:30Z</time>
      </trkpt>
      <trkpt lat="46.13629" lon="6.45384">
        <ele>592</ele>
        <time>2012-05-10T11:34:32Z</time>
      </trkpt>
      <trkpt lat="46.13638" lon="6.45387">
        <ele>587</ele>
        <time>2012-05-10T11:34:33Z</time>
      </trkpt>
      <trkpt lat="46.13653" lon="6.45395">
        <ele>587</ele>
        <time>2012-05-10T11:34:35Z</time>
      </trkpt>
      <trkpt lat="46.13667" lon="6.45399">
        <ele>587</ele>
        <time>2012-05-10T11:34:37Z</time>
      </trkpt>
      <trkpt lat="46.13681" lon="6.45398">
        <ele>587</ele>
        <time>2012-05-10T11:34:39Z</time>
      </trkpt>
      <trkpt lat="46.13698" lon="6.45394">
        <ele>587</ele>
        <time>2012-05-10T11:34:41Z</time>
      </trkpt>
      <trkpt lat="46.13712" lon="6.45386">
        <ele>587</ele>
        <time>2012-05-10T11:34:43Z</time>
      </trkpt>
      <trkpt lat="46.13723" lon="6.45378">
        <ele>587</ele>
        <time>2012-05-10T11:34:45Z</time>
      </trkpt>
      <trkpt lat="46.13731" lon="6.4537">
        <ele>582</ele>
        <time>2012-05-10T11:34:47Z</time>
      </trkpt>
      <trkpt lat="46.13737" lon="6.45357">
        <ele>582</ele>
        <time>2012-05-10T11:34:49Z</time>
      </trkpt>
      <trkpt lat="46.13742" lon="6.45335">
        <ele>582</ele>
        <time>2012-05-10T11:34:51Z</time>
      </trkpt>
      <trkpt lat="46.13744" lon="6.45311">
        <ele>582</ele>
        <time>2012-05-10T11:34:53Z</time>
      </trkpt>
      <trkpt lat="46.13746" lon="6.45293">
        <ele>582</ele>
        <time>2012-05-10T11:34:55Z</time>
      </trkpt>
      <trkpt lat="46.13759" lon="6.45287">
        <ele>582</ele>
        <time>2012-05-10T11:34:58Z</time>
      </trkpt>
      <trkpt lat="46.13771" lon="6.45299">
        <ele>582</ele>
        <time>2012-05-10T11:35:00Z</time>
      </trkpt>
      <trkpt lat="46.13777" lon="6.4531">
        <ele>582</ele>
        <time>2012-05-10T11:35:01Z</time>
      </trkpt>
      <trkpt lat="46.13782" lon="6.45323">
        <ele>582</ele>
        <time>2012-05-10T11:35:02Z</time>
      </trkpt>
      <trkpt lat="46.13787" lon="6.45336">
        <ele>582</ele>
        <time>2012-05-10T11:35:03Z</time>
      </trkpt>
      <trkpt lat="46.13792" lon="6.45351">
        <ele>582</ele>
        <time>2012-05-10T11:35:04Z</time>
      </trkpt>
      <trkpt lat="46.13797" lon="6.45366">
        <ele>582</ele>
        <time>2012-05-10T11:35:05Z</time>
      </trkpt>
      <trkpt lat="46.13802" lon="6.45381">
        <ele>582</ele>
        <time>2012-05-10T11:35:06Z</time>
      </trkpt>
      <trkpt lat="46.13807" lon="6.45396">
        <ele>582</ele>
        <time>2012-05-10T11:35:07Z</time>
      </trkpt>
      <trkpt lat="46.13813" lon="6.45413">
        <ele>582</ele>
        <time>2012-05-10T11:35:08Z</time>
      </trkpt>
      <trkpt lat="46.13819" lon="6.45429">
        <ele>582</ele>
        <time>2012-05-10T11:35:09Z</time>
      </trkpt>
      <trkpt lat="46.13824" lon="6.45446">
        <ele>582</ele>
        <time>2012-05-10T11:35:10Z</time>
      </trkpt>
      <trkpt lat="46.13829" lon="6.45463">
        <ele>582</ele>
        <time>2012-05-10T11:35:11Z</time>
      </trkpt>
      <trkpt lat="46.13834" lon="6.45481">
        <ele>582</ele>
        <time>2012-05-10T11:35:12Z</time>
      </trkpt>
      <trkpt lat="46.13839" lon="6.455">
        <ele>582</ele>
        <time>2012-05-10T11:35:13Z</time>
      </trkpt>
      <trkpt lat="46.13843" lon="6.45519">
        <ele>582</ele>
        <time>2012-05-10T11:35:14Z</time>
      </trkpt>
      <trkpt lat="46.13846" lon="6.45537">
        <ele>582</ele>
        <time>2012-05-10T11:35:15Z</time>
      </trkpt>
      <trkpt lat="46.13849" lon="6.45555">
        <ele>582</ele>
        <time>2012-05-10T11:35:16Z</time>
      </trkpt>
      <trkpt lat="46.13851" lon="6.45573">
        <ele>582</ele>
        <time>2012-05-10T11:35:17Z</time>
      </trkpt>
      <trkpt lat="46.13853" lon="6.4559">
        <ele>582</ele>
        <time>2012-05-10T11:35:18Z</time>
      </trkpt>
      <trkpt lat="46.13854" lon="6.45607">
        <ele>582</ele>
        <time>2012-05-10T11:35:19Z</time>
      </trkpt>
      <trkpt lat="46.13854" lon="6.45623">
        <ele>582</ele>
        <time>2012-05-10T11:35:20Z</time>
      </trkpt>
      <trkpt lat="46.13854" lon="6.45639">
        <ele>582</ele>
        <time>2012-05-10T11:35:21Z</time>
      </trkpt>
      <trkpt lat="46.13853" lon="6.45655">
        <ele>582</ele>
        <time>2012-05-10T11:35:22Z</time>
      </trkpt>
      <trkpt lat="46.13852" lon="6.45671">
        <ele>582</ele>
        <time>2012-05-10T11:35:23Z</time>
      </trkpt>
      <trkpt lat="46.13852" lon="6.45686">
        <ele>582</ele>
        <time>2012-05-10T11:35:24Z</time>
      </trkpt>
      <trkpt lat="46.13851" lon="6.45699">
        <ele>582</ele>
        <time>2012-05-10T11:35:25Z</time>
      </trkpt>
      <trkpt lat="46.13849" lon="6.45722">
        <ele>588</ele>
        <time>2012-05-10T11:35:27Z</time>
      </trkpt>
      <trkpt lat="46.13847" lon="6.45742">
        <ele>588</ele>
        <time>2012-05-10T11:35:29Z</time>
      </trkpt>
      <trkpt lat="46.13841" lon="6.45767">
        <ele>588</ele>
        <time>2012-05-10T11:35:31Z</time>
      </trkpt>
      <trkpt lat="46.13838" lon="6.45779">
        <ele>588</ele>
        <time>2012-05-10T11:35:32Z</time>
      </trkpt>
      <trkpt lat="46.13834" lon="6.45793">
        <ele>588</ele>
        <time>2012-05-10T11:35:33Z</time>
      </trkpt>
      <trkpt lat="46.13831" lon="6.45806">
        <ele>588</ele>
        <time>2012-05-10T11:35:34Z</time>
      </trkpt>
      <trkpt lat="46.13826" lon="6.45828">
        <ele>588</ele>
        <time>2012-05-10T11:35:36Z</time>
      </trkpt>
      <trkpt lat="46.13821" lon="6.45843">
        <ele>588</ele>
        <time>2012-05-10T11:35:38Z</time>
      </trkpt>
      <trkpt lat="46.13816" lon="6.45861">
        <ele>588</ele>
        <time>2012-05-10T11:35:40Z</time>
      </trkpt>
      <trkpt lat="46.13814" lon="6.45879">
        <ele>588</ele>
        <time>2012-05-10T11:35:42Z</time>
      </trkpt>
      <trkpt lat="46.13814" lon="6.45897">
        <ele>588</ele>
        <time>2012-05-10T11:35:44Z</time>
      </trkpt>
      <trkpt lat="46.13812" lon="6.45914">
        <ele>588</ele>
        <time>2012-05-10T11:35:46Z</time>
      </trkpt>
      <trkpt lat="46.13812" lon="6.45927">
        <ele>588</ele>
        <time>2012-05-10T11:35:48Z</time>
      </trkpt>
      <trkpt lat="46.13813" lon="6.45943">
        <ele>588</ele>
        <time>2012-05-10T11:35:51Z</time>
      </trkpt>
      <trkpt lat="46.13822" lon="6.45951">
        <ele>588</ele>
        <time>2012-05-10T11:35:55Z</time>
      </trkpt>
      <trkpt lat="46.13831" lon="6.45953">
        <ele>594</ele>
        <time>2012-05-10T11:35:57Z</time>
      </trkpt>
      <trkpt lat="46.13839" lon="6.4596">
        <ele>594</ele>
        <time>2012-05-10T11:35:59Z</time>
      </trkpt>
      <trkpt lat="46.13846" lon="6.45971">
        <ele>594</ele>
        <time>2012-05-10T11:36:01Z</time>
      </trkpt>
      <trkpt lat="46.13849" lon="6.4599">
        <ele>594</ele>
        <time>2012-05-10T11:36:03Z</time>
      </trkpt>
      <trkpt lat="46.13851" lon="6.46009">
        <ele>594</ele>
        <time>2012-05-10T11:36:05Z</time>
      </trkpt>
      <trkpt lat="46.13852" lon="6.4603">
        <ele>594</ele>
        <time>2012-05-10T11:36:07Z</time>
      </trkpt>
      <trkpt lat="46.13852" lon="6.46044">
        <ele>594</ele>
        <time>2012-05-10T11:36:08Z</time>
      </trkpt>
      <trkpt lat="46.13852" lon="6.4606">
        <ele>594</ele>
        <time>2012-05-10T11:36:09Z</time>
      </trkpt>
      <trkpt lat="46.13852" lon="6.46074">
        <ele>594</ele>
        <time>2012-05-10T11:36:10Z</time>
      </trkpt>
      <trkpt lat="46.13854" lon="6.46088">
        <ele>594</ele>
        <time>2012-05-10T11:36:11Z</time>
      </trkpt>
      <trkpt lat="46.13856" lon="6.46102">
        <ele>600</ele>
        <time>2012-05-10T11:36:12Z</time>
      </trkpt>
      <trkpt lat="46.13861" lon="6.46115">
        <ele>600</ele>
        <time>2012-05-10T11:36:13Z</time>
      </trkpt>
      <trkpt lat="46.13866" lon="6.46128">
        <ele>600</ele>
        <time>2012-05-10T11:36:14Z</time>
      </trkpt>
      <trkpt lat="46.13871" lon="6.46138">
        <ele>600</ele>
        <time>2012-05-10T11:36:15Z</time>
      </trkpt>
      <trkpt lat="46.13877" lon="6.4615">
        <ele>600</ele>
        <time>2012-05-10T11:36:16Z</time>
      </trkpt>
      <trkpt lat="46.13884" lon="6.46161">
        <ele>600</ele>
        <time>2012-05-10T11:36:17Z</time>
      </trkpt>
      <trkpt lat="46.1389" lon="6.46172">
        <ele>600</ele>
        <time>2012-05-10T11:36:18Z</time>
      </trkpt>
      <trkpt lat="46.13894" lon="6.46184">
        <ele>606</ele>
        <time>2012-05-10T11:36:19Z</time>
      </trkpt>
      <trkpt lat="46.139" lon="6.46197">
        <ele>606</ele>
        <time>2012-05-10T11:36:20Z</time>
      </trkpt>
      <trkpt lat="46.13905" lon="6.46209">
        <ele>606</ele>
        <time>2012-05-10T11:36:21Z</time>
      </trkpt>
      <trkpt lat="46.13913" lon="6.46219">
        <ele>606</ele>
        <time>2012-05-10T11:36:22Z</time>
      </trkpt>
      <trkpt lat="46.1392" lon="6.46229">
        <ele>606</ele>
        <time>2012-05-10T11:36:23Z</time>
      </trkpt>
      <trkpt lat="46.13926" lon="6.46239">
        <ele>606</ele>
        <time>2012-05-10T11:36:24Z</time>
      </trkpt>
      <trkpt lat="46.13934" lon="6.46245">
        <ele>606</ele>
        <time>2012-05-10T11:36:25Z</time>
      </trkpt>
      <trkpt lat="46.1395" lon="6.4626">
        <ele>611</ele>
        <time>2012-05-10T11:36:27Z</time>
      </trkpt>
      <trkpt lat="46.13958" lon="6.46267">
        <ele>611</ele>
        <time>2012-05-10T11:36:28Z</time>
      </trkpt>
      <trkpt lat="46.13971" lon="6.46281">
        <ele>611</ele>
        <time>2012-05-10T11:36:30Z</time>
      </trkpt>
      <trkpt lat="46.13981" lon="6.46288">
        <ele>620</ele>
        <time>2012-05-10T11:36:32Z</time>
      </trkpt>
      <trkpt lat="46.1399" lon="6.46299">
        <ele>620</ele>
        <time>2012-05-10T11:36:35Z</time>
      </trkpt>
      <trkpt lat="46.13999" lon="6.46309">
        <ele>626</ele>
        <time>2012-05-10T11:36:37Z</time>
      </trkpt>
      <trkpt lat="46.14005" lon="6.46324">
        <ele>626</ele>
        <time>2012-05-10T11:36:39Z</time>
      </trkpt>
      <trkpt lat="46.14009" lon="6.46343">
        <ele>626</ele>
        <time>2012-05-10T11:36:41Z</time>
      </trkpt>
      <trkpt lat="46.1401" lon="6.46363">
        <ele>626</ele>
        <time>2012-05-10T11:36:43Z</time>
      </trkpt>
      <trkpt lat="46.14013" lon="6.46381">
        <ele>626</ele>
        <time>2012-05-10T11:36:46Z</time>
      </trkpt>
      <trkpt lat="46.1402" lon="6.464">
        <ele>626</ele>
        <time>2012-05-10T11:36:48Z</time>
      </trkpt>
      <trkpt lat="46.14025" lon="6.46412">
        <ele>626</ele>
        <time>2012-05-10T11:36:49Z</time>
      </trkpt>
      <trkpt lat="46.14029" lon="6.46423">
        <ele>631</ele>
        <time>2012-05-10T11:36:50Z</time>
      </trkpt>
      <trkpt lat="46.14033" lon="6.46435">
        <ele>631</ele>
        <time>2012-05-10T11:36:51Z</time>
      </trkpt>
      <trkpt lat="46.14041" lon="6.46459">
        <ele>631</ele>
        <time>2012-05-10T11:36:53Z</time>
      </trkpt>
      <trkpt lat="46.14045" lon="6.46473">
        <ele>631</ele>
        <time>2012-05-10T11:36:54Z</time>
      </trkpt>
      <trkpt lat="46.14048" lon="6.46486">
        <ele>631</ele>
        <time>2012-05-10T11:36:55Z</time>
      </trkpt>
      <trkpt lat="46.14053" lon="6.465">
        <ele>637</ele>
        <time>2012-05-10T11:36:56Z</time>
      </trkpt>
      <trkpt lat="46.14057" lon="6.46513">
        <ele>637</ele>
        <time>2012-05-10T11:36:57Z</time>
      </trkpt>
      <trkpt lat="46.14061" lon="6.46527">
        <ele>637</ele>
        <time>2012-05-10T11:36:58Z</time>
      </trkpt>
      <trkpt lat="46.14067" lon="6.46539">
        <ele>637</ele>
        <time>2012-05-10T11:36:59Z</time>
      </trkpt>
      <trkpt lat="46.14072" lon="6.46552">
        <ele>637</ele>
        <time>2012-05-10T11:37:00Z</time>
      </trkpt>
      <trkpt lat="46.14078" lon="6.46565">
        <ele>637</ele>
        <time>2012-05-10T11:37:01Z</time>
      </trkpt>
      <trkpt lat="46.14083" lon="6.46579">
        <ele>637</ele>
        <time>2012-05-10T11:37:02Z</time>
      </trkpt>
      <trkpt lat="46.1409" lon="6.4659">
        <ele>637</ele>
        <time>2012-05-10T11:37:03Z</time>
      </trkpt>
      <trkpt lat="46.14095" lon="6.46602">
        <ele>637</ele>
        <time>2012-05-10T11:37:04Z</time>
      </trkpt>
      <trkpt lat="46.14101" lon="6.46613">
        <ele>643</ele>
        <time>2012-05-10T11:37:05Z</time>
      </trkpt>
      <trkpt lat="46.1411" lon="6.46632">
        <ele>643</ele>
        <time>2012-05-10T11:37:07Z</time>
      </trkpt>
      <trkpt lat="46.14119" lon="6.46645">
        <ele>643</ele>
        <time>2012-05-10T11:37:09Z</time>
      </trkpt>
      <trkpt lat="46.14132" lon="6.46654">
        <ele>643</ele>
        <time>2012-05-10T11:37:11Z</time>
      </trkpt>
      <trkpt lat="46.14143" lon="6.46659">
        <ele>649</ele>
        <time>2012-05-10T11:37:13Z</time>
      </trkpt>
      <trkpt lat="46.14157" lon="6.46668">
        <ele>649</ele>
        <time>2012-05-10T11:37:15Z</time>
      </trkpt>
      <trkpt lat="46.14165" lon="6.46675">
        <ele>649</ele>
        <time>2012-05-10T11:37:16Z</time>
      </trkpt>
      <trkpt lat="46.14175" lon="6.4668">
        <ele>649</ele>
        <time>2012-05-10T11:37:17Z</time>
      </trkpt>
      <trkpt lat="46.14186" lon="6.46687">
        <ele>649</ele>
        <time>2012-05-10T11:37:18Z</time>
      </trkpt>
      <trkpt lat="46.14197" lon="6.46695">
        <ele>649</ele>
        <time>2012-05-10T11:37:19Z</time>
      </trkpt>
      <trkpt lat="46.14209" lon="6.46704">
        <ele>649</ele>
        <time>2012-05-10T11:37:20Z</time>
      </trkpt>
      <trkpt lat="46.14221" lon="6.46712">
        <ele>649</ele>
        <time>2012-05-10T11:37:21Z</time>
      </trkpt>
      <trkpt lat="46.14233" lon="6.46721">
        <ele>644</ele>
        <time>2012-05-10T11:37:22Z</time>
      </trkpt>
      <trkpt lat="46.14244" lon="6.46733">
        <ele>644</ele>
        <time>2012-05-10T11:37:23Z</time>
      </trkpt>
      <trkpt lat="46.14255" lon="6.46745">
        <ele>644</ele>
        <time>2012-05-10T11:37:24Z</time>
      </trkpt>
      <trkpt lat="46.14266" lon="6.46758">
        <ele>644</ele>
        <time>2012-05-10T11:37:25Z</time>
      </trkpt>
      <trkpt lat="46.14277" lon="6.46772">
        <ele>644</ele>
        <time>2012-05-10T11:37:26Z</time>
      </trkpt>
      <trkpt lat="46.14288" lon="6.46785">
        <ele>644</ele>
        <time>2012-05-10T11:37:27Z</time>
      </trkpt>
      <trkpt lat="46.14298" lon="6.46798">
        <ele>644</ele>
        <time>2012-05-10T11:37:28Z</time>
      </trkpt>
      <trkpt lat="46.14309" lon="6.4681">
        <ele>639</ele>
        <time>2012-05-10T11:37:29Z</time>
      </trkpt>
      <trkpt lat="46.1432" lon="6.4682">
        <ele>639</ele>
        <time>2012-05-10T11:37:30Z</time>
      </trkpt>
      <trkpt lat="46.14331" lon="6.46827">
        <ele>639</ele>
        <time>2012-05-10T11:37:31Z</time>
      </trkpt>
      <trkpt lat="46.14342" lon="6.46834">
        <ele>639</ele>
        <time>2012-05-10T11:37:32Z</time>
      </trkpt>
      <trkpt lat="46.14353" lon="6.46838">
        <ele>639</ele>
        <time>2012-05-10T11:37:33Z</time>
      </trkpt>
      <trkpt lat="46.14364" lon="6.46841">
        <ele>639</ele>
        <time>2012-05-10T11:37:34Z</time>
      </trkpt>
      <trkpt lat="46.14376" lon="6.46843">
        <ele>639</ele>
        <time>2012-05-10T11:37:35Z</time>
      </trkpt>
      <trkpt lat="46.14388" lon="6.46844">
        <ele>639</ele>
        <time>2012-05-10T11:37:36Z</time>
      </trkpt>
      <trkpt lat="46.14401" lon="6.46845">
        <ele>639</ele>
        <time>2012-05-10T11:37:37Z</time>
      </trkpt>
      <trkpt lat="46.14413" lon="6.46845">
        <ele>639</ele>
        <time>2012-05-10T11:37:38Z</time>
      </trkpt>
      <trkpt lat="46.14426" lon="6.46845">
        <ele>639</ele>
        <time>2012-05-10T11:37:39Z</time>
      </trkpt>
      <trkpt lat="46.14438" lon="6.46845">
        <ele>639</ele>
        <time>2012-05-10T11:37:40Z</time>
      </trkpt>
      <trkpt lat="46.14451" lon="6.46845">
        <ele>639</ele>
        <time>2012-05-10T11:37:41Z</time>
      </trkpt>
      <trkpt lat="46.14462" lon="6.46845">
        <ele>639</ele>
        <time>2012-05-10T11:37:42Z</time>
      </trkpt>
      <trkpt lat="46.14473" lon="6.46846">
        <ele>639</ele>
        <time>2012-05-10T11:37:43Z</time>
      </trkpt>
      <trkpt lat="46.14483" lon="6.46846">
        <ele>639</ele>
        <time>2012-05-10T11:37:44Z</time>
      </trkpt>
      <trkpt lat="46.14499" lon="6.46844">
        <ele>639</ele>
        <time>2012-05-10T11:37:46Z</time>
      </trkpt>
      <trkpt lat="46.1451" lon="6.46841">
        <ele>639</ele>
        <time>2012-05-10T11:37:48Z</time>
      </trkpt>
      <trkpt lat="46.14519" lon="6.46845">
        <ele>639</ele>
        <time>2012-05-10T11:38:08Z</time>
      </trkpt>
      <trkpt lat="46.14531" lon="6.46844">
        <ele>639</ele>
        <time>2012-05-10T11:38:11Z</time>
      </trkpt>
      <trkpt lat="46.14542" lon="6.46833">
        <ele>639</ele>
        <time>2012-05-10T11:38:13Z</time>
      </trkpt>
      <trkpt lat="46.14555" lon="6.46818">
        <ele>639</ele>
        <time>2012-05-10T11:38:15Z</time>
      </trkpt>
      <trkpt lat="46.1457" lon="6.46801">
        <ele>639</ele>
        <time>2012-05-10T11:38:17Z</time>
      </trkpt>
      <trkpt lat="46.14578" lon="6.46792">
        <ele>639</ele>
        <time>2012-05-10T11:38:18Z</time>
      </trkpt>
      <trkpt lat="46.14585" lon="6.46783">
        <ele>639</ele>
        <time>2012-05-10T11:38:19Z</time>
      </trkpt>
      <trkpt lat="46.14594" lon="6.46774">
        <ele>639</ele>
        <time>2012-05-10T11:38:20Z</time>
      </trkpt>
      <trkpt lat="46.14605" lon="6.46756">
        <ele>639</ele>
        <time>2012-05-10T11:38:22Z</time>
      </trkpt>
      <trkpt lat="46.14614" lon="6.46739">
        <ele>639</ele>
        <time>2012-05-10T11:38:24Z</time>
      </trkpt>
      <trkpt lat="46.1462" lon="6.46726">
        <ele>639</ele>
        <time>2012-05-10T11:38:26Z</time>
      </trkpt>
      <trkpt lat="46.14632" lon="6.46724">
        <ele>644</ele>
        <time>2012-05-10T11:38:29Z</time>
      </trkpt>
      <trkpt lat="46.14643" lon="6.4673">
        <ele>644</ele>
        <time>2012-05-10T11:38:31Z</time>
      </trkpt>
      <trkpt lat="46.14654" lon="6.46734">
        <ele>644</ele>
        <time>2012-05-10T11:38:33Z</time>
      </trkpt>
      <trkpt lat="46.14667" lon="6.46735">
        <ele>644</ele>
        <time>2012-05-10T11:38:35Z</time>
      </trkpt>
      <trkpt lat="46.1468" lon="6.46739">
        <ele>644</ele>
        <time>2012-05-10T11:38:37Z</time>
      </trkpt>
      <trkpt lat="46.14695" lon="6.46748">
        <ele>644</ele>
        <time>2012-05-10T11:38:39Z</time>
      </trkpt>
      <trkpt lat="46.1471" lon="6.4676">
        <ele>644</ele>
        <time>2012-05-10T11:38:41Z</time>
      </trkpt>
      <trkpt lat="46.14718" lon="6.46767">
        <ele>644</ele>
        <time>2012-05-10T11:38:42Z</time>
      </trkpt>
      <trkpt lat="46.14733" lon="6.46779">
        <ele>644</ele>
        <time>2012-05-10T11:38:44Z</time>
      </trkpt>
      <trkpt lat="46.14749" lon="6.46789">
        <ele>644</ele>
        <time>2012-05-10T11:38:46Z</time>
      </trkpt>
      <trkpt lat="46.14758" lon="6.46792">
        <ele>644</ele>
        <time>2012-05-10T11:38:47Z</time>
      </trkpt>
      <trkpt lat="46.14767" lon="6.46796">
        <ele>644</ele>
        <time>2012-05-10T11:38:48Z</time>
      </trkpt>
      <trkpt lat="46.14776" lon="6.468">
        <ele>644</ele>
        <time>2012-05-10T11:38:49Z</time>
      </trkpt>
      <trkpt lat="46.14785" lon="6.46805">
        <ele>644</ele>
        <time>2012-05-10T11:38:50Z</time>
      </trkpt>
      <trkpt lat="46.14793" lon="6.46811">
        <ele>644</ele>
        <time>2012-05-10T11:38:51Z</time>
      </trkpt>
      <trkpt lat="46.14802" lon="6.46818">
        <ele>644</ele>
        <time>2012-05-10T11:38:52Z</time>
      </trkpt>
      <trkpt lat="46.1481" lon="6.46825">
        <ele>644</ele>
        <time>2012-05-10T11:38:53Z</time>
      </trkpt>
      <trkpt lat="46.14819" lon="6.46831">
        <ele>644</ele>
        <time>2012-05-10T11:38:54Z</time>
      </trkpt>
      <trkpt lat="46.14831" lon="6.46844">
        <ele>644</ele>
        <time>2012-05-10T11:38:56Z</time>
      </trkpt>
      <trkpt lat="46.14841" lon="6.46849">
        <ele>644</ele>
        <time>2012-05-10T11:38:58Z</time>
      </trkpt>
      <trkpt lat="46.1485" lon="6.46858">
        <ele>644</ele>
        <time>2012-05-10T11:39:02Z</time>
      </trkpt>
      <trkpt lat="46.14858" lon="6.46871">
        <ele>644</ele>
        <time>2012-05-10T11:39:04Z</time>
      </trkpt>
      <trkpt lat="46.1487" lon="6.46881">
        <ele>644</ele>
        <time>2012-05-10T11:39:06Z</time>
      </trkpt>
      <trkpt lat="46.1488" lon="6.46895">
        <ele>644</ele>
        <time>2012-05-10T11:39:08Z</time>
      </trkpt>
      <trkpt lat="46.14887" lon="6.46906">
        <ele>644</ele>
        <time>2012-05-10T11:39:10Z</time>
      </trkpt>
      <trkpt lat="46.14888" lon="6.46922">
        <ele>644</ele>
        <time>2012-05-10T11:39:17Z</time>
      </trkpt>
      <trkpt lat="46.14895" lon="6.46934">
        <ele>644</ele>
        <time>2012-05-10T11:39:20Z</time>
      </trkpt>
      <trkpt lat="46.14903" lon="6.46943">
        <ele>644</ele>
        <time>2012-05-10T11:39:22Z</time>
      </trkpt>
      <trkpt lat="46.14913" lon="6.46956">
        <ele>644</ele>
        <time>2012-05-10T11:39:24Z</time>
      </trkpt>
      <trkpt lat="46.14925" lon="6.46971">
        <ele>644</ele>
        <time>2012-05-10T11:39:26Z</time>
      </trkpt>
      <trkpt lat="46.14937" lon="6.46987">
        <ele>644</ele>
        <time>2012-05-10T11:39:28Z</time>
      </trkpt>
      <trkpt lat="46.14947" lon="6.47005">
        <ele>644</ele>
        <time>2012-05-10T11:39:30Z</time>
      </trkpt>
      <trkpt lat="46.14958" lon="6.4702">
        <ele>644</ele>
        <time>2012-05-10T11:39:32Z</time>
      </trkpt>
      <trkpt lat="46.14967" lon="6.4703">
        <ele>644</ele>
        <time>2012-05-10T11:39:35Z</time>
      </trkpt>
      <trkpt lat="46.14975" lon="6.47043">
        <ele>644</ele>
        <time>2012-05-10T11:39:43Z</time>
      </trkpt>
      <trkpt lat="46.14986" lon="6.47052">
        <ele>644</ele>
        <time>2012-05-10T11:39:45Z</time>
      </trkpt>
      <trkpt lat="46.14997" lon="6.47057">
        <ele>644</ele>
        <time>2012-05-10T11:39:47Z</time>
      </trkpt>
      <trkpt lat="46.15011" lon="6.47066">
        <ele>644</ele>
        <time>2012-05-10T11:39:49Z</time>
      </trkpt>
      <trkpt lat="46.15026" lon="6.47079">
        <ele>644</ele>
        <time>2012-05-10T11:39:51Z</time>
      </trkpt>
      <trkpt lat="46.15037" lon="6.47097">
        <ele>636</ele>
        <time>2012-05-10T11:39:53Z</time>
      </trkpt>
      <trkpt lat="46.15047" lon="6.47115">
        <ele>636</ele>
        <time>2012-05-10T11:39:55Z</time>
      </trkpt>
      <trkpt lat="46.15056" lon="6.47137">
        <ele>631</ele>
        <time>2012-05-10T11:39:57Z</time>
      </trkpt>
      <trkpt lat="46.1506" lon="6.4715">
        <ele>631</ele>
        <time>2012-05-10T11:39:58Z</time>
      </trkpt>
      <trkpt lat="46.15064" lon="6.47174">
        <ele>631</ele>
        <time>2012-05-10T11:40:00Z</time>
      </trkpt>
      <trkpt lat="46.15072" lon="6.47199">
        <ele>631</ele>
        <time>2012-05-10T11:40:02Z</time>
      </trkpt>
      <trkpt lat="46.15076" lon="6.47212">
        <ele>631</ele>
        <time>2012-05-10T11:40:03Z</time>
      </trkpt>
      <trkpt lat="46.1508" lon="6.47225">
        <ele>625</ele>
        <time>2012-05-10T11:40:04Z</time>
      </trkpt>
      <trkpt lat="46.15084" lon="6.47236">
        <ele>625</ele>
        <time>2012-05-10T11:40:05Z</time>
      </trkpt>
      <trkpt lat="46.1509" lon="6.47248">
        <ele>625</ele>
        <time>2012-05-10T11:40:06Z</time>
      </trkpt>
      <trkpt lat="46.15096" lon="6.47258">
        <ele>625</ele>
        <time>2012-05-10T11:40:07Z</time>
      </trkpt>
      <trkpt lat="46.15107" lon="6.47276">
        <ele>619</ele>
        <time>2012-05-10T11:40:09Z</time>
      </trkpt>
      <trkpt lat="46.15119" lon="6.47287">
        <ele>619</ele>
        <time>2012-05-10T11:40:11Z</time>
      </trkpt>
      <trkpt lat="46.15131" lon="6.47303">
        <ele>619</ele>
        <time>2012-05-10T11:40:13Z</time>
      </trkpt>
      <trkpt lat="46.15139" lon="6.47309">
        <ele>619</ele>
        <time>2012-05-10T11:40:14Z</time>
      </trkpt>
      <trkpt lat="46.1515" lon="6.47313">
        <ele>613</ele>
        <time>2012-05-10T11:40:15Z</time>
      </trkpt>
      <trkpt lat="46.15162" lon="6.47313">
        <ele>613</ele>
        <time>2012-05-10T11:40:16Z</time>
      </trkpt>
      <trkpt lat="46.15173" lon="6.47315">
        <ele>613</ele>
        <time>2012-05-10T11:40:17Z</time>
      </trkpt>
      <trkpt lat="46.1519" lon="6.47316">
        <ele>605</ele>
        <time>2012-05-10T11:40:19Z</time>
      </trkpt>
      <trkpt lat="46.15205" lon="6.47321">
        <ele>605</ele>
        <time>2012-05-10T11:40:21Z</time>
      </trkpt>
      <trkpt lat="46.15218" lon="6.47331">
        <ele>605</ele>
        <time>2012-05-10T11:40:23Z</time>
      </trkpt>
      <trkpt lat="46.15232" lon="6.4734">
        <ele>605</ele>
        <time>2012-05-10T11:40:25Z</time>
      </trkpt>
      <trkpt lat="46.15245" lon="6.47357">
        <ele>605</ele>
        <time>2012-05-10T11:40:27Z</time>
      </trkpt>
      <trkpt lat="46.15252" lon="6.47365">
        <ele>605</ele>
        <time>2012-05-10T11:40:28Z</time>
      </trkpt>
      <trkpt lat="46.15262" lon="6.47381">
        <ele>605</ele>
        <time>2012-05-10T11:40:30Z</time>
      </trkpt>
      <trkpt lat="46.1527" lon="6.47393">
        <ele>605</ele>
        <time>2012-05-10T11:40:32Z</time>
      </trkpt>
      <trkpt lat="46.15279" lon="6.4741">
        <ele>605</ele>
        <time>2012-05-10T11:40:34Z</time>
      </trkpt>
      <trkpt lat="46.15287" lon="6.47424">
        <ele>605</ele>
        <time>2012-05-10T11:40:36Z</time>
      </trkpt>
      <trkpt lat="46.1529" lon="6.47445">
        <ele>605</ele>
        <time>2012-05-10T11:40:38Z</time>
      </trkpt>
      <trkpt lat="46.15293" lon="6.47457">
        <ele>605</ele>
        <time>2012-05-10T11:40:39Z</time>
      </trkpt>
      <trkpt lat="46.15298" lon="6.4747">
        <ele>605</ele>
        <time>2012-05-10T11:40:40Z</time>
      </trkpt>
      <trkpt lat="46.15306" lon="6.47481">
        <ele>605</ele>
        <time>2012-05-10T11:40:41Z</time>
      </trkpt>
      <trkpt lat="46.15313" lon="6.47492">
        <ele>605</ele>
        <time>2012-05-10T11:40:42Z</time>
      </trkpt>
      <trkpt lat="46.15322" lon="6.47502">
        <ele>605</ele>
        <time>2012-05-10T11:40:43Z</time>
      </trkpt>
      <trkpt lat="46.15333" lon="6.4752">
        <ele>605</ele>
        <time>2012-05-10T11:40:45Z</time>
      </trkpt>
      <trkpt lat="46.15343" lon="6.47537">
        <ele>605</ele>
        <time>2012-05-10T11:40:47Z</time>
      </trkpt>
      <trkpt lat="46.15358" lon="6.47553">
        <ele>605</ele>
        <time>2012-05-10T11:40:49Z</time>
      </trkpt>
      <trkpt lat="46.15367" lon="6.47561">
        <ele>605</ele>
        <time>2012-05-10T11:40:50Z</time>
      </trkpt>
      <trkpt lat="46.15375" lon="6.47569">
        <ele>605</ele>
        <time>2012-05-10T11:40:51Z</time>
      </trkpt>
      <trkpt lat="46.15383" lon="6.47577">
        <ele>605</ele>
        <time>2012-05-10T11:40:52Z</time>
      </trkpt>
      <trkpt lat="46.15398" lon="6.47591">
        <ele>605</ele>
        <time>2012-05-10T11:40:54Z</time>
      </trkpt>
      <trkpt lat="46.15406" lon="6.47598">
        <ele>605</ele>
        <time>2012-05-10T11:40:55Z</time>
      </trkpt>
      <trkpt lat="46.15422" lon="6.47609">
        <ele>605</ele>
        <time>2012-05-10T11:40:57Z</time>
      </trkpt>
      <trkpt lat="46.15434" lon="6.47621">
        <ele>605</ele>
        <time>2012-05-10T11:40:59Z</time>
      </trkpt>
      <trkpt lat="46.15444" lon="6.47629">
        <ele>605</ele>
        <time>2012-05-10T11:41:01Z</time>
      </trkpt>
      <trkpt lat="46.15453" lon="6.47635">
        <ele>605</ele>
        <time>2012-05-10T11:41:03Z</time>
      </trkpt>
      <trkpt lat="46.15461" lon="6.47643">
        <ele>614</ele>
        <time>2012-05-10T11:41:07Z</time>
      </trkpt>
      <trkpt lat="46.15456" lon="6.47658">
        <ele>614</ele>
        <time>2012-05-10T11:41:10Z</time>
      </trkpt>
      <trkpt lat="46.1546" lon="6.4767">
        <ele>635</ele>
        <time>2012-05-10T11:41:29Z</time>
      </trkpt>
      <trkpt lat="46.15471" lon="6.47677">
        <ele>635</ele>
        <time>2012-05-10T11:41:31Z</time>
      </trkpt>
      <trkpt lat="46.15485" lon="6.47683">
        <ele>635</ele>
        <time>2012-05-10T11:41:33Z</time>
      </trkpt>
      <trkpt lat="46.15495" lon="6.47687">
        <ele>635</ele>
        <time>2012-05-10T11:41:35Z</time>
      </trkpt>
      <trkpt lat="46.15504" lon="6.4769">
        <ele>630</ele>
        <time>2012-05-10T11:41:37Z</time>
      </trkpt>
      <trkpt lat="46.15515" lon="6.47694">
        <ele>630</ele>
        <time>2012-05-10T11:41:40Z</time>
      </trkpt>
      <trkpt lat="46.15528" lon="6.477">
        <ele>630</ele>
        <time>2012-05-10T11:41:43Z</time>
      </trkpt>
      <trkpt lat="46.15539" lon="6.47701">
        <ele>630</ele>
        <time>2012-05-10T11:41:45Z</time>
      </trkpt>
      <trkpt lat="46.15549" lon="6.47705">
        <ele>630</ele>
        <time>2012-05-10T11:41:48Z</time>
      </trkpt>
      <trkpt lat="46.15541" lon="6.47716">
        <ele>641</ele>
        <time>2012-05-10T11:41:53Z</time>
      </trkpt>
      <trkpt lat="46.15531" lon="6.47722">
        <ele>641</ele>
        <time>2012-05-10T11:41:55Z</time>
      </trkpt>
      <trkpt lat="46.15516" lon="6.47728">
        <ele>646</ele>
        <time>2012-05-10T11:41:57Z</time>
      </trkpt>
      <trkpt lat="46.15503" lon="6.47736">
        <ele>646</ele>
        <time>2012-05-10T11:41:59Z</time>
      </trkpt>
      <trkpt lat="46.15489" lon="6.47744">
        <ele>646</ele>
        <time>2012-05-10T11:42:01Z</time>
      </trkpt>
      <trkpt lat="46.15475" lon="6.47748">
        <ele>646</ele>
        <time>2012-05-10T11:42:03Z</time>
      </trkpt>
      <trkpt lat="46.15465" lon="6.47755">
        <ele>646</ele>
        <time>2012-05-10T11:42:05Z</time>
      </trkpt>
      <trkpt lat="46.15455" lon="6.47766">
        <ele>646</ele>
        <time>2012-05-10T11:42:07Z</time>
      </trkpt>
      <trkpt lat="46.15446" lon="6.47781">
        <ele>657</ele>
        <time>2012-05-10T11:42:09Z</time>
      </trkpt>
      <trkpt lat="46.15437" lon="6.47797">
        <ele>657</ele>
        <time>2012-05-10T11:42:11Z</time>
      </trkpt>
      <trkpt lat="46.15431" lon="6.47808">
        <ele>669</ele>
        <time>2012-05-10T11:42:13Z</time>
      </trkpt>
      <trkpt lat="46.15422" lon="6.47819">
        <ele>669</ele>
        <time>2012-05-10T11:42:15Z</time>
      </trkpt>
      <trkpt lat="46.15412" lon="6.47834">
        <ele>669</ele>
        <time>2012-05-10T11:42:17Z</time>
      </trkpt>
      <trkpt lat="46.15402" lon="6.47847">
        <ele>669</ele>
        <time>2012-05-10T11:42:19Z</time>
      </trkpt>
      <trkpt lat="46.15393" lon="6.47851">
        <ele>676</ele>
        <time>2012-05-10T11:42:21Z</time>
      </trkpt>
      <trkpt lat="46.15383" lon="6.47861">
        <ele>676</ele>
        <time>2012-05-10T11:42:23Z</time>
      </trkpt>
      <trkpt lat="46.15369" lon="6.47878">
        <ele>676</ele>
        <time>2012-05-10T11:42:25Z</time>
      </trkpt>
      <trkpt lat="46.15357" lon="6.47892">
        <ele>676</ele>
        <time>2012-05-10T11:42:27Z</time>
      </trkpt>
      <trkpt lat="46.15348" lon="6.47905">
        <ele>671</ele>
        <time>2012-05-10T11:42:29Z</time>
      </trkpt>
      <trkpt lat="46.15339" lon="6.47917">
        <ele>671</ele>
        <time>2012-05-10T11:42:31Z</time>
      </trkpt>
      <trkpt lat="46.15328" lon="6.47924">
        <ele>676</ele>
        <time>2012-05-10T11:42:33Z</time>
      </trkpt>
      <trkpt lat="46.1532" lon="6.47929">
        <ele>683</ele>
        <time>2012-05-10T11:42:35Z</time>
      </trkpt>
      <trkpt lat="46.15315" lon="6.47944">
        <ele>693</ele>
        <time>2012-05-10T11:42:38Z</time>
      </trkpt>
      <trkpt lat="46.15313" lon="6.47958">
        <ele>693</ele>
        <time>2012-05-10T11:42:40Z</time>
      </trkpt>
      <trkpt lat="46.15308" lon="6.4798">
        <ele>693</ele>
        <time>2012-05-10T11:42:42Z</time>
      </trkpt>
      <trkpt lat="46.15303" lon="6.47995">
        <ele>693</ele>
        <time>2012-05-10T11:42:43Z</time>
      </trkpt>
      <trkpt lat="46.153" lon="6.48009">
        <ele>693</ele>
        <time>2012-05-10T11:42:44Z</time>
      </trkpt>
      <trkpt lat="46.15298" lon="6.48034">
        <ele>693</ele>
        <time>2012-05-10T11:42:46Z</time>
      </trkpt>
      <trkpt lat="46.15298" lon="6.48049">
        <ele>693</ele>
        <time>2012-05-10T11:42:47Z</time>
      </trkpt>
      <trkpt lat="46.15297" lon="6.48064">
        <ele>693</ele>
        <time>2012-05-10T11:42:48Z</time>
      </trkpt>
      <trkpt lat="46.15295" lon="6.48092">
        <ele>687</ele>
        <time>2012-05-10T11:42:50Z</time>
      </trkpt>
      <trkpt lat="46.15296" lon="6.48106">
        <ele>687</ele>
        <time>2012-05-10T11:42:51Z</time>
      </trkpt>
      <trkpt lat="46.15302" lon="6.48126">
        <ele>687</ele>
        <time>2012-05-10T11:42:53Z</time>
      </trkpt>
      <trkpt lat="46.15307" lon="6.48142">
        <ele>687</ele>
        <time>2012-05-10T11:42:55Z</time>
      </trkpt>
      <trkpt lat="46.15308" lon="6.48161">
        <ele>687</ele>
        <time>2012-05-10T11:42:57Z</time>
      </trkpt>
      <trkpt lat="46.15308" lon="6.48181">
        <ele>687</ele>
        <time>2012-05-10T11:42:59Z</time>
      </trkpt>
      <trkpt lat="46.15307" lon="6.482">
        <ele>682</ele>
        <time>2012-05-10T11:43:01Z</time>
      </trkpt>
      <trkpt lat="46.15307" lon="6.48214">
        <ele>682</ele>
        <time>2012-05-10T11:43:03Z</time>
      </trkpt>
      <trkpt lat="46.15305" lon="6.48231">
        <ele>682</ele>
        <time>2012-05-10T11:43:05Z</time>
      </trkpt>
      <trkpt lat="46.15302" lon="6.48258">
        <ele>682</ele>
        <time>2012-05-10T11:43:07Z</time>
      </trkpt>
      <trkpt lat="46.15301" lon="6.48272">
        <ele>682</ele>
        <time>2012-05-10T11:43:08Z</time>
      </trkpt>
      <trkpt lat="46.153" lon="6.48295">
        <ele>682</ele>
        <time>2012-05-10T11:43:10Z</time>
      </trkpt>
      <trkpt lat="46.15297" lon="6.48318">
        <ele>682</ele>
        <time>2012-05-10T11:43:12Z</time>
      </trkpt>
      <trkpt lat="46.15291" lon="6.4834">
        <ele>682</ele>
        <time>2012-05-10T11:43:14Z</time>
      </trkpt>
      <trkpt lat="46.15288" lon="6.48365">
        <ele>682</ele>
        <time>2012-05-10T11:43:16Z</time>
      </trkpt>
      <trkpt lat="46.15284" lon="6.48392">
        <ele>689</ele>
        <time>2012-05-10T11:43:18Z</time>
      </trkpt>
      <trkpt lat="46.15282" lon="6.48408">
        <ele>689</ele>
        <time>2012-05-10T11:43:19Z</time>
      </trkpt>
      <trkpt lat="46.15278" lon="6.48426">
        <ele>689</ele>
        <time>2012-05-10T11:43:20Z</time>
      </trkpt>
      <trkpt lat="46.15274" lon="6.48447">
        <ele>689</ele>
        <time>2012-05-10T11:43:21Z</time>
      </trkpt>
      <trkpt lat="46.15274" lon="6.48476">
        <ele>694</ele>
        <time>2012-05-10T11:43:23Z</time>
      </trkpt>
      <trkpt lat="46.15275" lon="6.48497">
        <ele>694</ele>
        <time>2012-05-10T11:43:25Z</time>
      </trkpt>
      <trkpt lat="46.15275" lon="6.4851">
        <ele>694</ele>
        <time>2012-05-10T11:43:27Z</time>
      </trkpt>
      <trkpt lat="46.15274" lon="6.48524">
        <ele>694</ele>
        <time>2012-05-10T11:43:29Z</time>
      </trkpt>
      <trkpt lat="46.15275" lon="6.48539">
        <ele>694</ele>
        <time>2012-05-10T11:43:31Z</time>
      </trkpt>
      <trkpt lat="46.15281" lon="6.48559">
        <ele>694</ele>
        <time>2012-05-10T11:43:33Z</time>
      </trkpt>
      <trkpt lat="46.15283" lon="6.48585">
        <ele>694</ele>
        <time>2012-05-10T11:43:35Z</time>
      </trkpt>
      <trkpt lat="46.15283" lon="6.48598">
        <ele>694</ele>
        <time>2012-05-10T11:43:36Z</time>
      </trkpt>
      <trkpt lat="46.15287" lon="6.48622">
        <ele>694</ele>
        <time>2012-05-10T11:43:38Z</time>
      </trkpt>
      <trkpt lat="46.15288" lon="6.48646">
        <ele>700</ele>
        <time>2012-05-10T11:43:40Z</time>
      </trkpt>
      <trkpt lat="46.15292" lon="6.48669">
        <ele>700</ele>
        <time>2012-05-10T11:43:42Z</time>
      </trkpt>
      <trkpt lat="46.15298" lon="6.48689">
        <ele>700</ele>
        <time>2012-05-10T11:43:44Z</time>
      </trkpt>
      <trkpt lat="46.15307" lon="6.48705">
        <ele>708</ele>
        <time>2012-05-10T11:43:46Z</time>
      </trkpt>
      <trkpt lat="46.15305" lon="6.4872">
        <ele>708</ele>
        <time>2012-05-10T11:43:49Z</time>
      </trkpt>
      <trkpt lat="46.15297" lon="6.48731">
        <ele>708</ele>
        <time>2012-05-10T11:43:52Z</time>
      </trkpt>
      <trkpt lat="46.15288" lon="6.48743">
        <ele>715</ele>
        <time>2012-05-10T11:43:55Z</time>
      </trkpt>
      <trkpt lat="46.15281" lon="6.48753">
        <ele>715</ele>
        <time>2012-05-10T11:43:57Z</time>
      </trkpt>
      <trkpt lat="46.15272" lon="6.48767">
        <ele>715</ele>
        <time>2012-05-10T11:43:59Z</time>
      </trkpt>
      <trkpt lat="46.15265" lon="6.48781">
        <ele>715</ele>
        <time>2012-05-10T11:44:01Z</time>
      </trkpt>
      <trkpt lat="46.15259" lon="6.48798">
        <ele>722</ele>
        <time>2012-05-10T11:44:03Z</time>
      </trkpt>
      <trkpt lat="46.15255" lon="6.48815">
        <ele>722</ele>
        <time>2012-05-10T11:44:05Z</time>
      </trkpt>
      <trkpt lat="46.15255" lon="6.48835">
        <ele>722</ele>
        <time>2012-05-10T11:44:07Z</time>
      </trkpt>
      <trkpt lat="46.15254" lon="6.48856">
        <ele>729</ele>
        <time>2012-05-10T11:44:09Z</time>
      </trkpt>
      <trkpt lat="46.15251" lon="6.48873">
        <ele>729</ele>
        <time>2012-05-10T11:44:11Z</time>
      </trkpt>
      <trkpt lat="46.15243" lon="6.48894">
        <ele>734</ele>
        <time>2012-05-10T11:44:13Z</time>
      </trkpt>
      <trkpt lat="46.15235" lon="6.48907">
        <ele>734</ele>
        <time>2012-05-10T11:44:14Z</time>
      </trkpt>
      <trkpt lat="46.15227" lon="6.48924">
        <ele>734</ele>
        <time>2012-05-10T11:44:16Z</time>
      </trkpt>
      <trkpt lat="46.15217" lon="6.48943">
        <ele>741</ele>
        <time>2012-05-10T11:44:18Z</time>
      </trkpt>
      <trkpt lat="46.15209" lon="6.48962">
        <ele>741</ele>
        <time>2012-05-10T11:44:20Z</time>
      </trkpt>
      <trkpt lat="46.15201" lon="6.4898">
        <ele>741</ele>
        <time>2012-05-10T11:44:22Z</time>
      </trkpt>
      <trkpt lat="46.15197" lon="6.49">
        <ele>746</ele>
        <time>2012-05-10T11:44:24Z</time>
      </trkpt>
      <trkpt lat="46.15192" lon="6.49024">
        <ele>746</ele>
        <time>2012-05-10T11:44:26Z</time>
      </trkpt>
      <trkpt lat="46.15189" lon="6.49048">
        <ele>746</ele>
        <time>2012-05-10T11:44:28Z</time>
      </trkpt>
      <trkpt lat="46.15186" lon="6.49061">
        <ele>746</ele>
        <time>2012-05-10T11:44:29Z</time>
      </trkpt>
      <trkpt lat="46.15182" lon="6.49073">
        <ele>746</ele>
        <time>2012-05-10T11:44:30Z</time>
      </trkpt>
      <trkpt lat="46.15172" lon="6.49093">
        <ele>746</ele>
        <time>2012-05-10T11:44:32Z</time>
      </trkpt>
      <trkpt lat="46.15162" lon="6.49109">
        <ele>746</ele>
        <time>2012-05-10T11:44:34Z</time>
      </trkpt>
      <trkpt lat="46.15155" lon="6.49123">
        <ele>746</ele>
        <time>2012-05-10T11:44:37Z</time>
      </trkpt>
      <trkpt lat="46.15157" lon="6.49144">
        <ele>746</ele>
        <time>2012-05-10T11:44:48Z</time>
      </trkpt>
      <trkpt lat="46.1516" lon="6.49167">
        <ele>746</ele>
        <time>2012-05-10T11:44:50Z</time>
      </trkpt>
      <trkpt lat="46.15163" lon="6.49179">
        <ele>746</ele>
        <time>2012-05-10T11:44:51Z</time>
      </trkpt>
      <trkpt lat="46.15166" lon="6.49205">
        <ele>752</ele>
        <time>2012-05-10T11:44:53Z</time>
      </trkpt>
      <trkpt lat="46.15167" lon="6.4923">
        <ele>752</ele>
        <time>2012-05-10T11:44:55Z</time>
      </trkpt>
      <trkpt lat="46.1517" lon="6.49255">
        <ele>752</ele>
        <time>2012-05-10T11:44:57Z</time>
      </trkpt>
      <trkpt lat="46.15178" lon="6.49277">
        <ele>752</ele>
        <time>2012-05-10T11:44:59Z</time>
      </trkpt>
      <trkpt lat="46.15184" lon="6.49294">
        <ele>752</ele>
        <time>2012-05-10T11:45:01Z</time>
      </trkpt>
      <trkpt lat="46.1519" lon="6.49311">
        <ele>752</ele>
        <time>2012-05-10T11:45:03Z</time>
      </trkpt>
      <trkpt lat="46.15197" lon="6.49331">
        <ele>757</ele>
        <time>2012-05-10T11:45:05Z</time>
      </trkpt>
      <trkpt lat="46.15205" lon="6.49349">
        <ele>757</ele>
        <time>2012-05-10T11:45:07Z</time>
      </trkpt>
      <trkpt lat="46.15214" lon="6.49366">
        <ele>757</ele>
        <time>2012-05-10T11:45:09Z</time>
      </trkpt>
      <trkpt lat="46.15222" lon="6.49379">
        <ele>757</ele>
        <time>2012-05-10T11:45:11Z</time>
      </trkpt>
      <trkpt lat="46.15231" lon="6.49387">
        <ele>757</ele>
        <time>2012-05-10T11:45:15Z</time>
      </trkpt>
      <trkpt lat="46.15242" lon="6.49389">
        <ele>757</ele>
        <time>2012-05-10T11:45:19Z</time>
      </trkpt>
      <trkpt lat="46.15247" lon="6.494">
        <ele>757</ele>
        <time>2012-05-10T11:45:24Z</time>
      </trkpt>
      <trkpt lat="46.15244" lon="6.49415">
        <ele>757</ele>
        <time>2012-05-10T11:45:26Z</time>
      </trkpt>
      <trkpt lat="46.15234" lon="6.49428">
        <ele>757</ele>
        <time>2012-05-10T11:45:28Z</time>
      </trkpt>
      <trkpt lat="46.15225" lon="6.49435">
        <ele>757</ele>
        <time>2012-05-10T11:45:29Z</time>
      </trkpt>
      <trkpt lat="46.15215" lon="6.49442">
        <ele>757</ele>
        <time>2012-05-10T11:45:30Z</time>
      </trkpt>
      <trkpt lat="46.15207" lon="6.4945">
        <ele>757</ele>
        <time>2012-05-10T11:45:31Z</time>
      </trkpt>
      <trkpt lat="46.15197" lon="6.49452">
        <ele>757</ele>
        <time>2012-05-10T11:45:32Z</time>
      </trkpt>
      <trkpt lat="46.15188" lon="6.49455">
        <ele>757</ele>
        <time>2012-05-10T11:45:33Z</time>
      </trkpt>
      <trkpt lat="46.15177" lon="6.49456">
        <ele>757</ele>
        <time>2012-05-10T11:45:34Z</time>
      </trkpt>
      <trkpt lat="46.15167" lon="6.49456">
        <ele>757</ele>
        <time>2012-05-10T11:45:35Z</time>
      </trkpt>
      <trkpt lat="46.15156" lon="6.49454">
        <ele>757</ele>
        <time>2012-05-10T11:45:36Z</time>
      </trkpt>
      <trkpt lat="46.15146" lon="6.49453">
        <ele>757</ele>
        <time>2012-05-10T11:45:37Z</time>
      </trkpt>
      <trkpt lat="46.15134" lon="6.49451">
        <ele>757</ele>
        <time>2012-05-10T11:45:38Z</time>
      </trkpt>
      <trkpt lat="46.15124" lon="6.4945">
        <ele>752</ele>
        <time>2012-05-10T11:45:39Z</time>
      </trkpt>
      <trkpt lat="46.15113" lon="6.49447">
        <ele>752</ele>
        <time>2012-05-10T11:45:40Z</time>
      </trkpt>
      <trkpt lat="46.15103" lon="6.49445">
        <ele>752</ele>
        <time>2012-05-10T11:45:41Z</time>
      </trkpt>
      <trkpt lat="46.15092" lon="6.49442">
        <ele>752</ele>
        <time>2012-05-10T11:45:42Z</time>
      </trkpt>
      <trkpt lat="46.15082" lon="6.4944">
        <ele>752</ele>
        <time>2012-05-10T11:45:43Z</time>
      </trkpt>
      <trkpt lat="46.1507" lon="6.49437">
        <ele>752</ele>
        <time>2012-05-10T11:45:44Z</time>
      </trkpt>
      <trkpt lat="46.15058" lon="6.49434">
        <ele>752</ele>
        <time>2012-05-10T11:45:45Z</time>
      </trkpt>
      <trkpt lat="46.15047" lon="6.49433">
        <ele>752</ele>
        <time>2012-05-10T11:45:46Z</time>
      </trkpt>
      <trkpt lat="46.15038" lon="6.49433">
        <ele>747</ele>
        <time>2012-05-10T11:45:47Z</time>
      </trkpt>
      <trkpt lat="46.15029" lon="6.49433">
        <ele>747</ele>
        <time>2012-05-10T11:45:48Z</time>
      </trkpt>
      <trkpt lat="46.15019" lon="6.49435">
        <ele>747</ele>
        <time>2012-05-10T11:45:49Z</time>
      </trkpt>
      <trkpt lat="46.1501" lon="6.49437">
        <ele>747</ele>
        <time>2012-05-10T11:45:50Z</time>
      </trkpt>
      <trkpt lat="46.15001" lon="6.49439">
        <ele>747</ele>
        <time>2012-05-10T11:45:51Z</time>
      </trkpt>
      <trkpt lat="46.14992" lon="6.49442">
        <ele>747</ele>
        <time>2012-05-10T11:45:52Z</time>
      </trkpt>
      <trkpt lat="46.14983" lon="6.49446">
        <ele>747</ele>
        <time>2012-05-10T11:45:53Z</time>
      </trkpt>
      <trkpt lat="46.14966" lon="6.49451">
        <ele>747</ele>
        <time>2012-05-10T11:45:55Z</time>
      </trkpt>
      <trkpt lat="46.1495" lon="6.49459">
        <ele>747</ele>
        <time>2012-05-10T11:45:57Z</time>
      </trkpt>
      <trkpt lat="46.14934" lon="6.49467">
        <ele>747</ele>
        <time>2012-05-10T11:45:59Z</time>
      </trkpt>
      <trkpt lat="46.14918" lon="6.49477">
        <ele>747</ele>
        <time>2012-05-10T11:46:01Z</time>
      </trkpt>
      <trkpt lat="46.14903" lon="6.49487">
        <ele>747</ele>
        <time>2012-05-10T11:46:03Z</time>
      </trkpt>
      <trkpt lat="46.1489" lon="6.49496">
        <ele>747</ele>
        <time>2012-05-10T11:46:05Z</time>
      </trkpt>
      <trkpt lat="46.14877" lon="6.49505">
        <ele>747</ele>
        <time>2012-05-10T11:46:07Z</time>
      </trkpt>
      <trkpt lat="46.14863" lon="6.49514">
        <ele>747</ele>
        <time>2012-05-10T11:46:09Z</time>
      </trkpt>
      <trkpt lat="46.14848" lon="6.49526">
        <ele>747</ele>
        <time>2012-05-10T11:46:11Z</time>
      </trkpt>
      <trkpt lat="46.1484" lon="6.49532">
        <ele>747</ele>
        <time>2012-05-10T11:46:12Z</time>
      </trkpt>
      <trkpt lat="46.14824" lon="6.49544">
        <ele>747</ele>
        <time>2012-05-10T11:46:14Z</time>
      </trkpt>
      <trkpt lat="46.14808" lon="6.49555">
        <ele>747</ele>
        <time>2012-05-10T11:46:16Z</time>
      </trkpt>
      <trkpt lat="46.14794" lon="6.49564">
        <ele>747</ele>
        <time>2012-05-10T11:46:18Z</time>
      </trkpt>
      <trkpt lat="46.14779" lon="6.49572">
        <ele>747</ele>
        <time>2012-05-10T11:46:20Z</time>
      </trkpt>
      <trkpt lat="46.14765" lon="6.49579">
        <ele>747</ele>
        <time>2012-05-10T11:46:22Z</time>
      </trkpt>
      <trkpt lat="46.1475" lon="6.49584">
        <ele>747</ele>
        <time>2012-05-10T11:46:24Z</time>
      </trkpt>
      <trkpt lat="46.14735" lon="6.4959">
        <ele>740</ele>
        <time>2012-05-10T11:46:26Z</time>
      </trkpt>
      <trkpt lat="46.1472" lon="6.49595">
        <ele>740</ele>
        <time>2012-05-10T11:46:28Z</time>
      </trkpt>
      <trkpt lat="46.14703" lon="6.49601">
        <ele>740</ele>
        <time>2012-05-10T11:46:30Z</time>
      </trkpt>
      <trkpt lat="46.14688" lon="6.49612">
        <ele>740</ele>
        <time>2012-05-10T11:46:32Z</time>
      </trkpt>
      <trkpt lat="46.14674" lon="6.49623">
        <ele>740</ele>
        <time>2012-05-10T11:46:34Z</time>
      </trkpt>
      <trkpt lat="46.14662" lon="6.49632">
        <ele>740</ele>
        <time>2012-05-10T11:46:36Z</time>
      </trkpt>
      <trkpt lat="46.1465" lon="6.49644">
        <ele>740</ele>
        <time>2012-05-10T11:46:38Z</time>
      </trkpt>
      <trkpt lat="46.14637" lon="6.49653">
        <ele>740</ele>
        <time>2012-05-10T11:46:40Z</time>
      </trkpt>
      <trkpt lat="46.14625" lon="6.49662">
        <ele>740</ele>
        <time>2012-05-10T11:46:42Z</time>
      </trkpt>
      <trkpt lat="46.14615" lon="6.49669">
        <ele>740</ele>
        <time>2012-05-10T11:46:44Z</time>
      </trkpt>
      <trkpt lat="46.14607" lon="6.49677">
        <ele>740</ele>
        <time>2012-05-10T11:46:46Z</time>
      </trkpt>
      <trkpt lat="46.14595" lon="6.49687">
        <ele>740</ele>
        <time>2012-05-10T11:46:48Z</time>
      </trkpt>
      <trkpt lat="46.14582" lon="6.49696">
        <ele>740</ele>
        <time>2012-05-10T11:46:50Z</time>
      </trkpt>
      <trkpt lat="46.14573" lon="6.49704">
        <ele>735</ele>
        <time>2012-05-10T11:46:52Z</time>
      </trkpt>
      <trkpt lat="46.14567" lon="6.49716">
        <ele>735</ele>
        <time>2012-05-10T11:46:54Z</time>
      </trkpt>
      <trkpt lat="46.1456" lon="6.49727">
        <ele>735</ele>
        <time>2012-05-10T11:46:56Z</time>
      </trkpt>
      <trkpt lat="46.14552" lon="6.49741">
        <ele>735</ele>
        <time>2012-05-10T11:46:58Z</time>
      </trkpt>
      <trkpt lat="46.14539" lon="6.49756">
        <ele>735</ele>
        <time>2012-05-10T11:47:00Z</time>
      </trkpt>
      <trkpt lat="46.14532" lon="6.49765">
        <ele>735</ele>
        <time>2012-05-10T11:47:01Z</time>
      </trkpt>
      <trkpt lat="46.14524" lon="6.49775">
        <ele>735</ele>
        <time>2012-05-10T11:47:02Z</time>
      </trkpt>
      <trkpt lat="46.14517" lon="6.49787">
        <ele>735</ele>
        <time>2012-05-10T11:47:03Z</time>
      </trkpt>
      <trkpt lat="46.1451" lon="6.49797">
        <ele>735</ele>
        <time>2012-05-10T11:47:04Z</time>
      </trkpt>
      <trkpt lat="46.14502" lon="6.49808">
        <ele>735</ele>
        <time>2012-05-10T11:47:05Z</time>
      </trkpt>
      <trkpt lat="46.14495" lon="6.49821">
        <ele>740</ele>
        <time>2012-05-10T11:47:06Z</time>
      </trkpt>
      <trkpt lat="46.14487" lon="6.49834">
        <ele>740</ele>
        <time>2012-05-10T11:47:07Z</time>
      </trkpt>
      <trkpt lat="46.1448" lon="6.49849">
        <ele>740</ele>
        <time>2012-05-10T11:47:08Z</time>
      </trkpt>
      <trkpt lat="46.14472" lon="6.49864">
        <ele>740</ele>
        <time>2012-05-10T11:47:09Z</time>
      </trkpt>
      <trkpt lat="46.14465" lon="6.49879">
        <ele>740</ele>
        <time>2012-05-10T11:47:10Z</time>
      </trkpt>
      <trkpt lat="46.14459" lon="6.49893">
        <ele>740</ele>
        <time>2012-05-10T11:47:11Z</time>
      </trkpt>
      <trkpt lat="46.14452" lon="6.4991">
        <ele>740</ele>
        <time>2012-05-10T11:47:12Z</time>
      </trkpt>
      <trkpt lat="46.14446" lon="6.49924">
        <ele>746</ele>
        <time>2012-05-10T11:47:13Z</time>
      </trkpt>
      <trkpt lat="46.14441" lon="6.49937">
        <ele>746</ele>
        <time>2012-05-10T11:47:14Z</time>
      </trkpt>
      <trkpt lat="46.14436" lon="6.4995">
        <ele>746</ele>
        <time>2012-05-10T11:47:15Z</time>
      </trkpt>
      <trkpt lat="46.14432" lon="6.49963">
        <ele>746</ele>
        <time>2012-05-10T11:47:16Z</time>
      </trkpt>
      <trkpt lat="46.14426" lon="6.49985">
        <ele>746</ele>
        <time>2012-05-10T11:47:18Z</time>
      </trkpt>
      <trkpt lat="46.14421" lon="6.50001">
        <ele>753</ele>
        <time>2012-05-10T11:47:20Z</time>
      </trkpt>
      <trkpt lat="46.14408" lon="6.5001">
        <ele>753</ele>
        <time>2012-05-10T11:47:22Z</time>
      </trkpt>
      <trkpt lat="46.14392" lon="6.50016">
        <ele>759</ele>
        <time>2012-05-10T11:47:24Z</time>
      </trkpt>
      <trkpt lat="46.14381" lon="6.50018">
        <ele>759</ele>
        <time>2012-05-10T11:47:26Z</time>
      </trkpt>
      <trkpt lat="46.1437" lon="6.50019">
        <ele>759</ele>
        <time>2012-05-10T11:47:30Z</time>
      </trkpt>
      <trkpt lat="46.14366" lon="6.50033">
        <ele>753</ele>
        <time>2012-05-10T11:47:47Z</time>
      </trkpt>
      <trkpt lat="46.14368" lon="6.50052">
        <ele>753</ele>
        <time>2012-05-10T11:47:49Z</time>
      </trkpt>
      <trkpt lat="46.14373" lon="6.50078">
        <ele>753</ele>
        <time>2012-05-10T11:47:51Z</time>
      </trkpt>
      <trkpt lat="46.14375" lon="6.50091">
        <ele>753</ele>
        <time>2012-05-10T11:47:52Z</time>
      </trkpt>
      <trkpt lat="46.14376" lon="6.50106">
        <ele>753</ele>
        <time>2012-05-10T11:47:53Z</time>
      </trkpt>
      <trkpt lat="46.14376" lon="6.50122">
        <ele>753</ele>
        <time>2012-05-10T11:47:54Z</time>
      </trkpt>
      <trkpt lat="46.14375" lon="6.50136">
        <ele>753</ele>
        <time>2012-05-10T11:47:55Z</time>
      </trkpt>
      <trkpt lat="46.14374" lon="6.5015">
        <ele>753</ele>
        <time>2012-05-10T11:47:56Z</time>
      </trkpt>
      <trkpt lat="46.14376" lon="6.50174">
        <ele>753</ele>
        <time>2012-05-10T11:47:58Z</time>
      </trkpt>
      <trkpt lat="46.14387" lon="6.50189">
        <ele>759</ele>
        <time>2012-05-10T11:48:00Z</time>
      </trkpt>
      <trkpt lat="46.14396" lon="6.50195">
        <ele>759</ele>
        <time>2012-05-10T11:48:01Z</time>
      </trkpt>
      <trkpt lat="46.14406" lon="6.50202">
        <ele>759</ele>
        <time>2012-05-10T11:48:02Z</time>
      </trkpt>
      <trkpt lat="46.14417" lon="6.50205">
        <ele>759</ele>
        <time>2012-05-10T11:48:03Z</time>
      </trkpt>
      <trkpt lat="46.14429" lon="6.50219">
        <ele>765</ele>
        <time>2012-05-10T11:48:05Z</time>
      </trkpt>
      <trkpt lat="46.14435" lon="6.50238">
        <ele>765</ele>
        <time>2012-05-10T11:48:07Z</time>
      </trkpt>
      <trkpt lat="46.14435" lon="6.50262">
        <ele>772</ele>
        <time>2012-05-10T11:48:09Z</time>
      </trkpt>
      <trkpt lat="46.14432" lon="6.50274">
        <ele>772</ele>
        <time>2012-05-10T11:48:10Z</time>
      </trkpt>
      <trkpt lat="46.14429" lon="6.5029">
        <ele>777</ele>
        <time>2012-05-10T11:48:11Z</time>
      </trkpt>
      <trkpt lat="46.14426" lon="6.50308">
        <ele>777</ele>
        <time>2012-05-10T11:48:12Z</time>
      </trkpt>
      <trkpt lat="46.14426" lon="6.50323">
        <ele>777</ele>
        <time>2012-05-10T11:48:13Z</time>
      </trkpt>
      <trkpt lat="46.14427" lon="6.50341">
        <ele>783</ele>
        <time>2012-05-10T11:48:14Z</time>
      </trkpt>
      <trkpt lat="46.1443" lon="6.50359">
        <ele>783</ele>
        <time>2012-05-10T11:48:15Z</time>
      </trkpt>
      <trkpt lat="46.14433" lon="6.50376">
        <ele>783</ele>
        <time>2012-05-10T11:48:16Z</time>
      </trkpt>
      <trkpt lat="46.14436" lon="6.50393">
        <ele>783</ele>
        <time>2012-05-10T11:48:17Z</time>
      </trkpt>
      <trkpt lat="46.1444" lon="6.5041">
        <ele>788</ele>
        <time>2012-05-10T11:48:18Z</time>
      </trkpt>
      <trkpt lat="46.14442" lon="6.50429">
        <ele>788</ele>
        <time>2012-05-10T11:48:19Z</time>
      </trkpt>
      <trkpt lat="46.14444" lon="6.50446">
        <ele>788</ele>
        <time>2012-05-10T11:48:20Z</time>
      </trkpt>
      <trkpt lat="46.14447" lon="6.50461">
        <ele>788</ele>
        <time>2012-05-10T11:48:21Z</time>
      </trkpt>
      <trkpt lat="46.14449" lon="6.50475">
        <ele>788</ele>
        <time>2012-05-10T11:48:22Z</time>
      </trkpt>
      <trkpt lat="46.14452" lon="6.50497">
        <ele>795</ele>
        <time>2012-05-10T11:48:24Z</time>
      </trkpt>
      <trkpt lat="46.14456" lon="6.50512">
        <ele>795</ele>
        <time>2012-05-10T11:48:26Z</time>
      </trkpt>
      <trkpt lat="46.14463" lon="6.50525">
        <ele>795</ele>
        <time>2012-05-10T11:48:28Z</time>
      </trkpt>
      <trkpt lat="46.1447" lon="6.50538">
        <ele>795</ele>
        <time>2012-05-10T11:48:30Z</time>
      </trkpt>
      <trkpt lat="46.14478" lon="6.50553">
        <ele>795</ele>
        <time>2012-05-10T11:48:32Z</time>
      </trkpt>
      <trkpt lat="46.14486" lon="6.50569">
        <ele>801</ele>
        <time>2012-05-10T11:48:34Z</time>
      </trkpt>
      <trkpt lat="46.14491" lon="6.50586">
        <ele>801</ele>
        <time>2012-05-10T11:48:36Z</time>
      </trkpt>
      <trkpt lat="46.14493" lon="6.50604">
        <ele>801</ele>
        <time>2012-05-10T11:48:38Z</time>
      </trkpt>
      <trkpt lat="46.14493" lon="6.50622">
        <ele>801</ele>
        <time>2012-05-10T11:48:40Z</time>
      </trkpt>
      <trkpt lat="46.14493" lon="6.50643">
        <ele>801</ele>
        <time>2012-05-10T11:48:42Z</time>
      </trkpt>
      <trkpt lat="46.14494" lon="6.50668">
        <ele>801</ele>
        <time>2012-05-10T11:48:44Z</time>
      </trkpt>
      <trkpt lat="46.14495" lon="6.50682">
        <ele>801</ele>
        <time>2012-05-10T11:48:45Z</time>
      </trkpt>
      <trkpt lat="46.14497" lon="6.50697">
        <ele>801</ele>
        <time>2012-05-10T11:48:46Z</time>
      </trkpt>
      <trkpt lat="46.14501" lon="6.50712">
        <ele>801</ele>
        <time>2012-05-10T11:48:47Z</time>
      </trkpt>
      <trkpt lat="46.14506" lon="6.50727">
        <ele>801</ele>
        <time>2012-05-10T11:48:48Z</time>
      </trkpt>
      <trkpt lat="46.14512" lon="6.50741">
        <ele>801</ele>
        <time>2012-05-10T11:48:49Z</time>
      </trkpt>
      <trkpt lat="46.14518" lon="6.50756">
        <ele>801</ele>
        <time>2012-05-10T11:48:50Z</time>
      </trkpt>
      <trkpt lat="46.14525" lon="6.5077">
        <ele>801</ele>
        <time>2012-05-10T11:48:51Z</time>
      </trkpt>
      <trkpt lat="46.14533" lon="6.50785">
        <ele>801</ele>
        <time>2012-05-10T11:48:52Z</time>
      </trkpt>
      <trkpt lat="46.14542" lon="6.50797">
        <ele>801</ele>
        <time>2012-05-10T11:48:53Z</time>
      </trkpt>
      <trkpt lat="46.1455" lon="6.50811">
        <ele>801</ele>
        <time>2012-05-10T11:48:54Z</time>
      </trkpt>
      <trkpt lat="46.14557" lon="6.50822">
        <ele>801</ele>
        <time>2012-05-10T11:48:55Z</time>
      </trkpt>
      <trkpt lat="46.14565" lon="6.50836">
        <ele>801</ele>
        <time>2012-05-10T11:48:56Z</time>
      </trkpt>
      <trkpt lat="46.14575" lon="6.50851">
        <ele>807</ele>
        <time>2012-05-10T11:48:57Z</time>
      </trkpt>
      <trkpt lat="46.14585" lon="6.50866">
        <ele>807</ele>
        <time>2012-05-10T11:48:58Z</time>
      </trkpt>
      <trkpt lat="46.14594" lon="6.50882">
        <ele>807</ele>
        <time>2012-05-10T11:48:59Z</time>
      </trkpt>
      <trkpt lat="46.14602" lon="6.50897">
        <ele>807</ele>
        <time>2012-05-10T11:49:00Z</time>
      </trkpt>
      <trkpt lat="46.14609" lon="6.50913">
        <ele>812</ele>
        <time>2012-05-10T11:49:01Z</time>
      </trkpt>
      <trkpt lat="46.14616" lon="6.50927">
        <ele>812</ele>
        <time>2012-05-10T11:49:02Z</time>
      </trkpt>
      <trkpt lat="46.14624" lon="6.5094">
        <ele>812</ele>
        <time>2012-05-10T11:49:03Z</time>
      </trkpt>
      <trkpt lat="46.1463" lon="6.50953">
        <ele>812</ele>
        <time>2012-05-10T11:49:04Z</time>
      </trkpt>
      <trkpt lat="46.14635" lon="6.50965">
        <ele>812</ele>
        <time>2012-05-10T11:49:05Z</time>
      </trkpt>
      <trkpt lat="46.1464" lon="6.50978">
        <ele>812</ele>
        <time>2012-05-10T11:49:06Z</time>
      </trkpt>
      <trkpt lat="46.14647" lon="6.50991">
        <ele>812</ele>
        <time>2012-05-10T11:49:07Z</time>
      </trkpt>
      <trkpt lat="46.14654" lon="6.51006">
        <ele>812</ele>
        <time>2012-05-10T11:49:08Z</time>
      </trkpt>
      <trkpt lat="46.1466" lon="6.51022">
        <ele>812</ele>
        <time>2012-05-10T11:49:09Z</time>
      </trkpt>
      <trkpt lat="46.14664" lon="6.51037">
        <ele>812</ele>
        <time>2012-05-10T11:49:10Z</time>
      </trkpt>
      <trkpt lat="46.14667" lon="6.51051">
        <ele>812</ele>
        <time>2012-05-10T11:49:11Z</time>
      </trkpt>
      <trkpt lat="46.1467" lon="6.51065">
        <ele>818</ele>
        <time>2012-05-10T11:49:12Z</time>
      </trkpt>
      <trkpt lat="46.14675" lon="6.51085">
        <ele>818</ele>
        <time>2012-05-10T11:49:14Z</time>
      </trkpt>
      <trkpt lat="46.14677" lon="6.51106">
        <ele>818</ele>
        <time>2012-05-10T11:49:16Z</time>
      </trkpt>
      <trkpt lat="46.14675" lon="6.51128">
        <ele>818</ele>
        <time>2012-05-10T11:49:18Z</time>
      </trkpt>
      <trkpt lat="46.1467" lon="6.51147">
        <ele>818</ele>
        <time>2012-05-10T11:49:20Z</time>
      </trkpt>
      <trkpt lat="46.14662" lon="6.51162">
        <ele>818</ele>
        <time>2012-05-10T11:49:22Z</time>
      </trkpt>
      <trkpt lat="46.14653" lon="6.51174">
        <ele>818</ele>
        <time>2012-05-10T11:49:24Z</time>
      </trkpt>
      <trkpt lat="46.14643" lon="6.51186">
        <ele>818</ele>
        <time>2012-05-10T11:49:39Z</time>
      </trkpt>
      <trkpt lat="46.14635" lon="6.512">
        <ele>818</ele>
        <time>2012-05-10T11:49:42Z</time>
      </trkpt>
      <trkpt lat="46.14637" lon="6.51213">
        <ele>818</ele>
        <time>2012-05-10T11:49:45Z</time>
      </trkpt>
      <trkpt lat="46.14645" lon="6.51225">
        <ele>818</ele>
        <time>2012-05-10T11:49:47Z</time>
      </trkpt>
      <trkpt lat="46.14654" lon="6.51236">
        <ele>818</ele>
        <time>2012-05-10T11:49:50Z</time>
      </trkpt>
      <trkpt lat="46.14664" lon="6.51248">
        <ele>818</ele>
        <time>2012-05-10T11:49:53Z</time>
      </trkpt>
      <trkpt lat="46.14665" lon="6.51264">
        <ele>818</ele>
        <time>2012-05-10T11:49:55Z</time>
      </trkpt>
      <trkpt lat="46.14663" lon="6.51285">
        <ele>818</ele>
        <time>2012-05-10T11:49:57Z</time>
      </trkpt>
      <trkpt lat="46.14661" lon="6.51307">
        <ele>818</ele>
        <time>2012-05-10T11:49:59Z</time>
      </trkpt>
      <trkpt lat="46.14664" lon="6.51329">
        <ele>818</ele>
        <time>2012-05-10T11:50:01Z</time>
      </trkpt>
      <trkpt lat="46.14669" lon="6.51352">
        <ele>818</ele>
        <time>2012-05-10T11:50:03Z</time>
      </trkpt>
      <trkpt lat="46.14674" lon="6.51373">
        <ele>818</ele>
        <time>2012-05-10T11:50:05Z</time>
      </trkpt>
      <trkpt lat="46.14679" lon="6.51393">
        <ele>818</ele>
        <time>2012-05-10T11:50:07Z</time>
      </trkpt>
      <trkpt lat="46.14682" lon="6.51412">
        <ele>818</ele>
        <time>2012-05-10T11:50:09Z</time>
      </trkpt>
      <trkpt lat="46.14682" lon="6.51428">
        <ele>818</ele>
        <time>2012-05-10T11:50:11Z</time>
      </trkpt>
      <trkpt lat="46.14684" lon="6.51447">
        <ele>818</ele>
        <time>2012-05-10T11:50:14Z</time>
      </trkpt>
      <trkpt lat="46.1469" lon="6.51462">
        <ele>818</ele>
        <time>2012-05-10T11:50:16Z</time>
      </trkpt>
      <trkpt lat="46.14698" lon="6.51478">
        <ele>818</ele>
        <time>2012-05-10T11:50:18Z</time>
      </trkpt>
      <trkpt lat="46.14707" lon="6.51493">
        <ele>818</ele>
        <time>2012-05-10T11:50:20Z</time>
      </trkpt>
      <trkpt lat="46.14717" lon="6.51507">
        <ele>823</ele>
        <time>2012-05-10T11:50:22Z</time>
      </trkpt>
      <trkpt lat="46.14726" lon="6.51516">
        <ele>823</ele>
        <time>2012-05-10T11:50:24Z</time>
      </trkpt>
      <trkpt lat="46.14732" lon="6.51527">
        <ele>823</ele>
        <time>2012-05-10T11:50:26Z</time>
      </trkpt>
      <trkpt lat="46.14733" lon="6.5154">
        <ele>823</ele>
        <time>2012-05-10T11:50:28Z</time>
      </trkpt>
      <trkpt lat="46.1473" lon="6.51554">
        <ele>823</ele>
        <time>2012-05-10T11:50:45Z</time>
      </trkpt>
      <trkpt lat="46.14723" lon="6.51565">
        <ele>823</ele>
        <time>2012-05-10T11:50:47Z</time>
      </trkpt>
      <trkpt lat="46.14717" lon="6.51579">
        <ele>823</ele>
        <time>2012-05-10T11:50:49Z</time>
      </trkpt>
      <trkpt lat="46.14713" lon="6.51592">
        <ele>823</ele>
        <time>2012-05-10T11:50:51Z</time>
      </trkpt>
      <trkpt lat="46.14716" lon="6.51605">
        <ele>823</ele>
        <time>2012-05-10T11:50:53Z</time>
      </trkpt>
      <trkpt lat="46.14722" lon="6.51619">
        <ele>823</ele>
        <time>2012-05-10T11:50:55Z</time>
      </trkpt>
      <trkpt lat="46.1473" lon="6.51638">
        <ele>823</ele>
        <time>2012-05-10T11:50:57Z</time>
      </trkpt>
      <trkpt lat="46.14738" lon="6.51658">
        <ele>823</ele>
        <time>2012-05-10T11:50:59Z</time>
      </trkpt>
      <trkpt lat="46.14745" lon="6.51682">
        <ele>823</ele>
        <time>2012-05-10T11:51:01Z</time>
      </trkpt>
      <trkpt lat="46.14749" lon="6.51695">
        <ele>823</ele>
        <time>2012-05-10T11:51:02Z</time>
      </trkpt>
      <trkpt lat="46.14752" lon="6.51707">
        <ele>823</ele>
        <time>2012-05-10T11:51:03Z</time>
      </trkpt>
      <trkpt lat="46.14756" lon="6.51728">
        <ele>823</ele>
        <time>2012-05-10T11:51:05Z</time>
      </trkpt>
      <trkpt lat="46.14761" lon="6.51748">
        <ele>823</ele>
        <time>2012-05-10T11:51:07Z</time>
      </trkpt>
      <trkpt lat="46.14768" lon="6.51769">
        <ele>823</ele>
        <time>2012-05-10T11:51:09Z</time>
      </trkpt>
      <trkpt lat="46.14775" lon="6.51787">
        <ele>823</ele>
        <time>2012-05-10T11:51:11Z</time>
      </trkpt>
      <trkpt lat="46.14782" lon="6.51805">
        <ele>823</ele>
        <time>2012-05-10T11:51:13Z</time>
      </trkpt>
      <trkpt lat="46.1479" lon="6.51827">
        <ele>823</ele>
        <time>2012-05-10T11:51:15Z</time>
      </trkpt>
      <trkpt lat="46.14794" lon="6.5184">
        <ele>823</ele>
        <time>2012-05-10T11:51:16Z</time>
      </trkpt>
      <trkpt lat="46.14798" lon="6.51854">
        <ele>823</ele>
        <time>2012-05-10T11:51:17Z</time>
      </trkpt>
      <trkpt lat="46.14804" lon="6.51868">
        <ele>823</ele>
        <time>2012-05-10T11:51:18Z</time>
      </trkpt>
      <trkpt lat="46.14807" lon="6.51881">
        <ele>823</ele>
        <time>2012-05-10T11:51:19Z</time>
      </trkpt>
      <trkpt lat="46.14814" lon="6.51901">
        <ele>823</ele>
        <time>2012-05-10T11:51:21Z</time>
      </trkpt>
      <trkpt lat="46.1482" lon="6.51921">
        <ele>823</ele>
        <time>2012-05-10T11:51:23Z</time>
      </trkpt>
      <trkpt lat="46.14829" lon="6.51932">
        <ele>823</ele>
        <time>2012-05-10T11:51:25Z</time>
      </trkpt>
      <trkpt lat="46.14839" lon="6.51946">
        <ele>823</ele>
        <time>2012-05-10T11:51:27Z</time>
      </trkpt>
      <trkpt lat="46.14852" lon="6.51967">
        <ele>832</ele>
        <time>2012-05-10T11:51:29Z</time>
      </trkpt>
      <trkpt lat="46.14859" lon="6.51978">
        <ele>832</ele>
        <time>2012-05-10T11:51:30Z</time>
      </trkpt>
      <trkpt lat="46.14866" lon="6.51988">
        <ele>832</ele>
        <time>2012-05-10T11:51:31Z</time>
      </trkpt>
      <trkpt lat="46.14873" lon="6.51998">
        <ele>832</ele>
        <time>2012-05-10T11:51:32Z</time>
      </trkpt>
      <trkpt lat="46.14883" lon="6.52007">
        <ele>832</ele>
        <time>2012-05-10T11:51:33Z</time>
      </trkpt>
      <trkpt lat="46.14893" lon="6.52016">
        <ele>832</ele>
        <time>2012-05-10T11:51:34Z</time>
      </trkpt>
      <trkpt lat="46.14901" lon="6.52024">
        <ele>832</ele>
        <time>2012-05-10T11:51:35Z</time>
      </trkpt>
      <trkpt lat="46.14908" lon="6.52033">
        <ele>832</ele>
        <time>2012-05-10T11:51:36Z</time>
      </trkpt>
      <trkpt lat="46.14919" lon="6.52048">
        <ele>837</ele>
        <time>2012-05-10T11:51:38Z</time>
      </trkpt>
      <trkpt lat="46.14921" lon="6.52065">
        <ele>837</ele>
        <time>2012-05-10T11:51:40Z</time>
      </trkpt>
      <trkpt lat="46.14926" lon="6.52079">
        <ele>837</ele>
        <time>2012-05-10T11:51:42Z</time>
      </trkpt>
      <trkpt lat="46.14928" lon="6.52093">
        <ele>837</ele>
        <time>2012-05-10T11:51:44Z</time>
      </trkpt>
      <trkpt lat="46.14928" lon="6.52107">
        <ele>837</ele>
        <time>2012-05-10T11:51:47Z</time>
      </trkpt>
      <trkpt lat="46.14915" lon="6.52101">
        <ele>837</ele>
        <time>2012-05-10T11:52:00Z</time>
      </trkpt>
      <trkpt lat="46.14901" lon="6.52102">
        <ele>837</ele>
        <time>2012-05-10T11:52:03Z</time>
      </trkpt>
      <trkpt lat="46.14888" lon="6.52109">
        <ele>837</ele>
        <time>2012-05-10T11:52:05Z</time>
      </trkpt>
      <trkpt lat="46.1487" lon="6.52109">
        <ele>837</ele>
        <time>2012-05-10T11:52:07Z</time>
      </trkpt>
      <trkpt lat="46.14853" lon="6.52105">
        <ele>837</ele>
        <time>2012-05-10T11:52:09Z</time>
      </trkpt>
      <trkpt lat="46.14836" lon="6.52108">
        <ele>837</ele>
        <time>2012-05-10T11:52:11Z</time>
      </trkpt>
      <trkpt lat="46.14819" lon="6.52115">
        <ele>837</ele>
        <time>2012-05-10T11:52:13Z</time>
      </trkpt>
      <trkpt lat="46.1481" lon="6.52121">
        <ele>837</ele>
        <time>2012-05-10T11:52:14Z</time>
      </trkpt>
      <trkpt lat="46.148" lon="6.52128">
        <ele>837</ele>
        <time>2012-05-10T11:52:15Z</time>
      </trkpt>
      <trkpt lat="46.14792" lon="6.52137">
        <ele>837</ele>
        <time>2012-05-10T11:52:16Z</time>
      </trkpt>
      <trkpt lat="46.1478" lon="6.5215">
        <ele>837</ele>
        <time>2012-05-10T11:52:18Z</time>
      </trkpt>
      <trkpt lat="46.14768" lon="6.52153">
        <ele>844</ele>
        <time>2012-05-10T11:52:28Z</time>
      </trkpt>
      <trkpt lat="46.14752" lon="6.52152">
        <ele>844</ele>
        <time>2012-05-10T11:52:30Z</time>
      </trkpt>
      <trkpt lat="46.14741" lon="6.52152">
        <ele>844</ele>
        <time>2012-05-10T11:52:31Z</time>
      </trkpt>
      <trkpt lat="46.1473" lon="6.52151">
        <ele>844</ele>
        <time>2012-05-10T11:52:32Z</time>
      </trkpt>
      <trkpt lat="46.14719" lon="6.52152">
        <ele>844</ele>
        <time>2012-05-10T11:52:33Z</time>
      </trkpt>
      <trkpt lat="46.14708" lon="6.52153">
        <ele>839</ele>
        <time>2012-05-10T11:52:34Z</time>
      </trkpt>
      <trkpt lat="46.14699" lon="6.52153">
        <ele>839</ele>
        <time>2012-05-10T11:52:35Z</time>
      </trkpt>
      <trkpt lat="46.14689" lon="6.52151">
        <ele>839</ele>
        <time>2012-05-10T11:52:36Z</time>
      </trkpt>
      <trkpt lat="46.14673" lon="6.52147">
        <ele>839</ele>
        <time>2012-05-10T11:52:38Z</time>
      </trkpt>
      <trkpt lat="46.14656" lon="6.52151">
        <ele>834</ele>
        <time>2012-05-10T11:52:40Z</time>
      </trkpt>
      <trkpt lat="46.14646" lon="6.52154">
        <ele>834</ele>
        <time>2012-05-10T11:52:41Z</time>
      </trkpt>
      <trkpt lat="46.14637" lon="6.5216">
        <ele>834</ele>
        <time>2012-05-10T11:52:42Z</time>
      </trkpt>
      <trkpt lat="46.14627" lon="6.52163">
        <ele>834</ele>
        <time>2012-05-10T11:52:43Z</time>
      </trkpt>
      <trkpt lat="46.14618" lon="6.52165">
        <ele>834</ele>
        <time>2012-05-10T11:52:44Z</time>
      </trkpt>
      <trkpt lat="46.14603" lon="6.52158">
        <ele>834</ele>
        <time>2012-05-10T11:52:46Z</time>
      </trkpt>
      <trkpt lat="46.14588" lon="6.52144">
        <ele>834</ele>
        <time>2012-05-10T11:52:48Z</time>
      </trkpt>
      <trkpt lat="46.14577" lon="6.52139">
        <ele>834</ele>
        <time>2012-05-10T11:52:49Z</time>
      </trkpt>
      <trkpt lat="46.14565" lon="6.52138">
        <ele>834</ele>
        <time>2012-05-10T11:52:50Z</time>
      </trkpt>
      <trkpt lat="46.14555" lon="6.52135">
        <ele>834</ele>
        <time>2012-05-10T11:52:51Z</time>
      </trkpt>
      <trkpt lat="46.14546" lon="6.52132">
        <ele>834</ele>
        <time>2012-05-10T11:52:52Z</time>
      </trkpt>
      <trkpt lat="46.1453" lon="6.52127">
        <ele>834</ele>
        <time>2012-05-10T11:52:54Z</time>
      </trkpt>
      <trkpt lat="46.14514" lon="6.52128">
        <ele>834</ele>
        <time>2012-05-10T11:52:56Z</time>
      </trkpt>
      <trkpt lat="46.14505" lon="6.52135">
        <ele>834</ele>
        <time>2012-05-10T11:52:57Z</time>
      </trkpt>
      <trkpt lat="46.14495" lon="6.52146">
        <ele>834</ele>
        <time>2012-05-10T11:52:58Z</time>
      </trkpt>
      <trkpt lat="46.14486" lon="6.52158">
        <ele>834</ele>
        <time>2012-05-10T11:52:59Z</time>
      </trkpt>
      <trkpt lat="46.14477" lon="6.52172">
        <ele>834</ele>
        <time>2012-05-10T11:53:00Z</time>
      </trkpt>
      <trkpt lat="46.14469" lon="6.52184">
        <ele>834</ele>
        <time>2012-05-10T11:53:01Z</time>
      </trkpt>
      <trkpt lat="46.14462" lon="6.52199">
        <ele>834</ele>
        <time>2012-05-10T11:53:02Z</time>
      </trkpt>
      <trkpt lat="46.14455" lon="6.52214">
        <ele>834</ele>
        <time>2012-05-10T11:53:03Z</time>
      </trkpt>
      <trkpt lat="46.14449" lon="6.52227">
        <ele>834</ele>
        <time>2012-05-10T11:53:04Z</time>
      </trkpt>
      <trkpt lat="46.14445" lon="6.5224">
        <ele>834</ele>
        <time>2012-05-10T11:53:05Z</time>
      </trkpt>
      <trkpt lat="46.14441" lon="6.52254">
        <ele>839</ele>
        <time>2012-05-10T11:53:07Z</time>
      </trkpt>
      <trkpt lat="46.1443" lon="6.52261">
        <ele>839</ele>
        <time>2012-05-10T11:53:19Z</time>
      </trkpt>
      <trkpt lat="46.14418" lon="6.52269">
        <ele>839</ele>
        <time>2012-05-10T11:53:21Z</time>
      </trkpt>
      <trkpt lat="46.14406" lon="6.52284">
        <ele>839</ele>
        <time>2012-05-10T11:53:23Z</time>
      </trkpt>
      <trkpt lat="46.14398" lon="6.52292">
        <ele>839</ele>
        <time>2012-05-10T11:53:24Z</time>
      </trkpt>
      <trkpt lat="46.1439" lon="6.52298">
        <ele>834</ele>
        <time>2012-05-10T11:53:25Z</time>
      </trkpt>
      <trkpt lat="46.14381" lon="6.52304">
        <ele>834</ele>
        <time>2012-05-10T11:53:26Z</time>
      </trkpt>
      <trkpt lat="46.14371" lon="6.5231">
        <ele>834</ele>
        <time>2012-05-10T11:53:27Z</time>
      </trkpt>
      <trkpt lat="46.14355" lon="6.52321">
        <ele>840</ele>
        <time>2012-05-10T11:53:29Z</time>
      </trkpt>
      <trkpt lat="46.14346" lon="6.5234">
        <ele>840</ele>
        <time>2012-05-10T11:53:31Z</time>
      </trkpt>
      <trkpt lat="46.14345" lon="6.52354">
        <ele>840</ele>
        <time>2012-05-10T11:53:32Z</time>
      </trkpt>
      <trkpt lat="46.14342" lon="6.52366">
        <ele>840</ele>
        <time>2012-05-10T11:53:33Z</time>
      </trkpt>
      <trkpt lat="46.1433" lon="6.52387">
        <ele>846</ele>
        <time>2012-05-10T11:53:35Z</time>
      </trkpt>
      <trkpt lat="46.14323" lon="6.52395">
        <ele>846</ele>
        <time>2012-05-10T11:53:36Z</time>
      </trkpt>
      <trkpt lat="46.14313" lon="6.52402">
        <ele>846</ele>
        <time>2012-05-10T11:53:37Z</time>
      </trkpt>
      <trkpt lat="46.14304" lon="6.52406">
        <ele>846</ele>
        <time>2012-05-10T11:53:38Z</time>
      </trkpt>
      <trkpt lat="46.14298" lon="6.52416">
        <ele>852</ele>
        <time>2012-05-10T11:53:39Z</time>
      </trkpt>
      <trkpt lat="46.14296" lon="6.52429">
        <ele>852</ele>
        <time>2012-05-10T11:53:40Z</time>
      </trkpt>
      <trkpt lat="46.14293" lon="6.52446">
        <ele>852</ele>
        <time>2012-05-10T11:53:41Z</time>
      </trkpt>
      <trkpt lat="46.1429" lon="6.52465">
        <ele>859</ele>
        <time>2012-05-10T11:53:42Z</time>
      </trkpt>
      <trkpt lat="46.14286" lon="6.52483">
        <ele>859</ele>
        <time>2012-05-10T11:53:43Z</time>
      </trkpt>
      <trkpt lat="46.14281" lon="6.52499">
        <ele>859</ele>
        <time>2012-05-10T11:53:44Z</time>
      </trkpt>
      <trkpt lat="46.14277" lon="6.52512">
        <ele>859</ele>
        <time>2012-05-10T11:53:45Z</time>
      </trkpt>
      <trkpt lat="46.14271" lon="6.52532">
        <ele>859</ele>
        <time>2012-05-10T11:53:47Z</time>
      </trkpt>
      <trkpt lat="46.14267" lon="6.5255">
        <ele>865</ele>
        <time>2012-05-10T11:53:49Z</time>
      </trkpt>
      <trkpt lat="46.14261" lon="6.52567">
        <ele>865</ele>
        <time>2012-05-10T11:53:51Z</time>
      </trkpt>
      <trkpt lat="46.14255" lon="6.52583">
        <ele>865</ele>
        <time>2012-05-10T11:53:53Z</time>
      </trkpt>
      <trkpt lat="46.1425" lon="6.52596">
        <ele>865</ele>
        <time>2012-05-10T11:53:56Z</time>
      </trkpt>
      <trkpt lat="46.14261" lon="6.52601">
        <ele>871</ele>
        <time>2012-05-10T11:54:04Z</time>
      </trkpt>
      <trkpt lat="46.14269" lon="6.52595">
        <ele>871</ele>
        <time>2012-05-10T11:54:06Z</time>
      </trkpt>
      <trkpt lat="46.1428" lon="6.52583">
        <ele>871</ele>
        <time>2012-05-10T11:54:08Z</time>
      </trkpt>
      <trkpt lat="46.14292" lon="6.52571">
        <ele>871</ele>
        <time>2012-05-10T11:54:10Z</time>
      </trkpt>
      <trkpt lat="46.14306" lon="6.52559">
        <ele>871</ele>
        <time>2012-05-10T11:54:12Z</time>
      </trkpt>
      <trkpt lat="46.14319" lon="6.52547">
        <ele>871</ele>
        <time>2012-05-10T11:54:14Z</time>
      </trkpt>
      <trkpt lat="46.14331" lon="6.52534">
        <ele>876</ele>
        <time>2012-05-10T11:54:16Z</time>
      </trkpt>
      <trkpt lat="46.14343" lon="6.52519">
        <ele>876</ele>
        <time>2012-05-10T11:54:18Z</time>
      </trkpt>
      <trkpt lat="46.14354" lon="6.52502">
        <ele>876</ele>
        <time>2012-05-10T11:54:20Z</time>
      </trkpt>
      <trkpt lat="46.14366" lon="6.52485">
        <ele>882</ele>
        <time>2012-05-10T11:54:22Z</time>
      </trkpt>
      <trkpt lat="46.14379" lon="6.52472">
        <ele>882</ele>
        <time>2012-05-10T11:54:24Z</time>
      </trkpt>
      <trkpt lat="46.14394" lon="6.52464">
        <ele>887</ele>
        <time>2012-05-10T11:54:26Z</time>
      </trkpt>
      <trkpt lat="46.14411" lon="6.52455">
        <ele>887</ele>
        <time>2012-05-10T11:54:28Z</time>
      </trkpt>
      <trkpt lat="46.14428" lon="6.52446">
        <ele>887</ele>
        <time>2012-05-10T11:54:30Z</time>
      </trkpt>
      <trkpt lat="46.14446" lon="6.52441">
        <ele>894</ele>
        <time>2012-05-10T11:54:32Z</time>
      </trkpt>
      <trkpt lat="46.14456" lon="6.52437">
        <ele>894</ele>
        <time>2012-05-10T11:54:33Z</time>
      </trkpt>
      <trkpt lat="46.14467" lon="6.52433">
        <ele>894</ele>
        <time>2012-05-10T11:54:34Z</time>
      </trkpt>
      <trkpt lat="46.14477" lon="6.52428">
        <ele>894</ele>
        <time>2012-05-10T11:54:35Z</time>
      </trkpt>
      <trkpt lat="46.14487" lon="6.52426">
        <ele>894</ele>
        <time>2012-05-10T11:54:36Z</time>
      </trkpt>
      <trkpt lat="46.14502" lon="6.52422">
        <ele>894</ele>
        <time>2012-05-10T11:54:38Z</time>
      </trkpt>
      <trkpt lat="46.14518" lon="6.52428">
        <ele>899</ele>
        <time>2012-05-10T11:54:40Z</time>
      </trkpt>
      <trkpt lat="46.14534" lon="6.52432">
        <ele>899</ele>
        <time>2012-05-10T11:54:42Z</time>
      </trkpt>
      <trkpt lat="46.14547" lon="6.52435">
        <ele>899</ele>
        <time>2012-05-10T11:54:44Z</time>
      </trkpt>
      <trkpt lat="46.14557" lon="6.5244">
        <ele>899</ele>
        <time>2012-05-10T11:54:46Z</time>
      </trkpt>
      <trkpt lat="46.14569" lon="6.52445">
        <ele>899</ele>
        <time>2012-05-10T11:54:48Z</time>
      </trkpt>
      <trkpt lat="46.14583" lon="6.52449">
        <ele>899</ele>
        <time>2012-05-10T11:54:50Z</time>
      </trkpt>
      <trkpt lat="46.14592" lon="6.52454">
        <ele>899</ele>
        <time>2012-05-10T11:54:51Z</time>
      </trkpt>
      <trkpt lat="46.14602" lon="6.52458">
        <ele>899</ele>
        <time>2012-05-10T11:54:52Z</time>
      </trkpt>
      <trkpt lat="46.14612" lon="6.52461">
        <ele>899</ele>
        <time>2012-05-10T11:54:53Z</time>
      </trkpt>
      <trkpt lat="46.14622" lon="6.52463">
        <ele>899</ele>
        <time>2012-05-10T11:54:54Z</time>
      </trkpt>
      <trkpt lat="46.14634" lon="6.52464">
        <ele>899</ele>
        <time>2012-05-10T11:54:55Z</time>
      </trkpt>
      <trkpt lat="46.14644" lon="6.52464">
        <ele>905</ele>
        <time>2012-05-10T11:54:56Z</time>
      </trkpt>
      <trkpt lat="46.14654" lon="6.52464">
        <ele>905</ele>
        <time>2012-05-10T11:54:57Z</time>
      </trkpt>
      <trkpt lat="46.14669" lon="6.52458">
        <ele>905</ele>
        <time>2012-05-10T11:54:59Z</time>
      </trkpt>
      <trkpt lat="46.14679" lon="6.52451">
        <ele>905</ele>
        <time>2012-05-10T11:55:01Z</time>
      </trkpt>
      <trkpt lat="46.14692" lon="6.52444">
        <ele>911</ele>
        <time>2012-05-10T11:55:03Z</time>
      </trkpt>
      <trkpt lat="46.14707" lon="6.52436">
        <ele>911</ele>
        <time>2012-05-10T11:55:05Z</time>
      </trkpt>
      <trkpt lat="46.14722" lon="6.5243">
        <ele>911</ele>
        <time>2012-05-10T11:55:07Z</time>
      </trkpt>
      <trkpt lat="46.14734" lon="6.52432">
        <ele>911</ele>
        <time>2012-05-10T11:55:09Z</time>
      </trkpt>
      <trkpt lat="46.14761" lon="6.52444">
        <ele>911</ele>
        <time>2012-05-10T11:55:13Z</time>
      </trkpt>
      <trkpt lat="46.1477" lon="6.52448">
        <ele>918</ele>
        <time>2012-05-10T11:55:14Z</time>
      </trkpt>
      <trkpt lat="46.14782" lon="6.52455">
        <ele>918</ele>
        <time>2012-05-10T11:55:16Z</time>
      </trkpt>
      <trkpt lat="46.14795" lon="6.52465">
        <ele>918</ele>
        <time>2012-05-10T11:55:18Z</time>
      </trkpt>
      <trkpt lat="46.14808" lon="6.52471">
        <ele>924</ele>
        <time>2012-05-10T11:55:20Z</time>
      </trkpt>
      <trkpt lat="46.14817" lon="6.52474">
        <ele>924</ele>
        <time>2012-05-10T11:55:21Z</time>
      </trkpt>
      <trkpt lat="46.14829" lon="6.52483">
        <ele>924</ele>
        <time>2012-05-10T11:55:23Z</time>
      </trkpt>
      <trkpt lat="46.14841" lon="6.5249">
        <ele>931</ele>
        <time>2012-05-10T11:55:25Z</time>
      </trkpt>
      <trkpt lat="46.14855" lon="6.52493">
        <ele>931</ele>
        <time>2012-05-10T11:55:27Z</time>
      </trkpt>
      <trkpt lat="46.1487" lon="6.52491">
        <ele>931</ele>
        <time>2012-05-10T11:55:29Z</time>
      </trkpt>
      <trkpt lat="46.14882" lon="6.52498">
        <ele>931</ele>
        <time>2012-05-10T11:55:32Z</time>
      </trkpt>
      <trkpt lat="46.14887" lon="6.52512">
        <ele>931</ele>
        <time>2012-05-10T11:55:34Z</time>
      </trkpt>
      <trkpt lat="46.14891" lon="6.52525">
        <ele>931</ele>
        <time>2012-05-10T11:55:36Z</time>
      </trkpt>
      <trkpt lat="46.14895" lon="6.52538">
        <ele>937</ele>
        <time>2012-05-10T11:55:38Z</time>
      </trkpt>
      <trkpt lat="46.14903" lon="6.52549">
        <ele>937</ele>
        <time>2012-05-10T11:55:40Z</time>
      </trkpt>
      <trkpt lat="46.14911" lon="6.52563">
        <ele>937</ele>
        <time>2012-05-10T11:55:42Z</time>
      </trkpt>
      <trkpt lat="46.14916" lon="6.52576">
        <ele>942</ele>
        <time>2012-05-10T11:55:45Z</time>
      </trkpt>
      <trkpt lat="46.14923" lon="6.52589">
        <ele>942</ele>
        <time>2012-05-10T11:56:02Z</time>
      </trkpt>
      <trkpt lat="46.14936" lon="6.52598">
        <ele>942</ele>
        <time>2012-05-10T11:56:04Z</time>
      </trkpt>
      <trkpt lat="46.14946" lon="6.5261">
        <ele>942</ele>
        <time>2012-05-10T11:56:06Z</time>
      </trkpt>
      <trkpt lat="46.14954" lon="6.52623">
        <ele>948</ele>
        <time>2012-05-10T11:56:08Z</time>
      </trkpt>
      <trkpt lat="46.14964" lon="6.5264">
        <ele>948</ele>
        <time>2012-05-10T11:56:10Z</time>
      </trkpt>
      <trkpt lat="46.14972" lon="6.52648">
        <ele>948</ele>
        <time>2012-05-10T11:56:11Z</time>
      </trkpt>
      <trkpt lat="46.14986" lon="6.52658">
        <ele>954</ele>
        <time>2012-05-10T11:56:13Z</time>
      </trkpt>
      <trkpt lat="46.15001" lon="6.52667">
        <ele>954</ele>
        <time>2012-05-10T11:56:15Z</time>
      </trkpt>
      <trkpt lat="46.15009" lon="6.52676">
        <ele>948</ele>
        <time>2012-05-10T11:56:16Z</time>
      </trkpt>
      <trkpt lat="46.15024" lon="6.52694">
        <ele>948</ele>
        <time>2012-05-10T11:56:18Z</time>
      </trkpt>
      <trkpt lat="46.15033" lon="6.52703">
        <ele>948</ele>
        <time>2012-05-10T11:56:19Z</time>
      </trkpt>
      <trkpt lat="46.15038" lon="6.52716">
        <ele>948</ele>
        <time>2012-05-10T11:56:20Z</time>
      </trkpt>
      <trkpt lat="46.15049" lon="6.52728">
        <ele>948</ele>
        <time>2012-05-10T11:56:21Z</time>
      </trkpt>
      <trkpt lat="46.15059" lon="6.52737">
        <ele>948</ele>
        <time>2012-05-10T11:56:22Z</time>
      </trkpt>
      <trkpt lat="46.15067" lon="6.52748">
        <ele>948</ele>
        <time>2012-05-10T11:56:23Z</time>
      </trkpt>
      <trkpt lat="46.15074" lon="6.52758">
        <ele>948</ele>
        <time>2012-05-10T11:56:24Z</time>
      </trkpt>
      <trkpt lat="46.15096" lon="6.52782">
        <ele>948</ele>
        <time>2012-05-10T11:56:27Z</time>
      </trkpt>
      <trkpt lat="46.15106" lon="6.52792">
        <ele>948</ele>
        <time>2012-05-10T11:56:28Z</time>
      </trkpt>
      <trkpt lat="46.15114" lon="6.528">
        <ele>948</ele>
        <time>2012-05-10T11:56:29Z</time>
      </trkpt>
      <trkpt lat="46.15121" lon="6.52817">
        <ele>948</ele>
        <time>2012-05-10T11:56:31Z</time>
      </trkpt>
      <trkpt lat="46.15131" lon="6.52828">
        <ele>948</ele>
        <time>2012-05-10T11:56:33Z</time>
      </trkpt>
      <trkpt lat="46.15137" lon="6.52841">
        <ele>948</ele>
        <time>2012-05-10T11:56:35Z</time>
      </trkpt>
      <trkpt lat="46.15144" lon="6.52859">
        <ele>948</ele>
        <time>2012-05-10T11:56:37Z</time>
      </trkpt>
      <trkpt lat="46.15153" lon="6.52875">
        <ele>948</ele>
        <time>2012-05-10T11:56:39Z</time>
      </trkpt>
      <trkpt lat="46.15164" lon="6.52889">
        <ele>948</ele>
        <time>2012-05-10T11:56:41Z</time>
      </trkpt>
      <trkpt lat="46.15179" lon="6.52896">
        <ele>948</ele>
        <time>2012-05-10T11:56:43Z</time>
      </trkpt>
      <trkpt lat="46.1519" lon="6.52903">
        <ele>948</ele>
        <time>2012-05-10T11:56:45Z</time>
      </trkpt>
      <trkpt lat="46.152" lon="6.52914">
        <ele>948</ele>
        <time>2012-05-10T11:56:47Z</time>
      </trkpt>
      <trkpt lat="46.15211" lon="6.52929">
        <ele>943</ele>
        <time>2012-05-10T11:56:49Z</time>
      </trkpt>
      <trkpt lat="46.15217" lon="6.52952">
        <ele>943</ele>
        <time>2012-05-10T11:56:51Z</time>
      </trkpt>
      <trkpt lat="46.15219" lon="6.52965">
        <ele>943</ele>
        <time>2012-05-10T11:56:52Z</time>
      </trkpt>
      <trkpt lat="46.15224" lon="6.52988">
        <ele>937</ele>
        <time>2012-05-10T11:56:54Z</time>
      </trkpt>
      <trkpt lat="46.15229" lon="6.5301">
        <ele>937</ele>
        <time>2012-05-10T11:56:56Z</time>
      </trkpt>
      <trkpt lat="46.15229" lon="6.53032">
        <ele>932</ele>
        <time>2012-05-10T11:56:58Z</time>
      </trkpt>
      <trkpt lat="46.1523" lon="6.53046">
        <ele>932</ele>
        <time>2012-05-10T11:56:59Z</time>
      </trkpt>
      <trkpt lat="46.1523" lon="6.5306">
        <ele>932</ele>
        <time>2012-05-10T11:57:00Z</time>
      </trkpt>
      <trkpt lat="46.15232" lon="6.53073">
        <ele>932</ele>
        <time>2012-05-10T11:57:01Z</time>
      </trkpt>
      <trkpt lat="46.15234" lon="6.53087">
        <ele>932</ele>
        <time>2012-05-10T11:57:02Z</time>
      </trkpt>
      <trkpt lat="46.15239" lon="6.53102">
        <ele>932</ele>
        <time>2012-05-10T11:57:03Z</time>
      </trkpt>
      <trkpt lat="46.15245" lon="6.53117">
        <ele>938</ele>
        <time>2012-05-10T11:57:04Z</time>
      </trkpt>
      <trkpt lat="46.15252" lon="6.53132">
        <ele>938</ele>
        <time>2012-05-10T11:57:05Z</time>
      </trkpt>
      <trkpt lat="46.15258" lon="6.53144">
        <ele>938</ele>
        <time>2012-05-10T11:57:06Z</time>
      </trkpt>
      <trkpt lat="46.15263" lon="6.53156">
        <ele>938</ele>
        <time>2012-05-10T11:57:07Z</time>
      </trkpt>
      <trkpt lat="46.15267" lon="6.53169">
        <ele>938</ele>
        <time>2012-05-10T11:57:08Z</time>
      </trkpt>
      <trkpt lat="46.15274" lon="6.53181">
        <ele>943</ele>
        <time>2012-05-10T11:57:09Z</time>
      </trkpt>
      <trkpt lat="46.15279" lon="6.53192">
        <ele>943</ele>
        <time>2012-05-10T11:57:10Z</time>
      </trkpt>
      <trkpt lat="46.15287" lon="6.53214">
        <ele>943</ele>
        <time>2012-05-10T11:57:12Z</time>
      </trkpt>
      <trkpt lat="46.15294" lon="6.53235">
        <ele>943</ele>
        <time>2012-05-10T11:57:14Z</time>
      </trkpt>
      <trkpt lat="46.15301" lon="6.53249">
        <ele>943</ele>
        <time>2012-05-10T11:57:16Z</time>
      </trkpt>
      <trkpt lat="46.15312" lon="6.53254">
        <ele>943</ele>
        <time>2012-05-10T11:57:18Z</time>
      </trkpt>
      <trkpt lat="46.15328" lon="6.5325">
        <ele>943</ele>
        <time>2012-05-10T11:57:20Z</time>
      </trkpt>
      <trkpt lat="46.15344" lon="6.53242">
        <ele>943</ele>
        <time>2012-05-10T11:57:22Z</time>
      </trkpt>
      <trkpt lat="46.15353" lon="6.53229">
        <ele>943</ele>
        <time>2012-05-10T11:57:24Z</time>
      </trkpt>
      <trkpt lat="46.15357" lon="6.53206">
        <ele>943</ele>
        <time>2012-05-10T11:57:26Z</time>
      </trkpt>
      <trkpt lat="46.1536" lon="6.53192">
        <ele>943</ele>
        <time>2012-05-10T11:57:27Z</time>
      </trkpt>
      <trkpt lat="46.15362" lon="6.53175">
        <ele>950</ele>
        <time>2012-05-10T11:57:28Z</time>
      </trkpt>
      <trkpt lat="46.15367" lon="6.53153">
        <ele>950</ele>
        <time>2012-05-10T11:57:30Z</time>
      </trkpt>
      <trkpt lat="46.1537" lon="6.53141">
        <ele>950</ele>
        <time>2012-05-10T11:57:32Z</time>
      </trkpt>
      <trkpt lat="46.15367" lon="6.53125">
        <ele>950</ele>
        <time>2012-05-10T11:57:43Z</time>
      </trkpt>
      <trkpt lat="46.15362" lon="6.53103">
        <ele>950</ele>
        <time>2012-05-10T11:57:45Z</time>
      </trkpt>
      <trkpt lat="46.15362" lon="6.53075">
        <ele>950</ele>
        <time>2012-05-10T11:57:47Z</time>
      </trkpt>
      <trkpt lat="46.15362" lon="6.53061">
        <ele>950</ele>
        <time>2012-05-10T11:57:48Z</time>
      </trkpt>
      <trkpt lat="46.15362" lon="6.53046">
        <ele>944</ele>
        <time>2012-05-10T11:57:49Z</time>
      </trkpt>
      <trkpt lat="46.15361" lon="6.5303">
        <ele>944</ele>
        <time>2012-05-10T11:57:50Z</time>
      </trkpt>
      <trkpt lat="46.15358" lon="6.53013">
        <ele>944</ele>
        <time>2012-05-10T11:57:51Z</time>
      </trkpt>
      <trkpt lat="46.15353" lon="6.52994">
        <ele>944</ele>
        <time>2012-05-10T11:57:52Z</time>
      </trkpt>
      <trkpt lat="46.15348" lon="6.52976">
        <ele>939</ele>
        <time>2012-05-10T11:57:53Z</time>
      </trkpt>
      <trkpt lat="46.15345" lon="6.52958">
        <ele>939</ele>
        <time>2012-05-10T11:57:54Z</time>
      </trkpt>
      <trkpt lat="46.15342" lon="6.52941">
        <ele>939</ele>
        <time>2012-05-10T11:57:55Z</time>
      </trkpt>
      <trkpt lat="46.15339" lon="6.52925">
        <ele>939</ele>
        <time>2012-05-10T11:57:56Z</time>
      </trkpt>
      <trkpt lat="46.15336" lon="6.5291">
        <ele>939</ele>
        <time>2012-05-10T11:57:57Z</time>
      </trkpt>
      <trkpt lat="46.15333" lon="6.52897">
        <ele>939</ele>
        <time>2012-05-10T11:57:58Z</time>
      </trkpt>
      <trkpt lat="46.15328" lon="6.52878">
        <ele>933</ele>
        <time>2012-05-10T11:58:00Z</time>
      </trkpt>
      <trkpt lat="46.15325" lon="6.52861">
        <ele>933</ele>
        <time>2012-05-10T11:58:02Z</time>
      </trkpt>
      <trkpt lat="46.15319" lon="6.52841">
        <ele>933</ele>
        <time>2012-05-10T11:58:04Z</time>
      </trkpt>
      <trkpt lat="46.15313" lon="6.52817">
        <ele>933</ele>
        <time>2012-05-10T11:58:06Z</time>
      </trkpt>
      <trkpt lat="46.15309" lon="6.528">
        <ele>933</ele>
        <time>2012-05-10T11:58:08Z</time>
      </trkpt>
      <trkpt lat="46.15306" lon="6.52788">
        <ele>943</ele>
        <time>2012-05-10T11:58:13Z</time>
      </trkpt>
      <trkpt lat="46.15305" lon="6.52772">
        <ele>954</ele>
        <time>2012-05-10T11:58:41Z</time>
      </trkpt>
      <trkpt lat="46.15305" lon="6.52757">
        <ele>954</ele>
        <time>2012-05-10T11:58:43Z</time>
      </trkpt>
      <trkpt lat="46.15309" lon="6.52735">
        <ele>954</ele>
        <time>2012-05-10T11:58:45Z</time>
      </trkpt>
      <trkpt lat="46.15312" lon="6.52711">
        <ele>954</ele>
        <time>2012-05-10T11:58:47Z</time>
      </trkpt>
      <trkpt lat="46.15315" lon="6.52694">
        <ele>949</ele>
        <time>2012-05-10T11:58:49Z</time>
      </trkpt>
      <trkpt lat="46.15319" lon="6.52676">
        <ele>949</ele>
        <time>2012-05-10T11:58:51Z</time>
      </trkpt>
      <trkpt lat="46.15322" lon="6.52658">
        <ele>949</ele>
        <time>2012-05-10T11:58:53Z</time>
      </trkpt>
      <trkpt lat="46.15327" lon="6.52636">
        <ele>949</ele>
        <time>2012-05-10T11:58:55Z</time>
      </trkpt>
      <trkpt lat="46.1533" lon="6.52613">
        <ele>949</ele>
        <time>2012-05-10T11:58:57Z</time>
      </trkpt>
      <trkpt lat="46.1533" lon="6.52598">
        <ele>949</ele>
        <time>2012-05-10T11:58:58Z</time>
      </trkpt>
      <trkpt lat="46.15333" lon="6.52573">
        <ele>954</ele>
        <time>2012-05-10T11:59:00Z</time>
      </trkpt>
      <trkpt lat="46.15338" lon="6.52552">
        <ele>954</ele>
        <time>2012-05-10T11:59:02Z</time>
      </trkpt>
      <trkpt lat="46.15343" lon="6.5253">
        <ele>954</ele>
        <time>2012-05-10T11:59:04Z</time>
      </trkpt>
      <trkpt lat="46.15346" lon="6.52506">
        <ele>954</ele>
        <time>2012-05-10T11:59:06Z</time>
      </trkpt>
      <trkpt lat="46.15348" lon="6.5248">
        <ele>954</ele>
        <time>2012-05-10T11:59:08Z</time>
      </trkpt>
      <trkpt lat="46.15349" lon="6.52455">
        <ele>954</ele>
        <time>2012-05-10T11:59:10Z</time>
      </trkpt>
      <trkpt lat="46.15348" lon="6.52434">
        <ele>954</ele>
        <time>2012-05-10T11:59:12Z</time>
      </trkpt>
      <trkpt lat="46.1535" lon="6.52415">
        <ele>959</ele>
        <time>2012-05-10T11:59:14Z</time>
      </trkpt>
      <trkpt lat="46.15353" lon="6.52399">
        <ele>959</ele>
        <time>2012-05-10T11:59:16Z</time>
      </trkpt>
      <trkpt lat="46.15359" lon="6.52388">
        <ele>959</ele>
        <time>2012-05-10T11:59:20Z</time>
      </trkpt>
      <trkpt lat="46.15363" lon="6.52368">
        <ele>959</ele>
        <time>2012-05-10T11:59:34Z</time>
      </trkpt>
      <trkpt lat="46.15368" lon="6.52351">
        <ele>959</ele>
        <time>2012-05-10T11:59:36Z</time>
      </trkpt>
      <trkpt lat="46.15373" lon="6.52333">
        <ele>959</ele>
        <time>2012-05-10T11:59:38Z</time>
      </trkpt>
      <trkpt lat="46.15378" lon="6.52313">
        <ele>959</ele>
        <time>2012-05-10T11:59:40Z</time>
      </trkpt>
      <trkpt lat="46.1538" lon="6.52296">
        <ele>959</ele>
        <time>2012-05-10T11:59:42Z</time>
      </trkpt>
      <trkpt lat="46.15377" lon="6.5228">
        <ele>959</ele>
        <time>2012-05-10T11:59:45Z</time>
      </trkpt>
      <trkpt lat="46.15378" lon="6.523">
        <ele>959</ele>
        <time>2012-05-10T11:59:57Z</time>
      </trkpt>
      <trkpt lat="46.15375" lon="6.52321">
        <ele>959</ele>
        <time>2012-05-10T11:59:59Z</time>
      </trkpt>
      <trkpt lat="46.1537" lon="6.52341">
        <ele>959</ele>
        <time>2012-05-10T12:00:01Z</time>
      </trkpt>
      <trkpt lat="46.15364" lon="6.52363">
        <ele>959</ele>
        <time>2012-05-10T12:00:03Z</time>
      </trkpt>
      <trkpt lat="46.1536" lon="6.52381">
        <ele>959</ele>
        <time>2012-05-10T12:00:05Z</time>
      </trkpt>
      <trkpt lat="46.15358" lon="6.52395">
        <ele>959</ele>
        <time>2012-05-10T12:00:07Z</time>
      </trkpt>
      <trkpt lat="46.15365" lon="6.52411">
        <ele>966</ele>
        <time>2012-05-10T12:00:10Z</time>
      </trkpt>
      <trkpt lat="46.15369" lon="6.52423">
        <ele>966</ele>
        <time>2012-05-10T12:00:12Z</time>
      </trkpt>
      <trkpt lat="46.15374" lon="6.52437">
        <ele>966</ele>
        <time>2012-05-10T12:00:14Z</time>
      </trkpt>
      <trkpt lat="46.15378" lon="6.52451">
        <ele>972</ele>
        <time>2012-05-10T12:00:16Z</time>
      </trkpt>
      <trkpt lat="46.15382" lon="6.52464">
        <ele>972</ele>
        <time>2012-05-10T12:00:18Z</time>
      </trkpt>
      <trkpt lat="46.15383" lon="6.52481">
        <ele>979</ele>
        <time>2012-05-10T12:00:21Z</time>
      </trkpt>
      <trkpt lat="46.15389" lon="6.52499">
        <ele>979</ele>
        <time>2012-05-10T12:00:24Z</time>
      </trkpt>
      <trkpt lat="46.15396" lon="6.52516">
        <ele>979</ele>
        <time>2012-05-10T12:00:26Z</time>
      </trkpt>
      <trkpt lat="46.15401" lon="6.52531">
        <ele>985</ele>
        <time>2012-05-10T12:00:28Z</time>
      </trkpt>
      <trkpt lat="46.15408" lon="6.52545">
        <ele>985</ele>
        <time>2012-05-10T12:00:30Z</time>
      </trkpt>
      <trkpt lat="46.15415" lon="6.52561">
        <ele>985</ele>
        <time>2012-05-10T12:00:33Z</time>
      </trkpt>
      <trkpt lat="46.15419" lon="6.52573">
        <ele>993</ele>
        <time>2012-05-10T12:00:35Z</time>
      </trkpt>
      <trkpt lat="46.15423" lon="6.52586">
        <ele>993</ele>
        <time>2012-05-10T12:00:37Z</time>
      </trkpt>
      <trkpt lat="46.15425" lon="6.526">
        <ele>993</ele>
        <time>2012-05-10T12:00:39Z</time>
      </trkpt>
      <trkpt lat="46.15427" lon="6.52616">
        <ele>999</ele>
        <time>2012-05-10T12:00:41Z</time>
      </trkpt>
      <trkpt lat="46.15431" lon="6.52633">
        <ele>999</ele>
        <time>2012-05-10T12:00:43Z</time>
      </trkpt>
      <trkpt lat="46.15438" lon="6.52653">
        <ele>1009</ele>
        <time>2012-05-10T12:00:45Z</time>
      </trkpt>
      <trkpt lat="46.15442" lon="6.52674">
        <ele>1009</ele>
        <time>2012-05-10T12:00:47Z</time>
      </trkpt>
      <trkpt lat="46.15446" lon="6.52696">
        <ele>1015</ele>
        <time>2012-05-10T12:00:49Z</time>
      </trkpt>
      <trkpt lat="46.1545" lon="6.52718">
        <ele>1015</ele>
        <time>2012-05-10T12:00:51Z</time>
      </trkpt>
      <trkpt lat="46.15454" lon="6.52738">
        <ele>1015</ele>
        <time>2012-05-10T12:00:53Z</time>
      </trkpt>
      <trkpt lat="46.15458" lon="6.52758">
        <ele>1020</ele>
        <time>2012-05-10T12:00:55Z</time>
      </trkpt>
      <trkpt lat="46.15463" lon="6.52775">
        <ele>1020</ele>
        <time>2012-05-10T12:00:57Z</time>
      </trkpt>
      <trkpt lat="46.15468" lon="6.52789">
        <ele>1027</ele>
        <time>2012-05-10T12:00:59Z</time>
      </trkpt>
      <trkpt lat="46.15475" lon="6.52802">
        <ele>1033</ele>
        <time>2012-05-10T12:01:07Z</time>
      </trkpt>
      <trkpt lat="46.15484" lon="6.52816">
        <ele>1033</ele>
        <time>2012-05-10T12:01:09Z</time>
      </trkpt>
      <trkpt lat="46.15494" lon="6.52835">
        <ele>1026</ele>
        <time>2012-05-10T12:01:11Z</time>
      </trkpt>
      <trkpt lat="46.15499" lon="6.52848">
        <ele>1026</ele>
        <time>2012-05-10T12:01:12Z</time>
      </trkpt>
      <trkpt lat="46.15509" lon="6.52867">
        <ele>1026</ele>
        <time>2012-05-10T12:01:14Z</time>
      </trkpt>
      <trkpt lat="46.15521" lon="6.52884">
        <ele>1026</ele>
        <time>2012-05-10T12:01:16Z</time>
      </trkpt>
      <trkpt lat="46.1553" lon="6.52896">
        <ele>1033</ele>
        <time>2012-05-10T12:01:18Z</time>
      </trkpt>
      <trkpt lat="46.15538" lon="6.52906">
        <ele>1033</ele>
        <time>2012-05-10T12:01:20Z</time>
      </trkpt>
      <trkpt lat="46.15543" lon="6.52922">
        <ele>1038</ele>
        <time>2012-05-10T12:01:29Z</time>
      </trkpt>
      <trkpt lat="46.15548" lon="6.52937">
        <ele>1038</ele>
        <time>2012-05-10T12:01:32Z</time>
      </trkpt>
      <trkpt lat="46.15558" lon="6.5294">
        <ele>1038</ele>
        <time>2012-05-10T12:01:36Z</time>
      </trkpt>
      <trkpt lat="46.15566" lon="6.52928">
        <ele>1046</ele>
        <time>2012-05-10T12:01:50Z</time>
      </trkpt>
      <trkpt lat="46.15568" lon="6.52911">
        <ele>1046</ele>
        <time>2012-05-10T12:01:53Z</time>
      </trkpt>
      <trkpt lat="46.15566" lon="6.52895">
        <ele>1046</ele>
        <time>2012-05-10T12:01:55Z</time>
      </trkpt>
      <trkpt lat="46.15563" lon="6.52874">
        <ele>1046</ele>
        <time>2012-05-10T12:01:57Z</time>
      </trkpt>
      <trkpt lat="46.15558" lon="6.52852">
        <ele>1046</ele>
        <time>2012-05-10T12:01:59Z</time>
      </trkpt>
      <trkpt lat="46.15554" lon="6.52835">
        <ele>1046</ele>
        <time>2012-05-10T12:02:01Z</time>
      </trkpt>
      <trkpt lat="46.15551" lon="6.52821">
        <ele>1046</ele>
        <time>2012-05-10T12:02:05Z</time>
      </trkpt>
      <trkpt lat="46.15551" lon="6.52802">
        <ele>1046</ele>
        <time>2012-05-10T12:02:19Z</time>
      </trkpt>
      <trkpt lat="46.15549" lon="6.52779">
        <ele>1046</ele>
        <time>2012-05-10T12:02:21Z</time>
      </trkpt>
      <trkpt lat="46.15546" lon="6.52763">
        <ele>1051</ele>
        <time>2012-05-10T12:02:22Z</time>
      </trkpt>
      <trkpt lat="46.15544" lon="6.52747">
        <ele>1051</ele>
        <time>2012-05-10T12:02:23Z</time>
      </trkpt>
      <trkpt lat="46.15542" lon="6.52732">
        <ele>1051</ele>
        <time>2012-05-10T12:02:24Z</time>
      </trkpt>
      <trkpt lat="46.1554" lon="6.52717">
        <ele>1051</ele>
        <time>2012-05-10T12:02:25Z</time>
      </trkpt>
      <trkpt lat="46.15538" lon="6.52702">
        <ele>1051</ele>
        <time>2012-05-10T12:02:26Z</time>
      </trkpt>
      <trkpt lat="46.15536" lon="6.52687">
        <ele>1051</ele>
        <time>2012-05-10T12:02:27Z</time>
      </trkpt>
      <trkpt lat="46.15534" lon="6.52672">
        <ele>1051</ele>
        <time>2012-05-10T12:02:28Z</time>
      </trkpt>
      <trkpt lat="46.15533" lon="6.52658">
        <ele>1051</ele>
        <time>2012-05-10T12:02:29Z</time>
      </trkpt>
      <trkpt lat="46.15533" lon="6.52642">
        <ele>1051</ele>
        <time>2012-05-10T12:02:30Z</time>
      </trkpt>
      <trkpt lat="46.15534" lon="6.52628">
        <ele>1051</ele>
        <time>2012-05-10T12:02:31Z</time>
      </trkpt>
      <trkpt lat="46.15536" lon="6.52614">
        <ele>1051</ele>
        <time>2012-05-10T12:02:32Z</time>
      </trkpt>
      <trkpt lat="46.15536" lon="6.52597">
        <ele>1051</ele>
        <time>2012-05-10T12:02:33Z</time>
      </trkpt>
      <trkpt lat="46.15534" lon="6.52582">
        <ele>1057</ele>
        <time>2012-05-10T12:02:34Z</time>
      </trkpt>
      <trkpt lat="46.15531" lon="6.52567">
        <ele>1057</ele>
        <time>2012-05-10T12:02:35Z</time>
      </trkpt>
      <trkpt lat="46.15529" lon="6.52551">
        <ele>1057</ele>
        <time>2012-05-10T12:02:36Z</time>
      </trkpt>
      <trkpt lat="46.15528" lon="6.52535">
        <ele>1057</ele>
        <time>2012-05-10T12:02:37Z</time>
      </trkpt>
      <trkpt lat="46.15527" lon="6.5252">
        <ele>1057</ele>
        <time>2012-05-10T12:02:38Z</time>
      </trkpt>
      <trkpt lat="46.15527" lon="6.52503">
        <ele>1062</ele>
        <time>2012-05-10T12:02:39Z</time>
      </trkpt>
      <trkpt lat="46.15529" lon="6.52486">
        <ele>1062</ele>
        <time>2012-05-10T12:02:40Z</time>
      </trkpt>
      <trkpt lat="46.15531" lon="6.5247">
        <ele>1062</ele>
        <time>2012-05-10T12:02:41Z</time>
      </trkpt>
      <trkpt lat="46.15534" lon="6.52455">
        <ele>1062</ele>
        <time>2012-05-10T12:02:42Z</time>
      </trkpt>
      <trkpt lat="46.15536" lon="6.52441">
        <ele>1062</ele>
        <time>2012-05-10T12:02:43Z</time>
      </trkpt>
      <trkpt lat="46.15539" lon="6.52418">
        <ele>1062</ele>
        <time>2012-05-10T12:02:45Z</time>
      </trkpt>
      <trkpt lat="46.15551" lon="6.52403">
        <ele>1062</ele>
        <time>2012-05-10T12:02:47Z</time>
      </trkpt>
      <trkpt lat="46.15566" lon="6.52388">
        <ele>1062</ele>
        <time>2012-05-10T12:02:49Z</time>
      </trkpt>
      <trkpt lat="46.15574" lon="6.52374">
        <ele>1062</ele>
        <time>2012-05-10T12:02:51Z</time>
      </trkpt>
      <trkpt lat="46.1558" lon="6.52363">
        <ele>1062</ele>
        <time>2012-05-10T12:02:53Z</time>
      </trkpt>
      <trkpt lat="46.1558" lon="6.52377">
        <ele>1069</ele>
        <time>2012-05-10T12:03:12Z</time>
      </trkpt>
      <trkpt lat="46.15576" lon="6.52399">
        <ele>1069</ele>
        <time>2012-05-10T12:03:14Z</time>
      </trkpt>
      <trkpt lat="46.15574" lon="6.52425">
        <ele>1069</ele>
        <time>2012-05-10T12:03:16Z</time>
      </trkpt>
      <trkpt lat="46.15575" lon="6.52449">
        <ele>1069</ele>
        <time>2012-05-10T12:03:18Z</time>
      </trkpt>
      <trkpt lat="46.15577" lon="6.52476">
        <ele>1069</ele>
        <time>2012-05-10T12:03:20Z</time>
      </trkpt>
      <trkpt lat="46.15579" lon="6.52492">
        <ele>1069</ele>
        <time>2012-05-10T12:03:21Z</time>
      </trkpt>
      <trkpt lat="46.15581" lon="6.52508">
        <ele>1075</ele>
        <time>2012-05-10T12:03:22Z</time>
      </trkpt>
      <trkpt lat="46.15583" lon="6.52525">
        <ele>1075</ele>
        <time>2012-05-10T12:03:23Z</time>
      </trkpt>
      <trkpt lat="46.15586" lon="6.52541">
        <ele>1075</ele>
        <time>2012-05-10T12:03:24Z</time>
      </trkpt>
      <trkpt lat="46.15591" lon="6.52557">
        <ele>1075</ele>
        <time>2012-05-10T12:03:25Z</time>
      </trkpt>
      <trkpt lat="46.15596" lon="6.52572">
        <ele>1075</ele>
        <time>2012-05-10T12:03:26Z</time>
      </trkpt>
      <trkpt lat="46.15602" lon="6.52588">
        <ele>1082</ele>
        <time>2012-05-10T12:03:27Z</time>
      </trkpt>
      <trkpt lat="46.15607" lon="6.52603">
        <ele>1082</ele>
        <time>2012-05-10T12:03:28Z</time>
      </trkpt>
      <trkpt lat="46.15613" lon="6.52615">
        <ele>1082</ele>
        <time>2012-05-10T12:03:29Z</time>
      </trkpt>
      <trkpt lat="46.15624" lon="6.52632">
        <ele>1082</ele>
        <time>2012-05-10T12:03:31Z</time>
      </trkpt>
      <trkpt lat="46.15634" lon="6.52639">
        <ele>1082</ele>
        <time>2012-05-10T12:03:33Z</time>
      </trkpt>
      <trkpt lat="46.15643" lon="6.52631">
        <ele>1087</ele>
        <time>2012-05-10T12:03:35Z</time>
      </trkpt>
      <trkpt lat="46.15647" lon="6.52612">
        <ele>1087</ele>
        <time>2012-05-10T12:03:37Z</time>
      </trkpt>
      <trkpt lat="46.15642" lon="6.52587">
        <ele>1087</ele>
        <time>2012-05-10T12:03:39Z</time>
      </trkpt>
      <trkpt lat="46.15641" lon="6.52562">
        <ele>1087</ele>
        <time>2012-05-10T12:03:41Z</time>
      </trkpt>
      <trkpt lat="46.15646" lon="6.52542">
        <ele>1087</ele>
        <time>2012-05-10T12:03:43Z</time>
      </trkpt>
      <trkpt lat="46.15654" lon="6.52523">
        <ele>1092</ele>
        <time>2012-05-10T12:03:45Z</time>
      </trkpt>
      <trkpt lat="46.15664" lon="6.52505">
        <ele>1092</ele>
        <time>2012-05-10T12:03:47Z</time>
      </trkpt>
      <trkpt lat="46.15678" lon="6.52489">
        <ele>1092</ele>
        <time>2012-05-10T12:03:49Z</time>
      </trkpt>
      <trkpt lat="46.15686" lon="6.5248">
        <ele>1092</ele>
        <time>2012-05-10T12:03:50Z</time>
      </trkpt>
      <trkpt lat="46.15694" lon="6.52471">
        <ele>1098</ele>
        <time>2012-05-10T12:03:51Z</time>
      </trkpt>
      <trkpt lat="46.15703" lon="6.52461">
        <ele>1098</ele>
        <time>2012-05-10T12:03:52Z</time>
      </trkpt>
      <trkpt lat="46.15712" lon="6.52451">
        <ele>1098</ele>
        <time>2012-05-10T12:03:53Z</time>
      </trkpt>
      <trkpt lat="46.15722" lon="6.52439">
        <ele>1098</ele>
        <time>2012-05-10T12:03:54Z</time>
      </trkpt>
      <trkpt lat="46.15734" lon="6.52427">
        <ele>1098</ele>
        <time>2012-05-10T12:03:55Z</time>
      </trkpt>
      <trkpt lat="46.15746" lon="6.52413">
        <ele>1103</ele>
        <time>2012-05-10T12:03:56Z</time>
      </trkpt>
      <trkpt lat="46.15759" lon="6.52401">
        <ele>1103</ele>
        <time>2012-05-10T12:03:57Z</time>
      </trkpt>
      <trkpt lat="46.15773" lon="6.52388">
        <ele>1103</ele>
        <time>2012-05-10T12:03:58Z</time>
      </trkpt>
      <trkpt lat="46.15788" lon="6.52375">
        <ele>1103</ele>
        <time>2012-05-10T12:03:59Z</time>
      </trkpt>
      <trkpt lat="46.15803" lon="6.52363">
        <ele>1108</ele>
        <time>2012-05-10T12:04:00Z</time>
      </trkpt>
      <trkpt lat="46.15818" lon="6.52352">
        <ele>1108</ele>
        <time>2012-05-10T12:04:01Z</time>
      </trkpt>
      <trkpt lat="46.15834" lon="6.52341">
        <ele>1108</ele>
        <time>2012-05-10T12:04:02Z</time>
      </trkpt>
      <trkpt lat="46.1585" lon="6.52331">
        <ele>1108</ele>
        <time>2012-05-10T12:04:03Z</time>
      </trkpt>
      <trkpt lat="46.15864" lon="6.52322">
        <ele>1108</ele>
        <time>2012-05-10T12:04:04Z</time>
      </trkpt>
      <trkpt lat="46.15878" lon="6.52313">
        <ele>1114</ele>
        <time>2012-05-10T12:04:05Z</time>
      </trkpt>
      <trkpt lat="46.1589" lon="6.52306">
        <ele>1114</ele>
        <time>2012-05-10T12:04:06Z</time>
      </trkpt>
      <trkpt lat="46.159" lon="6.523">
        <ele>1114</ele>
        <time>2012-05-10T12:04:07Z</time>
      </trkpt>
      <trkpt lat="46.1591" lon="6.52296">
        <ele>1114</ele>
        <time>2012-05-10T12:04:08Z</time>
      </trkpt>
      <trkpt lat="46.15923" lon="6.52291">
        <ele>1121</ele>
        <time>2012-05-10T12:04:10Z</time>
      </trkpt>
      <trkpt lat="46.15934" lon="6.52296">
        <ele>1121</ele>
        <time>2012-05-10T12:04:13Z</time>
      </trkpt>
      <trkpt lat="46.15944" lon="6.52296">
        <ele>1121</ele>
        <time>2012-05-10T12:04:18Z</time>
      </trkpt>
      <trkpt lat="46.15936" lon="6.52311">
        <ele>1121</ele>
        <time>2012-05-10T12:04:36Z</time>
      </trkpt>
      <trkpt lat="46.15923" lon="6.52325">
        <ele>1126</ele>
        <time>2012-05-10T12:04:38Z</time>
      </trkpt>
      <trkpt lat="46.15914" lon="6.52332">
        <ele>1126</ele>
        <time>2012-05-10T12:04:39Z</time>
      </trkpt>
      <trkpt lat="46.15905" lon="6.5234">
        <ele>1126</ele>
        <time>2012-05-10T12:04:40Z</time>
      </trkpt>
      <trkpt lat="46.15897" lon="6.52349">
        <ele>1126</ele>
        <time>2012-05-10T12:04:41Z</time>
      </trkpt>
      <trkpt lat="46.15888" lon="6.5236">
        <ele>1126</ele>
        <time>2012-05-10T12:04:42Z</time>
      </trkpt>
      <trkpt lat="46.1588" lon="6.52374">
        <ele>1126</ele>
        <time>2012-05-10T12:04:43Z</time>
      </trkpt>
      <trkpt lat="46.15873" lon="6.52388">
        <ele>1126</ele>
        <time>2012-05-10T12:04:44Z</time>
      </trkpt>
      <trkpt lat="46.15867" lon="6.52405">
        <ele>1126</ele>
        <time>2012-05-10T12:04:45Z</time>
      </trkpt>
      <trkpt lat="46.15862" lon="6.52424">
        <ele>1132</ele>
        <time>2012-05-10T12:04:46Z</time>
      </trkpt>
      <trkpt lat="46.15857" lon="6.52444">
        <ele>1132</ele>
        <time>2012-05-10T12:04:47Z</time>
      </trkpt>
      <trkpt lat="46.15852" lon="6.52464">
        <ele>1132</ele>
        <time>2012-05-10T12:04:48Z</time>
      </trkpt>
      <trkpt lat="46.15847" lon="6.52484">
        <ele>1132</ele>
        <time>2012-05-10T12:04:49Z</time>
      </trkpt>
      <trkpt lat="46.15842" lon="6.52504">
        <ele>1132</ele>
        <time>2012-05-10T12:04:50Z</time>
      </trkpt>
      <trkpt lat="46.15837" lon="6.52522">
        <ele>1132</ele>
        <time>2012-05-10T12:04:51Z</time>
      </trkpt>
      <trkpt lat="46.15833" lon="6.52538">
        <ele>1138</ele>
        <time>2012-05-10T12:04:52Z</time>
      </trkpt>
      <trkpt lat="46.15829" lon="6.52552">
        <ele>1138</ele>
        <time>2012-05-10T12:04:53Z</time>
      </trkpt>
      <trkpt lat="46.15825" lon="6.52566">
        <ele>1138</ele>
        <time>2012-05-10T12:04:54Z</time>
      </trkpt>
      <trkpt lat="46.15823" lon="6.52588">
        <ele>1138</ele>
        <time>2012-05-10T12:04:56Z</time>
      </trkpt>
      <trkpt lat="46.15828" lon="6.52606">
        <ele>1138</ele>
        <time>2012-05-10T12:04:58Z</time>
      </trkpt>
      <trkpt lat="46.15842" lon="6.52608">
        <ele>1144</ele>
        <time>2012-05-10T12:05:00Z</time>
      </trkpt>
      <trkpt lat="46.15855" lon="6.52592">
        <ele>1144</ele>
        <time>2012-05-10T12:05:02Z</time>
      </trkpt>
      <trkpt lat="46.15862" lon="6.5258">
        <ele>1144</ele>
        <time>2012-05-10T12:05:03Z</time>
      </trkpt>
      <trkpt lat="46.1587" lon="6.52569">
        <ele>1144</ele>
        <time>2012-05-10T12:05:04Z</time>
      </trkpt>
      <trkpt lat="46.15878" lon="6.52559">
        <ele>1144</ele>
        <time>2012-05-10T12:05:05Z</time>
      </trkpt>
      <trkpt lat="46.15888" lon="6.52548">
        <ele>1144</ele>
        <time>2012-05-10T12:05:06Z</time>
      </trkpt>
      <trkpt lat="46.159" lon="6.52538">
        <ele>1149</ele>
        <time>2012-05-10T12:05:07Z</time>
      </trkpt>
      <trkpt lat="46.15913" lon="6.52528">
        <ele>1149</ele>
        <time>2012-05-10T12:05:08Z</time>
      </trkpt>
      <trkpt lat="46.15926" lon="6.52517">
        <ele>1149</ele>
        <time>2012-05-10T12:05:09Z</time>
      </trkpt>
      <trkpt lat="46.15941" lon="6.52507">
        <ele>1149</ele>
        <time>2012-05-10T12:05:10Z</time>
      </trkpt>
      <trkpt lat="46.15956" lon="6.52495">
        <ele>1156</ele>
        <time>2012-05-10T12:05:11Z</time>
      </trkpt>
      <trkpt lat="46.15971" lon="6.52484">
        <ele>1156</ele>
        <time>2012-05-10T12:05:12Z</time>
      </trkpt>
      <trkpt lat="46.15985" lon="6.52472">
        <ele>1156</ele>
        <time>2012-05-10T12:05:13Z</time>
      </trkpt>
      <trkpt lat="46.15998" lon="6.52463">
        <ele>1156</ele>
        <time>2012-05-10T12:05:14Z</time>
      </trkpt>
      <trkpt lat="46.1601" lon="6.52454">
        <ele>1163</ele>
        <time>2012-05-10T12:05:15Z</time>
      </trkpt>
      <trkpt lat="46.16021" lon="6.52446">
        <ele>1163</ele>
        <time>2012-05-10T12:05:16Z</time>
      </trkpt>
      <trkpt lat="46.16031" lon="6.52437">
        <ele>1163</ele>
        <time>2012-05-10T12:05:17Z</time>
      </trkpt>
      <trkpt lat="46.16039" lon="6.52423">
        <ele>1169</ele>
        <time>2012-05-10T12:05:18Z</time>
      </trkpt>
      <trkpt lat="46.16042" lon="6.52404">
        <ele>1169</ele>
        <time>2012-05-10T12:05:19Z</time>
      </trkpt>
      <trkpt lat="46.16043" lon="6.52383">
        <ele>1169</ele>
        <time>2012-05-10T12:05:20Z</time>
      </trkpt>
      <trkpt lat="46.16041" lon="6.52362">
        <ele>1169</ele>
        <time>2012-05-10T12:05:21Z</time>
      </trkpt>
      <trkpt lat="46.16038" lon="6.52344">
        <ele>1169</ele>
        <time>2012-05-10T12:05:22Z</time>
      </trkpt>
      <trkpt lat="46.16034" lon="6.52327">
        <ele>1169</ele>
        <time>2012-05-10T12:05:23Z</time>
      </trkpt>
      <trkpt lat="46.16033" lon="6.5231">
        <ele>1175</ele>
        <time>2012-05-10T12:05:24Z</time>
      </trkpt>
      <trkpt lat="46.16031" lon="6.52292">
        <ele>1175</ele>
        <time>2012-05-10T12:05:25Z</time>
      </trkpt>
      <trkpt lat="46.16032" lon="6.52276">
        <ele>1175</ele>
        <time>2012-05-10T12:05:26Z</time>
      </trkpt>
      <trkpt lat="46.16034" lon="6.5226">
        <ele>1175</ele>
        <time>2012-05-10T12:05:27Z</time>
      </trkpt>
      <trkpt lat="46.16036" lon="6.52248">
        <ele>1180</ele>
        <time>2012-05-10T12:05:28Z</time>
      </trkpt>
      <trkpt lat="46.16043" lon="6.52232">
        <ele>1180</ele>
        <time>2012-05-10T12:05:30Z</time>
      </trkpt>
      <trkpt lat="46.16053" lon="6.5223">
        <ele>1180</ele>
        <time>2012-05-10T12:05:32Z</time>
      </trkpt>
      <trkpt lat="46.16064" lon="6.52218">
        <ele>1187</ele>
        <time>2012-05-10T12:06:23Z</time>
      </trkpt>
      <trkpt lat="46.16076" lon="6.52197">
        <ele>1187</ele>
        <time>2012-05-10T12:06:25Z</time>
      </trkpt>
      <trkpt lat="46.16083" lon="6.52183">
        <ele>1187</ele>
        <time>2012-05-10T12:06:26Z</time>
      </trkpt>
      <trkpt lat="46.16091" lon="6.52171">
        <ele>1187</ele>
        <time>2012-05-10T12:06:27Z</time>
      </trkpt>
      <trkpt lat="46.16099" lon="6.52156">
        <ele>1187</ele>
        <time>2012-05-10T12:06:28Z</time>
      </trkpt>
      <trkpt lat="46.16108" lon="6.52144">
        <ele>1187</ele>
        <time>2012-05-10T12:06:29Z</time>
      </trkpt>
      <trkpt lat="46.16116" lon="6.52129">
        <ele>1187</ele>
        <time>2012-05-10T12:06:30Z</time>
      </trkpt>
      <trkpt lat="46.16124" lon="6.52116">
        <ele>1187</ele>
        <time>2012-05-10T12:06:31Z</time>
      </trkpt>
      <trkpt lat="46.16133" lon="6.52102">
        <ele>1187</ele>
        <time>2012-05-10T12:06:32Z</time>
      </trkpt>
      <trkpt lat="46.16142" lon="6.52089">
        <ele>1193</ele>
        <time>2012-05-10T12:06:33Z</time>
      </trkpt>
      <trkpt lat="46.16149" lon="6.52074">
        <ele>1193</ele>
        <time>2012-05-10T12:06:34Z</time>
      </trkpt>
      <trkpt lat="46.16154" lon="6.52061">
        <ele>1193</ele>
        <time>2012-05-10T12:06:35Z</time>
      </trkpt>
      <trkpt lat="46.16158" lon="6.52048">
        <ele>1193</ele>
        <time>2012-05-10T12:06:36Z</time>
      </trkpt>
      <trkpt lat="46.16159" lon="6.52035">
        <ele>1193</ele>
        <time>2012-05-10T12:06:37Z</time>
      </trkpt>
      <trkpt lat="46.16161" lon="6.52013">
        <ele>1193</ele>
        <time>2012-05-10T12:06:39Z</time>
      </trkpt>
      <trkpt lat="46.16161" lon="6.52">
        <ele>1193</ele>
        <time>2012-05-10T12:06:41Z</time>
      </trkpt>
      <trkpt lat="46.16156" lon="6.52024">
        <ele>1193</ele>
        <time>2012-05-10T12:06:58Z</time>
      </trkpt>
      <trkpt lat="46.16154" lon="6.52039">
        <ele>1193</ele>
        <time>2012-05-10T12:06:59Z</time>
      </trkpt>
      <trkpt lat="46.16151" lon="6.52052">
        <ele>1193</ele>
        <time>2012-05-10T12:07:00Z</time>
      </trkpt>
      <trkpt lat="46.16147" lon="6.52066">
        <ele>1193</ele>
        <time>2012-05-10T12:07:01Z</time>
      </trkpt>
      <trkpt lat="46.16138" lon="6.52086">
        <ele>1193</ele>
        <time>2012-05-10T12:07:03Z</time>
      </trkpt>
      <trkpt lat="46.16131" lon="6.52104">
        <ele>1193</ele>
        <time>2012-05-10T12:07:05Z</time>
      </trkpt>
      <trkpt lat="46.16127" lon="6.52117">
        <ele>1193</ele>
        <time>2012-05-10T12:07:08Z</time>
      </trkpt>
      <trkpt lat="46.16134" lon="6.52107">
        <ele>1193</ele>
        <time>2012-05-10T12:07:14Z</time>
      </trkpt>
      <trkpt lat="46.16143" lon="6.52087">
        <ele>1193</ele>
        <time>2012-05-10T12:07:16Z</time>
      </trkpt>
      <trkpt lat="46.16149" lon="6.52074">
        <ele>1193</ele>
        <time>2012-05-10T12:07:17Z</time>
      </trkpt>
      <trkpt lat="46.16155" lon="6.52061">
        <ele>1193</ele>
        <time>2012-05-10T12:07:18Z</time>
      </trkpt>
      <trkpt lat="46.16159" lon="6.52047">
        <ele>1193</ele>
        <time>2012-05-10T12:07:19Z</time>
      </trkpt>
      <trkpt lat="46.16161" lon="6.5203">
        <ele>1193</ele>
        <time>2012-05-10T12:07:20Z</time>
      </trkpt>
      <trkpt lat="46.16162" lon="6.52012">
        <ele>1198</ele>
        <time>2012-05-10T12:07:21Z</time>
      </trkpt>
      <trkpt lat="46.16162" lon="6.51992">
        <ele>1198</ele>
        <time>2012-05-10T12:07:22Z</time>
      </trkpt>
      <trkpt lat="46.16161" lon="6.51975">
        <ele>1198</ele>
        <time>2012-05-10T12:07:23Z</time>
      </trkpt>
      <trkpt lat="46.16159" lon="6.5196">
        <ele>1205</ele>
        <time>2012-05-10T12:07:24Z</time>
      </trkpt>
      <trkpt lat="46.1616" lon="6.51934">
        <ele>1205</ele>
        <time>2012-05-10T12:07:26Z</time>
      </trkpt>
      <trkpt lat="46.16166" lon="6.51908">
        <ele>1205</ele>
        <time>2012-05-10T12:07:28Z</time>
      </trkpt>
      <trkpt lat="46.16172" lon="6.51895">
        <ele>1205</ele>
        <time>2012-05-10T12:07:29Z</time>
      </trkpt>
      <trkpt lat="46.16179" lon="6.5188">
        <ele>1205</ele>
        <time>2012-05-10T12:07:30Z</time>
      </trkpt>
      <trkpt lat="46.16188" lon="6.51863">
        <ele>1205</ele>
        <time>2012-05-10T12:07:31Z</time>
      </trkpt>
      <trkpt lat="46.16198" lon="6.51844">
        <ele>1205</ele>
        <time>2012-05-10T12:07:32Z</time>
      </trkpt>
      <trkpt lat="46.16209" lon="6.51827">
        <ele>1205</ele>
        <time>2012-05-10T12:07:33Z</time>
      </trkpt>
      <trkpt lat="46.16219" lon="6.51809">
        <ele>1210</ele>
        <time>2012-05-10T12:07:34Z</time>
      </trkpt>
      <trkpt lat="46.16229" lon="6.51792">
        <ele>1210</ele>
        <time>2012-05-10T12:07:35Z</time>
      </trkpt>
      <trkpt lat="46.16237" lon="6.51775">
        <ele>1210</ele>
        <time>2012-05-10T12:07:36Z</time>
      </trkpt>
      <trkpt lat="46.16244" lon="6.51758">
        <ele>1217</ele>
        <time>2012-05-10T12:07:37Z</time>
      </trkpt>
      <trkpt lat="46.16252" lon="6.51746">
        <ele>1217</ele>
        <time>2012-05-10T12:07:38Z</time>
      </trkpt>
      <trkpt lat="46.16262" lon="6.51737">
        <ele>1217</ele>
        <time>2012-05-10T12:07:39Z</time>
      </trkpt>
      <trkpt lat="46.16274" lon="6.5173">
        <ele>1217</ele>
        <time>2012-05-10T12:07:40Z</time>
      </trkpt>
      <trkpt lat="46.16285" lon="6.5172">
        <ele>1217</ele>
        <time>2012-05-10T12:07:41Z</time>
      </trkpt>
      <trkpt lat="46.16295" lon="6.5171">
        <ele>1217</ele>
        <time>2012-05-10T12:07:42Z</time>
      </trkpt>
      <trkpt lat="46.16303" lon="6.51702">
        <ele>1217</ele>
        <time>2012-05-10T12:07:43Z</time>
      </trkpt>
      <trkpt lat="46.16318" lon="6.51696">
        <ele>1223</ele>
        <time>2012-05-10T12:07:45Z</time>
      </trkpt>
      <trkpt lat="46.1633" lon="6.517">
        <ele>1223</ele>
        <time>2012-05-10T12:07:47Z</time>
      </trkpt>
      <trkpt lat="46.16339" lon="6.51705">
        <ele>1223</ele>
        <time>2012-05-10T12:07:49Z</time>
      </trkpt>
      <trkpt lat="46.16347" lon="6.51715">
        <ele>1223</ele>
        <time>2012-05-10T12:07:52Z</time>
      </trkpt>
      <trkpt lat="46.16352" lon="6.51727">
        <ele>1223</ele>
        <time>2012-05-10T12:07:54Z</time>
      </trkpt>
      <trkpt lat="46.16356" lon="6.51739">
        <ele>1223</ele>
        <time>2012-05-10T12:08:12Z</time>
      </trkpt>
      <trkpt lat="46.16357" lon="6.51762">
        <ele>1223</ele>
        <time>2012-05-10T12:08:15Z</time>
      </trkpt>
      <trkpt lat="46.16357" lon="6.51788">
        <ele>1228</ele>
        <time>2012-05-10T12:08:17Z</time>
      </trkpt>
      <trkpt lat="46.16358" lon="6.51805">
        <ele>1228</ele>
        <time>2012-05-10T12:08:18Z</time>
      </trkpt>
      <trkpt lat="46.1636" lon="6.51824">
        <ele>1228</ele>
        <time>2012-05-10T12:08:19Z</time>
      </trkpt>
      <trkpt lat="46.16362" lon="6.51843">
        <ele>1228</ele>
        <time>2012-05-10T12:08:20Z</time>
      </trkpt>
      <trkpt lat="46.16363" lon="6.51863">
        <ele>1228</ele>
        <time>2012-05-10T12:08:21Z</time>
      </trkpt>
      <trkpt lat="46.16367" lon="6.51883">
        <ele>1228</ele>
        <time>2012-05-10T12:08:22Z</time>
      </trkpt>
      <trkpt lat="46.16371" lon="6.51903">
        <ele>1228</ele>
        <time>2012-05-10T12:08:23Z</time>
      </trkpt>
      <trkpt lat="46.16376" lon="6.51922">
        <ele>1228</ele>
        <time>2012-05-10T12:08:24Z</time>
      </trkpt>
      <trkpt lat="46.16382" lon="6.51938">
        <ele>1228</ele>
        <time>2012-05-10T12:08:25Z</time>
      </trkpt>
      <trkpt lat="46.16388" lon="6.51953">
        <ele>1234</ele>
        <time>2012-05-10T12:08:26Z</time>
      </trkpt>
      <trkpt lat="46.16395" lon="6.51967">
        <ele>1234</ele>
        <time>2012-05-10T12:08:27Z</time>
      </trkpt>
      <trkpt lat="46.16402" lon="6.51981">
        <ele>1234</ele>
        <time>2012-05-10T12:08:28Z</time>
      </trkpt>
      <trkpt lat="46.16408" lon="6.51996">
        <ele>1234</ele>
        <time>2012-05-10T12:08:29Z</time>
      </trkpt>
      <trkpt lat="46.16415" lon="6.52012">
        <ele>1234</ele>
        <time>2012-05-10T12:08:30Z</time>
      </trkpt>
      <trkpt lat="46.16421" lon="6.52027">
        <ele>1234</ele>
        <time>2012-05-10T12:08:31Z</time>
      </trkpt>
      <trkpt lat="46.16427" lon="6.52041">
        <ele>1234</ele>
        <time>2012-05-10T12:08:32Z</time>
      </trkpt>
      <trkpt lat="46.16431" lon="6.52057">
        <ele>1234</ele>
        <time>2012-05-10T12:08:33Z</time>
      </trkpt>
      <trkpt lat="46.16436" lon="6.52073">
        <ele>1234</ele>
        <time>2012-05-10T12:08:34Z</time>
      </trkpt>
      <trkpt lat="46.16438" lon="6.52091">
        <ele>1234</ele>
        <time>2012-05-10T12:08:35Z</time>
      </trkpt>
      <trkpt lat="46.16442" lon="6.5211">
        <ele>1234</ele>
        <time>2012-05-10T12:08:36Z</time>
      </trkpt>
      <trkpt lat="46.16445" lon="6.52131">
        <ele>1234</ele>
        <time>2012-05-10T12:08:37Z</time>
      </trkpt>
      <trkpt lat="46.16447" lon="6.52154">
        <ele>1234</ele>
        <time>2012-05-10T12:08:38Z</time>
      </trkpt>
      <trkpt lat="46.1645" lon="6.52173">
        <ele>1234</ele>
        <time>2012-05-10T12:08:39Z</time>
      </trkpt>
      <trkpt lat="46.16453" lon="6.52192">
        <ele>1241</ele>
        <time>2012-05-10T12:08:40Z</time>
      </trkpt>
      <trkpt lat="46.16459" lon="6.5221">
        <ele>1241</ele>
        <time>2012-05-10T12:08:41Z</time>
      </trkpt>
      <trkpt lat="46.16468" lon="6.52224">
        <ele>1241</ele>
        <time>2012-05-10T12:08:42Z</time>
      </trkpt>
      <trkpt lat="46.16478" lon="6.52238">
        <ele>1241</ele>
        <time>2012-05-10T12:08:43Z</time>
      </trkpt>
      <trkpt lat="46.1649" lon="6.52251">
        <ele>1241</ele>
        <time>2012-05-10T12:08:44Z</time>
      </trkpt>
      <trkpt lat="46.16501" lon="6.52264">
        <ele>1246</ele>
        <time>2012-05-10T12:08:45Z</time>
      </trkpt>
      <trkpt lat="46.16511" lon="6.52279">
        <ele>1246</ele>
        <time>2012-05-10T12:08:46Z</time>
      </trkpt>
      <trkpt lat="46.16522" lon="6.52295">
        <ele>1246</ele>
        <time>2012-05-10T12:08:47Z</time>
      </trkpt>
      <trkpt lat="46.16533" lon="6.5231">
        <ele>1246</ele>
        <time>2012-05-10T12:08:48Z</time>
      </trkpt>
      <trkpt lat="46.16543" lon="6.52327">
        <ele>1246</ele>
        <time>2012-05-10T12:08:49Z</time>
      </trkpt>
      <trkpt lat="46.16553" lon="6.52344">
        <ele>1246</ele>
        <time>2012-05-10T12:08:50Z</time>
      </trkpt>
      <trkpt lat="46.16563" lon="6.52358">
        <ele>1246</ele>
        <time>2012-05-10T12:08:51Z</time>
      </trkpt>
      <trkpt lat="46.16571" lon="6.52372">
        <ele>1246</ele>
        <time>2012-05-10T12:08:52Z</time>
      </trkpt>
      <trkpt lat="46.16577" lon="6.52384">
        <ele>1246</ele>
        <time>2012-05-10T12:08:53Z</time>
      </trkpt>
      <trkpt lat="46.16583" lon="6.52396">
        <ele>1246</ele>
        <time>2012-05-10T12:08:54Z</time>
      </trkpt>
      <trkpt lat="46.16588" lon="6.52408">
        <ele>1253</ele>
        <time>2012-05-10T12:08:55Z</time>
      </trkpt>
      <trkpt lat="46.16591" lon="6.52421">
        <ele>1253</ele>
        <time>2012-05-10T12:08:56Z</time>
      </trkpt>
      <trkpt lat="46.16594" lon="6.52435">
        <ele>1253</ele>
        <time>2012-05-10T12:08:57Z</time>
      </trkpt>
      <trkpt lat="46.16596" lon="6.52448">
        <ele>1253</ele>
        <time>2012-05-10T12:08:58Z</time>
      </trkpt>
      <trkpt lat="46.166" lon="6.52462">
        <ele>1259</ele>
        <time>2012-05-10T12:08:59Z</time>
      </trkpt>
      <trkpt lat="46.16602" lon="6.52475">
        <ele>1259</ele>
        <time>2012-05-10T12:09:00Z</time>
      </trkpt>
      <trkpt lat="46.16605" lon="6.52489">
        <ele>1259</ele>
        <time>2012-05-10T12:09:01Z</time>
      </trkpt>
      <trkpt lat="46.16607" lon="6.52502">
        <ele>1259</ele>
        <time>2012-05-10T12:09:02Z</time>
      </trkpt>
      <trkpt lat="46.16612" lon="6.52522">
        <ele>1259</ele>
        <time>2012-05-10T12:09:04Z</time>
      </trkpt>
      <trkpt lat="46.16612" lon="6.52537">
        <ele>1273</ele>
        <time>2012-05-10T12:09:10Z</time>
      </trkpt>
      <trkpt lat="46.16604" lon="6.52534">
        <ele>1266</ele>
        <time>2012-05-10T12:13:16Z</time>
      </trkpt>
      <trkpt lat="46.16607" lon="6.52521">
        <ele>1259</ele>
        <time>2012-05-10T12:14:47Z</time>
      </trkpt>
      <trkpt lat="46.16599" lon="6.52525">
        <ele>1259</ele>
        <time>2012-05-10T12:15:28Z</time>
      </trkpt>
      <trkpt lat="46.16607" lon="6.5253">
        <ele>1267</ele>
        <time>2012-05-10T12:16:03Z</time>
      </trkpt>
      <trkpt lat="46.16598" lon="6.52529">
        <ele>1257</ele>
        <time>2012-05-10T12:16:50Z</time>
      </trkpt>
      <trkpt lat="46.16606" lon="6.52535">
        <ele>1269</ele>
        <time>2012-05-10T12:17:48Z</time>
      </trkpt>
      <trkpt lat="46.16616" lon="6.52533">
        <ele>1269</ele>
        <time>2012-05-10T12:18:35Z</time>
      </trkpt>
      <trkpt lat="46.16608" lon="6.52543">
        <ele>1274</ele>
        <time>2012-05-10T12:19:19Z</time>
      </trkpt>
      <trkpt lat="46.16606" lon="6.52561">
        <ele>1274</ele>
        <time>2012-05-10T12:19:22Z</time>
      </trkpt>
      <trkpt lat="46.16607" lon="6.52586">
        <ele>1274</ele>
        <time>2012-05-10T12:19:24Z</time>
      </trkpt>
      <trkpt lat="46.16607" lon="6.52609">
        <ele>1274</ele>
        <time>2012-05-10T12:19:26Z</time>
      </trkpt>
      <trkpt lat="46.16607" lon="6.52627">
        <ele>1274</ele>
        <time>2012-05-10T12:19:28Z</time>
      </trkpt>
      <trkpt lat="46.16607" lon="6.52641">
        <ele>1274</ele>
        <time>2012-05-10T12:19:32Z</time>
      </trkpt>
      <trkpt lat="46.16611" lon="6.52658">
        <ele>1274</ele>
        <time>2012-05-10T12:19:51Z</time>
      </trkpt>
      <trkpt lat="46.16616" lon="6.52675">
        <ele>1274</ele>
        <time>2012-05-10T12:19:53Z</time>
      </trkpt>
      <trkpt lat="46.16619" lon="6.5269">
        <ele>1274</ele>
        <time>2012-05-10T12:19:55Z</time>
      </trkpt>
      <trkpt lat="46.16619" lon="6.52703">
        <ele>1274</ele>
        <time>2012-05-10T12:19:59Z</time>
      </trkpt>
      <trkpt lat="46.16618" lon="6.52719">
        <ele>1274</ele>
        <time>2012-05-10T12:20:18Z</time>
      </trkpt>
      <trkpt lat="46.16617" lon="6.5274">
        <ele>1274</ele>
        <time>2012-05-10T12:20:20Z</time>
      </trkpt>
      <trkpt lat="46.16616" lon="6.52765">
        <ele>1274</ele>
        <time>2012-05-10T12:20:22Z</time>
      </trkpt>
      <trkpt lat="46.16615" lon="6.52779">
        <ele>1274</ele>
        <time>2012-05-10T12:20:23Z</time>
      </trkpt>
      <trkpt lat="46.16615" lon="6.52805">
        <ele>1274</ele>
        <time>2012-05-10T12:20:25Z</time>
      </trkpt>
      <trkpt lat="46.16616" lon="6.5282">
        <ele>1274</ele>
        <time>2012-05-10T12:20:26Z</time>
      </trkpt>
      <trkpt lat="46.16616" lon="6.52834">
        <ele>1274</ele>
        <time>2012-05-10T12:20:27Z</time>
      </trkpt>
      <trkpt lat="46.16619" lon="6.52848">
        <ele>1274</ele>
        <time>2012-05-10T12:20:28Z</time>
      </trkpt>
      <trkpt lat="46.16623" lon="6.52862">
        <ele>1274</ele>
        <time>2012-05-10T12:20:29Z</time>
      </trkpt>
      <trkpt lat="46.16627" lon="6.52879">
        <ele>1274</ele>
        <time>2012-05-10T12:20:30Z</time>
      </trkpt>
      <trkpt lat="46.1663" lon="6.52896">
        <ele>1274</ele>
        <time>2012-05-10T12:20:31Z</time>
      </trkpt>
      <trkpt lat="46.16634" lon="6.52912">
        <ele>1279</ele>
        <time>2012-05-10T12:20:32Z</time>
      </trkpt>
      <trkpt lat="46.16637" lon="6.52928">
        <ele>1279</ele>
        <time>2012-05-10T12:20:33Z</time>
      </trkpt>
      <trkpt lat="46.1664" lon="6.52944">
        <ele>1279</ele>
        <time>2012-05-10T12:20:34Z</time>
      </trkpt>
      <trkpt lat="46.16642" lon="6.52959">
        <ele>1279</ele>
        <time>2012-05-10T12:20:35Z</time>
      </trkpt>
      <trkpt lat="46.16645" lon="6.52976">
        <ele>1279</ele>
        <time>2012-05-10T12:20:36Z</time>
      </trkpt>
      <trkpt lat="46.16647" lon="6.52993">
        <ele>1279</ele>
        <time>2012-05-10T12:20:37Z</time>
      </trkpt>
      <trkpt lat="46.1665" lon="6.53009">
        <ele>1285</ele>
        <time>2012-05-10T12:20:38Z</time>
      </trkpt>
      <trkpt lat="46.16653" lon="6.53023">
        <ele>1285</ele>
        <time>2012-05-10T12:20:39Z</time>
      </trkpt>
      <trkpt lat="46.16657" lon="6.53046">
        <ele>1285</ele>
        <time>2012-05-10T12:20:41Z</time>
      </trkpt>
      <trkpt lat="46.16658" lon="6.53065">
        <ele>1292</ele>
        <time>2012-05-10T12:20:43Z</time>
      </trkpt>
      <trkpt lat="46.16664" lon="6.53084">
        <ele>1292</ele>
        <time>2012-05-10T12:20:45Z</time>
      </trkpt>
      <trkpt lat="46.16671" lon="6.53105">
        <ele>1300</ele>
        <time>2012-05-10T12:20:47Z</time>
      </trkpt>
      <trkpt lat="46.16682" lon="6.53122">
        <ele>1300</ele>
        <time>2012-05-10T12:20:49Z</time>
      </trkpt>
      <trkpt lat="46.16694" lon="6.53135">
        <ele>1307</ele>
        <time>2012-05-10T12:20:51Z</time>
      </trkpt>
      <trkpt lat="46.16705" lon="6.53153">
        <ele>1307</ele>
        <time>2012-05-10T12:20:53Z</time>
      </trkpt>
      <trkpt lat="46.1671" lon="6.53165">
        <ele>1307</ele>
        <time>2012-05-10T12:20:54Z</time>
      </trkpt>
      <trkpt lat="46.16716" lon="6.53176">
        <ele>1313</ele>
        <time>2012-05-10T12:20:55Z</time>
      </trkpt>
      <trkpt lat="46.16721" lon="6.53188">
        <ele>1313</ele>
        <time>2012-05-10T12:20:56Z</time>
      </trkpt>
      <trkpt lat="46.16728" lon="6.53197">
        <ele>1313</ele>
        <time>2012-05-10T12:20:57Z</time>
      </trkpt>
      <trkpt lat="46.16735" lon="6.53207">
        <ele>1313</ele>
        <time>2012-05-10T12:20:58Z</time>
      </trkpt>
      <trkpt lat="46.16743" lon="6.53216">
        <ele>1313</ele>
        <time>2012-05-10T12:20:59Z</time>
      </trkpt>
      <trkpt lat="46.16749" lon="6.53226">
        <ele>1313</ele>
        <time>2012-05-10T12:21:00Z</time>
      </trkpt>
      <trkpt lat="46.1676" lon="6.53241">
        <ele>1313</ele>
        <time>2012-05-10T12:21:02Z</time>
      </trkpt>
      <trkpt lat="46.16767" lon="6.53251">
        <ele>1320</ele>
        <time>2012-05-10T12:21:04Z</time>
      </trkpt>
      <trkpt lat="46.1676" lon="6.53264">
        <ele>1328</ele>
        <time>2012-05-10T12:21:09Z</time>
      </trkpt>
      <trkpt lat="46.16749" lon="6.53254">
        <ele>1328</ele>
        <time>2012-05-10T12:21:11Z</time>
      </trkpt>
      <trkpt lat="46.16737" lon="6.53241">
        <ele>1328</ele>
        <time>2012-05-10T12:21:13Z</time>
      </trkpt>
      <trkpt lat="46.16726" lon="6.53241">
        <ele>1334</ele>
        <time>2012-05-10T12:21:15Z</time>
      </trkpt>
      <trkpt lat="46.16722" lon="6.53252">
        <ele>1334</ele>
        <time>2012-05-10T12:21:18Z</time>
      </trkpt>
      <trkpt lat="46.1673" lon="6.53265">
        <ele>1334</ele>
        <time>2012-05-10T12:21:20Z</time>
      </trkpt>
      <trkpt lat="46.16739" lon="6.53285">
        <ele>1334</ele>
        <time>2012-05-10T12:21:22Z</time>
      </trkpt>
      <trkpt lat="46.16745" lon="6.53306">
        <ele>1340</ele>
        <time>2012-05-10T12:21:24Z</time>
      </trkpt>
      <trkpt lat="46.16753" lon="6.53316">
        <ele>1340</ele>
        <time>2012-05-10T12:21:26Z</time>
      </trkpt>
      <trkpt lat="46.16765" lon="6.53323">
        <ele>1347</ele>
        <time>2012-05-10T12:21:28Z</time>
      </trkpt>
      <trkpt lat="46.1678" lon="6.53327">
        <ele>1347</ele>
        <time>2012-05-10T12:21:30Z</time>
      </trkpt>
      <trkpt lat="46.16792" lon="6.53332">
        <ele>1347</ele>
        <time>2012-05-10T12:21:32Z</time>
      </trkpt>
      <trkpt lat="46.16792" lon="6.53347">
        <ele>1347</ele>
        <time>2012-05-10T12:21:35Z</time>
      </trkpt>
      <trkpt lat="46.16782" lon="6.53355">
        <ele>1354</ele>
        <time>2012-05-10T12:21:38Z</time>
      </trkpt>
      <trkpt lat="46.16772" lon="6.53354">
        <ele>1354</ele>
        <time>2012-05-10T12:21:40Z</time>
      </trkpt>
      <trkpt lat="46.16766" lon="6.53366">
        <ele>1354</ele>
        <time>2012-05-10T12:21:43Z</time>
      </trkpt>
      <trkpt lat="46.16779" lon="6.5338">
        <ele>1361</ele>
        <time>2012-05-10T12:21:46Z</time>
      </trkpt>
      <trkpt lat="46.16796" lon="6.53392">
        <ele>1361</ele>
        <time>2012-05-10T12:21:48Z</time>
      </trkpt>
      <trkpt lat="46.16805" lon="6.53399">
        <ele>1361</ele>
        <time>2012-05-10T12:21:49Z</time>
      </trkpt>
      <trkpt lat="46.16815" lon="6.53403">
        <ele>1366</ele>
        <time>2012-05-10T12:21:50Z</time>
      </trkpt>
      <trkpt lat="46.1683" lon="6.53405">
        <ele>1366</ele>
        <time>2012-05-10T12:21:52Z</time>
      </trkpt>
      <trkpt lat="46.16848" lon="6.53396">
        <ele>1366</ele>
        <time>2012-05-10T12:21:54Z</time>
      </trkpt>
      <trkpt lat="46.16859" lon="6.53394">
        <ele>1366</ele>
        <time>2012-05-10T12:21:55Z</time>
      </trkpt>
      <trkpt lat="46.16875" lon="6.53382">
        <ele>1366</ele>
        <time>2012-05-10T12:21:57Z</time>
      </trkpt>
      <trkpt lat="46.16881" lon="6.53372">
        <ele>1366</ele>
        <time>2012-05-10T12:21:58Z</time>
      </trkpt>
      <trkpt lat="46.16886" lon="6.5336">
        <ele>1366</ele>
        <time>2012-05-10T12:21:59Z</time>
      </trkpt>
      <trkpt lat="46.1689" lon="6.53347">
        <ele>1373</ele>
        <time>2012-05-10T12:22:00Z</time>
      </trkpt>
      <trkpt lat="46.16892" lon="6.53333">
        <ele>1373</ele>
        <time>2012-05-10T12:22:01Z</time>
      </trkpt>
      <trkpt lat="46.16893" lon="6.53316">
        <ele>1373</ele>
        <time>2012-05-10T12:22:02Z</time>
      </trkpt>
      <trkpt lat="46.16893" lon="6.53298">
        <ele>1381</ele>
        <time>2012-05-10T12:22:03Z</time>
      </trkpt>
      <trkpt lat="46.16892" lon="6.5328">
        <ele>1381</ele>
        <time>2012-05-10T12:22:04Z</time>
      </trkpt>
      <trkpt lat="46.16891" lon="6.53261">
        <ele>1381</ele>
        <time>2012-05-10T12:22:05Z</time>
      </trkpt>
      <trkpt lat="46.16891" lon="6.53246">
        <ele>1387</ele>
        <time>2012-05-10T12:22:06Z</time>
      </trkpt>
      <trkpt lat="46.16891" lon="6.53232">
        <ele>1387</ele>
        <time>2012-05-10T12:22:07Z</time>
      </trkpt>
      <trkpt lat="46.16894" lon="6.53218">
        <ele>1387</ele>
        <time>2012-05-10T12:22:08Z</time>
      </trkpt>
      <trkpt lat="46.16896" lon="6.53205">
        <ele>1392</ele>
        <time>2012-05-10T12:22:09Z</time>
      </trkpt>
      <trkpt lat="46.16898" lon="6.53191">
        <ele>1392</ele>
        <time>2012-05-10T12:22:10Z</time>
      </trkpt>
      <trkpt lat="46.16901" lon="6.53176">
        <ele>1392</ele>
        <time>2012-05-10T12:22:11Z</time>
      </trkpt>
      <trkpt lat="46.16906" lon="6.53151">
        <ele>1392</ele>
        <time>2012-05-10T12:22:13Z</time>
      </trkpt>
      <trkpt lat="46.16908" lon="6.53136">
        <ele>1399</ele>
        <time>2012-05-10T12:22:14Z</time>
      </trkpt>
      <trkpt lat="46.16911" lon="6.53124">
        <ele>1399</ele>
        <time>2012-05-10T12:22:15Z</time>
      </trkpt>
      <trkpt lat="46.16915" lon="6.531">
        <ele>1399</ele>
        <time>2012-05-10T12:22:17Z</time>
      </trkpt>
      <trkpt lat="46.1692" lon="6.53079">
        <ele>1408</ele>
        <time>2012-05-10T12:22:19Z</time>
      </trkpt>
      <trkpt lat="46.1693" lon="6.53067">
        <ele>1408</ele>
        <time>2012-05-10T12:22:21Z</time>
      </trkpt>
      <trkpt lat="46.16945" lon="6.53069">
        <ele>1414</ele>
        <time>2012-05-10T12:22:23Z</time>
      </trkpt>
      <trkpt lat="46.16955" lon="6.53072">
        <ele>1414</ele>
        <time>2012-05-10T12:22:24Z</time>
      </trkpt>
      <trkpt lat="46.16965" lon="6.53072">
        <ele>1414</ele>
        <time>2012-05-10T12:22:25Z</time>
      </trkpt>
      <trkpt lat="46.16975" lon="6.53071">
        <ele>1420</ele>
        <time>2012-05-10T12:22:26Z</time>
      </trkpt>
      <trkpt lat="46.16985" lon="6.53067">
        <ele>1420</ele>
        <time>2012-05-10T12:22:27Z</time>
      </trkpt>
      <trkpt lat="46.17001" lon="6.53064">
        <ele>1420</ele>
        <time>2012-05-10T12:22:29Z</time>
      </trkpt>
      <trkpt lat="46.17005" lon="6.53053">
        <ele>1429</ele>
        <time>2012-05-10T12:22:42Z</time>
      </trkpt>
      <trkpt lat="46.17016" lon="6.53037">
        <ele>1429</ele>
        <time>2012-05-10T12:22:44Z</time>
      </trkpt>
      <trkpt lat="46.17024" lon="6.53015">
        <ele>1429</ele>
        <time>2012-05-10T12:22:46Z</time>
      </trkpt>
      <trkpt lat="46.17031" lon="6.52995">
        <ele>1423</ele>
        <time>2012-05-10T12:22:48Z</time>
      </trkpt>
      <trkpt lat="46.17038" lon="6.52977">
        <ele>1423</ele>
        <time>2012-05-10T12:22:50Z</time>
      </trkpt>
      <trkpt lat="46.17042" lon="6.52963">
        <ele>1423</ele>
        <time>2012-05-10T12:22:52Z</time>
      </trkpt>
      <trkpt lat="46.1705" lon="6.52955">
        <ele>1423</ele>
        <time>2012-05-10T12:22:54Z</time>
      </trkpt>
      <trkpt lat="46.17062" lon="6.52955">
        <ele>1415</ele>
        <time>2012-05-10T12:22:56Z</time>
      </trkpt>
      <trkpt lat="46.17076" lon="6.52957">
        <ele>1415</ele>
        <time>2012-05-10T12:22:58Z</time>
      </trkpt>
      <trkpt lat="46.17092" lon="6.52959">
        <ele>1415</ele>
        <time>2012-05-10T12:23:00Z</time>
      </trkpt>
      <trkpt lat="46.17101" lon="6.5296">
        <ele>1415</ele>
        <time>2012-05-10T12:23:01Z</time>
      </trkpt>
      <trkpt lat="46.17118" lon="6.52963">
        <ele>1408</ele>
        <time>2012-05-10T12:23:03Z</time>
      </trkpt>
      <trkpt lat="46.17137" lon="6.52964">
        <ele>1408</ele>
        <time>2012-05-10T12:23:05Z</time>
      </trkpt>
      <trkpt lat="46.17153" lon="6.52967">
        <ele>1408</ele>
        <time>2012-05-10T12:23:07Z</time>
      </trkpt>
      <trkpt lat="46.17171" lon="6.5297">
        <ele>1408</ele>
        <time>2012-05-10T12:23:09Z</time>
      </trkpt>
      <trkpt lat="46.17189" lon="6.52971">
        <ele>1408</ele>
        <time>2012-05-10T12:23:11Z</time>
      </trkpt>
      <trkpt lat="46.17199" lon="6.52971">
        <ele>1408</ele>
        <time>2012-05-10T12:23:12Z</time>
      </trkpt>
      <trkpt lat="46.17208" lon="6.52969">
        <ele>1408</ele>
        <time>2012-05-10T12:23:13Z</time>
      </trkpt>
      <trkpt lat="46.17221" lon="6.52969">
        <ele>1408</ele>
        <time>2012-05-10T12:23:15Z</time>
      </trkpt>
      <trkpt lat="46.17235" lon="6.52967">
        <ele>1416</ele>
        <time>2012-05-10T12:23:17Z</time>
      </trkpt>
      <trkpt lat="46.17251" lon="6.52966">
        <ele>1416</ele>
        <time>2012-05-10T12:23:19Z</time>
      </trkpt>
      <trkpt lat="46.1726" lon="6.52963">
        <ele>1416</ele>
        <time>2012-05-10T12:23:20Z</time>
      </trkpt>
      <trkpt lat="46.1727" lon="6.52961">
        <ele>1416</ele>
        <time>2012-05-10T12:23:21Z</time>
      </trkpt>
      <trkpt lat="46.1728" lon="6.52959">
        <ele>1416</ele>
        <time>2012-05-10T12:23:22Z</time>
      </trkpt>
      <trkpt lat="46.1729" lon="6.52958">
        <ele>1416</ele>
        <time>2012-05-10T12:23:23Z</time>
      </trkpt>
      <trkpt lat="46.173" lon="6.52956">
        <ele>1416</ele>
        <time>2012-05-10T12:23:24Z</time>
      </trkpt>
      <trkpt lat="46.1731" lon="6.52955">
        <ele>1416</ele>
        <time>2012-05-10T12:23:25Z</time>
      </trkpt>
      <trkpt lat="46.1732" lon="6.52953">
        <ele>1416</ele>
        <time>2012-05-10T12:23:26Z</time>
      </trkpt>
      <trkpt lat="46.1733" lon="6.52952">
        <ele>1416</ele>
        <time>2012-05-10T12:23:27Z</time>
      </trkpt>
      <trkpt lat="46.1734" lon="6.52954">
        <ele>1416</ele>
        <time>2012-05-10T12:23:28Z</time>
      </trkpt>
      <trkpt lat="46.17351" lon="6.52957">
        <ele>1416</ele>
        <time>2012-05-10T12:23:29Z</time>
      </trkpt>
      <trkpt lat="46.17361" lon="6.52958">
        <ele>1416</ele>
        <time>2012-05-10T12:23:30Z</time>
      </trkpt>
      <trkpt lat="46.17373" lon="6.5296">
        <ele>1416</ele>
        <time>2012-05-10T12:23:31Z</time>
      </trkpt>
      <trkpt lat="46.17384" lon="6.52963">
        <ele>1416</ele>
        <time>2012-05-10T12:23:32Z</time>
      </trkpt>
      <trkpt lat="46.17403" lon="6.52962">
        <ele>1411</ele>
        <time>2012-05-10T12:23:34Z</time>
      </trkpt>
      <trkpt lat="46.17414" lon="6.52961">
        <ele>1411</ele>
        <time>2012-05-10T12:23:35Z</time>
      </trkpt>
      <trkpt lat="46.17424" lon="6.52958">
        <ele>1411</ele>
        <time>2012-05-10T12:23:36Z</time>
      </trkpt>
      <trkpt lat="46.17434" lon="6.52955">
        <ele>1411</ele>
        <time>2012-05-10T12:23:37Z</time>
      </trkpt>
      <trkpt lat="46.17444" lon="6.52949">
        <ele>1411</ele>
        <time>2012-05-10T12:23:38Z</time>
      </trkpt>
      <trkpt lat="46.17454" lon="6.52941">
        <ele>1411</ele>
        <time>2012-05-10T12:23:39Z</time>
      </trkpt>
      <trkpt lat="46.17464" lon="6.52934">
        <ele>1411</ele>
        <time>2012-05-10T12:23:40Z</time>
      </trkpt>
      <trkpt lat="46.17473" lon="6.52925">
        <ele>1411</ele>
        <time>2012-05-10T12:23:41Z</time>
      </trkpt>
      <trkpt lat="46.17482" lon="6.52916">
        <ele>1411</ele>
        <time>2012-05-10T12:23:42Z</time>
      </trkpt>
      <trkpt lat="46.1749" lon="6.52906">
        <ele>1411</ele>
        <time>2012-05-10T12:23:43Z</time>
      </trkpt>
      <trkpt lat="46.17498" lon="6.52897">
        <ele>1406</ele>
        <time>2012-05-10T12:23:44Z</time>
      </trkpt>
      <trkpt lat="46.17506" lon="6.52889">
        <ele>1406</ele>
        <time>2012-05-10T12:23:45Z</time>
      </trkpt>
      <trkpt lat="46.17519" lon="6.52873">
        <ele>1406</ele>
        <time>2012-05-10T12:23:47Z</time>
      </trkpt>
      <trkpt lat="46.17532" lon="6.52858">
        <ele>1406</ele>
        <time>2012-05-10T12:23:49Z</time>
      </trkpt>
      <trkpt lat="46.17546" lon="6.52842">
        <ele>1406</ele>
        <time>2012-05-10T12:23:51Z</time>
      </trkpt>
      <trkpt lat="46.17553" lon="6.52834">
        <ele>1406</ele>
        <time>2012-05-10T12:23:52Z</time>
      </trkpt>
      <trkpt lat="46.17567" lon="6.52817">
        <ele>1406</ele>
        <time>2012-05-10T12:23:54Z</time>
      </trkpt>
      <trkpt lat="46.1758" lon="6.528">
        <ele>1406</ele>
        <time>2012-05-10T12:23:56Z</time>
      </trkpt>
      <trkpt lat="46.17587" lon="6.52792">
        <ele>1406</ele>
        <time>2012-05-10T12:23:57Z</time>
      </trkpt>
      <trkpt lat="46.17603" lon="6.52779">
        <ele>1406</ele>
        <time>2012-05-10T12:23:59Z</time>
      </trkpt>
      <trkpt lat="46.17616" lon="6.5277">
        <ele>1406</ele>
        <time>2012-05-10T12:24:01Z</time>
      </trkpt>
      <trkpt lat="46.17627" lon="6.52764">
        <ele>1406</ele>
        <time>2012-05-10T12:24:03Z</time>
      </trkpt>
      <trkpt lat="46.17632" lon="6.52752">
        <ele>1400</ele>
        <time>2012-05-10T12:24:25Z</time>
      </trkpt>
      <trkpt lat="46.17644" lon="6.52742">
        <ele>1400</ele>
        <time>2012-05-10T12:25:42Z</time>
      </trkpt>
      <trkpt lat="46.17652" lon="6.52725">
        <ele>1395</ele>
        <time>2012-05-10T12:25:44Z</time>
      </trkpt>
      <trkpt lat="46.1766" lon="6.52701">
        <ele>1395</ele>
        <time>2012-05-10T12:25:46Z</time>
      </trkpt>
      <trkpt lat="46.17664" lon="6.52686">
        <ele>1395</ele>
        <time>2012-05-10T12:25:47Z</time>
      </trkpt>
      <trkpt lat="46.17669" lon="6.52671">
        <ele>1395</ele>
        <time>2012-05-10T12:25:48Z</time>
      </trkpt>
      <trkpt lat="46.17674" lon="6.52655">
        <ele>1395</ele>
        <time>2012-05-10T12:25:49Z</time>
      </trkpt>
      <trkpt lat="46.17679" lon="6.52638">
        <ele>1395</ele>
        <time>2012-05-10T12:25:50Z</time>
      </trkpt>
      <trkpt lat="46.17683" lon="6.52621">
        <ele>1395</ele>
        <time>2012-05-10T12:25:51Z</time>
      </trkpt>
      <trkpt lat="46.17688" lon="6.52604">
        <ele>1390</ele>
        <time>2012-05-10T12:25:52Z</time>
      </trkpt>
      <trkpt lat="46.17693" lon="6.52586">
        <ele>1390</ele>
        <time>2012-05-10T12:25:53Z</time>
      </trkpt>
      <trkpt lat="46.17697" lon="6.52569">
        <ele>1390</ele>
        <time>2012-05-10T12:25:54Z</time>
      </trkpt>
      <trkpt lat="46.17701" lon="6.52552">
        <ele>1390</ele>
        <time>2012-05-10T12:25:55Z</time>
      </trkpt>
      <trkpt lat="46.17705" lon="6.52537">
        <ele>1390</ele>
        <time>2012-05-10T12:25:56Z</time>
      </trkpt>
      <trkpt lat="46.17708" lon="6.52522">
        <ele>1390</ele>
        <time>2012-05-10T12:25:57Z</time>
      </trkpt>
      <trkpt lat="46.17713" lon="6.52506">
        <ele>1390</ele>
        <time>2012-05-10T12:25:58Z</time>
      </trkpt>
      <trkpt lat="46.17718" lon="6.52489">
        <ele>1384</ele>
        <time>2012-05-10T12:25:59Z</time>
      </trkpt>
      <trkpt lat="46.17723" lon="6.52472">
        <ele>1384</ele>
        <time>2012-05-10T12:26:00Z</time>
      </trkpt>
      <trkpt lat="46.1773" lon="6.52455">
        <ele>1384</ele>
        <time>2012-05-10T12:26:01Z</time>
      </trkpt>
      <trkpt lat="46.17735" lon="6.52438">
        <ele>1384</ele>
        <time>2012-05-10T12:26:02Z</time>
      </trkpt>
      <trkpt lat="46.17741" lon="6.52424">
        <ele>1384</ele>
        <time>2012-05-10T12:26:03Z</time>
      </trkpt>
      <trkpt lat="46.17747" lon="6.52411">
        <ele>1378</ele>
        <time>2012-05-10T12:26:04Z</time>
      </trkpt>
      <trkpt lat="46.17753" lon="6.52399">
        <ele>1378</ele>
        <time>2012-05-10T12:26:05Z</time>
      </trkpt>
      <trkpt lat="46.17759" lon="6.52388">
        <ele>1378</ele>
        <time>2012-05-10T12:26:06Z</time>
      </trkpt>
      <trkpt lat="46.17766" lon="6.52377">
        <ele>1378</ele>
        <time>2012-05-10T12:26:07Z</time>
      </trkpt>
      <trkpt lat="46.17773" lon="6.52368">
        <ele>1378</ele>
        <time>2012-05-10T12:26:08Z</time>
      </trkpt>
      <trkpt lat="46.17783" lon="6.52359">
        <ele>1373</ele>
        <time>2012-05-10T12:26:09Z</time>
      </trkpt>
      <trkpt lat="46.17792" lon="6.52349">
        <ele>1373</ele>
        <time>2012-05-10T12:26:10Z</time>
      </trkpt>
      <trkpt lat="46.17801" lon="6.5234">
        <ele>1373</ele>
        <time>2012-05-10T12:26:11Z</time>
      </trkpt>
      <trkpt lat="46.1781" lon="6.5233">
        <ele>1373</ele>
        <time>2012-05-10T12:26:12Z</time>
      </trkpt>
      <trkpt lat="46.17819" lon="6.52319">
        <ele>1373</ele>
        <time>2012-05-10T12:26:13Z</time>
      </trkpt>
      <trkpt lat="46.17828" lon="6.52307">
        <ele>1367</ele>
        <time>2012-05-10T12:26:14Z</time>
      </trkpt>
      <trkpt lat="46.17838" lon="6.52295">
        <ele>1367</ele>
        <time>2012-05-10T12:26:15Z</time>
      </trkpt>
      <trkpt lat="46.17846" lon="6.52278">
        <ele>1367</ele>
        <time>2012-05-10T12:26:16Z</time>
      </trkpt>
      <trkpt lat="46.17854" lon="6.52263">
        <ele>1367</ele>
        <time>2012-05-10T12:26:17Z</time>
      </trkpt>
      <trkpt lat="46.17863" lon="6.52248">
        <ele>1367</ele>
        <time>2012-05-10T12:26:18Z</time>
      </trkpt>
      <trkpt lat="46.1787" lon="6.52233">
        <ele>1361</ele>
        <time>2012-05-10T12:26:19Z</time>
      </trkpt>
      <trkpt lat="46.17876" lon="6.52217">
        <ele>1361</ele>
        <time>2012-05-10T12:26:20Z</time>
      </trkpt>
      <trkpt lat="46.17881" lon="6.52202">
        <ele>1361</ele>
        <time>2012-05-10T12:26:21Z</time>
      </trkpt>
      <trkpt lat="46.17886" lon="6.5219">
        <ele>1361</ele>
        <time>2012-05-10T12:26:22Z</time>
      </trkpt>
      <trkpt lat="46.17892" lon="6.52178">
        <ele>1361</ele>
        <time>2012-05-10T12:26:23Z</time>
      </trkpt>
      <trkpt lat="46.17898" lon="6.52167">
        <ele>1361</ele>
        <time>2012-05-10T12:26:24Z</time>
      </trkpt>
      <trkpt lat="46.17905" lon="6.52157">
        <ele>1361</ele>
        <time>2012-05-10T12:26:25Z</time>
      </trkpt>
      <trkpt lat="46.17912" lon="6.52149">
        <ele>1361</ele>
        <time>2012-05-10T12:26:26Z</time>
      </trkpt>
      <trkpt lat="46.17921" lon="6.52142">
        <ele>1361</ele>
        <time>2012-05-10T12:26:27Z</time>
      </trkpt>
      <trkpt lat="46.17929" lon="6.52137">
        <ele>1361</ele>
        <time>2012-05-10T12:26:28Z</time>
      </trkpt>
      <trkpt lat="46.17943" lon="6.52137">
        <ele>1361</ele>
        <time>2012-05-10T12:26:30Z</time>
      </trkpt>
      <trkpt lat="46.17956" lon="6.52141">
        <ele>1361</ele>
        <time>2012-05-10T12:26:32Z</time>
      </trkpt>
      <trkpt lat="46.1797" lon="6.52148">
        <ele>1367</ele>
        <time>2012-05-10T12:26:34Z</time>
      </trkpt>
      <trkpt lat="46.17984" lon="6.52157">
        <ele>1367</ele>
        <time>2012-05-10T12:26:36Z</time>
      </trkpt>
      <trkpt lat="46.17992" lon="6.52162">
        <ele>1367</ele>
        <time>2012-05-10T12:26:37Z</time>
      </trkpt>
      <trkpt lat="46.18002" lon="6.52165">
        <ele>1367</ele>
        <time>2012-05-10T12:26:38Z</time>
      </trkpt>
      <trkpt lat="46.18012" lon="6.5217">
        <ele>1367</ele>
        <time>2012-05-10T12:26:39Z</time>
      </trkpt>
      <trkpt lat="46.18024" lon="6.52173">
        <ele>1372</ele>
        <time>2012-05-10T12:26:40Z</time>
      </trkpt>
      <trkpt lat="46.18037" lon="6.52176">
        <ele>1372</ele>
        <time>2012-05-10T12:26:41Z</time>
      </trkpt>
      <trkpt lat="46.18051" lon="6.52177">
        <ele>1372</ele>
        <time>2012-05-10T12:26:42Z</time>
      </trkpt>
      <trkpt lat="46.18066" lon="6.52179">
        <ele>1372</ele>
        <time>2012-05-10T12:26:43Z</time>
      </trkpt>
      <trkpt lat="46.1808" lon="6.52181">
        <ele>1372</ele>
        <time>2012-05-10T12:26:44Z</time>
      </trkpt>
      <trkpt lat="46.18095" lon="6.52181">
        <ele>1372</ele>
        <time>2012-05-10T12:26:45Z</time>
      </trkpt>
      <trkpt lat="46.1811" lon="6.52181">
        <ele>1372</ele>
        <time>2012-05-10T12:26:46Z</time>
      </trkpt>
      <trkpt lat="46.18125" lon="6.52181">
        <ele>1372</ele>
        <time>2012-05-10T12:26:47Z</time>
      </trkpt>
      <trkpt lat="46.1814" lon="6.5218">
        <ele>1372</ele>
        <time>2012-05-10T12:26:48Z</time>
      </trkpt>
      <trkpt lat="46.18154" lon="6.52179">
        <ele>1372</ele>
        <time>2012-05-10T12:26:49Z</time>
      </trkpt>
      <trkpt lat="46.18168" lon="6.52178">
        <ele>1372</ele>
        <time>2012-05-10T12:26:50Z</time>
      </trkpt>
      <trkpt lat="46.18183" lon="6.52176">
        <ele>1378</ele>
        <time>2012-05-10T12:26:51Z</time>
      </trkpt>
      <trkpt lat="46.18197" lon="6.52175">
        <ele>1378</ele>
        <time>2012-05-10T12:26:52Z</time>
      </trkpt>
      <trkpt lat="46.18211" lon="6.52176">
        <ele>1378</ele>
        <time>2012-05-10T12:26:53Z</time>
      </trkpt>
      <trkpt lat="46.18225" lon="6.52177">
        <ele>1378</ele>
        <time>2012-05-10T12:26:54Z</time>
      </trkpt>
      <trkpt lat="46.18239" lon="6.5218">
        <ele>1378</ele>
        <time>2012-05-10T12:26:55Z</time>
      </trkpt>
      <trkpt lat="46.18251" lon="6.52181">
        <ele>1378</ele>
        <time>2012-05-10T12:26:56Z</time>
      </trkpt>
      <trkpt lat="46.18263" lon="6.52184">
        <ele>1378</ele>
        <time>2012-05-10T12:26:57Z</time>
      </trkpt>
      <trkpt lat="46.18272" lon="6.52187">
        <ele>1378</ele>
        <time>2012-05-10T12:26:58Z</time>
      </trkpt>
      <trkpt lat="46.18289" lon="6.52191">
        <ele>1378</ele>
        <time>2012-05-10T12:27:00Z</time>
      </trkpt>
      <trkpt lat="46.18304" lon="6.52199">
        <ele>1378</ele>
        <time>2012-05-10T12:27:02Z</time>
      </trkpt>
      <trkpt lat="46.18317" lon="6.52209">
        <ele>1378</ele>
        <time>2012-05-10T12:27:04Z</time>
      </trkpt>
      <trkpt lat="46.18325" lon="6.52223">
        <ele>1378</ele>
        <time>2012-05-10T12:27:06Z</time>
      </trkpt>
      <trkpt lat="46.18328" lon="6.52242">
        <ele>1372</ele>
        <time>2012-05-10T12:27:08Z</time>
      </trkpt>
      <trkpt lat="46.18329" lon="6.5227">
        <ele>1372</ele>
        <time>2012-05-10T12:27:10Z</time>
      </trkpt>
      <trkpt lat="46.18327" lon="6.52287">
        <ele>1372</ele>
        <time>2012-05-10T12:27:11Z</time>
      </trkpt>
      <trkpt lat="46.18325" lon="6.52302">
        <ele>1372</ele>
        <time>2012-05-10T12:27:12Z</time>
      </trkpt>
      <trkpt lat="46.18323" lon="6.52315">
        <ele>1372</ele>
        <time>2012-05-10T12:27:13Z</time>
      </trkpt>
      <trkpt lat="46.18322" lon="6.5233">
        <ele>1372</ele>
        <time>2012-05-10T12:27:14Z</time>
      </trkpt>
      <trkpt lat="46.18322" lon="6.52343">
        <ele>1367</ele>
        <time>2012-05-10T12:27:15Z</time>
      </trkpt>
      <trkpt lat="46.18325" lon="6.52357">
        <ele>1367</ele>
        <time>2012-05-10T12:27:16Z</time>
      </trkpt>
      <trkpt lat="46.18329" lon="6.5237">
        <ele>1367</ele>
        <time>2012-05-10T12:27:17Z</time>
      </trkpt>
      <trkpt lat="46.18336" lon="6.52384">
        <ele>1367</ele>
        <time>2012-05-10T12:27:18Z</time>
      </trkpt>
      <trkpt lat="46.18342" lon="6.52399">
        <ele>1367</ele>
        <time>2012-05-10T12:27:19Z</time>
      </trkpt>
      <trkpt lat="46.1835" lon="6.52412">
        <ele>1367</ele>
        <time>2012-05-10T12:27:20Z</time>
      </trkpt>
      <trkpt lat="46.18357" lon="6.52426">
        <ele>1367</ele>
        <time>2012-05-10T12:27:21Z</time>
      </trkpt>
      <trkpt lat="46.18362" lon="6.52438">
        <ele>1367</ele>
        <time>2012-05-10T12:27:22Z</time>
      </trkpt>
      <trkpt lat="46.18368" lon="6.52451">
        <ele>1367</ele>
        <time>2012-05-10T12:27:23Z</time>
      </trkpt>
      <trkpt lat="46.18374" lon="6.52463">
        <ele>1367</ele>
        <time>2012-05-10T12:27:24Z</time>
      </trkpt>
      <trkpt lat="46.1838" lon="6.52473">
        <ele>1367</ele>
        <time>2012-05-10T12:27:25Z</time>
      </trkpt>
      <trkpt lat="46.18387" lon="6.52483">
        <ele>1367</ele>
        <time>2012-05-10T12:27:26Z</time>
      </trkpt>
      <trkpt lat="46.18395" lon="6.52493">
        <ele>1367</ele>
        <time>2012-05-10T12:27:27Z</time>
      </trkpt>
      <trkpt lat="46.18407" lon="6.525">
        <ele>1361</ele>
        <time>2012-05-10T12:27:28Z</time>
      </trkpt>
      <trkpt lat="46.1842" lon="6.52507">
        <ele>1361</ele>
        <time>2012-05-10T12:27:29Z</time>
      </trkpt>
      <trkpt lat="46.18433" lon="6.52512">
        <ele>1361</ele>
        <time>2012-05-10T12:27:30Z</time>
      </trkpt>
      <trkpt lat="46.18446" lon="6.52517">
        <ele>1361</ele>
        <time>2012-05-10T12:27:31Z</time>
      </trkpt>
      <trkpt lat="46.18458" lon="6.52523">
        <ele>1361</ele>
        <time>2012-05-10T12:27:32Z</time>
      </trkpt>
      <trkpt lat="46.18469" lon="6.52528">
        <ele>1361</ele>
        <time>2012-05-10T12:27:33Z</time>
      </trkpt>
      <trkpt lat="46.1848" lon="6.52534">
        <ele>1361</ele>
        <time>2012-05-10T12:27:34Z</time>
      </trkpt>
      <trkpt lat="46.18491" lon="6.52541">
        <ele>1361</ele>
        <time>2012-05-10T12:27:35Z</time>
      </trkpt>
      <trkpt lat="46.18501" lon="6.5255">
        <ele>1361</ele>
        <time>2012-05-10T12:27:36Z</time>
      </trkpt>
      <trkpt lat="46.18511" lon="6.52558">
        <ele>1361</ele>
        <time>2012-05-10T12:27:37Z</time>
      </trkpt>
      <trkpt lat="46.18518" lon="6.52566">
        <ele>1361</ele>
        <time>2012-05-10T12:27:38Z</time>
      </trkpt>
      <trkpt lat="46.1853" lon="6.52583">
        <ele>1361</ele>
        <time>2012-05-10T12:27:40Z</time>
      </trkpt>
      <trkpt lat="46.18536" lon="6.52605">
        <ele>1361</ele>
        <time>2012-05-10T12:27:42Z</time>
      </trkpt>
      <trkpt lat="46.18536" lon="6.5262">
        <ele>1361</ele>
        <time>2012-05-10T12:27:43Z</time>
      </trkpt>
      <trkpt lat="46.18537" lon="6.52633">
        <ele>1361</ele>
        <time>2012-05-10T12:27:44Z</time>
      </trkpt>
      <trkpt lat="46.18539" lon="6.52649">
        <ele>1356</ele>
        <time>2012-05-10T12:27:45Z</time>
      </trkpt>
      <trkpt lat="46.18541" lon="6.52664">
        <ele>1356</ele>
        <time>2012-05-10T12:27:46Z</time>
      </trkpt>
      <trkpt lat="46.18542" lon="6.5268">
        <ele>1356</ele>
        <time>2012-05-10T12:27:47Z</time>
      </trkpt>
      <trkpt lat="46.18543" lon="6.52696">
        <ele>1356</ele>
        <time>2012-05-10T12:27:48Z</time>
      </trkpt>
      <trkpt lat="46.18543" lon="6.52712">
        <ele>1356</ele>
        <time>2012-05-10T12:27:49Z</time>
      </trkpt>
      <trkpt lat="46.18543" lon="6.52729">
        <ele>1356</ele>
        <time>2012-05-10T12:27:50Z</time>
      </trkpt>
      <trkpt lat="46.18543" lon="6.52745">
        <ele>1351</ele>
        <time>2012-05-10T12:27:51Z</time>
      </trkpt>
      <trkpt lat="46.18542" lon="6.52759">
        <ele>1351</ele>
        <time>2012-05-10T12:27:52Z</time>
      </trkpt>
      <trkpt lat="46.18541" lon="6.52775">
        <ele>1351</ele>
        <time>2012-05-10T12:27:53Z</time>
      </trkpt>
      <trkpt lat="46.1854" lon="6.5279">
        <ele>1351</ele>
        <time>2012-05-10T12:27:54Z</time>
      </trkpt>
      <trkpt lat="46.18539" lon="6.52806">
        <ele>1351</ele>
        <time>2012-05-10T12:27:55Z</time>
      </trkpt>
      <trkpt lat="46.18536" lon="6.52823">
        <ele>1351</ele>
        <time>2012-05-10T12:27:56Z</time>
      </trkpt>
      <trkpt lat="46.18534" lon="6.52839">
        <ele>1351</ele>
        <time>2012-05-10T12:27:57Z</time>
      </trkpt>
      <trkpt lat="46.18531" lon="6.52855">
        <ele>1351</ele>
        <time>2012-05-10T12:27:58Z</time>
      </trkpt>
      <trkpt lat="46.18526" lon="6.5287">
        <ele>1345</ele>
        <time>2012-05-10T12:27:59Z</time>
      </trkpt>
      <trkpt lat="46.18522" lon="6.52886">
        <ele>1345</ele>
        <time>2012-05-10T12:28:00Z</time>
      </trkpt>
      <trkpt lat="46.18518" lon="6.52901">
        <ele>1345</ele>
        <time>2012-05-10T12:28:01Z</time>
      </trkpt>
      <trkpt lat="46.18514" lon="6.52914">
        <ele>1345</ele>
        <time>2012-05-10T12:28:02Z</time>
      </trkpt>
      <trkpt lat="46.18509" lon="6.52925">
        <ele>1345</ele>
        <time>2012-05-10T12:28:03Z</time>
      </trkpt>
      <trkpt lat="46.185" lon="6.52941">
        <ele>1339</ele>
        <time>2012-05-10T12:28:05Z</time>
      </trkpt>
      <trkpt lat="46.18489" lon="6.52963">
        <ele>1339</ele>
        <time>2012-05-10T12:28:07Z</time>
      </trkpt>
      <trkpt lat="46.1848" lon="6.52983">
        <ele>1339</ele>
        <time>2012-05-10T12:28:09Z</time>
      </trkpt>
      <trkpt lat="46.18475" lon="6.52994">
        <ele>1339</ele>
        <time>2012-05-10T12:28:10Z</time>
      </trkpt>
      <trkpt lat="46.18462" lon="6.53014">
        <ele>1333</ele>
        <time>2012-05-10T12:28:12Z</time>
      </trkpt>
      <trkpt lat="46.18453" lon="6.53025">
        <ele>1333</ele>
        <time>2012-05-10T12:28:13Z</time>
      </trkpt>
      <trkpt lat="46.18445" lon="6.53036">
        <ele>1333</ele>
        <time>2012-05-10T12:28:14Z</time>
      </trkpt>
      <trkpt lat="46.18435" lon="6.53047">
        <ele>1333</ele>
        <time>2012-05-10T12:28:15Z</time>
      </trkpt>
      <trkpt lat="46.18424" lon="6.53055">
        <ele>1333</ele>
        <time>2012-05-10T12:28:16Z</time>
      </trkpt>
      <trkpt lat="46.18414" lon="6.53065">
        <ele>1333</ele>
        <time>2012-05-10T12:28:17Z</time>
      </trkpt>
      <trkpt lat="46.18404" lon="6.53074">
        <ele>1333</ele>
        <time>2012-05-10T12:28:18Z</time>
      </trkpt>
      <trkpt lat="46.18395" lon="6.53085">
        <ele>1333</ele>
        <time>2012-05-10T12:28:19Z</time>
      </trkpt>
      <trkpt lat="46.18387" lon="6.53095">
        <ele>1328</ele>
        <time>2012-05-10T12:28:20Z</time>
      </trkpt>
      <trkpt lat="46.18378" lon="6.53103">
        <ele>1328</ele>
        <time>2012-05-10T12:28:21Z</time>
      </trkpt>
      <trkpt lat="46.18369" lon="6.5311">
        <ele>1328</ele>
        <time>2012-05-10T12:28:22Z</time>
      </trkpt>
      <trkpt lat="46.18359" lon="6.53119">
        <ele>1328</ele>
        <time>2012-05-10T12:28:23Z</time>
      </trkpt>
      <trkpt lat="46.18348" lon="6.53129">
        <ele>1328</ele>
        <time>2012-05-10T12:28:24Z</time>
      </trkpt>
      <trkpt lat="46.18336" lon="6.53135">
        <ele>1328</ele>
        <time>2012-05-10T12:28:25Z</time>
      </trkpt>
      <trkpt lat="46.18326" lon="6.53144">
        <ele>1328</ele>
        <time>2012-05-10T12:28:26Z</time>
      </trkpt>
      <trkpt lat="46.18316" lon="6.53151">
        <ele>1328</ele>
        <time>2012-05-10T12:28:27Z</time>
      </trkpt>
      <trkpt lat="46.18306" lon="6.53155">
        <ele>1328</ele>
        <time>2012-05-10T12:28:28Z</time>
      </trkpt>
      <trkpt lat="46.18294" lon="6.53163">
        <ele>1328</ele>
        <time>2012-05-10T12:28:29Z</time>
      </trkpt>
      <trkpt lat="46.18281" lon="6.53169">
        <ele>1328</ele>
        <time>2012-05-10T12:28:30Z</time>
      </trkpt>
      <trkpt lat="46.18269" lon="6.53178">
        <ele>1328</ele>
        <time>2012-05-10T12:28:31Z</time>
      </trkpt>
      <trkpt lat="46.18256" lon="6.53188">
        <ele>1328</ele>
        <time>2012-05-10T12:28:32Z</time>
      </trkpt>
      <trkpt lat="46.18244" lon="6.532">
        <ele>1328</ele>
        <time>2012-05-10T12:28:33Z</time>
      </trkpt>
      <trkpt lat="46.18231" lon="6.5321">
        <ele>1328</ele>
        <time>2012-05-10T12:28:34Z</time>
      </trkpt>
      <trkpt lat="46.18219" lon="6.5322">
        <ele>1328</ele>
        <time>2012-05-10T12:28:35Z</time>
      </trkpt>
      <trkpt lat="46.18208" lon="6.53228">
        <ele>1328</ele>
        <time>2012-05-10T12:28:36Z</time>
      </trkpt>
      <trkpt lat="46.18198" lon="6.53237">
        <ele>1328</ele>
        <time>2012-05-10T12:28:37Z</time>
      </trkpt>
      <trkpt lat="46.18189" lon="6.53249">
        <ele>1328</ele>
        <time>2012-05-10T12:28:38Z</time>
      </trkpt>
      <trkpt lat="46.18181" lon="6.5326">
        <ele>1328</ele>
        <time>2012-05-10T12:28:39Z</time>
      </trkpt>
      <trkpt lat="46.18171" lon="6.53273">
        <ele>1328</ele>
        <time>2012-05-10T12:28:40Z</time>
      </trkpt>
      <trkpt lat="46.18162" lon="6.53288">
        <ele>1328</ele>
        <time>2012-05-10T12:28:41Z</time>
      </trkpt>
      <trkpt lat="46.18154" lon="6.53302">
        <ele>1328</ele>
        <time>2012-05-10T12:28:42Z</time>
      </trkpt>
      <trkpt lat="46.18146" lon="6.53312">
        <ele>1328</ele>
        <time>2012-05-10T12:28:43Z</time>
      </trkpt>
      <trkpt lat="46.18138" lon="6.53324">
        <ele>1333</ele>
        <time>2012-05-10T12:28:44Z</time>
      </trkpt>
      <trkpt lat="46.18129" lon="6.53336">
        <ele>1333</ele>
        <time>2012-05-10T12:28:45Z</time>
      </trkpt>
      <trkpt lat="46.18121" lon="6.53346">
        <ele>1333</ele>
        <time>2012-05-10T12:28:46Z</time>
      </trkpt>
      <trkpt lat="46.18113" lon="6.53356">
        <ele>1333</ele>
        <time>2012-05-10T12:28:47Z</time>
      </trkpt>
      <trkpt lat="46.18105" lon="6.53366">
        <ele>1333</ele>
        <time>2012-05-10T12:28:48Z</time>
      </trkpt>
      <trkpt lat="46.18096" lon="6.53377">
        <ele>1333</ele>
        <time>2012-05-10T12:28:49Z</time>
      </trkpt>
      <trkpt lat="46.18088" lon="6.53387">
        <ele>1333</ele>
        <time>2012-05-10T12:28:50Z</time>
      </trkpt>
      <trkpt lat="46.1808" lon="6.53396">
        <ele>1333</ele>
        <time>2012-05-10T12:28:51Z</time>
      </trkpt>
      <trkpt lat="46.18071" lon="6.53415">
        <ele>1333</ele>
        <time>2012-05-10T12:28:53Z</time>
      </trkpt>
      <trkpt lat="46.1807" lon="6.53429">
        <ele>1333</ele>
        <time>2012-05-10T12:28:55Z</time>
      </trkpt>
      <trkpt lat="46.18078" lon="6.53435">
        <ele>1350</ele>
        <time>2012-05-10T12:29:19Z</time>
      </trkpt>
      <trkpt lat="46.18082" lon="6.53423">
        <ele>1350</ele>
        <time>2012-05-10T12:29:51Z</time>
      </trkpt>
      <trkpt lat="46.18072" lon="6.53424">
        <ele>1344</ele>
        <time>2012-05-10T12:30:00Z</time>
      </trkpt>
      <trkpt lat="46.18078" lon="6.53434">
        <ele>1336</ele>
        <time>2012-05-10T12:30:30Z</time>
      </trkpt>
      <trkpt lat="46.18088" lon="6.53427">
        <ele>1336</ele>
        <time>2012-05-10T12:30:33Z</time>
      </trkpt>
      <trkpt lat="46.18098" lon="6.53419">
        <ele>1336</ele>
        <time>2012-05-10T12:30:35Z</time>
      </trkpt>
      <trkpt lat="46.18112" lon="6.53412">
        <ele>1336</ele>
        <time>2012-05-10T12:30:37Z</time>
      </trkpt>
      <trkpt lat="46.18124" lon="6.53406">
        <ele>1331</ele>
        <time>2012-05-10T12:30:39Z</time>
      </trkpt>
      <trkpt lat="46.18135" lon="6.53404">
        <ele>1331</ele>
        <time>2012-05-10T12:30:41Z</time>
      </trkpt>
      <trkpt lat="46.18148" lon="6.53399">
        <ele>1331</ele>
        <time>2012-05-10T12:30:43Z</time>
      </trkpt>
      <trkpt lat="46.18161" lon="6.53393">
        <ele>1325</ele>
        <time>2012-05-10T12:30:45Z</time>
      </trkpt>
      <trkpt lat="46.18175" lon="6.53385">
        <ele>1325</ele>
        <time>2012-05-10T12:30:47Z</time>
      </trkpt>
      <trkpt lat="46.18187" lon="6.53373">
        <ele>1325</ele>
        <time>2012-05-10T12:30:49Z</time>
      </trkpt>
      <trkpt lat="46.18198" lon="6.53356">
        <ele>1319</ele>
        <time>2012-05-10T12:30:51Z</time>
      </trkpt>
      <trkpt lat="46.18206" lon="6.53336">
        <ele>1319</ele>
        <time>2012-05-10T12:30:53Z</time>
      </trkpt>
      <trkpt lat="46.18214" lon="6.53315">
        <ele>1319</ele>
        <time>2012-05-10T12:30:55Z</time>
      </trkpt>
      <trkpt lat="46.18223" lon="6.53294">
        <ele>1319</ele>
        <time>2012-05-10T12:30:57Z</time>
      </trkpt>
      <trkpt lat="46.1824" lon="6.53276">
        <ele>1319</ele>
        <time>2012-05-10T12:30:59Z</time>
      </trkpt>
      <trkpt lat="46.18251" lon="6.53268">
        <ele>1319</ele>
        <time>2012-05-10T12:31:00Z</time>
      </trkpt>
      <trkpt lat="46.18263" lon="6.5326">
        <ele>1319</ele>
        <time>2012-05-10T12:31:01Z</time>
      </trkpt>
      <trkpt lat="46.18274" lon="6.53253">
        <ele>1319</ele>
        <time>2012-05-10T12:31:02Z</time>
      </trkpt>
      <trkpt lat="46.18285" lon="6.53246">
        <ele>1319</ele>
        <time>2012-05-10T12:31:03Z</time>
      </trkpt>
      <trkpt lat="46.18296" lon="6.53239">
        <ele>1319</ele>
        <time>2012-05-10T12:31:04Z</time>
      </trkpt>
      <trkpt lat="46.18307" lon="6.53232">
        <ele>1319</ele>
        <time>2012-05-10T12:31:05Z</time>
      </trkpt>
      <trkpt lat="46.18318" lon="6.53225">
        <ele>1313</ele>
        <time>2012-05-10T12:31:06Z</time>
      </trkpt>
      <trkpt lat="46.1833" lon="6.53219">
        <ele>1313</ele>
        <time>2012-05-10T12:31:07Z</time>
      </trkpt>
      <trkpt lat="46.18342" lon="6.53212">
        <ele>1313</ele>
        <time>2012-05-10T12:31:08Z</time>
      </trkpt>
      <trkpt lat="46.18354" lon="6.53206">
        <ele>1313</ele>
        <time>2012-05-10T12:31:09Z</time>
      </trkpt>
      <trkpt lat="46.18365" lon="6.53202">
        <ele>1313</ele>
        <time>2012-05-10T12:31:10Z</time>
      </trkpt>
      <trkpt lat="46.18377" lon="6.53197">
        <ele>1308</ele>
        <time>2012-05-10T12:31:11Z</time>
      </trkpt>
      <trkpt lat="46.18388" lon="6.53193">
        <ele>1308</ele>
        <time>2012-05-10T12:31:12Z</time>
      </trkpt>
      <trkpt lat="46.18399" lon="6.53188">
        <ele>1308</ele>
        <time>2012-05-10T12:31:13Z</time>
      </trkpt>
      <trkpt lat="46.18408" lon="6.53184">
        <ele>1301</ele>
        <time>2012-05-10T12:31:14Z</time>
      </trkpt>
      <trkpt lat="46.18417" lon="6.53179">
        <ele>1301</ele>
        <time>2012-05-10T12:31:15Z</time>
      </trkpt>
      <trkpt lat="46.18426" lon="6.53175">
        <ele>1301</ele>
        <time>2012-05-10T12:31:16Z</time>
      </trkpt>
      <trkpt lat="46.18436" lon="6.5317">
        <ele>1301</ele>
        <time>2012-05-10T12:31:17Z</time>
      </trkpt>
      <trkpt lat="46.18446" lon="6.53166">
        <ele>1301</ele>
        <time>2012-05-10T12:31:18Z</time>
      </trkpt>
      <trkpt lat="46.18456" lon="6.53157">
        <ele>1301</ele>
        <time>2012-05-10T12:31:19Z</time>
      </trkpt>
      <trkpt lat="46.18466" lon="6.53147">
        <ele>1296</ele>
        <time>2012-05-10T12:31:20Z</time>
      </trkpt>
      <trkpt lat="46.18477" lon="6.53136">
        <ele>1296</ele>
        <time>2012-05-10T12:31:21Z</time>
      </trkpt>
      <trkpt lat="46.18487" lon="6.53127">
        <ele>1296</ele>
        <time>2012-05-10T12:31:22Z</time>
      </trkpt>
      <trkpt lat="46.18496" lon="6.53118">
        <ele>1296</ele>
        <time>2012-05-10T12:31:23Z</time>
      </trkpt>
      <trkpt lat="46.18507" lon="6.5311">
        <ele>1290</ele>
        <time>2012-05-10T12:31:24Z</time>
      </trkpt>
      <trkpt lat="46.18518" lon="6.53104">
        <ele>1290</ele>
        <time>2012-05-10T12:31:25Z</time>
      </trkpt>
      <trkpt lat="46.18526" lon="6.53099">
        <ele>1290</ele>
        <time>2012-05-10T12:31:26Z</time>
      </trkpt>
      <trkpt lat="46.18535" lon="6.53092">
        <ele>1290</ele>
        <time>2012-05-10T12:31:27Z</time>
      </trkpt>
      <trkpt lat="46.18547" lon="6.53075">
        <ele>1284</ele>
        <time>2012-05-10T12:31:29Z</time>
      </trkpt>
      <trkpt lat="46.1856" lon="6.53058">
        <ele>1284</ele>
        <time>2012-05-10T12:31:31Z</time>
      </trkpt>
      <trkpt lat="46.18568" lon="6.53051">
        <ele>1278</ele>
        <time>2012-05-10T12:31:32Z</time>
      </trkpt>
      <trkpt lat="46.18583" lon="6.53038">
        <ele>1278</ele>
        <time>2012-05-10T12:31:34Z</time>
      </trkpt>
      <trkpt lat="46.18599" lon="6.53023">
        <ele>1278</ele>
        <time>2012-05-10T12:31:36Z</time>
      </trkpt>
      <trkpt lat="46.18607" lon="6.53013">
        <ele>1278</ele>
        <time>2012-05-10T12:31:37Z</time>
      </trkpt>
      <trkpt lat="46.18615" lon="6.53002">
        <ele>1272</ele>
        <time>2012-05-10T12:31:38Z</time>
      </trkpt>
      <trkpt lat="46.18623" lon="6.5299">
        <ele>1272</ele>
        <time>2012-05-10T12:31:39Z</time>
      </trkpt>
      <trkpt lat="46.18631" lon="6.52978">
        <ele>1272</ele>
        <time>2012-05-10T12:31:40Z</time>
      </trkpt>
      <trkpt lat="46.18639" lon="6.52967">
        <ele>1265</ele>
        <time>2012-05-10T12:31:41Z</time>
      </trkpt>
      <trkpt lat="46.18652" lon="6.52949">
        <ele>1265</ele>
        <time>2012-05-10T12:31:43Z</time>
      </trkpt>
      <trkpt lat="46.18659" lon="6.5294">
        <ele>1265</ele>
        <time>2012-05-10T12:31:44Z</time>
      </trkpt>
      <trkpt lat="46.18666" lon="6.52928">
        <ele>1260</ele>
        <time>2012-05-10T12:31:45Z</time>
      </trkpt>
      <trkpt lat="46.1867" lon="6.52914">
        <ele>1260</ele>
        <time>2012-05-10T12:31:46Z</time>
      </trkpt>
      <trkpt lat="46.18666" lon="6.52899">
        <ele>1253</ele>
        <time>2012-05-10T12:31:47Z</time>
      </trkpt>
      <trkpt lat="46.18668" lon="6.52881">
        <ele>1253</ele>
        <time>2012-05-10T12:31:48Z</time>
      </trkpt>
      <trkpt lat="46.18671" lon="6.52864">
        <ele>1253</ele>
        <time>2012-05-10T12:31:49Z</time>
      </trkpt>
      <trkpt lat="46.18673" lon="6.52847">
        <ele>1253</ele>
        <time>2012-05-10T12:31:50Z</time>
      </trkpt>
      <trkpt lat="46.18676" lon="6.52829">
        <ele>1247</ele>
        <time>2012-05-10T12:31:51Z</time>
      </trkpt>
      <trkpt lat="46.18681" lon="6.52813">
        <ele>1247</ele>
        <time>2012-05-10T12:31:52Z</time>
      </trkpt>
      <trkpt lat="46.18682" lon="6.52796">
        <ele>1247</ele>
        <time>2012-05-10T12:31:53Z</time>
      </trkpt>
      <trkpt lat="46.18684" lon="6.52779">
        <ele>1247</ele>
        <time>2012-05-10T12:31:54Z</time>
      </trkpt>
      <trkpt lat="46.18686" lon="6.52763">
        <ele>1241</ele>
        <time>2012-05-10T12:31:55Z</time>
      </trkpt>
      <trkpt lat="46.18689" lon="6.52746">
        <ele>1241</ele>
        <time>2012-05-10T12:31:56Z</time>
      </trkpt>
      <trkpt lat="46.18691" lon="6.52729">
        <ele>1241</ele>
        <time>2012-05-10T12:31:57Z</time>
      </trkpt>
      <trkpt lat="46.18689" lon="6.52711">
        <ele>1241</ele>
        <time>2012-05-10T12:31:58Z</time>
      </trkpt>
      <trkpt lat="46.18688" lon="6.52694">
        <ele>1235</ele>
        <time>2012-05-10T12:31:59Z</time>
      </trkpt>
      <trkpt lat="46.18689" lon="6.52676">
        <ele>1235</ele>
        <time>2012-05-10T12:32:00Z</time>
      </trkpt>
      <trkpt lat="46.18691" lon="6.52658">
        <ele>1235</ele>
        <time>2012-05-10T12:32:01Z</time>
      </trkpt>
      <trkpt lat="46.18692" lon="6.52642">
        <ele>1235</ele>
        <time>2012-05-10T12:32:02Z</time>
      </trkpt>
      <trkpt lat="46.18691" lon="6.52625">
        <ele>1235</ele>
        <time>2012-05-10T12:32:03Z</time>
      </trkpt>
      <trkpt lat="46.18692" lon="6.52608">
        <ele>1229</ele>
        <time>2012-05-10T12:32:04Z</time>
      </trkpt>
      <trkpt lat="46.18692" lon="6.52591">
        <ele>1229</ele>
        <time>2012-05-10T12:32:05Z</time>
      </trkpt>
      <trkpt lat="46.18693" lon="6.52574">
        <ele>1229</ele>
        <time>2012-05-10T12:32:06Z</time>
      </trkpt>
      <trkpt lat="46.18692" lon="6.52558">
        <ele>1229</ele>
        <time>2012-05-10T12:32:07Z</time>
      </trkpt>
      <trkpt lat="46.18692" lon="6.52542">
        <ele>1229</ele>
        <time>2012-05-10T12:32:08Z</time>
      </trkpt>
      <trkpt lat="46.18692" lon="6.52528">
        <ele>1223</ele>
        <time>2012-05-10T12:32:09Z</time>
      </trkpt>
      <trkpt lat="46.18692" lon="6.52514">
        <ele>1223</ele>
        <time>2012-05-10T12:32:10Z</time>
      </trkpt>
      <trkpt lat="46.18691" lon="6.52499">
        <ele>1223</ele>
        <time>2012-05-10T12:32:11Z</time>
      </trkpt>
      <trkpt lat="46.18689" lon="6.52484">
        <ele>1223</ele>
        <time>2012-05-10T12:32:12Z</time>
      </trkpt>
      <trkpt lat="46.18688" lon="6.52469">
        <ele>1217</ele>
        <time>2012-05-10T12:32:13Z</time>
      </trkpt>
      <trkpt lat="46.18686" lon="6.52453">
        <ele>1217</ele>
        <time>2012-05-10T12:32:14Z</time>
      </trkpt>
      <trkpt lat="46.18684" lon="6.52437">
        <ele>1217</ele>
        <time>2012-05-10T12:32:15Z</time>
      </trkpt>
      <trkpt lat="46.18682" lon="6.52421">
        <ele>1211</ele>
        <time>2012-05-10T12:32:16Z</time>
      </trkpt>
      <trkpt lat="46.18681" lon="6.52405">
        <ele>1211</ele>
        <time>2012-05-10T12:32:17Z</time>
      </trkpt>
      <trkpt lat="46.18674" lon="6.52389">
        <ele>1211</ele>
        <time>2012-05-10T12:32:18Z</time>
      </trkpt>
      <trkpt lat="46.18669" lon="6.52372">
        <ele>1206</ele>
        <time>2012-05-10T12:32:19Z</time>
      </trkpt>
      <trkpt lat="46.18666" lon="6.52357">
        <ele>1206</ele>
        <time>2012-05-10T12:32:20Z</time>
      </trkpt>
      <trkpt lat="46.18661" lon="6.52341">
        <ele>1206</ele>
        <time>2012-05-10T12:32:21Z</time>
      </trkpt>
      <trkpt lat="46.18658" lon="6.52327">
        <ele>1206</ele>
        <time>2012-05-10T12:32:22Z</time>
      </trkpt>
      <trkpt lat="46.18656" lon="6.52314">
        <ele>1206</ele>
        <time>2012-05-10T12:32:23Z</time>
      </trkpt>
      <trkpt lat="46.1865" lon="6.52294">
        <ele>1206</ele>
        <time>2012-05-10T12:32:25Z</time>
      </trkpt>
      <trkpt lat="46.18642" lon="6.52277">
        <ele>1206</ele>
        <time>2012-05-10T12:32:27Z</time>
      </trkpt>
      <trkpt lat="46.18637" lon="6.52262">
        <ele>1206</ele>
        <time>2012-05-10T12:32:29Z</time>
      </trkpt>
      <trkpt lat="46.18627" lon="6.52245">
        <ele>1197</ele>
        <time>2012-05-10T12:32:31Z</time>
      </trkpt>
      <trkpt lat="46.1863" lon="6.52228">
        <ele>1197</ele>
        <time>2012-05-10T12:32:33Z</time>
      </trkpt>
      <trkpt lat="46.18647" lon="6.52213">
        <ele>1197</ele>
        <time>2012-05-10T12:32:35Z</time>
      </trkpt>
      <trkpt lat="46.18658" lon="6.52203">
        <ele>1197</ele>
        <time>2012-05-10T12:32:36Z</time>
      </trkpt>
      <trkpt lat="46.18669" lon="6.52194">
        <ele>1191</ele>
        <time>2012-05-10T12:32:37Z</time>
      </trkpt>
      <trkpt lat="46.18677" lon="6.52186">
        <ele>1191</ele>
        <time>2012-05-10T12:32:38Z</time>
      </trkpt>
      <trkpt lat="46.18685" lon="6.52177">
        <ele>1185</ele>
        <time>2012-05-10T12:32:39Z</time>
      </trkpt>
      <trkpt lat="46.18694" lon="6.52167">
        <ele>1185</ele>
        <time>2012-05-10T12:32:40Z</time>
      </trkpt>
      <trkpt lat="46.18701" lon="6.52157">
        <ele>1185</ele>
        <time>2012-05-10T12:32:41Z</time>
      </trkpt>
      <trkpt lat="46.18709" lon="6.52147">
        <ele>1185</ele>
        <time>2012-05-10T12:32:42Z</time>
      </trkpt>
      <trkpt lat="46.18714" lon="6.52137">
        <ele>1180</ele>
        <time>2012-05-10T12:32:43Z</time>
      </trkpt>
      <trkpt lat="46.18719" lon="6.52125">
        <ele>1180</ele>
        <time>2012-05-10T12:32:44Z</time>
      </trkpt>
      <trkpt lat="46.18722" lon="6.52112">
        <ele>1180</ele>
        <time>2012-05-10T12:32:45Z</time>
      </trkpt>
      <trkpt lat="46.18725" lon="6.52097">
        <ele>1174</ele>
        <time>2012-05-10T12:32:46Z</time>
      </trkpt>
      <trkpt lat="46.18729" lon="6.52083">
        <ele>1174</ele>
        <time>2012-05-10T12:32:47Z</time>
      </trkpt>
      <trkpt lat="46.18733" lon="6.52068">
        <ele>1174</ele>
        <time>2012-05-10T12:32:48Z</time>
      </trkpt>
      <trkpt lat="46.18736" lon="6.52055">
        <ele>1168</ele>
        <time>2012-05-10T12:32:49Z</time>
      </trkpt>
      <trkpt lat="46.1874" lon="6.52042">
        <ele>1168</ele>
        <time>2012-05-10T12:32:50Z</time>
      </trkpt>
      <trkpt lat="46.18745" lon="6.52019">
        <ele>1162</ele>
        <time>2012-05-10T12:32:52Z</time>
      </trkpt>
      <trkpt lat="46.18752" lon="6.51997">
        <ele>1162</ele>
        <time>2012-05-10T12:32:54Z</time>
      </trkpt>
      <trkpt lat="46.1876" lon="6.51987">
        <ele>1162</ele>
        <time>2012-05-10T12:32:55Z</time>
      </trkpt>
      <trkpt lat="46.1876" lon="6.5196">
        <ele>1154</ele>
        <time>2012-05-10T12:32:57Z</time>
      </trkpt>
      <trkpt lat="46.18764" lon="6.51939">
        <ele>1154</ele>
        <time>2012-05-10T12:32:59Z</time>
      </trkpt>
      <trkpt lat="46.18766" lon="6.51921">
        <ele>1148</ele>
        <time>2012-05-10T12:33:01Z</time>
      </trkpt>
      <trkpt lat="46.18764" lon="6.51901">
        <ele>1148</ele>
        <time>2012-05-10T12:33:03Z</time>
      </trkpt>
      <trkpt lat="46.1876" lon="6.51888">
        <ele>1142</ele>
        <time>2012-05-10T12:33:04Z</time>
      </trkpt>
      <trkpt lat="46.18758" lon="6.51873">
        <ele>1142</ele>
        <time>2012-05-10T12:33:05Z</time>
      </trkpt>
      <trkpt lat="46.18753" lon="6.51859">
        <ele>1142</ele>
        <time>2012-05-10T12:33:06Z</time>
      </trkpt>
      <trkpt lat="46.18754" lon="6.51845">
        <ele>1142</ele>
        <time>2012-05-10T12:33:07Z</time>
      </trkpt>
      <trkpt lat="46.18752" lon="6.51829">
        <ele>1137</ele>
        <time>2012-05-10T12:33:08Z</time>
      </trkpt>
      <trkpt lat="46.1875" lon="6.51815">
        <ele>1137</ele>
        <time>2012-05-10T12:33:09Z</time>
      </trkpt>
      <trkpt lat="46.18747" lon="6.518">
        <ele>1137</ele>
        <time>2012-05-10T12:33:10Z</time>
      </trkpt>
      <trkpt lat="46.18742" lon="6.51783">
        <ele>1137</ele>
        <time>2012-05-10T12:33:11Z</time>
      </trkpt>
      <trkpt lat="46.18738" lon="6.51767">
        <ele>1132</ele>
        <time>2012-05-10T12:33:12Z</time>
      </trkpt>
      <trkpt lat="46.18735" lon="6.51751">
        <ele>1132</ele>
        <time>2012-05-10T12:33:13Z</time>
      </trkpt>
      <trkpt lat="46.18732" lon="6.51735">
        <ele>1132</ele>
        <time>2012-05-10T12:33:14Z</time>
      </trkpt>
      <trkpt lat="46.18727" lon="6.51719">
        <ele>1132</ele>
        <time>2012-05-10T12:33:15Z</time>
      </trkpt>
      <trkpt lat="46.18724" lon="6.51703">
        <ele>1126</ele>
        <time>2012-05-10T12:33:16Z</time>
      </trkpt>
      <trkpt lat="46.18721" lon="6.51686">
        <ele>1126</ele>
        <time>2012-05-10T12:33:17Z</time>
      </trkpt>
      <trkpt lat="46.18718" lon="6.51668">
        <ele>1126</ele>
        <time>2012-05-10T12:33:18Z</time>
      </trkpt>
      <trkpt lat="46.1872" lon="6.51651">
        <ele>1126</ele>
        <time>2012-05-10T12:33:19Z</time>
      </trkpt>
      <trkpt lat="46.18724" lon="6.51636">
        <ele>1126</ele>
        <time>2012-05-10T12:33:20Z</time>
      </trkpt>
      <trkpt lat="46.18731" lon="6.51624">
        <ele>1126</ele>
        <time>2012-05-10T12:33:21Z</time>
      </trkpt>
      <trkpt lat="46.18738" lon="6.51612">
        <ele>1121</ele>
        <time>2012-05-10T12:33:22Z</time>
      </trkpt>
      <trkpt lat="46.18744" lon="6.51601">
        <ele>1121</ele>
        <time>2012-05-10T12:33:23Z</time>
      </trkpt>
      <trkpt lat="46.18748" lon="6.51579">
        <ele>1114</ele>
        <time>2012-05-10T12:33:25Z</time>
      </trkpt>
      <trkpt lat="46.18749" lon="6.51563">
        <ele>1114</ele>
        <time>2012-05-10T12:33:26Z</time>
      </trkpt>
      <trkpt lat="46.18752" lon="6.51549">
        <ele>1114</ele>
        <time>2012-05-10T12:33:27Z</time>
      </trkpt>
      <trkpt lat="46.18753" lon="6.51535">
        <ele>1109</ele>
        <time>2012-05-10T12:33:28Z</time>
      </trkpt>
      <trkpt lat="46.18752" lon="6.51519">
        <ele>1109</ele>
        <time>2012-05-10T12:33:29Z</time>
      </trkpt>
      <trkpt lat="46.18753" lon="6.51505">
        <ele>1109</ele>
        <time>2012-05-10T12:33:30Z</time>
      </trkpt>
      <trkpt lat="46.18755" lon="6.51482">
        <ele>1101</ele>
        <time>2012-05-10T12:33:32Z</time>
      </trkpt>
      <trkpt lat="46.18755" lon="6.51462">
        <ele>1101</ele>
        <time>2012-05-10T12:33:34Z</time>
      </trkpt>
      <trkpt lat="46.18749" lon="6.5144">
        <ele>1095</ele>
        <time>2012-05-10T12:33:36Z</time>
      </trkpt>
      <trkpt lat="46.18739" lon="6.51428">
        <ele>1095</ele>
        <time>2012-05-10T12:33:37Z</time>
      </trkpt>
      <trkpt lat="46.1873" lon="6.51414">
        <ele>1095</ele>
        <time>2012-05-10T12:33:38Z</time>
      </trkpt>
      <trkpt lat="46.18722" lon="6.51402">
        <ele>1095</ele>
        <time>2012-05-10T12:33:39Z</time>
      </trkpt>
      <trkpt lat="46.18715" lon="6.51393">
        <ele>1090</ele>
        <time>2012-05-10T12:33:40Z</time>
      </trkpt>
      <trkpt lat="46.18702" lon="6.51381">
        <ele>1090</ele>
        <time>2012-05-10T12:33:42Z</time>
      </trkpt>
      <trkpt lat="46.18692" lon="6.51378">
        <ele>1083</ele>
        <time>2012-05-10T12:33:43Z</time>
      </trkpt>
      <trkpt lat="46.18677" lon="6.5137">
        <ele>1083</ele>
        <time>2012-05-10T12:33:44Z</time>
      </trkpt>
      <trkpt lat="46.18662" lon="6.51364">
        <ele>1083</ele>
        <time>2012-05-10T12:33:45Z</time>
      </trkpt>
      <trkpt lat="46.1865" lon="6.51359">
        <ele>1083</ele>
        <time>2012-05-10T12:33:46Z</time>
      </trkpt>
      <trkpt lat="46.1864" lon="6.51357">
        <ele>1083</ele>
        <time>2012-05-10T12:33:47Z</time>
      </trkpt>
      <trkpt lat="46.18631" lon="6.51352">
        <ele>1083</ele>
        <time>2012-05-10T12:33:48Z</time>
      </trkpt>
      <trkpt lat="46.18623" lon="6.51342">
        <ele>1083</ele>
        <time>2012-05-10T12:33:50Z</time>
      </trkpt>
      <trkpt lat="46.18635" lon="6.51335">
        <ele>1083</ele>
        <time>2012-05-10T12:33:52Z</time>
      </trkpt>
      <trkpt lat="46.18646" lon="6.51333">
        <ele>1076</ele>
        <time>2012-05-10T12:33:54Z</time>
      </trkpt>
      <trkpt lat="46.18659" lon="6.51342">
        <ele>1076</ele>
        <time>2012-05-10T12:33:56Z</time>
      </trkpt>
      <trkpt lat="46.18669" lon="6.51345">
        <ele>1076</ele>
        <time>2012-05-10T12:33:57Z</time>
      </trkpt>
      <trkpt lat="46.18685" lon="6.51349">
        <ele>1069</ele>
        <time>2012-05-10T12:33:59Z</time>
      </trkpt>
      <trkpt lat="46.18702" lon="6.51344">
        <ele>1069</ele>
        <time>2012-05-10T12:34:01Z</time>
      </trkpt>
      <trkpt lat="46.18714" lon="6.5133">
        <ele>1069</ele>
        <time>2012-05-10T12:34:03Z</time>
      </trkpt>
      <trkpt lat="46.18719" lon="6.51315">
        <ele>1069</ele>
        <time>2012-05-10T12:34:05Z</time>
      </trkpt>
      <trkpt lat="46.18717" lon="6.51299">
        <ele>1069</ele>
        <time>2012-05-10T12:34:07Z</time>
      </trkpt>
      <trkpt lat="46.18713" lon="6.51283">
        <ele>1063</ele>
        <time>2012-05-10T12:34:09Z</time>
      </trkpt>
      <trkpt lat="46.18715" lon="6.51257">
        <ele>1063</ele>
        <time>2012-05-10T12:34:12Z</time>
      </trkpt>
      <trkpt lat="46.18727" lon="6.51248">
        <ele>1063</ele>
        <time>2012-05-10T12:34:13Z</time>
      </trkpt>
      <trkpt lat="46.18734" lon="6.5124">
        <ele>1063</ele>
        <time>2012-05-10T12:34:14Z</time>
      </trkpt>
      <trkpt lat="46.18744" lon="6.51228">
        <ele>1063</ele>
        <time>2012-05-10T12:34:15Z</time>
      </trkpt>
      <trkpt lat="46.18758" lon="6.51208">
        <ele>1063</ele>
        <time>2012-05-10T12:34:17Z</time>
      </trkpt>
      <trkpt lat="46.18764" lon="6.51196">
        <ele>1058</ele>
        <time>2012-05-10T12:34:18Z</time>
      </trkpt>
      <trkpt lat="46.18771" lon="6.51183">
        <ele>1058</ele>
        <time>2012-05-10T12:34:19Z</time>
      </trkpt>
      <trkpt lat="46.18779" lon="6.51171">
        <ele>1058</ele>
        <time>2012-05-10T12:34:20Z</time>
      </trkpt>
      <trkpt lat="46.18787" lon="6.51149">
        <ele>1052</ele>
        <time>2012-05-10T12:34:22Z</time>
      </trkpt>
      <trkpt lat="46.18788" lon="6.51128">
        <ele>1052</ele>
        <time>2012-05-10T12:34:24Z</time>
      </trkpt>
      <trkpt lat="46.18779" lon="6.51112">
        <ele>1042</ele>
        <time>2012-05-10T12:34:26Z</time>
      </trkpt>
      <trkpt lat="46.18788" lon="6.51098">
        <ele>1036</ele>
        <time>2012-05-10T12:34:29Z</time>
      </trkpt>
      <trkpt lat="46.18806" lon="6.51103">
        <ele>1036</ele>
        <time>2012-05-10T12:34:31Z</time>
      </trkpt>
      <trkpt lat="46.18816" lon="6.51112">
        <ele>1036</ele>
        <time>2012-05-10T12:34:32Z</time>
      </trkpt>
      <trkpt lat="46.18825" lon="6.51118">
        <ele>1029</ele>
        <time>2012-05-10T12:34:33Z</time>
      </trkpt>
      <trkpt lat="46.18835" lon="6.51124">
        <ele>1029</ele>
        <time>2012-05-10T12:34:34Z</time>
      </trkpt>
      <trkpt lat="46.18851" lon="6.51137">
        <ele>1023</ele>
        <time>2012-05-10T12:34:36Z</time>
      </trkpt>
      <trkpt lat="46.18858" lon="6.51147">
        <ele>1023</ele>
        <time>2012-05-10T12:34:37Z</time>
      </trkpt>
      <trkpt lat="46.18863" lon="6.51158">
        <ele>1023</ele>
        <time>2012-05-10T12:34:38Z</time>
      </trkpt>
      <trkpt lat="46.18874" lon="6.51174">
        <ele>1023</ele>
        <time>2012-05-10T12:34:40Z</time>
      </trkpt>
      <trkpt lat="46.18884" lon="6.5118">
        <ele>1017</ele>
        <time>2012-05-10T12:34:42Z</time>
      </trkpt>
      <trkpt lat="46.18899" lon="6.51168">
        <ele>1017</ele>
        <time>2012-05-10T12:34:45Z</time>
      </trkpt>
      <trkpt lat="46.18907" lon="6.51156">
        <ele>1010</ele>
        <time>2012-05-10T12:34:47Z</time>
      </trkpt>
      <trkpt lat="46.18923" lon="6.51152">
        <ele>1010</ele>
        <time>2012-05-10T12:34:50Z</time>
      </trkpt>
      <trkpt lat="46.18935" lon="6.5117">
        <ele>1004</ele>
        <time>2012-05-10T12:34:52Z</time>
      </trkpt>
      <trkpt lat="46.18939" lon="6.51183">
        <ele>1004</ele>
        <time>2012-05-10T12:34:53Z</time>
      </trkpt>
      <trkpt lat="46.18941" lon="6.51198">
        <ele>1004</ele>
        <time>2012-05-10T12:34:54Z</time>
      </trkpt>
      <trkpt lat="46.18946" lon="6.51209">
        <ele>1004</ele>
        <time>2012-05-10T12:34:55Z</time>
      </trkpt>
      <trkpt lat="46.18953" lon="6.51229">
        <ele>995</ele>
        <time>2012-05-10T12:34:57Z</time>
      </trkpt>
      <trkpt lat="46.18961" lon="6.51246">
        <ele>995</ele>
        <time>2012-05-10T12:34:59Z</time>
      </trkpt>
      <trkpt lat="46.18971" lon="6.51252">
        <ele>995</ele>
        <time>2012-05-10T12:35:01Z</time>
      </trkpt>
      <trkpt lat="46.18988" lon="6.51251">
        <ele>995</ele>
        <time>2012-05-10T12:35:03Z</time>
      </trkpt>
      <trkpt lat="46.18991" lon="6.51236">
        <ele>1018</ele>
        <time>2012-05-10T12:35:20Z</time>
      </trkpt>
      <trkpt lat="46.18992" lon="6.51217">
        <ele>1018</ele>
        <time>2012-05-10T12:35:23Z</time>
      </trkpt>
      <trkpt lat="46.18996" lon="6.51193">
        <ele>1012</ele>
        <time>2012-05-10T12:35:25Z</time>
      </trkpt>
      <trkpt lat="46.19002" lon="6.51174">
        <ele>1012</ele>
        <time>2012-05-10T12:35:27Z</time>
      </trkpt>
      <trkpt lat="46.19012" lon="6.51157">
        <ele>1005</ele>
        <time>2012-05-10T12:35:29Z</time>
      </trkpt>
      <trkpt lat="46.19023" lon="6.51144">
        <ele>1005</ele>
        <time>2012-05-10T12:35:31Z</time>
      </trkpt>
      <trkpt lat="46.19032" lon="6.5114">
        <ele>1005</ele>
        <time>2012-05-10T12:35:32Z</time>
      </trkpt>
      <trkpt lat="46.19041" lon="6.51138">
        <ele>1005</ele>
        <time>2012-05-10T12:35:33Z</time>
      </trkpt>
      <trkpt lat="46.1905" lon="6.51134">
        <ele>1005</ele>
        <time>2012-05-10T12:35:34Z</time>
      </trkpt>
      <trkpt lat="46.19062" lon="6.51122">
        <ele>999</ele>
        <time>2012-05-10T12:35:36Z</time>
      </trkpt>
      <trkpt lat="46.19068" lon="6.51112">
        <ele>999</ele>
        <time>2012-05-10T12:35:37Z</time>
      </trkpt>
      <trkpt lat="46.19073" lon="6.51088">
        <ele>999</ele>
        <time>2012-05-10T12:35:39Z</time>
      </trkpt>
      <trkpt lat="46.19077" lon="6.51074">
        <ele>992</ele>
        <time>2012-05-10T12:35:40Z</time>
      </trkpt>
      <trkpt lat="46.19081" lon="6.51059">
        <ele>992</ele>
        <time>2012-05-10T12:35:41Z</time>
      </trkpt>
      <trkpt lat="46.19085" lon="6.51046">
        <ele>992</ele>
        <time>2012-05-10T12:35:42Z</time>
      </trkpt>
      <trkpt lat="46.19089" lon="6.51033">
        <ele>992</ele>
        <time>2012-05-10T12:35:43Z</time>
      </trkpt>
      <trkpt lat="46.19094" lon="6.5101">
        <ele>984</ele>
        <time>2012-05-10T12:35:45Z</time>
      </trkpt>
      <trkpt lat="46.19096" lon="6.50988">
        <ele>984</ele>
        <time>2012-05-10T12:35:47Z</time>
      </trkpt>
      <trkpt lat="46.19097" lon="6.50974">
        <ele>984</ele>
        <time>2012-05-10T12:35:48Z</time>
      </trkpt>
      <trkpt lat="46.19094" lon="6.5096">
        <ele>977</ele>
        <time>2012-05-10T12:35:49Z</time>
      </trkpt>
      <trkpt lat="46.19089" lon="6.50943">
        <ele>977</ele>
        <time>2012-05-10T12:35:50Z</time>
      </trkpt>
      <trkpt lat="46.19085" lon="6.50926">
        <ele>977</ele>
        <time>2012-05-10T12:35:51Z</time>
      </trkpt>
      <trkpt lat="46.19082" lon="6.50911">
        <ele>972</ele>
        <time>2012-05-10T12:35:52Z</time>
      </trkpt>
      <trkpt lat="46.1908" lon="6.50896">
        <ele>972</ele>
        <time>2012-05-10T12:35:53Z</time>
      </trkpt>
      <trkpt lat="46.1908" lon="6.50882">
        <ele>972</ele>
        <time>2012-05-10T12:35:54Z</time>
      </trkpt>
      <trkpt lat="46.19081" lon="6.5086">
        <ele>967</ele>
        <time>2012-05-10T12:35:56Z</time>
      </trkpt>
      <trkpt lat="46.19075" lon="6.50838">
        <ele>967</ele>
        <time>2012-05-10T12:35:58Z</time>
      </trkpt>
      <trkpt lat="46.19065" lon="6.50816">
        <ele>967</ele>
        <time>2012-05-10T12:36:00Z</time>
      </trkpt>
      <trkpt lat="46.19058" lon="6.50792">
        <ele>960</ele>
        <time>2012-05-10T12:36:02Z</time>
      </trkpt>
      <trkpt lat="46.19054" lon="6.50778">
        <ele>960</ele>
        <time>2012-05-10T12:36:03Z</time>
      </trkpt>
      <trkpt lat="46.1905" lon="6.50758">
        <ele>960</ele>
        <time>2012-05-10T12:36:05Z</time>
      </trkpt>
      <trkpt lat="46.19047" lon="6.50742">
        <ele>960</ele>
        <time>2012-05-10T12:36:08Z</time>
      </trkpt>
      <trkpt lat="46.19039" lon="6.50732">
        <ele>960</ele>
        <time>2012-05-10T12:36:23Z</time>
      </trkpt>
      <trkpt lat="46.1903" lon="6.50724">
        <ele>960</ele>
        <time>2012-05-10T12:36:25Z</time>
      </trkpt>
      <trkpt lat="46.19015" lon="6.50723">
        <ele>960</ele>
        <time>2012-05-10T12:36:27Z</time>
      </trkpt>
      <trkpt lat="46.19001" lon="6.5072">
        <ele>960</ele>
        <time>2012-05-10T12:36:29Z</time>
      </trkpt>
      <trkpt lat="46.18988" lon="6.50716">
        <ele>960</ele>
        <time>2012-05-10T12:36:31Z</time>
      </trkpt>
      <trkpt lat="46.18973" lon="6.50714">
        <ele>960</ele>
        <time>2012-05-10T12:36:33Z</time>
      </trkpt>
      <trkpt lat="46.18959" lon="6.50715">
        <ele>953</ele>
        <time>2012-05-10T12:36:35Z</time>
      </trkpt>
      <trkpt lat="46.18947" lon="6.50717">
        <ele>953</ele>
        <time>2012-05-10T12:36:37Z</time>
      </trkpt>
      <trkpt lat="46.18936" lon="6.50707">
        <ele>953</ele>
        <time>2012-05-10T12:36:40Z</time>
      </trkpt>
      <trkpt lat="46.18937" lon="6.50691">
        <ele>946</ele>
        <time>2012-05-10T12:36:42Z</time>
      </trkpt>
      <trkpt lat="46.18944" lon="6.50674">
        <ele>946</ele>
        <time>2012-05-10T12:36:44Z</time>
      </trkpt>
      <trkpt lat="46.1895" lon="6.50659">
        <ele>946</ele>
        <time>2012-05-10T12:36:46Z</time>
      </trkpt>
      <trkpt lat="46.18952" lon="6.50643">
        <ele>940</ele>
        <time>2012-05-10T12:36:48Z</time>
      </trkpt>
      <trkpt lat="46.18951" lon="6.50625">
        <ele>940</ele>
        <time>2012-05-10T12:36:50Z</time>
      </trkpt>
      <trkpt lat="46.18945" lon="6.50605">
        <ele>940</ele>
        <time>2012-05-10T12:36:52Z</time>
      </trkpt>
      <trkpt lat="46.18936" lon="6.50583">
        <ele>940</ele>
        <time>2012-05-10T12:36:54Z</time>
      </trkpt>
      <trkpt lat="46.18928" lon="6.50564">
        <ele>940</ele>
        <time>2012-05-10T12:36:56Z</time>
      </trkpt>
      <trkpt lat="46.1892" lon="6.50546">
        <ele>940</ele>
        <time>2012-05-10T12:36:58Z</time>
      </trkpt>
      <trkpt lat="46.18913" lon="6.50529">
        <ele>935</ele>
        <time>2012-05-10T12:37:00Z</time>
      </trkpt>
      <trkpt lat="46.18901" lon="6.50519">
        <ele>935</ele>
        <time>2012-05-10T12:37:02Z</time>
      </trkpt>
      <trkpt lat="46.1889" lon="6.50512">
        <ele>935</ele>
        <time>2012-05-10T12:37:04Z</time>
      </trkpt>
      <trkpt lat="46.18878" lon="6.50512">
        <ele>935</ele>
        <time>2012-05-10T12:37:06Z</time>
      </trkpt>
      <trkpt lat="46.18866" lon="6.50517">
        <ele>935</ele>
        <time>2012-05-10T12:37:08Z</time>
      </trkpt>
      <trkpt lat="46.18856" lon="6.50523">
        <ele>929</ele>
        <time>2012-05-10T12:37:10Z</time>
      </trkpt>
      <trkpt lat="46.18845" lon="6.50529">
        <ele>929</ele>
        <time>2012-05-10T12:37:12Z</time>
      </trkpt>
      <trkpt lat="46.18835" lon="6.50536">
        <ele>929</ele>
        <time>2012-05-10T12:37:14Z</time>
      </trkpt>
      <trkpt lat="46.18823" lon="6.50537">
        <ele>929</ele>
        <time>2012-05-10T12:37:16Z</time>
      </trkpt>
      <trkpt lat="46.18813" lon="6.50522">
        <ele>923</ele>
        <time>2012-05-10T12:37:19Z</time>
      </trkpt>
      <trkpt lat="46.18808" lon="6.50504">
        <ele>923</ele>
        <time>2012-05-10T12:37:21Z</time>
      </trkpt>
      <trkpt lat="46.18805" lon="6.50483">
        <ele>923</ele>
        <time>2012-05-10T12:37:23Z</time>
      </trkpt>
      <trkpt lat="46.18804" lon="6.50458">
        <ele>923</ele>
        <time>2012-05-10T12:37:25Z</time>
      </trkpt>
      <trkpt lat="46.18809" lon="6.50434">
        <ele>923</ele>
        <time>2012-05-10T12:37:27Z</time>
      </trkpt>
      <trkpt lat="46.18818" lon="6.50415">
        <ele>917</ele>
        <time>2012-05-10T12:37:29Z</time>
      </trkpt>
      <trkpt lat="46.18825" lon="6.50398">
        <ele>917</ele>
        <time>2012-05-10T12:37:31Z</time>
      </trkpt>
      <trkpt lat="46.18825" lon="6.50379">
        <ele>917</ele>
        <time>2012-05-10T12:37:33Z</time>
      </trkpt>
      <trkpt lat="46.18823" lon="6.50361">
        <ele>917</ele>
        <time>2012-05-10T12:37:35Z</time>
      </trkpt>
      <trkpt lat="46.18819" lon="6.50347">
        <ele>917</ele>
        <time>2012-05-10T12:37:38Z</time>
      </trkpt>
      <trkpt lat="46.18817" lon="6.50326">
        <ele>917</ele>
        <time>2012-05-10T12:37:41Z</time>
      </trkpt>
      <trkpt lat="46.18822" lon="6.50307">
        <ele>917</ele>
        <time>2012-05-10T12:37:43Z</time>
      </trkpt>
      <trkpt lat="46.18828" lon="6.50297">
        <ele>917</ele>
        <time>2012-05-10T12:37:44Z</time>
      </trkpt>
      <trkpt lat="46.18835" lon="6.50288">
        <ele>917</ele>
        <time>2012-05-10T12:37:45Z</time>
      </trkpt>
      <trkpt lat="46.18845" lon="6.5028">
        <ele>917</ele>
        <time>2012-05-10T12:37:46Z</time>
      </trkpt>
      <trkpt lat="46.18854" lon="6.50272">
        <ele>917</ele>
        <time>2012-05-10T12:37:47Z</time>
      </trkpt>
      <trkpt lat="46.18863" lon="6.50264">
        <ele>917</ele>
        <time>2012-05-10T12:37:48Z</time>
      </trkpt>
      <trkpt lat="46.18871" lon="6.50256">
        <ele>917</ele>
        <time>2012-05-10T12:37:49Z</time>
      </trkpt>
      <trkpt lat="46.1888" lon="6.50247">
        <ele>917</ele>
        <time>2012-05-10T12:37:50Z</time>
      </trkpt>
      <trkpt lat="46.18887" lon="6.50237">
        <ele>917</ele>
        <time>2012-05-10T12:37:51Z</time>
      </trkpt>
      <trkpt lat="46.18893" lon="6.50224">
        <ele>917</ele>
        <time>2012-05-10T12:37:52Z</time>
      </trkpt>
      <trkpt lat="46.18898" lon="6.5021">
        <ele>917</ele>
        <time>2012-05-10T12:37:53Z</time>
      </trkpt>
      <trkpt lat="46.18902" lon="6.50193">
        <ele>912</ele>
        <time>2012-05-10T12:37:54Z</time>
      </trkpt>
      <trkpt lat="46.18905" lon="6.50175">
        <ele>912</ele>
        <time>2012-05-10T12:37:55Z</time>
      </trkpt>
      <trkpt lat="46.18908" lon="6.50155">
        <ele>912</ele>
        <time>2012-05-10T12:37:56Z</time>
      </trkpt>
      <trkpt lat="46.18911" lon="6.50134">
        <ele>912</ele>
        <time>2012-05-10T12:37:57Z</time>
      </trkpt>
      <trkpt lat="46.18914" lon="6.50114">
        <ele>912</ele>
        <time>2012-05-10T12:37:58Z</time>
      </trkpt>
      <trkpt lat="46.18917" lon="6.50093">
        <ele>912</ele>
        <time>2012-05-10T12:37:59Z</time>
      </trkpt>
      <trkpt lat="46.1892" lon="6.50072">
        <ele>912</ele>
        <time>2012-05-10T12:38:00Z</time>
      </trkpt>
      <trkpt lat="46.18923" lon="6.50051">
        <ele>906</ele>
        <time>2012-05-10T12:38:01Z</time>
      </trkpt>
      <trkpt lat="46.18926" lon="6.5003">
        <ele>906</ele>
        <time>2012-05-10T12:38:02Z</time>
      </trkpt>
      <trkpt lat="46.1893" lon="6.50008">
        <ele>906</ele>
        <time>2012-05-10T12:38:03Z</time>
      </trkpt>
      <trkpt lat="46.18933" lon="6.49987">
        <ele>906</ele>
        <time>2012-05-10T12:38:04Z</time>
      </trkpt>
      <trkpt lat="46.18937" lon="6.49966">
        <ele>906</ele>
        <time>2012-05-10T12:38:05Z</time>
      </trkpt>
      <trkpt lat="46.18941" lon="6.49946">
        <ele>906</ele>
        <time>2012-05-10T12:38:06Z</time>
      </trkpt>
      <trkpt lat="46.18947" lon="6.49925">
        <ele>900</ele>
        <time>2012-05-10T12:38:07Z</time>
      </trkpt>
      <trkpt lat="46.18953" lon="6.49905">
        <ele>900</ele>
        <time>2012-05-10T12:38:08Z</time>
      </trkpt>
      <trkpt lat="46.18959" lon="6.49887">
        <ele>900</ele>
        <time>2012-05-10T12:38:09Z</time>
      </trkpt>
      <trkpt lat="46.18966" lon="6.4987">
        <ele>900</ele>
        <time>2012-05-10T12:38:10Z</time>
      </trkpt>
      <trkpt lat="46.18972" lon="6.49855">
        <ele>900</ele>
        <time>2012-05-10T12:38:11Z</time>
      </trkpt>
      <trkpt lat="46.18977" lon="6.49841">
        <ele>900</ele>
        <time>2012-05-10T12:38:12Z</time>
      </trkpt>
      <trkpt lat="46.1898" lon="6.49828">
        <ele>895</ele>
        <time>2012-05-10T12:38:13Z</time>
      </trkpt>
      <trkpt lat="46.18981" lon="6.49804">
        <ele>895</ele>
        <time>2012-05-10T12:38:15Z</time>
      </trkpt>
      <trkpt lat="46.18976" lon="6.49786">
        <ele>895</ele>
        <time>2012-05-10T12:38:17Z</time>
      </trkpt>
      <trkpt lat="46.18968" lon="6.49778">
        <ele>895</ele>
        <time>2012-05-10T12:38:24Z</time>
      </trkpt>
      <trkpt lat="46.18976" lon="6.4977">
        <ele>895</ele>
        <time>2012-05-10T12:38:46Z</time>
      </trkpt>
      <trkpt lat="46.18993" lon="6.49773">
        <ele>890</ele>
        <time>2012-05-10T12:38:48Z</time>
      </trkpt>
      <trkpt lat="46.19001" lon="6.49779">
        <ele>890</ele>
        <time>2012-05-10T12:38:49Z</time>
      </trkpt>
      <trkpt lat="46.19012" lon="6.49799">
        <ele>890</ele>
        <time>2012-05-10T12:38:51Z</time>
      </trkpt>
      <trkpt lat="46.19014" lon="6.49812">
        <ele>890</ele>
        <time>2012-05-10T12:38:52Z</time>
      </trkpt>
      <trkpt lat="46.19017" lon="6.49836">
        <ele>885</ele>
        <time>2012-05-10T12:38:54Z</time>
      </trkpt>
      <trkpt lat="46.1902" lon="6.49849">
        <ele>885</ele>
        <time>2012-05-10T12:38:55Z</time>
      </trkpt>
      <trkpt lat="46.19024" lon="6.4986">
        <ele>885</ele>
        <time>2012-05-10T12:38:56Z</time>
      </trkpt>
      <trkpt lat="46.19031" lon="6.49871">
        <ele>885</ele>
        <time>2012-05-10T12:38:57Z</time>
      </trkpt>
      <trkpt lat="46.19039" lon="6.49879">
        <ele>885</ele>
        <time>2012-05-10T12:38:58Z</time>
      </trkpt>
      <trkpt lat="46.19051" lon="6.49884">
        <ele>885</ele>
        <time>2012-05-10T12:38:59Z</time>
      </trkpt>
      <trkpt lat="46.19064" lon="6.49887">
        <ele>885</ele>
        <time>2012-05-10T12:39:00Z</time>
      </trkpt>
      <trkpt lat="46.1908" lon="6.49891">
        <ele>879</ele>
        <time>2012-05-10T12:39:01Z</time>
      </trkpt>
      <trkpt lat="46.19095" lon="6.49893">
        <ele>879</ele>
        <time>2012-05-10T12:39:02Z</time>
      </trkpt>
      <trkpt lat="46.19109" lon="6.49897">
        <ele>879</ele>
        <time>2012-05-10T12:39:03Z</time>
      </trkpt>
      <trkpt lat="46.19124" lon="6.49898">
        <ele>879</ele>
        <time>2012-05-10T12:39:04Z</time>
      </trkpt>
      <trkpt lat="46.19138" lon="6.49899">
        <ele>874</ele>
        <time>2012-05-10T12:39:05Z</time>
      </trkpt>
      <trkpt lat="46.1915" lon="6.49899">
        <ele>874</ele>
        <time>2012-05-10T12:39:06Z</time>
      </trkpt>
      <trkpt lat="46.19162" lon="6.49899">
        <ele>874</ele>
        <time>2012-05-10T12:39:07Z</time>
      </trkpt>
      <trkpt lat="46.19172" lon="6.49899">
        <ele>874</ele>
        <time>2012-05-10T12:39:08Z</time>
      </trkpt>
      <trkpt lat="46.19182" lon="6.49899">
        <ele>874</ele>
        <time>2012-05-10T12:39:09Z</time>
      </trkpt>
      <trkpt lat="46.19197" lon="6.49901">
        <ele>874</ele>
        <time>2012-05-10T12:39:11Z</time>
      </trkpt>
      <trkpt lat="46.19213" lon="6.49902">
        <ele>874</ele>
        <time>2012-05-10T12:39:13Z</time>
      </trkpt>
      <trkpt lat="46.19226" lon="6.4991">
        <ele>874</ele>
        <time>2012-05-10T12:39:15Z</time>
      </trkpt>
      <trkpt lat="46.19238" lon="6.49923">
        <ele>874</ele>
        <time>2012-05-10T12:39:17Z</time>
      </trkpt>
      <trkpt lat="46.19246" lon="6.49932">
        <ele>874</ele>
        <time>2012-05-10T12:39:19Z</time>
      </trkpt>
      <trkpt lat="46.19255" lon="6.49932">
        <ele>874</ele>
        <time>2012-05-10T12:39:21Z</time>
      </trkpt>
      <trkpt lat="46.19267" lon="6.49922">
        <ele>874</ele>
        <time>2012-05-10T12:39:23Z</time>
      </trkpt>
      <trkpt lat="46.19277" lon="6.49912">
        <ele>874</ele>
        <time>2012-05-10T12:39:25Z</time>
      </trkpt>
      <trkpt lat="46.19283" lon="6.49902">
        <ele>874</ele>
        <time>2012-05-10T12:39:27Z</time>
      </trkpt>
      <trkpt lat="46.19284" lon="6.49888">
        <ele>874</ele>
        <time>2012-05-10T12:39:29Z</time>
      </trkpt>
      <trkpt lat="46.19279" lon="6.49869">
        <ele>874</ele>
        <time>2012-05-10T12:39:31Z</time>
      </trkpt>
      <trkpt lat="46.19275" lon="6.49852">
        <ele>874</ele>
        <time>2012-05-10T12:39:33Z</time>
      </trkpt>
      <trkpt lat="46.19273" lon="6.4984">
        <ele>874</ele>
        <time>2012-05-10T12:39:40Z</time>
      </trkpt>
      <trkpt lat="46.1928" lon="6.49827">
        <ele>874</ele>
        <time>2012-05-10T12:39:44Z</time>
      </trkpt>
      <trkpt lat="46.19289" lon="6.49817">
        <ele>874</ele>
        <time>2012-05-10T12:39:46Z</time>
      </trkpt>
      <trkpt lat="46.19299" lon="6.49809">
        <ele>874</ele>
        <time>2012-05-10T12:39:48Z</time>
      </trkpt>
      <trkpt lat="46.19313" lon="6.49806">
        <ele>874</ele>
        <time>2012-05-10T12:39:50Z</time>
      </trkpt>
      <trkpt lat="46.19332" lon="6.49804">
        <ele>868</ele>
        <time>2012-05-10T12:39:52Z</time>
      </trkpt>
      <trkpt lat="46.19343" lon="6.49803">
        <ele>868</ele>
        <time>2012-05-10T12:39:53Z</time>
      </trkpt>
      <trkpt lat="46.19355" lon="6.49803">
        <ele>868</ele>
        <time>2012-05-10T12:39:54Z</time>
      </trkpt>
      <trkpt lat="46.19369" lon="6.49802">
        <ele>868</ele>
        <time>2012-05-10T12:39:55Z</time>
      </trkpt>
      <trkpt lat="46.19384" lon="6.498">
        <ele>868</ele>
        <time>2012-05-10T12:39:56Z</time>
      </trkpt>
      <trkpt lat="46.19397" lon="6.49798">
        <ele>868</ele>
        <time>2012-05-10T12:39:57Z</time>
      </trkpt>
      <trkpt lat="46.19409" lon="6.49797">
        <ele>868</ele>
        <time>2012-05-10T12:39:58Z</time>
      </trkpt>
      <trkpt lat="46.19422" lon="6.49796">
        <ele>868</ele>
        <time>2012-05-10T12:39:59Z</time>
      </trkpt>
      <trkpt lat="46.19435" lon="6.49794">
        <ele>868</ele>
        <time>2012-05-10T12:40:00Z</time>
      </trkpt>
      <trkpt lat="46.19447" lon="6.49792">
        <ele>868</ele>
        <time>2012-05-10T12:40:01Z</time>
      </trkpt>
      <trkpt lat="46.19461" lon="6.4979">
        <ele>868</ele>
        <time>2012-05-10T12:40:02Z</time>
      </trkpt>
      <trkpt lat="46.19474" lon="6.49789">
        <ele>868</ele>
        <time>2012-05-10T12:40:03Z</time>
      </trkpt>
      <trkpt lat="46.19489" lon="6.49787">
        <ele>868</ele>
        <time>2012-05-10T12:40:04Z</time>
      </trkpt>
      <trkpt lat="46.19501" lon="6.49787">
        <ele>868</ele>
        <time>2012-05-10T12:40:05Z</time>
      </trkpt>
      <trkpt lat="46.19511" lon="6.49787">
        <ele>868</ele>
        <time>2012-05-10T12:40:06Z</time>
      </trkpt>
      <trkpt lat="46.19525" lon="6.49789">
        <ele>868</ele>
        <time>2012-05-10T12:40:08Z</time>
      </trkpt>
      <trkpt lat="46.19523" lon="6.49769">
        <ele>868</ele>
        <time>2012-05-10T12:40:48Z</time>
      </trkpt>
      <trkpt lat="46.1952" lon="6.49753">
        <ele>868</ele>
        <time>2012-05-10T12:40:50Z</time>
      </trkpt>
      <trkpt lat="46.19515" lon="6.49741">
        <ele>868</ele>
        <time>2012-05-10T12:40:52Z</time>
      </trkpt>
      <trkpt lat="46.19513" lon="6.49725">
        <ele>868</ele>
        <time>2012-05-10T12:40:55Z</time>
      </trkpt>
      <trkpt lat="46.19513" lon="6.49712">
        <ele>868</ele>
        <time>2012-05-10T12:40:57Z</time>
      </trkpt>
      <trkpt lat="46.19506" lon="6.49698">
        <ele>868</ele>
        <time>2012-05-10T12:40:59Z</time>
      </trkpt>
      <trkpt lat="46.19493" lon="6.49683">
        <ele>874</ele>
        <time>2012-05-10T12:41:01Z</time>
      </trkpt>
      <trkpt lat="46.19478" lon="6.4967">
        <ele>874</ele>
        <time>2012-05-10T12:41:03Z</time>
      </trkpt>
      <trkpt lat="46.19469" lon="6.49653">
        <ele>874</ele>
        <time>2012-05-10T12:41:05Z</time>
      </trkpt>
      <trkpt lat="46.19464" lon="6.49631">
        <ele>874</ele>
        <time>2012-05-10T12:41:07Z</time>
      </trkpt>
      <trkpt lat="46.19462" lon="6.49615">
        <ele>880</ele>
        <time>2012-05-10T12:41:09Z</time>
      </trkpt>
      <trkpt lat="46.19456" lon="6.496">
        <ele>880</ele>
        <time>2012-05-10T12:41:13Z</time>
      </trkpt>
      <trkpt lat="46.19444" lon="6.49591">
        <ele>880</ele>
        <time>2012-05-10T12:41:15Z</time>
      </trkpt>
      <trkpt lat="46.19435" lon="6.49586">
        <ele>880</ele>
        <time>2012-05-10T12:41:16Z</time>
      </trkpt>
      <trkpt lat="46.19426" lon="6.49582">
        <ele>880</ele>
        <time>2012-05-10T12:41:17Z</time>
      </trkpt>
      <trkpt lat="46.19417" lon="6.49576">
        <ele>880</ele>
        <time>2012-05-10T12:41:18Z</time>
      </trkpt>
      <trkpt lat="46.19408" lon="6.49571">
        <ele>880</ele>
        <time>2012-05-10T12:41:19Z</time>
      </trkpt>
      <trkpt lat="46.19399" lon="6.49565">
        <ele>880</ele>
        <time>2012-05-10T12:41:20Z</time>
      </trkpt>
      <trkpt lat="46.19387" lon="6.49553">
        <ele>880</ele>
        <time>2012-05-10T12:41:22Z</time>
      </trkpt>
      <trkpt lat="46.19384" lon="6.49539">
        <ele>889</ele>
        <time>2012-05-10T12:41:31Z</time>
      </trkpt>
      <trkpt lat="46.19387" lon="6.49523">
        <ele>889</ele>
        <time>2012-05-10T12:41:33Z</time>
      </trkpt>
      <trkpt lat="46.19391" lon="6.49505">
        <ele>889</ele>
        <time>2012-05-10T12:41:35Z</time>
      </trkpt>
      <trkpt lat="46.19392" lon="6.49491">
        <ele>889</ele>
        <time>2012-05-10T12:41:37Z</time>
      </trkpt>
      <trkpt lat="46.19389" lon="6.49476">
        <ele>895</ele>
        <time>2012-05-10T12:41:39Z</time>
      </trkpt>
      <trkpt lat="46.19382" lon="6.4946">
        <ele>895</ele>
        <time>2012-05-10T12:41:41Z</time>
      </trkpt>
      <trkpt lat="46.19381" lon="6.49442">
        <ele>895</ele>
        <time>2012-05-10T12:41:43Z</time>
      </trkpt>
      <trkpt lat="46.19381" lon="6.49428">
        <ele>900</ele>
        <time>2012-05-10T12:41:45Z</time>
      </trkpt>
      <trkpt lat="46.19374" lon="6.49439">
        <ele>900</ele>
        <time>2012-05-10T12:42:14Z</time>
      </trkpt>
      <trkpt lat="46.19375" lon="6.49454">
        <ele>900</ele>
        <time>2012-05-10T12:42:17Z</time>
      </trkpt>
      <trkpt lat="46.1938" lon="6.49471">
        <ele>900</ele>
        <time>2012-05-10T12:42:20Z</time>
      </trkpt>
      <trkpt lat="46.19386" lon="6.49483">
        <ele>900</ele>
        <time>2012-05-10T12:42:22Z</time>
      </trkpt>
      <trkpt lat="46.19392" lon="6.49496">
        <ele>894</ele>
        <time>2012-05-10T12:42:24Z</time>
      </trkpt>
      <trkpt lat="46.19392" lon="6.49514">
        <ele>894</ele>
        <time>2012-05-10T12:42:26Z</time>
      </trkpt>
      <trkpt lat="46.19389" lon="6.4953">
        <ele>894</ele>
        <time>2012-05-10T12:42:28Z</time>
      </trkpt>
      <trkpt lat="46.19384" lon="6.49541">
        <ele>889</ele>
        <time>2012-05-10T12:42:31Z</time>
      </trkpt>
      <trkpt lat="46.19372" lon="6.49539">
        <ele>889</ele>
        <time>2012-05-10T12:42:34Z</time>
      </trkpt>
      <trkpt lat="46.19359" lon="6.49528">
        <ele>889</ele>
        <time>2012-05-10T12:42:36Z</time>
      </trkpt>
      <trkpt lat="46.19342" lon="6.49513">
        <ele>889</ele>
        <time>2012-05-10T12:42:38Z</time>
      </trkpt>
      <trkpt lat="46.19333" lon="6.49505">
        <ele>889</ele>
        <time>2012-05-10T12:42:39Z</time>
      </trkpt>
      <trkpt lat="46.19323" lon="6.49497">
        <ele>889</ele>
        <time>2012-05-10T12:42:40Z</time>
      </trkpt>
      <trkpt lat="46.19312" lon="6.49489">
        <ele>889</ele>
        <time>2012-05-10T12:42:41Z</time>
      </trkpt>
      <trkpt lat="46.19301" lon="6.49482">
        <ele>883</ele>
        <time>2012-05-10T12:42:42Z</time>
      </trkpt>
      <trkpt lat="46.1929" lon="6.49477">
        <ele>883</ele>
        <time>2012-05-10T12:42:43Z</time>
      </trkpt>
      <trkpt lat="46.19279" lon="6.49472">
        <ele>883</ele>
        <time>2012-05-10T12:42:44Z</time>
      </trkpt>
      <trkpt lat="46.19269" lon="6.49467">
        <ele>883</ele>
        <time>2012-05-10T12:42:45Z</time>
      </trkpt>
      <trkpt lat="46.19261" lon="6.49462">
        <ele>883</ele>
        <time>2012-05-10T12:42:46Z</time>
      </trkpt>
      <trkpt lat="46.19252" lon="6.49456">
        <ele>883</ele>
        <time>2012-05-10T12:42:47Z</time>
      </trkpt>
      <trkpt lat="46.19243" lon="6.4945">
        <ele>883</ele>
        <time>2012-05-10T12:42:48Z</time>
      </trkpt>
      <trkpt lat="46.19235" lon="6.49442">
        <ele>883</ele>
        <time>2012-05-10T12:42:49Z</time>
      </trkpt>
      <trkpt lat="46.19226" lon="6.49436">
        <ele>883</ele>
        <time>2012-05-10T12:42:50Z</time>
      </trkpt>
      <trkpt lat="46.19216" lon="6.49431">
        <ele>883</ele>
        <time>2012-05-10T12:42:51Z</time>
      </trkpt>
      <trkpt lat="46.19208" lon="6.49425">
        <ele>883</ele>
        <time>2012-05-10T12:42:52Z</time>
      </trkpt>
      <trkpt lat="46.192" lon="6.49419">
        <ele>883</ele>
        <time>2012-05-10T12:42:53Z</time>
      </trkpt>
      <trkpt lat="46.19192" lon="6.49413">
        <ele>883</ele>
        <time>2012-05-10T12:42:54Z</time>
      </trkpt>
      <trkpt lat="46.19177" lon="6.49401">
        <ele>883</ele>
        <time>2012-05-10T12:42:56Z</time>
      </trkpt>
      <trkpt lat="46.19168" lon="6.49394">
        <ele>883</ele>
        <time>2012-05-10T12:42:57Z</time>
      </trkpt>
      <trkpt lat="46.1916" lon="6.49387">
        <ele>883</ele>
        <time>2012-05-10T12:42:58Z</time>
      </trkpt>
      <trkpt lat="46.19152" lon="6.4938">
        <ele>883</ele>
        <time>2012-05-10T12:42:59Z</time>
      </trkpt>
      <trkpt lat="46.19136" lon="6.49367">
        <ele>883</ele>
        <time>2012-05-10T12:43:01Z</time>
      </trkpt>
      <trkpt lat="46.19121" lon="6.49352">
        <ele>883</ele>
        <time>2012-05-10T12:43:03Z</time>
      </trkpt>
      <trkpt lat="46.19107" lon="6.49335">
        <ele>883</ele>
        <time>2012-05-10T12:43:05Z</time>
      </trkpt>
      <trkpt lat="46.19092" lon="6.4932">
        <ele>883</ele>
        <time>2012-05-10T12:43:07Z</time>
      </trkpt>
      <trkpt lat="46.19083" lon="6.49313">
        <ele>883</ele>
        <time>2012-05-10T12:43:08Z</time>
      </trkpt>
      <trkpt lat="46.19075" lon="6.49307">
        <ele>883</ele>
        <time>2012-05-10T12:43:09Z</time>
      </trkpt>
      <trkpt lat="46.19066" lon="6.49301">
        <ele>883</ele>
        <time>2012-05-10T12:43:10Z</time>
      </trkpt>
      <trkpt lat="46.19051" lon="6.49293">
        <ele>883</ele>
        <time>2012-05-10T12:43:12Z</time>
      </trkpt>
      <trkpt lat="46.19042" lon="6.49289">
        <ele>883</ele>
        <time>2012-05-10T12:43:13Z</time>
      </trkpt>
      <trkpt lat="46.19026" lon="6.49282">
        <ele>883</ele>
        <time>2012-05-10T12:43:15Z</time>
      </trkpt>
      <trkpt lat="46.19011" lon="6.49274">
        <ele>883</ele>
        <time>2012-05-10T12:43:17Z</time>
      </trkpt>
      <trkpt lat="46.18997" lon="6.49267">
        <ele>883</ele>
        <time>2012-05-10T12:43:19Z</time>
      </trkpt>
      <trkpt lat="46.18983" lon="6.49264">
        <ele>883</ele>
        <time>2012-05-10T12:43:21Z</time>
      </trkpt>
      <trkpt lat="46.18973" lon="6.49265">
        <ele>883</ele>
        <time>2012-05-10T12:43:23Z</time>
      </trkpt>
      <trkpt lat="46.18959" lon="6.49265">
        <ele>883</ele>
        <time>2012-05-10T12:43:48Z</time>
      </trkpt>
      <trkpt lat="46.18941" lon="6.49264">
        <ele>883</ele>
        <time>2012-05-10T12:43:50Z</time>
      </trkpt>
      <trkpt lat="46.18931" lon="6.49263">
        <ele>883</ele>
        <time>2012-05-10T12:43:51Z</time>
      </trkpt>
      <trkpt lat="46.18922" lon="6.49261">
        <ele>883</ele>
        <time>2012-05-10T12:43:52Z</time>
      </trkpt>
      <trkpt lat="46.18905" lon="6.49258">
        <ele>883</ele>
        <time>2012-05-10T12:43:54Z</time>
      </trkpt>
      <trkpt lat="46.1889" lon="6.49256">
        <ele>883</ele>
        <time>2012-05-10T12:43:56Z</time>
      </trkpt>
      <trkpt lat="46.18878" lon="6.49253">
        <ele>883</ele>
        <time>2012-05-10T12:43:58Z</time>
      </trkpt>
      <trkpt lat="46.18866" lon="6.4925">
        <ele>883</ele>
        <time>2012-05-10T12:44:00Z</time>
      </trkpt>
      <trkpt lat="46.18857" lon="6.49248">
        <ele>883</ele>
        <time>2012-05-10T12:44:02Z</time>
      </trkpt>
      <trkpt lat="46.18847" lon="6.49242">
        <ele>883</ele>
        <time>2012-05-10T12:44:05Z</time>
      </trkpt>
      <trkpt lat="46.18856" lon="6.49248">
        <ele>883</ele>
        <time>2012-05-10T12:44:12Z</time>
      </trkpt>
      <trkpt lat="46.18871" lon="6.49248">
        <ele>883</ele>
        <time>2012-05-10T12:44:14Z</time>
      </trkpt>
      <trkpt lat="46.18886" lon="6.4925">
        <ele>883</ele>
        <time>2012-05-10T12:44:16Z</time>
      </trkpt>
      <trkpt lat="46.18903" lon="6.49254">
        <ele>883</ele>
        <time>2012-05-10T12:44:18Z</time>
      </trkpt>
      <trkpt lat="46.18913" lon="6.49255">
        <ele>883</ele>
        <time>2012-05-10T12:44:19Z</time>
      </trkpt>
      <trkpt lat="46.18922" lon="6.49256">
        <ele>883</ele>
        <time>2012-05-10T12:44:20Z</time>
      </trkpt>
      <trkpt lat="46.18931" lon="6.49257">
        <ele>883</ele>
        <time>2012-05-10T12:44:21Z</time>
      </trkpt>
      <trkpt lat="46.18948" lon="6.49258">
        <ele>883</ele>
        <time>2012-05-10T12:44:23Z</time>
      </trkpt>
      <trkpt lat="46.18964" lon="6.49259">
        <ele>877</ele>
        <time>2012-05-10T12:44:25Z</time>
      </trkpt>
      <trkpt lat="46.18977" lon="6.4926">
        <ele>877</ele>
        <time>2012-05-10T12:44:27Z</time>
      </trkpt>
      <trkpt lat="46.18988" lon="6.49261">
        <ele>877</ele>
        <time>2012-05-10T12:44:29Z</time>
      </trkpt>
      <trkpt lat="46.19001" lon="6.49265">
        <ele>877</ele>
        <time>2012-05-10T12:44:32Z</time>
      </trkpt>
      <trkpt lat="46.19012" lon="6.49271">
        <ele>877</ele>
        <time>2012-05-10T12:44:35Z</time>
      </trkpt>
      <trkpt lat="46.19024" lon="6.4928">
        <ele>883</ele>
        <time>2012-05-10T12:44:38Z</time>
      </trkpt>
      <trkpt lat="46.19034" lon="6.49287">
        <ele>883</ele>
        <time>2012-05-10T12:44:41Z</time>
      </trkpt>
      <trkpt lat="46.19046" lon="6.49293">
        <ele>883</ele>
        <time>2012-05-10T12:44:44Z</time>
      </trkpt>
      <trkpt lat="46.19057" lon="6.49299">
        <ele>883</ele>
        <time>2012-05-10T12:44:46Z</time>
      </trkpt>
      <trkpt lat="46.19065" lon="6.49303">
        <ele>883</ele>
        <time>2012-05-10T12:44:49Z</time>
      </trkpt>
      <trkpt lat="46.19074" lon="6.49308">
        <ele>883</ele>
        <time>2012-05-10T12:44:58Z</time>
      </trkpt>
      <trkpt lat="46.19084" lon="6.49315">
        <ele>883</ele>
        <time>2012-05-10T12:45:00Z</time>
      </trkpt>
      <trkpt lat="46.19094" lon="6.49322">
        <ele>883</ele>
        <time>2012-05-10T12:45:02Z</time>
      </trkpt>
      <trkpt lat="46.19103" lon="6.49333">
        <ele>883</ele>
        <time>2012-05-10T12:45:04Z</time>
      </trkpt>
      <trkpt lat="46.19112" lon="6.49342">
        <ele>883</ele>
        <time>2012-05-10T12:45:07Z</time>
      </trkpt>
      <trkpt lat="46.1912" lon="6.49348">
        <ele>889</ele>
        <time>2012-05-10T12:45:12Z</time>
      </trkpt>
      <trkpt lat="46.19127" lon="6.49359">
        <ele>889</ele>
        <time>2012-05-10T12:45:17Z</time>
      </trkpt>
      <trkpt lat="46.19136" lon="6.49359">
        <ele>894</ele>
        <time>2012-05-10T12:45:25Z</time>
      </trkpt>
      <trkpt lat="46.19147" lon="6.49367">
        <ele>902</ele>
        <time>2012-05-10T12:45:37Z</time>
      </trkpt>
      <trkpt lat="46.19155" lon="6.49377">
        <ele>902</ele>
        <time>2012-05-10T12:45:39Z</time>
      </trkpt>
      <trkpt lat="46.19165" lon="6.49387">
        <ele>902</ele>
        <time>2012-05-10T12:45:41Z</time>
      </trkpt>
      <trkpt lat="46.19175" lon="6.49396">
        <ele>902</ele>
        <time>2012-05-10T12:45:44Z</time>
      </trkpt>
      <trkpt lat="46.19187" lon="6.49405">
        <ele>894</ele>
        <time>2012-05-10T12:45:49Z</time>
      </trkpt>
      <trkpt lat="46.19197" lon="6.49415">
        <ele>894</ele>
        <time>2012-05-10T12:45:51Z</time>
      </trkpt>
      <trkpt lat="46.19209" lon="6.49424">
        <ele>894</ele>
        <time>2012-05-10T12:45:53Z</time>
      </trkpt>
      <trkpt lat="46.19218" lon="6.49429">
        <ele>894</ele>
        <time>2012-05-10T12:45:55Z</time>
      </trkpt>
      <trkpt lat="46.19226" lon="6.49438">
        <ele>894</ele>
        <time>2012-05-10T12:45:58Z</time>
      </trkpt>
      <trkpt lat="46.19235" lon="6.49442">
        <ele>894</ele>
        <time>2012-05-10T12:46:01Z</time>
      </trkpt>
      <trkpt lat="46.19245" lon="6.4945">
        <ele>894</ele>
        <time>2012-05-10T12:46:04Z</time>
      </trkpt>
      <trkpt lat="46.19253" lon="6.49456">
        <ele>888</ele>
        <time>2012-05-10T12:46:09Z</time>
      </trkpt>
      <trkpt lat="46.19262" lon="6.4946">
        <ele>888</ele>
        <time>2012-05-10T12:48:34Z</time>
      </trkpt>
      <trkpt lat="46.19271" lon="6.49466">
        <ele>888</ele>
        <time>2012-05-10T12:48:36Z</time>
      </trkpt>
      <trkpt lat="46.19285" lon="6.49474">
        <ele>888</ele>
        <time>2012-05-10T12:48:38Z</time>
      </trkpt>
      <trkpt lat="46.19294" lon="6.49478">
        <ele>888</ele>
        <time>2012-05-10T12:48:39Z</time>
      </trkpt>
      <trkpt lat="46.19303" lon="6.49483">
        <ele>888</ele>
        <time>2012-05-10T12:48:40Z</time>
      </trkpt>
      <trkpt lat="46.19313" lon="6.49489">
        <ele>888</ele>
        <time>2012-05-10T12:48:41Z</time>
      </trkpt>
      <trkpt lat="46.19323" lon="6.49496">
        <ele>888</ele>
        <time>2012-05-10T12:48:42Z</time>
      </trkpt>
      <trkpt lat="46.19331" lon="6.49504">
        <ele>888</ele>
        <time>2012-05-10T12:48:43Z</time>
      </trkpt>
      <trkpt lat="46.19342" lon="6.49512">
        <ele>888</ele>
        <time>2012-05-10T12:48:44Z</time>
      </trkpt>
      <trkpt lat="46.19352" lon="6.4952">
        <ele>888</ele>
        <time>2012-05-10T12:48:45Z</time>
      </trkpt>
      <trkpt lat="46.19361" lon="6.49529">
        <ele>888</ele>
        <time>2012-05-10T12:48:46Z</time>
      </trkpt>
      <trkpt lat="46.19371" lon="6.49538">
        <ele>888</ele>
        <time>2012-05-10T12:48:47Z</time>
      </trkpt>
      <trkpt lat="46.19381" lon="6.49547">
        <ele>888</ele>
        <time>2012-05-10T12:48:48Z</time>
      </trkpt>
      <trkpt lat="46.1939" lon="6.49555">
        <ele>888</ele>
        <time>2012-05-10T12:48:49Z</time>
      </trkpt>
      <trkpt lat="46.194" lon="6.49563">
        <ele>888</ele>
        <time>2012-05-10T12:48:50Z</time>
      </trkpt>
      <trkpt lat="46.1941" lon="6.4957">
        <ele>888</ele>
        <time>2012-05-10T12:48:51Z</time>
      </trkpt>
      <trkpt lat="46.19422" lon="6.49576">
        <ele>888</ele>
        <time>2012-05-10T12:48:52Z</time>
      </trkpt>
      <trkpt lat="46.19434" lon="6.49583">
        <ele>888</ele>
        <time>2012-05-10T12:48:53Z</time>
      </trkpt>
      <trkpt lat="46.19445" lon="6.49589">
        <ele>888</ele>
        <time>2012-05-10T12:48:54Z</time>
      </trkpt>
      <trkpt lat="46.19457" lon="6.49594">
        <ele>888</ele>
        <time>2012-05-10T12:48:55Z</time>
      </trkpt>
      <trkpt lat="46.1947" lon="6.49599">
        <ele>888</ele>
        <time>2012-05-10T12:48:56Z</time>
      </trkpt>
      <trkpt lat="46.19482" lon="6.49605">
        <ele>888</ele>
        <time>2012-05-10T12:48:57Z</time>
      </trkpt>
      <trkpt lat="46.19495" lon="6.4961">
        <ele>888</ele>
        <time>2012-05-10T12:48:58Z</time>
      </trkpt>
      <trkpt lat="46.19508" lon="6.49616">
        <ele>888</ele>
        <time>2012-05-10T12:48:59Z</time>
      </trkpt>
      <trkpt lat="46.19521" lon="6.49622">
        <ele>888</ele>
        <time>2012-05-10T12:49:00Z</time>
      </trkpt>
      <trkpt lat="46.19534" lon="6.49628">
        <ele>888</ele>
        <time>2012-05-10T12:49:01Z</time>
      </trkpt>
      <trkpt lat="46.19549" lon="6.49635">
        <ele>888</ele>
        <time>2012-05-10T12:49:02Z</time>
      </trkpt>
      <trkpt lat="46.19563" lon="6.4964">
        <ele>888</ele>
        <time>2012-05-10T12:49:03Z</time>
      </trkpt>
      <trkpt lat="46.19577" lon="6.49646">
        <ele>888</ele>
        <time>2012-05-10T12:49:04Z</time>
      </trkpt>
      <trkpt lat="46.19592" lon="6.49653">
        <ele>888</ele>
        <time>2012-05-10T12:49:05Z</time>
      </trkpt>
      <trkpt lat="46.19607" lon="6.49659">
        <ele>888</ele>
        <time>2012-05-10T12:49:06Z</time>
      </trkpt>
      <trkpt lat="46.19623" lon="6.49666">
        <ele>888</ele>
        <time>2012-05-10T12:49:07Z</time>
      </trkpt>
      <trkpt lat="46.19639" lon="6.49672">
        <ele>888</ele>
        <time>2012-05-10T12:49:08Z</time>
      </trkpt>
      <trkpt lat="46.19654" lon="6.4968">
        <ele>888</ele>
        <time>2012-05-10T12:49:09Z</time>
      </trkpt>
      <trkpt lat="46.19671" lon="6.49687">
        <ele>888</ele>
        <time>2012-05-10T12:49:10Z</time>
      </trkpt>
      <trkpt lat="46.19686" lon="6.49694">
        <ele>888</ele>
        <time>2012-05-10T12:49:11Z</time>
      </trkpt>
      <trkpt lat="46.19702" lon="6.497">
        <ele>888</ele>
        <time>2012-05-10T12:49:12Z</time>
      </trkpt>
      <trkpt lat="46.19718" lon="6.49707">
        <ele>888</ele>
        <time>2012-05-10T12:49:13Z</time>
      </trkpt>
      <trkpt lat="46.19733" lon="6.49714">
        <ele>888</ele>
        <time>2012-05-10T12:49:14Z</time>
      </trkpt>
      <trkpt lat="46.19747" lon="6.4972">
        <ele>888</ele>
        <time>2012-05-10T12:49:15Z</time>
      </trkpt>
      <trkpt lat="46.19761" lon="6.49725">
        <ele>888</ele>
        <time>2012-05-10T12:49:16Z</time>
      </trkpt>
      <trkpt lat="46.19774" lon="6.49732">
        <ele>888</ele>
        <time>2012-05-10T12:49:17Z</time>
      </trkpt>
      <trkpt lat="46.19785" lon="6.49738">
        <ele>888</ele>
        <time>2012-05-10T12:49:18Z</time>
      </trkpt>
      <trkpt lat="46.19795" lon="6.49743">
        <ele>888</ele>
        <time>2012-05-10T12:49:19Z</time>
      </trkpt>
      <trkpt lat="46.19805" lon="6.49747">
        <ele>888</ele>
        <time>2012-05-10T12:49:20Z</time>
      </trkpt>
      <trkpt lat="46.19815" lon="6.49751">
        <ele>888</ele>
        <time>2012-05-10T12:49:21Z</time>
      </trkpt>
      <trkpt lat="46.19833" lon="6.49756">
        <ele>888</ele>
        <time>2012-05-10T12:49:23Z</time>
      </trkpt>
      <trkpt lat="46.19843" lon="6.49759">
        <ele>888</ele>
        <time>2012-05-10T12:49:24Z</time>
      </trkpt>
      <trkpt lat="46.19854" lon="6.49761">
        <ele>888</ele>
        <time>2012-05-10T12:49:25Z</time>
      </trkpt>
      <trkpt lat="46.19865" lon="6.49764">
        <ele>888</ele>
        <time>2012-05-10T12:49:26Z</time>
      </trkpt>
      <trkpt lat="46.19875" lon="6.49767">
        <ele>888</ele>
        <time>2012-05-10T12:49:27Z</time>
      </trkpt>
      <trkpt lat="46.19885" lon="6.49769">
        <ele>888</ele>
        <time>2012-05-10T12:49:28Z</time>
      </trkpt>
      <trkpt lat="46.19894" lon="6.49772">
        <ele>888</ele>
        <time>2012-05-10T12:49:29Z</time>
      </trkpt>
      <trkpt lat="46.19903" lon="6.49774">
        <ele>888</ele>
        <time>2012-05-10T12:49:30Z</time>
      </trkpt>
      <trkpt lat="46.19912" lon="6.49778">
        <ele>888</ele>
        <time>2012-05-10T12:49:31Z</time>
      </trkpt>
      <trkpt lat="46.19921" lon="6.49781">
        <ele>888</ele>
        <time>2012-05-10T12:49:32Z</time>
      </trkpt>
      <trkpt lat="46.19931" lon="6.49784">
        <ele>888</ele>
        <time>2012-05-10T12:49:33Z</time>
      </trkpt>
      <trkpt lat="46.19941" lon="6.49786">
        <ele>888</ele>
        <time>2012-05-10T12:49:34Z</time>
      </trkpt>
      <trkpt lat="46.1995" lon="6.49789">
        <ele>888</ele>
        <time>2012-05-10T12:49:35Z</time>
      </trkpt>
      <trkpt lat="46.19966" lon="6.49795">
        <ele>888</ele>
        <time>2012-05-10T12:49:37Z</time>
      </trkpt>
      <trkpt lat="46.19978" lon="6.49803">
        <ele>888</ele>
        <time>2012-05-10T12:49:39Z</time>
      </trkpt>
      <trkpt lat="46.19986" lon="6.49812">
        <ele>888</ele>
        <time>2012-05-10T12:49:41Z</time>
      </trkpt>
      <trkpt lat="46.19998" lon="6.49813">
        <ele>888</ele>
        <time>2012-05-10T12:49:43Z</time>
      </trkpt>
      <trkpt lat="46.20013" lon="6.49812">
        <ele>888</ele>
        <time>2012-05-10T12:49:45Z</time>
      </trkpt>
      <trkpt lat="46.20029" lon="6.49815">
        <ele>888</ele>
        <time>2012-05-10T12:49:47Z</time>
      </trkpt>
      <trkpt lat="46.20039" lon="6.49819">
        <ele>888</ele>
        <time>2012-05-10T12:49:48Z</time>
      </trkpt>
      <trkpt lat="46.20049" lon="6.49822">
        <ele>888</ele>
        <time>2012-05-10T12:49:49Z</time>
      </trkpt>
      <trkpt lat="46.20059" lon="6.49825">
        <ele>888</ele>
        <time>2012-05-10T12:49:50Z</time>
      </trkpt>
      <trkpt lat="46.20071" lon="6.49829">
        <ele>888</ele>
        <time>2012-05-10T12:49:51Z</time>
      </trkpt>
      <trkpt lat="46.20083" lon="6.49833">
        <ele>888</ele>
        <time>2012-05-10T12:49:52Z</time>
      </trkpt>
      <trkpt lat="46.20095" lon="6.49837">
        <ele>888</ele>
        <time>2012-05-10T12:49:53Z</time>
      </trkpt>
      <trkpt lat="46.20108" lon="6.49842">
        <ele>888</ele>
        <time>2012-05-10T12:49:54Z</time>
      </trkpt>
      <trkpt lat="46.2012" lon="6.49846">
        <ele>888</ele>
        <time>2012-05-10T12:49:55Z</time>
      </trkpt>
      <trkpt lat="46.20133" lon="6.4985">
        <ele>888</ele>
        <time>2012-05-10T12:49:56Z</time>
      </trkpt>
      <trkpt lat="46.20145" lon="6.49855">
        <ele>888</ele>
        <time>2012-05-10T12:49:57Z</time>
      </trkpt>
      <trkpt lat="46.20157" lon="6.49859">
        <ele>888</ele>
        <time>2012-05-10T12:49:58Z</time>
      </trkpt>
      <trkpt lat="46.20166" lon="6.49864">
        <ele>888</ele>
        <time>2012-05-10T12:49:59Z</time>
      </trkpt>
      <trkpt lat="46.20179" lon="6.49871">
        <ele>888</ele>
        <time>2012-05-10T12:50:01Z</time>
      </trkpt>
      <trkpt lat="46.20189" lon="6.49875">
        <ele>888</ele>
        <time>2012-05-10T12:50:05Z</time>
      </trkpt>
      <trkpt lat="46.20196" lon="6.49865">
        <ele>888</ele>
        <time>2012-05-10T12:50:49Z</time>
      </trkpt>
      <trkpt lat="46.20203" lon="6.49856">
        <ele>888</ele>
        <time>2012-05-10T12:50:51Z</time>
      </trkpt>
      <trkpt lat="46.20214" lon="6.49844">
        <ele>888</ele>
        <time>2012-05-10T12:50:53Z</time>
      </trkpt>
      <trkpt lat="46.20228" lon="6.49834">
        <ele>888</ele>
        <time>2012-05-10T12:50:55Z</time>
      </trkpt>
      <trkpt lat="46.20243" lon="6.49826">
        <ele>888</ele>
        <time>2012-05-10T12:50:57Z</time>
      </trkpt>
      <trkpt lat="46.20252" lon="6.49823">
        <ele>888</ele>
        <time>2012-05-10T12:50:58Z</time>
      </trkpt>
      <trkpt lat="46.20263" lon="6.49821">
        <ele>888</ele>
        <time>2012-05-10T12:50:59Z</time>
      </trkpt>
      <trkpt lat="46.20273" lon="6.49817">
        <ele>888</ele>
        <time>2012-05-10T12:51:00Z</time>
      </trkpt>
      <trkpt lat="46.20283" lon="6.49812">
        <ele>888</ele>
        <time>2012-05-10T12:51:01Z</time>
      </trkpt>
      <trkpt lat="46.20294" lon="6.49806">
        <ele>888</ele>
        <time>2012-05-10T12:51:02Z</time>
      </trkpt>
      <trkpt lat="46.20304" lon="6.498">
        <ele>888</ele>
        <time>2012-05-10T12:51:03Z</time>
      </trkpt>
      <trkpt lat="46.20316" lon="6.49792">
        <ele>894</ele>
        <time>2012-05-10T12:51:04Z</time>
      </trkpt>
      <trkpt lat="46.20326" lon="6.49785">
        <ele>894</ele>
        <time>2012-05-10T12:51:05Z</time>
      </trkpt>
      <trkpt lat="46.20337" lon="6.49778">
        <ele>894</ele>
        <time>2012-05-10T12:51:06Z</time>
      </trkpt>
      <trkpt lat="46.20349" lon="6.49771">
        <ele>894</ele>
        <time>2012-05-10T12:51:07Z</time>
      </trkpt>
      <trkpt lat="46.20359" lon="6.49765">
        <ele>900</ele>
        <time>2012-05-10T12:51:08Z</time>
      </trkpt>
      <trkpt lat="46.20367" lon="6.4976">
        <ele>900</ele>
        <time>2012-05-10T12:51:09Z</time>
      </trkpt>
      <trkpt lat="46.20377" lon="6.4975">
        <ele>900</ele>
        <time>2012-05-10T12:51:11Z</time>
      </trkpt>
      <trkpt lat="46.20373" lon="6.49732">
        <ele>906</ele>
        <time>2012-05-10T12:51:14Z</time>
      </trkpt>
      <trkpt lat="46.20359" lon="6.49727">
        <ele>906</ele>
        <time>2012-05-10T12:51:16Z</time>
      </trkpt>
      <trkpt lat="46.20344" lon="6.49721">
        <ele>906</ele>
        <time>2012-05-10T12:51:18Z</time>
      </trkpt>
      <trkpt lat="46.20329" lon="6.49707">
        <ele>912</ele>
        <time>2012-05-10T12:51:20Z</time>
      </trkpt>
      <trkpt lat="46.20321" lon="6.49692">
        <ele>912</ele>
        <time>2012-05-10T12:51:22Z</time>
      </trkpt>
      <trkpt lat="46.20322" lon="6.49679">
        <ele>912</ele>
        <time>2012-05-10T12:51:24Z</time>
      </trkpt>
      <trkpt lat="46.20336" lon="6.49675">
        <ele>912</ele>
        <time>2012-05-10T12:51:26Z</time>
      </trkpt>
      <trkpt lat="46.20347" lon="6.49677">
        <ele>912</ele>
        <time>2012-05-10T12:51:27Z</time>
      </trkpt>
      <trkpt lat="46.20357" lon="6.49677">
        <ele>917</ele>
        <time>2012-05-10T12:51:28Z</time>
      </trkpt>
      <trkpt lat="46.20367" lon="6.49678">
        <ele>917</ele>
        <time>2012-05-10T12:51:29Z</time>
      </trkpt>
      <trkpt lat="46.20379" lon="6.49679">
        <ele>917</ele>
        <time>2012-05-10T12:51:30Z</time>
      </trkpt>
      <trkpt lat="46.20395" lon="6.4968">
        <ele>917</ele>
        <time>2012-05-10T12:51:32Z</time>
      </trkpt>
      <trkpt lat="46.20405" lon="6.49676">
        <ele>917</ele>
        <time>2012-05-10T12:51:34Z</time>
      </trkpt>
      <trkpt lat="46.20412" lon="6.49663">
        <ele>917</ele>
        <time>2012-05-10T12:51:36Z</time>
      </trkpt>
      <trkpt lat="46.20418" lon="6.49652">
        <ele>922</ele>
        <time>2012-05-10T12:51:39Z</time>
      </trkpt>
      <trkpt lat="46.20433" lon="6.49654">
        <ele>922</ele>
        <time>2012-05-10T12:51:42Z</time>
      </trkpt>
      <trkpt lat="46.20447" lon="6.49657">
        <ele>922</ele>
        <time>2012-05-10T12:51:44Z</time>
      </trkpt>
      <trkpt lat="46.20463" lon="6.49658">
        <ele>922</ele>
        <time>2012-05-10T12:51:46Z</time>
      </trkpt>
      <trkpt lat="46.20473" lon="6.49657">
        <ele>922</ele>
        <time>2012-05-10T12:51:47Z</time>
      </trkpt>
      <trkpt lat="46.20482" lon="6.49655">
        <ele>922</ele>
        <time>2012-05-10T12:51:48Z</time>
      </trkpt>
      <trkpt lat="46.20492" lon="6.49654">
        <ele>922</ele>
        <time>2012-05-10T12:51:49Z</time>
      </trkpt>
      <trkpt lat="46.20504" lon="6.49653">
        <ele>922</ele>
        <time>2012-05-10T12:51:50Z</time>
      </trkpt>
      <trkpt lat="46.20516" lon="6.4965">
        <ele>922</ele>
        <time>2012-05-10T12:51:51Z</time>
      </trkpt>
      <trkpt lat="46.20528" lon="6.49647">
        <ele>922</ele>
        <time>2012-05-10T12:51:52Z</time>
      </trkpt>
      <trkpt lat="46.2054" lon="6.49645">
        <ele>928</ele>
        <time>2012-05-10T12:51:53Z</time>
      </trkpt>
      <trkpt lat="46.20552" lon="6.49643">
        <ele>928</ele>
        <time>2012-05-10T12:51:54Z</time>
      </trkpt>
      <trkpt lat="46.20564" lon="6.49642">
        <ele>928</ele>
        <time>2012-05-10T12:51:55Z</time>
      </trkpt>
      <trkpt lat="46.20573" lon="6.49641">
        <ele>928</ele>
        <time>2012-05-10T12:51:56Z</time>
      </trkpt>
      <trkpt lat="46.20589" lon="6.49638">
        <ele>928</ele>
        <time>2012-05-10T12:51:58Z</time>
      </trkpt>
      <trkpt lat="46.20579" lon="6.49642">
        <ele>928</ele>
        <time>2012-05-10T12:52:06Z</time>
      </trkpt>
      <trkpt lat="46.20588" lon="6.49637">
        <ele>928</ele>
        <time>2012-05-10T12:52:15Z</time>
      </trkpt>
      <trkpt lat="46.20598" lon="6.49629">
        <ele>928</ele>
        <time>2012-05-10T12:52:17Z</time>
      </trkpt>
      <trkpt lat="46.20609" lon="6.49625">
        <ele>934</ele>
        <time>2012-05-10T12:52:19Z</time>
      </trkpt>
      <trkpt lat="46.2062" lon="6.49623">
        <ele>940</ele>
        <time>2012-05-10T12:52:22Z</time>
      </trkpt>
      <trkpt lat="46.20629" lon="6.49628">
        <ele>951</ele>
        <time>2012-05-10T12:52:27Z</time>
      </trkpt>
      <trkpt lat="46.20639" lon="6.49629">
        <ele>956</ele>
        <time>2012-05-10T12:52:31Z</time>
      </trkpt>
      <trkpt lat="46.20647" lon="6.49626">
        <ele>956</ele>
        <time>2012-05-10T12:52:34Z</time>
      </trkpt>
      <trkpt lat="46.20658" lon="6.49613">
        <ele>964</ele>
        <time>2012-05-10T12:52:37Z</time>
      </trkpt>
      <trkpt lat="46.20667" lon="6.49598">
        <ele>964</ele>
        <time>2012-05-10T12:52:39Z</time>
      </trkpt>
      <trkpt lat="46.20677" lon="6.49584">
        <ele>964</ele>
        <time>2012-05-10T12:52:41Z</time>
      </trkpt>
      <trkpt lat="46.20687" lon="6.49574">
        <ele>964</ele>
        <time>2012-05-10T12:52:43Z</time>
      </trkpt>
      <trkpt lat="46.20695" lon="6.49565">
        <ele>964</ele>
        <time>2012-05-10T12:52:45Z</time>
      </trkpt>
      <trkpt lat="46.20702" lon="6.49554">
        <ele>964</ele>
        <time>2012-05-10T12:52:47Z</time>
      </trkpt>
      <trkpt lat="46.20706" lon="6.49542">
        <ele>964</ele>
        <time>2012-05-10T12:52:50Z</time>
      </trkpt>
      <trkpt lat="46.20713" lon="6.49529">
        <ele>971</ele>
        <time>2012-05-10T12:52:54Z</time>
      </trkpt>
      <trkpt lat="46.2072" lon="6.49515">
        <ele>971</ele>
        <time>2012-05-10T12:52:57Z</time>
      </trkpt>
      <trkpt lat="46.2073" lon="6.49506">
        <ele>971</ele>
        <time>2012-05-10T12:53:00Z</time>
      </trkpt>
      <trkpt lat="46.20741" lon="6.49516">
        <ele>980</ele>
        <time>2012-05-10T12:53:04Z</time>
      </trkpt>
      <trkpt lat="46.20751" lon="6.49527">
        <ele>980</ele>
        <time>2012-05-10T12:53:07Z</time>
      </trkpt>
      <trkpt lat="46.2076" lon="6.49532">
        <ele>980</ele>
        <time>2012-05-10T12:53:10Z</time>
      </trkpt>
      <trkpt lat="46.2077" lon="6.49531">
        <ele>980</ele>
        <time>2012-05-10T12:53:13Z</time>
      </trkpt>
      <trkpt lat="46.20782" lon="6.49531">
        <ele>980</ele>
        <time>2012-05-10T12:53:16Z</time>
      </trkpt>
      <trkpt lat="46.20792" lon="6.49531">
        <ele>980</ele>
        <time>2012-05-10T12:53:18Z</time>
      </trkpt>
      <trkpt lat="46.20806" lon="6.4953">
        <ele>980</ele>
        <time>2012-05-10T12:53:20Z</time>
      </trkpt>
      <trkpt lat="46.20821" lon="6.49529">
        <ele>980</ele>
        <time>2012-05-10T12:53:22Z</time>
      </trkpt>
      <trkpt lat="46.20831" lon="6.49528">
        <ele>980</ele>
        <time>2012-05-10T12:53:23Z</time>
      </trkpt>
      <trkpt lat="46.20843" lon="6.49524">
        <ele>980</ele>
        <time>2012-05-10T12:53:25Z</time>
      </trkpt>
      <trkpt lat="46.20851" lon="6.49517">
        <ele>986</ele>
        <time>2012-05-10T12:53:27Z</time>
      </trkpt>
      <trkpt lat="46.20858" lon="6.49508">
        <ele>986</ele>
        <time>2012-05-10T12:53:29Z</time>
      </trkpt>
      <trkpt lat="46.20858" lon="6.49492">
        <ele>999</ele>
        <time>2012-05-10T12:53:40Z</time>
      </trkpt>
      <trkpt lat="46.20861" lon="6.49479">
        <ele>999</ele>
        <time>2012-05-10T12:53:42Z</time>
      </trkpt>
      <trkpt lat="46.20867" lon="6.49469">
        <ele>999</ele>
        <time>2012-05-10T12:53:45Z</time>
      </trkpt>
      <trkpt lat="46.20868" lon="6.49454">
        <ele>999</ele>
        <time>2012-05-10T12:53:57Z</time>
      </trkpt>
      <trkpt lat="46.20864" lon="6.49434">
        <ele>999</ele>
        <time>2012-05-10T12:54:00Z</time>
      </trkpt>
      <trkpt lat="46.20866" lon="6.49419">
        <ele>999</ele>
        <time>2012-05-10T12:54:02Z</time>
      </trkpt>
      <trkpt lat="46.20866" lon="6.49406">
        <ele>999</ele>
        <time>2012-05-10T12:54:04Z</time>
      </trkpt>
      <trkpt lat="46.20865" lon="6.49419">
        <ele>1010</ele>
        <time>2012-05-10T12:54:16Z</time>
      </trkpt>
      <trkpt lat="46.20869" lon="6.49431">
        <ele>1010</ele>
        <time>2012-05-10T12:54:26Z</time>
      </trkpt>
      <trkpt lat="46.20879" lon="6.49439">
        <ele>1004</ele>
        <time>2012-05-10T12:54:32Z</time>
      </trkpt>
      <trkpt lat="46.2089" lon="6.49446">
        <ele>1004</ele>
        <time>2012-05-10T12:54:35Z</time>
      </trkpt>
      <trkpt lat="46.20904" lon="6.49442">
        <ele>1004</ele>
        <time>2012-05-10T12:54:38Z</time>
      </trkpt>
      <trkpt lat="46.20914" lon="6.49442">
        <ele>1004</ele>
        <time>2012-05-10T12:54:40Z</time>
      </trkpt>
      <trkpt lat="46.20927" lon="6.49442">
        <ele>1004</ele>
        <time>2012-05-10T12:54:42Z</time>
      </trkpt>
      <trkpt lat="46.20942" lon="6.49443">
        <ele>1004</ele>
        <time>2012-05-10T12:54:44Z</time>
      </trkpt>
      <trkpt lat="46.20959" lon="6.49444">
        <ele>998</ele>
        <time>2012-05-10T12:54:46Z</time>
      </trkpt>
      <trkpt lat="46.20974" lon="6.49442">
        <ele>998</ele>
        <time>2012-05-10T12:54:48Z</time>
      </trkpt>
      <trkpt lat="46.20987" lon="6.49441">
        <ele>998</ele>
        <time>2012-05-10T12:54:50Z</time>
      </trkpt>
      <trkpt lat="46.20999" lon="6.49438">
        <ele>998</ele>
        <time>2012-05-10T12:54:52Z</time>
      </trkpt>
      <trkpt lat="46.21014" lon="6.49433">
        <ele>998</ele>
        <time>2012-05-10T12:54:54Z</time>
      </trkpt>
      <trkpt lat="46.21026" lon="6.4943">
        <ele>1007</ele>
        <time>2012-05-10T12:54:56Z</time>
      </trkpt>
      <trkpt lat="46.21035" lon="6.49423">
        <ele>1007</ele>
        <time>2012-05-10T12:54:58Z</time>
      </trkpt>
      <trkpt lat="46.21048" lon="6.49413">
        <ele>1016</ele>
        <time>2012-05-10T12:55:00Z</time>
      </trkpt>
      <trkpt lat="46.21062" lon="6.49406">
        <ele>1016</ele>
        <time>2012-05-10T12:55:02Z</time>
      </trkpt>
      <trkpt lat="46.21068" lon="6.49416">
        <ele>1035</ele>
        <time>2012-05-10T12:55:07Z</time>
      </trkpt>
      <trkpt lat="46.2106" lon="6.49412">
        <ele>1042</ele>
        <time>2012-05-10T12:55:22Z</time>
      </trkpt>
      <trkpt lat="46.21056" lon="6.49398">
        <ele>1042</ele>
        <time>2012-05-10T12:55:26Z</time>
      </trkpt>
      <trkpt lat="46.21055" lon="6.49412">
        <ele>1042</ele>
        <time>2012-05-10T12:55:49Z</time>
      </trkpt>
      <trkpt lat="46.21067" lon="6.49402">
        <ele>1042</ele>
        <time>2012-05-10T12:55:56Z</time>
      </trkpt>
      <trkpt lat="46.21073" lon="6.49389">
        <ele>1042</ele>
        <time>2012-05-10T12:55:58Z</time>
      </trkpt>
      <trkpt lat="46.21078" lon="6.49375">
        <ele>1042</ele>
        <time>2012-05-10T12:56:02Z</time>
      </trkpt>
      <trkpt lat="46.21083" lon="6.49363">
        <ele>1036</ele>
        <time>2012-05-10T12:56:04Z</time>
      </trkpt>
      <trkpt lat="46.21092" lon="6.49346">
        <ele>1036</ele>
        <time>2012-05-10T12:56:06Z</time>
      </trkpt>
      <trkpt lat="46.211" lon="6.49329">
        <ele>1036</ele>
        <time>2012-05-10T12:56:08Z</time>
      </trkpt>
      <trkpt lat="46.21105" lon="6.49314">
        <ele>1036</ele>
        <time>2012-05-10T12:56:10Z</time>
      </trkpt>
      <trkpt lat="46.21109" lon="6.49297">
        <ele>1036</ele>
        <time>2012-05-10T12:56:12Z</time>
      </trkpt>
      <trkpt lat="46.21101" lon="6.49291">
        <ele>1049</ele>
        <time>2012-05-10T12:56:22Z</time>
      </trkpt>
      <trkpt lat="46.21092" lon="6.49301">
        <ele>1049</ele>
        <time>2012-05-10T12:56:25Z</time>
      </trkpt>
      <trkpt lat="46.21083" lon="6.49311">
        <ele>1049</ele>
        <time>2012-05-10T12:56:27Z</time>
      </trkpt>
      <trkpt lat="46.21074" lon="6.49319">
        <ele>1059</ele>
        <time>2012-05-10T12:56:31Z</time>
      </trkpt>
      <trkpt lat="46.2108" lon="6.49298">
        <ele>1059</ele>
        <time>2012-05-10T12:56:40Z</time>
      </trkpt>
      <trkpt lat="46.21086" lon="6.49279">
        <ele>1059</ele>
        <time>2012-05-10T12:56:42Z</time>
      </trkpt>
      <trkpt lat="46.21093" lon="6.49261">
        <ele>1059</ele>
        <time>2012-05-10T12:56:44Z</time>
      </trkpt>
      <trkpt lat="46.21098" lon="6.49247">
        <ele>1054</ele>
        <time>2012-05-10T12:56:46Z</time>
      </trkpt>
      <trkpt lat="46.21103" lon="6.49232">
        <ele>1054</ele>
        <time>2012-05-10T12:56:48Z</time>
      </trkpt>
      <trkpt lat="46.21111" lon="6.4922">
        <ele>1054</ele>
        <time>2012-05-10T12:56:50Z</time>
      </trkpt>
      <trkpt lat="46.2112" lon="6.49212">
        <ele>1054</ele>
        <time>2012-05-10T12:56:52Z</time>
      </trkpt>
      <trkpt lat="46.2112" lon="6.49195">
        <ele>1060</ele>
        <time>2012-05-10T12:57:09Z</time>
      </trkpt>
      <trkpt lat="46.2113" lon="6.49184">
        <ele>1060</ele>
        <time>2012-05-10T12:57:12Z</time>
      </trkpt>
      <trkpt lat="46.21142" lon="6.49177">
        <ele>1060</ele>
        <time>2012-05-10T12:57:15Z</time>
      </trkpt>
      <trkpt lat="46.21154" lon="6.49171">
        <ele>1067</ele>
        <time>2012-05-10T12:57:18Z</time>
      </trkpt>
      <trkpt lat="46.21164" lon="6.49167">
        <ele>1067</ele>
        <time>2012-05-10T12:57:21Z</time>
      </trkpt>
      <trkpt lat="46.21174" lon="6.49167">
        <ele>1074</ele>
        <time>2012-05-10T12:57:33Z</time>
      </trkpt>
      <trkpt lat="46.21185" lon="6.49158">
        <ele>1074</ele>
        <time>2012-05-10T12:57:36Z</time>
      </trkpt>
      <trkpt lat="46.21194" lon="6.4915">
        <ele>1074</ele>
        <time>2012-05-10T12:57:39Z</time>
      </trkpt>
      <trkpt lat="46.21203" lon="6.4914">
        <ele>1074</ele>
        <time>2012-05-10T12:57:43Z</time>
      </trkpt>
      <trkpt lat="46.21212" lon="6.49134">
        <ele>1074</ele>
        <time>2012-05-10T12:57:47Z</time>
      </trkpt>
      <trkpt lat="46.212" lon="6.49123">
        <ele>1082</ele>
        <time>2012-05-10T12:58:03Z</time>
      </trkpt>
      <trkpt lat="46.21182" lon="6.49115">
        <ele>1082</ele>
        <time>2012-05-10T12:58:05Z</time>
      </trkpt>
      <trkpt lat="46.21168" lon="6.4911">
        <ele>1082</ele>
        <time>2012-05-10T12:58:06Z</time>
      </trkpt>
      <trkpt lat="46.21154" lon="6.49103">
        <ele>1082</ele>
        <time>2012-05-10T12:58:07Z</time>
      </trkpt>
      <trkpt lat="46.21141" lon="6.49098">
        <ele>1082</ele>
        <time>2012-05-10T12:58:08Z</time>
      </trkpt>
      <trkpt lat="46.21127" lon="6.49091">
        <ele>1082</ele>
        <time>2012-05-10T12:58:09Z</time>
      </trkpt>
      <trkpt lat="46.21115" lon="6.49085">
        <ele>1082</ele>
        <time>2012-05-10T12:58:10Z</time>
      </trkpt>
      <trkpt lat="46.21101" lon="6.4908">
        <ele>1082</ele>
        <time>2012-05-10T12:58:11Z</time>
      </trkpt>
      <trkpt lat="46.2109" lon="6.49075">
        <ele>1082</ele>
        <time>2012-05-10T12:58:12Z</time>
      </trkpt>
      <trkpt lat="46.21078" lon="6.49072">
        <ele>1087</ele>
        <time>2012-05-10T12:58:13Z</time>
      </trkpt>
      <trkpt lat="46.21065" lon="6.49071">
        <ele>1087</ele>
        <time>2012-05-10T12:58:14Z</time>
      </trkpt>
      <trkpt lat="46.21053" lon="6.49073">
        <ele>1087</ele>
        <time>2012-05-10T12:58:15Z</time>
      </trkpt>
      <trkpt lat="46.21042" lon="6.49075">
        <ele>1087</ele>
        <time>2012-05-10T12:58:16Z</time>
      </trkpt>
      <trkpt lat="46.2103" lon="6.4908">
        <ele>1087</ele>
        <time>2012-05-10T12:58:17Z</time>
      </trkpt>
      <trkpt lat="46.2102" lon="6.49088">
        <ele>1087</ele>
        <time>2012-05-10T12:58:18Z</time>
      </trkpt>
      <trkpt lat="46.21009" lon="6.49096">
        <ele>1093</ele>
        <time>2012-05-10T12:58:19Z</time>
      </trkpt>
      <trkpt lat="46.20998" lon="6.49103">
        <ele>1093</ele>
        <time>2012-05-10T12:58:20Z</time>
      </trkpt>
      <trkpt lat="46.20987" lon="6.4911">
        <ele>1093</ele>
        <time>2012-05-10T12:58:21Z</time>
      </trkpt>
      <trkpt lat="46.20974" lon="6.49117">
        <ele>1093</ele>
        <time>2012-05-10T12:58:22Z</time>
      </trkpt>
      <trkpt lat="46.2096" lon="6.49124">
        <ele>1099</ele>
        <time>2012-05-10T12:58:23Z</time>
      </trkpt>
      <trkpt lat="46.20947" lon="6.49129">
        <ele>1099</ele>
        <time>2012-05-10T12:58:24Z</time>
      </trkpt>
      <trkpt lat="46.20933" lon="6.49133">
        <ele>1104</ele>
        <time>2012-05-10T12:58:25Z</time>
      </trkpt>
      <trkpt lat="46.2092" lon="6.4914">
        <ele>1104</ele>
        <time>2012-05-10T12:58:26Z</time>
      </trkpt>
      <trkpt lat="46.20909" lon="6.49142">
        <ele>1110</ele>
        <time>2012-05-10T12:58:27Z</time>
      </trkpt>
      <trkpt lat="46.20893" lon="6.49143">
        <ele>1110</ele>
        <time>2012-05-10T12:58:29Z</time>
      </trkpt>
      <trkpt lat="46.20902" lon="6.49139">
        <ele>1128</ele>
        <time>2012-05-10T12:58:44Z</time>
      </trkpt>
      <trkpt lat="46.20913" lon="6.49139">
        <ele>1128</ele>
        <time>2012-05-10T12:58:50Z</time>
      </trkpt>
      <trkpt lat="46.20922" lon="6.49133">
        <ele>1128</ele>
        <time>2012-05-10T12:58:51Z</time>
      </trkpt>
      <trkpt lat="46.20932" lon="6.49129">
        <ele>1128</ele>
        <time>2012-05-10T12:58:52Z</time>
      </trkpt>
      <trkpt lat="46.20946" lon="6.49117">
        <ele>1128</ele>
        <time>2012-05-10T12:58:54Z</time>
      </trkpt>
      <trkpt lat="46.20954" lon="6.49109">
        <ele>1128</ele>
        <time>2012-05-10T12:58:55Z</time>
      </trkpt>
      <trkpt lat="46.20963" lon="6.49099">
        <ele>1128</ele>
        <time>2012-05-10T12:58:56Z</time>
      </trkpt>
      <trkpt lat="46.2097" lon="6.49091">
        <ele>1128</ele>
        <time>2012-05-10T12:58:57Z</time>
      </trkpt>
      <trkpt lat="46.20979" lon="6.49083">
        <ele>1128</ele>
        <time>2012-05-10T12:58:58Z</time>
      </trkpt>
      <trkpt lat="46.20991" lon="6.49067">
        <ele>1128</ele>
        <time>2012-05-10T12:59:00Z</time>
      </trkpt>
      <trkpt lat="46.20996" lon="6.49044">
        <ele>1128</ele>
        <time>2012-05-10T12:59:02Z</time>
      </trkpt>
      <trkpt lat="46.21005" lon="6.49025">
        <ele>1128</ele>
        <time>2012-05-10T12:59:04Z</time>
      </trkpt>
      <trkpt lat="46.21017" lon="6.49018">
        <ele>1128</ele>
        <time>2012-05-10T12:59:05Z</time>
      </trkpt>
      <trkpt lat="46.21027" lon="6.49011">
        <ele>1128</ele>
        <time>2012-05-10T12:59:06Z</time>
      </trkpt>
      <trkpt lat="46.2104" lon="6.48998">
        <ele>1128</ele>
        <time>2012-05-10T12:59:08Z</time>
      </trkpt>
      <trkpt lat="46.2105" lon="6.48983">
        <ele>1135</ele>
        <time>2012-05-10T12:59:10Z</time>
      </trkpt>
      <trkpt lat="46.2106" lon="6.48968">
        <ele>1135</ele>
        <time>2012-05-10T12:59:12Z</time>
      </trkpt>
      <trkpt lat="46.21072" lon="6.48965">
        <ele>1135</ele>
        <time>2012-05-10T12:59:14Z</time>
      </trkpt>
      <trkpt lat="46.21087" lon="6.48975">
        <ele>1135</ele>
        <time>2012-05-10T12:59:16Z</time>
      </trkpt>
      <trkpt lat="46.21103" lon="6.48979">
        <ele>1135</ele>
        <time>2012-05-10T12:59:18Z</time>
      </trkpt>
      <trkpt lat="46.2112" lon="6.4898">
        <ele>1135</ele>
        <time>2012-05-10T12:59:20Z</time>
      </trkpt>
      <trkpt lat="46.2113" lon="6.48981">
        <ele>1135</ele>
        <time>2012-05-10T12:59:21Z</time>
      </trkpt>
      <trkpt lat="46.21139" lon="6.48984">
        <ele>1135</ele>
        <time>2012-05-10T12:59:22Z</time>
      </trkpt>
      <trkpt lat="46.21156" lon="6.48993">
        <ele>1135</ele>
        <time>2012-05-10T12:59:24Z</time>
      </trkpt>
      <trkpt lat="46.21173" lon="6.48992">
        <ele>1135</ele>
        <time>2012-05-10T12:59:26Z</time>
      </trkpt>
      <trkpt lat="46.2119" lon="6.48994">
        <ele>1135</ele>
        <time>2012-05-10T12:59:28Z</time>
      </trkpt>
      <trkpt lat="46.21206" lon="6.48997">
        <ele>1135</ele>
        <time>2012-05-10T12:59:30Z</time>
      </trkpt>
      <trkpt lat="46.21222" lon="6.48987">
        <ele>1135</ele>
        <time>2012-05-10T12:59:32Z</time>
      </trkpt>
      <trkpt lat="46.21232" lon="6.4898">
        <ele>1135</ele>
        <time>2012-05-10T12:59:33Z</time>
      </trkpt>
      <trkpt lat="46.21241" lon="6.48976">
        <ele>1135</ele>
        <time>2012-05-10T12:59:34Z</time>
      </trkpt>
      <trkpt lat="46.2125" lon="6.48973">
        <ele>1135</ele>
        <time>2012-05-10T12:59:35Z</time>
      </trkpt>
      <trkpt lat="46.2126" lon="6.48967">
        <ele>1135</ele>
        <time>2012-05-10T12:59:36Z</time>
      </trkpt>
      <trkpt lat="46.21272" lon="6.48963">
        <ele>1135</ele>
        <time>2012-05-10T12:59:37Z</time>
      </trkpt>
      <trkpt lat="46.21284" lon="6.48961">
        <ele>1135</ele>
        <time>2012-05-10T12:59:38Z</time>
      </trkpt>
      <trkpt lat="46.21296" lon="6.48962">
        <ele>1135</ele>
        <time>2012-05-10T12:59:39Z</time>
      </trkpt>
      <trkpt lat="46.21307" lon="6.48964">
        <ele>1144</ele>
        <time>2012-05-10T12:59:40Z</time>
      </trkpt>
      <trkpt lat="46.21319" lon="6.48963">
        <ele>1144</ele>
        <time>2012-05-10T12:59:41Z</time>
      </trkpt>
      <trkpt lat="46.2133" lon="6.48964">
        <ele>1144</ele>
        <time>2012-05-10T12:59:42Z</time>
      </trkpt>
      <trkpt lat="46.21342" lon="6.48963">
        <ele>1144</ele>
        <time>2012-05-10T12:59:43Z</time>
      </trkpt>
      <trkpt lat="46.21355" lon="6.48961">
        <ele>1144</ele>
        <time>2012-05-10T12:59:44Z</time>
      </trkpt>
      <trkpt lat="46.21366" lon="6.4896">
        <ele>1150</ele>
        <time>2012-05-10T12:59:45Z</time>
      </trkpt>
      <trkpt lat="46.21377" lon="6.48959">
        <ele>1150</ele>
        <time>2012-05-10T12:59:46Z</time>
      </trkpt>
      <trkpt lat="46.21387" lon="6.48957">
        <ele>1150</ele>
        <time>2012-05-10T12:59:47Z</time>
      </trkpt>
      <trkpt lat="46.21398" lon="6.4896">
        <ele>1158</ele>
        <time>2012-05-10T12:59:49Z</time>
      </trkpt>
      <trkpt lat="46.21408" lon="6.48948">
        <ele>1158</ele>
        <time>2012-05-10T12:59:51Z</time>
      </trkpt>
      <trkpt lat="46.21411" lon="6.48929">
        <ele>1158</ele>
        <time>2012-05-10T12:59:53Z</time>
      </trkpt>
      <trkpt lat="46.21411" lon="6.48907">
        <ele>1165</ele>
        <time>2012-05-10T12:59:55Z</time>
      </trkpt>
      <trkpt lat="46.21413" lon="6.48894">
        <ele>1165</ele>
        <time>2012-05-10T12:59:56Z</time>
      </trkpt>
      <trkpt lat="46.21411" lon="6.48869">
        <ele>1165</ele>
        <time>2012-05-10T12:59:58Z</time>
      </trkpt>
      <trkpt lat="46.21406" lon="6.48845">
        <ele>1165</ele>
        <time>2012-05-10T13:00:00Z</time>
      </trkpt>
      <trkpt lat="46.21401" lon="6.48832">
        <ele>1165</ele>
        <time>2012-05-10T13:00:01Z</time>
      </trkpt>
      <trkpt lat="46.21398" lon="6.48818">
        <ele>1170</ele>
        <time>2012-05-10T13:00:02Z</time>
      </trkpt>
      <trkpt lat="46.21393" lon="6.48804">
        <ele>1170</ele>
        <time>2012-05-10T13:00:03Z</time>
      </trkpt>
      <trkpt lat="46.21389" lon="6.4879">
        <ele>1170</ele>
        <time>2012-05-10T13:00:04Z</time>
      </trkpt>
      <trkpt lat="46.21384" lon="6.48777">
        <ele>1170</ele>
        <time>2012-05-10T13:00:05Z</time>
      </trkpt>
      <trkpt lat="46.21376" lon="6.48764">
        <ele>1170</ele>
        <time>2012-05-10T13:00:06Z</time>
      </trkpt>
      <trkpt lat="46.21368" lon="6.48749">
        <ele>1170</ele>
        <time>2012-05-10T13:00:08Z</time>
      </trkpt>
      <trkpt lat="46.2136" lon="6.4874">
        <ele>1170</ele>
        <time>2012-05-10T13:00:11Z</time>
      </trkpt>
      <trkpt lat="46.21376" lon="6.4874">
        <ele>1188</ele>
        <time>2012-05-10T13:00:31Z</time>
      </trkpt>
      <trkpt lat="46.21388" lon="6.48734">
        <ele>1188</ele>
        <time>2012-05-10T13:00:32Z</time>
      </trkpt>
      <trkpt lat="46.21401" lon="6.48727">
        <ele>1188</ele>
        <time>2012-05-10T13:00:33Z</time>
      </trkpt>
      <trkpt lat="46.21411" lon="6.48718">
        <ele>1188</ele>
        <time>2012-05-10T13:00:34Z</time>
      </trkpt>
      <trkpt lat="46.21419" lon="6.48708">
        <ele>1194</ele>
        <time>2012-05-10T13:00:35Z</time>
      </trkpt>
      <trkpt lat="46.21426" lon="6.48697">
        <ele>1194</ele>
        <time>2012-05-10T13:00:36Z</time>
      </trkpt>
      <trkpt lat="46.21431" lon="6.48683">
        <ele>1194</ele>
        <time>2012-05-10T13:00:37Z</time>
      </trkpt>
      <trkpt lat="46.21437" lon="6.48669">
        <ele>1194</ele>
        <time>2012-05-10T13:00:38Z</time>
      </trkpt>
      <trkpt lat="46.21443" lon="6.48655">
        <ele>1194</ele>
        <time>2012-05-10T13:00:39Z</time>
      </trkpt>
      <trkpt lat="46.21449" lon="6.48642">
        <ele>1194</ele>
        <time>2012-05-10T13:00:40Z</time>
      </trkpt>
      <trkpt lat="46.21457" lon="6.48633">
        <ele>1194</ele>
        <time>2012-05-10T13:00:41Z</time>
      </trkpt>
      <trkpt lat="46.2147" lon="6.48621">
        <ele>1194</ele>
        <time>2012-05-10T13:00:43Z</time>
      </trkpt>
      <trkpt lat="46.21484" lon="6.4862">
        <ele>1194</ele>
        <time>2012-05-10T13:00:45Z</time>
      </trkpt>
      <trkpt lat="46.21501" lon="6.48625">
        <ele>1194</ele>
        <time>2012-05-10T13:00:47Z</time>
      </trkpt>
      <trkpt lat="46.21516" lon="6.48636">
        <ele>1194</ele>
        <time>2012-05-10T13:00:49Z</time>
      </trkpt>
      <trkpt lat="46.21527" lon="6.48647">
        <ele>1200</ele>
        <time>2012-05-10T13:00:51Z</time>
      </trkpt>
      <trkpt lat="46.21535" lon="6.48654">
        <ele>1200</ele>
        <time>2012-05-10T13:00:53Z</time>
      </trkpt>
      <trkpt lat="46.21544" lon="6.4865">
        <ele>1200</ele>
        <time>2012-05-10T13:00:59Z</time>
      </trkpt>
      <trkpt lat="46.21554" lon="6.48646">
        <ele>1200</ele>
        <time>2012-05-10T13:01:24Z</time>
      </trkpt>
      <trkpt lat="46.21565" lon="6.48635">
        <ele>1200</ele>
        <time>2012-05-10T13:01:26Z</time>
      </trkpt>
      <trkpt lat="46.21579" lon="6.48624">
        <ele>1200</ele>
        <time>2012-05-10T13:01:28Z</time>
      </trkpt>
      <trkpt lat="46.21592" lon="6.48615">
        <ele>1200</ele>
        <time>2012-05-10T13:01:30Z</time>
      </trkpt>
      <trkpt lat="46.21605" lon="6.48608">
        <ele>1200</ele>
        <time>2012-05-10T13:01:32Z</time>
      </trkpt>
      <trkpt lat="46.21617" lon="6.48603">
        <ele>1208</ele>
        <time>2012-05-10T13:01:34Z</time>
      </trkpt>
      <trkpt lat="46.21631" lon="6.486">
        <ele>1208</ele>
        <time>2012-05-10T13:01:36Z</time>
      </trkpt>
      <trkpt lat="46.21644" lon="6.48598">
        <ele>1217</ele>
        <time>2012-05-10T13:01:38Z</time>
      </trkpt>
      <trkpt lat="46.21654" lon="6.48599">
        <ele>1217</ele>
        <time>2012-05-10T13:01:50Z</time>
      </trkpt>
      <trkpt lat="46.21663" lon="6.48587">
        <ele>1217</ele>
        <time>2012-05-10T13:01:53Z</time>
      </trkpt>
      <trkpt lat="46.21671" lon="6.48576">
        <ele>1217</ele>
        <time>2012-05-10T13:01:55Z</time>
      </trkpt>
      <trkpt lat="46.21677" lon="6.48562">
        <ele>1225</ele>
        <time>2012-05-10T13:01:57Z</time>
      </trkpt>
      <trkpt lat="46.21683" lon="6.4855">
        <ele>1225</ele>
        <time>2012-05-10T13:02:00Z</time>
      </trkpt>
      <trkpt lat="46.2169" lon="6.48534">
        <ele>1238</ele>
        <time>2012-05-10T13:02:29Z</time>
      </trkpt>
      <trkpt lat="46.21698" lon="6.48525">
        <ele>1238</ele>
        <time>2012-05-10T13:02:31Z</time>
      </trkpt>
      <trkpt lat="46.21706" lon="6.48517">
        <ele>1238</ele>
        <time>2012-05-10T13:02:40Z</time>
      </trkpt>
      <trkpt lat="46.21712" lon="6.48498">
        <ele>1238</ele>
        <time>2012-05-10T13:02:43Z</time>
      </trkpt>
      <trkpt lat="46.21716" lon="6.48486">
        <ele>1244</ele>
        <time>2012-05-10T13:02:45Z</time>
      </trkpt>
      <trkpt lat="46.21724" lon="6.48474">
        <ele>1244</ele>
        <time>2012-05-10T13:02:48Z</time>
      </trkpt>
      <trkpt lat="46.21736" lon="6.48467">
        <ele>1244</ele>
        <time>2012-05-10T13:02:51Z</time>
      </trkpt>
      <trkpt lat="46.21748" lon="6.48462">
        <ele>1244</ele>
        <time>2012-05-10T13:02:53Z</time>
      </trkpt>
      <trkpt lat="46.2176" lon="6.48454">
        <ele>1244</ele>
        <time>2012-05-10T13:02:55Z</time>
      </trkpt>
      <trkpt lat="46.21774" lon="6.48445">
        <ele>1250</ele>
        <time>2012-05-10T13:02:57Z</time>
      </trkpt>
      <trkpt lat="46.21785" lon="6.4844">
        <ele>1250</ele>
        <time>2012-05-10T13:02:59Z</time>
      </trkpt>
      <trkpt lat="46.21791" lon="6.48426">
        <ele>1256</ele>
        <time>2012-05-10T13:03:02Z</time>
      </trkpt>
      <trkpt lat="46.21799" lon="6.48413">
        <ele>1256</ele>
        <time>2012-05-10T13:03:05Z</time>
      </trkpt>
      <trkpt lat="46.21807" lon="6.484">
        <ele>1262</ele>
        <time>2012-05-10T13:03:07Z</time>
      </trkpt>
      <trkpt lat="46.21815" lon="6.48391">
        <ele>1262</ele>
        <time>2012-05-10T13:03:09Z</time>
      </trkpt>
      <trkpt lat="46.21819" lon="6.48379">
        <ele>1262</ele>
        <time>2012-05-10T13:03:22Z</time>
      </trkpt>
      <trkpt lat="46.2182" lon="6.48364">
        <ele>1268</ele>
        <time>2012-05-10T13:03:24Z</time>
      </trkpt>
      <trkpt lat="46.21829" lon="6.48347">
        <ele>1268</ele>
        <time>2012-05-10T13:03:27Z</time>
      </trkpt>
      <trkpt lat="46.21836" lon="6.48337">
        <ele>1268</ele>
        <time>2012-05-10T13:03:29Z</time>
      </trkpt>
      <trkpt lat="46.21842" lon="6.48325">
        <ele>1274</ele>
        <time>2012-05-10T13:03:31Z</time>
      </trkpt>
      <trkpt lat="46.21848" lon="6.48315">
        <ele>1274</ele>
        <time>2012-05-10T13:03:38Z</time>
      </trkpt>
      <trkpt lat="46.21854" lon="6.48303">
        <ele>1274</ele>
        <time>2012-05-10T13:03:40Z</time>
      </trkpt>
      <trkpt lat="46.21864" lon="6.48294">
        <ele>1274</ele>
        <time>2012-05-10T13:03:42Z</time>
      </trkpt>
      <trkpt lat="46.21876" lon="6.48293">
        <ele>1281</ele>
        <time>2012-05-10T13:03:44Z</time>
      </trkpt>
      <trkpt lat="46.2189" lon="6.48294">
        <ele>1281</ele>
        <time>2012-05-10T13:03:46Z</time>
      </trkpt>
      <trkpt lat="46.219" lon="6.48293">
        <ele>1281</ele>
        <time>2012-05-10T13:03:47Z</time>
      </trkpt>
      <trkpt lat="46.21915" lon="6.48286">
        <ele>1287</ele>
        <time>2012-05-10T13:03:49Z</time>
      </trkpt>
      <trkpt lat="46.21927" lon="6.48276">
        <ele>1287</ele>
        <time>2012-05-10T13:03:51Z</time>
      </trkpt>
      <trkpt lat="46.21935" lon="6.48266">
        <ele>1293</ele>
        <time>2012-05-10T13:03:53Z</time>
      </trkpt>
      <trkpt lat="46.21929" lon="6.48256">
        <ele>1303</ele>
        <time>2012-05-10T13:06:08Z</time>
      </trkpt>
      <trkpt lat="46.21937" lon="6.48263">
        <ele>1291</ele>
        <time>2012-05-10T13:06:51Z</time>
      </trkpt>
      <trkpt lat="46.21931" lon="6.48247">
        <ele>1291</ele>
        <time>2012-05-10T13:10:05Z</time>
      </trkpt>
      <trkpt lat="46.21923" lon="6.48237">
        <ele>1291</ele>
        <time>2012-05-10T13:10:07Z</time>
      </trkpt>
      <trkpt lat="46.21913" lon="6.48231">
        <ele>1298</ele>
        <time>2012-05-10T13:10:09Z</time>
      </trkpt>
      <trkpt lat="46.21903" lon="6.48223">
        <ele>1298</ele>
        <time>2012-05-10T13:10:11Z</time>
      </trkpt>
      <trkpt lat="46.21893" lon="6.48213">
        <ele>1298</ele>
        <time>2012-05-10T13:10:14Z</time>
      </trkpt>
      <trkpt lat="46.21887" lon="6.482">
        <ele>1298</ele>
        <time>2012-05-10T13:10:19Z</time>
      </trkpt>
      <trkpt lat="46.21878" lon="6.48193">
        <ele>1298</ele>
        <time>2012-05-10T13:10:21Z</time>
      </trkpt>
      <trkpt lat="46.21866" lon="6.48186">
        <ele>1298</ele>
        <time>2012-05-10T13:10:23Z</time>
      </trkpt>
      <trkpt lat="46.21855" lon="6.48179">
        <ele>1293</ele>
        <time>2012-05-10T13:10:25Z</time>
      </trkpt>
      <trkpt lat="46.21842" lon="6.48177">
        <ele>1293</ele>
        <time>2012-05-10T13:10:27Z</time>
      </trkpt>
      <trkpt lat="46.21832" lon="6.48177">
        <ele>1293</ele>
        <time>2012-05-10T13:10:29Z</time>
      </trkpt>
      <trkpt lat="46.21821" lon="6.48184">
        <ele>1285</ele>
        <time>2012-05-10T13:10:33Z</time>
      </trkpt>
      <trkpt lat="46.21811" lon="6.48192">
        <ele>1285</ele>
        <time>2012-05-10T13:10:35Z</time>
      </trkpt>
      <trkpt lat="46.21798" lon="6.482">
        <ele>1285</ele>
        <time>2012-05-10T13:10:37Z</time>
      </trkpt>
      <trkpt lat="46.21781" lon="6.48207">
        <ele>1285</ele>
        <time>2012-05-10T13:10:39Z</time>
      </trkpt>
      <trkpt lat="46.21766" lon="6.48209">
        <ele>1285</ele>
        <time>2012-05-10T13:10:41Z</time>
      </trkpt>
      <trkpt lat="46.21749" lon="6.48202">
        <ele>1285</ele>
        <time>2012-05-10T13:10:43Z</time>
      </trkpt>
      <trkpt lat="46.21736" lon="6.48196">
        <ele>1285</ele>
        <time>2012-05-10T13:10:45Z</time>
      </trkpt>
      <trkpt lat="46.21728" lon="6.48183">
        <ele>1293</ele>
        <time>2012-05-10T13:10:48Z</time>
      </trkpt>
      <trkpt lat="46.21719" lon="6.48173">
        <ele>1293</ele>
        <time>2012-05-10T13:10:50Z</time>
      </trkpt>
      <trkpt lat="46.21708" lon="6.48172">
        <ele>1293</ele>
        <time>2012-05-10T13:10:52Z</time>
      </trkpt>
      <trkpt lat="46.21698" lon="6.4818">
        <ele>1293</ele>
        <time>2012-05-10T13:10:54Z</time>
      </trkpt>
      <trkpt lat="46.21685" lon="6.4819">
        <ele>1293</ele>
        <time>2012-05-10T13:10:56Z</time>
      </trkpt>
      <trkpt lat="46.2167" lon="6.48202">
        <ele>1299</ele>
        <time>2012-05-10T13:10:58Z</time>
      </trkpt>
      <trkpt lat="46.21661" lon="6.48206">
        <ele>1299</ele>
        <time>2012-05-10T13:10:59Z</time>
      </trkpt>
      <trkpt lat="46.21652" lon="6.4821">
        <ele>1299</ele>
        <time>2012-05-10T13:11:00Z</time>
      </trkpt>
      <trkpt lat="46.21637" lon="6.4822">
        <ele>1299</ele>
        <time>2012-05-10T13:11:02Z</time>
      </trkpt>
      <trkpt lat="46.21623" lon="6.48235">
        <ele>1299</ele>
        <time>2012-05-10T13:11:04Z</time>
      </trkpt>
      <trkpt lat="46.21612" lon="6.48248">
        <ele>1299</ele>
        <time>2012-05-10T13:11:06Z</time>
      </trkpt>
      <trkpt lat="46.216" lon="6.48259">
        <ele>1299</ele>
        <time>2012-05-10T13:11:08Z</time>
      </trkpt>
      <trkpt lat="46.21587" lon="6.48274">
        <ele>1299</ele>
        <time>2012-05-10T13:11:10Z</time>
      </trkpt>
      <trkpt lat="46.21572" lon="6.48288">
        <ele>1299</ele>
        <time>2012-05-10T13:11:12Z</time>
      </trkpt>
      <trkpt lat="46.21559" lon="6.483">
        <ele>1292</ele>
        <time>2012-05-10T13:11:14Z</time>
      </trkpt>
      <trkpt lat="46.2155" lon="6.48306">
        <ele>1292</ele>
        <time>2012-05-10T13:11:15Z</time>
      </trkpt>
      <trkpt lat="46.2154" lon="6.48313">
        <ele>1286</ele>
        <time>2012-05-10T13:11:16Z</time>
      </trkpt>
      <trkpt lat="46.2153" lon="6.4832">
        <ele>1286</ele>
        <time>2012-05-10T13:11:17Z</time>
      </trkpt>
      <trkpt lat="46.2152" lon="6.48326">
        <ele>1286</ele>
        <time>2012-05-10T13:11:18Z</time>
      </trkpt>
      <trkpt lat="46.21511" lon="6.48329">
        <ele>1286</ele>
        <time>2012-05-10T13:11:19Z</time>
      </trkpt>
      <trkpt lat="46.215" lon="6.48331">
        <ele>1280</ele>
        <time>2012-05-10T13:11:20Z</time>
      </trkpt>
      <trkpt lat="46.2149" lon="6.48333">
        <ele>1280</ele>
        <time>2012-05-10T13:11:21Z</time>
      </trkpt>
      <trkpt lat="46.21479" lon="6.48333">
        <ele>1280</ele>
        <time>2012-05-10T13:11:22Z</time>
      </trkpt>
      <trkpt lat="46.21469" lon="6.48332">
        <ele>1275</ele>
        <time>2012-05-10T13:11:23Z</time>
      </trkpt>
      <trkpt lat="46.21459" lon="6.4833">
        <ele>1275</ele>
        <time>2012-05-10T13:11:24Z</time>
      </trkpt>
      <trkpt lat="46.21441" lon="6.48328">
        <ele>1275</ele>
        <time>2012-05-10T13:11:26Z</time>
      </trkpt>
      <trkpt lat="46.21424" lon="6.4833">
        <ele>1269</ele>
        <time>2012-05-10T13:11:28Z</time>
      </trkpt>
      <trkpt lat="46.21408" lon="6.4834">
        <ele>1269</ele>
        <time>2012-05-10T13:11:30Z</time>
      </trkpt>
      <trkpt lat="46.21391" lon="6.48345">
        <ele>1262</ele>
        <time>2012-05-10T13:11:32Z</time>
      </trkpt>
      <trkpt lat="46.21381" lon="6.48346">
        <ele>1262</ele>
        <time>2012-05-10T13:11:33Z</time>
      </trkpt>
      <trkpt lat="46.2137" lon="6.48347">
        <ele>1262</ele>
        <time>2012-05-10T13:11:34Z</time>
      </trkpt>
      <trkpt lat="46.21359" lon="6.48348">
        <ele>1262</ele>
        <time>2012-05-10T13:11:35Z</time>
      </trkpt>
      <trkpt lat="46.21348" lon="6.48351">
        <ele>1262</ele>
        <time>2012-05-10T13:11:36Z</time>
      </trkpt>
      <trkpt lat="46.21338" lon="6.48356">
        <ele>1262</ele>
        <time>2012-05-10T13:11:37Z</time>
      </trkpt>
      <trkpt lat="46.21328" lon="6.48364">
        <ele>1262</ele>
        <time>2012-05-10T13:11:38Z</time>
      </trkpt>
      <trkpt lat="46.2132" lon="6.48371">
        <ele>1262</ele>
        <time>2012-05-10T13:11:39Z</time>
      </trkpt>
      <trkpt lat="46.21307" lon="6.48382">
        <ele>1262</ele>
        <time>2012-05-10T13:11:41Z</time>
      </trkpt>
      <trkpt lat="46.21289" lon="6.4839">
        <ele>1262</ele>
        <time>2012-05-10T13:11:43Z</time>
      </trkpt>
      <trkpt lat="46.21279" lon="6.48396">
        <ele>1262</ele>
        <time>2012-05-10T13:11:44Z</time>
      </trkpt>
      <trkpt lat="46.21269" lon="6.48402">
        <ele>1262</ele>
        <time>2012-05-10T13:11:45Z</time>
      </trkpt>
      <trkpt lat="46.21258" lon="6.48408">
        <ele>1262</ele>
        <time>2012-05-10T13:11:46Z</time>
      </trkpt>
      <trkpt lat="46.21249" lon="6.48411">
        <ele>1262</ele>
        <time>2012-05-10T13:11:47Z</time>
      </trkpt>
      <trkpt lat="46.21239" lon="6.48414">
        <ele>1262</ele>
        <time>2012-05-10T13:11:48Z</time>
      </trkpt>
      <trkpt lat="46.21228" lon="6.48413">
        <ele>1262</ele>
        <time>2012-05-10T13:11:49Z</time>
      </trkpt>
      <trkpt lat="46.21217" lon="6.48413">
        <ele>1262</ele>
        <time>2012-05-10T13:11:50Z</time>
      </trkpt>
      <trkpt lat="46.21204" lon="6.48413">
        <ele>1262</ele>
        <time>2012-05-10T13:11:51Z</time>
      </trkpt>
      <trkpt lat="46.21192" lon="6.48413">
        <ele>1262</ele>
        <time>2012-05-10T13:11:52Z</time>
      </trkpt>
      <trkpt lat="46.21179" lon="6.48413">
        <ele>1262</ele>
        <time>2012-05-10T13:11:53Z</time>
      </trkpt>
      <trkpt lat="46.21166" lon="6.48413">
        <ele>1262</ele>
        <time>2012-05-10T13:11:54Z</time>
      </trkpt>
      <trkpt lat="46.21154" lon="6.48414">
        <ele>1262</ele>
        <time>2012-05-10T13:11:55Z</time>
      </trkpt>
      <trkpt lat="46.21143" lon="6.48415">
        <ele>1262</ele>
        <time>2012-05-10T13:11:56Z</time>
      </trkpt>
      <trkpt lat="46.21133" lon="6.48418">
        <ele>1262</ele>
        <time>2012-05-10T13:11:57Z</time>
      </trkpt>
      <trkpt lat="46.21123" lon="6.48422">
        <ele>1262</ele>
        <time>2012-05-10T13:11:58Z</time>
      </trkpt>
      <trkpt lat="46.21113" lon="6.48427">
        <ele>1262</ele>
        <time>2012-05-10T13:11:59Z</time>
      </trkpt>
      <trkpt lat="46.21105" lon="6.48432">
        <ele>1268</ele>
        <time>2012-05-10T13:12:00Z</time>
      </trkpt>
      <trkpt lat="46.21092" lon="6.4844">
        <ele>1268</ele>
        <time>2012-05-10T13:12:02Z</time>
      </trkpt>
      <trkpt lat="46.21082" lon="6.48441">
        <ele>1268</ele>
        <time>2012-05-10T13:12:23Z</time>
      </trkpt>
      <trkpt lat="46.2107" lon="6.48439">
        <ele>1268</ele>
        <time>2012-05-10T13:12:25Z</time>
      </trkpt>
      <trkpt lat="46.21053" lon="6.48441">
        <ele>1268</ele>
        <time>2012-05-10T13:12:27Z</time>
      </trkpt>
      <trkpt lat="46.21036" lon="6.48444">
        <ele>1273</ele>
        <time>2012-05-10T13:12:29Z</time>
      </trkpt>
      <trkpt lat="46.21026" lon="6.48444">
        <ele>1273</ele>
        <time>2012-05-10T13:12:30Z</time>
      </trkpt>
      <trkpt lat="46.21016" lon="6.48441">
        <ele>1273</ele>
        <time>2012-05-10T13:12:31Z</time>
      </trkpt>
      <trkpt lat="46.21005" lon="6.48439">
        <ele>1273</ele>
        <time>2012-05-10T13:12:32Z</time>
      </trkpt>
      <trkpt lat="46.20993" lon="6.48435">
        <ele>1273</ele>
        <time>2012-05-10T13:12:33Z</time>
      </trkpt>
      <trkpt lat="46.20979" lon="6.48432">
        <ele>1273</ele>
        <time>2012-05-10T13:12:34Z</time>
      </trkpt>
      <trkpt lat="46.20964" lon="6.48429">
        <ele>1273</ele>
        <time>2012-05-10T13:12:35Z</time>
      </trkpt>
      <trkpt lat="46.20951" lon="6.48427">
        <ele>1273</ele>
        <time>2012-05-10T13:12:36Z</time>
      </trkpt>
      <trkpt lat="46.20935" lon="6.48427">
        <ele>1278</ele>
        <time>2012-05-10T13:12:37Z</time>
      </trkpt>
      <trkpt lat="46.2092" lon="6.48429">
        <ele>1278</ele>
        <time>2012-05-10T13:12:38Z</time>
      </trkpt>
      <trkpt lat="46.20906" lon="6.48434">
        <ele>1278</ele>
        <time>2012-05-10T13:12:39Z</time>
      </trkpt>
      <trkpt lat="46.20892" lon="6.48439">
        <ele>1278</ele>
        <time>2012-05-10T13:12:40Z</time>
      </trkpt>
      <trkpt lat="46.20878" lon="6.48448">
        <ele>1285</ele>
        <time>2012-05-10T13:12:41Z</time>
      </trkpt>
      <trkpt lat="46.20864" lon="6.48458">
        <ele>1285</ele>
        <time>2012-05-10T13:12:42Z</time>
      </trkpt>
      <trkpt lat="46.20851" lon="6.48469">
        <ele>1285</ele>
        <time>2012-05-10T13:12:43Z</time>
      </trkpt>
      <trkpt lat="46.20839" lon="6.4848">
        <ele>1285</ele>
        <time>2012-05-10T13:12:44Z</time>
      </trkpt>
      <trkpt lat="46.20828" lon="6.48492">
        <ele>1292</ele>
        <time>2012-05-10T13:12:45Z</time>
      </trkpt>
      <trkpt lat="46.20818" lon="6.48506">
        <ele>1292</ele>
        <time>2012-05-10T13:12:46Z</time>
      </trkpt>
      <trkpt lat="46.20808" lon="6.48518">
        <ele>1292</ele>
        <time>2012-05-10T13:12:47Z</time>
      </trkpt>
      <trkpt lat="46.208" lon="6.48531">
        <ele>1299</ele>
        <time>2012-05-10T13:12:48Z</time>
      </trkpt>
      <trkpt lat="46.20791" lon="6.48541">
        <ele>1299</ele>
        <time>2012-05-10T13:12:49Z</time>
      </trkpt>
      <trkpt lat="46.20783" lon="6.48548">
        <ele>1299</ele>
        <time>2012-05-10T13:12:50Z</time>
      </trkpt>
      <trkpt lat="46.20768" lon="6.48547">
        <ele>1307</ele>
        <time>2012-05-10T13:12:52Z</time>
      </trkpt>
      <trkpt lat="46.2075" lon="6.4854">
        <ele>1312</ele>
        <time>2012-05-10T13:12:54Z</time>
      </trkpt>
      <trkpt lat="46.2074" lon="6.48532">
        <ele>1312</ele>
        <time>2012-05-10T13:12:55Z</time>
      </trkpt>
      <trkpt lat="46.20727" lon="6.4852">
        <ele>1312</ele>
        <time>2012-05-10T13:12:56Z</time>
      </trkpt>
      <trkpt lat="46.20715" lon="6.48506">
        <ele>1312</ele>
        <time>2012-05-10T13:12:57Z</time>
      </trkpt>
      <trkpt lat="46.20703" lon="6.48492">
        <ele>1312</ele>
        <time>2012-05-10T13:12:58Z</time>
      </trkpt>
      <trkpt lat="46.20692" lon="6.48479">
        <ele>1319</ele>
        <time>2012-05-10T13:12:59Z</time>
      </trkpt>
      <trkpt lat="46.20685" lon="6.48466">
        <ele>1319</ele>
        <time>2012-05-10T13:13:00Z</time>
      </trkpt>
      <trkpt lat="46.20677" lon="6.48454">
        <ele>1319</ele>
        <time>2012-05-10T13:13:01Z</time>
      </trkpt>
      <trkpt lat="46.20673" lon="6.48443">
        <ele>1319</ele>
        <time>2012-05-10T13:13:02Z</time>
      </trkpt>
      <trkpt lat="46.20667" lon="6.48419">
        <ele>1319</ele>
        <time>2012-05-10T13:13:04Z</time>
      </trkpt>
      <trkpt lat="46.20664" lon="6.484">
        <ele>1319</ele>
        <time>2012-05-10T13:13:06Z</time>
      </trkpt>
      <trkpt lat="46.20666" lon="6.48386">
        <ele>1319</ele>
        <time>2012-05-10T13:13:08Z</time>
      </trkpt>
      <trkpt lat="46.20674" lon="6.4837">
        <ele>1319</ele>
        <time>2012-05-10T13:13:10Z</time>
      </trkpt>
      <trkpt lat="46.20685" lon="6.48356">
        <ele>1319</ele>
        <time>2012-05-10T13:13:12Z</time>
      </trkpt>
      <trkpt lat="46.20694" lon="6.48349">
        <ele>1325</ele>
        <time>2012-05-10T13:13:13Z</time>
      </trkpt>
      <trkpt lat="46.20702" lon="6.48345">
        <ele>1325</ele>
        <time>2012-05-10T13:13:14Z</time>
      </trkpt>
      <trkpt lat="46.20712" lon="6.48342">
        <ele>1325</ele>
        <time>2012-05-10T13:13:15Z</time>
      </trkpt>
      <trkpt lat="46.20724" lon="6.48342">
        <ele>1325</ele>
        <time>2012-05-10T13:13:16Z</time>
      </trkpt>
      <trkpt lat="46.20736" lon="6.48343">
        <ele>1325</ele>
        <time>2012-05-10T13:13:17Z</time>
      </trkpt>
      <trkpt lat="46.2075" lon="6.48345">
        <ele>1325</ele>
        <time>2012-05-10T13:13:18Z</time>
      </trkpt>
      <trkpt lat="46.20765" lon="6.48347">
        <ele>1325</ele>
        <time>2012-05-10T13:13:19Z</time>
      </trkpt>
      <trkpt lat="46.2078" lon="6.48351">
        <ele>1325</ele>
        <time>2012-05-10T13:13:20Z</time>
      </trkpt>
      <trkpt lat="46.20793" lon="6.48355">
        <ele>1325</ele>
        <time>2012-05-10T13:13:21Z</time>
      </trkpt>
      <trkpt lat="46.20805" lon="6.48357">
        <ele>1325</ele>
        <time>2012-05-10T13:13:22Z</time>
      </trkpt>
      <trkpt lat="46.20816" lon="6.48357">
        <ele>1325</ele>
        <time>2012-05-10T13:13:23Z</time>
      </trkpt>
      <trkpt lat="46.20825" lon="6.48358">
        <ele>1325</ele>
        <time>2012-05-10T13:13:24Z</time>
      </trkpt>
      <trkpt lat="46.20838" lon="6.48354">
        <ele>1325</ele>
        <time>2012-05-10T13:13:26Z</time>
      </trkpt>
      <trkpt lat="46.2084" lon="6.48339">
        <ele>1333</ele>
        <time>2012-05-10T13:13:28Z</time>
      </trkpt>
      <trkpt lat="46.20835" lon="6.48318">
        <ele>1333</ele>
        <time>2012-05-10T13:13:30Z</time>
      </trkpt>
      <trkpt lat="46.20826" lon="6.48295">
        <ele>1339</ele>
        <time>2012-05-10T13:13:32Z</time>
      </trkpt>
      <trkpt lat="46.20816" lon="6.48279">
        <ele>1339</ele>
        <time>2012-05-10T13:13:34Z</time>
      </trkpt>
      <trkpt lat="46.208" lon="6.4827">
        <ele>1339</ele>
        <time>2012-05-10T13:13:36Z</time>
      </trkpt>
      <trkpt lat="46.2079" lon="6.48269">
        <ele>1339</ele>
        <time>2012-05-10T13:13:37Z</time>
      </trkpt>
      <trkpt lat="46.20778" lon="6.48269">
        <ele>1345</ele>
        <time>2012-05-10T13:13:38Z</time>
      </trkpt>
      <trkpt lat="46.20767" lon="6.48268">
        <ele>1345</ele>
        <time>2012-05-10T13:13:39Z</time>
      </trkpt>
      <trkpt lat="46.20756" lon="6.48266">
        <ele>1345</ele>
        <time>2012-05-10T13:13:40Z</time>
      </trkpt>
      <trkpt lat="46.20745" lon="6.48261">
        <ele>1345</ele>
        <time>2012-05-10T13:13:41Z</time>
      </trkpt>
      <trkpt lat="46.20735" lon="6.48256">
        <ele>1345</ele>
        <time>2012-05-10T13:13:42Z</time>
      </trkpt>
      <trkpt lat="46.20727" lon="6.48249">
        <ele>1345</ele>
        <time>2012-05-10T13:13:43Z</time>
      </trkpt>
      <trkpt lat="46.20713" lon="6.48232">
        <ele>1350</ele>
        <time>2012-05-10T13:13:45Z</time>
      </trkpt>
      <trkpt lat="46.20707" lon="6.4822">
        <ele>1350</ele>
        <time>2012-05-10T13:13:46Z</time>
      </trkpt>
      <trkpt lat="46.20702" lon="6.48206">
        <ele>1350</ele>
        <time>2012-05-10T13:13:47Z</time>
      </trkpt>
      <trkpt lat="46.20697" lon="6.4819">
        <ele>1350</ele>
        <time>2012-05-10T13:13:48Z</time>
      </trkpt>
      <trkpt lat="46.20693" lon="6.48171">
        <ele>1350</ele>
        <time>2012-05-10T13:13:49Z</time>
      </trkpt>
      <trkpt lat="46.2069" lon="6.48153">
        <ele>1350</ele>
        <time>2012-05-10T13:13:50Z</time>
      </trkpt>
      <trkpt lat="46.20687" lon="6.48137">
        <ele>1355</ele>
        <time>2012-05-10T13:13:51Z</time>
      </trkpt>
      <trkpt lat="46.20682" lon="6.48124">
        <ele>1355</ele>
        <time>2012-05-10T13:13:52Z</time>
      </trkpt>
      <trkpt lat="46.20676" lon="6.48111">
        <ele>1355</ele>
        <time>2012-05-10T13:13:53Z</time>
      </trkpt>
      <trkpt lat="46.20668" lon="6.48099">
        <ele>1355</ele>
        <time>2012-05-10T13:13:54Z</time>
      </trkpt>
      <trkpt lat="46.20659" lon="6.48087">
        <ele>1355</ele>
        <time>2012-05-10T13:13:55Z</time>
      </trkpt>
      <trkpt lat="46.20649" lon="6.48074">
        <ele>1361</ele>
        <time>2012-05-10T13:13:56Z</time>
      </trkpt>
      <trkpt lat="46.20637" lon="6.48062">
        <ele>1361</ele>
        <time>2012-05-10T13:13:57Z</time>
      </trkpt>
      <trkpt lat="46.20627" lon="6.4805">
        <ele>1361</ele>
        <time>2012-05-10T13:13:58Z</time>
      </trkpt>
      <trkpt lat="46.20617" lon="6.4804">
        <ele>1366</ele>
        <time>2012-05-10T13:13:59Z</time>
      </trkpt>
      <trkpt lat="46.20609" lon="6.48031">
        <ele>1366</ele>
        <time>2012-05-10T13:14:00Z</time>
      </trkpt>
      <trkpt lat="46.20603" lon="6.48021">
        <ele>1366</ele>
        <time>2012-05-10T13:14:01Z</time>
      </trkpt>
      <trkpt lat="46.20596" lon="6.4801">
        <ele>1366</ele>
        <time>2012-05-10T13:14:02Z</time>
      </trkpt>
      <trkpt lat="46.20591" lon="6.47998">
        <ele>1366</ele>
        <time>2012-05-10T13:14:03Z</time>
      </trkpt>
      <trkpt lat="46.20586" lon="6.47985">
        <ele>1372</ele>
        <time>2012-05-10T13:14:04Z</time>
      </trkpt>
      <trkpt lat="46.20583" lon="6.47972">
        <ele>1372</ele>
        <time>2012-05-10T13:14:05Z</time>
      </trkpt>
      <trkpt lat="46.20579" lon="6.47958">
        <ele>1372</ele>
        <time>2012-05-10T13:14:06Z</time>
      </trkpt>
      <trkpt lat="46.20575" lon="6.47938">
        <ele>1372</ele>
        <time>2012-05-10T13:14:08Z</time>
      </trkpt>
      <trkpt lat="46.20566" lon="6.47932">
        <ele>1388</ele>
        <time>2012-05-10T13:14:37Z</time>
      </trkpt>
      <trkpt lat="46.20553" lon="6.47928">
        <ele>1388</ele>
        <time>2012-05-10T13:14:39Z</time>
      </trkpt>
      <trkpt lat="46.20544" lon="6.47927">
        <ele>1388</ele>
        <time>2012-05-10T13:14:40Z</time>
      </trkpt>
      <trkpt lat="46.20533" lon="6.47928">
        <ele>1388</ele>
        <time>2012-05-10T13:14:41Z</time>
      </trkpt>
      <trkpt lat="46.20523" lon="6.47929">
        <ele>1388</ele>
        <time>2012-05-10T13:14:42Z</time>
      </trkpt>
      <trkpt lat="46.20514" lon="6.4793">
        <ele>1388</ele>
        <time>2012-05-10T13:14:43Z</time>
      </trkpt>
      <trkpt lat="46.20505" lon="6.47931">
        <ele>1388</ele>
        <time>2012-05-10T13:14:44Z</time>
      </trkpt>
      <trkpt lat="46.20495" lon="6.47933">
        <ele>1388</ele>
        <time>2012-05-10T13:14:45Z</time>
      </trkpt>
      <trkpt lat="46.20478" lon="6.47936">
        <ele>1388</ele>
        <time>2012-05-10T13:14:47Z</time>
      </trkpt>
      <trkpt lat="46.2046" lon="6.47936">
        <ele>1388</ele>
        <time>2012-05-10T13:14:49Z</time>
      </trkpt>
      <trkpt lat="46.20444" lon="6.47937">
        <ele>1388</ele>
        <time>2012-05-10T13:14:51Z</time>
      </trkpt>
      <trkpt lat="46.2043" lon="6.47946">
        <ele>1388</ele>
        <time>2012-05-10T13:14:53Z</time>
      </trkpt>
      <trkpt lat="46.20419" lon="6.4796">
        <ele>1388</ele>
        <time>2012-05-10T13:14:55Z</time>
      </trkpt>
      <trkpt lat="46.2041" lon="6.47972">
        <ele>1388</ele>
        <time>2012-05-10T13:14:57Z</time>
      </trkpt>
      <trkpt lat="46.204" lon="6.47977">
        <ele>1388</ele>
        <time>2012-05-10T13:14:59Z</time>
      </trkpt>
      <trkpt lat="46.2039" lon="6.47979">
        <ele>1388</ele>
        <time>2012-05-10T13:15:01Z</time>
      </trkpt>
      <trkpt lat="46.20381" lon="6.4798">
        <ele>1388</ele>
        <time>2012-05-10T13:15:03Z</time>
      </trkpt>
      <trkpt lat="46.20372" lon="6.4798">
        <ele>1388</ele>
        <time>2012-05-10T13:15:05Z</time>
      </trkpt>
      <trkpt lat="46.20361" lon="6.47981">
        <ele>1388</ele>
        <time>2012-05-10T13:15:07Z</time>
      </trkpt>
      <trkpt lat="46.20349" lon="6.47981">
        <ele>1388</ele>
        <time>2012-05-10T13:15:09Z</time>
      </trkpt>
      <trkpt lat="46.20337" lon="6.47977">
        <ele>1388</ele>
        <time>2012-05-10T13:15:11Z</time>
      </trkpt>
      <trkpt lat="46.20326" lon="6.47978">
        <ele>1388</ele>
        <time>2012-05-10T13:15:14Z</time>
      </trkpt>
      <trkpt lat="46.20319" lon="6.47988">
        <ele>1388</ele>
        <time>2012-05-10T13:15:17Z</time>
      </trkpt>
      <trkpt lat="46.2031" lon="6.47999">
        <ele>1388</ele>
        <time>2012-05-10T13:15:40Z</time>
      </trkpt>
      <trkpt lat="46.20302" lon="6.48007">
        <ele>1388</ele>
        <time>2012-05-10T13:15:43Z</time>
      </trkpt>
      <trkpt lat="46.20294" lon="6.48019">
        <ele>1379</ele>
        <time>2012-05-10T13:15:47Z</time>
      </trkpt>
      <trkpt lat="46.20286" lon="6.48025">
        <ele>1379</ele>
        <time>2012-05-10T13:15:54Z</time>
      </trkpt>
      <trkpt lat="46.20276" lon="6.48029">
        <ele>1373</ele>
        <time>2012-05-10T13:16:00Z</time>
      </trkpt>
      <trkpt lat="46.20264" lon="6.48033">
        <ele>1373</ele>
        <time>2012-05-10T13:16:04Z</time>
      </trkpt>
      <trkpt lat="46.20254" lon="6.48037">
        <ele>1373</ele>
        <time>2012-05-10T13:16:08Z</time>
      </trkpt>
      <trkpt lat="46.20248" lon="6.48046">
        <ele>1366</ele>
        <time>2012-05-10T13:16:12Z</time>
      </trkpt>
      <trkpt lat="46.20249" lon="6.48063">
        <ele>1366</ele>
        <time>2012-05-10T13:16:16Z</time>
      </trkpt>
      <trkpt lat="46.20246" lon="6.48079">
        <ele>1366</ele>
        <time>2012-05-10T13:16:19Z</time>
      </trkpt>
      <trkpt lat="46.20242" lon="6.48096">
        <ele>1366</ele>
        <time>2012-05-10T13:16:22Z</time>
      </trkpt>
      <trkpt lat="46.20238" lon="6.48112">
        <ele>1359</ele>
        <time>2012-05-10T13:16:25Z</time>
      </trkpt>
      <trkpt lat="46.20236" lon="6.4813">
        <ele>1359</ele>
        <time>2012-05-10T13:16:28Z</time>
      </trkpt>
      <trkpt lat="46.20229" lon="6.48145">
        <ele>1359</ele>
        <time>2012-05-10T13:16:31Z</time>
      </trkpt>
      <trkpt lat="46.20219" lon="6.48152">
        <ele>1359</ele>
        <time>2012-05-10T13:16:33Z</time>
      </trkpt>
      <trkpt lat="46.20208" lon="6.48156">
        <ele>1359</ele>
        <time>2012-05-10T13:16:35Z</time>
      </trkpt>
      <trkpt lat="46.20199" lon="6.48161">
        <ele>1359</ele>
        <time>2012-05-10T13:16:37Z</time>
      </trkpt>
      <trkpt lat="46.20193" lon="6.48174">
        <ele>1353</ele>
        <time>2012-05-10T13:16:39Z</time>
      </trkpt>
      <trkpt lat="46.20187" lon="6.4819">
        <ele>1353</ele>
        <time>2012-05-10T13:16:41Z</time>
      </trkpt>
      <trkpt lat="46.20185" lon="6.48207">
        <ele>1353</ele>
        <time>2012-05-10T13:16:43Z</time>
      </trkpt>
      <trkpt lat="46.20182" lon="6.4822">
        <ele>1348</ele>
        <time>2012-05-10T13:16:45Z</time>
      </trkpt>
      <trkpt lat="46.20173" lon="6.48231">
        <ele>1348</ele>
        <time>2012-05-10T13:16:48Z</time>
      </trkpt>
      <trkpt lat="46.20161" lon="6.48236">
        <ele>1342</ele>
        <time>2012-05-10T13:16:51Z</time>
      </trkpt>
      <trkpt lat="46.20149" lon="6.48238">
        <ele>1342</ele>
        <time>2012-05-10T13:16:53Z</time>
      </trkpt>
      <trkpt lat="46.20137" lon="6.4824">
        <ele>1342</ele>
        <time>2012-05-10T13:16:55Z</time>
      </trkpt>
      <trkpt lat="46.20127" lon="6.48241">
        <ele>1342</ele>
        <time>2012-05-10T13:16:57Z</time>
      </trkpt>
      <trkpt lat="46.20118" lon="6.48239">
        <ele>1337</ele>
        <time>2012-05-10T13:16:59Z</time>
      </trkpt>
      <trkpt lat="46.20109" lon="6.48232">
        <ele>1337</ele>
        <time>2012-05-10T13:17:06Z</time>
      </trkpt>
      <trkpt lat="46.20099" lon="6.48225">
        <ele>1337</ele>
        <time>2012-05-10T13:17:08Z</time>
      </trkpt>
      <trkpt lat="46.20087" lon="6.48214">
        <ele>1337</ele>
        <time>2012-05-10T13:17:10Z</time>
      </trkpt>
      <trkpt lat="46.20076" lon="6.48199">
        <ele>1331</ele>
        <time>2012-05-10T13:17:12Z</time>
      </trkpt>
      <trkpt lat="46.20063" lon="6.48184">
        <ele>1331</ele>
        <time>2012-05-10T13:17:14Z</time>
      </trkpt>
      <trkpt lat="46.20048" lon="6.48175">
        <ele>1331</ele>
        <time>2012-05-10T13:17:16Z</time>
      </trkpt>
      <trkpt lat="46.20032" lon="6.4817">
        <ele>1325</ele>
        <time>2012-05-10T13:17:18Z</time>
      </trkpt>
      <trkpt lat="46.20017" lon="6.4816">
        <ele>1325</ele>
        <time>2012-05-10T13:17:20Z</time>
      </trkpt>
      <trkpt lat="46.20009" lon="6.48153">
        <ele>1325</ele>
        <time>2012-05-10T13:17:21Z</time>
      </trkpt>
      <trkpt lat="46.20001" lon="6.48147">
        <ele>1325</ele>
        <time>2012-05-10T13:17:22Z</time>
      </trkpt>
      <trkpt lat="46.19986" lon="6.48137">
        <ele>1319</ele>
        <time>2012-05-10T13:17:24Z</time>
      </trkpt>
      <trkpt lat="46.19971" lon="6.48131">
        <ele>1319</ele>
        <time>2012-05-10T13:17:26Z</time>
      </trkpt>
      <trkpt lat="46.19961" lon="6.48118">
        <ele>1319</ele>
        <time>2012-05-10T13:17:28Z</time>
      </trkpt>
      <trkpt lat="46.19953" lon="6.48099">
        <ele>1313</ele>
        <time>2012-05-10T13:17:30Z</time>
      </trkpt>
      <trkpt lat="46.19946" lon="6.48078">
        <ele>1313</ele>
        <time>2012-05-10T13:17:32Z</time>
      </trkpt>
      <trkpt lat="46.19937" lon="6.48056">
        <ele>1307</ele>
        <time>2012-05-10T13:17:34Z</time>
      </trkpt>
      <trkpt lat="46.19933" lon="6.48044">
        <ele>1307</ele>
        <time>2012-05-10T13:17:35Z</time>
      </trkpt>
      <trkpt lat="46.19929" lon="6.48029">
        <ele>1307</ele>
        <time>2012-05-10T13:17:36Z</time>
      </trkpt>
      <trkpt lat="46.19925" lon="6.48015">
        <ele>1307</ele>
        <time>2012-05-10T13:17:37Z</time>
      </trkpt>
      <trkpt lat="46.1992" lon="6.48">
        <ele>1307</ele>
        <time>2012-05-10T13:17:38Z</time>
      </trkpt>
      <trkpt lat="46.19916" lon="6.47984">
        <ele>1301</ele>
        <time>2012-05-10T13:17:39Z</time>
      </trkpt>
      <trkpt lat="46.19911" lon="6.4797">
        <ele>1301</ele>
        <time>2012-05-10T13:17:40Z</time>
      </trkpt>
      <trkpt lat="46.19905" lon="6.47952">
        <ele>1301</ele>
        <time>2012-05-10T13:17:42Z</time>
      </trkpt>
      <trkpt lat="46.19899" lon="6.47937">
        <ele>1301</ele>
        <time>2012-05-10T13:17:44Z</time>
      </trkpt>
      <trkpt lat="46.19895" lon="6.47924">
        <ele>1301</ele>
        <time>2012-05-10T13:17:45Z</time>
      </trkpt>
      <trkpt lat="46.19888" lon="6.47911">
        <ele>1301</ele>
        <time>2012-05-10T13:17:46Z</time>
      </trkpt>
      <trkpt lat="46.19881" lon="6.47896">
        <ele>1301</ele>
        <time>2012-05-10T13:17:47Z</time>
      </trkpt>
      <trkpt lat="46.19876" lon="6.47884">
        <ele>1301</ele>
        <time>2012-05-10T13:17:48Z</time>
      </trkpt>
      <trkpt lat="46.19871" lon="6.47871">
        <ele>1301</ele>
        <time>2012-05-10T13:17:49Z</time>
      </trkpt>
      <trkpt lat="46.19863" lon="6.47855">
        <ele>1301</ele>
        <time>2012-05-10T13:17:51Z</time>
      </trkpt>
      <trkpt lat="46.19852" lon="6.47843">
        <ele>1301</ele>
        <time>2012-05-10T13:17:53Z</time>
      </trkpt>
      <trkpt lat="46.19843" lon="6.47836">
        <ele>1301</ele>
        <time>2012-05-10T13:17:54Z</time>
      </trkpt>
      <trkpt lat="46.19834" lon="6.47828">
        <ele>1301</ele>
        <time>2012-05-10T13:17:55Z</time>
      </trkpt>
      <trkpt lat="46.19824" lon="6.4782">
        <ele>1301</ele>
        <time>2012-05-10T13:17:56Z</time>
      </trkpt>
      <trkpt lat="46.19813" lon="6.47811">
        <ele>1301</ele>
        <time>2012-05-10T13:17:57Z</time>
      </trkpt>
      <trkpt lat="46.19803" lon="6.47801">
        <ele>1301</ele>
        <time>2012-05-10T13:17:58Z</time>
      </trkpt>
      <trkpt lat="46.19792" lon="6.47792">
        <ele>1301</ele>
        <time>2012-05-10T13:17:59Z</time>
      </trkpt>
      <trkpt lat="46.19782" lon="6.47784">
        <ele>1301</ele>
        <time>2012-05-10T13:18:00Z</time>
      </trkpt>
      <trkpt lat="46.19772" lon="6.47778">
        <ele>1301</ele>
        <time>2012-05-10T13:18:01Z</time>
      </trkpt>
      <trkpt lat="46.19763" lon="6.47773">
        <ele>1301</ele>
        <time>2012-05-10T13:18:02Z</time>
      </trkpt>
      <trkpt lat="46.19749" lon="6.47758">
        <ele>1307</ele>
        <time>2012-05-10T13:18:04Z</time>
      </trkpt>
      <trkpt lat="46.19742" lon="6.47749">
        <ele>1307</ele>
        <time>2012-05-10T13:18:05Z</time>
      </trkpt>
      <trkpt lat="46.19734" lon="6.47739">
        <ele>1307</ele>
        <time>2012-05-10T13:18:06Z</time>
      </trkpt>
      <trkpt lat="46.19727" lon="6.47731">
        <ele>1307</ele>
        <time>2012-05-10T13:18:07Z</time>
      </trkpt>
      <trkpt lat="46.19714" lon="6.4772">
        <ele>1307</ele>
        <time>2012-05-10T13:18:09Z</time>
      </trkpt>
      <trkpt lat="46.19706" lon="6.4771">
        <ele>1307</ele>
        <time>2012-05-10T13:18:11Z</time>
      </trkpt>
      <trkpt lat="46.19699" lon="6.47696">
        <ele>1307</ele>
        <time>2012-05-10T13:18:13Z</time>
      </trkpt>
      <trkpt lat="46.19693" lon="6.47677">
        <ele>1307</ele>
        <time>2012-05-10T13:18:15Z</time>
      </trkpt>
      <trkpt lat="46.19687" lon="6.47654">
        <ele>1307</ele>
        <time>2012-05-10T13:18:17Z</time>
      </trkpt>
      <trkpt lat="46.19682" lon="6.47631">
        <ele>1301</ele>
        <time>2012-05-10T13:18:19Z</time>
      </trkpt>
      <trkpt lat="46.19675" lon="6.4761">
        <ele>1301</ele>
        <time>2012-05-10T13:18:21Z</time>
      </trkpt>
      <trkpt lat="46.19665" lon="6.47591">
        <ele>1301</ele>
        <time>2012-05-10T13:18:23Z</time>
      </trkpt>
      <trkpt lat="46.19658" lon="6.47575">
        <ele>1301</ele>
        <time>2012-05-10T13:18:25Z</time>
      </trkpt>
      <trkpt lat="46.19651" lon="6.47562">
        <ele>1301</ele>
        <time>2012-05-10T13:19:22Z</time>
      </trkpt>
      <trkpt lat="46.19649" lon="6.47547">
        <ele>1301</ele>
        <time>2012-05-10T13:19:24Z</time>
      </trkpt>
      <trkpt lat="46.19644" lon="6.4753">
        <ele>1301</ele>
        <time>2012-05-10T13:19:26Z</time>
      </trkpt>
      <trkpt lat="46.19641" lon="6.47513">
        <ele>1301</ele>
        <time>2012-05-10T13:19:28Z</time>
      </trkpt>
      <trkpt lat="46.19639" lon="6.47496">
        <ele>1301</ele>
        <time>2012-05-10T13:19:30Z</time>
      </trkpt>
      <trkpt lat="46.19638" lon="6.47479">
        <ele>1301</ele>
        <time>2012-05-10T13:19:32Z</time>
      </trkpt>
      <trkpt lat="46.1964" lon="6.47455">
        <ele>1301</ele>
        <time>2012-05-10T13:19:34Z</time>
      </trkpt>
      <trkpt lat="46.19643" lon="6.47442">
        <ele>1295</ele>
        <time>2012-05-10T13:19:35Z</time>
      </trkpt>
      <trkpt lat="46.19647" lon="6.47417">
        <ele>1295</ele>
        <time>2012-05-10T13:19:37Z</time>
      </trkpt>
      <trkpt lat="46.19649" lon="6.47393">
        <ele>1295</ele>
        <time>2012-05-10T13:19:39Z</time>
      </trkpt>
      <trkpt lat="46.19647" lon="6.47369">
        <ele>1289</ele>
        <time>2012-05-10T13:19:41Z</time>
      </trkpt>
      <trkpt lat="46.19644" lon="6.47347">
        <ele>1289</ele>
        <time>2012-05-10T13:19:43Z</time>
      </trkpt>
      <trkpt lat="46.19639" lon="6.47322">
        <ele>1289</ele>
        <time>2012-05-10T13:19:45Z</time>
      </trkpt>
      <trkpt lat="46.19634" lon="6.47311">
        <ele>1289</ele>
        <time>2012-05-10T13:19:46Z</time>
      </trkpt>
      <trkpt lat="46.19629" lon="6.47298">
        <ele>1289</ele>
        <time>2012-05-10T13:19:47Z</time>
      </trkpt>
      <trkpt lat="46.19624" lon="6.47283">
        <ele>1282</ele>
        <time>2012-05-10T13:19:48Z</time>
      </trkpt>
      <trkpt lat="46.1962" lon="6.47267">
        <ele>1282</ele>
        <time>2012-05-10T13:19:49Z</time>
      </trkpt>
      <trkpt lat="46.19616" lon="6.47251">
        <ele>1282</ele>
        <time>2012-05-10T13:19:50Z</time>
      </trkpt>
      <trkpt lat="46.19612" lon="6.47234">
        <ele>1282</ele>
        <time>2012-05-10T13:19:51Z</time>
      </trkpt>
      <trkpt lat="46.19608" lon="6.47219">
        <ele>1282</ele>
        <time>2012-05-10T13:19:52Z</time>
      </trkpt>
      <trkpt lat="46.19604" lon="6.47203">
        <ele>1282</ele>
        <time>2012-05-10T13:19:53Z</time>
      </trkpt>
      <trkpt lat="46.19601" lon="6.47188">
        <ele>1282</ele>
        <time>2012-05-10T13:19:54Z</time>
      </trkpt>
      <trkpt lat="46.19598" lon="6.47173">
        <ele>1277</ele>
        <time>2012-05-10T13:19:55Z</time>
      </trkpt>
      <trkpt lat="46.19596" lon="6.47159">
        <ele>1277</ele>
        <time>2012-05-10T13:19:56Z</time>
      </trkpt>
      <trkpt lat="46.19595" lon="6.47135">
        <ele>1277</ele>
        <time>2012-05-10T13:19:58Z</time>
      </trkpt>
      <trkpt lat="46.19595" lon="6.47113">
        <ele>1277</ele>
        <time>2012-05-10T13:20:00Z</time>
      </trkpt>
      <trkpt lat="46.19596" lon="6.47096">
        <ele>1277</ele>
        <time>2012-05-10T13:20:02Z</time>
      </trkpt>
      <trkpt lat="46.19601" lon="6.47083">
        <ele>1277</ele>
        <time>2012-05-10T13:20:04Z</time>
      </trkpt>
      <trkpt lat="46.19613" lon="6.47074">
        <ele>1277</ele>
        <time>2012-05-10T13:20:06Z</time>
      </trkpt>
      <trkpt lat="46.19625" lon="6.47061">
        <ele>1277</ele>
        <time>2012-05-10T13:20:08Z</time>
      </trkpt>
      <trkpt lat="46.19638" lon="6.47046">
        <ele>1277</ele>
        <time>2012-05-10T13:20:10Z</time>
      </trkpt>
      <trkpt lat="46.19651" lon="6.47026">
        <ele>1277</ele>
        <time>2012-05-10T13:20:12Z</time>
      </trkpt>
      <trkpt lat="46.19662" lon="6.47006">
        <ele>1271</ele>
        <time>2012-05-10T13:20:14Z</time>
      </trkpt>
      <trkpt lat="46.19674" lon="6.46991">
        <ele>1271</ele>
        <time>2012-05-10T13:20:16Z</time>
      </trkpt>
      <trkpt lat="46.1969" lon="6.4698">
        <ele>1271</ele>
        <time>2012-05-10T13:20:18Z</time>
      </trkpt>
      <trkpt lat="46.197" lon="6.46977">
        <ele>1271</ele>
        <time>2012-05-10T13:20:19Z</time>
      </trkpt>
      <trkpt lat="46.19711" lon="6.46974">
        <ele>1266</ele>
        <time>2012-05-10T13:20:20Z</time>
      </trkpt>
      <trkpt lat="46.19721" lon="6.4697">
        <ele>1266</ele>
        <time>2012-05-10T13:20:21Z</time>
      </trkpt>
      <trkpt lat="46.19731" lon="6.46968">
        <ele>1266</ele>
        <time>2012-05-10T13:20:22Z</time>
      </trkpt>
      <trkpt lat="46.19741" lon="6.46964">
        <ele>1266</ele>
        <time>2012-05-10T13:20:23Z</time>
      </trkpt>
      <trkpt lat="46.1975" lon="6.46962">
        <ele>1266</ele>
        <time>2012-05-10T13:20:24Z</time>
      </trkpt>
      <trkpt lat="46.19765" lon="6.4696">
        <ele>1260</ele>
        <time>2012-05-10T13:20:26Z</time>
      </trkpt>
      <trkpt lat="46.19772" lon="6.46948">
        <ele>1260</ele>
        <time>2012-05-10T13:20:29Z</time>
      </trkpt>
      <trkpt lat="46.19763" lon="6.46933">
        <ele>1260</ele>
        <time>2012-05-10T13:20:32Z</time>
      </trkpt>
      <trkpt lat="46.19748" lon="6.46921">
        <ele>1254</ele>
        <time>2012-05-10T13:20:34Z</time>
      </trkpt>
      <trkpt lat="46.19732" lon="6.4691">
        <ele>1254</ele>
        <time>2012-05-10T13:20:36Z</time>
      </trkpt>
      <trkpt lat="46.19717" lon="6.46901">
        <ele>1254</ele>
        <time>2012-05-10T13:20:38Z</time>
      </trkpt>
      <trkpt lat="46.19704" lon="6.46891">
        <ele>1249</ele>
        <time>2012-05-10T13:20:40Z</time>
      </trkpt>
      <trkpt lat="46.19692" lon="6.4688">
        <ele>1249</ele>
        <time>2012-05-10T13:20:42Z</time>
      </trkpt>
      <trkpt lat="46.19681" lon="6.46869">
        <ele>1249</ele>
        <time>2012-05-10T13:20:44Z</time>
      </trkpt>
      <trkpt lat="46.19673" lon="6.46859">
        <ele>1249</ele>
        <time>2012-05-10T13:20:47Z</time>
      </trkpt>
      <trkpt lat="46.19663" lon="6.4686">
        <ele>1241</ele>
        <time>2012-05-10T13:23:12Z</time>
      </trkpt>
      <trkpt lat="46.19677" lon="6.46848">
        <ele>1241</ele>
        <time>2012-05-10T13:23:28Z</time>
      </trkpt>
      <trkpt lat="46.19691" lon="6.46829">
        <ele>1241</ele>
        <time>2012-05-10T13:23:30Z</time>
      </trkpt>
      <trkpt lat="46.19696" lon="6.46818">
        <ele>1241</ele>
        <time>2012-05-10T13:23:31Z</time>
      </trkpt>
      <trkpt lat="46.19701" lon="6.46804">
        <ele>1241</ele>
        <time>2012-05-10T13:23:32Z</time>
      </trkpt>
      <trkpt lat="46.19704" lon="6.4679">
        <ele>1246</ele>
        <time>2012-05-10T13:23:33Z</time>
      </trkpt>
      <trkpt lat="46.19707" lon="6.46774">
        <ele>1246</ele>
        <time>2012-05-10T13:23:34Z</time>
      </trkpt>
      <trkpt lat="46.1971" lon="6.46757">
        <ele>1246</ele>
        <time>2012-05-10T13:23:35Z</time>
      </trkpt>
      <trkpt lat="46.19712" lon="6.46739">
        <ele>1246</ele>
        <time>2012-05-10T13:23:36Z</time>
      </trkpt>
      <trkpt lat="46.19713" lon="6.46721">
        <ele>1246</ele>
        <time>2012-05-10T13:23:37Z</time>
      </trkpt>
      <trkpt lat="46.19714" lon="6.46704">
        <ele>1246</ele>
        <time>2012-05-10T13:23:38Z</time>
      </trkpt>
      <trkpt lat="46.19716" lon="6.46687">
        <ele>1252</ele>
        <time>2012-05-10T13:23:39Z</time>
      </trkpt>
      <trkpt lat="46.19718" lon="6.4667">
        <ele>1252</ele>
        <time>2012-05-10T13:23:40Z</time>
      </trkpt>
      <trkpt lat="46.19721" lon="6.46653">
        <ele>1252</ele>
        <time>2012-05-10T13:23:41Z</time>
      </trkpt>
      <trkpt lat="46.19723" lon="6.46634">
        <ele>1252</ele>
        <time>2012-05-10T13:23:42Z</time>
      </trkpt>
      <trkpt lat="46.19726" lon="6.46615">
        <ele>1252</ele>
        <time>2012-05-10T13:23:43Z</time>
      </trkpt>
      <trkpt lat="46.19729" lon="6.46597">
        <ele>1252</ele>
        <time>2012-05-10T13:23:44Z</time>
      </trkpt>
      <trkpt lat="46.19733" lon="6.46576">
        <ele>1252</ele>
        <time>2012-05-10T13:23:45Z</time>
      </trkpt>
      <trkpt lat="46.19737" lon="6.46553">
        <ele>1252</ele>
        <time>2012-05-10T13:23:46Z</time>
      </trkpt>
      <trkpt lat="46.1974" lon="6.46529">
        <ele>1252</ele>
        <time>2012-05-10T13:23:47Z</time>
      </trkpt>
      <trkpt lat="46.19744" lon="6.46505">
        <ele>1252</ele>
        <time>2012-05-10T13:23:48Z</time>
      </trkpt>
      <trkpt lat="46.19749" lon="6.46481">
        <ele>1252</ele>
        <time>2012-05-10T13:23:49Z</time>
      </trkpt>
      <trkpt lat="46.19752" lon="6.46456">
        <ele>1252</ele>
        <time>2012-05-10T13:23:50Z</time>
      </trkpt>
      <trkpt lat="46.19757" lon="6.46432">
        <ele>1252</ele>
        <time>2012-05-10T13:23:51Z</time>
      </trkpt>
      <trkpt lat="46.19762" lon="6.46408">
        <ele>1252</ele>
        <time>2012-05-10T13:23:52Z</time>
      </trkpt>
      <trkpt lat="46.19766" lon="6.46386">
        <ele>1252</ele>
        <time>2012-05-10T13:23:53Z</time>
      </trkpt>
      <trkpt lat="46.1977" lon="6.46367">
        <ele>1252</ele>
        <time>2012-05-10T13:23:54Z</time>
      </trkpt>
      <trkpt lat="46.19773" lon="6.46349">
        <ele>1252</ele>
        <time>2012-05-10T13:23:55Z</time>
      </trkpt>
      <trkpt lat="46.19775" lon="6.46332">
        <ele>1252</ele>
        <time>2012-05-10T13:23:56Z</time>
      </trkpt>
      <trkpt lat="46.19779" lon="6.46317">
        <ele>1252</ele>
        <time>2012-05-10T13:23:57Z</time>
      </trkpt>
      <trkpt lat="46.19781" lon="6.46305">
        <ele>1252</ele>
        <time>2012-05-10T13:23:58Z</time>
      </trkpt>
      <trkpt lat="46.19785" lon="6.46284">
        <ele>1257</ele>
        <time>2012-05-10T13:24:00Z</time>
      </trkpt>
      <trkpt lat="46.19787" lon="6.46271">
        <ele>1257</ele>
        <time>2012-05-10T13:24:03Z</time>
      </trkpt>
      <trkpt lat="46.1978" lon="6.46256">
        <ele>1257</ele>
        <time>2012-05-10T13:24:15Z</time>
      </trkpt>
      <trkpt lat="46.19768" lon="6.46238">
        <ele>1257</ele>
        <time>2012-05-10T13:24:17Z</time>
      </trkpt>
      <trkpt lat="46.1976" lon="6.46229">
        <ele>1257</ele>
        <time>2012-05-10T13:24:18Z</time>
      </trkpt>
      <trkpt lat="46.19752" lon="6.46219">
        <ele>1257</ele>
        <time>2012-05-10T13:24:19Z</time>
      </trkpt>
      <trkpt lat="46.19745" lon="6.46209">
        <ele>1257</ele>
        <time>2012-05-10T13:24:20Z</time>
      </trkpt>
      <trkpt lat="46.19737" lon="6.46189">
        <ele>1257</ele>
        <time>2012-05-10T13:24:22Z</time>
      </trkpt>
      <trkpt lat="46.19736" lon="6.46169">
        <ele>1257</ele>
        <time>2012-05-10T13:24:24Z</time>
      </trkpt>
      <trkpt lat="46.19738" lon="6.46152">
        <ele>1257</ele>
        <time>2012-05-10T13:24:26Z</time>
      </trkpt>
      <trkpt lat="46.19739" lon="6.46134">
        <ele>1257</ele>
        <time>2012-05-10T13:24:28Z</time>
      </trkpt>
      <trkpt lat="46.19741" lon="6.4612">
        <ele>1257</ele>
        <time>2012-05-10T13:24:29Z</time>
      </trkpt>
      <trkpt lat="46.19743" lon="6.46102">
        <ele>1257</ele>
        <time>2012-05-10T13:24:30Z</time>
      </trkpt>
      <trkpt lat="46.19745" lon="6.46082">
        <ele>1257</ele>
        <time>2012-05-10T13:24:31Z</time>
      </trkpt>
      <trkpt lat="46.19746" lon="6.46064">
        <ele>1257</ele>
        <time>2012-05-10T13:24:32Z</time>
      </trkpt>
      <trkpt lat="46.19746" lon="6.46048">
        <ele>1257</ele>
        <time>2012-05-10T13:24:33Z</time>
      </trkpt>
      <trkpt lat="46.19744" lon="6.46033">
        <ele>1257</ele>
        <time>2012-05-10T13:24:34Z</time>
      </trkpt>
      <trkpt lat="46.1974" lon="6.46021">
        <ele>1257</ele>
        <time>2012-05-10T13:24:35Z</time>
      </trkpt>
      <trkpt lat="46.1973" lon="6.46">
        <ele>1257</ele>
        <time>2012-05-10T13:24:37Z</time>
      </trkpt>
      <trkpt lat="46.19722" lon="6.45986">
        <ele>1257</ele>
        <time>2012-05-10T13:24:39Z</time>
      </trkpt>
      <trkpt lat="46.19716" lon="6.45976">
        <ele>1257</ele>
        <time>2012-05-10T13:24:42Z</time>
      </trkpt>
      <trkpt lat="46.19727" lon="6.45969">
        <ele>1257</ele>
        <time>2012-05-10T13:24:59Z</time>
      </trkpt>
      <trkpt lat="46.19735" lon="6.45951">
        <ele>1257</ele>
        <time>2012-05-10T13:25:01Z</time>
      </trkpt>
      <trkpt lat="46.19741" lon="6.4594">
        <ele>1257</ele>
        <time>2012-05-10T13:25:02Z</time>
      </trkpt>
      <trkpt lat="46.19747" lon="6.45929">
        <ele>1257</ele>
        <time>2012-05-10T13:25:03Z</time>
      </trkpt>
      <trkpt lat="46.19753" lon="6.45917">
        <ele>1257</ele>
        <time>2012-05-10T13:25:04Z</time>
      </trkpt>
      <trkpt lat="46.19758" lon="6.45904">
        <ele>1257</ele>
        <time>2012-05-10T13:25:05Z</time>
      </trkpt>
      <trkpt lat="46.19763" lon="6.45891">
        <ele>1257</ele>
        <time>2012-05-10T13:25:06Z</time>
      </trkpt>
      <trkpt lat="46.19768" lon="6.45878">
        <ele>1257</ele>
        <time>2012-05-10T13:25:07Z</time>
      </trkpt>
      <trkpt lat="46.19773" lon="6.45866">
        <ele>1257</ele>
        <time>2012-05-10T13:25:08Z</time>
      </trkpt>
      <trkpt lat="46.19779" lon="6.45856">
        <ele>1257</ele>
        <time>2012-05-10T13:25:09Z</time>
      </trkpt>
      <trkpt lat="46.19792" lon="6.45839">
        <ele>1257</ele>
        <time>2012-05-10T13:25:11Z</time>
      </trkpt>
      <trkpt lat="46.198" lon="6.45833">
        <ele>1257</ele>
        <time>2012-05-10T13:25:12Z</time>
      </trkpt>
      <trkpt lat="46.19816" lon="6.45823">
        <ele>1257</ele>
        <time>2012-05-10T13:25:14Z</time>
      </trkpt>
      <trkpt lat="46.19825" lon="6.45818">
        <ele>1257</ele>
        <time>2012-05-10T13:25:15Z</time>
      </trkpt>
      <trkpt lat="46.19838" lon="6.4581">
        <ele>1264</ele>
        <time>2012-05-10T13:25:17Z</time>
      </trkpt>
      <trkpt lat="46.19848" lon="6.45803">
        <ele>1264</ele>
        <time>2012-05-10T13:25:19Z</time>
      </trkpt>
      <trkpt lat="46.19854" lon="6.45789">
        <ele>1264</ele>
        <time>2012-05-10T13:25:21Z</time>
      </trkpt>
      <trkpt lat="46.19855" lon="6.45771">
        <ele>1264</ele>
        <time>2012-05-10T13:25:23Z</time>
      </trkpt>
      <trkpt lat="46.19857" lon="6.45755">
        <ele>1264</ele>
        <time>2012-05-10T13:25:25Z</time>
      </trkpt>
      <trkpt lat="46.19865" lon="6.45747">
        <ele>1269</ele>
        <time>2012-05-10T13:25:27Z</time>
      </trkpt>
      <trkpt lat="46.19876" lon="6.45747">
        <ele>1269</ele>
        <time>2012-05-10T13:25:29Z</time>
      </trkpt>
      <trkpt lat="46.19888" lon="6.4575">
        <ele>1269</ele>
        <time>2012-05-10T13:25:31Z</time>
      </trkpt>
      <trkpt lat="46.19901" lon="6.45757">
        <ele>1269</ele>
        <time>2012-05-10T13:25:33Z</time>
      </trkpt>
      <trkpt lat="46.19916" lon="6.45764">
        <ele>1275</ele>
        <time>2012-05-10T13:25:35Z</time>
      </trkpt>
      <trkpt lat="46.1993" lon="6.45772">
        <ele>1275</ele>
        <time>2012-05-10T13:25:37Z</time>
      </trkpt>
      <trkpt lat="46.19939" lon="6.45777">
        <ele>1275</ele>
        <time>2012-05-10T13:25:39Z</time>
      </trkpt>
      <trkpt lat="46.19947" lon="6.45785">
        <ele>1275</ele>
        <time>2012-05-10T13:25:42Z</time>
      </trkpt>
      <trkpt lat="46.19956" lon="6.45793">
        <ele>1281</ele>
        <time>2012-05-10T13:25:44Z</time>
      </trkpt>
      <trkpt lat="46.19971" lon="6.45806">
        <ele>1281</ele>
        <time>2012-05-10T13:25:46Z</time>
      </trkpt>
      <trkpt lat="46.19983" lon="6.45816">
        <ele>1281</ele>
        <time>2012-05-10T13:25:48Z</time>
      </trkpt>
      <trkpt lat="46.19991" lon="6.45824">
        <ele>1286</ele>
        <time>2012-05-10T13:25:57Z</time>
      </trkpt>
      <trkpt lat="46.20002" lon="6.45837">
        <ele>1286</ele>
        <time>2012-05-10T13:25:59Z</time>
      </trkpt>
      <trkpt lat="46.20011" lon="6.45848">
        <ele>1286</ele>
        <time>2012-05-10T13:26:01Z</time>
      </trkpt>
      <trkpt lat="46.19998" lon="6.45833">
        <ele>1286</ele>
        <time>2012-05-10T13:26:12Z</time>
      </trkpt>
      <trkpt lat="46.19991" lon="6.45825">
        <ele>1286</ele>
        <time>2012-05-10T13:26:13Z</time>
      </trkpt>
      <trkpt lat="46.19983" lon="6.45818">
        <ele>1286</ele>
        <time>2012-05-10T13:26:14Z</time>
      </trkpt>
      <trkpt lat="46.19974" lon="6.4581">
        <ele>1286</ele>
        <time>2012-05-10T13:26:15Z</time>
      </trkpt>
      <trkpt lat="46.19965" lon="6.45803">
        <ele>1286</ele>
        <time>2012-05-10T13:26:16Z</time>
      </trkpt>
      <trkpt lat="46.19957" lon="6.45795">
        <ele>1286</ele>
        <time>2012-05-10T13:26:17Z</time>
      </trkpt>
      <trkpt lat="46.19949" lon="6.45788">
        <ele>1286</ele>
        <time>2012-05-10T13:26:18Z</time>
      </trkpt>
      <trkpt lat="46.1994" lon="6.45781">
        <ele>1286</ele>
        <time>2012-05-10T13:26:19Z</time>
      </trkpt>
      <trkpt lat="46.19931" lon="6.45775">
        <ele>1286</ele>
        <time>2012-05-10T13:26:20Z</time>
      </trkpt>
      <trkpt lat="46.19923" lon="6.4577">
        <ele>1286</ele>
        <time>2012-05-10T13:26:21Z</time>
      </trkpt>
      <trkpt lat="46.19914" lon="6.45766">
        <ele>1286</ele>
        <time>2012-05-10T13:26:22Z</time>
      </trkpt>
      <trkpt lat="46.19905" lon="6.45762">
        <ele>1286</ele>
        <time>2012-05-10T13:26:23Z</time>
      </trkpt>
      <trkpt lat="46.19896" lon="6.45758">
        <ele>1280</ele>
        <time>2012-05-10T13:26:24Z</time>
      </trkpt>
      <trkpt lat="46.19883" lon="6.45751">
        <ele>1280</ele>
        <time>2012-05-10T13:26:26Z</time>
      </trkpt>
      <trkpt lat="46.19869" lon="6.45748">
        <ele>1275</ele>
        <time>2012-05-10T13:26:28Z</time>
      </trkpt>
      <trkpt lat="46.19858" lon="6.45747">
        <ele>1275</ele>
        <time>2012-05-10T13:26:30Z</time>
      </trkpt>
      <trkpt lat="46.1985" lon="6.45734">
        <ele>1269</ele>
        <time>2012-05-10T13:26:34Z</time>
      </trkpt>
      <trkpt lat="46.19854" lon="6.45717">
        <ele>1269</ele>
        <time>2012-05-10T13:26:36Z</time>
      </trkpt>
      <trkpt lat="46.1986" lon="6.45693">
        <ele>1269</ele>
        <time>2012-05-10T13:26:38Z</time>
      </trkpt>
      <trkpt lat="46.19865" lon="6.45679">
        <ele>1269</ele>
        <time>2012-05-10T13:26:39Z</time>
      </trkpt>
      <trkpt lat="46.19871" lon="6.45665">
        <ele>1269</ele>
        <time>2012-05-10T13:26:40Z</time>
      </trkpt>
      <trkpt lat="46.19878" lon="6.45652">
        <ele>1269</ele>
        <time>2012-05-10T13:26:41Z</time>
      </trkpt>
      <trkpt lat="46.19885" lon="6.45638">
        <ele>1269</ele>
        <time>2012-05-10T13:26:42Z</time>
      </trkpt>
      <trkpt lat="46.19894" lon="6.45625">
        <ele>1269</ele>
        <time>2012-05-10T13:26:43Z</time>
      </trkpt>
      <trkpt lat="46.19902" lon="6.45613">
        <ele>1269</ele>
        <time>2012-05-10T13:26:44Z</time>
      </trkpt>
      <trkpt lat="46.1991" lon="6.45602">
        <ele>1269</ele>
        <time>2012-05-10T13:26:45Z</time>
      </trkpt>
      <trkpt lat="46.1992" lon="6.45591">
        <ele>1269</ele>
        <time>2012-05-10T13:26:46Z</time>
      </trkpt>
      <trkpt lat="46.19928" lon="6.45581">
        <ele>1269</ele>
        <time>2012-05-10T13:26:47Z</time>
      </trkpt>
      <trkpt lat="46.19938" lon="6.45571">
        <ele>1269</ele>
        <time>2012-05-10T13:26:48Z</time>
      </trkpt>
      <trkpt lat="46.19946" lon="6.45562">
        <ele>1269</ele>
        <time>2012-05-10T13:26:49Z</time>
      </trkpt>
      <trkpt lat="46.19954" lon="6.45553">
        <ele>1269</ele>
        <time>2012-05-10T13:26:50Z</time>
      </trkpt>
      <trkpt lat="46.19968" lon="6.45538">
        <ele>1269</ele>
        <time>2012-05-10T13:26:52Z</time>
      </trkpt>
      <trkpt lat="46.19983" lon="6.45529">
        <ele>1269</ele>
        <time>2012-05-10T13:26:54Z</time>
      </trkpt>
      <trkpt lat="46.19992" lon="6.45527">
        <ele>1269</ele>
        <time>2012-05-10T13:26:55Z</time>
      </trkpt>
      <trkpt lat="46.20002" lon="6.45523">
        <ele>1264</ele>
        <time>2012-05-10T13:26:56Z</time>
      </trkpt>
      <trkpt lat="46.20014" lon="6.4552">
        <ele>1264</ele>
        <time>2012-05-10T13:26:57Z</time>
      </trkpt>
      <trkpt lat="46.20026" lon="6.45519">
        <ele>1264</ele>
        <time>2012-05-10T13:26:58Z</time>
      </trkpt>
      <trkpt lat="46.20037" lon="6.45517">
        <ele>1264</ele>
        <time>2012-05-10T13:26:59Z</time>
      </trkpt>
      <trkpt lat="46.20048" lon="6.45516">
        <ele>1264</ele>
        <time>2012-05-10T13:27:00Z</time>
      </trkpt>
      <trkpt lat="46.20058" lon="6.45515">
        <ele>1259</ele>
        <time>2012-05-10T13:27:01Z</time>
      </trkpt>
      <trkpt lat="46.20069" lon="6.45514">
        <ele>1259</ele>
        <time>2012-05-10T13:27:02Z</time>
      </trkpt>
      <trkpt lat="46.20079" lon="6.45511">
        <ele>1259</ele>
        <time>2012-05-10T13:27:03Z</time>
      </trkpt>
      <trkpt lat="46.20089" lon="6.4551">
        <ele>1259</ele>
        <time>2012-05-10T13:27:04Z</time>
      </trkpt>
      <trkpt lat="46.20104" lon="6.45507">
        <ele>1251</ele>
        <time>2012-05-10T13:27:06Z</time>
      </trkpt>
      <trkpt lat="46.20112" lon="6.45511">
        <ele>1245</ele>
        <time>2012-05-10T13:27:10Z</time>
      </trkpt>
      <trkpt lat="46.20115" lon="6.45497">
        <ele>1245</ele>
        <time>2012-05-10T13:27:15Z</time>
      </trkpt>
      <trkpt lat="46.20114" lon="6.45484">
        <ele>1245</ele>
        <time>2012-05-10T13:27:17Z</time>
      </trkpt>
      <trkpt lat="46.20123" lon="6.45487">
        <ele>1240</ele>
        <time>2012-05-10T13:27:40Z</time>
      </trkpt>
      <trkpt lat="46.20134" lon="6.45487">
        <ele>1240</ele>
        <time>2012-05-10T13:27:42Z</time>
      </trkpt>
      <trkpt lat="46.20153" lon="6.45486">
        <ele>1240</ele>
        <time>2012-05-10T13:27:44Z</time>
      </trkpt>
      <trkpt lat="46.20165" lon="6.45483">
        <ele>1240</ele>
        <time>2012-05-10T13:27:45Z</time>
      </trkpt>
      <trkpt lat="46.20176" lon="6.4548">
        <ele>1240</ele>
        <time>2012-05-10T13:27:46Z</time>
      </trkpt>
      <trkpt lat="46.20185" lon="6.45479">
        <ele>1240</ele>
        <time>2012-05-10T13:27:47Z</time>
      </trkpt>
      <trkpt lat="46.20196" lon="6.45476">
        <ele>1240</ele>
        <time>2012-05-10T13:27:48Z</time>
      </trkpt>
      <trkpt lat="46.20212" lon="6.45474">
        <ele>1240</ele>
        <time>2012-05-10T13:27:50Z</time>
      </trkpt>
      <trkpt lat="46.2023" lon="6.45468">
        <ele>1240</ele>
        <time>2012-05-10T13:27:52Z</time>
      </trkpt>
      <trkpt lat="46.20238" lon="6.45465">
        <ele>1240</ele>
        <time>2012-05-10T13:27:53Z</time>
      </trkpt>
      <trkpt lat="46.20251" lon="6.45457">
        <ele>1240</ele>
        <time>2012-05-10T13:27:55Z</time>
      </trkpt>
      <trkpt lat="46.20259" lon="6.45447">
        <ele>1240</ele>
        <time>2012-05-10T13:27:57Z</time>
      </trkpt>
      <trkpt lat="46.2027" lon="6.45438">
        <ele>1240</ele>
        <time>2012-05-10T13:27:59Z</time>
      </trkpt>
      <trkpt lat="46.20278" lon="6.45429">
        <ele>1240</ele>
        <time>2012-05-10T13:28:01Z</time>
      </trkpt>
      <trkpt lat="46.20286" lon="6.45415">
        <ele>1235</ele>
        <time>2012-05-10T13:28:04Z</time>
      </trkpt>
      <trkpt lat="46.20293" lon="6.45397">
        <ele>1235</ele>
        <time>2012-05-10T13:28:07Z</time>
      </trkpt>
      <trkpt lat="46.20295" lon="6.45381">
        <ele>1235</ele>
        <time>2012-05-10T13:28:09Z</time>
      </trkpt>
      <trkpt lat="46.20295" lon="6.45368">
        <ele>1235</ele>
        <time>2012-05-10T13:28:11Z</time>
      </trkpt>
      <trkpt lat="46.20293" lon="6.45352">
        <ele>1235</ele>
        <time>2012-05-10T13:28:13Z</time>
      </trkpt>
      <trkpt lat="46.20291" lon="6.45336">
        <ele>1235</ele>
        <time>2012-05-10T13:28:15Z</time>
      </trkpt>
      <trkpt lat="46.2029" lon="6.45321">
        <ele>1235</ele>
        <time>2012-05-10T13:28:17Z</time>
      </trkpt>
      <trkpt lat="46.20285" lon="6.45306">
        <ele>1235</ele>
        <time>2012-05-10T13:28:19Z</time>
      </trkpt>
      <trkpt lat="46.20278" lon="6.45289">
        <ele>1235</ele>
        <time>2012-05-10T13:28:21Z</time>
      </trkpt>
      <trkpt lat="46.2027" lon="6.45271">
        <ele>1235</ele>
        <time>2012-05-10T13:28:23Z</time>
      </trkpt>
      <trkpt lat="46.20264" lon="6.45252">
        <ele>1235</ele>
        <time>2012-05-10T13:28:25Z</time>
      </trkpt>
      <trkpt lat="46.20257" lon="6.45234">
        <ele>1229</ele>
        <time>2012-05-10T13:28:27Z</time>
      </trkpt>
      <trkpt lat="46.20252" lon="6.45221">
        <ele>1229</ele>
        <time>2012-05-10T13:28:29Z</time>
      </trkpt>
      <trkpt lat="46.20247" lon="6.45207">
        <ele>1229</ele>
        <time>2012-05-10T13:28:31Z</time>
      </trkpt>
      <trkpt lat="46.20241" lon="6.45187">
        <ele>1229</ele>
        <time>2012-05-10T13:28:33Z</time>
      </trkpt>
      <trkpt lat="46.20236" lon="6.45169">
        <ele>1222</ele>
        <time>2012-05-10T13:28:35Z</time>
      </trkpt>
      <trkpt lat="46.20236" lon="6.45149">
        <ele>1222</ele>
        <time>2012-05-10T13:28:37Z</time>
      </trkpt>
      <trkpt lat="46.20238" lon="6.4513">
        <ele>1216</ele>
        <time>2012-05-10T13:28:39Z</time>
      </trkpt>
      <trkpt lat="46.2024" lon="6.4511">
        <ele>1216</ele>
        <time>2012-05-10T13:28:41Z</time>
      </trkpt>
      <trkpt lat="46.20241" lon="6.4509">
        <ele>1216</ele>
        <time>2012-05-10T13:28:43Z</time>
      </trkpt>
      <trkpt lat="46.20239" lon="6.4507">
        <ele>1210</ele>
        <time>2012-05-10T13:28:45Z</time>
      </trkpt>
      <trkpt lat="46.20243" lon="6.45054">
        <ele>1210</ele>
        <time>2012-05-10T13:28:47Z</time>
      </trkpt>
      <trkpt lat="46.20246" lon="6.45042">
        <ele>1201</ele>
        <time>2012-05-10T13:28:49Z</time>
      </trkpt>
      <trkpt lat="46.20252" lon="6.45026">
        <ele>1201</ele>
        <time>2012-05-10T13:28:51Z</time>
      </trkpt>
      <trkpt lat="46.20259" lon="6.45009">
        <ele>1201</ele>
        <time>2012-05-10T13:28:53Z</time>
      </trkpt>
      <trkpt lat="46.20267" lon="6.4499">
        <ele>1201</ele>
        <time>2012-05-10T13:28:55Z</time>
      </trkpt>
      <trkpt lat="46.20274" lon="6.44972">
        <ele>1195</ele>
        <time>2012-05-10T13:28:57Z</time>
      </trkpt>
      <trkpt lat="46.20279" lon="6.44957">
        <ele>1187</ele>
        <time>2012-05-10T13:28:59Z</time>
      </trkpt>
      <trkpt lat="46.20286" lon="6.44944">
        <ele>1187</ele>
        <time>2012-05-10T13:29:01Z</time>
      </trkpt>
      <trkpt lat="46.20294" lon="6.44932">
        <ele>1180</ele>
        <time>2012-05-10T13:29:03Z</time>
      </trkpt>
      <trkpt lat="46.20299" lon="6.44915">
        <ele>1174</ele>
        <time>2012-05-10T13:29:06Z</time>
      </trkpt>
      <trkpt lat="46.20303" lon="6.449">
        <ele>1174</ele>
        <time>2012-05-10T13:29:09Z</time>
      </trkpt>
      <trkpt lat="46.20302" lon="6.44884">
        <ele>1166</ele>
        <time>2012-05-10T13:29:12Z</time>
      </trkpt>
      <trkpt lat="46.20301" lon="6.4487">
        <ele>1166</ele>
        <time>2012-05-10T13:29:14Z</time>
      </trkpt>
      <trkpt lat="46.20306" lon="6.44856">
        <ele>1166</ele>
        <time>2012-05-10T13:29:16Z</time>
      </trkpt>
      <trkpt lat="46.20307" lon="6.44842">
        <ele>1166</ele>
        <time>2012-05-10T13:29:18Z</time>
      </trkpt>
      <trkpt lat="46.20305" lon="6.44828">
        <ele>1161</ele>
        <time>2012-05-10T13:29:21Z</time>
      </trkpt>
      <trkpt lat="46.20306" lon="6.44814">
        <ele>1161</ele>
        <time>2012-05-10T13:29:38Z</time>
      </trkpt>
      <trkpt lat="46.203" lon="6.44803">
        <ele>1161</ele>
        <time>2012-05-10T13:29:40Z</time>
      </trkpt>
      <trkpt lat="46.20293" lon="6.44791">
        <ele>1161</ele>
        <time>2012-05-10T13:29:42Z</time>
      </trkpt>
      <trkpt lat="46.20285" lon="6.44782">
        <ele>1161</ele>
        <time>2012-05-10T13:29:44Z</time>
      </trkpt>
      <trkpt lat="46.20276" lon="6.44771">
        <ele>1161</ele>
        <time>2012-05-10T13:29:47Z</time>
      </trkpt>
      <trkpt lat="46.20266" lon="6.44765">
        <ele>1161</ele>
        <time>2012-05-10T13:29:52Z</time>
      </trkpt>
      <trkpt lat="46.20254" lon="6.44753">
        <ele>1161</ele>
        <time>2012-05-10T13:29:55Z</time>
      </trkpt>
      <trkpt lat="46.20248" lon="6.44741">
        <ele>1161</ele>
        <time>2012-05-10T13:29:57Z</time>
      </trkpt>
      <trkpt lat="46.20238" lon="6.44727">
        <ele>1154</ele>
        <time>2012-05-10T13:30:00Z</time>
      </trkpt>
      <trkpt lat="46.2023" lon="6.44714">
        <ele>1154</ele>
        <time>2012-05-10T13:30:03Z</time>
      </trkpt>
      <trkpt lat="46.20218" lon="6.44701">
        <ele>1143</ele>
        <time>2012-05-10T13:30:06Z</time>
      </trkpt>
      <trkpt lat="46.20211" lon="6.44693">
        <ele>1143</ele>
        <time>2012-05-10T13:30:08Z</time>
      </trkpt>
      <trkpt lat="46.20204" lon="6.44683">
        <ele>1136</ele>
        <time>2012-05-10T13:30:10Z</time>
      </trkpt>
      <trkpt lat="46.20196" lon="6.44672">
        <ele>1136</ele>
        <time>2012-05-10T13:30:12Z</time>
      </trkpt>
      <trkpt lat="46.20187" lon="6.44663">
        <ele>1129</ele>
        <time>2012-05-10T13:30:14Z</time>
      </trkpt>
      <trkpt lat="46.20179" lon="6.44654">
        <ele>1129</ele>
        <time>2012-05-10T13:30:16Z</time>
      </trkpt>
      <trkpt lat="46.20171" lon="6.44645">
        <ele>1129</ele>
        <time>2012-05-10T13:30:18Z</time>
      </trkpt>
      <trkpt lat="46.20162" lon="6.44632">
        <ele>1119</ele>
        <time>2012-05-10T13:30:21Z</time>
      </trkpt>
      <trkpt lat="46.20156" lon="6.44622">
        <ele>1119</ele>
        <time>2012-05-10T13:30:23Z</time>
      </trkpt>
      <trkpt lat="46.20147" lon="6.4461">
        <ele>1119</ele>
        <time>2012-05-10T13:30:25Z</time>
      </trkpt>
      <trkpt lat="46.20138" lon="6.44599">
        <ele>1112</ele>
        <time>2012-05-10T13:30:27Z</time>
      </trkpt>
      <trkpt lat="46.20128" lon="6.44585">
        <ele>1112</ele>
        <time>2012-05-10T13:30:29Z</time>
      </trkpt>
      <trkpt lat="46.2012" lon="6.44572">
        <ele>1106</ele>
        <time>2012-05-10T13:30:31Z</time>
      </trkpt>
      <trkpt lat="46.2011" lon="6.4456">
        <ele>1106</ele>
        <time>2012-05-10T13:30:33Z</time>
      </trkpt>
      <trkpt lat="46.201" lon="6.4455">
        <ele>1101</ele>
        <time>2012-05-10T13:30:35Z</time>
      </trkpt>
      <trkpt lat="46.20092" lon="6.44541">
        <ele>1101</ele>
        <time>2012-05-10T13:30:38Z</time>
      </trkpt>
      <trkpt lat="46.20084" lon="6.44529">
        <ele>1101</ele>
        <time>2012-05-10T13:30:41Z</time>
      </trkpt>
      <trkpt lat="46.20072" lon="6.44518">
        <ele>1095</ele>
        <time>2012-05-10T13:30:43Z</time>
      </trkpt>
      <trkpt lat="46.20059" lon="6.44508">
        <ele>1095</ele>
        <time>2012-05-10T13:30:45Z</time>
      </trkpt>
      <trkpt lat="46.20047" lon="6.44496">
        <ele>1095</ele>
        <time>2012-05-10T13:30:47Z</time>
      </trkpt>
      <trkpt lat="46.20036" lon="6.44487">
        <ele>1090</ele>
        <time>2012-05-10T13:30:49Z</time>
      </trkpt>
      <trkpt lat="46.20027" lon="6.44477">
        <ele>1090</ele>
        <time>2012-05-10T13:30:51Z</time>
      </trkpt>
      <trkpt lat="46.20026" lon="6.4446">
        <ele>1090</ele>
        <time>2012-05-10T13:31:11Z</time>
      </trkpt>
      <trkpt lat="46.20022" lon="6.44447">
        <ele>1090</ele>
        <time>2012-05-10T13:31:13Z</time>
      </trkpt>
      <trkpt lat="46.20013" lon="6.44434">
        <ele>1090</ele>
        <time>2012-05-10T13:31:15Z</time>
      </trkpt>
      <trkpt lat="46.20006" lon="6.4442">
        <ele>1090</ele>
        <time>2012-05-10T13:31:17Z</time>
      </trkpt>
      <trkpt lat="46.19999" lon="6.44404">
        <ele>1090</ele>
        <time>2012-05-10T13:31:19Z</time>
      </trkpt>
      <trkpt lat="46.1999" lon="6.44386">
        <ele>1090</ele>
        <time>2012-05-10T13:31:21Z</time>
      </trkpt>
      <trkpt lat="46.19979" lon="6.44367">
        <ele>1084</ele>
        <time>2012-05-10T13:31:23Z</time>
      </trkpt>
      <trkpt lat="46.19967" lon="6.44348">
        <ele>1084</ele>
        <time>2012-05-10T13:31:25Z</time>
      </trkpt>
      <trkpt lat="46.19957" lon="6.44326">
        <ele>1084</ele>
        <time>2012-05-10T13:31:27Z</time>
      </trkpt>
      <trkpt lat="46.19953" lon="6.44314">
        <ele>1079</ele>
        <time>2012-05-10T13:31:28Z</time>
      </trkpt>
      <trkpt lat="46.19948" lon="6.44301">
        <ele>1079</ele>
        <time>2012-05-10T13:31:29Z</time>
      </trkpt>
      <trkpt lat="46.19939" lon="6.4428">
        <ele>1079</ele>
        <time>2012-05-10T13:31:31Z</time>
      </trkpt>
      <trkpt lat="46.19932" lon="6.4426">
        <ele>1079</ele>
        <time>2012-05-10T13:31:33Z</time>
      </trkpt>
      <trkpt lat="46.19926" lon="6.4424">
        <ele>1073</ele>
        <time>2012-05-10T13:31:35Z</time>
      </trkpt>
      <trkpt lat="46.19921" lon="6.44227">
        <ele>1073</ele>
        <time>2012-05-10T13:31:37Z</time>
      </trkpt>
      <trkpt lat="46.19916" lon="6.44212">
        <ele>1073</ele>
        <time>2012-05-10T13:31:40Z</time>
      </trkpt>
      <trkpt lat="46.19906" lon="6.44201">
        <ele>1073</ele>
        <time>2012-05-10T13:31:47Z</time>
      </trkpt>
      <trkpt lat="46.19895" lon="6.44186">
        <ele>1073</ele>
        <time>2012-05-10T13:31:49Z</time>
      </trkpt>
      <trkpt lat="46.19886" lon="6.44172">
        <ele>1073</ele>
        <time>2012-05-10T13:31:51Z</time>
      </trkpt>
      <trkpt lat="46.19877" lon="6.44162">
        <ele>1067</ele>
        <time>2012-05-10T13:31:53Z</time>
      </trkpt>
      <trkpt lat="46.19868" lon="6.44153">
        <ele>1067</ele>
        <time>2012-05-10T13:31:55Z</time>
      </trkpt>
      <trkpt lat="46.19858" lon="6.44147">
        <ele>1067</ele>
        <time>2012-05-10T13:31:57Z</time>
      </trkpt>
      <trkpt lat="46.19848" lon="6.44142">
        <ele>1067</ele>
        <time>2012-05-10T13:31:59Z</time>
      </trkpt>
      <trkpt lat="46.1986" lon="6.44134">
        <ele>1061</ele>
        <time>2012-05-10T13:32:07Z</time>
      </trkpt>
      <trkpt lat="46.1987" lon="6.44134">
        <ele>1061</ele>
        <time>2012-05-10T13:32:11Z</time>
      </trkpt>
      <trkpt lat="46.19879" lon="6.44134">
        <ele>1069</ele>
        <time>2012-05-10T13:32:23Z</time>
      </trkpt>
      <trkpt lat="46.19878" lon="6.44119">
        <ele>1069</ele>
        <time>2012-05-10T13:32:35Z</time>
      </trkpt>
      <trkpt lat="46.19872" lon="6.44106">
        <ele>1069</ele>
        <time>2012-05-10T13:32:38Z</time>
      </trkpt>
      <trkpt lat="46.19865" lon="6.44095">
        <ele>1061</ele>
        <time>2012-05-10T13:32:41Z</time>
      </trkpt>
      <trkpt lat="46.19857" lon="6.44079">
        <ele>1061</ele>
        <time>2012-05-10T13:32:44Z</time>
      </trkpt>
      <trkpt lat="46.1985" lon="6.44064">
        <ele>1061</ele>
        <time>2012-05-10T13:32:46Z</time>
      </trkpt>
      <trkpt lat="46.19843" lon="6.44042">
        <ele>1055</ele>
        <time>2012-05-10T13:32:48Z</time>
      </trkpt>
      <trkpt lat="46.19835" lon="6.44022">
        <ele>1050</ele>
        <time>2012-05-10T13:32:50Z</time>
      </trkpt>
      <trkpt lat="46.1983" lon="6.4401">
        <ele>1050</ele>
        <time>2012-05-10T13:32:51Z</time>
      </trkpt>
      <trkpt lat="46.19822" lon="6.43988">
        <ele>1050</ele>
        <time>2012-05-10T13:32:53Z</time>
      </trkpt>
      <trkpt lat="46.19818" lon="6.43973">
        <ele>1044</ele>
        <time>2012-05-10T13:32:55Z</time>
      </trkpt>
      <trkpt lat="46.19813" lon="6.43956">
        <ele>1039</ele>
        <time>2012-05-10T13:32:57Z</time>
      </trkpt>
      <trkpt lat="46.19809" lon="6.43937">
        <ele>1031</ele>
        <time>2012-05-10T13:32:59Z</time>
      </trkpt>
      <trkpt lat="46.19806" lon="6.4392">
        <ele>1024</ele>
        <time>2012-05-10T13:33:01Z</time>
      </trkpt>
      <trkpt lat="46.19802" lon="6.43902">
        <ele>1017</ele>
        <time>2012-05-10T13:33:03Z</time>
      </trkpt>
      <trkpt lat="46.19797" lon="6.43885">
        <ele>1017</ele>
        <time>2012-05-10T13:33:05Z</time>
      </trkpt>
      <trkpt lat="46.19792" lon="6.43874">
        <ele>1009</ele>
        <time>2012-05-10T13:33:07Z</time>
      </trkpt>
      <trkpt lat="46.19787" lon="6.43859">
        <ele>1009</ele>
        <time>2012-05-10T13:33:10Z</time>
      </trkpt>
      <trkpt lat="46.19784" lon="6.43846">
        <ele>1004</ele>
        <time>2012-05-10T13:33:13Z</time>
      </trkpt>
      <trkpt lat="46.19779" lon="6.4383">
        <ele>998</ele>
        <time>2012-05-10T13:33:16Z</time>
      </trkpt>
      <trkpt lat="46.19775" lon="6.43816">
        <ele>998</ele>
        <time>2012-05-10T13:33:18Z</time>
      </trkpt>
      <trkpt lat="46.19772" lon="6.43803">
        <ele>998</ele>
        <time>2012-05-10T13:33:21Z</time>
      </trkpt>
      <trkpt lat="46.19771" lon="6.43788">
        <ele>998</ele>
        <time>2012-05-10T13:33:32Z</time>
      </trkpt>
      <trkpt lat="46.19769" lon="6.43764">
        <ele>998</ele>
        <time>2012-05-10T13:33:34Z</time>
      </trkpt>
      <trkpt lat="46.19768" lon="6.4375">
        <ele>998</ele>
        <time>2012-05-10T13:33:35Z</time>
      </trkpt>
      <trkpt lat="46.19769" lon="6.43734">
        <ele>998</ele>
        <time>2012-05-10T13:33:36Z</time>
      </trkpt>
      <trkpt lat="46.1977" lon="6.43717">
        <ele>998</ele>
        <time>2012-05-10T13:33:37Z</time>
      </trkpt>
      <trkpt lat="46.19772" lon="6.43699">
        <ele>998</ele>
        <time>2012-05-10T13:33:38Z</time>
      </trkpt>
      <trkpt lat="46.19774" lon="6.43681">
        <ele>998</ele>
        <time>2012-05-10T13:33:39Z</time>
      </trkpt>
      <trkpt lat="46.19777" lon="6.43665">
        <ele>993</ele>
        <time>2012-05-10T13:33:40Z</time>
      </trkpt>
      <trkpt lat="46.1978" lon="6.43649">
        <ele>993</ele>
        <time>2012-05-10T13:33:41Z</time>
      </trkpt>
      <trkpt lat="46.19782" lon="6.43634">
        <ele>993</ele>
        <time>2012-05-10T13:33:42Z</time>
      </trkpt>
      <trkpt lat="46.19784" lon="6.43619">
        <ele>993</ele>
        <time>2012-05-10T13:33:43Z</time>
      </trkpt>
      <trkpt lat="46.19785" lon="6.43604">
        <ele>993</ele>
        <time>2012-05-10T13:33:44Z</time>
      </trkpt>
      <trkpt lat="46.19785" lon="6.43589">
        <ele>993</ele>
        <time>2012-05-10T13:33:45Z</time>
      </trkpt>
      <trkpt lat="46.19782" lon="6.43576">
        <ele>993</ele>
        <time>2012-05-10T13:33:46Z</time>
      </trkpt>
      <trkpt lat="46.19777" lon="6.43554">
        <ele>988</ele>
        <time>2012-05-10T13:33:48Z</time>
      </trkpt>
      <trkpt lat="46.19773" lon="6.43541">
        <ele>988</ele>
        <time>2012-05-10T13:33:50Z</time>
      </trkpt>
      <trkpt lat="46.19767" lon="6.43531">
        <ele>988</ele>
        <time>2012-05-10T13:33:53Z</time>
      </trkpt>
      <trkpt lat="46.19757" lon="6.43527">
        <ele>988</ele>
        <time>2012-05-10T13:33:56Z</time>
      </trkpt>
      <trkpt lat="46.19748" lon="6.43523">
        <ele>988</ele>
        <time>2012-05-10T13:33:58Z</time>
      </trkpt>
      <trkpt lat="46.19741" lon="6.43511">
        <ele>988</ele>
        <time>2012-05-10T13:34:01Z</time>
      </trkpt>
      <trkpt lat="46.19745" lon="6.43497">
        <ele>988</ele>
        <time>2012-05-10T13:34:03Z</time>
      </trkpt>
      <trkpt lat="46.19753" lon="6.43481">
        <ele>988</ele>
        <time>2012-05-10T13:34:05Z</time>
      </trkpt>
      <trkpt lat="46.1976" lon="6.43464">
        <ele>988</ele>
        <time>2012-05-10T13:34:07Z</time>
      </trkpt>
      <trkpt lat="46.19767" lon="6.43446">
        <ele>988</ele>
        <time>2012-05-10T13:34:09Z</time>
      </trkpt>
      <trkpt lat="46.19767" lon="6.43426">
        <ele>988</ele>
        <time>2012-05-10T13:34:11Z</time>
      </trkpt>
      <trkpt lat="46.19763" lon="6.43407">
        <ele>988</ele>
        <time>2012-05-10T13:34:13Z</time>
      </trkpt>
      <trkpt lat="46.19761" lon="6.43393">
        <ele>988</ele>
        <time>2012-05-10T13:34:15Z</time>
      </trkpt>
      <trkpt lat="46.19767" lon="6.43376">
        <ele>988</ele>
        <time>2012-05-10T13:34:18Z</time>
      </trkpt>
      <trkpt lat="46.19777" lon="6.43369">
        <ele>988</ele>
        <time>2012-05-10T13:34:20Z</time>
      </trkpt>
      <trkpt lat="46.19792" lon="6.43361">
        <ele>988</ele>
        <time>2012-05-10T13:34:22Z</time>
      </trkpt>
      <trkpt lat="46.198" lon="6.43355">
        <ele>988</ele>
        <time>2012-05-10T13:34:23Z</time>
      </trkpt>
      <trkpt lat="46.19808" lon="6.43347">
        <ele>988</ele>
        <time>2012-05-10T13:34:24Z</time>
      </trkpt>
      <trkpt lat="46.19817" lon="6.43339">
        <ele>988</ele>
        <time>2012-05-10T13:34:25Z</time>
      </trkpt>
      <trkpt lat="46.19825" lon="6.43329">
        <ele>988</ele>
        <time>2012-05-10T13:34:26Z</time>
      </trkpt>
      <trkpt lat="46.19837" lon="6.43311">
        <ele>988</ele>
        <time>2012-05-10T13:34:28Z</time>
      </trkpt>
      <trkpt lat="46.19844" lon="6.43289">
        <ele>988</ele>
        <time>2012-05-10T13:34:30Z</time>
      </trkpt>
      <trkpt lat="46.19857" lon="6.43271">
        <ele>988</ele>
        <time>2012-05-10T13:34:32Z</time>
      </trkpt>
      <trkpt lat="46.19866" lon="6.43261">
        <ele>988</ele>
        <time>2012-05-10T13:34:33Z</time>
      </trkpt>
      <trkpt lat="46.19876" lon="6.4325">
        <ele>988</ele>
        <time>2012-05-10T13:34:34Z</time>
      </trkpt>
      <trkpt lat="46.19886" lon="6.43239">
        <ele>988</ele>
        <time>2012-05-10T13:34:35Z</time>
      </trkpt>
      <trkpt lat="46.19896" lon="6.43228">
        <ele>988</ele>
        <time>2012-05-10T13:34:36Z</time>
      </trkpt>
      <trkpt lat="46.19907" lon="6.43219">
        <ele>988</ele>
        <time>2012-05-10T13:34:37Z</time>
      </trkpt>
      <trkpt lat="46.19919" lon="6.43213">
        <ele>988</ele>
        <time>2012-05-10T13:34:38Z</time>
      </trkpt>
      <trkpt lat="46.19931" lon="6.43206">
        <ele>988</ele>
        <time>2012-05-10T13:34:39Z</time>
      </trkpt>
      <trkpt lat="46.19944" lon="6.43199">
        <ele>988</ele>
        <time>2012-05-10T13:34:40Z</time>
      </trkpt>
      <trkpt lat="46.19959" lon="6.43192">
        <ele>988</ele>
        <time>2012-05-10T13:34:41Z</time>
      </trkpt>
      <trkpt lat="46.19974" lon="6.43186">
        <ele>988</ele>
        <time>2012-05-10T13:34:42Z</time>
      </trkpt>
      <trkpt lat="46.19988" lon="6.43179">
        <ele>988</ele>
        <time>2012-05-10T13:34:43Z</time>
      </trkpt>
      <trkpt lat="46.20001" lon="6.43174">
        <ele>988</ele>
        <time>2012-05-10T13:34:44Z</time>
      </trkpt>
      <trkpt lat="46.20011" lon="6.43168">
        <ele>988</ele>
        <time>2012-05-10T13:34:45Z</time>
      </trkpt>
      <trkpt lat="46.20021" lon="6.43161">
        <ele>993</ele>
        <time>2012-05-10T13:34:46Z</time>
      </trkpt>
      <trkpt lat="46.2003" lon="6.43152">
        <ele>993</ele>
        <time>2012-05-10T13:34:47Z</time>
      </trkpt>
      <trkpt lat="46.20039" lon="6.43142">
        <ele>993</ele>
        <time>2012-05-10T13:34:48Z</time>
      </trkpt>
      <trkpt lat="46.20048" lon="6.43133">
        <ele>993</ele>
        <time>2012-05-10T13:34:49Z</time>
      </trkpt>
      <trkpt lat="46.20056" lon="6.43124">
        <ele>993</ele>
        <time>2012-05-10T13:34:50Z</time>
      </trkpt>
      <trkpt lat="46.20068" lon="6.43107">
        <ele>993</ele>
        <time>2012-05-10T13:34:52Z</time>
      </trkpt>
      <trkpt lat="46.20072" lon="6.4309">
        <ele>993</ele>
        <time>2012-05-10T13:34:54Z</time>
      </trkpt>
      <trkpt lat="46.20066" lon="6.43071">
        <ele>993</ele>
        <time>2012-05-10T13:34:56Z</time>
      </trkpt>
      <trkpt lat="46.20057" lon="6.4305">
        <ele>993</ele>
        <time>2012-05-10T13:34:58Z</time>
      </trkpt>
      <trkpt lat="46.20049" lon="6.43029">
        <ele>993</ele>
        <time>2012-05-10T13:35:00Z</time>
      </trkpt>
      <trkpt lat="46.20041" lon="6.43011">
        <ele>988</ele>
        <time>2012-05-10T13:35:02Z</time>
      </trkpt>
      <trkpt lat="46.20029" lon="6.42997">
        <ele>988</ele>
        <time>2012-05-10T13:35:04Z</time>
      </trkpt>
      <trkpt lat="46.2002" lon="6.4299">
        <ele>988</ele>
        <time>2012-05-10T13:35:05Z</time>
      </trkpt>
      <trkpt lat="46.2001" lon="6.42982">
        <ele>988</ele>
        <time>2012-05-10T13:35:06Z</time>
      </trkpt>
      <trkpt lat="46.19999" lon="6.42974">
        <ele>988</ele>
        <time>2012-05-10T13:35:07Z</time>
      </trkpt>
      <trkpt lat="46.19989" lon="6.42965">
        <ele>983</ele>
        <time>2012-05-10T13:35:08Z</time>
      </trkpt>
      <trkpt lat="46.19979" lon="6.42957">
        <ele>983</ele>
        <time>2012-05-10T13:35:09Z</time>
      </trkpt>
      <trkpt lat="46.19971" lon="6.42949">
        <ele>983</ele>
        <time>2012-05-10T13:35:10Z</time>
      </trkpt>
      <trkpt lat="46.19962" lon="6.4294">
        <ele>983</ele>
        <time>2012-05-10T13:35:11Z</time>
      </trkpt>
      <trkpt lat="46.19953" lon="6.42932">
        <ele>983</ele>
        <time>2012-05-10T13:35:12Z</time>
      </trkpt>
      <trkpt lat="46.19944" lon="6.42925">
        <ele>983</ele>
        <time>2012-05-10T13:35:13Z</time>
      </trkpt>
      <trkpt lat="46.19934" lon="6.42918">
        <ele>983</ele>
        <time>2012-05-10T13:35:14Z</time>
      </trkpt>
      <trkpt lat="46.19925" lon="6.42911">
        <ele>977</ele>
        <time>2012-05-10T13:35:15Z</time>
      </trkpt>
      <trkpt lat="46.19915" lon="6.42903">
        <ele>977</ele>
        <time>2012-05-10T13:35:16Z</time>
      </trkpt>
      <trkpt lat="46.19905" lon="6.42896">
        <ele>977</ele>
        <time>2012-05-10T13:35:17Z</time>
      </trkpt>
      <trkpt lat="46.19895" lon="6.42888">
        <ele>977</ele>
        <time>2012-05-10T13:35:18Z</time>
      </trkpt>
      <trkpt lat="46.19885" lon="6.42882">
        <ele>977</ele>
        <time>2012-05-10T13:35:19Z</time>
      </trkpt>
      <trkpt lat="46.19876" lon="6.42876">
        <ele>977</ele>
        <time>2012-05-10T13:35:20Z</time>
      </trkpt>
      <trkpt lat="46.19867" lon="6.4287">
        <ele>977</ele>
        <time>2012-05-10T13:35:21Z</time>
      </trkpt>
      <trkpt lat="46.19854" lon="6.42862">
        <ele>977</ele>
        <time>2012-05-10T13:35:23Z</time>
      </trkpt>
      <trkpt lat="46.19843" lon="6.42856">
        <ele>971</ele>
        <time>2012-05-10T13:35:25Z</time>
      </trkpt>
      <trkpt lat="46.19833" lon="6.42844">
        <ele>971</ele>
        <time>2012-05-10T13:35:28Z</time>
      </trkpt>
      <trkpt lat="46.19826" lon="6.42828">
        <ele>971</ele>
        <time>2012-05-10T13:35:31Z</time>
      </trkpt>
      <trkpt lat="46.1982" lon="6.42814">
        <ele>971</ele>
        <time>2012-05-10T13:35:34Z</time>
      </trkpt>
      <trkpt lat="46.19815" lon="6.42801">
        <ele>971</ele>
        <time>2012-05-10T13:35:59Z</time>
      </trkpt>
      <trkpt lat="46.19806" lon="6.42802">
        <ele>971</ele>
        <time>2012-05-10T13:36:01Z</time>
      </trkpt>
      <trkpt lat="46.19796" lon="6.42804">
        <ele>971</ele>
        <time>2012-05-10T13:36:03Z</time>
      </trkpt>
      <trkpt lat="46.19787" lon="6.42804">
        <ele>971</ele>
        <time>2012-05-10T13:36:06Z</time>
      </trkpt>
      <trkpt lat="46.19775" lon="6.42791">
        <ele>971</ele>
        <time>2012-05-10T13:36:17Z</time>
      </trkpt>
      <trkpt lat="46.19764" lon="6.42774">
        <ele>971</ele>
        <time>2012-05-10T13:36:19Z</time>
      </trkpt>
      <trkpt lat="46.19757" lon="6.42756">
        <ele>971</ele>
        <time>2012-05-10T13:36:21Z</time>
      </trkpt>
      <trkpt lat="46.19752" lon="6.42741">
        <ele>971</ele>
        <time>2012-05-10T13:36:23Z</time>
      </trkpt>
      <trkpt lat="46.19749" lon="6.42728">
        <ele>971</ele>
        <time>2012-05-10T13:36:25Z</time>
      </trkpt>
      <trkpt lat="46.19743" lon="6.42712">
        <ele>971</ele>
        <time>2012-05-10T13:36:27Z</time>
      </trkpt>
      <trkpt lat="46.19734" lon="6.42695">
        <ele>971</ele>
        <time>2012-05-10T13:36:29Z</time>
      </trkpt>
      <trkpt lat="46.19725" lon="6.42679">
        <ele>971</ele>
        <time>2012-05-10T13:36:31Z</time>
      </trkpt>
      <trkpt lat="46.19716" lon="6.42666">
        <ele>971</ele>
        <time>2012-05-10T13:36:33Z</time>
      </trkpt>
      <trkpt lat="46.19711" lon="6.42653">
        <ele>971</ele>
        <time>2012-05-10T13:36:35Z</time>
      </trkpt>
      <trkpt lat="46.19705" lon="6.4264">
        <ele>971</ele>
        <time>2012-05-10T13:36:37Z</time>
      </trkpt>
      <trkpt lat="46.19698" lon="6.42631">
        <ele>971</ele>
        <time>2012-05-10T13:36:39Z</time>
      </trkpt>
      <trkpt lat="46.19682" lon="6.42622">
        <ele>971</ele>
        <time>2012-05-10T13:36:41Z</time>
      </trkpt>
      <trkpt lat="46.19673" lon="6.42616">
        <ele>971</ele>
        <time>2012-05-10T13:36:42Z</time>
      </trkpt>
      <trkpt lat="46.19663" lon="6.42611">
        <ele>971</ele>
        <time>2012-05-10T13:36:43Z</time>
      </trkpt>
      <trkpt lat="46.19651" lon="6.42605">
        <ele>971</ele>
        <time>2012-05-10T13:36:44Z</time>
      </trkpt>
      <trkpt lat="46.19638" lon="6.42597">
        <ele>977</ele>
        <time>2012-05-10T13:36:45Z</time>
      </trkpt>
      <trkpt lat="46.19626" lon="6.4259">
        <ele>977</ele>
        <time>2012-05-10T13:36:46Z</time>
      </trkpt>
      <trkpt lat="46.19614" lon="6.42582">
        <ele>977</ele>
        <time>2012-05-10T13:36:47Z</time>
      </trkpt>
      <trkpt lat="46.19603" lon="6.42573">
        <ele>977</ele>
        <time>2012-05-10T13:36:48Z</time>
      </trkpt>
      <trkpt lat="46.19591" lon="6.42566">
        <ele>977</ele>
        <time>2012-05-10T13:36:49Z</time>
      </trkpt>
      <trkpt lat="46.19583" lon="6.42558">
        <ele>982</ele>
        <time>2012-05-10T13:36:50Z</time>
      </trkpt>
      <trkpt lat="46.19574" lon="6.4255">
        <ele>982</ele>
        <time>2012-05-10T13:36:51Z</time>
      </trkpt>
      <trkpt lat="46.19562" lon="6.42534">
        <ele>982</ele>
        <time>2012-05-10T13:36:53Z</time>
      </trkpt>
      <trkpt lat="46.19554" lon="6.42517">
        <ele>982</ele>
        <time>2012-05-10T13:36:55Z</time>
      </trkpt>
      <trkpt lat="46.19551" lon="6.42496">
        <ele>982</ele>
        <time>2012-05-10T13:36:57Z</time>
      </trkpt>
      <trkpt lat="46.19551" lon="6.42481">
        <ele>989</ele>
        <time>2012-05-10T13:36:58Z</time>
      </trkpt>
      <trkpt lat="46.19552" lon="6.42465">
        <ele>989</ele>
        <time>2012-05-10T13:36:59Z</time>
      </trkpt>
      <trkpt lat="46.19552" lon="6.4245">
        <ele>989</ele>
        <time>2012-05-10T13:37:00Z</time>
      </trkpt>
      <trkpt lat="46.19551" lon="6.42435">
        <ele>994</ele>
        <time>2012-05-10T13:37:01Z</time>
      </trkpt>
      <trkpt lat="46.19551" lon="6.4242">
        <ele>994</ele>
        <time>2012-05-10T13:37:02Z</time>
      </trkpt>
      <trkpt lat="46.1955" lon="6.42406">
        <ele>994</ele>
        <time>2012-05-10T13:37:03Z</time>
      </trkpt>
      <trkpt lat="46.19548" lon="6.42392">
        <ele>994</ele>
        <time>2012-05-10T13:37:04Z</time>
      </trkpt>
      <trkpt lat="46.19543" lon="6.42368">
        <ele>1000</ele>
        <time>2012-05-10T13:37:06Z</time>
      </trkpt>
      <trkpt lat="46.19539" lon="6.42348">
        <ele>1000</ele>
        <time>2012-05-10T13:37:08Z</time>
      </trkpt>
      <trkpt lat="46.19537" lon="6.42328">
        <ele>1007</ele>
        <time>2012-05-10T13:37:10Z</time>
      </trkpt>
      <trkpt lat="46.19533" lon="6.42305">
        <ele>1007</ele>
        <time>2012-05-10T13:37:12Z</time>
      </trkpt>
      <trkpt lat="46.1953" lon="6.42293">
        <ele>1007</ele>
        <time>2012-05-10T13:37:13Z</time>
      </trkpt>
      <trkpt lat="46.19526" lon="6.42271">
        <ele>1007</ele>
        <time>2012-05-10T13:37:15Z</time>
      </trkpt>
      <trkpt lat="46.19523" lon="6.42248">
        <ele>1007</ele>
        <time>2012-05-10T13:37:17Z</time>
      </trkpt>
      <trkpt lat="46.19522" lon="6.42223">
        <ele>1007</ele>
        <time>2012-05-10T13:37:19Z</time>
      </trkpt>
      <trkpt lat="46.19523" lon="6.42208">
        <ele>1007</ele>
        <time>2012-05-10T13:37:20Z</time>
      </trkpt>
      <trkpt lat="46.19525" lon="6.42185">
        <ele>1007</ele>
        <time>2012-05-10T13:37:22Z</time>
      </trkpt>
      <trkpt lat="46.19528" lon="6.42161">
        <ele>1007</ele>
        <time>2012-05-10T13:37:24Z</time>
      </trkpt>
      <trkpt lat="46.19533" lon="6.42136">
        <ele>1007</ele>
        <time>2012-05-10T13:37:26Z</time>
      </trkpt>
      <trkpt lat="46.19536" lon="6.42122">
        <ele>1007</ele>
        <time>2012-05-10T13:37:27Z</time>
      </trkpt>
      <trkpt lat="46.1954" lon="6.4211">
        <ele>1007</ele>
        <time>2012-05-10T13:37:28Z</time>
      </trkpt>
      <trkpt lat="46.19548" lon="6.42086">
        <ele>1007</ele>
        <time>2012-05-10T13:37:30Z</time>
      </trkpt>
      <trkpt lat="46.19555" lon="6.42065">
        <ele>1007</ele>
        <time>2012-05-10T13:37:32Z</time>
      </trkpt>
      <trkpt lat="46.19561" lon="6.42042">
        <ele>1007</ele>
        <time>2012-05-10T13:37:34Z</time>
      </trkpt>
      <trkpt lat="46.19562" lon="6.4202">
        <ele>1007</ele>
        <time>2012-05-10T13:37:36Z</time>
      </trkpt>
      <trkpt lat="46.19559" lon="6.42001">
        <ele>1007</ele>
        <time>2012-05-10T13:37:38Z</time>
      </trkpt>
      <trkpt lat="46.19553" lon="6.41986">
        <ele>1007</ele>
        <time>2012-05-10T13:37:41Z</time>
      </trkpt>
      <trkpt lat="46.19541" lon="6.41979">
        <ele>1007</ele>
        <time>2012-05-10T13:37:53Z</time>
      </trkpt>
      <trkpt lat="46.19528" lon="6.4197">
        <ele>1007</ele>
        <time>2012-05-10T13:37:55Z</time>
      </trkpt>
      <trkpt lat="46.19517" lon="6.41962">
        <ele>1007</ele>
        <time>2012-05-10T13:37:57Z</time>
      </trkpt>
      <trkpt lat="46.19508" lon="6.41954">
        <ele>1007</ele>
        <time>2012-05-10T13:38:00Z</time>
      </trkpt>
      <trkpt lat="46.19511" lon="6.4194">
        <ele>1007</ele>
        <time>2012-05-10T13:38:07Z</time>
      </trkpt>
      <trkpt lat="46.19513" lon="6.41927">
        <ele>1007</ele>
        <time>2012-05-10T13:38:09Z</time>
      </trkpt>
      <trkpt lat="46.19508" lon="6.41912">
        <ele>1007</ele>
        <time>2012-05-10T13:38:11Z</time>
      </trkpt>
      <trkpt lat="46.19497" lon="6.41896">
        <ele>1007</ele>
        <time>2012-05-10T13:38:13Z</time>
      </trkpt>
      <trkpt lat="46.19489" lon="6.41883">
        <ele>1007</ele>
        <time>2012-05-10T13:38:15Z</time>
      </trkpt>
      <trkpt lat="46.19482" lon="6.41872">
        <ele>1007</ele>
        <time>2012-05-10T13:38:17Z</time>
      </trkpt>
      <trkpt lat="46.19473" lon="6.4186">
        <ele>1007</ele>
        <time>2012-05-10T13:38:19Z</time>
      </trkpt>
      <trkpt lat="46.19465" lon="6.41851">
        <ele>1007</ele>
        <time>2012-05-10T13:38:21Z</time>
      </trkpt>
      <trkpt lat="46.19457" lon="6.41841">
        <ele>1007</ele>
        <time>2012-05-10T13:38:23Z</time>
      </trkpt>
      <trkpt lat="46.19447" lon="6.41836">
        <ele>1007</ele>
        <time>2012-05-10T13:38:26Z</time>
      </trkpt>
      <trkpt lat="46.19435" lon="6.41838">
        <ele>1007</ele>
        <time>2012-05-10T13:38:30Z</time>
      </trkpt>
      <trkpt lat="46.19425" lon="6.41835">
        <ele>1007</ele>
        <time>2012-05-10T13:38:33Z</time>
      </trkpt>
      <trkpt lat="46.19417" lon="6.41828">
        <ele>1007</ele>
        <time>2012-05-10T13:38:36Z</time>
      </trkpt>
      <trkpt lat="46.19405" lon="6.41819">
        <ele>1007</ele>
        <time>2012-05-10T13:38:39Z</time>
      </trkpt>
      <trkpt lat="46.19396" lon="6.41809">
        <ele>1007</ele>
        <time>2012-05-10T13:38:41Z</time>
      </trkpt>
      <trkpt lat="46.19387" lon="6.41798">
        <ele>1007</ele>
        <time>2012-05-10T13:38:43Z</time>
      </trkpt>
      <trkpt lat="46.19377" lon="6.41788">
        <ele>1007</ele>
        <time>2012-05-10T13:38:45Z</time>
      </trkpt>
      <trkpt lat="46.19362" lon="6.41776">
        <ele>1007</ele>
        <time>2012-05-10T13:38:47Z</time>
      </trkpt>
      <trkpt lat="46.19346" lon="6.41765">
        <ele>1001</ele>
        <time>2012-05-10T13:38:49Z</time>
      </trkpt>
      <trkpt lat="46.19329" lon="6.41757">
        <ele>1001</ele>
        <time>2012-05-10T13:38:51Z</time>
      </trkpt>
      <trkpt lat="46.19315" lon="6.41749">
        <ele>1001</ele>
        <time>2012-05-10T13:38:53Z</time>
      </trkpt>
      <trkpt lat="46.19303" lon="6.41741">
        <ele>1001</ele>
        <time>2012-05-10T13:38:55Z</time>
      </trkpt>
      <trkpt lat="46.19291" lon="6.41733">
        <ele>1001</ele>
        <time>2012-05-10T13:38:57Z</time>
      </trkpt>
      <trkpt lat="46.19278" lon="6.41724">
        <ele>1001</ele>
        <time>2012-05-10T13:38:59Z</time>
      </trkpt>
      <trkpt lat="46.19267" lon="6.41717">
        <ele>1001</ele>
        <time>2012-05-10T13:39:01Z</time>
      </trkpt>
      <trkpt lat="46.19258" lon="6.41711">
        <ele>1001</ele>
        <time>2012-05-10T13:39:03Z</time>
      </trkpt>
      <trkpt lat="46.19248" lon="6.41716">
        <ele>1001</ele>
        <time>2012-05-10T13:39:18Z</time>
      </trkpt>
      <trkpt lat="46.19246" lon="6.41703">
        <ele>1001</ele>
        <time>2012-05-10T13:39:25Z</time>
      </trkpt>
      <trkpt lat="46.19236" lon="6.41695">
        <ele>1001</ele>
        <time>2012-05-10T13:39:31Z</time>
      </trkpt>
      <trkpt lat="46.19223" lon="6.41689">
        <ele>1001</ele>
        <time>2012-05-10T13:39:34Z</time>
      </trkpt>
      <trkpt lat="46.19213" lon="6.41683">
        <ele>1001</ele>
        <time>2012-05-10T13:39:36Z</time>
      </trkpt>
      <trkpt lat="46.19204" lon="6.41677">
        <ele>1001</ele>
        <time>2012-05-10T13:39:39Z</time>
      </trkpt>
      <trkpt lat="46.192" lon="6.41663">
        <ele>1001</ele>
        <time>2012-05-10T13:39:47Z</time>
      </trkpt>
      <trkpt lat="46.19191" lon="6.4166">
        <ele>1001</ele>
        <time>2012-05-10T13:39:56Z</time>
      </trkpt>
      <trkpt lat="46.1918" lon="6.41658">
        <ele>1001</ele>
        <time>2012-05-10T13:40:10Z</time>
      </trkpt>
      <trkpt lat="46.1919" lon="6.41656">
        <ele>1001</ele>
        <time>2012-05-10T13:40:51Z</time>
      </trkpt>
      <trkpt lat="46.19194" lon="6.41643">
        <ele>1001</ele>
        <time>2012-05-10T13:41:01Z</time>
      </trkpt>
      <trkpt lat="46.19192" lon="6.41629">
        <ele>1001</ele>
        <time>2012-05-10T13:41:06Z</time>
      </trkpt>
      <trkpt lat="46.19189" lon="6.41614">
        <ele>1011</ele>
        <time>2012-05-10T13:41:16Z</time>
      </trkpt>
      <trkpt lat="46.19198" lon="6.41606">
        <ele>1011</ele>
        <time>2012-05-10T13:41:28Z</time>
      </trkpt>
      <trkpt lat="46.19206" lon="6.41599">
        <ele>1001</ele>
        <time>2012-05-10T13:41:36Z</time>
      </trkpt>
      <trkpt lat="46.19212" lon="6.41589">
        <ele>1001</ele>
        <time>2012-05-10T13:41:44Z</time>
      </trkpt>
      <trkpt lat="46.1921" lon="6.41576">
        <ele>1001</ele>
        <time>2012-05-10T13:41:53Z</time>
      </trkpt>
      <trkpt lat="46.19205" lon="6.41563">
        <ele>1001</ele>
        <time>2012-05-10T13:42:01Z</time>
      </trkpt>
      <trkpt lat="46.19195" lon="6.41565">
        <ele>1001</ele>
        <time>2012-05-10T13:42:12Z</time>
      </trkpt>
      <trkpt lat="46.19185" lon="6.41565">
        <ele>1001</ele>
        <time>2012-05-10T13:42:16Z</time>
      </trkpt>
      <trkpt lat="46.19173" lon="6.41561">
        <ele>1001</ele>
        <time>2012-05-10T13:42:20Z</time>
      </trkpt>
      <trkpt lat="46.19162" lon="6.41551">
        <ele>1001</ele>
        <time>2012-05-10T13:42:23Z</time>
      </trkpt>
      <trkpt lat="46.19152" lon="6.41546">
        <ele>1001</ele>
        <time>2012-05-10T13:42:26Z</time>
      </trkpt>
      <trkpt lat="46.19144" lon="6.4154">
        <ele>1001</ele>
        <time>2012-05-10T13:42:34Z</time>
      </trkpt>
      <trkpt lat="46.19134" lon="6.41541">
        <ele>1001</ele>
        <time>2012-05-10T13:42:39Z</time>
      </trkpt>
      <trkpt lat="46.1913" lon="6.41527">
        <ele>1001</ele>
        <time>2012-05-10T13:42:44Z</time>
      </trkpt>
      <trkpt lat="46.1913" lon="6.41513">
        <ele>1001</ele>
        <time>2012-05-10T13:42:51Z</time>
      </trkpt>
      <trkpt lat="46.19131" lon="6.41498">
        <ele>1001</ele>
        <time>2012-05-10T13:42:55Z</time>
      </trkpt>
      <trkpt lat="46.19132" lon="6.41483">
        <ele>1001</ele>
        <time>2012-05-10T13:42:59Z</time>
      </trkpt>
      <trkpt lat="46.19132" lon="6.4147">
        <ele>1001</ele>
        <time>2012-05-10T13:43:05Z</time>
      </trkpt>
      <trkpt lat="46.19131" lon="6.41456">
        <ele>1006</ele>
        <time>2012-05-10T13:43:15Z</time>
      </trkpt>
      <trkpt lat="46.19122" lon="6.41457">
        <ele>1006</ele>
        <time>2012-05-10T13:43:22Z</time>
      </trkpt>
      <trkpt lat="46.19114" lon="6.41466">
        <ele>1012</ele>
        <time>2012-05-10T13:43:26Z</time>
      </trkpt>
      <trkpt lat="46.19104" lon="6.41462">
        <ele>1025</ele>
        <time>2012-05-10T13:43:34Z</time>
      </trkpt>
      <trkpt lat="46.19095" lon="6.41451">
        <ele>1025</ele>
        <time>2012-05-10T13:43:37Z</time>
      </trkpt>
      <trkpt lat="46.19092" lon="6.41438">
        <ele>1025</ele>
        <time>2012-05-10T13:43:40Z</time>
      </trkpt>
      <trkpt lat="46.19086" lon="6.41422">
        <ele>1025</ele>
        <time>2012-05-10T13:43:45Z</time>
      </trkpt>
      <trkpt lat="46.1908" lon="6.41412">
        <ele>1025</ele>
        <time>2012-05-10T13:43:47Z</time>
      </trkpt>
      <trkpt lat="46.19072" lon="6.41398">
        <ele>1025</ele>
        <time>2012-05-10T13:43:50Z</time>
      </trkpt>
      <trkpt lat="46.19064" lon="6.41392">
        <ele>1025</ele>
        <time>2012-05-10T13:43:52Z</time>
      </trkpt>
      <trkpt lat="46.19054" lon="6.41384">
        <ele>1031</ele>
        <time>2012-05-10T13:43:55Z</time>
      </trkpt>
      <trkpt lat="46.19046" lon="6.41375">
        <ele>1031</ele>
        <time>2012-05-10T13:43:58Z</time>
      </trkpt>
      <trkpt lat="46.19039" lon="6.41365">
        <ele>1031</ele>
        <time>2012-05-10T13:44:10Z</time>
      </trkpt>
      <trkpt lat="46.19031" lon="6.4135">
        <ele>1031</ele>
        <time>2012-05-10T13:44:13Z</time>
      </trkpt>
      <trkpt lat="46.19022" lon="6.41354">
        <ele>1039</ele>
        <time>2012-05-10T13:44:54Z</time>
      </trkpt>
      <trkpt lat="46.19032" lon="6.41351">
        <ele>1022</ele>
        <time>2012-05-10T13:46:36Z</time>
      </trkpt>
      <trkpt lat="46.19029" lon="6.41339">
        <ele>1041</ele>
        <time>2012-05-10T13:50:27Z</time>
      </trkpt>
      <trkpt lat="46.19028" lon="6.41323">
        <ele>1028</ele>
        <time>2012-05-10T13:51:39Z</time>
      </trkpt>
      <trkpt lat="46.19031" lon="6.4131">
        <ele>1028</ele>
        <time>2012-05-10T13:51:41Z</time>
      </trkpt>
      <trkpt lat="46.19032" lon="6.41295">
        <ele>1019</ele>
        <time>2012-05-10T13:51:44Z</time>
      </trkpt>
      <trkpt lat="46.19029" lon="6.41281">
        <ele>1019</ele>
        <time>2012-05-10T13:51:47Z</time>
      </trkpt>
      <trkpt lat="46.19019" lon="6.41271">
        <ele>1019</ele>
        <time>2012-05-10T13:51:50Z</time>
      </trkpt>
      <trkpt lat="46.19007" lon="6.41271">
        <ele>1019</ele>
        <time>2012-05-10T13:51:53Z</time>
      </trkpt>
      <trkpt lat="46.18996" lon="6.41276">
        <ele>1019</ele>
        <time>2012-05-10T13:51:56Z</time>
      </trkpt>
      <trkpt lat="46.18983" lon="6.4128">
        <ele>1019</ele>
        <time>2012-05-10T13:51:59Z</time>
      </trkpt>
      <trkpt lat="46.18973" lon="6.41279">
        <ele>1019</ele>
        <time>2012-05-10T13:52:01Z</time>
      </trkpt>
      <trkpt lat="46.18961" lon="6.41275">
        <ele>1019</ele>
        <time>2012-05-10T13:52:04Z</time>
      </trkpt>
      <trkpt lat="46.18949" lon="6.41274">
        <ele>1019</ele>
        <time>2012-05-10T13:52:07Z</time>
      </trkpt>
      <trkpt lat="46.18939" lon="6.4127">
        <ele>1029</ele>
        <time>2012-05-10T13:52:10Z</time>
      </trkpt>
      <trkpt lat="46.18931" lon="6.41265">
        <ele>1029</ele>
        <time>2012-05-10T13:52:13Z</time>
      </trkpt>
      <trkpt lat="46.1892" lon="6.41268">
        <ele>1037</ele>
        <time>2012-05-10T13:52:18Z</time>
      </trkpt>
      <trkpt lat="46.18908" lon="6.41262">
        <ele>1037</ele>
        <time>2012-05-10T13:52:22Z</time>
      </trkpt>
      <trkpt lat="46.18896" lon="6.41256">
        <ele>1045</ele>
        <time>2012-05-10T13:52:25Z</time>
      </trkpt>
      <trkpt lat="46.18887" lon="6.4125">
        <ele>1045</ele>
        <time>2012-05-10T13:52:28Z</time>
      </trkpt>
      <trkpt lat="46.18877" lon="6.41246">
        <ele>1045</ele>
        <time>2012-05-10T13:52:31Z</time>
      </trkpt>
      <trkpt lat="46.18866" lon="6.41244">
        <ele>1045</ele>
        <time>2012-05-10T13:52:33Z</time>
      </trkpt>
      <trkpt lat="46.18856" lon="6.41241">
        <ele>1045</ele>
        <time>2012-05-10T13:52:35Z</time>
      </trkpt>
      <trkpt lat="46.18845" lon="6.4124">
        <ele>1045</ele>
        <time>2012-05-10T13:52:37Z</time>
      </trkpt>
      <trkpt lat="46.18833" lon="6.41241">
        <ele>1045</ele>
        <time>2012-05-10T13:52:39Z</time>
      </trkpt>
      <trkpt lat="46.18823" lon="6.41241">
        <ele>1045</ele>
        <time>2012-05-10T13:52:41Z</time>
      </trkpt>
      <trkpt lat="46.18813" lon="6.41238">
        <ele>1045</ele>
        <time>2012-05-10T13:52:45Z</time>
      </trkpt>
      <trkpt lat="46.18804" lon="6.41234">
        <ele>1045</ele>
        <time>2012-05-10T13:52:48Z</time>
      </trkpt>
      <trkpt lat="46.18794" lon="6.41229">
        <ele>1045</ele>
        <time>2012-05-10T13:52:51Z</time>
      </trkpt>
      <trkpt lat="46.18783" lon="6.41225">
        <ele>1045</ele>
        <time>2012-05-10T13:52:54Z</time>
      </trkpt>
      <trkpt lat="46.18775" lon="6.41214">
        <ele>1045</ele>
        <time>2012-05-10T13:52:57Z</time>
      </trkpt>
      <trkpt lat="46.18767" lon="6.41208">
        <ele>1045</ele>
        <time>2012-05-10T13:52:59Z</time>
      </trkpt>
      <trkpt lat="46.18757" lon="6.41204">
        <ele>1045</ele>
        <time>2012-05-10T13:53:01Z</time>
      </trkpt>
      <trkpt lat="46.18747" lon="6.412">
        <ele>1045</ele>
        <time>2012-05-10T13:53:04Z</time>
      </trkpt>
      <trkpt lat="46.18737" lon="6.41197">
        <ele>1037</ele>
        <time>2012-05-10T13:53:08Z</time>
      </trkpt>
      <trkpt lat="46.18725" lon="6.41192">
        <ele>1037</ele>
        <time>2012-05-10T13:53:11Z</time>
      </trkpt>
      <trkpt lat="46.18712" lon="6.4119">
        <ele>1031</ele>
        <time>2012-05-10T13:53:14Z</time>
      </trkpt>
      <trkpt lat="46.18703" lon="6.41186">
        <ele>1031</ele>
        <time>2012-05-10T13:53:16Z</time>
      </trkpt>
      <trkpt lat="46.18691" lon="6.41182">
        <ele>1031</ele>
        <time>2012-05-10T13:53:19Z</time>
      </trkpt>
      <trkpt lat="46.18681" lon="6.41179">
        <ele>1024</ele>
        <time>2012-05-10T13:53:22Z</time>
      </trkpt>
      <trkpt lat="46.18672" lon="6.41179">
        <ele>1024</ele>
        <time>2012-05-10T13:53:26Z</time>
      </trkpt>
      <trkpt lat="46.18662" lon="6.41173">
        <ele>1016</ele>
        <time>2012-05-10T13:53:32Z</time>
      </trkpt>
      <trkpt lat="46.18651" lon="6.41167">
        <ele>1016</ele>
        <time>2012-05-10T13:53:35Z</time>
      </trkpt>
      <trkpt lat="46.18641" lon="6.41159">
        <ele>1016</ele>
        <time>2012-05-10T13:53:38Z</time>
      </trkpt>
      <trkpt lat="46.18633" lon="6.41149">
        <ele>1016</ele>
        <time>2012-05-10T13:53:41Z</time>
      </trkpt>
      <trkpt lat="46.18624" lon="6.41145">
        <ele>1016</ele>
        <time>2012-05-10T13:53:46Z</time>
      </trkpt>
      <trkpt lat="46.18613" lon="6.4115">
        <ele>1008</ele>
        <time>2012-05-10T13:53:50Z</time>
      </trkpt>
      <trkpt lat="46.18601" lon="6.41148">
        <ele>1008</ele>
        <time>2012-05-10T13:53:54Z</time>
      </trkpt>
      <trkpt lat="46.1859" lon="6.41145">
        <ele>1008</ele>
        <time>2012-05-10T13:53:58Z</time>
      </trkpt>
      <trkpt lat="46.18579" lon="6.41141">
        <ele>1002</ele>
        <time>2012-05-10T13:54:01Z</time>
      </trkpt>
      <trkpt lat="46.18566" lon="6.41139">
        <ele>1002</ele>
        <time>2012-05-10T13:54:04Z</time>
      </trkpt>
      <trkpt lat="46.18554" lon="6.41137">
        <ele>994</ele>
        <time>2012-05-10T13:54:07Z</time>
      </trkpt>
      <trkpt lat="46.18541" lon="6.41135">
        <ele>994</ele>
        <time>2012-05-10T13:54:10Z</time>
      </trkpt>
      <trkpt lat="46.18529" lon="6.41129">
        <ele>994</ele>
        <time>2012-05-10T13:54:13Z</time>
      </trkpt>
      <trkpt lat="46.1852" lon="6.41129">
        <ele>986</ele>
        <time>2012-05-10T13:54:15Z</time>
      </trkpt>
      <trkpt lat="46.1851" lon="6.41125">
        <ele>986</ele>
        <time>2012-05-10T13:54:17Z</time>
      </trkpt>
      <trkpt lat="46.18501" lon="6.41118">
        <ele>986</ele>
        <time>2012-05-10T13:54:19Z</time>
      </trkpt>
      <trkpt lat="46.18493" lon="6.41103">
        <ele>986</ele>
        <time>2012-05-10T13:54:22Z</time>
      </trkpt>
      <trkpt lat="46.18486" lon="6.41093">
        <ele>980</ele>
        <time>2012-05-10T13:54:25Z</time>
      </trkpt>
      <trkpt lat="46.18477" lon="6.41089">
        <ele>980</ele>
        <time>2012-05-10T13:54:28Z</time>
      </trkpt>
      <trkpt lat="46.18473" lon="6.41102">
        <ele>980</ele>
        <time>2012-05-10T13:54:31Z</time>
      </trkpt>
      <trkpt lat="46.18469" lon="6.41114">
        <ele>980</ele>
        <time>2012-05-10T13:54:34Z</time>
      </trkpt>
      <trkpt lat="46.18459" lon="6.41109">
        <ele>980</ele>
        <time>2012-05-10T13:55:04Z</time>
      </trkpt>
      <trkpt lat="46.18448" lon="6.41105">
        <ele>980</ele>
        <time>2012-05-10T13:55:09Z</time>
      </trkpt>
      <trkpt lat="46.18437" lon="6.41111">
        <ele>980</ele>
        <time>2012-05-10T13:55:13Z</time>
      </trkpt>
      <trkpt lat="46.18427" lon="6.41112">
        <ele>980</ele>
        <time>2012-05-10T13:55:17Z</time>
      </trkpt>
      <trkpt lat="46.18419" lon="6.41104">
        <ele>975</ele>
        <time>2012-05-10T13:55:26Z</time>
      </trkpt>
      <trkpt lat="46.1841" lon="6.41089">
        <ele>975</ele>
        <time>2012-05-10T13:55:28Z</time>
      </trkpt>
      <trkpt lat="46.18404" lon="6.41079">
        <ele>975</ele>
        <time>2012-05-10T13:55:29Z</time>
      </trkpt>
      <trkpt lat="46.18397" lon="6.41069">
        <ele>975</ele>
        <time>2012-05-10T13:55:30Z</time>
      </trkpt>
      <trkpt lat="46.18387" lon="6.4105">
        <ele>969</ele>
        <time>2012-05-10T13:55:32Z</time>
      </trkpt>
      <trkpt lat="46.18382" lon="6.41032">
        <ele>969</ele>
        <time>2012-05-10T13:55:34Z</time>
      </trkpt>
      <trkpt lat="46.18393" lon="6.4103">
        <ele>969</ele>
        <time>2012-05-10T13:55:45Z</time>
      </trkpt>
      <trkpt lat="46.18403" lon="6.41016">
        <ele>975</ele>
        <time>2012-05-10T13:55:47Z</time>
      </trkpt>
      <trkpt lat="46.18409" lon="6.41001">
        <ele>975</ele>
        <time>2012-05-10T13:55:55Z</time>
      </trkpt>
      <trkpt lat="46.18412" lon="6.40984">
        <ele>975</ele>
        <time>2012-05-10T13:55:58Z</time>
      </trkpt>
      <trkpt lat="46.1841" lon="6.40967">
        <ele>975</ele>
        <time>2012-05-10T13:56:01Z</time>
      </trkpt>
      <trkpt lat="46.18411" lon="6.40953">
        <ele>975</ele>
        <time>2012-05-10T13:56:09Z</time>
      </trkpt>
      <trkpt lat="46.18407" lon="6.40936">
        <ele>975</ele>
        <time>2012-05-10T13:56:12Z</time>
      </trkpt>
      <trkpt lat="46.18407" lon="6.40923">
        <ele>967</ele>
        <time>2012-05-10T13:56:15Z</time>
      </trkpt>
      <trkpt lat="46.1841" lon="6.40909">
        <ele>960</ele>
        <time>2012-05-10T13:56:18Z</time>
      </trkpt>
      <trkpt lat="46.18411" lon="6.40895">
        <ele>960</ele>
        <time>2012-05-10T13:56:21Z</time>
      </trkpt>
      <trkpt lat="46.18407" lon="6.40882">
        <ele>953</ele>
        <time>2012-05-10T13:56:24Z</time>
      </trkpt>
      <trkpt lat="46.18401" lon="6.40869">
        <ele>953</ele>
        <time>2012-05-10T13:56:27Z</time>
      </trkpt>
      <trkpt lat="46.18396" lon="6.40855">
        <ele>953</ele>
        <time>2012-05-10T13:56:30Z</time>
      </trkpt>
      <trkpt lat="46.1839" lon="6.40842">
        <ele>947</ele>
        <time>2012-05-10T13:56:40Z</time>
      </trkpt>
      <trkpt lat="46.18381" lon="6.40837">
        <ele>947</ele>
        <time>2012-05-10T13:56:42Z</time>
      </trkpt>
      <trkpt lat="46.18371" lon="6.40838">
        <ele>954</ele>
        <time>2012-05-10T13:56:45Z</time>
      </trkpt>
      <trkpt lat="46.1836" lon="6.40841">
        <ele>960</ele>
        <time>2012-05-10T13:56:48Z</time>
      </trkpt>
      <trkpt lat="46.18351" lon="6.40844">
        <ele>960</ele>
        <time>2012-05-10T13:56:51Z</time>
      </trkpt>
      <trkpt lat="46.18341" lon="6.40848">
        <ele>960</ele>
        <time>2012-05-10T13:56:55Z</time>
      </trkpt>
      <trkpt lat="46.18329" lon="6.40855">
        <ele>970</ele>
        <time>2012-05-10T13:56:59Z</time>
      </trkpt>
      <trkpt lat="46.18321" lon="6.4086">
        <ele>965</ele>
        <time>2012-05-10T13:57:08Z</time>
      </trkpt>
      <trkpt lat="46.18309" lon="6.40863">
        <ele>956</ele>
        <time>2012-05-10T13:57:18Z</time>
      </trkpt>
      <trkpt lat="46.183" lon="6.40871">
        <ele>956</ele>
        <time>2012-05-10T13:57:21Z</time>
      </trkpt>
      <trkpt lat="46.1829" lon="6.40879">
        <ele>956</ele>
        <time>2012-05-10T13:57:24Z</time>
      </trkpt>
      <trkpt lat="46.18281" lon="6.4088">
        <ele>964</ele>
        <time>2012-05-10T13:57:33Z</time>
      </trkpt>
      <trkpt lat="46.1827" lon="6.40875">
        <ele>964</ele>
        <time>2012-05-10T13:57:40Z</time>
      </trkpt>
      <trkpt lat="46.18262" lon="6.40869">
        <ele>964</ele>
        <time>2012-05-10T13:57:42Z</time>
      </trkpt>
      <trkpt lat="46.18253" lon="6.40864">
        <ele>959</ele>
        <time>2012-05-10T13:57:44Z</time>
      </trkpt>
      <trkpt lat="46.18239" lon="6.40854">
        <ele>959</ele>
        <time>2012-05-10T13:57:46Z</time>
      </trkpt>
      <trkpt lat="46.18227" lon="6.40846">
        <ele>959</ele>
        <time>2012-05-10T13:57:48Z</time>
      </trkpt>
      <trkpt lat="46.18216" lon="6.40841">
        <ele>959</ele>
        <time>2012-05-10T13:57:50Z</time>
      </trkpt>
      <trkpt lat="46.18206" lon="6.40836">
        <ele>954</ele>
        <time>2012-05-10T13:57:52Z</time>
      </trkpt>
      <trkpt lat="46.18197" lon="6.40829">
        <ele>954</ele>
        <time>2012-05-10T13:57:54Z</time>
      </trkpt>
      <trkpt lat="46.18188" lon="6.40825">
        <ele>954</ele>
        <time>2012-05-10T13:57:56Z</time>
      </trkpt>
      <trkpt lat="46.18176" lon="6.4082">
        <ele>954</ele>
        <time>2012-05-10T13:57:59Z</time>
      </trkpt>
      <trkpt lat="46.18167" lon="6.40817">
        <ele>954</ele>
        <time>2012-05-10T13:58:10Z</time>
      </trkpt>
      <trkpt lat="46.18176" lon="6.40807">
        <ele>954</ele>
        <time>2012-05-10T13:58:19Z</time>
      </trkpt>
      <trkpt lat="46.18183" lon="6.40791">
        <ele>954</ele>
        <time>2012-05-10T13:58:21Z</time>
      </trkpt>
      <trkpt lat="46.1819" lon="6.40776">
        <ele>954</ele>
        <time>2012-05-10T13:58:23Z</time>
      </trkpt>
      <trkpt lat="46.18196" lon="6.40762">
        <ele>954</ele>
        <time>2012-05-10T13:58:25Z</time>
      </trkpt>
      <trkpt lat="46.18203" lon="6.40749">
        <ele>954</ele>
        <time>2012-05-10T13:58:27Z</time>
      </trkpt>
      <trkpt lat="46.18211" lon="6.40736">
        <ele>954</ele>
        <time>2012-05-10T13:58:30Z</time>
      </trkpt>
      <trkpt lat="46.18215" lon="6.40724">
        <ele>954</ele>
        <time>2012-05-10T13:58:33Z</time>
      </trkpt>
      <trkpt lat="46.18209" lon="6.40734">
        <ele>954</ele>
        <time>2012-05-10T13:58:46Z</time>
      </trkpt>
      <trkpt lat="46.18201" lon="6.4075">
        <ele>954</ele>
        <time>2012-05-10T13:58:49Z</time>
      </trkpt>
      <trkpt lat="46.18196" lon="6.40764">
        <ele>954</ele>
        <time>2012-05-10T13:58:51Z</time>
      </trkpt>
      <trkpt lat="46.18189" lon="6.40779">
        <ele>954</ele>
        <time>2012-05-10T13:58:54Z</time>
      </trkpt>
      <trkpt lat="46.18181" lon="6.40786">
        <ele>954</ele>
        <time>2012-05-10T13:58:59Z</time>
      </trkpt>
      <trkpt lat="46.18175" lon="6.40774">
        <ele>954</ele>
        <time>2012-05-10T13:59:02Z</time>
      </trkpt>
      <trkpt lat="46.1817" lon="6.40757">
        <ele>954</ele>
        <time>2012-05-10T13:59:04Z</time>
      </trkpt>
      <trkpt lat="46.18165" lon="6.4074">
        <ele>954</ele>
        <time>2012-05-10T13:59:06Z</time>
      </trkpt>
      <trkpt lat="46.18161" lon="6.40721">
        <ele>954</ele>
        <time>2012-05-10T13:59:08Z</time>
      </trkpt>
      <trkpt lat="46.18158" lon="6.40701">
        <ele>954</ele>
        <time>2012-05-10T13:59:10Z</time>
      </trkpt>
      <trkpt lat="46.18156" lon="6.40682">
        <ele>954</ele>
        <time>2012-05-10T13:59:12Z</time>
      </trkpt>
      <trkpt lat="46.18154" lon="6.40664">
        <ele>954</ele>
        <time>2012-05-10T13:59:14Z</time>
      </trkpt>
      <trkpt lat="46.18149" lon="6.40648">
        <ele>954</ele>
        <time>2012-05-10T13:59:16Z</time>
      </trkpt>
      <trkpt lat="46.18144" lon="6.40635">
        <ele>954</ele>
        <time>2012-05-10T13:59:18Z</time>
      </trkpt>
      <trkpt lat="46.18138" lon="6.40623">
        <ele>954</ele>
        <time>2012-05-10T13:59:20Z</time>
      </trkpt>
      <trkpt lat="46.18129" lon="6.40608">
        <ele>954</ele>
        <time>2012-05-10T13:59:22Z</time>
      </trkpt>
      <trkpt lat="46.1812" lon="6.40595">
        <ele>954</ele>
        <time>2012-05-10T13:59:24Z</time>
      </trkpt>
      <trkpt lat="46.18108" lon="6.4058">
        <ele>960</ele>
        <time>2012-05-10T13:59:26Z</time>
      </trkpt>
      <trkpt lat="46.18098" lon="6.40567">
        <ele>960</ele>
        <time>2012-05-10T13:59:28Z</time>
      </trkpt>
      <trkpt lat="46.1809" lon="6.40558">
        <ele>960</ele>
        <time>2012-05-10T13:59:30Z</time>
      </trkpt>
      <trkpt lat="46.18082" lon="6.40552">
        <ele>960</ele>
        <time>2012-05-10T13:59:32Z</time>
      </trkpt>
      <trkpt lat="46.1807" lon="6.40546">
        <ele>960</ele>
        <time>2012-05-10T13:59:34Z</time>
      </trkpt>
      <trkpt lat="46.18057" lon="6.4054">
        <ele>960</ele>
        <time>2012-05-10T13:59:36Z</time>
      </trkpt>
      <trkpt lat="46.18046" lon="6.40533">
        <ele>960</ele>
        <time>2012-05-10T13:59:39Z</time>
      </trkpt>
      <trkpt lat="46.18034" lon="6.40526">
        <ele>960</ele>
        <time>2012-05-10T13:59:42Z</time>
      </trkpt>
      <trkpt lat="46.18023" lon="6.40519">
        <ele>960</ele>
        <time>2012-05-10T13:59:45Z</time>
      </trkpt>
      <trkpt lat="46.18013" lon="6.40508">
        <ele>960</ele>
        <time>2012-05-10T13:59:48Z</time>
      </trkpt>
      <trkpt lat="46.18004" lon="6.40499">
        <ele>960</ele>
        <time>2012-05-10T13:59:51Z</time>
      </trkpt>
      <trkpt lat="46.17997" lon="6.4049">
        <ele>960</ele>
        <time>2012-05-10T13:59:57Z</time>
      </trkpt>
      <trkpt lat="46.17987" lon="6.40486">
        <ele>948</ele>
        <time>2012-05-10T14:00:06Z</time>
      </trkpt>
      <trkpt lat="46.17976" lon="6.4049">
        <ele>948</ele>
        <time>2012-05-10T14:00:09Z</time>
      </trkpt>
      <trkpt lat="46.17965" lon="6.40494">
        <ele>948</ele>
        <time>2012-05-10T14:00:12Z</time>
      </trkpt>
      <trkpt lat="46.17954" lon="6.40491">
        <ele>948</ele>
        <time>2012-05-10T14:00:15Z</time>
      </trkpt>
      <trkpt lat="46.17946" lon="6.40485">
        <ele>948</ele>
        <time>2012-05-10T14:00:18Z</time>
      </trkpt>
      <trkpt lat="46.17941" lon="6.4047">
        <ele>948</ele>
        <time>2012-05-10T14:00:22Z</time>
      </trkpt>
      <trkpt lat="46.17936" lon="6.40459">
        <ele>948</ele>
        <time>2012-05-10T14:00:25Z</time>
      </trkpt>
      <trkpt lat="46.17929" lon="6.4045">
        <ele>948</ele>
        <time>2012-05-10T14:00:29Z</time>
      </trkpt>
      <trkpt lat="46.17924" lon="6.40439">
        <ele>948</ele>
        <time>2012-05-10T14:00:33Z</time>
      </trkpt>
      <trkpt lat="46.17916" lon="6.4043">
        <ele>948</ele>
        <time>2012-05-10T14:00:38Z</time>
      </trkpt>
      <trkpt lat="46.17911" lon="6.40418">
        <ele>957</ele>
        <time>2012-05-10T14:00:42Z</time>
      </trkpt>
      <trkpt lat="46.17906" lon="6.404">
        <ele>957</ele>
        <time>2012-05-10T14:00:46Z</time>
      </trkpt>
      <trkpt lat="46.17899" lon="6.40389">
        <ele>950</ele>
        <time>2012-05-10T14:00:56Z</time>
      </trkpt>
      <trkpt lat="46.17894" lon="6.40378">
        <ele>944</ele>
        <time>2012-05-10T14:01:04Z</time>
      </trkpt>
      <trkpt lat="46.17886" lon="6.40373">
        <ele>950</ele>
        <time>2012-05-10T14:01:13Z</time>
      </trkpt>
      <trkpt lat="46.17876" lon="6.40369">
        <ele>950</ele>
        <time>2012-05-10T14:01:16Z</time>
      </trkpt>
      <trkpt lat="46.17866" lon="6.40371">
        <ele>950</ele>
        <time>2012-05-10T14:01:20Z</time>
      </trkpt>
      <trkpt lat="46.17855" lon="6.40369">
        <ele>950</ele>
        <time>2012-05-10T14:01:23Z</time>
      </trkpt>
      <trkpt lat="46.17844" lon="6.4036">
        <ele>950</ele>
        <time>2012-05-10T14:01:26Z</time>
      </trkpt>
      <trkpt lat="46.17834" lon="6.40353">
        <ele>950</ele>
        <time>2012-05-10T14:01:29Z</time>
      </trkpt>
      <trkpt lat="46.17826" lon="6.40344">
        <ele>950</ele>
        <time>2012-05-10T14:01:31Z</time>
      </trkpt>
      <trkpt lat="46.17815" lon="6.40336">
        <ele>950</ele>
        <time>2012-05-10T14:01:34Z</time>
      </trkpt>
      <trkpt lat="46.17804" lon="6.40334">
        <ele>950</ele>
        <time>2012-05-10T14:01:38Z</time>
      </trkpt>
      <trkpt lat="46.17795" lon="6.40331">
        <ele>950</ele>
        <time>2012-05-10T14:01:41Z</time>
      </trkpt>
      <trkpt lat="46.17783" lon="6.4032">
        <ele>950</ele>
        <time>2012-05-10T14:01:44Z</time>
      </trkpt>
      <trkpt lat="46.17773" lon="6.40308">
        <ele>950</ele>
        <time>2012-05-10T14:01:46Z</time>
      </trkpt>
      <trkpt lat="46.17764" lon="6.4029">
        <ele>950</ele>
        <time>2012-05-10T14:01:48Z</time>
      </trkpt>
      <trkpt lat="46.17759" lon="6.40274">
        <ele>950</ele>
        <time>2012-05-10T14:01:50Z</time>
      </trkpt>
      <trkpt lat="46.17755" lon="6.40261">
        <ele>950</ele>
        <time>2012-05-10T14:01:52Z</time>
      </trkpt>
      <trkpt lat="46.17749" lon="6.40244">
        <ele>950</ele>
        <time>2012-05-10T14:01:55Z</time>
      </trkpt>
      <trkpt lat="46.17744" lon="6.40227">
        <ele>950</ele>
        <time>2012-05-10T14:01:58Z</time>
      </trkpt>
      <trkpt lat="46.17741" lon="6.40212">
        <ele>950</ele>
        <time>2012-05-10T14:02:00Z</time>
      </trkpt>
      <trkpt lat="46.17739" lon="6.40198">
        <ele>950</ele>
        <time>2012-05-10T14:02:02Z</time>
      </trkpt>
      <trkpt lat="46.17738" lon="6.40184">
        <ele>950</ele>
        <time>2012-05-10T14:02:04Z</time>
      </trkpt>
      <trkpt lat="46.17735" lon="6.40164">
        <ele>950</ele>
        <time>2012-05-10T14:02:06Z</time>
      </trkpt>
      <trkpt lat="46.17733" lon="6.40146">
        <ele>950</ele>
        <time>2012-05-10T14:02:08Z</time>
      </trkpt>
      <trkpt lat="46.1773" lon="6.4013">
        <ele>950</ele>
        <time>2012-05-10T14:02:11Z</time>
      </trkpt>
      <trkpt lat="46.17728" lon="6.40115">
        <ele>950</ele>
        <time>2012-05-10T14:02:16Z</time>
      </trkpt>
      <trkpt lat="46.17721" lon="6.40099">
        <ele>950</ele>
        <time>2012-05-10T14:02:20Z</time>
      </trkpt>
      <trkpt lat="46.17717" lon="6.40087">
        <ele>950</ele>
        <time>2012-05-10T14:02:23Z</time>
      </trkpt>
      <trkpt lat="46.1771" lon="6.40078">
        <ele>950</ele>
        <time>2012-05-10T14:02:27Z</time>
      </trkpt>
      <trkpt lat="46.17702" lon="6.40069">
        <ele>950</ele>
        <time>2012-05-10T14:02:30Z</time>
      </trkpt>
      <trkpt lat="46.17693" lon="6.40062">
        <ele>950</ele>
        <time>2012-05-10T14:02:33Z</time>
      </trkpt>
      <trkpt lat="46.17685" lon="6.40054">
        <ele>943</ele>
        <time>2012-05-10T14:02:36Z</time>
      </trkpt>
      <trkpt lat="46.17673" lon="6.40043">
        <ele>943</ele>
        <time>2012-05-10T14:02:39Z</time>
      </trkpt>
      <trkpt lat="46.17664" lon="6.40031">
        <ele>935</ele>
        <time>2012-05-10T14:02:41Z</time>
      </trkpt>
      <trkpt lat="46.17653" lon="6.40015">
        <ele>935</ele>
        <time>2012-05-10T14:02:43Z</time>
      </trkpt>
      <trkpt lat="46.17647" lon="6.40003">
        <ele>935</ele>
        <time>2012-05-10T14:02:44Z</time>
      </trkpt>
      <trkpt lat="46.17635" lon="6.39983">
        <ele>929</ele>
        <time>2012-05-10T14:02:46Z</time>
      </trkpt>
      <trkpt lat="46.17629" lon="6.39973">
        <ele>929</ele>
        <time>2012-05-10T14:02:47Z</time>
      </trkpt>
      <trkpt lat="46.17615" lon="6.39954">
        <ele>929</ele>
        <time>2012-05-10T14:02:49Z</time>
      </trkpt>
      <trkpt lat="46.17609" lon="6.39944">
        <ele>929</ele>
        <time>2012-05-10T14:02:50Z</time>
      </trkpt>
      <trkpt lat="46.17598" lon="6.39928">
        <ele>935</ele>
        <time>2012-05-10T14:02:52Z</time>
      </trkpt>
      <trkpt lat="46.17592" lon="6.39915">
        <ele>935</ele>
        <time>2012-05-10T14:02:54Z</time>
      </trkpt>
      <trkpt lat="46.17602" lon="6.39906">
        <ele>941</ele>
        <time>2012-05-10T14:03:06Z</time>
      </trkpt>
      <trkpt lat="46.1761" lon="6.39894">
        <ele>941</ele>
        <time>2012-05-10T14:03:10Z</time>
      </trkpt>
      <trkpt lat="46.17612" lon="6.39878">
        <ele>941</ele>
        <time>2012-05-10T14:03:12Z</time>
      </trkpt>
      <trkpt lat="46.17611" lon="6.39861">
        <ele>941</ele>
        <time>2012-05-10T14:03:14Z</time>
      </trkpt>
      <trkpt lat="46.17612" lon="6.39845">
        <ele>941</ele>
        <time>2012-05-10T14:03:16Z</time>
      </trkpt>
      <trkpt lat="46.17612" lon="6.39829">
        <ele>941</ele>
        <time>2012-05-10T14:03:19Z</time>
      </trkpt>
      <trkpt lat="46.1761" lon="6.39814">
        <ele>941</ele>
        <time>2012-05-10T14:03:22Z</time>
      </trkpt>
      <trkpt lat="46.17609" lon="6.39794">
        <ele>941</ele>
        <time>2012-05-10T14:03:25Z</time>
      </trkpt>
      <trkpt lat="46.17612" lon="6.39778">
        <ele>941</ele>
        <time>2012-05-10T14:03:27Z</time>
      </trkpt>
      <trkpt lat="46.17617" lon="6.39764">
        <ele>941</ele>
        <time>2012-05-10T14:03:30Z</time>
      </trkpt>
      <trkpt lat="46.17624" lon="6.39753">
        <ele>977</ele>
        <time>2012-05-10T14:04:15Z</time>
      </trkpt>
      <trkpt lat="46.1763" lon="6.39742">
        <ele>970</ele>
        <time>2012-05-10T14:04:18Z</time>
      </trkpt>
      <trkpt lat="46.17637" lon="6.39733">
        <ele>962</ele>
        <time>2012-05-10T14:04:21Z</time>
      </trkpt>
      <trkpt lat="46.1764" lon="6.39719">
        <ele>954</ele>
        <time>2012-05-10T14:04:28Z</time>
      </trkpt>
      <trkpt lat="46.1764" lon="6.39733">
        <ele>954</ele>
        <time>2012-05-10T14:05:14Z</time>
      </trkpt>
      <trkpt lat="46.17633" lon="6.39742">
        <ele>954</ele>
        <time>2012-05-10T14:05:18Z</time>
      </trkpt>
      <trkpt lat="46.17626" lon="6.39759">
        <ele>954</ele>
        <time>2012-05-10T14:05:21Z</time>
      </trkpt>
      <trkpt lat="46.17619" lon="6.39771">
        <ele>954</ele>
        <time>2012-05-10T14:05:23Z</time>
      </trkpt>
      <trkpt lat="46.17614" lon="6.39786">
        <ele>954</ele>
        <time>2012-05-10T14:05:26Z</time>
      </trkpt>
      <trkpt lat="46.17615" lon="6.39804">
        <ele>954</ele>
        <time>2012-05-10T14:05:29Z</time>
      </trkpt>
      <trkpt lat="46.17616" lon="6.3982">
        <ele>954</ele>
        <time>2012-05-10T14:05:33Z</time>
      </trkpt>
      <trkpt lat="46.17616" lon="6.39835">
        <ele>954</ele>
        <time>2012-05-10T14:05:36Z</time>
      </trkpt>
      <trkpt lat="46.17614" lon="6.39851">
        <ele>954</ele>
        <time>2012-05-10T14:05:39Z</time>
      </trkpt>
      <trkpt lat="46.17612" lon="6.39866">
        <ele>954</ele>
        <time>2012-05-10T14:05:41Z</time>
      </trkpt>
      <trkpt lat="46.17612" lon="6.39883">
        <ele>954</ele>
        <time>2012-05-10T14:05:43Z</time>
      </trkpt>
      <trkpt lat="46.17609" lon="6.39895">
        <ele>954</ele>
        <time>2012-05-10T14:05:46Z</time>
      </trkpt>
      <trkpt lat="46.17594" lon="6.39898">
        <ele>954</ele>
        <time>2012-05-10T14:05:49Z</time>
      </trkpt>
      <trkpt lat="46.17575" lon="6.39896">
        <ele>948</ele>
        <time>2012-05-10T14:05:51Z</time>
      </trkpt>
      <trkpt lat="46.17565" lon="6.39894">
        <ele>948</ele>
        <time>2012-05-10T14:05:52Z</time>
      </trkpt>
      <trkpt lat="46.17555" lon="6.39892">
        <ele>948</ele>
        <time>2012-05-10T14:05:53Z</time>
      </trkpt>
      <trkpt lat="46.17544" lon="6.3989">
        <ele>948</ele>
        <time>2012-05-10T14:05:54Z</time>
      </trkpt>
      <trkpt lat="46.17534" lon="6.39887">
        <ele>948</ele>
        <time>2012-05-10T14:05:55Z</time>
      </trkpt>
      <trkpt lat="46.17522" lon="6.39884">
        <ele>948</ele>
        <time>2012-05-10T14:05:56Z</time>
      </trkpt>
      <trkpt lat="46.17511" lon="6.39881">
        <ele>948</ele>
        <time>2012-05-10T14:05:57Z</time>
      </trkpt>
      <trkpt lat="46.17499" lon="6.39878">
        <ele>948</ele>
        <time>2012-05-10T14:05:58Z</time>
      </trkpt>
      <trkpt lat="46.17488" lon="6.39876">
        <ele>948</ele>
        <time>2012-05-10T14:05:59Z</time>
      </trkpt>
      <trkpt lat="46.17477" lon="6.39874">
        <ele>943</ele>
        <time>2012-05-10T14:06:00Z</time>
      </trkpt>
      <trkpt lat="46.17467" lon="6.39872">
        <ele>943</ele>
        <time>2012-05-10T14:06:01Z</time>
      </trkpt>
      <trkpt lat="46.17457" lon="6.39871">
        <ele>943</ele>
        <time>2012-05-10T14:06:02Z</time>
      </trkpt>
      <trkpt lat="46.17441" lon="6.39868">
        <ele>943</ele>
        <time>2012-05-10T14:06:04Z</time>
      </trkpt>
      <trkpt lat="46.17428" lon="6.39866">
        <ele>943</ele>
        <time>2012-05-10T14:06:06Z</time>
      </trkpt>
      <trkpt lat="46.17417" lon="6.39869">
        <ele>943</ele>
        <time>2012-05-10T14:06:08Z</time>
      </trkpt>
      <trkpt lat="46.1742" lon="6.39887">
        <ele>934</ele>
        <time>2012-05-10T14:06:12Z</time>
      </trkpt>
      <trkpt lat="46.17432" lon="6.39903">
        <ele>934</ele>
        <time>2012-05-10T14:06:14Z</time>
      </trkpt>
      <trkpt lat="46.17437" lon="6.39924">
        <ele>934</ele>
        <time>2012-05-10T14:06:16Z</time>
      </trkpt>
      <trkpt lat="46.17434" lon="6.39945">
        <ele>929</ele>
        <time>2012-05-10T14:06:18Z</time>
      </trkpt>
      <trkpt lat="46.17429" lon="6.39966">
        <ele>929</ele>
        <time>2012-05-10T14:06:20Z</time>
      </trkpt>
      <trkpt lat="46.17424" lon="6.39978">
        <ele>929</ele>
        <time>2012-05-10T14:06:22Z</time>
      </trkpt>
      <trkpt lat="46.17415" lon="6.39983">
        <ele>929</ele>
        <time>2012-05-10T14:06:24Z</time>
      </trkpt>
      <trkpt lat="46.17403" lon="6.39974">
        <ele>929</ele>
        <time>2012-05-10T14:06:26Z</time>
      </trkpt>
      <trkpt lat="46.17396" lon="6.39965">
        <ele>929</ele>
        <time>2012-05-10T14:06:27Z</time>
      </trkpt>
      <trkpt lat="46.17388" lon="6.39956">
        <ele>929</ele>
        <time>2012-05-10T14:06:28Z</time>
      </trkpt>
      <trkpt lat="46.17379" lon="6.39948">
        <ele>924</ele>
        <time>2012-05-10T14:06:29Z</time>
      </trkpt>
      <trkpt lat="46.17371" lon="6.39941">
        <ele>924</ele>
        <time>2012-05-10T14:06:30Z</time>
      </trkpt>
      <trkpt lat="46.17363" lon="6.39935">
        <ele>924</ele>
        <time>2012-05-10T14:06:31Z</time>
      </trkpt>
      <trkpt lat="46.17349" lon="6.39923">
        <ele>917</ele>
        <time>2012-05-10T14:06:33Z</time>
      </trkpt>
      <trkpt lat="46.17335" lon="6.39917">
        <ele>917</ele>
        <time>2012-05-10T14:06:35Z</time>
      </trkpt>
      <trkpt lat="46.1732" lon="6.39917">
        <ele>917</ele>
        <time>2012-05-10T14:06:37Z</time>
      </trkpt>
      <trkpt lat="46.17303" lon="6.39919">
        <ele>910</ele>
        <time>2012-05-10T14:06:39Z</time>
      </trkpt>
      <trkpt lat="46.17293" lon="6.39919">
        <ele>910</ele>
        <time>2012-05-10T14:06:40Z</time>
      </trkpt>
      <trkpt lat="46.17283" lon="6.39919">
        <ele>910</ele>
        <time>2012-05-10T14:06:41Z</time>
      </trkpt>
      <trkpt lat="46.17273" lon="6.39918">
        <ele>910</ele>
        <time>2012-05-10T14:06:42Z</time>
      </trkpt>
      <trkpt lat="46.17263" lon="6.39917">
        <ele>910</ele>
        <time>2012-05-10T14:06:43Z</time>
      </trkpt>
      <trkpt lat="46.17253" lon="6.39914">
        <ele>905</ele>
        <time>2012-05-10T14:06:44Z</time>
      </trkpt>
      <trkpt lat="46.17243" lon="6.3991">
        <ele>905</ele>
        <time>2012-05-10T14:06:45Z</time>
      </trkpt>
      <trkpt lat="46.17234" lon="6.39904">
        <ele>905</ele>
        <time>2012-05-10T14:06:46Z</time>
      </trkpt>
      <trkpt lat="46.17226" lon="6.39897">
        <ele>905</ele>
        <time>2012-05-10T14:06:47Z</time>
      </trkpt>
      <trkpt lat="46.17212" lon="6.3988">
        <ele>905</ele>
        <time>2012-05-10T14:06:49Z</time>
      </trkpt>
      <trkpt lat="46.17206" lon="6.39869">
        <ele>905</ele>
        <time>2012-05-10T14:06:50Z</time>
      </trkpt>
      <trkpt lat="46.17199" lon="6.39858">
        <ele>899</ele>
        <time>2012-05-10T14:06:51Z</time>
      </trkpt>
      <trkpt lat="46.17193" lon="6.39848">
        <ele>899</ele>
        <time>2012-05-10T14:06:52Z</time>
      </trkpt>
      <trkpt lat="46.17186" lon="6.39839">
        <ele>899</ele>
        <time>2012-05-10T14:06:53Z</time>
      </trkpt>
      <trkpt lat="46.17174" lon="6.39822">
        <ele>899</ele>
        <time>2012-05-10T14:06:55Z</time>
      </trkpt>
      <trkpt lat="46.17161" lon="6.39806">
        <ele>899</ele>
        <time>2012-05-10T14:06:57Z</time>
      </trkpt>
      <trkpt lat="46.17146" lon="6.3979">
        <ele>899</ele>
        <time>2012-05-10T14:06:59Z</time>
      </trkpt>
      <trkpt lat="46.17137" lon="6.39782">
        <ele>899</ele>
        <time>2012-05-10T14:07:00Z</time>
      </trkpt>
      <trkpt lat="46.17127" lon="6.39773">
        <ele>899</ele>
        <time>2012-05-10T14:07:01Z</time>
      </trkpt>
      <trkpt lat="46.17116" lon="6.39765">
        <ele>899</ele>
        <time>2012-05-10T14:07:02Z</time>
      </trkpt>
      <trkpt lat="46.17106" lon="6.39757">
        <ele>899</ele>
        <time>2012-05-10T14:07:03Z</time>
      </trkpt>
      <trkpt lat="46.17095" lon="6.3975">
        <ele>899</ele>
        <time>2012-05-10T14:07:04Z</time>
      </trkpt>
      <trkpt lat="46.17086" lon="6.39742">
        <ele>893</ele>
        <time>2012-05-10T14:07:05Z</time>
      </trkpt>
      <trkpt lat="46.17077" lon="6.39733">
        <ele>893</ele>
        <time>2012-05-10T14:07:06Z</time>
      </trkpt>
      <trkpt lat="46.17067" lon="6.39726">
        <ele>893</ele>
        <time>2012-05-10T14:07:07Z</time>
      </trkpt>
      <trkpt lat="46.17057" lon="6.3972">
        <ele>893</ele>
        <time>2012-05-10T14:07:08Z</time>
      </trkpt>
      <trkpt lat="46.17049" lon="6.39714">
        <ele>893</ele>
        <time>2012-05-10T14:07:09Z</time>
      </trkpt>
      <trkpt lat="46.17039" lon="6.39707">
        <ele>893</ele>
        <time>2012-05-10T14:07:10Z</time>
      </trkpt>
      <trkpt lat="46.17031" lon="6.397">
        <ele>888</ele>
        <time>2012-05-10T14:07:11Z</time>
      </trkpt>
      <trkpt lat="46.17018" lon="6.39687">
        <ele>888</ele>
        <time>2012-05-10T14:07:13Z</time>
      </trkpt>
      <trkpt lat="46.17011" lon="6.39671">
        <ele>888</ele>
        <time>2012-05-10T14:07:15Z</time>
      </trkpt>
      <trkpt lat="46.17009" lon="6.3965">
        <ele>882</ele>
        <time>2012-05-10T14:07:17Z</time>
      </trkpt>
      <trkpt lat="46.17009" lon="6.39636">
        <ele>882</ele>
        <time>2012-05-10T14:07:18Z</time>
      </trkpt>
      <trkpt lat="46.17008" lon="6.39623">
        <ele>882</ele>
        <time>2012-05-10T14:07:19Z</time>
      </trkpt>
      <trkpt lat="46.17003" lon="6.3961">
        <ele>882</ele>
        <time>2012-05-10T14:07:20Z</time>
      </trkpt>
      <trkpt lat="46.16997" lon="6.39598">
        <ele>882</ele>
        <time>2012-05-10T14:07:21Z</time>
      </trkpt>
      <trkpt lat="46.16991" lon="6.39586">
        <ele>882</ele>
        <time>2012-05-10T14:07:22Z</time>
      </trkpt>
      <trkpt lat="46.16984" lon="6.39575">
        <ele>882</ele>
        <time>2012-05-10T14:07:23Z</time>
      </trkpt>
      <trkpt lat="46.1698" lon="6.39564">
        <ele>876</ele>
        <time>2012-05-10T14:07:24Z</time>
      </trkpt>
      <trkpt lat="46.16974" lon="6.39539">
        <ele>876</ele>
        <time>2012-05-10T14:07:26Z</time>
      </trkpt>
      <trkpt lat="46.16973" lon="6.39526">
        <ele>876</ele>
        <time>2012-05-10T14:07:27Z</time>
      </trkpt>
      <trkpt lat="46.16966" lon="6.39502">
        <ele>876</ele>
        <time>2012-05-10T14:07:29Z</time>
      </trkpt>
      <trkpt lat="46.16955" lon="6.39481">
        <ele>869</ele>
        <time>2012-05-10T14:07:31Z</time>
      </trkpt>
      <trkpt lat="46.16942" lon="6.39464">
        <ele>869</ele>
        <time>2012-05-10T14:07:33Z</time>
      </trkpt>
      <trkpt lat="46.16929" lon="6.3945">
        <ele>869</ele>
        <time>2012-05-10T14:07:35Z</time>
      </trkpt>
      <trkpt lat="46.1692" lon="6.39433">
        <ele>869</ele>
        <time>2012-05-10T14:07:37Z</time>
      </trkpt>
      <trkpt lat="46.16911" lon="6.39415">
        <ele>869</ele>
        <time>2012-05-10T14:07:39Z</time>
      </trkpt>
      <trkpt lat="46.16901" lon="6.39397">
        <ele>869</ele>
        <time>2012-05-10T14:07:41Z</time>
      </trkpt>
      <trkpt lat="46.16893" lon="6.39374">
        <ele>864</ele>
        <time>2012-05-10T14:07:43Z</time>
      </trkpt>
      <trkpt lat="46.16885" lon="6.39349">
        <ele>864</ele>
        <time>2012-05-10T14:07:45Z</time>
      </trkpt>
      <trkpt lat="46.16881" lon="6.39336">
        <ele>864</ele>
        <time>2012-05-10T14:07:46Z</time>
      </trkpt>
      <trkpt lat="46.16878" lon="6.39321">
        <ele>864</ele>
        <time>2012-05-10T14:07:47Z</time>
      </trkpt>
      <trkpt lat="46.16876" lon="6.39306">
        <ele>864</ele>
        <time>2012-05-10T14:07:48Z</time>
      </trkpt>
      <trkpt lat="46.16875" lon="6.39289">
        <ele>864</ele>
        <time>2012-05-10T14:07:49Z</time>
      </trkpt>
      <trkpt lat="46.16876" lon="6.39271">
        <ele>864</ele>
        <time>2012-05-10T14:07:50Z</time>
      </trkpt>
      <trkpt lat="46.16878" lon="6.39252">
        <ele>864</ele>
        <time>2012-05-10T14:07:51Z</time>
      </trkpt>
      <trkpt lat="46.1688" lon="6.39234">
        <ele>859</ele>
        <time>2012-05-10T14:07:52Z</time>
      </trkpt>
      <trkpt lat="46.16882" lon="6.39217">
        <ele>859</ele>
        <time>2012-05-10T14:07:53Z</time>
      </trkpt>
      <trkpt lat="46.16884" lon="6.39202">
        <ele>859</ele>
        <time>2012-05-10T14:07:54Z</time>
      </trkpt>
      <trkpt lat="46.16886" lon="6.39187">
        <ele>859</ele>
        <time>2012-05-10T14:07:55Z</time>
      </trkpt>
      <trkpt lat="46.16888" lon="6.39173">
        <ele>859</ele>
        <time>2012-05-10T14:07:56Z</time>
      </trkpt>
      <trkpt lat="46.16891" lon="6.39149">
        <ele>859</ele>
        <time>2012-05-10T14:07:58Z</time>
      </trkpt>
      <trkpt lat="46.16893" lon="6.39133">
        <ele>859</ele>
        <time>2012-05-10T14:08:00Z</time>
      </trkpt>
      <trkpt lat="46.16894" lon="6.39115">
        <ele>859</ele>
        <time>2012-05-10T14:08:11Z</time>
      </trkpt>
      <trkpt lat="46.16896" lon="6.39099">
        <ele>859</ele>
        <time>2012-05-10T14:08:13Z</time>
      </trkpt>
      <trkpt lat="46.16897" lon="6.39084">
        <ele>859</ele>
        <time>2012-05-10T14:08:15Z</time>
      </trkpt>
      <trkpt lat="46.16896" lon="6.3907">
        <ele>859</ele>
        <time>2012-05-10T14:08:18Z</time>
      </trkpt>
      <trkpt lat="46.16886" lon="6.39079">
        <ele>859</ele>
        <time>2012-05-10T14:08:22Z</time>
      </trkpt>
      <trkpt lat="46.16877" lon="6.39094">
        <ele>853</ele>
        <time>2012-05-10T14:08:25Z</time>
      </trkpt>
      <trkpt lat="46.16868" lon="6.39099">
        <ele>853</ele>
        <time>2012-05-10T14:08:27Z</time>
      </trkpt>
      <trkpt lat="46.16858" lon="6.39097">
        <ele>853</ele>
        <time>2012-05-10T14:08:29Z</time>
      </trkpt>
      <trkpt lat="46.16847" lon="6.39096">
        <ele>853</ele>
        <time>2012-05-10T14:08:31Z</time>
      </trkpt>
      <trkpt lat="46.16838" lon="6.391">
        <ele>846</ele>
        <time>2012-05-10T14:08:33Z</time>
      </trkpt>
      <trkpt lat="46.16827" lon="6.39106">
        <ele>846</ele>
        <time>2012-05-10T14:08:35Z</time>
      </trkpt>
      <trkpt lat="46.16815" lon="6.39112">
        <ele>846</ele>
        <time>2012-05-10T14:08:37Z</time>
      </trkpt>
      <trkpt lat="46.16802" lon="6.39124">
        <ele>846</ele>
        <time>2012-05-10T14:08:39Z</time>
      </trkpt>
      <trkpt lat="46.16791" lon="6.39139">
        <ele>840</ele>
        <time>2012-05-10T14:08:41Z</time>
      </trkpt>
      <trkpt lat="46.16779" lon="6.3915">
        <ele>840</ele>
        <time>2012-05-10T14:08:43Z</time>
      </trkpt>
      <trkpt lat="46.16766" lon="6.39159">
        <ele>840</ele>
        <time>2012-05-10T14:08:45Z</time>
      </trkpt>
      <trkpt lat="46.16751" lon="6.3917">
        <ele>835</ele>
        <time>2012-05-10T14:08:47Z</time>
      </trkpt>
      <trkpt lat="46.16735" lon="6.3918">
        <ele>835</ele>
        <time>2012-05-10T14:08:49Z</time>
      </trkpt>
      <trkpt lat="46.16726" lon="6.39186">
        <ele>835</ele>
        <time>2012-05-10T14:08:50Z</time>
      </trkpt>
      <trkpt lat="46.16709" lon="6.39198">
        <ele>828</ele>
        <time>2012-05-10T14:08:52Z</time>
      </trkpt>
      <trkpt lat="46.167" lon="6.39205">
        <ele>828</ele>
        <time>2012-05-10T14:08:53Z</time>
      </trkpt>
      <trkpt lat="46.16692" lon="6.39214">
        <ele>828</ele>
        <time>2012-05-10T14:08:54Z</time>
      </trkpt>
      <trkpt lat="46.16682" lon="6.39221">
        <ele>828</ele>
        <time>2012-05-10T14:08:55Z</time>
      </trkpt>
      <trkpt lat="46.16674" lon="6.3923">
        <ele>828</ele>
        <time>2012-05-10T14:08:56Z</time>
      </trkpt>
      <trkpt lat="46.16666" lon="6.3924">
        <ele>828</ele>
        <time>2012-05-10T14:08:57Z</time>
      </trkpt>
      <trkpt lat="46.16657" lon="6.3925">
        <ele>822</ele>
        <time>2012-05-10T14:08:58Z</time>
      </trkpt>
      <trkpt lat="46.16649" lon="6.39259">
        <ele>822</ele>
        <time>2012-05-10T14:08:59Z</time>
      </trkpt>
      <trkpt lat="46.16641" lon="6.39268">
        <ele>822</ele>
        <time>2012-05-10T14:09:00Z</time>
      </trkpt>
      <trkpt lat="46.16634" lon="6.39277">
        <ele>817</ele>
        <time>2012-05-10T14:09:01Z</time>
      </trkpt>
      <trkpt lat="46.16626" lon="6.39286">
        <ele>817</ele>
        <time>2012-05-10T14:09:02Z</time>
      </trkpt>
      <trkpt lat="46.16617" lon="6.39296">
        <ele>817</ele>
        <time>2012-05-10T14:09:03Z</time>
      </trkpt>
      <trkpt lat="46.16609" lon="6.39306">
        <ele>811</ele>
        <time>2012-05-10T14:09:04Z</time>
      </trkpt>
      <trkpt lat="46.16601" lon="6.39315">
        <ele>811</ele>
        <time>2012-05-10T14:09:05Z</time>
      </trkpt>
      <trkpt lat="46.16588" lon="6.3933">
        <ele>811</ele>
        <time>2012-05-10T14:09:07Z</time>
      </trkpt>
      <trkpt lat="46.16574" lon="6.39344">
        <ele>804</ele>
        <time>2012-05-10T14:09:09Z</time>
      </trkpt>
      <trkpt lat="46.16562" lon="6.39361">
        <ele>804</ele>
        <time>2012-05-10T14:09:11Z</time>
      </trkpt>
      <trkpt lat="46.16556" lon="6.3938">
        <ele>804</ele>
        <time>2012-05-10T14:09:13Z</time>
      </trkpt>
      <trkpt lat="46.16553" lon="6.39392">
        <ele>797</ele>
        <time>2012-05-10T14:09:15Z</time>
      </trkpt>
      <trkpt lat="46.16546" lon="6.39403">
        <ele>797</ele>
        <time>2012-05-10T14:09:48Z</time>
      </trkpt>
      <trkpt lat="46.16533" lon="6.39408">
        <ele>797</ele>
        <time>2012-05-10T14:09:50Z</time>
      </trkpt>
      <trkpt lat="46.16515" lon="6.39411">
        <ele>797</ele>
        <time>2012-05-10T14:09:52Z</time>
      </trkpt>
      <trkpt lat="46.16498" lon="6.39417">
        <ele>797</ele>
        <time>2012-05-10T14:09:54Z</time>
      </trkpt>
      <trkpt lat="46.16488" lon="6.39424">
        <ele>797</ele>
        <time>2012-05-10T14:09:55Z</time>
      </trkpt>
      <trkpt lat="46.1648" lon="6.39433">
        <ele>797</ele>
        <time>2012-05-10T14:09:56Z</time>
      </trkpt>
      <trkpt lat="46.16471" lon="6.39444">
        <ele>792</ele>
        <time>2012-05-10T14:09:57Z</time>
      </trkpt>
      <trkpt lat="46.16462" lon="6.39456">
        <ele>792</ele>
        <time>2012-05-10T14:09:58Z</time>
      </trkpt>
      <trkpt lat="46.16453" lon="6.39467">
        <ele>792</ele>
        <time>2012-05-10T14:09:59Z</time>
      </trkpt>
      <trkpt lat="46.16446" lon="6.39477">
        <ele>792</ele>
        <time>2012-05-10T14:10:00Z</time>
      </trkpt>
      <trkpt lat="46.16437" lon="6.39486">
        <ele>792</ele>
        <time>2012-05-10T14:10:01Z</time>
      </trkpt>
      <trkpt lat="46.16431" lon="6.39497">
        <ele>785</ele>
        <time>2012-05-10T14:10:02Z</time>
      </trkpt>
      <trkpt lat="46.16425" lon="6.39519">
        <ele>785</ele>
        <time>2012-05-10T14:10:04Z</time>
      </trkpt>
      <trkpt lat="46.16424" lon="6.39539">
        <ele>780</ele>
        <time>2012-05-10T14:10:06Z</time>
      </trkpt>
      <trkpt lat="46.16426" lon="6.39557">
        <ele>780</ele>
        <time>2012-05-10T14:10:08Z</time>
      </trkpt>
      <trkpt lat="46.1643" lon="6.39574">
        <ele>780</ele>
        <time>2012-05-10T14:10:11Z</time>
      </trkpt>
      <trkpt lat="46.1643" lon="6.3959">
        <ele>780</ele>
        <time>2012-05-10T14:10:13Z</time>
      </trkpt>
      <trkpt lat="46.1643" lon="6.39611">
        <ele>780</ele>
        <time>2012-05-10T14:10:15Z</time>
      </trkpt>
      <trkpt lat="46.16429" lon="6.39625">
        <ele>780</ele>
        <time>2012-05-10T14:10:16Z</time>
      </trkpt>
      <trkpt lat="46.16427" lon="6.3964">
        <ele>780</ele>
        <time>2012-05-10T14:10:17Z</time>
      </trkpt>
      <trkpt lat="46.16425" lon="6.39655">
        <ele>780</ele>
        <time>2012-05-10T14:10:18Z</time>
      </trkpt>
      <trkpt lat="46.16421" lon="6.39671">
        <ele>780</ele>
        <time>2012-05-10T14:10:19Z</time>
      </trkpt>
      <trkpt lat="46.16417" lon="6.39687">
        <ele>780</ele>
        <time>2012-05-10T14:10:20Z</time>
      </trkpt>
      <trkpt lat="46.16413" lon="6.39699">
        <ele>780</ele>
        <time>2012-05-10T14:10:21Z</time>
      </trkpt>
      <trkpt lat="46.16407" lon="6.3971">
        <ele>780</ele>
        <time>2012-05-10T14:10:22Z</time>
      </trkpt>
      <trkpt lat="46.16398" lon="6.39729">
        <ele>780</ele>
        <time>2012-05-10T14:10:24Z</time>
      </trkpt>
      <trkpt lat="46.16391" lon="6.39742">
        <ele>780</ele>
        <time>2012-05-10T14:10:26Z</time>
      </trkpt>
      <trkpt lat="46.16386" lon="6.39756">
        <ele>780</ele>
        <time>2012-05-10T14:10:30Z</time>
      </trkpt>
      <trkpt lat="46.16387" lon="6.3977">
        <ele>780</ele>
        <time>2012-05-10T14:10:35Z</time>
      </trkpt>
      <trkpt lat="46.16377" lon="6.39767">
        <ele>780</ele>
        <time>2012-05-10T14:10:40Z</time>
      </trkpt>
      <trkpt lat="46.16368" lon="6.39759">
        <ele>780</ele>
        <time>2012-05-10T14:10:42Z</time>
      </trkpt>
      <trkpt lat="46.16357" lon="6.39752">
        <ele>780</ele>
        <time>2012-05-10T14:10:44Z</time>
      </trkpt>
      <trkpt lat="46.16343" lon="6.3975">
        <ele>780</ele>
        <time>2012-05-10T14:10:46Z</time>
      </trkpt>
      <trkpt lat="46.16327" lon="6.39751">
        <ele>780</ele>
        <time>2012-05-10T14:10:48Z</time>
      </trkpt>
      <trkpt lat="46.16311" lon="6.39756">
        <ele>772</ele>
        <time>2012-05-10T14:10:50Z</time>
      </trkpt>
      <trkpt lat="46.16297" lon="6.39764">
        <ele>772</ele>
        <time>2012-05-10T14:10:52Z</time>
      </trkpt>
      <trkpt lat="46.16285" lon="6.39771">
        <ele>767</ele>
        <time>2012-05-10T14:10:54Z</time>
      </trkpt>
      <trkpt lat="46.16273" lon="6.39775">
        <ele>767</ele>
        <time>2012-05-10T14:10:56Z</time>
      </trkpt>
      <trkpt lat="46.16264" lon="6.39768">
        <ele>767</ele>
        <time>2012-05-10T14:11:00Z</time>
      </trkpt>
      <trkpt lat="46.16254" lon="6.39763">
        <ele>757</ele>
        <time>2012-05-10T14:11:04Z</time>
      </trkpt>
      <trkpt lat="46.16244" lon="6.39764">
        <ele>757</ele>
        <time>2012-05-10T14:11:06Z</time>
      </trkpt>
      <trkpt lat="46.16234" lon="6.39766">
        <ele>751</ele>
        <time>2012-05-10T14:11:08Z</time>
      </trkpt>
      <trkpt lat="46.16225" lon="6.39771">
        <ele>751</ele>
        <time>2012-05-10T14:11:11Z</time>
      </trkpt>
      <trkpt lat="46.16217" lon="6.39779">
        <ele>751</ele>
        <time>2012-05-10T14:11:15Z</time>
      </trkpt>
      <trkpt lat="46.16202" lon="6.39784">
        <ele>743</ele>
        <time>2012-05-10T14:11:18Z</time>
      </trkpt>
      <trkpt lat="46.1619" lon="6.39784">
        <ele>743</ele>
        <time>2012-05-10T14:11:20Z</time>
      </trkpt>
      <trkpt lat="46.16178" lon="6.39783">
        <ele>743</ele>
        <time>2012-05-10T14:11:22Z</time>
      </trkpt>
      <trkpt lat="46.16166" lon="6.39786">
        <ele>735</ele>
        <time>2012-05-10T14:11:25Z</time>
      </trkpt>
      <trkpt lat="46.16156" lon="6.39783">
        <ele>735</ele>
        <time>2012-05-10T14:11:27Z</time>
      </trkpt>
      <trkpt lat="46.16147" lon="6.39781">
        <ele>735</ele>
        <time>2012-05-10T14:11:29Z</time>
      </trkpt>
      <trkpt lat="46.16136" lon="6.39779">
        <ele>735</ele>
        <time>2012-05-10T14:11:31Z</time>
      </trkpt>
      <trkpt lat="46.16126" lon="6.39778">
        <ele>735</ele>
        <time>2012-05-10T14:11:33Z</time>
      </trkpt>
      <trkpt lat="46.16116" lon="6.39779">
        <ele>735</ele>
        <time>2012-05-10T14:11:35Z</time>
      </trkpt>
      <trkpt lat="46.16106" lon="6.39781">
        <ele>730</ele>
        <time>2012-05-10T14:11:37Z</time>
      </trkpt>
      <trkpt lat="46.16098" lon="6.39787">
        <ele>723</ele>
        <time>2012-05-10T14:11:56Z</time>
      </trkpt>
      <trkpt lat="46.16089" lon="6.39792">
        <ele>723</ele>
        <time>2012-05-10T14:12:09Z</time>
      </trkpt>
      <trkpt lat="46.16079" lon="6.398">
        <ele>728</ele>
        <time>2012-05-10T14:12:13Z</time>
      </trkpt>
      <trkpt lat="46.16072" lon="6.3981">
        <ele>728</ele>
        <time>2012-05-10T14:12:24Z</time>
      </trkpt>
      <trkpt lat="46.16064" lon="6.39817">
        <ele>728</ele>
        <time>2012-05-10T14:12:27Z</time>
      </trkpt>
      <trkpt lat="46.16056" lon="6.39828">
        <ele>728</ele>
        <time>2012-05-10T14:12:29Z</time>
      </trkpt>
      <trkpt lat="46.16049" lon="6.3984">
        <ele>728</ele>
        <time>2012-05-10T14:12:31Z</time>
      </trkpt>
      <trkpt lat="46.16041" lon="6.39851">
        <ele>728</ele>
        <time>2012-05-10T14:12:33Z</time>
      </trkpt>
      <trkpt lat="46.16032" lon="6.39865">
        <ele>721</ele>
        <time>2012-05-10T14:12:35Z</time>
      </trkpt>
      <trkpt lat="46.16022" lon="6.39879">
        <ele>721</ele>
        <time>2012-05-10T14:12:37Z</time>
      </trkpt>
      <trkpt lat="46.16011" lon="6.3989">
        <ele>721</ele>
        <time>2012-05-10T14:12:39Z</time>
      </trkpt>
      <trkpt lat="46.15996" lon="6.39893">
        <ele>715</ele>
        <time>2012-05-10T14:12:41Z</time>
      </trkpt>
      <trkpt lat="46.15982" lon="6.39893">
        <ele>715</ele>
        <time>2012-05-10T14:12:43Z</time>
      </trkpt>
      <trkpt lat="46.15968" lon="6.39895">
        <ele>707</ele>
        <time>2012-05-10T14:12:45Z</time>
      </trkpt>
      <trkpt lat="46.15955" lon="6.39897">
        <ele>707</ele>
        <time>2012-05-10T14:12:47Z</time>
      </trkpt>
      <trkpt lat="46.15941" lon="6.39904">
        <ele>707</ele>
        <time>2012-05-10T14:12:49Z</time>
      </trkpt>
      <trkpt lat="46.15925" lon="6.39904">
        <ele>701</ele>
        <time>2012-05-10T14:12:51Z</time>
      </trkpt>
      <trkpt lat="46.15909" lon="6.39906">
        <ele>701</ele>
        <time>2012-05-10T14:12:53Z</time>
      </trkpt>
      <trkpt lat="46.15893" lon="6.3991">
        <ele>694</ele>
        <time>2012-05-10T14:12:55Z</time>
      </trkpt>
      <trkpt lat="46.15877" lon="6.39918">
        <ele>694</ele>
        <time>2012-05-10T14:12:57Z</time>
      </trkpt>
      <trkpt lat="46.15862" lon="6.39926">
        <ele>694</ele>
        <time>2012-05-10T14:12:59Z</time>
      </trkpt>
      <trkpt lat="46.15848" lon="6.39937">
        <ele>694</ele>
        <time>2012-05-10T14:13:01Z</time>
      </trkpt>
      <trkpt lat="46.15837" lon="6.39951">
        <ele>686</ele>
        <time>2012-05-10T14:13:03Z</time>
      </trkpt>
      <trkpt lat="46.15827" lon="6.39964">
        <ele>686</ele>
        <time>2012-05-10T14:13:05Z</time>
      </trkpt>
      <trkpt lat="46.15821" lon="6.39974">
        <ele>679</ele>
        <time>2012-05-10T14:13:07Z</time>
      </trkpt>
      <trkpt lat="46.15813" lon="6.39985">
        <ele>679</ele>
        <time>2012-05-10T14:13:10Z</time>
      </trkpt>
      <trkpt lat="46.15809" lon="6.39998">
        <ele>667</ele>
        <time>2012-05-10T14:13:22Z</time>
      </trkpt>
      <trkpt lat="46.15804" lon="6.40009">
        <ele>667</ele>
        <time>2012-05-10T14:13:24Z</time>
      </trkpt>
      <trkpt lat="46.15796" lon="6.40026">
        <ele>667</ele>
        <time>2012-05-10T14:13:26Z</time>
      </trkpt>
      <trkpt lat="46.1579" lon="6.40039">
        <ele>667</ele>
        <time>2012-05-10T14:13:27Z</time>
      </trkpt>
      <trkpt lat="46.15784" lon="6.40051">
        <ele>667</ele>
        <time>2012-05-10T14:13:28Z</time>
      </trkpt>
      <trkpt lat="46.15778" lon="6.40065">
        <ele>667</ele>
        <time>2012-05-10T14:13:29Z</time>
      </trkpt>
      <trkpt lat="46.15771" lon="6.40078">
        <ele>667</ele>
        <time>2012-05-10T14:13:30Z</time>
      </trkpt>
      <trkpt lat="46.15765" lon="6.4009">
        <ele>667</ele>
        <time>2012-05-10T14:13:31Z</time>
      </trkpt>
      <trkpt lat="46.15758" lon="6.40102">
        <ele>667</ele>
        <time>2012-05-10T14:13:32Z</time>
      </trkpt>
      <trkpt lat="46.15752" lon="6.40113">
        <ele>667</ele>
        <time>2012-05-10T14:13:33Z</time>
      </trkpt>
      <trkpt lat="46.15745" lon="6.40124">
        <ele>667</ele>
        <time>2012-05-10T14:13:34Z</time>
      </trkpt>
      <trkpt lat="46.15734" lon="6.40143">
        <ele>667</ele>
        <time>2012-05-10T14:13:36Z</time>
      </trkpt>
      <trkpt lat="46.15723" lon="6.40161">
        <ele>667</ele>
        <time>2012-05-10T14:13:38Z</time>
      </trkpt>
      <trkpt lat="46.15712" lon="6.40174">
        <ele>667</ele>
        <time>2012-05-10T14:13:40Z</time>
      </trkpt>
      <trkpt lat="46.15704" lon="6.40185">
        <ele>667</ele>
        <time>2012-05-10T14:13:42Z</time>
      </trkpt>
      <trkpt lat="46.15696" lon="6.40194">
        <ele>661</ele>
        <time>2012-05-10T14:13:44Z</time>
      </trkpt>
      <trkpt lat="46.15685" lon="6.40195">
        <ele>661</ele>
        <time>2012-05-10T14:13:46Z</time>
      </trkpt>
      <trkpt lat="46.15672" lon="6.40195">
        <ele>656</ele>
        <time>2012-05-10T14:13:48Z</time>
      </trkpt>
      <trkpt lat="46.15657" lon="6.40196">
        <ele>656</ele>
        <time>2012-05-10T14:13:50Z</time>
      </trkpt>
      <trkpt lat="46.15653" lon="6.40209">
        <ele>656</ele>
        <time>2012-05-10T14:13:53Z</time>
      </trkpt>
      <trkpt lat="46.15659" lon="6.40221">
        <ele>649</ele>
        <time>2012-05-10T14:13:56Z</time>
      </trkpt>
      <trkpt lat="46.15666" lon="6.40238">
        <ele>649</ele>
        <time>2012-05-10T14:13:59Z</time>
      </trkpt>
      <trkpt lat="46.15668" lon="6.40255">
        <ele>649</ele>
        <time>2012-05-10T14:14:01Z</time>
      </trkpt>
      <trkpt lat="46.15665" lon="6.40272">
        <ele>649</ele>
        <time>2012-05-10T14:14:03Z</time>
      </trkpt>
      <trkpt lat="46.15657" lon="6.40284">
        <ele>649</ele>
        <time>2012-05-10T14:14:05Z</time>
      </trkpt>
      <trkpt lat="46.15646" lon="6.40294">
        <ele>649</ele>
        <time>2012-05-10T14:14:07Z</time>
      </trkpt>
      <trkpt lat="46.15638" lon="6.40304">
        <ele>649</ele>
        <time>2012-05-10T14:14:09Z</time>
      </trkpt>
      <trkpt lat="46.15631" lon="6.40314">
        <ele>649</ele>
        <time>2012-05-10T14:14:11Z</time>
      </trkpt>
      <trkpt lat="46.15621" lon="6.40324">
        <ele>649</ele>
        <time>2012-05-10T14:14:13Z</time>
      </trkpt>
      <trkpt lat="46.15611" lon="6.40334">
        <ele>649</ele>
        <time>2012-05-10T14:14:15Z</time>
      </trkpt>
      <trkpt lat="46.15601" lon="6.40334">
        <ele>649</ele>
        <time>2012-05-10T14:14:37Z</time>
      </trkpt>
      <trkpt lat="46.15614" lon="6.40327">
        <ele>649</ele>
        <time>2012-05-10T14:14:42Z</time>
      </trkpt>
      <trkpt lat="46.15626" lon="6.40321">
        <ele>649</ele>
        <time>2012-05-10T14:14:44Z</time>
      </trkpt>
      <trkpt lat="46.15639" lon="6.40309">
        <ele>649</ele>
        <time>2012-05-10T14:14:46Z</time>
      </trkpt>
      <trkpt lat="46.15647" lon="6.40298">
        <ele>649</ele>
        <time>2012-05-10T14:14:48Z</time>
      </trkpt>
      <trkpt lat="46.15657" lon="6.4029">
        <ele>649</ele>
        <time>2012-05-10T14:14:51Z</time>
      </trkpt>
      <trkpt lat="46.15647" lon="6.40283">
        <ele>649</ele>
        <time>2012-05-10T14:14:59Z</time>
      </trkpt>
      <trkpt lat="46.15639" lon="6.40276">
        <ele>649</ele>
        <time>2012-05-10T14:15:03Z</time>
      </trkpt>
      <trkpt lat="46.15632" lon="6.40265">
        <ele>649</ele>
        <time>2012-05-10T14:15:07Z</time>
      </trkpt>
      <trkpt lat="46.15632" lon="6.40251">
        <ele>643</ele>
        <time>2012-05-10T14:15:10Z</time>
      </trkpt>
      <trkpt lat="46.15629" lon="6.40233">
        <ele>643</ele>
        <time>2012-05-10T14:15:14Z</time>
      </trkpt>
      <trkpt lat="46.15623" lon="6.4022">
        <ele>643</ele>
        <time>2012-05-10T14:15:16Z</time>
      </trkpt>
      <trkpt lat="46.15616" lon="6.40211">
        <ele>643</ele>
        <time>2012-05-10T14:15:23Z</time>
      </trkpt>
      <trkpt lat="46.15606" lon="6.40204">
        <ele>643</ele>
        <time>2012-05-10T14:15:31Z</time>
      </trkpt>
      <trkpt lat="46.15596" lon="6.40202">
        <ele>643</ele>
        <time>2012-05-10T14:15:34Z</time>
      </trkpt>
      <trkpt lat="46.15585" lon="6.40195">
        <ele>643</ele>
        <time>2012-05-10T14:15:38Z</time>
      </trkpt>
      <trkpt lat="46.15576" lon="6.40192">
        <ele>643</ele>
        <time>2012-05-10T14:15:40Z</time>
      </trkpt>
      <trkpt lat="46.15566" lon="6.40184">
        <ele>643</ele>
        <time>2012-05-10T14:15:43Z</time>
      </trkpt>
      <trkpt lat="46.15555" lon="6.40177">
        <ele>643</ele>
        <time>2012-05-10T14:15:46Z</time>
      </trkpt>
      <trkpt lat="46.15546" lon="6.40172">
        <ele>643</ele>
        <time>2012-05-10T14:15:49Z</time>
      </trkpt>
      <trkpt lat="46.15538" lon="6.40167">
        <ele>643</ele>
        <time>2012-05-10T14:15:53Z</time>
      </trkpt>
      <trkpt lat="46.15529" lon="6.40164">
        <ele>643</ele>
        <time>2012-05-10T14:16:01Z</time>
      </trkpt>
      <trkpt lat="46.15518" lon="6.40159">
        <ele>643</ele>
        <time>2012-05-10T14:16:04Z</time>
      </trkpt>
      <trkpt lat="46.15509" lon="6.4015">
        <ele>643</ele>
        <time>2012-05-10T14:16:06Z</time>
      </trkpt>
      <trkpt lat="46.15499" lon="6.40141">
        <ele>643</ele>
        <time>2012-05-10T14:16:09Z</time>
      </trkpt>
      <trkpt lat="46.1549" lon="6.40135">
        <ele>643</ele>
        <time>2012-05-10T14:16:14Z</time>
      </trkpt>
      <trkpt lat="46.15481" lon="6.40129">
        <ele>643</ele>
        <time>2012-05-10T14:16:18Z</time>
      </trkpt>
      <trkpt lat="46.15471" lon="6.40122">
        <ele>643</ele>
        <time>2012-05-10T14:16:22Z</time>
      </trkpt>
      <trkpt lat="46.15463" lon="6.40113">
        <ele>643</ele>
        <time>2012-05-10T14:16:30Z</time>
      </trkpt>
      <trkpt lat="46.15454" lon="6.40107">
        <ele>643</ele>
        <time>2012-05-10T14:16:35Z</time>
      </trkpt>
      <trkpt lat="46.15448" lon="6.40096">
        <ele>643</ele>
        <time>2012-05-10T14:16:52Z</time>
      </trkpt>
      <trkpt lat="46.15444" lon="6.40108">
        <ele>643</ele>
        <time>2012-05-10T14:17:07Z</time>
      </trkpt>
      <trkpt lat="46.15435" lon="6.40117">
        <ele>643</ele>
        <time>2012-05-10T14:17:15Z</time>
      </trkpt>
      <trkpt lat="46.15426" lon="6.40121">
        <ele>643</ele>
        <time>2012-05-10T14:17:19Z</time>
      </trkpt>
      <trkpt lat="46.1542" lon="6.40111">
        <ele>643</ele>
        <time>2012-05-10T14:17:23Z</time>
      </trkpt>
      <trkpt lat="46.15412" lon="6.40099">
        <ele>643</ele>
        <time>2012-05-10T14:17:26Z</time>
      </trkpt>
      <trkpt lat="46.15401" lon="6.40088">
        <ele>643</ele>
        <time>2012-05-10T14:17:29Z</time>
      </trkpt>
      <trkpt lat="46.15387" lon="6.40078">
        <ele>643</ele>
        <time>2012-05-10T14:17:35Z</time>
      </trkpt>
      <trkpt lat="46.15378" lon="6.40075">
        <ele>635</ele>
        <time>2012-05-10T14:17:38Z</time>
      </trkpt>
      <trkpt lat="46.15367" lon="6.40077">
        <ele>635</ele>
        <time>2012-05-10T14:17:42Z</time>
      </trkpt>
      <trkpt lat="46.15358" lon="6.40082">
        <ele>635</ele>
        <time>2012-05-10T14:17:49Z</time>
      </trkpt>
      <trkpt lat="46.15348" lon="6.40091">
        <ele>635</ele>
        <time>2012-05-10T14:17:52Z</time>
      </trkpt>
      <trkpt lat="46.15339" lon="6.40095">
        <ele>635</ele>
        <time>2012-05-10T14:17:54Z</time>
      </trkpt>
      <trkpt lat="46.15325" lon="6.40096">
        <ele>635</ele>
        <time>2012-05-10T14:17:57Z</time>
      </trkpt>
      <trkpt lat="46.15315" lon="6.40096">
        <ele>635</ele>
        <time>2012-05-10T14:17:59Z</time>
      </trkpt>
      <trkpt lat="46.15306" lon="6.40096">
        <ele>635</ele>
        <time>2012-05-10T14:18:01Z</time>
      </trkpt>
      <trkpt lat="46.15294" lon="6.40097">
        <ele>635</ele>
        <time>2012-05-10T14:18:04Z</time>
      </trkpt>
      <trkpt lat="46.15285" lon="6.40103">
        <ele>635</ele>
        <time>2012-05-10T14:18:07Z</time>
      </trkpt>
      <trkpt lat="46.15275" lon="6.40104">
        <ele>635</ele>
        <time>2012-05-10T14:18:10Z</time>
      </trkpt>
      <trkpt lat="46.15265" lon="6.40097">
        <ele>635</ele>
        <time>2012-05-10T14:18:13Z</time>
      </trkpt>
      <trkpt lat="46.15258" lon="6.40087">
        <ele>635</ele>
        <time>2012-05-10T14:18:17Z</time>
      </trkpt>
      <trkpt lat="46.15247" lon="6.4008">
        <ele>635</ele>
        <time>2012-05-10T14:18:20Z</time>
      </trkpt>
      <trkpt lat="46.15237" lon="6.40073">
        <ele>635</ele>
        <time>2012-05-10T14:18:23Z</time>
      </trkpt>
      <trkpt lat="46.15225" lon="6.40061">
        <ele>635</ele>
        <time>2012-05-10T14:18:27Z</time>
      </trkpt>
      <trkpt lat="46.15216" lon="6.40053">
        <ele>635</ele>
        <time>2012-05-10T14:18:29Z</time>
      </trkpt>
      <trkpt lat="46.15207" lon="6.40047">
        <ele>635</ele>
        <time>2012-05-10T14:18:32Z</time>
      </trkpt>
      <trkpt lat="46.15197" lon="6.40042">
        <ele>635</ele>
        <time>2012-05-10T14:18:35Z</time>
      </trkpt>
      <trkpt lat="46.15187" lon="6.40041">
        <ele>635</ele>
        <time>2012-05-10T14:18:39Z</time>
      </trkpt>
      <trkpt lat="46.15179" lon="6.40033">
        <ele>635</ele>
        <time>2012-05-10T14:19:02Z</time>
      </trkpt>
      <trkpt lat="46.15164" lon="6.40034">
        <ele>635</ele>
        <time>2012-05-10T14:19:05Z</time>
      </trkpt>
      <trkpt lat="46.15151" lon="6.40036">
        <ele>628</ele>
        <time>2012-05-10T14:19:07Z</time>
      </trkpt>
      <trkpt lat="46.15136" lon="6.4004">
        <ele>628</ele>
        <time>2012-05-10T14:19:09Z</time>
      </trkpt>
      <trkpt lat="46.15121" lon="6.40044">
        <ele>622</ele>
        <time>2012-05-10T14:19:11Z</time>
      </trkpt>
      <trkpt lat="46.15106" lon="6.40048">
        <ele>622</ele>
        <time>2012-05-10T14:19:13Z</time>
      </trkpt>
      <trkpt lat="46.15096" lon="6.40051">
        <ele>622</ele>
        <time>2012-05-10T14:19:15Z</time>
      </trkpt>
      <trkpt lat="46.15082" lon="6.40051">
        <ele>622</ele>
        <time>2012-05-10T14:19:17Z</time>
      </trkpt>
      <trkpt lat="46.15065" lon="6.4005">
        <ele>622</ele>
        <time>2012-05-10T14:19:19Z</time>
      </trkpt>
      <trkpt lat="46.15054" lon="6.40051">
        <ele>622</ele>
        <time>2012-05-10T14:19:20Z</time>
      </trkpt>
      <trkpt lat="46.15044" lon="6.40051">
        <ele>622</ele>
        <time>2012-05-10T14:19:21Z</time>
      </trkpt>
      <trkpt lat="46.15031" lon="6.40052">
        <ele>622</ele>
        <time>2012-05-10T14:19:23Z</time>
      </trkpt>
      <trkpt lat="46.15021" lon="6.40055">
        <ele>622</ele>
        <time>2012-05-10T14:19:26Z</time>
      </trkpt>
      <trkpt lat="46.15008" lon="6.40059">
        <ele>622</ele>
        <time>2012-05-10T14:19:28Z</time>
      </trkpt>
      <trkpt lat="46.14993" lon="6.40063">
        <ele>622</ele>
        <time>2012-05-10T14:19:30Z</time>
      </trkpt>
      <trkpt lat="46.14982" lon="6.40067">
        <ele>622</ele>
        <time>2012-05-10T14:19:32Z</time>
      </trkpt>
      <trkpt lat="46.14993" lon="6.40061">
        <ele>622</ele>
        <time>2012-05-10T14:19:56Z</time>
      </trkpt>
      <trkpt lat="46.15003" lon="6.40059">
        <ele>622</ele>
        <time>2012-05-10T14:19:58Z</time>
      </trkpt>
      <trkpt lat="46.15013" lon="6.40057">
        <ele>622</ele>
        <time>2012-05-10T14:20:00Z</time>
      </trkpt>
      <trkpt lat="46.15023" lon="6.40053">
        <ele>622</ele>
        <time>2012-05-10T14:20:03Z</time>
      </trkpt>
      <trkpt lat="46.15018" lon="6.40039">
        <ele>615</ele>
        <time>2012-05-10T14:20:13Z</time>
      </trkpt>
      <trkpt lat="46.15014" lon="6.40025">
        <ele>615</ele>
        <time>2012-05-10T14:20:15Z</time>
      </trkpt>
      <trkpt lat="46.15014" lon="6.40012">
        <ele>615</ele>
        <time>2012-05-10T14:20:17Z</time>
      </trkpt>
      <trkpt lat="46.15016" lon="6.39998">
        <ele>621</ele>
        <time>2012-05-10T14:20:20Z</time>
      </trkpt>
      <trkpt lat="46.15018" lon="6.39983">
        <ele>615</ele>
        <time>2012-05-10T14:20:50Z</time>
      </trkpt>
      <trkpt lat="46.1501" lon="6.39975">
        <ele>615</ele>
        <time>2012-05-10T14:20:53Z</time>
      </trkpt>
      <trkpt lat="46.14999" lon="6.39973">
        <ele>615</ele>
        <time>2012-05-10T14:20:56Z</time>
      </trkpt>
      <trkpt lat="46.14991" lon="6.39978">
        <ele>627</ele>
        <time>2012-05-10T14:21:04Z</time>
      </trkpt>
      <trkpt lat="46.14981" lon="6.39985">
        <ele>627</ele>
        <time>2012-05-10T14:21:08Z</time>
      </trkpt>
      <trkpt lat="46.14976" lon="6.40008">
        <ele>627</ele>
        <time>2012-05-10T14:21:10Z</time>
      </trkpt>
      <trkpt lat="46.14973" lon="6.40022">
        <ele>627</ele>
        <time>2012-05-10T14:21:11Z</time>
      </trkpt>
      <trkpt lat="46.14971" lon="6.40035">
        <ele>627</ele>
        <time>2012-05-10T14:21:12Z</time>
      </trkpt>
      <trkpt lat="46.14969" lon="6.4006">
        <ele>627</ele>
        <time>2012-05-10T14:21:14Z</time>
      </trkpt>
      <trkpt lat="46.14965" lon="6.4008">
        <ele>627</ele>
        <time>2012-05-10T14:21:16Z</time>
      </trkpt>
      <trkpt lat="46.14962" lon="6.40096">
        <ele>627</ele>
        <time>2012-05-10T14:21:18Z</time>
      </trkpt>
      <trkpt lat="46.1495" lon="6.40102">
        <ele>627</ele>
        <time>2012-05-10T14:21:22Z</time>
      </trkpt>
      <trkpt lat="46.14936" lon="6.40102">
        <ele>627</ele>
        <time>2012-05-10T14:21:24Z</time>
      </trkpt>
      <trkpt lat="46.14926" lon="6.40102">
        <ele>627</ele>
        <time>2012-05-10T14:21:25Z</time>
      </trkpt>
      <trkpt lat="46.14916" lon="6.40104">
        <ele>627</ele>
        <time>2012-05-10T14:21:26Z</time>
      </trkpt>
      <trkpt lat="46.14906" lon="6.40105">
        <ele>627</ele>
        <time>2012-05-10T14:21:27Z</time>
      </trkpt>
      <trkpt lat="46.14896" lon="6.40107">
        <ele>621</ele>
        <time>2012-05-10T14:21:28Z</time>
      </trkpt>
      <trkpt lat="46.14886" lon="6.40108">
        <ele>621</ele>
        <time>2012-05-10T14:21:29Z</time>
      </trkpt>
      <trkpt lat="46.14877" lon="6.40107">
        <ele>621</ele>
        <time>2012-05-10T14:21:30Z</time>
      </trkpt>
      <trkpt lat="46.14868" lon="6.40104">
        <ele>621</ele>
        <time>2012-05-10T14:21:31Z</time>
      </trkpt>
      <trkpt lat="46.1485" lon="6.40099">
        <ele>621</ele>
        <time>2012-05-10T14:21:33Z</time>
      </trkpt>
      <trkpt lat="46.14834" lon="6.40093">
        <ele>621</ele>
        <time>2012-05-10T14:21:35Z</time>
      </trkpt>
      <trkpt lat="46.14827" lon="6.40083">
        <ele>621</ele>
        <time>2012-05-10T14:21:37Z</time>
      </trkpt>
      <trkpt lat="46.14829" lon="6.40068">
        <ele>616</ele>
        <time>2012-05-10T14:21:39Z</time>
      </trkpt>
      <trkpt lat="46.14825" lon="6.40055">
        <ele>616</ele>
        <time>2012-05-10T14:21:41Z</time>
      </trkpt>
      <trkpt lat="46.14819" lon="6.40044">
        <ele>616</ele>
        <time>2012-05-10T14:21:43Z</time>
      </trkpt>
      <trkpt lat="46.14811" lon="6.40034">
        <ele>616</ele>
        <time>2012-05-10T14:21:45Z</time>
      </trkpt>
      <trkpt lat="46.14799" lon="6.40027">
        <ele>616</ele>
        <time>2012-05-10T14:21:48Z</time>
      </trkpt>
      <trkpt lat="46.14789" lon="6.40027">
        <ele>616</ele>
        <time>2012-05-10T14:21:50Z</time>
      </trkpt>
      <trkpt lat="46.14777" lon="6.40025">
        <ele>616</ele>
        <time>2012-05-10T14:21:52Z</time>
      </trkpt>
      <trkpt lat="46.14768" lon="6.40008">
        <ele>616</ele>
        <time>2012-05-10T14:21:54Z</time>
      </trkpt>
      <trkpt lat="46.1476" lon="6.39998">
        <ele>616</ele>
        <time>2012-05-10T14:21:56Z</time>
      </trkpt>
      <trkpt lat="46.1475" lon="6.39985">
        <ele>611</ele>
        <time>2012-05-10T14:21:59Z</time>
      </trkpt>
      <trkpt lat="46.14741" lon="6.39979">
        <ele>611</ele>
        <time>2012-05-10T14:22:01Z</time>
      </trkpt>
      <trkpt lat="46.1473" lon="6.3998">
        <ele>611</ele>
        <time>2012-05-10T14:22:03Z</time>
      </trkpt>
      <trkpt lat="46.1472" lon="6.39986">
        <ele>611</ele>
        <time>2012-05-10T14:22:05Z</time>
      </trkpt>
      <trkpt lat="46.14706" lon="6.39998">
        <ele>616</ele>
        <time>2012-05-10T14:22:07Z</time>
      </trkpt>
      <trkpt lat="46.14692" lon="6.40007">
        <ele>616</ele>
        <time>2012-05-10T14:22:09Z</time>
      </trkpt>
      <trkpt lat="46.14677" lon="6.40008">
        <ele>616</ele>
        <time>2012-05-10T14:22:11Z</time>
      </trkpt>
      <trkpt lat="46.14662" lon="6.39995">
        <ele>616</ele>
        <time>2012-05-10T14:22:13Z</time>
      </trkpt>
      <trkpt lat="46.1465" lon="6.39981">
        <ele>616</ele>
        <time>2012-05-10T14:22:15Z</time>
      </trkpt>
      <trkpt lat="46.14642" lon="6.39965">
        <ele>609</ele>
        <time>2012-05-10T14:22:17Z</time>
      </trkpt>
      <trkpt lat="46.14635" lon="6.3995">
        <ele>609</ele>
        <time>2012-05-10T14:22:19Z</time>
      </trkpt>
      <trkpt lat="46.14625" lon="6.39938">
        <ele>609</ele>
        <time>2012-05-10T14:22:21Z</time>
      </trkpt>
      <trkpt lat="46.14615" lon="6.39929">
        <ele>609</ele>
        <time>2012-05-10T14:22:23Z</time>
      </trkpt>
      <trkpt lat="46.14605" lon="6.39919">
        <ele>609</ele>
        <time>2012-05-10T14:22:25Z</time>
      </trkpt>
      <trkpt lat="46.14595" lon="6.39911">
        <ele>609</ele>
        <time>2012-05-10T14:22:27Z</time>
      </trkpt>
      <trkpt lat="46.14587" lon="6.39898">
        <ele>609</ele>
        <time>2012-05-10T14:22:30Z</time>
      </trkpt>
      <trkpt lat="46.14582" lon="6.39884">
        <ele>609</ele>
        <time>2012-05-10T14:22:34Z</time>
      </trkpt>
      <trkpt lat="46.14582" lon="6.39866">
        <ele>609</ele>
        <time>2012-05-10T14:22:38Z</time>
      </trkpt>
      <trkpt lat="46.14574" lon="6.39862">
        <ele>609</ele>
        <time>2012-05-10T14:22:44Z</time>
      </trkpt>
      <trkpt lat="46.14564" lon="6.39856">
        <ele>609</ele>
        <time>2012-05-10T14:22:47Z</time>
      </trkpt>
      <trkpt lat="46.14554" lon="6.39851">
        <ele>609</ele>
        <time>2012-05-10T14:22:49Z</time>
      </trkpt>
      <trkpt lat="46.14542" lon="6.39844">
        <ele>609</ele>
        <time>2012-05-10T14:22:51Z</time>
      </trkpt>
      <trkpt lat="46.14533" lon="6.39836">
        <ele>609</ele>
        <time>2012-05-10T14:22:53Z</time>
      </trkpt>
      <trkpt lat="46.14523" lon="6.39826">
        <ele>609</ele>
        <time>2012-05-10T14:22:55Z</time>
      </trkpt>
      <trkpt lat="46.14512" lon="6.39817">
        <ele>609</ele>
        <time>2012-05-10T14:22:57Z</time>
      </trkpt>
      <trkpt lat="46.14504" lon="6.39809">
        <ele>609</ele>
        <time>2012-05-10T14:22:59Z</time>
      </trkpt>
      <trkpt lat="46.14496" lon="6.39803">
        <ele>603</ele>
        <time>2012-05-10T14:23:01Z</time>
      </trkpt>
      <trkpt lat="46.14485" lon="6.39796">
        <ele>603</ele>
        <time>2012-05-10T14:23:03Z</time>
      </trkpt>
      <trkpt lat="46.14474" lon="6.39793">
        <ele>603</ele>
        <time>2012-05-10T14:23:05Z</time>
      </trkpt>
      <trkpt lat="46.14462" lon="6.39792">
        <ele>603</ele>
        <time>2012-05-10T14:23:07Z</time>
      </trkpt>
      <trkpt lat="46.14452" lon="6.39793">
        <ele>603</ele>
        <time>2012-05-10T14:23:09Z</time>
      </trkpt>
      <trkpt lat="46.14447" lon="6.3978">
        <ele>609</ele>
        <time>2012-05-10T14:23:20Z</time>
      </trkpt>
      <trkpt lat="46.14452" lon="6.39768">
        <ele>609</ele>
        <time>2012-05-10T14:23:21Z</time>
      </trkpt>
      <trkpt lat="46.14461" lon="6.39751">
        <ele>609</ele>
        <time>2012-05-10T14:23:22Z</time>
      </trkpt>
      <trkpt lat="46.14469" lon="6.39731">
        <ele>609</ele>
        <time>2012-05-10T14:23:23Z</time>
      </trkpt>
      <trkpt lat="46.14478" lon="6.39711">
        <ele>609</ele>
        <time>2012-05-10T14:23:24Z</time>
      </trkpt>
      <trkpt lat="46.14486" lon="6.3969">
        <ele>609</ele>
        <time>2012-05-10T14:23:25Z</time>
      </trkpt>
      <trkpt lat="46.14494" lon="6.39671">
        <ele>609</ele>
        <time>2012-05-10T14:23:26Z</time>
      </trkpt>
      <trkpt lat="46.145" lon="6.39651">
        <ele>609</ele>
        <time>2012-05-10T14:23:27Z</time>
      </trkpt>
      <trkpt lat="46.14507" lon="6.39633">
        <ele>603</ele>
        <time>2012-05-10T14:23:28Z</time>
      </trkpt>
      <trkpt lat="46.14513" lon="6.39616">
        <ele>603</ele>
        <time>2012-05-10T14:23:29Z</time>
      </trkpt>
      <trkpt lat="46.14519" lon="6.39601">
        <ele>603</ele>
        <time>2012-05-10T14:23:30Z</time>
      </trkpt>
      <trkpt lat="46.14526" lon="6.39586">
        <ele>603</ele>
        <time>2012-05-10T14:23:31Z</time>
      </trkpt>
      <trkpt lat="46.14531" lon="6.39574">
        <ele>603</ele>
        <time>2012-05-10T14:23:32Z</time>
      </trkpt>
      <trkpt lat="46.14536" lon="6.39561">
        <ele>603</ele>
        <time>2012-05-10T14:23:33Z</time>
      </trkpt>
      <trkpt lat="46.14541" lon="6.39548">
        <ele>603</ele>
        <time>2012-05-10T14:23:34Z</time>
      </trkpt>
      <trkpt lat="46.14547" lon="6.39533">
        <ele>603</ele>
        <time>2012-05-10T14:23:35Z</time>
      </trkpt>
      <trkpt lat="46.14552" lon="6.3952">
        <ele>598</ele>
        <time>2012-05-10T14:23:36Z</time>
      </trkpt>
      <trkpt lat="46.14558" lon="6.39506">
        <ele>598</ele>
        <time>2012-05-10T14:23:37Z</time>
      </trkpt>
      <trkpt lat="46.14564" lon="6.39494">
        <ele>598</ele>
        <time>2012-05-10T14:23:38Z</time>
      </trkpt>
      <trkpt lat="46.14569" lon="6.39482">
        <ele>598</ele>
        <time>2012-05-10T14:23:39Z</time>
      </trkpt>
      <trkpt lat="46.14575" lon="6.39471">
        <ele>598</ele>
        <time>2012-05-10T14:23:40Z</time>
      </trkpt>
      <trkpt lat="46.14585" lon="6.39449">
        <ele>598</ele>
        <time>2012-05-10T14:23:42Z</time>
      </trkpt>
      <trkpt lat="46.1459" lon="6.39435">
        <ele>598</ele>
        <time>2012-05-10T14:23:43Z</time>
      </trkpt>
      <trkpt lat="46.14594" lon="6.3942">
        <ele>598</ele>
        <time>2012-05-10T14:23:44Z</time>
      </trkpt>
      <trkpt lat="46.14596" lon="6.39403">
        <ele>598</ele>
        <time>2012-05-10T14:23:45Z</time>
      </trkpt>
      <trkpt lat="46.14599" lon="6.39384">
        <ele>598</ele>
        <time>2012-05-10T14:23:46Z</time>
      </trkpt>
      <trkpt lat="46.14602" lon="6.39365">
        <ele>598</ele>
        <time>2012-05-10T14:23:47Z</time>
      </trkpt>
      <trkpt lat="46.14603" lon="6.39345">
        <ele>598</ele>
        <time>2012-05-10T14:23:48Z</time>
      </trkpt>
      <trkpt lat="46.14604" lon="6.39326">
        <ele>598</ele>
        <time>2012-05-10T14:23:49Z</time>
      </trkpt>
      <trkpt lat="46.14605" lon="6.39305">
        <ele>598</ele>
        <time>2012-05-10T14:23:50Z</time>
      </trkpt>
      <trkpt lat="46.14605" lon="6.39284">
        <ele>598</ele>
        <time>2012-05-10T14:23:51Z</time>
      </trkpt>
      <trkpt lat="46.14604" lon="6.39263">
        <ele>598</ele>
        <time>2012-05-10T14:23:52Z</time>
      </trkpt>
      <trkpt lat="46.14604" lon="6.39242">
        <ele>593</ele>
        <time>2012-05-10T14:23:53Z</time>
      </trkpt>
      <trkpt lat="46.14602" lon="6.39221">
        <ele>593</ele>
        <time>2012-05-10T14:23:54Z</time>
      </trkpt>
      <trkpt lat="46.14601" lon="6.39199">
        <ele>593</ele>
        <time>2012-05-10T14:23:55Z</time>
      </trkpt>
      <trkpt lat="46.146" lon="6.39177">
        <ele>593</ele>
        <time>2012-05-10T14:23:56Z</time>
      </trkpt>
      <trkpt lat="46.14598" lon="6.39154">
        <ele>593</ele>
        <time>2012-05-10T14:23:57Z</time>
      </trkpt>
      <trkpt lat="46.14597" lon="6.39131">
        <ele>593</ele>
        <time>2012-05-10T14:23:58Z</time>
      </trkpt>
      <trkpt lat="46.14596" lon="6.39107">
        <ele>593</ele>
        <time>2012-05-10T14:23:59Z</time>
      </trkpt>
      <trkpt lat="46.14594" lon="6.39085">
        <ele>593</ele>
        <time>2012-05-10T14:24:00Z</time>
      </trkpt>
      <trkpt lat="46.14592" lon="6.39062">
        <ele>593</ele>
        <time>2012-05-10T14:24:01Z</time>
      </trkpt>
      <trkpt lat="46.1459" lon="6.3904">
        <ele>593</ele>
        <time>2012-05-10T14:24:02Z</time>
      </trkpt>
      <trkpt lat="46.14589" lon="6.39018">
        <ele>593</ele>
        <time>2012-05-10T14:24:03Z</time>
      </trkpt>
      <trkpt lat="46.14587" lon="6.38994">
        <ele>593</ele>
        <time>2012-05-10T14:24:04Z</time>
      </trkpt>
      <trkpt lat="46.14585" lon="6.38971">
        <ele>593</ele>
        <time>2012-05-10T14:24:05Z</time>
      </trkpt>
      <trkpt lat="46.14584" lon="6.38949">
        <ele>593</ele>
        <time>2012-05-10T14:24:06Z</time>
      </trkpt>
      <trkpt lat="46.14582" lon="6.38928">
        <ele>593</ele>
        <time>2012-05-10T14:24:07Z</time>
      </trkpt>
      <trkpt lat="46.1458" lon="6.38906">
        <ele>593</ele>
        <time>2012-05-10T14:24:08Z</time>
      </trkpt>
      <trkpt lat="46.14579" lon="6.38885">
        <ele>593</ele>
        <time>2012-05-10T14:24:09Z</time>
      </trkpt>
      <trkpt lat="46.14577" lon="6.38866">
        <ele>593</ele>
        <time>2012-05-10T14:24:10Z</time>
      </trkpt>
      <trkpt lat="46.14575" lon="6.38847">
        <ele>588</ele>
        <time>2012-05-10T14:24:11Z</time>
      </trkpt>
      <trkpt lat="46.14574" lon="6.38828">
        <ele>588</ele>
        <time>2012-05-10T14:24:12Z</time>
      </trkpt>
      <trkpt lat="46.14573" lon="6.3881">
        <ele>588</ele>
        <time>2012-05-10T14:24:13Z</time>
      </trkpt>
      <trkpt lat="46.1457" lon="6.38791">
        <ele>588</ele>
        <time>2012-05-10T14:24:14Z</time>
      </trkpt>
      <trkpt lat="46.14569" lon="6.38773">
        <ele>588</ele>
        <time>2012-05-10T14:24:15Z</time>
      </trkpt>
      <trkpt lat="46.14567" lon="6.38755">
        <ele>588</ele>
        <time>2012-05-10T14:24:16Z</time>
      </trkpt>
      <trkpt lat="46.14566" lon="6.38738">
        <ele>588</ele>
        <time>2012-05-10T14:24:17Z</time>
      </trkpt>
      <trkpt lat="46.14565" lon="6.38721">
        <ele>588</ele>
        <time>2012-05-10T14:24:18Z</time>
      </trkpt>
      <trkpt lat="46.14565" lon="6.38704">
        <ele>588</ele>
        <time>2012-05-10T14:24:19Z</time>
      </trkpt>
      <trkpt lat="46.14567" lon="6.38689">
        <ele>582</ele>
        <time>2012-05-10T14:24:20Z</time>
      </trkpt>
      <trkpt lat="46.14567" lon="6.38674">
        <ele>582</ele>
        <time>2012-05-10T14:24:21Z</time>
      </trkpt>
      <trkpt lat="46.1457" lon="6.3866">
        <ele>582</ele>
        <time>2012-05-10T14:24:22Z</time>
      </trkpt>
      <trkpt lat="46.14576" lon="6.38638">
        <ele>582</ele>
        <time>2012-05-10T14:24:24Z</time>
      </trkpt>
      <trkpt lat="46.14579" lon="6.3862">
        <ele>582</ele>
        <time>2012-05-10T14:24:26Z</time>
      </trkpt>
      <trkpt lat="46.14574" lon="6.38605">
        <ele>582</ele>
        <time>2012-05-10T14:24:28Z</time>
      </trkpt>
      <trkpt lat="46.14565" lon="6.38585">
        <ele>577</ele>
        <time>2012-05-10T14:24:30Z</time>
      </trkpt>
      <trkpt lat="46.1456" lon="6.38574">
        <ele>577</ele>
        <time>2012-05-10T14:24:31Z</time>
      </trkpt>
      <trkpt lat="46.14555" lon="6.38563">
        <ele>577</ele>
        <time>2012-05-10T14:24:32Z</time>
      </trkpt>
      <trkpt lat="46.14541" lon="6.38545">
        <ele>577</ele>
        <time>2012-05-10T14:24:34Z</time>
      </trkpt>
      <trkpt lat="46.14532" lon="6.38537">
        <ele>577</ele>
        <time>2012-05-10T14:24:35Z</time>
      </trkpt>
      <trkpt lat="46.14522" lon="6.3853">
        <ele>577</ele>
        <time>2012-05-10T14:24:36Z</time>
      </trkpt>
      <trkpt lat="46.14509" lon="6.38525">
        <ele>577</ele>
        <time>2012-05-10T14:24:37Z</time>
      </trkpt>
      <trkpt lat="46.14496" lon="6.38522">
        <ele>577</ele>
        <time>2012-05-10T14:24:38Z</time>
      </trkpt>
      <trkpt lat="46.14484" lon="6.38519">
        <ele>577</ele>
        <time>2012-05-10T14:24:39Z</time>
      </trkpt>
      <trkpt lat="46.14471" lon="6.38514">
        <ele>577</ele>
        <time>2012-05-10T14:24:40Z</time>
      </trkpt>
      <trkpt lat="46.14461" lon="6.3851">
        <ele>577</ele>
        <time>2012-05-10T14:24:41Z</time>
      </trkpt>
      <trkpt lat="46.14451" lon="6.38503">
        <ele>577</ele>
        <time>2012-05-10T14:24:42Z</time>
      </trkpt>
      <trkpt lat="46.14443" lon="6.38496">
        <ele>577</ele>
        <time>2012-05-10T14:24:43Z</time>
      </trkpt>
      <trkpt lat="46.14431" lon="6.38479">
        <ele>577</ele>
        <time>2012-05-10T14:24:45Z</time>
      </trkpt>
      <trkpt lat="46.14421" lon="6.3847">
        <ele>577</ele>
        <time>2012-05-10T14:24:47Z</time>
      </trkpt>
      <trkpt lat="46.14408" lon="6.38464">
        <ele>577</ele>
        <time>2012-05-10T14:24:49Z</time>
      </trkpt>
      <trkpt lat="46.14394" lon="6.38456">
        <ele>577</ele>
        <time>2012-05-10T14:24:51Z</time>
      </trkpt>
      <trkpt lat="46.14381" lon="6.38452">
        <ele>577</ele>
        <time>2012-05-10T14:24:54Z</time>
      </trkpt>
      <trkpt lat="46.14371" lon="6.38461">
        <ele>582</ele>
        <time>2012-05-10T14:24:57Z</time>
      </trkpt>
      <trkpt lat="46.14365" lon="6.38479">
        <ele>582</ele>
        <time>2012-05-10T14:25:00Z</time>
      </trkpt>
      <trkpt lat="46.14356" lon="6.38488">
        <ele>582</ele>
        <time>2012-05-10T14:25:02Z</time>
      </trkpt>
      <trkpt lat="46.14344" lon="6.38498">
        <ele>582</ele>
        <time>2012-05-10T14:25:04Z</time>
      </trkpt>
      <trkpt lat="46.14336" lon="6.38514">
        <ele>582</ele>
        <time>2012-05-10T14:25:05Z</time>
      </trkpt>
      <trkpt lat="46.14329" lon="6.38528">
        <ele>582</ele>
        <time>2012-05-10T14:25:06Z</time>
      </trkpt>
      <trkpt lat="46.14322" lon="6.38541">
        <ele>582</ele>
        <time>2012-05-10T14:25:07Z</time>
      </trkpt>
      <trkpt lat="46.14314" lon="6.3855">
        <ele>582</ele>
        <time>2012-05-10T14:25:08Z</time>
      </trkpt>
      <trkpt lat="46.143" lon="6.38561">
        <ele>582</ele>
        <time>2012-05-10T14:25:10Z</time>
      </trkpt>
      <trkpt lat="46.14283" lon="6.38556">
        <ele>582</ele>
        <time>2012-05-10T14:25:12Z</time>
      </trkpt>
      <trkpt lat="46.14267" lon="6.3855">
        <ele>582</ele>
        <time>2012-05-10T14:25:14Z</time>
      </trkpt>
      <trkpt lat="46.1425" lon="6.38556">
        <ele>582</ele>
        <time>2012-05-10T14:25:16Z</time>
      </trkpt>
      <trkpt lat="46.14233" lon="6.38565">
        <ele>582</ele>
        <time>2012-05-10T14:25:18Z</time>
      </trkpt>
      <trkpt lat="46.14223" lon="6.38569">
        <ele>582</ele>
        <time>2012-05-10T14:25:19Z</time>
      </trkpt>
      <trkpt lat="46.14213" lon="6.38573">
        <ele>582</ele>
        <time>2012-05-10T14:25:20Z</time>
      </trkpt>
      <trkpt lat="46.14203" lon="6.38576">
        <ele>582</ele>
        <time>2012-05-10T14:25:21Z</time>
      </trkpt>
      <trkpt lat="46.14193" lon="6.38579">
        <ele>582</ele>
        <time>2012-05-10T14:25:22Z</time>
      </trkpt>
      <trkpt lat="46.14183" lon="6.38581">
        <ele>582</ele>
        <time>2012-05-10T14:25:23Z</time>
      </trkpt>
      <trkpt lat="46.14172" lon="6.38581">
        <ele>582</ele>
        <time>2012-05-10T14:25:24Z</time>
      </trkpt>
      <trkpt lat="46.14161" lon="6.38579">
        <ele>582</ele>
        <time>2012-05-10T14:25:25Z</time>
      </trkpt>
      <trkpt lat="46.14147" lon="6.3858">
        <ele>582</ele>
        <time>2012-05-10T14:25:26Z</time>
      </trkpt>
      <trkpt lat="46.14133" lon="6.38579">
        <ele>582</ele>
        <time>2012-05-10T14:25:27Z</time>
      </trkpt>
      <trkpt lat="46.1412" lon="6.38579">
        <ele>588</ele>
        <time>2012-05-10T14:25:28Z</time>
      </trkpt>
      <trkpt lat="46.14107" lon="6.38582">
        <ele>588</ele>
        <time>2012-05-10T14:25:29Z</time>
      </trkpt>
      <trkpt lat="46.14095" lon="6.38585">
        <ele>588</ele>
        <time>2012-05-10T14:25:30Z</time>
      </trkpt>
      <trkpt lat="46.14084" lon="6.3859">
        <ele>588</ele>
        <time>2012-05-10T14:25:31Z</time>
      </trkpt>
      <trkpt lat="46.14073" lon="6.38594">
        <ele>588</ele>
        <time>2012-05-10T14:25:32Z</time>
      </trkpt>
      <trkpt lat="46.14062" lon="6.38598">
        <ele>588</ele>
        <time>2012-05-10T14:25:33Z</time>
      </trkpt>
      <trkpt lat="46.14051" lon="6.38599">
        <ele>588</ele>
        <time>2012-05-10T14:25:34Z</time>
      </trkpt>
      <trkpt lat="46.1404" lon="6.38597">
        <ele>588</ele>
        <time>2012-05-10T14:25:35Z</time>
      </trkpt>
      <trkpt lat="46.14029" lon="6.38594">
        <ele>588</ele>
        <time>2012-05-10T14:25:36Z</time>
      </trkpt>
      <trkpt lat="46.1402" lon="6.38594">
        <ele>588</ele>
        <time>2012-05-10T14:25:37Z</time>
      </trkpt>
      <trkpt lat="46.14005" lon="6.38593">
        <ele>588</ele>
        <time>2012-05-10T14:25:39Z</time>
      </trkpt>
      <trkpt lat="46.13995" lon="6.38597">
        <ele>588</ele>
        <time>2012-05-10T14:25:41Z</time>
      </trkpt>
      <trkpt lat="46.13985" lon="6.38605">
        <ele>588</ele>
        <time>2012-05-10T14:25:44Z</time>
      </trkpt>
      <trkpt lat="46.13975" lon="6.38613">
        <ele>588</ele>
        <time>2012-05-10T14:25:47Z</time>
      </trkpt>
      <trkpt lat="46.13961" lon="6.3862">
        <ele>588</ele>
        <time>2012-05-10T14:25:49Z</time>
      </trkpt>
      <trkpt lat="46.13944" lon="6.38627">
        <ele>588</ele>
        <time>2012-05-10T14:25:51Z</time>
      </trkpt>
      <trkpt lat="46.13934" lon="6.38631">
        <ele>588</ele>
        <time>2012-05-10T14:25:52Z</time>
      </trkpt>
      <trkpt lat="46.13924" lon="6.38636">
        <ele>588</ele>
        <time>2012-05-10T14:25:53Z</time>
      </trkpt>
      <trkpt lat="46.13915" lon="6.38641">
        <ele>588</ele>
        <time>2012-05-10T14:25:54Z</time>
      </trkpt>
      <trkpt lat="46.13905" lon="6.38645">
        <ele>588</ele>
        <time>2012-05-10T14:25:55Z</time>
      </trkpt>
      <trkpt lat="46.13895" lon="6.38648">
        <ele>588</ele>
        <time>2012-05-10T14:25:56Z</time>
      </trkpt>
      <trkpt lat="46.13885" lon="6.38649">
        <ele>588</ele>
        <time>2012-05-10T14:25:57Z</time>
      </trkpt>
      <trkpt lat="46.13874" lon="6.3865">
        <ele>588</ele>
        <time>2012-05-10T14:25:58Z</time>
      </trkpt>
      <trkpt lat="46.13864" lon="6.38653">
        <ele>588</ele>
        <time>2012-05-10T14:25:59Z</time>
      </trkpt>
      <trkpt lat="46.13853" lon="6.38656">
        <ele>588</ele>
        <time>2012-05-10T14:26:00Z</time>
      </trkpt>
      <trkpt lat="46.13842" lon="6.3866">
        <ele>588</ele>
        <time>2012-05-10T14:26:01Z</time>
      </trkpt>
      <trkpt lat="46.13831" lon="6.38665">
        <ele>588</ele>
        <time>2012-05-10T14:26:02Z</time>
      </trkpt>
      <trkpt lat="46.1382" lon="6.3867">
        <ele>588</ele>
        <time>2012-05-10T14:26:03Z</time>
      </trkpt>
      <trkpt lat="46.13809" lon="6.38675">
        <ele>588</ele>
        <time>2012-05-10T14:26:04Z</time>
      </trkpt>
      <trkpt lat="46.13798" lon="6.38682">
        <ele>588</ele>
        <time>2012-05-10T14:26:05Z</time>
      </trkpt>
      <trkpt lat="46.13787" lon="6.38689">
        <ele>588</ele>
        <time>2012-05-10T14:26:06Z</time>
      </trkpt>
      <trkpt lat="46.13778" lon="6.38699">
        <ele>588</ele>
        <time>2012-05-10T14:26:07Z</time>
      </trkpt>
      <trkpt lat="46.13769" lon="6.38708">
        <ele>588</ele>
        <time>2012-05-10T14:26:08Z</time>
      </trkpt>
      <trkpt lat="46.13761" lon="6.38716">
        <ele>588</ele>
        <time>2012-05-10T14:26:09Z</time>
      </trkpt>
      <trkpt lat="46.13752" lon="6.38723">
        <ele>588</ele>
        <time>2012-05-10T14:26:10Z</time>
      </trkpt>
      <trkpt lat="46.13743" lon="6.38726">
        <ele>588</ele>
        <time>2012-05-10T14:26:11Z</time>
      </trkpt>
      <trkpt lat="46.13732" lon="6.38726">
        <ele>588</ele>
        <time>2012-05-10T14:26:12Z</time>
      </trkpt>
      <trkpt lat="46.13722" lon="6.38728">
        <ele>588</ele>
        <time>2012-05-10T14:26:13Z</time>
      </trkpt>
      <trkpt lat="46.13713" lon="6.38731">
        <ele>588</ele>
        <time>2012-05-10T14:26:14Z</time>
      </trkpt>
      <trkpt lat="46.13696" lon="6.38734">
        <ele>582</ele>
        <time>2012-05-10T14:26:16Z</time>
      </trkpt>
      <trkpt lat="46.13681" lon="6.38738">
        <ele>582</ele>
        <time>2012-05-10T14:26:18Z</time>
      </trkpt>
      <trkpt lat="46.13664" lon="6.38745">
        <ele>582</ele>
        <time>2012-05-10T14:26:20Z</time>
      </trkpt>
      <trkpt lat="46.13648" lon="6.38759">
        <ele>582</ele>
        <time>2012-05-10T14:26:22Z</time>
      </trkpt>
      <trkpt lat="46.13634" lon="6.38758">
        <ele>582</ele>
        <time>2012-05-10T14:26:24Z</time>
      </trkpt>
      <trkpt lat="46.13624" lon="6.38748">
        <ele>582</ele>
        <time>2012-05-10T14:26:25Z</time>
      </trkpt>
      <trkpt lat="46.13615" lon="6.38739">
        <ele>582</ele>
        <time>2012-05-10T14:26:26Z</time>
      </trkpt>
      <trkpt lat="46.13606" lon="6.38731">
        <ele>582</ele>
        <time>2012-05-10T14:26:27Z</time>
      </trkpt>
      <trkpt lat="46.13597" lon="6.38725">
        <ele>582</ele>
        <time>2012-05-10T14:26:28Z</time>
      </trkpt>
      <trkpt lat="46.13588" lon="6.38721">
        <ele>582</ele>
        <time>2012-05-10T14:26:29Z</time>
      </trkpt>
      <trkpt lat="46.13569" lon="6.38719">
        <ele>582</ele>
        <time>2012-05-10T14:26:31Z</time>
      </trkpt>
      <trkpt lat="46.13557" lon="6.38719">
        <ele>582</ele>
        <time>2012-05-10T14:26:32Z</time>
      </trkpt>
      <trkpt lat="46.13545" lon="6.38719">
        <ele>582</ele>
        <time>2012-05-10T14:26:33Z</time>
      </trkpt>
      <trkpt lat="46.13532" lon="6.38719">
        <ele>582</ele>
        <time>2012-05-10T14:26:34Z</time>
      </trkpt>
      <trkpt lat="46.13521" lon="6.38719">
        <ele>588</ele>
        <time>2012-05-10T14:26:35Z</time>
      </trkpt>
      <trkpt lat="46.13511" lon="6.38721">
        <ele>588</ele>
        <time>2012-05-10T14:26:36Z</time>
      </trkpt>
      <trkpt lat="46.13496" lon="6.38724">
        <ele>588</ele>
        <time>2012-05-10T14:26:38Z</time>
      </trkpt>
      <trkpt lat="46.13484" lon="6.38719">
        <ele>593</ele>
        <time>2012-05-10T14:27:10Z</time>
      </trkpt>
      <trkpt lat="46.13471" lon="6.38711">
        <ele>593</ele>
        <time>2012-05-10T14:27:12Z</time>
      </trkpt>
      <trkpt lat="46.13462" lon="6.38707">
        <ele>593</ele>
        <time>2012-05-10T14:27:13Z</time>
      </trkpt>
      <trkpt lat="46.13453" lon="6.38702">
        <ele>593</ele>
        <time>2012-05-10T14:27:14Z</time>
      </trkpt>
      <trkpt lat="46.13442" lon="6.38699">
        <ele>593</ele>
        <time>2012-05-10T14:27:15Z</time>
      </trkpt>
      <trkpt lat="46.13431" lon="6.38695">
        <ele>593</ele>
        <time>2012-05-10T14:27:16Z</time>
      </trkpt>
      <trkpt lat="46.1342" lon="6.38693">
        <ele>593</ele>
        <time>2012-05-10T14:27:17Z</time>
      </trkpt>
      <trkpt lat="46.1341" lon="6.38694">
        <ele>593</ele>
        <time>2012-05-10T14:27:18Z</time>
      </trkpt>
      <trkpt lat="46.13401" lon="6.38696">
        <ele>593</ele>
        <time>2012-05-10T14:27:19Z</time>
      </trkpt>
      <trkpt lat="46.13387" lon="6.38695">
        <ele>600</ele>
        <time>2012-05-10T14:27:21Z</time>
      </trkpt>
      <trkpt lat="46.13378" lon="6.38685">
        <ele>600</ele>
        <time>2012-05-10T14:27:23Z</time>
      </trkpt>
      <trkpt lat="46.13372" lon="6.38669">
        <ele>600</ele>
        <time>2012-05-10T14:27:25Z</time>
      </trkpt>
      <trkpt lat="46.13363" lon="6.38648">
        <ele>600</ele>
        <time>2012-05-10T14:27:27Z</time>
      </trkpt>
      <trkpt lat="46.13354" lon="6.38628">
        <ele>600</ele>
        <time>2012-05-10T14:27:29Z</time>
      </trkpt>
      <trkpt lat="46.13345" lon="6.38608">
        <ele>605</ele>
        <time>2012-05-10T14:27:31Z</time>
      </trkpt>
      <trkpt lat="46.13335" lon="6.38589">
        <ele>605</ele>
        <time>2012-05-10T14:27:33Z</time>
      </trkpt>
      <trkpt lat="46.13326" lon="6.3857">
        <ele>605</ele>
        <time>2012-05-10T14:27:35Z</time>
      </trkpt>
      <trkpt lat="46.13318" lon="6.38549">
        <ele>613</ele>
        <time>2012-05-10T14:27:37Z</time>
      </trkpt>
      <trkpt lat="46.13315" lon="6.38536">
        <ele>613</ele>
        <time>2012-05-10T14:27:38Z</time>
      </trkpt>
      <trkpt lat="46.1331" lon="6.38523">
        <ele>613</ele>
        <time>2012-05-10T14:27:39Z</time>
      </trkpt>
      <trkpt lat="46.13307" lon="6.38511">
        <ele>613</ele>
        <time>2012-05-10T14:27:40Z</time>
      </trkpt>
      <trkpt lat="46.13299" lon="6.38491">
        <ele>620</ele>
        <time>2012-05-10T14:27:42Z</time>
      </trkpt>
      <trkpt lat="46.13289" lon="6.38477">
        <ele>620</ele>
        <time>2012-05-10T14:27:44Z</time>
      </trkpt>
      <trkpt lat="46.13281" lon="6.38463">
        <ele>620</ele>
        <time>2012-05-10T14:27:46Z</time>
      </trkpt>
      <trkpt lat="46.13273" lon="6.3845">
        <ele>620</ele>
        <time>2012-05-10T14:27:48Z</time>
      </trkpt>
      <trkpt lat="46.13264" lon="6.38437">
        <ele>620</ele>
        <time>2012-05-10T14:27:50Z</time>
      </trkpt>
      <trkpt lat="46.13253" lon="6.38422">
        <ele>620</ele>
        <time>2012-05-10T14:27:52Z</time>
      </trkpt>
      <trkpt lat="46.13243" lon="6.38406">
        <ele>629</ele>
        <time>2012-05-10T14:27:54Z</time>
      </trkpt>
      <trkpt lat="46.13229" lon="6.38395">
        <ele>629</ele>
        <time>2012-05-10T14:27:56Z</time>
      </trkpt>
      <trkpt lat="46.13215" lon="6.38383">
        <ele>634</ele>
        <time>2012-05-10T14:27:58Z</time>
      </trkpt>
      <trkpt lat="46.13209" lon="6.38374">
        <ele>634</ele>
        <time>2012-05-10T14:27:59Z</time>
      </trkpt>
      <trkpt lat="46.13196" lon="6.38359">
        <ele>640</ele>
        <time>2012-05-10T14:28:01Z</time>
      </trkpt>
      <trkpt lat="46.13185" lon="6.38343">
        <ele>640</ele>
        <time>2012-05-10T14:28:03Z</time>
      </trkpt>
      <trkpt lat="46.13178" lon="6.38324">
        <ele>640</ele>
        <time>2012-05-10T14:28:05Z</time>
      </trkpt>
      <trkpt lat="46.13168" lon="6.38304">
        <ele>640</ele>
        <time>2012-05-10T14:28:07Z</time>
      </trkpt>
      <trkpt lat="46.13162" lon="6.38293">
        <ele>648</ele>
        <time>2012-05-10T14:28:08Z</time>
      </trkpt>
      <trkpt lat="46.13155" lon="6.38284">
        <ele>648</ele>
        <time>2012-05-10T14:28:09Z</time>
      </trkpt>
      <trkpt lat="46.13144" lon="6.38267">
        <ele>648</ele>
        <time>2012-05-10T14:28:11Z</time>
      </trkpt>
      <trkpt lat="46.13132" lon="6.38251">
        <ele>648</ele>
        <time>2012-05-10T14:28:13Z</time>
      </trkpt>
      <trkpt lat="46.13122" lon="6.38237">
        <ele>656</ele>
        <time>2012-05-10T14:28:15Z</time>
      </trkpt>
      <trkpt lat="46.1311" lon="6.38226">
        <ele>656</ele>
        <time>2012-05-10T14:28:17Z</time>
      </trkpt>
      <trkpt lat="46.13098" lon="6.38214">
        <ele>656</ele>
        <time>2012-05-10T14:28:19Z</time>
      </trkpt>
      <trkpt lat="46.13089" lon="6.38204">
        <ele>656</ele>
        <time>2012-05-10T14:28:21Z</time>
      </trkpt>
      <trkpt lat="46.13085" lon="6.38187">
        <ele>656</ele>
        <time>2012-05-10T14:28:24Z</time>
      </trkpt>
      <trkpt lat="46.1309" lon="6.38175">
        <ele>656</ele>
        <time>2012-05-10T14:28:26Z</time>
      </trkpt>
      <trkpt lat="46.13096" lon="6.38162">
        <ele>656</ele>
        <time>2012-05-10T14:28:28Z</time>
      </trkpt>
      <trkpt lat="46.13102" lon="6.38145">
        <ele>656</ele>
        <time>2012-05-10T14:28:40Z</time>
      </trkpt>
      <trkpt lat="46.13107" lon="6.38134">
        <ele>656</ele>
        <time>2012-05-10T14:28:41Z</time>
      </trkpt>
      <trkpt lat="46.13113" lon="6.38119">
        <ele>656</ele>
        <time>2012-05-10T14:28:42Z</time>
      </trkpt>
      <trkpt lat="46.13122" lon="6.38102">
        <ele>661</ele>
        <time>2012-05-10T14:28:43Z</time>
      </trkpt>
      <trkpt lat="46.1313" lon="6.38085">
        <ele>661</ele>
        <time>2012-05-10T14:28:44Z</time>
      </trkpt>
      <trkpt lat="46.13138" lon="6.3807">
        <ele>661</ele>
        <time>2012-05-10T14:28:45Z</time>
      </trkpt>
      <trkpt lat="46.13147" lon="6.38056">
        <ele>661</ele>
        <time>2012-05-10T14:28:46Z</time>
      </trkpt>
      <trkpt lat="46.13155" lon="6.38046">
        <ele>661</ele>
        <time>2012-05-10T14:28:47Z</time>
      </trkpt>
      <trkpt lat="46.13164" lon="6.38038">
        <ele>667</ele>
        <time>2012-05-10T14:28:48Z</time>
      </trkpt>
      <trkpt lat="46.13175" lon="6.38032">
        <ele>667</ele>
        <time>2012-05-10T14:28:49Z</time>
      </trkpt>
      <trkpt lat="46.13186" lon="6.38027">
        <ele>667</ele>
        <time>2012-05-10T14:28:50Z</time>
      </trkpt>
      <trkpt lat="46.13197" lon="6.38024">
        <ele>667</ele>
        <time>2012-05-10T14:28:51Z</time>
      </trkpt>
      <trkpt lat="46.13207" lon="6.38021">
        <ele>672</ele>
        <time>2012-05-10T14:28:52Z</time>
      </trkpt>
      <trkpt lat="46.13222" lon="6.38009">
        <ele>672</ele>
        <time>2012-05-10T14:28:54Z</time>
      </trkpt>
      <trkpt lat="46.13232" lon="6.37989">
        <ele>672</ele>
        <time>2012-05-10T14:28:56Z</time>
      </trkpt>
      <trkpt lat="46.13232" lon="6.37963">
        <ele>672</ele>
        <time>2012-05-10T14:28:58Z</time>
      </trkpt>
      <trkpt lat="46.13227" lon="6.37949">
        <ele>678</ele>
        <time>2012-05-10T14:28:59Z</time>
      </trkpt>
      <trkpt lat="46.13222" lon="6.37935">
        <ele>678</ele>
        <time>2012-05-10T14:29:00Z</time>
      </trkpt>
      <trkpt lat="46.13217" lon="6.37921">
        <ele>678</ele>
        <time>2012-05-10T14:29:01Z</time>
      </trkpt>
      <trkpt lat="46.13212" lon="6.37907">
        <ele>678</ele>
        <time>2012-05-10T14:29:02Z</time>
      </trkpt>
      <trkpt lat="46.13207" lon="6.37893">
        <ele>678</ele>
        <time>2012-05-10T14:29:03Z</time>
      </trkpt>
      <trkpt lat="46.13202" lon="6.3788">
        <ele>678</ele>
        <time>2012-05-10T14:29:04Z</time>
      </trkpt>
      <trkpt lat="46.13199" lon="6.37868">
        <ele>678</ele>
        <time>2012-05-10T14:29:05Z</time>
      </trkpt>
      <trkpt lat="46.13197" lon="6.37842">
        <ele>678</ele>
        <time>2012-05-10T14:29:07Z</time>
      </trkpt>
      <trkpt lat="46.13199" lon="6.37827">
        <ele>684</ele>
        <time>2012-05-10T14:29:08Z</time>
      </trkpt>
      <trkpt lat="46.132" lon="6.37814">
        <ele>684</ele>
        <time>2012-05-10T14:29:09Z</time>
      </trkpt>
      <trkpt lat="46.13208" lon="6.37791">
        <ele>684</ele>
        <time>2012-05-10T14:29:11Z</time>
      </trkpt>
      <trkpt lat="46.13215" lon="6.37774">
        <ele>684</ele>
        <time>2012-05-10T14:29:13Z</time>
      </trkpt>
      <trkpt lat="46.13215" lon="6.37756">
        <ele>684</ele>
        <time>2012-05-10T14:29:15Z</time>
      </trkpt>
      <trkpt lat="46.13206" lon="6.37737">
        <ele>684</ele>
        <time>2012-05-10T14:29:17Z</time>
      </trkpt>
      <trkpt lat="46.13202" lon="6.37725">
        <ele>684</ele>
        <time>2012-05-10T14:29:18Z</time>
      </trkpt>
      <trkpt lat="46.13197" lon="6.37712">
        <ele>684</ele>
        <time>2012-05-10T14:29:19Z</time>
      </trkpt>
      <trkpt lat="46.13192" lon="6.37698">
        <ele>684</ele>
        <time>2012-05-10T14:29:20Z</time>
      </trkpt>
      <trkpt lat="46.13188" lon="6.37683">
        <ele>684</ele>
        <time>2012-05-10T14:29:21Z</time>
      </trkpt>
      <trkpt lat="46.13184" lon="6.37666">
        <ele>684</ele>
        <time>2012-05-10T14:29:22Z</time>
      </trkpt>
      <trkpt lat="46.1318" lon="6.37648">
        <ele>684</ele>
        <time>2012-05-10T14:29:23Z</time>
      </trkpt>
      <trkpt lat="46.13177" lon="6.37631">
        <ele>689</ele>
        <time>2012-05-10T14:29:24Z</time>
      </trkpt>
      <trkpt lat="46.13172" lon="6.37613">
        <ele>689</ele>
        <time>2012-05-10T14:29:25Z</time>
      </trkpt>
      <trkpt lat="46.13166" lon="6.37599">
        <ele>689</ele>
        <time>2012-05-10T14:29:26Z</time>
      </trkpt>
      <trkpt lat="46.1316" lon="6.37587">
        <ele>689</ele>
        <time>2012-05-10T14:29:27Z</time>
      </trkpt>
      <trkpt lat="46.13155" lon="6.37569">
        <ele>689</ele>
        <time>2012-05-10T14:29:29Z</time>
      </trkpt>
      <trkpt lat="46.13157" lon="6.37554">
        <ele>689</ele>
        <time>2012-05-10T14:29:31Z</time>
      </trkpt>
      <trkpt lat="46.13154" lon="6.37532">
        <ele>689</ele>
        <time>2012-05-10T14:29:33Z</time>
      </trkpt>
      <trkpt lat="46.13151" lon="6.37518">
        <ele>694</ele>
        <time>2012-05-10T14:29:34Z</time>
      </trkpt>
      <trkpt lat="46.13147" lon="6.37505">
        <ele>694</ele>
        <time>2012-05-10T14:29:35Z</time>
      </trkpt>
      <trkpt lat="46.13142" lon="6.3749">
        <ele>694</ele>
        <time>2012-05-10T14:29:36Z</time>
      </trkpt>
      <trkpt lat="46.13135" lon="6.37479">
        <ele>694</ele>
        <time>2012-05-10T14:29:37Z</time>
      </trkpt>
      <trkpt lat="46.13124" lon="6.37467">
        <ele>694</ele>
        <time>2012-05-10T14:29:38Z</time>
      </trkpt>
      <trkpt lat="46.13114" lon="6.37458">
        <ele>694</ele>
        <time>2012-05-10T14:29:39Z</time>
      </trkpt>
      <trkpt lat="46.13104" lon="6.37448">
        <ele>694</ele>
        <time>2012-05-10T14:29:40Z</time>
      </trkpt>
      <trkpt lat="46.13095" lon="6.37438">
        <ele>694</ele>
        <time>2012-05-10T14:29:41Z</time>
      </trkpt>
      <trkpt lat="46.13089" lon="6.37426">
        <ele>700</ele>
        <time>2012-05-10T14:29:42Z</time>
      </trkpt>
      <trkpt lat="46.13083" lon="6.37411">
        <ele>700</ele>
        <time>2012-05-10T14:29:43Z</time>
      </trkpt>
      <trkpt lat="46.13079" lon="6.37395">
        <ele>700</ele>
        <time>2012-05-10T14:29:44Z</time>
      </trkpt>
      <trkpt lat="46.13075" lon="6.3738">
        <ele>700</ele>
        <time>2012-05-10T14:29:45Z</time>
      </trkpt>
      <trkpt lat="46.13069" lon="6.37365">
        <ele>705</ele>
        <time>2012-05-10T14:29:46Z</time>
      </trkpt>
      <trkpt lat="46.13062" lon="6.37348">
        <ele>705</ele>
        <time>2012-05-10T14:29:47Z</time>
      </trkpt>
      <trkpt lat="46.13056" lon="6.37333">
        <ele>711</ele>
        <time>2012-05-10T14:29:48Z</time>
      </trkpt>
      <trkpt lat="46.13048" lon="6.37319">
        <ele>711</ele>
        <time>2012-05-10T14:29:49Z</time>
      </trkpt>
      <trkpt lat="46.13041" lon="6.37305">
        <ele>711</ele>
        <time>2012-05-10T14:29:50Z</time>
      </trkpt>
      <trkpt lat="46.13034" lon="6.37291">
        <ele>711</ele>
        <time>2012-05-10T14:29:51Z</time>
      </trkpt>
      <trkpt lat="46.13029" lon="6.37279">
        <ele>716</ele>
        <time>2012-05-10T14:29:52Z</time>
      </trkpt>
      <trkpt lat="46.1302" lon="6.3726">
        <ele>716</ele>
        <time>2012-05-10T14:29:54Z</time>
      </trkpt>
      <trkpt lat="46.13011" lon="6.37244">
        <ele>716</ele>
        <time>2012-05-10T14:29:56Z</time>
      </trkpt>
      <trkpt lat="46.13001" lon="6.37229">
        <ele>722</ele>
        <time>2012-05-10T14:29:58Z</time>
      </trkpt>
      <trkpt lat="46.12993" lon="6.3722">
        <ele>722</ele>
        <time>2012-05-10T14:30:01Z</time>
      </trkpt>
      <trkpt lat="46.12979" lon="6.37227">
        <ele>722</ele>
        <time>2012-05-10T14:30:05Z</time>
      </trkpt>
      <trkpt lat="46.12966" lon="6.37238">
        <ele>722</ele>
        <time>2012-05-10T14:30:07Z</time>
      </trkpt>
      <trkpt lat="46.12952" lon="6.37248">
        <ele>722</ele>
        <time>2012-05-10T14:30:09Z</time>
      </trkpt>
      <trkpt lat="46.12935" lon="6.37252">
        <ele>722</ele>
        <time>2012-05-10T14:30:11Z</time>
      </trkpt>
      <trkpt lat="46.12926" lon="6.37252">
        <ele>722</ele>
        <time>2012-05-10T14:30:12Z</time>
      </trkpt>
      <trkpt lat="46.12915" lon="6.37253">
        <ele>722</ele>
        <time>2012-05-10T14:30:13Z</time>
      </trkpt>
      <trkpt lat="46.12905" lon="6.37253">
        <ele>722</ele>
        <time>2012-05-10T14:30:14Z</time>
      </trkpt>
      <trkpt lat="46.12895" lon="6.37254">
        <ele>722</ele>
        <time>2012-05-10T14:30:15Z</time>
      </trkpt>
      <trkpt lat="46.12884" lon="6.37254">
        <ele>722</ele>
        <time>2012-05-10T14:30:16Z</time>
      </trkpt>
      <trkpt lat="46.12873" lon="6.37256">
        <ele>722</ele>
        <time>2012-05-10T14:30:17Z</time>
      </trkpt>
      <trkpt lat="46.12863" lon="6.3726">
        <ele>722</ele>
        <time>2012-05-10T14:30:18Z</time>
      </trkpt>
      <trkpt lat="46.12851" lon="6.37264">
        <ele>722</ele>
        <time>2012-05-10T14:30:19Z</time>
      </trkpt>
      <trkpt lat="46.12841" lon="6.37269">
        <ele>722</ele>
        <time>2012-05-10T14:30:20Z</time>
      </trkpt>
      <trkpt lat="46.12831" lon="6.37272">
        <ele>722</ele>
        <time>2012-05-10T14:30:21Z</time>
      </trkpt>
      <trkpt lat="46.12821" lon="6.37275">
        <ele>722</ele>
        <time>2012-05-10T14:30:22Z</time>
      </trkpt>
      <trkpt lat="46.12813" lon="6.37278">
        <ele>722</ele>
        <time>2012-05-10T14:30:23Z</time>
      </trkpt>
      <trkpt lat="46.12804" lon="6.37282">
        <ele>722</ele>
        <time>2012-05-10T14:30:24Z</time>
      </trkpt>
      <trkpt lat="46.12795" lon="6.37286">
        <ele>722</ele>
        <time>2012-05-10T14:30:25Z</time>
      </trkpt>
      <trkpt lat="46.12786" lon="6.37293">
        <ele>722</ele>
        <time>2012-05-10T14:30:26Z</time>
      </trkpt>
      <trkpt lat="46.12776" lon="6.373">
        <ele>722</ele>
        <time>2012-05-10T14:30:27Z</time>
      </trkpt>
      <trkpt lat="46.12766" lon="6.37307">
        <ele>722</ele>
        <time>2012-05-10T14:30:28Z</time>
      </trkpt>
      <trkpt lat="46.12756" lon="6.37313">
        <ele>722</ele>
        <time>2012-05-10T14:30:29Z</time>
      </trkpt>
      <trkpt lat="46.12746" lon="6.37318">
        <ele>722</ele>
        <time>2012-05-10T14:30:30Z</time>
      </trkpt>
      <trkpt lat="46.12735" lon="6.3732">
        <ele>722</ele>
        <time>2012-05-10T14:30:31Z</time>
      </trkpt>
      <trkpt lat="46.12723" lon="6.37322">
        <ele>722</ele>
        <time>2012-05-10T14:30:32Z</time>
      </trkpt>
      <trkpt lat="46.12711" lon="6.37322">
        <ele>722</ele>
        <time>2012-05-10T14:30:33Z</time>
      </trkpt>
      <trkpt lat="46.12697" lon="6.37323">
        <ele>722</ele>
        <time>2012-05-10T14:30:34Z</time>
      </trkpt>
      <trkpt lat="46.12683" lon="6.37323">
        <ele>722</ele>
        <time>2012-05-10T14:30:35Z</time>
      </trkpt>
      <trkpt lat="46.1267" lon="6.37325">
        <ele>722</ele>
        <time>2012-05-10T14:30:36Z</time>
      </trkpt>
      <trkpt lat="46.12656" lon="6.37326">
        <ele>722</ele>
        <time>2012-05-10T14:30:37Z</time>
      </trkpt>
      <trkpt lat="46.12645" lon="6.37327">
        <ele>722</ele>
        <time>2012-05-10T14:30:38Z</time>
      </trkpt>
      <trkpt lat="46.12634" lon="6.37327">
        <ele>722</ele>
        <time>2012-05-10T14:30:39Z</time>
      </trkpt>
      <trkpt lat="46.12625" lon="6.37326">
        <ele>722</ele>
        <time>2012-05-10T14:30:40Z</time>
      </trkpt>
      <trkpt lat="46.12614" lon="6.37323">
        <ele>722</ele>
        <time>2012-05-10T14:30:41Z</time>
      </trkpt>
      <trkpt lat="46.12603" lon="6.37319">
        <ele>722</ele>
        <time>2012-05-10T14:30:42Z</time>
      </trkpt>
      <trkpt lat="46.12593" lon="6.37313">
        <ele>722</ele>
        <time>2012-05-10T14:30:43Z</time>
      </trkpt>
      <trkpt lat="46.12581" lon="6.37306">
        <ele>722</ele>
        <time>2012-05-10T14:30:44Z</time>
      </trkpt>
      <trkpt lat="46.1257" lon="6.373">
        <ele>722</ele>
        <time>2012-05-10T14:30:45Z</time>
      </trkpt>
      <trkpt lat="46.12557" lon="6.37293">
        <ele>722</ele>
        <time>2012-05-10T14:30:46Z</time>
      </trkpt>
      <trkpt lat="46.12545" lon="6.37286">
        <ele>727</ele>
        <time>2012-05-10T14:30:47Z</time>
      </trkpt>
      <trkpt lat="46.12533" lon="6.37278">
        <ele>727</ele>
        <time>2012-05-10T14:30:48Z</time>
      </trkpt>
      <trkpt lat="46.12521" lon="6.3727">
        <ele>727</ele>
        <time>2012-05-10T14:30:49Z</time>
      </trkpt>
      <trkpt lat="46.12511" lon="6.37263">
        <ele>727</ele>
        <time>2012-05-10T14:30:50Z</time>
      </trkpt>
      <trkpt lat="46.12503" lon="6.37256">
        <ele>727</ele>
        <time>2012-05-10T14:30:51Z</time>
      </trkpt>
      <trkpt lat="46.12491" lon="6.37247">
        <ele>727</ele>
        <time>2012-05-10T14:30:53Z</time>
      </trkpt>
      <trkpt lat="46.12477" lon="6.37245">
        <ele>734</ele>
        <time>2012-05-10T14:30:55Z</time>
      </trkpt>
      <trkpt lat="46.12461" lon="6.37242">
        <ele>734</ele>
        <time>2012-05-10T14:30:57Z</time>
      </trkpt>
      <trkpt lat="46.12452" lon="6.3724">
        <ele>734</ele>
        <time>2012-05-10T14:30:58Z</time>
      </trkpt>
      <trkpt lat="46.12442" lon="6.37237">
        <ele>734</ele>
        <time>2012-05-10T14:30:59Z</time>
      </trkpt>
      <trkpt lat="46.12433" lon="6.37233">
        <ele>734</ele>
        <time>2012-05-10T14:31:00Z</time>
      </trkpt>
      <trkpt lat="46.12425" lon="6.3723">
        <ele>734</ele>
        <time>2012-05-10T14:31:01Z</time>
      </trkpt>
      <trkpt lat="46.12416" lon="6.37226">
        <ele>734</ele>
        <time>2012-05-10T14:31:02Z</time>
      </trkpt>
      <trkpt lat="46.12407" lon="6.37223">
        <ele>734</ele>
        <time>2012-05-10T14:31:03Z</time>
      </trkpt>
      <trkpt lat="46.12391" lon="6.37218">
        <ele>740</ele>
        <time>2012-05-10T14:31:05Z</time>
      </trkpt>
      <trkpt lat="46.12375" lon="6.37214">
        <ele>740</ele>
        <time>2012-05-10T14:31:07Z</time>
      </trkpt>
      <trkpt lat="46.12362" lon="6.37209">
        <ele>740</ele>
        <time>2012-05-10T14:31:09Z</time>
      </trkpt>
      <trkpt lat="46.12348" lon="6.37203">
        <ele>740</ele>
        <time>2012-05-10T14:31:11Z</time>
      </trkpt>
      <trkpt lat="46.12334" lon="6.37198">
        <ele>740</ele>
        <time>2012-05-10T14:31:13Z</time>
      </trkpt>
      <trkpt lat="46.12321" lon="6.37192">
        <ele>740</ele>
        <time>2012-05-10T14:31:15Z</time>
      </trkpt>
      <trkpt lat="46.12308" lon="6.37186">
        <ele>740</ele>
        <time>2012-05-10T14:31:17Z</time>
      </trkpt>
      <trkpt lat="46.12295" lon="6.3718">
        <ele>740</ele>
        <time>2012-05-10T14:31:19Z</time>
      </trkpt>
      <trkpt lat="46.12283" lon="6.37176">
        <ele>740</ele>
        <time>2012-05-10T14:31:21Z</time>
      </trkpt>
      <trkpt lat="46.12269" lon="6.37171">
        <ele>740</ele>
        <time>2012-05-10T14:31:23Z</time>
      </trkpt>
      <trkpt lat="46.12254" lon="6.37161">
        <ele>734</ele>
        <time>2012-05-10T14:31:25Z</time>
      </trkpt>
      <trkpt lat="46.12238" lon="6.37151">
        <ele>734</ele>
        <time>2012-05-10T14:31:27Z</time>
      </trkpt>
      <trkpt lat="46.12224" lon="6.37143">
        <ele>734</ele>
        <time>2012-05-10T14:31:29Z</time>
      </trkpt>
      <trkpt lat="46.12209" lon="6.37139">
        <ele>734</ele>
        <time>2012-05-10T14:31:31Z</time>
      </trkpt>
      <trkpt lat="46.12192" lon="6.37141">
        <ele>734</ele>
        <time>2012-05-10T14:31:33Z</time>
      </trkpt>
      <trkpt lat="46.12182" lon="6.37145">
        <ele>734</ele>
        <time>2012-05-10T14:31:34Z</time>
      </trkpt>
      <trkpt lat="46.12174" lon="6.37153">
        <ele>734</ele>
        <time>2012-05-10T14:31:35Z</time>
      </trkpt>
      <trkpt lat="46.12165" lon="6.37159">
        <ele>734</ele>
        <time>2012-05-10T14:31:36Z</time>
      </trkpt>
      <trkpt lat="46.12153" lon="6.37169">
        <ele>734</ele>
        <time>2012-05-10T14:31:38Z</time>
      </trkpt>
      <trkpt lat="46.1214" lon="6.37177">
        <ele>734</ele>
        <time>2012-05-10T14:31:40Z</time>
      </trkpt>
      <trkpt lat="46.12127" lon="6.37191">
        <ele>734</ele>
        <time>2012-05-10T14:31:42Z</time>
      </trkpt>
      <trkpt lat="46.12119" lon="6.37201">
        <ele>734</ele>
        <time>2012-05-10T14:31:43Z</time>
      </trkpt>
      <trkpt lat="46.12111" lon="6.37211">
        <ele>734</ele>
        <time>2012-05-10T14:31:44Z</time>
      </trkpt>
      <trkpt lat="46.12103" lon="6.37222">
        <ele>734</ele>
        <time>2012-05-10T14:31:45Z</time>
      </trkpt>
      <trkpt lat="46.12094" lon="6.37233">
        <ele>734</ele>
        <time>2012-05-10T14:31:46Z</time>
      </trkpt>
      <trkpt lat="46.12085" lon="6.37243">
        <ele>734</ele>
        <time>2012-05-10T14:31:47Z</time>
      </trkpt>
      <trkpt lat="46.12074" lon="6.37254">
        <ele>734</ele>
        <time>2012-05-10T14:31:48Z</time>
      </trkpt>
      <trkpt lat="46.12062" lon="6.37262">
        <ele>734</ele>
        <time>2012-05-10T14:31:49Z</time>
      </trkpt>
      <trkpt lat="46.12049" lon="6.37268">
        <ele>734</ele>
        <time>2012-05-10T14:31:50Z</time>
      </trkpt>
      <trkpt lat="46.12035" lon="6.3727">
        <ele>734</ele>
        <time>2012-05-10T14:31:51Z</time>
      </trkpt>
      <trkpt lat="46.12021" lon="6.3727">
        <ele>734</ele>
        <time>2012-05-10T14:31:52Z</time>
      </trkpt>
      <trkpt lat="46.12007" lon="6.3727">
        <ele>734</ele>
        <time>2012-05-10T14:31:53Z</time>
      </trkpt>
      <trkpt lat="46.11994" lon="6.3727">
        <ele>734</ele>
        <time>2012-05-10T14:31:54Z</time>
      </trkpt>
      <trkpt lat="46.11982" lon="6.3727">
        <ele>734</ele>
        <time>2012-05-10T14:31:55Z</time>
      </trkpt>
      <trkpt lat="46.11969" lon="6.37269">
        <ele>734</ele>
        <time>2012-05-10T14:31:56Z</time>
      </trkpt>
      <trkpt lat="46.11957" lon="6.37272">
        <ele>734</ele>
        <time>2012-05-10T14:31:57Z</time>
      </trkpt>
      <trkpt lat="46.11945" lon="6.37276">
        <ele>734</ele>
        <time>2012-05-10T14:31:58Z</time>
      </trkpt>
      <trkpt lat="46.11932" lon="6.37279">
        <ele>734</ele>
        <time>2012-05-10T14:31:59Z</time>
      </trkpt>
      <trkpt lat="46.11921" lon="6.37284">
        <ele>734</ele>
        <time>2012-05-10T14:32:00Z</time>
      </trkpt>
      <trkpt lat="46.11908" lon="6.37286">
        <ele>740</ele>
        <time>2012-05-10T14:32:01Z</time>
      </trkpt>
      <trkpt lat="46.11896" lon="6.37291">
        <ele>740</ele>
        <time>2012-05-10T14:32:02Z</time>
      </trkpt>
      <trkpt lat="46.11884" lon="6.37291">
        <ele>740</ele>
        <time>2012-05-10T14:32:03Z</time>
      </trkpt>
      <trkpt lat="46.11873" lon="6.37291">
        <ele>740</ele>
        <time>2012-05-10T14:32:04Z</time>
      </trkpt>
      <trkpt lat="46.11857" lon="6.37286">
        <ele>740</ele>
        <time>2012-05-10T14:32:06Z</time>
      </trkpt>
      <trkpt lat="46.11842" lon="6.37278">
        <ele>747</ele>
        <time>2012-05-10T14:32:08Z</time>
      </trkpt>
      <trkpt lat="46.11825" lon="6.37267">
        <ele>747</ele>
        <time>2012-05-10T14:32:10Z</time>
      </trkpt>
      <trkpt lat="46.11816" lon="6.37261">
        <ele>747</ele>
        <time>2012-05-10T14:32:11Z</time>
      </trkpt>
      <trkpt lat="46.11802" lon="6.37254">
        <ele>747</ele>
        <time>2012-05-10T14:32:13Z</time>
      </trkpt>
      <trkpt lat="46.11792" lon="6.37251">
        <ele>747</ele>
        <time>2012-05-10T14:32:15Z</time>
      </trkpt>
      <trkpt lat="46.11782" lon="6.37255">
        <ele>754</ele>
        <time>2012-05-10T14:32:49Z</time>
      </trkpt>
      <trkpt lat="46.11766" lon="6.37265">
        <ele>754</ele>
        <time>2012-05-10T14:32:51Z</time>
      </trkpt>
      <trkpt lat="46.11753" lon="6.3727">
        <ele>754</ele>
        <time>2012-05-10T14:32:52Z</time>
      </trkpt>
      <trkpt lat="46.11738" lon="6.37275">
        <ele>754</ele>
        <time>2012-05-10T14:32:53Z</time>
      </trkpt>
      <trkpt lat="46.11722" lon="6.37282">
        <ele>754</ele>
        <time>2012-05-10T14:32:54Z</time>
      </trkpt>
      <trkpt lat="46.11706" lon="6.37289">
        <ele>754</ele>
        <time>2012-05-10T14:32:55Z</time>
      </trkpt>
      <trkpt lat="46.1169" lon="6.37296">
        <ele>754</ele>
        <time>2012-05-10T14:32:56Z</time>
      </trkpt>
      <trkpt lat="46.11676" lon="6.37303">
        <ele>754</ele>
        <time>2012-05-10T14:32:57Z</time>
      </trkpt>
      <trkpt lat="46.11661" lon="6.37309">
        <ele>759</ele>
        <time>2012-05-10T14:32:58Z</time>
      </trkpt>
      <trkpt lat="46.11648" lon="6.37315">
        <ele>759</ele>
        <time>2012-05-10T14:32:59Z</time>
      </trkpt>
      <trkpt lat="46.11634" lon="6.37324">
        <ele>759</ele>
        <time>2012-05-10T14:33:00Z</time>
      </trkpt>
      <trkpt lat="46.11622" lon="6.37335">
        <ele>766</ele>
        <time>2012-05-10T14:33:01Z</time>
      </trkpt>
      <trkpt lat="46.11611" lon="6.37347">
        <ele>766</ele>
        <time>2012-05-10T14:33:02Z</time>
      </trkpt>
      <trkpt lat="46.116" lon="6.37356">
        <ele>766</ele>
        <time>2012-05-10T14:33:03Z</time>
      </trkpt>
      <trkpt lat="46.11591" lon="6.37364">
        <ele>766</ele>
        <time>2012-05-10T14:33:04Z</time>
      </trkpt>
      <trkpt lat="46.11579" lon="6.37372">
        <ele>773</ele>
        <time>2012-05-10T14:33:06Z</time>
      </trkpt>
      <trkpt lat="46.11576" lon="6.37385">
        <ele>773</ele>
        <time>2012-05-10T14:33:09Z</time>
      </trkpt>
      <trkpt lat="46.11579" lon="6.37402">
        <ele>773</ele>
        <time>2012-05-10T14:33:11Z</time>
      </trkpt>
      <trkpt lat="46.11583" lon="6.37425">
        <ele>779</ele>
        <time>2012-05-10T14:33:13Z</time>
      </trkpt>
      <trkpt lat="46.11585" lon="6.37446">
        <ele>779</ele>
        <time>2012-05-10T14:33:15Z</time>
      </trkpt>
      <trkpt lat="46.11584" lon="6.37467">
        <ele>779</ele>
        <time>2012-05-10T14:33:17Z</time>
      </trkpt>
      <trkpt lat="46.11583" lon="6.37487">
        <ele>787</ele>
        <time>2012-05-10T14:33:19Z</time>
      </trkpt>
      <trkpt lat="46.11574" lon="6.37509">
        <ele>787</ele>
        <time>2012-05-10T14:33:21Z</time>
      </trkpt>
      <trkpt lat="46.11567" lon="6.37524">
        <ele>787</ele>
        <time>2012-05-10T14:33:22Z</time>
      </trkpt>
      <trkpt lat="46.11561" lon="6.37537">
        <ele>793</ele>
        <time>2012-05-10T14:33:23Z</time>
      </trkpt>
      <trkpt lat="46.11557" lon="6.3755">
        <ele>793</ele>
        <time>2012-05-10T14:33:24Z</time>
      </trkpt>
      <trkpt lat="46.11551" lon="6.37571">
        <ele>793</ele>
        <time>2012-05-10T14:33:26Z</time>
      </trkpt>
      <trkpt lat="46.11551" lon="6.37596">
        <ele>793</ele>
        <time>2012-05-10T14:33:28Z</time>
      </trkpt>
      <trkpt lat="46.11549" lon="6.37622">
        <ele>793</ele>
        <time>2012-05-10T14:33:30Z</time>
      </trkpt>
      <trkpt lat="46.11545" lon="6.37646">
        <ele>793</ele>
        <time>2012-05-10T14:33:32Z</time>
      </trkpt>
      <trkpt lat="46.11539" lon="6.37666">
        <ele>798</ele>
        <time>2012-05-10T14:33:34Z</time>
      </trkpt>
      <trkpt lat="46.11533" lon="6.3768">
        <ele>798</ele>
        <time>2012-05-10T14:33:36Z</time>
      </trkpt>
      <trkpt lat="46.1152" lon="6.3768">
        <ele>804</ele>
        <time>2012-05-10T14:33:39Z</time>
      </trkpt>
      <trkpt lat="46.11508" lon="6.37667">
        <ele>804</ele>
        <time>2012-05-10T14:33:41Z</time>
      </trkpt>
      <trkpt lat="46.11498" lon="6.37657">
        <ele>804</ele>
        <time>2012-05-10T14:33:43Z</time>
      </trkpt>
      <trkpt lat="46.11484" lon="6.37655">
        <ele>810</ele>
        <time>2012-05-10T14:33:45Z</time>
      </trkpt>
      <trkpt lat="46.11468" lon="6.37658">
        <ele>810</ele>
        <time>2012-05-10T14:33:47Z</time>
      </trkpt>
      <trkpt lat="46.11453" lon="6.37657">
        <ele>810</ele>
        <time>2012-05-10T14:33:49Z</time>
      </trkpt>
      <trkpt lat="46.11443" lon="6.37651">
        <ele>810</ele>
        <time>2012-05-10T14:33:51Z</time>
      </trkpt>
      <trkpt lat="46.11433" lon="6.37645">
        <ele>817</ele>
        <time>2012-05-10T14:34:06Z</time>
      </trkpt>
      <trkpt lat="46.11423" lon="6.37648">
        <ele>817</ele>
        <time>2012-05-10T14:34:08Z</time>
      </trkpt>
      <trkpt lat="46.11411" lon="6.37657">
        <ele>817</ele>
        <time>2012-05-10T14:34:10Z</time>
      </trkpt>
      <trkpt lat="46.114" lon="6.37671">
        <ele>817</ele>
        <time>2012-05-10T14:34:12Z</time>
      </trkpt>
      <trkpt lat="46.1139" lon="6.3768">
        <ele>817</ele>
        <time>2012-05-10T14:34:14Z</time>
      </trkpt>
      <trkpt lat="46.1138" lon="6.37686">
        <ele>817</ele>
        <time>2012-05-10T14:34:16Z</time>
      </trkpt>
      <trkpt lat="46.11373" lon="6.377">
        <ele>817</ele>
        <time>2012-05-10T14:34:18Z</time>
      </trkpt>
      <trkpt lat="46.11365" lon="6.37718">
        <ele>817</ele>
        <time>2012-05-10T14:34:20Z</time>
      </trkpt>
      <trkpt lat="46.1136" lon="6.37729">
        <ele>817</ele>
        <time>2012-05-10T14:34:21Z</time>
      </trkpt>
      <trkpt lat="46.11355" lon="6.37741">
        <ele>817</ele>
        <time>2012-05-10T14:34:22Z</time>
      </trkpt>
      <trkpt lat="46.1135" lon="6.37753">
        <ele>817</ele>
        <time>2012-05-10T14:34:23Z</time>
      </trkpt>
      <trkpt lat="46.11342" lon="6.37765">
        <ele>817</ele>
        <time>2012-05-10T14:34:24Z</time>
      </trkpt>
      <trkpt lat="46.11335" lon="6.37776">
        <ele>822</ele>
        <time>2012-05-10T14:34:25Z</time>
      </trkpt>
      <trkpt lat="46.11328" lon="6.37787">
        <ele>822</ele>
        <time>2012-05-10T14:34:26Z</time>
      </trkpt>
      <trkpt lat="46.11323" lon="6.37798">
        <ele>822</ele>
        <time>2012-05-10T14:34:27Z</time>
      </trkpt>
      <trkpt lat="46.11314" lon="6.37816">
        <ele>822</ele>
        <time>2012-05-10T14:34:29Z</time>
      </trkpt>
      <trkpt lat="46.11309" lon="6.37828">
        <ele>822</ele>
        <time>2012-05-10T14:34:30Z</time>
      </trkpt>
      <trkpt lat="46.11303" lon="6.37841">
        <ele>828</ele>
        <time>2012-05-10T14:34:31Z</time>
      </trkpt>
      <trkpt lat="46.11296" lon="6.37853">
        <ele>828</ele>
        <time>2012-05-10T14:34:32Z</time>
      </trkpt>
      <trkpt lat="46.1129" lon="6.37865">
        <ele>828</ele>
        <time>2012-05-10T14:34:33Z</time>
      </trkpt>
      <trkpt lat="46.11283" lon="6.37876">
        <ele>828</ele>
        <time>2012-05-10T14:34:34Z</time>
      </trkpt>
      <trkpt lat="46.11276" lon="6.37885">
        <ele>828</ele>
        <time>2012-05-10T14:34:35Z</time>
      </trkpt>
      <trkpt lat="46.11267" lon="6.37894">
        <ele>828</ele>
        <time>2012-05-10T14:34:36Z</time>
      </trkpt>
      <trkpt lat="46.11259" lon="6.37902">
        <ele>828</ele>
        <time>2012-05-10T14:34:37Z</time>
      </trkpt>
      <trkpt lat="46.11251" lon="6.37909">
        <ele>834</ele>
        <time>2012-05-10T14:34:38Z</time>
      </trkpt>
      <trkpt lat="46.11238" lon="6.37924">
        <ele>834</ele>
        <time>2012-05-10T14:34:40Z</time>
      </trkpt>
      <trkpt lat="46.11228" lon="6.37933">
        <ele>839</ele>
        <time>2012-05-10T14:34:42Z</time>
      </trkpt>
      <trkpt lat="46.11218" lon="6.37939">
        <ele>839</ele>
        <time>2012-05-10T14:34:44Z</time>
      </trkpt>
      <trkpt lat="46.11207" lon="6.3794">
        <ele>845</ele>
        <time>2012-05-10T14:34:46Z</time>
      </trkpt>
      <trkpt lat="46.11201" lon="6.37929">
        <ele>861</ele>
        <time>2012-05-10T14:34:54Z</time>
      </trkpt>
      <trkpt lat="46.11188" lon="6.37927">
        <ele>861</ele>
        <time>2012-05-10T14:35:00Z</time>
      </trkpt>
      <trkpt lat="46.11173" lon="6.37921">
        <ele>861</ele>
        <time>2012-05-10T14:35:02Z</time>
      </trkpt>
      <trkpt lat="46.11159" lon="6.37917">
        <ele>861</ele>
        <time>2012-05-10T14:35:04Z</time>
      </trkpt>
      <trkpt lat="46.11145" lon="6.37911">
        <ele>855</ele>
        <time>2012-05-10T14:35:06Z</time>
      </trkpt>
      <trkpt lat="46.11133" lon="6.37901">
        <ele>855</ele>
        <time>2012-05-10T14:35:08Z</time>
      </trkpt>
      <trkpt lat="46.11121" lon="6.37887">
        <ele>855</ele>
        <time>2012-05-10T14:35:10Z</time>
      </trkpt>
      <trkpt lat="46.11108" lon="6.37873">
        <ele>855</ele>
        <time>2012-05-10T14:35:12Z</time>
      </trkpt>
      <trkpt lat="46.111" lon="6.37861">
        <ele>855</ele>
        <time>2012-05-10T14:35:14Z</time>
      </trkpt>
      <trkpt lat="46.11093" lon="6.37853">
        <ele>855</ele>
        <time>2012-05-10T14:35:16Z</time>
      </trkpt>
      <trkpt lat="46.11083" lon="6.37842">
        <ele>855</ele>
        <time>2012-05-10T14:35:19Z</time>
      </trkpt>
      <trkpt lat="46.11077" lon="6.37828">
        <ele>855</ele>
        <time>2012-05-10T14:35:21Z</time>
      </trkpt>
      <trkpt lat="46.11067" lon="6.37809">
        <ele>855</ele>
        <time>2012-05-10T14:35:23Z</time>
      </trkpt>
      <trkpt lat="46.11058" lon="6.3779">
        <ele>855</ele>
        <time>2012-05-10T14:35:25Z</time>
      </trkpt>
      <trkpt lat="46.11053" lon="6.37775">
        <ele>855</ele>
        <time>2012-05-10T14:35:27Z</time>
      </trkpt>
      <trkpt lat="46.11048" lon="6.37761">
        <ele>855</ele>
        <time>2012-05-10T14:35:30Z</time>
      </trkpt>
      <trkpt lat="46.11037" lon="6.37757">
        <ele>855</ele>
        <time>2012-05-10T14:35:34Z</time>
      </trkpt>
      <trkpt lat="46.11028" lon="6.37762">
        <ele>855</ele>
        <time>2012-05-10T14:35:36Z</time>
      </trkpt>
      <trkpt lat="46.11018" lon="6.37769">
        <ele>855</ele>
        <time>2012-05-10T14:35:38Z</time>
      </trkpt>
      <trkpt lat="46.11002" lon="6.37773">
        <ele>855</ele>
        <time>2012-05-10T14:35:40Z</time>
      </trkpt>
      <trkpt lat="46.10985" lon="6.37773">
        <ele>855</ele>
        <time>2012-05-10T14:35:42Z</time>
      </trkpt>
      <trkpt lat="46.10975" lon="6.37776">
        <ele>855</ele>
        <time>2012-05-10T14:35:43Z</time>
      </trkpt>
      <trkpt lat="46.10965" lon="6.37781">
        <ele>855</ele>
        <time>2012-05-10T14:35:44Z</time>
      </trkpt>
      <trkpt lat="46.10953" lon="6.37785">
        <ele>855</ele>
        <time>2012-05-10T14:35:45Z</time>
      </trkpt>
      <trkpt lat="46.10942" lon="6.3779">
        <ele>855</ele>
        <time>2012-05-10T14:35:46Z</time>
      </trkpt>
      <trkpt lat="46.10931" lon="6.37793">
        <ele>855</ele>
        <time>2012-05-10T14:35:47Z</time>
      </trkpt>
      <trkpt lat="46.10921" lon="6.37798">
        <ele>855</ele>
        <time>2012-05-10T14:35:48Z</time>
      </trkpt>
      <trkpt lat="46.10912" lon="6.37802">
        <ele>855</ele>
        <time>2012-05-10T14:35:49Z</time>
      </trkpt>
      <trkpt lat="46.10903" lon="6.37808">
        <ele>861</ele>
        <time>2012-05-10T14:35:50Z</time>
      </trkpt>
      <trkpt lat="46.10896" lon="6.37817">
        <ele>861</ele>
        <time>2012-05-10T14:35:51Z</time>
      </trkpt>
      <trkpt lat="46.1089" lon="6.37828">
        <ele>861</ele>
        <time>2012-05-10T14:35:52Z</time>
      </trkpt>
      <trkpt lat="46.10878" lon="6.37847">
        <ele>861</ele>
        <time>2012-05-10T14:35:54Z</time>
      </trkpt>
      <trkpt lat="46.10868" lon="6.37865">
        <ele>861</ele>
        <time>2012-05-10T14:35:56Z</time>
      </trkpt>
      <trkpt lat="46.10858" lon="6.37884">
        <ele>867</ele>
        <time>2012-05-10T14:35:58Z</time>
      </trkpt>
      <trkpt lat="46.10848" lon="6.37904">
        <ele>867</ele>
        <time>2012-05-10T14:36:00Z</time>
      </trkpt>
      <trkpt lat="46.1084" lon="6.37923">
        <ele>872</ele>
        <time>2012-05-10T14:36:02Z</time>
      </trkpt>
      <trkpt lat="46.1083" lon="6.37941">
        <ele>872</ele>
        <time>2012-05-10T14:36:04Z</time>
      </trkpt>
      <trkpt lat="46.1082" lon="6.37958">
        <ele>872</ele>
        <time>2012-05-10T14:36:06Z</time>
      </trkpt>
      <trkpt lat="46.10808" lon="6.37967">
        <ele>882</ele>
        <time>2012-05-10T14:36:08Z</time>
      </trkpt>
      <trkpt lat="46.10799" lon="6.37973">
        <ele>882</ele>
        <time>2012-05-10T14:36:10Z</time>
      </trkpt>
      <trkpt lat="46.10791" lon="6.3798">
        <ele>892</ele>
        <time>2012-05-10T14:36:13Z</time>
      </trkpt>
      <trkpt lat="46.10783" lon="6.37993">
        <ele>892</ele>
        <time>2012-05-10T14:36:17Z</time>
      </trkpt>
      <trkpt lat="46.10774" lon="6.38002">
        <ele>899</ele>
        <time>2012-05-10T14:36:19Z</time>
      </trkpt>
      <trkpt lat="46.10765" lon="6.38007">
        <ele>899</ele>
        <time>2012-05-10T14:36:21Z</time>
      </trkpt>
      <trkpt lat="46.10757" lon="6.38011">
        <ele>899</ele>
        <time>2012-05-10T14:36:23Z</time>
      </trkpt>
      <trkpt lat="46.10747" lon="6.38016">
        <ele>905</ele>
        <time>2012-05-10T14:36:25Z</time>
      </trkpt>
      <trkpt lat="46.10736" lon="6.38019">
        <ele>905</ele>
        <time>2012-05-10T14:36:27Z</time>
      </trkpt>
      <trkpt lat="46.10727" lon="6.38023">
        <ele>905</ele>
        <time>2012-05-10T14:36:30Z</time>
      </trkpt>
      <trkpt lat="46.10721" lon="6.38033">
        <ele>905</ele>
        <time>2012-05-10T14:36:44Z</time>
      </trkpt>
      <trkpt lat="46.1072" lon="6.38049">
        <ele>905</ele>
        <time>2012-05-10T14:36:47Z</time>
      </trkpt>
      <trkpt lat="46.1072" lon="6.38068">
        <ele>905</ele>
        <time>2012-05-10T14:36:49Z</time>
      </trkpt>
      <trkpt lat="46.10719" lon="6.38093">
        <ele>900</ele>
        <time>2012-05-10T14:36:51Z</time>
      </trkpt>
      <trkpt lat="46.10719" lon="6.38117">
        <ele>900</ele>
        <time>2012-05-10T14:36:53Z</time>
      </trkpt>
      <trkpt lat="46.1072" lon="6.3813">
        <ele>900</ele>
        <time>2012-05-10T14:36:54Z</time>
      </trkpt>
      <trkpt lat="46.10721" lon="6.38143">
        <ele>900</ele>
        <time>2012-05-10T14:36:55Z</time>
      </trkpt>
      <trkpt lat="46.10722" lon="6.38169">
        <ele>900</ele>
        <time>2012-05-10T14:36:57Z</time>
      </trkpt>
      <trkpt lat="46.10722" lon="6.38194">
        <ele>900</ele>
        <time>2012-05-10T14:36:59Z</time>
      </trkpt>
      <trkpt lat="46.10722" lon="6.38219">
        <ele>900</ele>
        <time>2012-05-10T14:37:01Z</time>
      </trkpt>
      <trkpt lat="46.10722" lon="6.38232">
        <ele>900</ele>
        <time>2012-05-10T14:37:02Z</time>
      </trkpt>
      <trkpt lat="46.1072" lon="6.38246">
        <ele>900</ele>
        <time>2012-05-10T14:37:03Z</time>
      </trkpt>
      <trkpt lat="46.10716" lon="6.3827">
        <ele>900</ele>
        <time>2012-05-10T14:37:05Z</time>
      </trkpt>
      <trkpt lat="46.10712" lon="6.38295">
        <ele>900</ele>
        <time>2012-05-10T14:37:07Z</time>
      </trkpt>
      <trkpt lat="46.1071" lon="6.38308">
        <ele>900</ele>
        <time>2012-05-10T14:37:08Z</time>
      </trkpt>
      <trkpt lat="46.10707" lon="6.38321">
        <ele>900</ele>
        <time>2012-05-10T14:37:09Z</time>
      </trkpt>
      <trkpt lat="46.10704" lon="6.38335">
        <ele>900</ele>
        <time>2012-05-10T14:37:10Z</time>
      </trkpt>
      <trkpt lat="46.10698" lon="6.38357">
        <ele>900</ele>
        <time>2012-05-10T14:37:12Z</time>
      </trkpt>
      <trkpt lat="46.10694" lon="6.38371">
        <ele>900</ele>
        <time>2012-05-10T14:37:14Z</time>
      </trkpt>
      <trkpt lat="46.10701" lon="6.38381">
        <ele>900</ele>
        <time>2012-05-10T14:37:29Z</time>
      </trkpt>
      <trkpt lat="46.10714" lon="6.38395">
        <ele>900</ele>
        <time>2012-05-10T14:37:31Z</time>
      </trkpt>
      <trkpt lat="46.10727" lon="6.3841">
        <ele>900</ele>
        <time>2012-05-10T14:37:33Z</time>
      </trkpt>
      <trkpt lat="46.10738" lon="6.38426">
        <ele>900</ele>
        <time>2012-05-10T14:37:35Z</time>
      </trkpt>
      <trkpt lat="46.10747" lon="6.38439">
        <ele>900</ele>
        <time>2012-05-10T14:37:37Z</time>
      </trkpt>
      <trkpt lat="46.10751" lon="6.38455">
        <ele>900</ele>
        <time>2012-05-10T14:37:40Z</time>
      </trkpt>
      <trkpt lat="46.1075" lon="6.38469">
        <ele>900</ele>
        <time>2012-05-10T14:37:42Z</time>
      </trkpt>
      <trkpt lat="46.10747" lon="6.38491">
        <ele>900</ele>
        <time>2012-05-10T14:37:44Z</time>
      </trkpt>
      <trkpt lat="46.10745" lon="6.38505">
        <ele>900</ele>
        <time>2012-05-10T14:37:45Z</time>
      </trkpt>
      <trkpt lat="46.10744" lon="6.38519">
        <ele>900</ele>
        <time>2012-05-10T14:37:46Z</time>
      </trkpt>
      <trkpt lat="46.10742" lon="6.38533">
        <ele>900</ele>
        <time>2012-05-10T14:37:47Z</time>
      </trkpt>
      <trkpt lat="46.1074" lon="6.38549">
        <ele>900</ele>
        <time>2012-05-10T14:37:48Z</time>
      </trkpt>
      <trkpt lat="46.10739" lon="6.38564">
        <ele>900</ele>
        <time>2012-05-10T14:37:49Z</time>
      </trkpt>
      <trkpt lat="46.10736" lon="6.38577">
        <ele>900</ele>
        <time>2012-05-10T14:37:50Z</time>
      </trkpt>
      <trkpt lat="46.10732" lon="6.38591">
        <ele>900</ele>
        <time>2012-05-10T14:37:51Z</time>
      </trkpt>
      <trkpt lat="46.10728" lon="6.38603">
        <ele>900</ele>
        <time>2012-05-10T14:37:52Z</time>
      </trkpt>
      <trkpt lat="46.10722" lon="6.38616">
        <ele>900</ele>
        <time>2012-05-10T14:37:53Z</time>
      </trkpt>
      <trkpt lat="46.10715" lon="6.38628">
        <ele>900</ele>
        <time>2012-05-10T14:37:54Z</time>
      </trkpt>
      <trkpt lat="46.10709" lon="6.3864">
        <ele>900</ele>
        <time>2012-05-10T14:37:55Z</time>
      </trkpt>
      <trkpt lat="46.10702" lon="6.38653">
        <ele>900</ele>
        <time>2012-05-10T14:37:56Z</time>
      </trkpt>
      <trkpt lat="46.10694" lon="6.38664">
        <ele>900</ele>
        <time>2012-05-10T14:37:57Z</time>
      </trkpt>
      <trkpt lat="46.10686" lon="6.38676">
        <ele>900</ele>
        <time>2012-05-10T14:37:58Z</time>
      </trkpt>
      <trkpt lat="46.10679" lon="6.38687">
        <ele>900</ele>
        <time>2012-05-10T14:37:59Z</time>
      </trkpt>
      <trkpt lat="46.10672" lon="6.38697">
        <ele>900</ele>
        <time>2012-05-10T14:38:00Z</time>
      </trkpt>
      <trkpt lat="46.10662" lon="6.38713">
        <ele>900</ele>
        <time>2012-05-10T14:38:02Z</time>
      </trkpt>
      <trkpt lat="46.10659" lon="6.38732">
        <ele>900</ele>
        <time>2012-05-10T14:38:04Z</time>
      </trkpt>
      <trkpt lat="46.10654" lon="6.3875">
        <ele>900</ele>
        <time>2012-05-10T14:38:06Z</time>
      </trkpt>
      <trkpt lat="46.1065" lon="6.38768">
        <ele>900</ele>
        <time>2012-05-10T14:38:08Z</time>
      </trkpt>
      <trkpt lat="46.1065" lon="6.38783">
        <ele>900</ele>
        <time>2012-05-10T14:38:10Z</time>
      </trkpt>
      <trkpt lat="46.1065" lon="6.38797">
        <ele>900</ele>
        <time>2012-05-10T14:38:26Z</time>
      </trkpt>
      <trkpt lat="46.10642" lon="6.38805">
        <ele>900</ele>
        <time>2012-05-10T14:38:28Z</time>
      </trkpt>
      <trkpt lat="46.10632" lon="6.38811">
        <ele>906</ele>
        <time>2012-05-10T14:38:30Z</time>
      </trkpt>
      <trkpt lat="46.10621" lon="6.38809">
        <ele>906</ele>
        <time>2012-05-10T14:38:34Z</time>
      </trkpt>
      <trkpt lat="46.10611" lon="6.38802">
        <ele>906</ele>
        <time>2012-05-10T14:38:36Z</time>
      </trkpt>
      <trkpt lat="46.106" lon="6.38795">
        <ele>913</ele>
        <time>2012-05-10T14:38:38Z</time>
      </trkpt>
      <trkpt lat="46.1059" lon="6.38793">
        <ele>913</ele>
        <time>2012-05-10T14:38:39Z</time>
      </trkpt>
      <trkpt lat="46.10572" lon="6.38794">
        <ele>913</ele>
        <time>2012-05-10T14:38:41Z</time>
      </trkpt>
      <trkpt lat="46.10555" lon="6.38797">
        <ele>919</ele>
        <time>2012-05-10T14:38:43Z</time>
      </trkpt>
      <trkpt lat="46.10538" lon="6.38797">
        <ele>919</ele>
        <time>2012-05-10T14:38:45Z</time>
      </trkpt>
      <trkpt lat="46.10528" lon="6.38792">
        <ele>919</ele>
        <time>2012-05-10T14:38:46Z</time>
      </trkpt>
      <trkpt lat="46.10517" lon="6.38784">
        <ele>919</ele>
        <time>2012-05-10T14:38:47Z</time>
      </trkpt>
      <trkpt lat="46.10502" lon="6.38775">
        <ele>926</ele>
        <time>2012-05-10T14:38:49Z</time>
      </trkpt>
      <trkpt lat="46.10489" lon="6.38765">
        <ele>926</ele>
        <time>2012-05-10T14:38:51Z</time>
      </trkpt>
      <trkpt lat="46.10475" lon="6.38756">
        <ele>932</ele>
        <time>2012-05-10T14:38:53Z</time>
      </trkpt>
      <trkpt lat="46.10462" lon="6.38748">
        <ele>932</ele>
        <time>2012-05-10T14:38:55Z</time>
      </trkpt>
      <trkpt lat="46.10449" lon="6.38738">
        <ele>938</ele>
        <time>2012-05-10T14:38:57Z</time>
      </trkpt>
      <trkpt lat="46.10435" lon="6.38723">
        <ele>944</ele>
        <time>2012-05-10T14:38:59Z</time>
      </trkpt>
      <trkpt lat="46.1042" lon="6.38717">
        <ele>944</ele>
        <time>2012-05-10T14:39:01Z</time>
      </trkpt>
      <trkpt lat="46.10405" lon="6.3872">
        <ele>944</ele>
        <time>2012-05-10T14:39:03Z</time>
      </trkpt>
      <trkpt lat="46.10395" lon="6.3872">
        <ele>950</ele>
        <time>2012-05-10T14:39:05Z</time>
      </trkpt>
      <trkpt lat="46.10389" lon="6.38732">
        <ele>950</ele>
        <time>2012-05-10T14:39:08Z</time>
      </trkpt>
      <trkpt lat="46.1039" lon="6.38751">
        <ele>950</ele>
        <time>2012-05-10T14:39:10Z</time>
      </trkpt>
      <trkpt lat="46.10394" lon="6.38768">
        <ele>950</ele>
        <time>2012-05-10T14:39:13Z</time>
      </trkpt>
      <trkpt lat="46.10392" lon="6.38784">
        <ele>950</ele>
        <time>2012-05-10T14:39:16Z</time>
      </trkpt>
      <trkpt lat="46.10391" lon="6.38803">
        <ele>950</ele>
        <time>2012-05-10T14:39:19Z</time>
      </trkpt>
      <trkpt lat="46.10389" lon="6.38815">
        <ele>950</ele>
        <time>2012-05-10T14:39:21Z</time>
      </trkpt>
      <trkpt lat="46.10386" lon="6.38828">
        <ele>950</ele>
        <time>2012-05-10T14:39:23Z</time>
      </trkpt>
      <trkpt lat="46.1038" lon="6.38846">
        <ele>957</ele>
        <time>2012-05-10T14:39:26Z</time>
      </trkpt>
      <trkpt lat="46.10376" lon="6.38858">
        <ele>957</ele>
        <time>2012-05-10T14:39:28Z</time>
      </trkpt>
      <trkpt lat="46.10375" lon="6.38872">
        <ele>957</ele>
        <time>2012-05-10T14:39:30Z</time>
      </trkpt>
      <trkpt lat="46.1038" lon="6.38891">
        <ele>957</ele>
        <time>2012-05-10T14:39:33Z</time>
      </trkpt>
      <trkpt lat="46.10385" lon="6.38903">
        <ele>952</ele>
        <time>2012-05-10T14:39:35Z</time>
      </trkpt>
      <trkpt lat="46.10389" lon="6.38917">
        <ele>952</ele>
        <time>2012-05-10T14:39:37Z</time>
      </trkpt>
      <trkpt lat="46.10392" lon="6.38932">
        <ele>952</ele>
        <time>2012-05-10T14:39:39Z</time>
      </trkpt>
      <trkpt lat="46.10394" lon="6.38948">
        <ele>946</ele>
        <time>2012-05-10T14:39:41Z</time>
      </trkpt>
      <trkpt lat="46.10394" lon="6.38965">
        <ele>946</ele>
        <time>2012-05-10T14:39:43Z</time>
      </trkpt>
      <trkpt lat="46.10397" lon="6.38977">
        <ele>946</ele>
        <time>2012-05-10T14:39:45Z</time>
      </trkpt>
      <trkpt lat="46.10397" lon="6.38996">
        <ele>939</ele>
        <time>2012-05-10T14:39:48Z</time>
      </trkpt>
      <trkpt lat="46.10395" lon="6.39009">
        <ele>939</ele>
        <time>2012-05-10T14:39:50Z</time>
      </trkpt>
      <trkpt lat="46.10397" lon="6.39023">
        <ele>939</ele>
        <time>2012-05-10T14:39:53Z</time>
      </trkpt>
      <trkpt lat="46.10396" lon="6.39037">
        <ele>939</ele>
        <time>2012-05-10T14:39:57Z</time>
      </trkpt>
      <trkpt lat="46.10392" lon="6.39052">
        <ele>939</ele>
        <time>2012-05-10T14:40:00Z</time>
      </trkpt>
      <trkpt lat="46.10388" lon="6.39063">
        <ele>939</ele>
        <time>2012-05-10T14:40:03Z</time>
      </trkpt>
      <trkpt lat="46.1038" lon="6.39075">
        <ele>939</ele>
        <time>2012-05-10T14:40:06Z</time>
      </trkpt>
      <trkpt lat="46.10365" lon="6.39086">
        <ele>939</ele>
        <time>2012-05-10T14:40:09Z</time>
      </trkpt>
      <trkpt lat="46.10351" lon="6.39093">
        <ele>939</ele>
        <time>2012-05-10T14:40:11Z</time>
      </trkpt>
      <trkpt lat="46.10338" lon="6.39105">
        <ele>939</ele>
        <time>2012-05-10T14:40:13Z</time>
      </trkpt>
      <trkpt lat="46.10326" lon="6.39117">
        <ele>939</ele>
        <time>2012-05-10T14:40:15Z</time>
      </trkpt>
      <trkpt lat="46.10317" lon="6.39133">
        <ele>939</ele>
        <time>2012-05-10T14:40:17Z</time>
      </trkpt>
      <trkpt lat="46.10309" lon="6.3915">
        <ele>939</ele>
        <time>2012-05-10T14:40:19Z</time>
      </trkpt>
      <trkpt lat="46.10301" lon="6.39167">
        <ele>939</ele>
        <time>2012-05-10T14:40:21Z</time>
      </trkpt>
      <trkpt lat="46.10292" lon="6.39168">
        <ele>939</ele>
        <time>2012-05-10T14:40:23Z</time>
      </trkpt>
      <trkpt lat="46.10277" lon="6.39161">
        <ele>934</ele>
        <time>2012-05-10T14:40:25Z</time>
      </trkpt>
      <trkpt lat="46.10262" lon="6.39155">
        <ele>934</ele>
        <time>2012-05-10T14:40:27Z</time>
      </trkpt>
      <trkpt lat="46.10249" lon="6.39146">
        <ele>934</ele>
        <time>2012-05-10T14:40:29Z</time>
      </trkpt>
      <trkpt lat="46.10242" lon="6.39136">
        <ele>934</ele>
        <time>2012-05-10T14:40:31Z</time>
      </trkpt>
      <trkpt lat="46.10237" lon="6.39122">
        <ele>934</ele>
        <time>2012-05-10T14:40:33Z</time>
      </trkpt>
      <trkpt lat="46.10234" lon="6.39106">
        <ele>934</ele>
        <time>2012-05-10T14:40:35Z</time>
      </trkpt>
      <trkpt lat="46.10229" lon="6.39093">
        <ele>934</ele>
        <time>2012-05-10T14:40:37Z</time>
      </trkpt>
      <trkpt lat="46.1022" lon="6.3908">
        <ele>934</ele>
        <time>2012-05-10T14:40:39Z</time>
      </trkpt>
      <trkpt lat="46.10208" lon="6.39062">
        <ele>928</ele>
        <time>2012-05-10T14:40:41Z</time>
      </trkpt>
      <trkpt lat="46.10197" lon="6.39044">
        <ele>928</ele>
        <time>2012-05-10T14:40:43Z</time>
      </trkpt>
      <trkpt lat="46.10186" lon="6.39027">
        <ele>928</ele>
        <time>2012-05-10T14:40:45Z</time>
      </trkpt>
      <trkpt lat="46.10178" lon="6.39009">
        <ele>928</ele>
        <time>2012-05-10T14:40:47Z</time>
      </trkpt>
      <trkpt lat="46.10171" lon="6.38991">
        <ele>928</ele>
        <time>2012-05-10T14:40:49Z</time>
      </trkpt>
      <trkpt lat="46.10167" lon="6.38974">
        <ele>928</ele>
        <time>2012-05-10T14:40:51Z</time>
      </trkpt>
      <trkpt lat="46.10162" lon="6.38958">
        <ele>928</ele>
        <time>2012-05-10T14:40:53Z</time>
      </trkpt>
      <trkpt lat="46.10162" lon="6.38945">
        <ele>928</ele>
        <time>2012-05-10T14:40:55Z</time>
      </trkpt>
      <trkpt lat="46.10158" lon="6.38933">
        <ele>928</ele>
        <time>2012-05-10T14:40:59Z</time>
      </trkpt>
      <trkpt lat="46.10151" lon="6.3892">
        <ele>920</ele>
        <time>2012-05-10T14:41:03Z</time>
      </trkpt>
      <trkpt lat="46.10139" lon="6.38909">
        <ele>915</ele>
        <time>2012-05-10T14:41:06Z</time>
      </trkpt>
      <trkpt lat="46.10131" lon="6.38902">
        <ele>915</ele>
        <time>2012-05-10T14:41:08Z</time>
      </trkpt>
      <trkpt lat="46.10122" lon="6.38892">
        <ele>905</ele>
        <time>2012-05-10T14:41:11Z</time>
      </trkpt>
      <trkpt lat="46.10112" lon="6.38886">
        <ele>899</ele>
        <time>2012-05-10T14:41:14Z</time>
      </trkpt>
      <trkpt lat="46.10102" lon="6.38881">
        <ele>894</ele>
        <time>2012-05-10T14:41:17Z</time>
      </trkpt>
      <trkpt lat="46.10095" lon="6.38871">
        <ele>894</ele>
        <time>2012-05-10T14:41:20Z</time>
      </trkpt>
      <trkpt lat="46.10086" lon="6.38859">
        <ele>889</ele>
        <time>2012-05-10T14:41:24Z</time>
      </trkpt>
      <trkpt lat="46.10079" lon="6.38845">
        <ele>889</ele>
        <time>2012-05-10T14:41:28Z</time>
      </trkpt>
      <trkpt lat="46.10077" lon="6.38828">
        <ele>889</ele>
        <time>2012-05-10T14:41:31Z</time>
      </trkpt>
      <trkpt lat="46.10071" lon="6.38814">
        <ele>889</ele>
        <time>2012-05-10T14:41:34Z</time>
      </trkpt>
      <trkpt lat="46.10062" lon="6.38807">
        <ele>879</ele>
        <time>2012-05-10T14:41:37Z</time>
      </trkpt>
      <trkpt lat="46.10053" lon="6.38802">
        <ele>879</ele>
        <time>2012-05-10T14:41:39Z</time>
      </trkpt>
      <trkpt lat="46.10046" lon="6.38793">
        <ele>871</ele>
        <time>2012-05-10T14:41:41Z</time>
      </trkpt>
      <trkpt lat="46.10036" lon="6.38779">
        <ele>871</ele>
        <time>2012-05-10T14:41:44Z</time>
      </trkpt>
      <trkpt lat="46.10024" lon="6.38771">
        <ele>871</ele>
        <time>2012-05-10T14:41:46Z</time>
      </trkpt>
      <trkpt lat="46.10014" lon="6.38766">
        <ele>866</ele>
        <time>2012-05-10T14:41:48Z</time>
      </trkpt>
      <trkpt lat="46.10006" lon="6.3876">
        <ele>866</ele>
        <time>2012-05-10T14:41:50Z</time>
      </trkpt>
      <trkpt lat="46.09996" lon="6.38752">
        <ele>866</ele>
        <time>2012-05-10T14:41:52Z</time>
      </trkpt>
      <trkpt lat="46.09987" lon="6.38742">
        <ele>856</ele>
        <time>2012-05-10T14:41:55Z</time>
      </trkpt>
      <trkpt lat="46.0998" lon="6.38733">
        <ele>856</ele>
        <time>2012-05-10T14:41:57Z</time>
      </trkpt>
      <trkpt lat="46.09969" lon="6.38722">
        <ele>849</ele>
        <time>2012-05-10T14:42:00Z</time>
      </trkpt>
      <trkpt lat="46.09957" lon="6.38716">
        <ele>840</ele>
        <time>2012-05-10T14:42:03Z</time>
      </trkpt>
      <trkpt lat="46.09946" lon="6.38709">
        <ele>832</ele>
        <time>2012-05-10T14:42:06Z</time>
      </trkpt>
      <trkpt lat="46.09935" lon="6.38707">
        <ele>832</ele>
        <time>2012-05-10T14:42:08Z</time>
      </trkpt>
      <trkpt lat="46.09926" lon="6.38697">
        <ele>824</ele>
        <time>2012-05-10T14:42:10Z</time>
      </trkpt>
      <trkpt lat="46.09917" lon="6.38685">
        <ele>824</ele>
        <time>2012-05-10T14:42:12Z</time>
      </trkpt>
      <trkpt lat="46.09909" lon="6.3867">
        <ele>824</ele>
        <time>2012-05-10T14:42:14Z</time>
      </trkpt>
      <trkpt lat="46.09903" lon="6.3866">
        <ele>824</ele>
        <time>2012-05-10T14:42:16Z</time>
      </trkpt>
      <trkpt lat="46.09893" lon="6.38648">
        <ele>818</ele>
        <time>2012-05-10T14:42:19Z</time>
      </trkpt>
      <trkpt lat="46.09884" lon="6.38642">
        <ele>818</ele>
        <time>2012-05-10T14:42:21Z</time>
      </trkpt>
      <trkpt lat="46.09874" lon="6.38636">
        <ele>818</ele>
        <time>2012-05-10T14:42:23Z</time>
      </trkpt>
      <trkpt lat="46.09864" lon="6.38631">
        <ele>810</ele>
        <time>2012-05-10T14:42:25Z</time>
      </trkpt>
      <trkpt lat="46.09852" lon="6.38624">
        <ele>810</ele>
        <time>2012-05-10T14:42:27Z</time>
      </trkpt>
      <trkpt lat="46.09843" lon="6.38615">
        <ele>805</ele>
        <time>2012-05-10T14:42:29Z</time>
      </trkpt>
      <trkpt lat="46.09832" lon="6.38603">
        <ele>805</ele>
        <time>2012-05-10T14:42:31Z</time>
      </trkpt>
      <trkpt lat="46.09822" lon="6.38588">
        <ele>799</ele>
        <time>2012-05-10T14:42:33Z</time>
      </trkpt>
      <trkpt lat="46.0981" lon="6.38573">
        <ele>799</ele>
        <time>2012-05-10T14:42:35Z</time>
      </trkpt>
      <trkpt lat="46.09797" lon="6.38557">
        <ele>799</ele>
        <time>2012-05-10T14:42:37Z</time>
      </trkpt>
      <trkpt lat="46.09786" lon="6.38544">
        <ele>799</ele>
        <time>2012-05-10T14:42:39Z</time>
      </trkpt>
      <trkpt lat="46.09777" lon="6.38531">
        <ele>799</ele>
        <time>2012-05-10T14:42:41Z</time>
      </trkpt>
      <trkpt lat="46.09772" lon="6.38519">
        <ele>799</ele>
        <time>2012-05-10T14:42:43Z</time>
      </trkpt>
      <trkpt lat="46.09764" lon="6.3851">
        <ele>794</ele>
        <time>2012-05-10T14:42:46Z</time>
      </trkpt>
      <trkpt lat="46.09754" lon="6.38495">
        <ele>794</ele>
        <time>2012-05-10T14:42:49Z</time>
      </trkpt>
      <trkpt lat="46.09749" lon="6.38479">
        <ele>786</ele>
        <time>2012-05-10T14:42:51Z</time>
      </trkpt>
      <trkpt lat="46.09747" lon="6.38458">
        <ele>786</ele>
        <time>2012-05-10T14:42:53Z</time>
      </trkpt>
      <trkpt lat="46.09746" lon="6.38436">
        <ele>786</ele>
        <time>2012-05-10T14:42:55Z</time>
      </trkpt>
      <trkpt lat="46.09748" lon="6.38419">
        <ele>779</ele>
        <time>2012-05-10T14:42:57Z</time>
      </trkpt>
      <trkpt lat="46.09749" lon="6.38406">
        <ele>779</ele>
        <time>2012-05-10T14:42:59Z</time>
      </trkpt>
      <trkpt lat="46.09754" lon="6.38392">
        <ele>779</ele>
        <time>2012-05-10T14:43:02Z</time>
      </trkpt>
      <trkpt lat="46.09759" lon="6.38379">
        <ele>774</ele>
        <time>2012-05-10T14:43:04Z</time>
      </trkpt>
      <trkpt lat="46.09762" lon="6.38359">
        <ele>774</ele>
        <time>2012-05-10T14:43:06Z</time>
      </trkpt>
      <trkpt lat="46.0976" lon="6.3834">
        <ele>774</ele>
        <time>2012-05-10T14:43:08Z</time>
      </trkpt>
      <trkpt lat="46.0975" lon="6.38322">
        <ele>774</ele>
        <time>2012-05-10T14:43:10Z</time>
      </trkpt>
      <trkpt lat="46.09739" lon="6.38307">
        <ele>768</ele>
        <time>2012-05-10T14:43:12Z</time>
      </trkpt>
      <trkpt lat="46.09736" lon="6.38292">
        <ele>768</ele>
        <time>2012-05-10T14:43:14Z</time>
      </trkpt>
      <trkpt lat="46.09737" lon="6.38272">
        <ele>768</ele>
        <time>2012-05-10T14:43:16Z</time>
      </trkpt>
      <trkpt lat="46.09742" lon="6.38252">
        <ele>768</ele>
        <time>2012-05-10T14:43:18Z</time>
      </trkpt>
      <trkpt lat="46.09754" lon="6.38238">
        <ele>768</ele>
        <time>2012-05-10T14:43:20Z</time>
      </trkpt>
      <trkpt lat="46.09767" lon="6.38221">
        <ele>768</ele>
        <time>2012-05-10T14:43:22Z</time>
      </trkpt>
      <trkpt lat="46.09784" lon="6.38208">
        <ele>763</ele>
        <time>2012-05-10T14:43:24Z</time>
      </trkpt>
      <trkpt lat="46.09793" lon="6.38204">
        <ele>763</ele>
        <time>2012-05-10T14:43:25Z</time>
      </trkpt>
      <trkpt lat="46.09802" lon="6.38196">
        <ele>763</ele>
        <time>2012-05-10T14:43:26Z</time>
      </trkpt>
      <trkpt lat="46.0981" lon="6.3819">
        <ele>763</ele>
        <time>2012-05-10T14:43:27Z</time>
      </trkpt>
      <trkpt lat="46.09819" lon="6.38183">
        <ele>763</ele>
        <time>2012-05-10T14:43:28Z</time>
      </trkpt>
      <trkpt lat="46.09827" lon="6.38175">
        <ele>763</ele>
        <time>2012-05-10T14:43:29Z</time>
      </trkpt>
      <trkpt lat="46.09834" lon="6.38166">
        <ele>763</ele>
        <time>2012-05-10T14:43:30Z</time>
      </trkpt>
      <trkpt lat="46.09847" lon="6.38152">
        <ele>757</ele>
        <time>2012-05-10T14:43:32Z</time>
      </trkpt>
      <trkpt lat="46.0986" lon="6.38138">
        <ele>757</ele>
        <time>2012-05-10T14:43:34Z</time>
      </trkpt>
      <trkpt lat="46.09864" lon="6.3812">
        <ele>757</ele>
        <time>2012-05-10T14:43:36Z</time>
      </trkpt>
      <trkpt lat="46.09862" lon="6.38097">
        <ele>757</ele>
        <time>2012-05-10T14:43:38Z</time>
      </trkpt>
      <trkpt lat="46.09867" lon="6.38083">
        <ele>757</ele>
        <time>2012-05-10T14:43:40Z</time>
      </trkpt>
      <trkpt lat="46.09877" lon="6.38072">
        <ele>749</ele>
        <time>2012-05-10T14:43:42Z</time>
      </trkpt>
      <trkpt lat="46.09892" lon="6.38063">
        <ele>749</ele>
        <time>2012-05-10T14:43:44Z</time>
      </trkpt>
      <trkpt lat="46.09906" lon="6.38052">
        <ele>743</ele>
        <time>2012-05-10T14:43:46Z</time>
      </trkpt>
      <trkpt lat="46.09919" lon="6.38038">
        <ele>743</ele>
        <time>2012-05-10T14:43:48Z</time>
      </trkpt>
      <trkpt lat="46.09926" lon="6.38021">
        <ele>743</ele>
        <time>2012-05-10T14:43:50Z</time>
      </trkpt>
      <trkpt lat="46.09928" lon="6.38002">
        <ele>743</ele>
        <time>2012-05-10T14:43:52Z</time>
      </trkpt>
      <trkpt lat="46.09922" lon="6.37983">
        <ele>738</ele>
        <time>2012-05-10T14:43:54Z</time>
      </trkpt>
      <trkpt lat="46.09917" lon="6.37966">
        <ele>738</ele>
        <time>2012-05-10T14:43:56Z</time>
      </trkpt>
      <trkpt lat="46.09912" lon="6.37949">
        <ele>738</ele>
        <time>2012-05-10T14:43:58Z</time>
      </trkpt>
      <trkpt lat="46.09911" lon="6.37931">
        <ele>732</ele>
        <time>2012-05-10T14:44:00Z</time>
      </trkpt>
      <trkpt lat="46.09915" lon="6.37913">
        <ele>732</ele>
        <time>2012-05-10T14:44:02Z</time>
      </trkpt>
      <trkpt lat="46.09922" lon="6.37895">
        <ele>732</ele>
        <time>2012-05-10T14:44:04Z</time>
      </trkpt>
      <trkpt lat="46.09934" lon="6.37876">
        <ele>726</ele>
        <time>2012-05-10T14:44:06Z</time>
      </trkpt>
      <trkpt lat="46.09946" lon="6.37857">
        <ele>726</ele>
        <time>2012-05-10T14:44:08Z</time>
      </trkpt>
      <trkpt lat="46.09955" lon="6.37837">
        <ele>726</ele>
        <time>2012-05-10T14:44:10Z</time>
      </trkpt>
      <trkpt lat="46.09959" lon="6.37825">
        <ele>726</ele>
        <time>2012-05-10T14:44:11Z</time>
      </trkpt>
      <trkpt lat="46.09962" lon="6.37813">
        <ele>726</ele>
        <time>2012-05-10T14:44:12Z</time>
      </trkpt>
      <trkpt lat="46.09968" lon="6.37788">
        <ele>726</ele>
        <time>2012-05-10T14:44:14Z</time>
      </trkpt>
      <trkpt lat="46.09969" lon="6.37773">
        <ele>721</ele>
        <time>2012-05-10T14:44:15Z</time>
      </trkpt>
      <trkpt lat="46.09967" lon="6.37759">
        <ele>721</ele>
        <time>2012-05-10T14:44:16Z</time>
      </trkpt>
      <trkpt lat="46.09963" lon="6.37745">
        <ele>721</ele>
        <time>2012-05-10T14:44:17Z</time>
      </trkpt>
      <trkpt lat="46.09964" lon="6.37731">
        <ele>721</ele>
        <time>2012-05-10T14:44:18Z</time>
      </trkpt>
      <trkpt lat="46.09964" lon="6.37717">
        <ele>721</ele>
        <time>2012-05-10T14:44:19Z</time>
      </trkpt>
      <trkpt lat="46.09967" lon="6.37703">
        <ele>715</ele>
        <time>2012-05-10T14:44:20Z</time>
      </trkpt>
      <trkpt lat="46.09971" lon="6.37689">
        <ele>715</ele>
        <time>2012-05-10T14:44:21Z</time>
      </trkpt>
      <trkpt lat="46.09974" lon="6.37673">
        <ele>715</ele>
        <time>2012-05-10T14:44:22Z</time>
      </trkpt>
      <trkpt lat="46.09977" lon="6.37657">
        <ele>709</ele>
        <time>2012-05-10T14:44:23Z</time>
      </trkpt>
      <trkpt lat="46.09981" lon="6.3764">
        <ele>709</ele>
        <time>2012-05-10T14:44:24Z</time>
      </trkpt>
      <trkpt lat="46.09984" lon="6.37623">
        <ele>709</ele>
        <time>2012-05-10T14:44:25Z</time>
      </trkpt>
      <trkpt lat="46.09987" lon="6.37607">
        <ele>709</ele>
        <time>2012-05-10T14:44:26Z</time>
      </trkpt>
      <trkpt lat="46.09991" lon="6.37591">
        <ele>709</ele>
        <time>2012-05-10T14:44:27Z</time>
      </trkpt>
      <trkpt lat="46.09994" lon="6.37577">
        <ele>709</ele>
        <time>2012-05-10T14:44:28Z</time>
      </trkpt>
      <trkpt lat="46.09996" lon="6.37564">
        <ele>704</ele>
        <time>2012-05-10T14:44:29Z</time>
      </trkpt>
      <trkpt lat="46.10001" lon="6.37542">
        <ele>704</ele>
        <time>2012-05-10T14:44:31Z</time>
      </trkpt>
      <trkpt lat="46.09998" lon="6.37525">
        <ele>699</ele>
        <time>2012-05-10T14:44:33Z</time>
      </trkpt>
      <trkpt lat="46.09984" lon="6.37523">
        <ele>699</ele>
        <time>2012-05-10T14:44:35Z</time>
      </trkpt>
      <trkpt lat="46.09975" lon="6.37528">
        <ele>699</ele>
        <time>2012-05-10T14:44:36Z</time>
      </trkpt>
      <trkpt lat="46.09966" lon="6.37537">
        <ele>693</ele>
        <time>2012-05-10T14:44:37Z</time>
      </trkpt>
      <trkpt lat="46.09957" lon="6.37549">
        <ele>693</ele>
        <time>2012-05-10T14:44:38Z</time>
      </trkpt>
      <trkpt lat="46.09947" lon="6.3756">
        <ele>687</ele>
        <time>2012-05-10T14:44:39Z</time>
      </trkpt>
      <trkpt lat="46.09937" lon="6.37572">
        <ele>687</ele>
        <time>2012-05-10T14:44:40Z</time>
      </trkpt>
      <trkpt lat="46.09926" lon="6.37584">
        <ele>687</ele>
        <time>2012-05-10T14:44:41Z</time>
      </trkpt>
      <trkpt lat="46.09915" lon="6.37595">
        <ele>687</ele>
        <time>2012-05-10T14:44:42Z</time>
      </trkpt>
      <trkpt lat="46.09905" lon="6.37604">
        <ele>680</ele>
        <time>2012-05-10T14:44:43Z</time>
      </trkpt>
      <trkpt lat="46.09896" lon="6.37613">
        <ele>680</ele>
        <time>2012-05-10T14:44:44Z</time>
      </trkpt>
      <trkpt lat="46.09887" lon="6.37622">
        <ele>680</ele>
        <time>2012-05-10T14:44:45Z</time>
      </trkpt>
      <trkpt lat="46.0988" lon="6.37634">
        <ele>680</ele>
        <time>2012-05-10T14:44:46Z</time>
      </trkpt>
      <trkpt lat="46.09874" lon="6.37646">
        <ele>680</ele>
        <time>2012-05-10T14:44:47Z</time>
      </trkpt>
      <trkpt lat="46.09867" lon="6.37658">
        <ele>674</ele>
        <time>2012-05-10T14:44:48Z</time>
      </trkpt>
      <trkpt lat="46.09861" lon="6.37672">
        <ele>674</ele>
        <time>2012-05-10T14:44:49Z</time>
      </trkpt>
      <trkpt lat="46.09854" lon="6.37684">
        <ele>674</ele>
        <time>2012-05-10T14:44:50Z</time>
      </trkpt>
      <trkpt lat="46.09848" lon="6.37696">
        <ele>669</ele>
        <time>2012-05-10T14:44:51Z</time>
      </trkpt>
      <trkpt lat="46.09842" lon="6.37708">
        <ele>669</ele>
        <time>2012-05-10T14:44:52Z</time>
      </trkpt>
      <trkpt lat="46.09836" lon="6.37721">
        <ele>669</ele>
        <time>2012-05-10T14:44:53Z</time>
      </trkpt>
      <trkpt lat="46.09829" lon="6.37734">
        <ele>669</ele>
        <time>2012-05-10T14:44:54Z</time>
      </trkpt>
      <trkpt lat="46.0982" lon="6.37746">
        <ele>669</ele>
        <time>2012-05-10T14:44:55Z</time>
      </trkpt>
      <trkpt lat="46.09813" lon="6.37758">
        <ele>663</ele>
        <time>2012-05-10T14:44:56Z</time>
      </trkpt>
      <trkpt lat="46.09806" lon="6.37772">
        <ele>663</ele>
        <time>2012-05-10T14:44:57Z</time>
      </trkpt>
      <trkpt lat="46.09799" lon="6.37783">
        <ele>663</ele>
        <time>2012-05-10T14:44:58Z</time>
      </trkpt>
      <trkpt lat="46.09793" lon="6.37793">
        <ele>663</ele>
        <time>2012-05-10T14:44:59Z</time>
      </trkpt>
      <trkpt lat="46.09786" lon="6.37802">
        <ele>657</ele>
        <time>2012-05-10T14:45:00Z</time>
      </trkpt>
      <trkpt lat="46.09768" lon="6.37807">
        <ele>657</ele>
        <time>2012-05-10T14:45:02Z</time>
      </trkpt>
      <trkpt lat="46.09757" lon="6.37805">
        <ele>657</ele>
        <time>2012-05-10T14:45:03Z</time>
      </trkpt>
      <trkpt lat="46.09747" lon="6.37805">
        <ele>651</ele>
        <time>2012-05-10T14:45:04Z</time>
      </trkpt>
      <trkpt lat="46.09736" lon="6.37807">
        <ele>651</ele>
        <time>2012-05-10T14:45:05Z</time>
      </trkpt>
      <trkpt lat="46.09726" lon="6.37811">
        <ele>651</ele>
        <time>2012-05-10T14:45:06Z</time>
      </trkpt>
      <trkpt lat="46.09716" lon="6.37817">
        <ele>651</ele>
        <time>2012-05-10T14:45:07Z</time>
      </trkpt>
      <trkpt lat="46.09706" lon="6.37826">
        <ele>646</ele>
        <time>2012-05-10T14:45:08Z</time>
      </trkpt>
      <trkpt lat="46.09696" lon="6.37838">
        <ele>646</ele>
        <time>2012-05-10T14:45:09Z</time>
      </trkpt>
      <trkpt lat="46.09684" lon="6.37851">
        <ele>646</ele>
        <time>2012-05-10T14:45:10Z</time>
      </trkpt>
      <trkpt lat="46.09672" lon="6.37862">
        <ele>640</ele>
        <time>2012-05-10T14:45:11Z</time>
      </trkpt>
      <trkpt lat="46.0966" lon="6.37873">
        <ele>640</ele>
        <time>2012-05-10T14:45:12Z</time>
      </trkpt>
      <trkpt lat="46.09648" lon="6.37884">
        <ele>640</ele>
        <time>2012-05-10T14:45:13Z</time>
      </trkpt>
      <trkpt lat="46.09637" lon="6.37895">
        <ele>640</ele>
        <time>2012-05-10T14:45:14Z</time>
      </trkpt>
      <trkpt lat="46.09626" lon="6.37905">
        <ele>633</ele>
        <time>2012-05-10T14:45:15Z</time>
      </trkpt>
      <trkpt lat="46.09616" lon="6.37914">
        <ele>633</ele>
        <time>2012-05-10T14:45:16Z</time>
      </trkpt>
      <trkpt lat="46.09607" lon="6.37924">
        <ele>633</ele>
        <time>2012-05-10T14:45:17Z</time>
      </trkpt>
      <trkpt lat="46.09599" lon="6.37932">
        <ele>627</ele>
        <time>2012-05-10T14:45:18Z</time>
      </trkpt>
      <trkpt lat="46.09585" lon="6.37943">
        <ele>627</ele>
        <time>2012-05-10T14:45:20Z</time>
      </trkpt>
      <trkpt lat="46.09575" lon="6.37948">
        <ele>627</ele>
        <time>2012-05-10T14:45:22Z</time>
      </trkpt>
      <trkpt lat="46.09567" lon="6.37958">
        <ele>627</ele>
        <time>2012-05-10T14:45:24Z</time>
      </trkpt>
      <trkpt lat="46.09562" lon="6.37973">
        <ele>627</ele>
        <time>2012-05-10T14:45:26Z</time>
      </trkpt>
      <trkpt lat="46.09559" lon="6.37991">
        <ele>627</ele>
        <time>2012-05-10T14:45:28Z</time>
      </trkpt>
      <trkpt lat="46.09557" lon="6.38005">
        <ele>627</ele>
        <time>2012-05-10T14:45:30Z</time>
      </trkpt>
      <trkpt lat="46.09552" lon="6.38018">
        <ele>627</ele>
        <time>2012-05-10T14:45:32Z</time>
      </trkpt>
      <trkpt lat="46.09542" lon="6.38025">
        <ele>627</ele>
        <time>2012-05-10T14:45:34Z</time>
      </trkpt>
      <trkpt lat="46.09534" lon="6.38035">
        <ele>627</ele>
        <time>2012-05-10T14:45:36Z</time>
      </trkpt>
      <trkpt lat="46.09525" lon="6.38051">
        <ele>627</ele>
        <time>2012-05-10T14:45:38Z</time>
      </trkpt>
      <trkpt lat="46.09516" lon="6.38066">
        <ele>627</ele>
        <time>2012-05-10T14:45:40Z</time>
      </trkpt>
      <trkpt lat="46.09509" lon="6.38081">
        <ele>627</ele>
        <time>2012-05-10T14:45:42Z</time>
      </trkpt>
      <trkpt lat="46.09505" lon="6.38098">
        <ele>627</ele>
        <time>2012-05-10T14:45:44Z</time>
      </trkpt>
      <trkpt lat="46.09497" lon="6.38114">
        <ele>627</ele>
        <time>2012-05-10T14:45:46Z</time>
      </trkpt>
      <trkpt lat="46.09484" lon="6.38129">
        <ele>627</ele>
        <time>2012-05-10T14:45:48Z</time>
      </trkpt>
      <trkpt lat="46.09473" lon="6.38141">
        <ele>627</ele>
        <time>2012-05-10T14:45:50Z</time>
      </trkpt>
      <trkpt lat="46.09461" lon="6.38152">
        <ele>627</ele>
        <time>2012-05-10T14:45:52Z</time>
      </trkpt>
      <trkpt lat="46.09448" lon="6.38167">
        <ele>627</ele>
        <time>2012-05-10T14:45:54Z</time>
      </trkpt>
      <trkpt lat="46.09441" lon="6.38176">
        <ele>627</ele>
        <time>2012-05-10T14:45:55Z</time>
      </trkpt>
      <trkpt lat="46.09433" lon="6.38186">
        <ele>627</ele>
        <time>2012-05-10T14:45:56Z</time>
      </trkpt>
      <trkpt lat="46.09426" lon="6.38196">
        <ele>627</ele>
        <time>2012-05-10T14:45:57Z</time>
      </trkpt>
      <trkpt lat="46.09418" lon="6.38207">
        <ele>627</ele>
        <time>2012-05-10T14:45:58Z</time>
      </trkpt>
      <trkpt lat="46.09411" lon="6.38216">
        <ele>627</ele>
        <time>2012-05-10T14:45:59Z</time>
      </trkpt>
      <trkpt lat="46.09403" lon="6.38224">
        <ele>627</ele>
        <time>2012-05-10T14:46:00Z</time>
      </trkpt>
      <trkpt lat="46.09394" lon="6.38231">
        <ele>627</ele>
        <time>2012-05-10T14:46:01Z</time>
      </trkpt>
      <trkpt lat="46.09386" lon="6.3824">
        <ele>627</ele>
        <time>2012-05-10T14:46:03Z</time>
      </trkpt>
      <trkpt lat="46.09375" lon="6.38254">
        <ele>627</ele>
        <time>2012-05-10T14:46:05Z</time>
      </trkpt>
      <trkpt lat="46.09366" lon="6.38267">
        <ele>627</ele>
        <time>2012-05-10T14:46:07Z</time>
      </trkpt>
      <trkpt lat="46.0936" lon="6.3828">
        <ele>627</ele>
        <time>2012-05-10T14:46:09Z</time>
      </trkpt>
      <trkpt lat="46.09355" lon="6.38295">
        <ele>622</ele>
        <time>2012-05-10T14:46:11Z</time>
      </trkpt>
      <trkpt lat="46.09348" lon="6.38311">
        <ele>622</ele>
        <time>2012-05-10T14:46:13Z</time>
      </trkpt>
      <trkpt lat="46.09342" lon="6.38326">
        <ele>622</ele>
        <time>2012-05-10T14:46:15Z</time>
      </trkpt>
      <trkpt lat="46.09326" lon="6.3834">
        <ele>622</ele>
        <time>2012-05-10T14:46:17Z</time>
      </trkpt>
      <trkpt lat="46.09319" lon="6.38349">
        <ele>622</ele>
        <time>2012-05-10T14:46:18Z</time>
      </trkpt>
      <trkpt lat="46.09311" lon="6.38359">
        <ele>622</ele>
        <time>2012-05-10T14:46:19Z</time>
      </trkpt>
      <trkpt lat="46.09298" lon="6.38374">
        <ele>622</ele>
        <time>2012-05-10T14:46:21Z</time>
      </trkpt>
      <trkpt lat="46.09284" lon="6.38388">
        <ele>616</ele>
        <time>2012-05-10T14:46:23Z</time>
      </trkpt>
      <trkpt lat="46.09268" lon="6.384">
        <ele>616</ele>
        <time>2012-05-10T14:46:25Z</time>
      </trkpt>
      <trkpt lat="46.09253" lon="6.38412">
        <ele>608</ele>
        <time>2012-05-10T14:46:27Z</time>
      </trkpt>
      <trkpt lat="46.09241" lon="6.38422">
        <ele>601</ele>
        <time>2012-05-10T14:46:29Z</time>
      </trkpt>
      <trkpt lat="46.0923" lon="6.38431">
        <ele>601</ele>
        <time>2012-05-10T14:46:31Z</time>
      </trkpt>
      <trkpt lat="46.09223" lon="6.38443">
        <ele>594</ele>
        <time>2012-05-10T14:46:33Z</time>
      </trkpt>
      <trkpt lat="46.09218" lon="6.38462">
        <ele>586</ele>
        <time>2012-05-10T14:46:35Z</time>
      </trkpt>
      <trkpt lat="46.09206" lon="6.38484">
        <ele>578</ele>
        <time>2012-05-10T14:46:39Z</time>
      </trkpt>
      <trkpt lat="46.09193" lon="6.3849">
        <ele>578</ele>
        <time>2012-05-10T14:46:41Z</time>
      </trkpt>
      <trkpt lat="46.09184" lon="6.38501">
        <ele>578</ele>
        <time>2012-05-10T14:46:43Z</time>
      </trkpt>
      <trkpt lat="46.09176" lon="6.38513">
        <ele>570</ele>
        <time>2012-05-10T14:46:45Z</time>
      </trkpt>
      <trkpt lat="46.09166" lon="6.38526">
        <ele>570</ele>
        <time>2012-05-10T14:46:47Z</time>
      </trkpt>
      <trkpt lat="46.09152" lon="6.38539">
        <ele>563</ele>
        <time>2012-05-10T14:46:49Z</time>
      </trkpt>
      <trkpt lat="46.09139" lon="6.38543">
        <ele>563</ele>
        <time>2012-05-10T14:46:51Z</time>
      </trkpt>
      <trkpt lat="46.09127" lon="6.3855">
        <ele>563</ele>
        <time>2012-05-10T14:46:53Z</time>
      </trkpt>
      <trkpt lat="46.09113" lon="6.38554">
        <ele>563</ele>
        <time>2012-05-10T14:46:55Z</time>
      </trkpt>
      <trkpt lat="46.09101" lon="6.38555">
        <ele>554</ele>
        <time>2012-05-10T14:46:57Z</time>
      </trkpt>
      <trkpt lat="46.0909" lon="6.38557">
        <ele>554</ele>
        <time>2012-05-10T14:47:00Z</time>
      </trkpt>
      <trkpt lat="46.09082" lon="6.38573">
        <ele>545</ele>
        <time>2012-05-10T14:47:03Z</time>
      </trkpt>
      <trkpt lat="46.09081" lon="6.38586">
        <ele>545</ele>
        <time>2012-05-10T14:47:05Z</time>
      </trkpt>
      <trkpt lat="46.09082" lon="6.38606">
        <ele>545</ele>
        <time>2012-05-10T14:47:07Z</time>
      </trkpt>
      <trkpt lat="46.09081" lon="6.38629">
        <ele>545</ele>
        <time>2012-05-10T14:47:09Z</time>
      </trkpt>
      <trkpt lat="46.09068" lon="6.38651">
        <ele>545</ele>
        <time>2012-05-10T14:47:11Z</time>
      </trkpt>
      <trkpt lat="46.09061" lon="6.38663">
        <ele>545</ele>
        <time>2012-05-10T14:47:12Z</time>
      </trkpt>
      <trkpt lat="46.09054" lon="6.38673">
        <ele>545</ele>
        <time>2012-05-10T14:47:13Z</time>
      </trkpt>
      <trkpt lat="46.09045" lon="6.38695">
        <ele>545</ele>
        <time>2012-05-10T14:47:15Z</time>
      </trkpt>
      <trkpt lat="46.09039" lon="6.38717">
        <ele>545</ele>
        <time>2012-05-10T14:47:17Z</time>
      </trkpt>
      <trkpt lat="46.09038" lon="6.38739">
        <ele>545</ele>
        <time>2012-05-10T14:47:19Z</time>
      </trkpt>
      <trkpt lat="46.09037" lon="6.38762">
        <ele>550</ele>
        <time>2012-05-10T14:47:21Z</time>
      </trkpt>
      <trkpt lat="46.09037" lon="6.38788">
        <ele>550</ele>
        <time>2012-05-10T14:47:23Z</time>
      </trkpt>
      <trkpt lat="46.09036" lon="6.38801">
        <ele>550</ele>
        <time>2012-05-10T14:47:24Z</time>
      </trkpt>
      <trkpt lat="46.09035" lon="6.38815">
        <ele>550</ele>
        <time>2012-05-10T14:47:25Z</time>
      </trkpt>
      <trkpt lat="46.09035" lon="6.3884">
        <ele>556</ele>
        <time>2012-05-10T14:47:27Z</time>
      </trkpt>
      <trkpt lat="46.09037" lon="6.38853">
        <ele>556</ele>
        <time>2012-05-10T14:47:28Z</time>
      </trkpt>
      <trkpt lat="46.09037" lon="6.38868">
        <ele>556</ele>
        <time>2012-05-10T14:47:29Z</time>
      </trkpt>
      <trkpt lat="46.09038" lon="6.38881">
        <ele>556</ele>
        <time>2012-05-10T14:47:30Z</time>
      </trkpt>
      <trkpt lat="46.09036" lon="6.38905">
        <ele>556</ele>
        <time>2012-05-10T14:47:32Z</time>
      </trkpt>
      <trkpt lat="46.09026" lon="6.38929">
        <ele>556</ele>
        <time>2012-05-10T14:47:34Z</time>
      </trkpt>
      <trkpt lat="46.09021" lon="6.38943">
        <ele>556</ele>
        <time>2012-05-10T14:47:35Z</time>
      </trkpt>
      <trkpt lat="46.09018" lon="6.38956">
        <ele>556</ele>
        <time>2012-05-10T14:47:36Z</time>
      </trkpt>
      <trkpt lat="46.09016" lon="6.38981">
        <ele>556</ele>
        <time>2012-05-10T14:47:38Z</time>
      </trkpt>
      <trkpt lat="46.09015" lon="6.39005">
        <ele>556</ele>
        <time>2012-05-10T14:47:40Z</time>
      </trkpt>
      <trkpt lat="46.09016" lon="6.39018">
        <ele>556</ele>
        <time>2012-05-10T14:47:41Z</time>
      </trkpt>
      <trkpt lat="46.09013" lon="6.39034">
        <ele>551</ele>
        <time>2012-05-10T14:47:42Z</time>
      </trkpt>
      <trkpt lat="46.09011" lon="6.39048">
        <ele>551</ele>
        <time>2012-05-10T14:47:43Z</time>
      </trkpt>
      <trkpt lat="46.09007" lon="6.3907">
        <ele>551</ele>
        <time>2012-05-10T14:47:45Z</time>
      </trkpt>
      <trkpt lat="46.08999" lon="6.39089">
        <ele>551</ele>
        <time>2012-05-10T14:47:47Z</time>
      </trkpt>
      <trkpt lat="46.08995" lon="6.39101">
        <ele>551</ele>
        <time>2012-05-10T14:47:48Z</time>
      </trkpt>
      <trkpt lat="46.08989" lon="6.39115">
        <ele>551</ele>
        <time>2012-05-10T14:47:49Z</time>
      </trkpt>
      <trkpt lat="46.08984" lon="6.39126">
        <ele>551</ele>
        <time>2012-05-10T14:47:50Z</time>
      </trkpt>
      <trkpt lat="46.08977" lon="6.3914">
        <ele>551</ele>
        <time>2012-05-10T14:47:51Z</time>
      </trkpt>
      <trkpt lat="46.0897" lon="6.3915">
        <ele>551</ele>
        <time>2012-05-10T14:47:52Z</time>
      </trkpt>
      <trkpt lat="46.08963" lon="6.39161">
        <ele>551</ele>
        <time>2012-05-10T14:47:53Z</time>
      </trkpt>
      <trkpt lat="46.08952" lon="6.39181">
        <ele>551</ele>
        <time>2012-05-10T14:47:55Z</time>
      </trkpt>
      <trkpt lat="46.08943" lon="6.39203">
        <ele>551</ele>
        <time>2012-05-10T14:47:57Z</time>
      </trkpt>
      <trkpt lat="46.08941" lon="6.39217">
        <ele>551</ele>
        <time>2012-05-10T14:47:58Z</time>
      </trkpt>
      <trkpt lat="46.08938" lon="6.39231">
        <ele>551</ele>
        <time>2012-05-10T14:47:59Z</time>
      </trkpt>
      <trkpt lat="46.08934" lon="6.39245">
        <ele>551</ele>
        <time>2012-05-10T14:48:00Z</time>
      </trkpt>
      <trkpt lat="46.08929" lon="6.39257">
        <ele>551</ele>
        <time>2012-05-10T14:48:01Z</time>
      </trkpt>
      <trkpt lat="46.08924" lon="6.39269">
        <ele>551</ele>
        <time>2012-05-10T14:48:02Z</time>
      </trkpt>
      <trkpt lat="46.08918" lon="6.39281">
        <ele>551</ele>
        <time>2012-05-10T14:48:03Z</time>
      </trkpt>
      <trkpt lat="46.08909" lon="6.393">
        <ele>551</ele>
        <time>2012-05-10T14:48:05Z</time>
      </trkpt>
      <trkpt lat="46.08906" lon="6.39312">
        <ele>544</ele>
        <time>2012-05-10T14:48:06Z</time>
      </trkpt>
      <trkpt lat="46.08906" lon="6.39336">
        <ele>544</ele>
        <time>2012-05-10T14:48:08Z</time>
      </trkpt>
      <trkpt lat="46.08903" lon="6.39351">
        <ele>544</ele>
        <time>2012-05-10T14:48:09Z</time>
      </trkpt>
      <trkpt lat="46.08901" lon="6.39365">
        <ele>544</ele>
        <time>2012-05-10T14:48:10Z</time>
      </trkpt>
      <trkpt lat="46.08898" lon="6.39379">
        <ele>536</ele>
        <time>2012-05-10T14:48:11Z</time>
      </trkpt>
      <trkpt lat="46.08895" lon="6.39393">
        <ele>536</ele>
        <time>2012-05-10T14:48:12Z</time>
      </trkpt>
      <trkpt lat="46.08891" lon="6.39406">
        <ele>536</ele>
        <time>2012-05-10T14:48:13Z</time>
      </trkpt>
      <trkpt lat="46.08888" lon="6.39421">
        <ele>536</ele>
        <time>2012-05-10T14:48:14Z</time>
      </trkpt>
      <trkpt lat="46.08886" lon="6.39436">
        <ele>530</ele>
        <time>2012-05-10T14:48:15Z</time>
      </trkpt>
      <trkpt lat="46.08884" lon="6.39451">
        <ele>530</ele>
        <time>2012-05-10T14:48:16Z</time>
      </trkpt>
      <trkpt lat="46.08885" lon="6.39466">
        <ele>530</ele>
        <time>2012-05-10T14:48:17Z</time>
      </trkpt>
      <trkpt lat="46.08884" lon="6.39482">
        <ele>530</ele>
        <time>2012-05-10T14:48:18Z</time>
      </trkpt>
      <trkpt lat="46.08883" lon="6.39495">
        <ele>530</ele>
        <time>2012-05-10T14:48:19Z</time>
      </trkpt>
      <trkpt lat="46.08882" lon="6.39512">
        <ele>525</ele>
        <time>2012-05-10T14:48:20Z</time>
      </trkpt>
      <trkpt lat="46.08881" lon="6.39539">
        <ele>525</ele>
        <time>2012-05-10T14:48:22Z</time>
      </trkpt>
      <trkpt lat="46.0888" lon="6.39552">
        <ele>525</ele>
        <time>2012-05-10T14:48:23Z</time>
      </trkpt>
      <trkpt lat="46.08879" lon="6.39571">
        <ele>525</ele>
        <time>2012-05-10T14:48:25Z</time>
      </trkpt>
      <trkpt lat="46.08872" lon="6.3956">
        <ele>518</ele>
        <time>2012-05-10T14:48:31Z</time>
      </trkpt>
      <trkpt lat="46.08871" lon="6.39546">
        <ele>513</ele>
        <time>2012-05-10T14:48:35Z</time>
      </trkpt>
      <trkpt lat="46.08862" lon="6.39555">
        <ele>513</ele>
        <time>2012-05-10T14:48:38Z</time>
      </trkpt>
      <trkpt lat="46.08855" lon="6.39565">
        <ele>513</ele>
        <time>2012-05-10T14:48:40Z</time>
      </trkpt>
      <trkpt lat="46.08846" lon="6.39567">
        <ele>513</ele>
        <time>2012-05-10T14:48:43Z</time>
      </trkpt>
      <trkpt lat="46.08849" lon="6.39548">
        <ele>507</ele>
        <time>2012-05-10T14:48:46Z</time>
      </trkpt>
      <trkpt lat="46.08856" lon="6.39533">
        <ele>507</ele>
        <time>2012-05-10T14:48:48Z</time>
      </trkpt>
      <trkpt lat="46.08861" lon="6.3952">
        <ele>507</ele>
        <time>2012-05-10T14:48:50Z</time>
      </trkpt>
      <trkpt lat="46.08854" lon="6.39504">
        <ele>502</ele>
        <time>2012-05-10T14:48:53Z</time>
      </trkpt>
      <trkpt lat="46.08843" lon="6.39496">
        <ele>502</ele>
        <time>2012-05-10T14:48:55Z</time>
      </trkpt>
      <trkpt lat="46.08835" lon="6.39489">
        <ele>502</ele>
        <time>2012-05-10T14:48:57Z</time>
      </trkpt>
      <trkpt lat="46.08824" lon="6.39479">
        <ele>494</ele>
        <time>2012-05-10T14:49:00Z</time>
      </trkpt>
      <trkpt lat="46.08814" lon="6.39468">
        <ele>494</ele>
        <time>2012-05-10T14:49:03Z</time>
      </trkpt>
      <trkpt lat="46.08801" lon="6.39456">
        <ele>494</ele>
        <time>2012-05-10T14:49:06Z</time>
      </trkpt>
      <trkpt lat="46.08789" lon="6.39448">
        <ele>489</ele>
        <time>2012-05-10T14:49:08Z</time>
      </trkpt>
      <trkpt lat="46.08775" lon="6.39443">
        <ele>489</ele>
        <time>2012-05-10T14:49:10Z</time>
      </trkpt>
      <trkpt lat="46.08764" lon="6.39443">
        <ele>489</ele>
        <time>2012-05-10T14:49:12Z</time>
      </trkpt>
      <trkpt lat="46.08754" lon="6.3945">
        <ele>483</ele>
        <time>2012-05-10T14:49:14Z</time>
      </trkpt>
      <trkpt lat="46.08746" lon="6.3946">
        <ele>483</ele>
        <time>2012-05-10T14:49:16Z</time>
      </trkpt>
      <trkpt lat="46.08737" lon="6.39473">
        <ele>483</ele>
        <time>2012-05-10T14:49:18Z</time>
      </trkpt>
      <trkpt lat="46.08727" lon="6.39487">
        <ele>478</ele>
        <time>2012-05-10T14:49:21Z</time>
      </trkpt>
      <trkpt lat="46.08719" lon="6.39497">
        <ele>478</ele>
        <time>2012-05-10T14:49:23Z</time>
      </trkpt>
      <trkpt lat="46.08711" lon="6.39509">
        <ele>473</ele>
        <time>2012-05-10T14:49:25Z</time>
      </trkpt>
      <trkpt lat="46.08701" lon="6.3952">
        <ele>473</ele>
        <time>2012-05-10T14:49:27Z</time>
      </trkpt>
      <trkpt lat="46.08691" lon="6.3953">
        <ele>473</ele>
        <time>2012-05-10T14:49:29Z</time>
      </trkpt>
      <trkpt lat="46.08682" lon="6.39538">
        <ele>465</ele>
        <time>2012-05-10T14:49:31Z</time>
      </trkpt>
      <trkpt lat="46.08674" lon="6.39544">
        <ele>465</ele>
        <time>2012-05-10T14:49:33Z</time>
      </trkpt>
      <trkpt lat="46.08665" lon="6.39553">
        <ele>459</ele>
        <time>2012-05-10T14:49:51Z</time>
      </trkpt>
      <trkpt lat="46.08664" lon="6.39568">
        <ele>459</ele>
        <time>2012-05-10T14:49:53Z</time>
      </trkpt>
      <trkpt lat="46.08664" lon="6.39582">
        <ele>459</ele>
        <time>2012-05-10T14:49:54Z</time>
      </trkpt>
      <trkpt lat="46.08667" lon="6.39597">
        <ele>459</ele>
        <time>2012-05-10T14:49:55Z</time>
      </trkpt>
      <trkpt lat="46.08669" lon="6.39614">
        <ele>459</ele>
        <time>2012-05-10T14:49:56Z</time>
      </trkpt>
      <trkpt lat="46.08671" lon="6.39633">
        <ele>454</ele>
        <time>2012-05-10T14:49:57Z</time>
      </trkpt>
      <trkpt lat="46.08674" lon="6.39652">
        <ele>454</ele>
        <time>2012-05-10T14:49:58Z</time>
      </trkpt>
      <trkpt lat="46.08676" lon="6.39671">
        <ele>454</ele>
        <time>2012-05-10T14:49:59Z</time>
      </trkpt>
      <trkpt lat="46.08679" lon="6.3969">
        <ele>454</ele>
        <time>2012-05-10T14:50:00Z</time>
      </trkpt>
      <trkpt lat="46.08681" lon="6.39711">
        <ele>454</ele>
        <time>2012-05-10T14:50:01Z</time>
      </trkpt>
      <trkpt lat="46.08682" lon="6.39732">
        <ele>454</ele>
        <time>2012-05-10T14:50:02Z</time>
      </trkpt>
      <trkpt lat="46.08682" lon="6.39753">
        <ele>454</ele>
        <time>2012-05-10T14:50:03Z</time>
      </trkpt>
      <trkpt lat="46.08682" lon="6.39774">
        <ele>448</ele>
        <time>2012-05-10T14:50:04Z</time>
      </trkpt>
      <trkpt lat="46.08682" lon="6.39795">
        <ele>448</ele>
        <time>2012-05-10T14:50:05Z</time>
      </trkpt>
      <trkpt lat="46.08682" lon="6.39814">
        <ele>448</ele>
        <time>2012-05-10T14:50:06Z</time>
      </trkpt>
      <trkpt lat="46.08681" lon="6.39834">
        <ele>448</ele>
        <time>2012-05-10T14:50:07Z</time>
      </trkpt>
      <trkpt lat="46.08679" lon="6.39855">
        <ele>448</ele>
        <time>2012-05-10T14:50:08Z</time>
      </trkpt>
      <trkpt lat="46.08676" lon="6.39874">
        <ele>448</ele>
        <time>2012-05-10T14:50:09Z</time>
      </trkpt>
      <trkpt lat="46.08674" lon="6.39894">
        <ele>448</ele>
        <time>2012-05-10T14:50:10Z</time>
      </trkpt>
      <trkpt lat="46.08669" lon="6.39916">
        <ele>448</ele>
        <time>2012-05-10T14:50:11Z</time>
      </trkpt>
      <trkpt lat="46.08664" lon="6.39938">
        <ele>448</ele>
        <time>2012-05-10T14:50:12Z</time>
      </trkpt>
      <trkpt lat="46.08657" lon="6.39961">
        <ele>448</ele>
        <time>2012-05-10T14:50:13Z</time>
      </trkpt>
      <trkpt lat="46.08649" lon="6.39981">
        <ele>448</ele>
        <time>2012-05-10T14:50:14Z</time>
      </trkpt>
      <trkpt lat="46.08641" lon="6.4">
        <ele>448</ele>
        <time>2012-05-10T14:50:15Z</time>
      </trkpt>
      <trkpt lat="46.08631" lon="6.40014">
        <ele>443</ele>
        <time>2012-05-10T14:50:16Z</time>
      </trkpt>
      <trkpt lat="46.08622" lon="6.40027">
        <ele>443</ele>
        <time>2012-05-10T14:50:17Z</time>
      </trkpt>
      <trkpt lat="46.08611" lon="6.40038">
        <ele>443</ele>
        <time>2012-05-10T14:50:18Z</time>
      </trkpt>
      <trkpt lat="46.08601" lon="6.40048">
        <ele>443</ele>
        <time>2012-05-10T14:50:19Z</time>
      </trkpt>
      <trkpt lat="46.08591" lon="6.40058">
        <ele>443</ele>
        <time>2012-05-10T14:50:20Z</time>
      </trkpt>
      <trkpt lat="46.0858" lon="6.40067">
        <ele>443</ele>
        <time>2012-05-10T14:50:21Z</time>
      </trkpt>
      <trkpt lat="46.0857" lon="6.40076">
        <ele>443</ele>
        <time>2012-05-10T14:50:22Z</time>
      </trkpt>
      <trkpt lat="46.08561" lon="6.40084">
        <ele>443</ele>
        <time>2012-05-10T14:50:23Z</time>
      </trkpt>
      <trkpt lat="46.08552" lon="6.40092">
        <ele>443</ele>
        <time>2012-05-10T14:50:24Z</time>
      </trkpt>
      <trkpt lat="46.08542" lon="6.40101">
        <ele>443</ele>
        <time>2012-05-10T14:50:25Z</time>
      </trkpt>
      <trkpt lat="46.08532" lon="6.4011">
        <ele>443</ele>
        <time>2012-05-10T14:50:26Z</time>
      </trkpt>
      <trkpt lat="46.08522" lon="6.40119">
        <ele>443</ele>
        <time>2012-05-10T14:50:27Z</time>
      </trkpt>
      <trkpt lat="46.08512" lon="6.40129">
        <ele>443</ele>
        <time>2012-05-10T14:50:28Z</time>
      </trkpt>
      <trkpt lat="46.08502" lon="6.40139">
        <ele>443</ele>
        <time>2012-05-10T14:50:29Z</time>
      </trkpt>
      <trkpt lat="46.08492" lon="6.40147">
        <ele>443</ele>
        <time>2012-05-10T14:50:30Z</time>
      </trkpt>
      <trkpt lat="46.08482" lon="6.40156">
        <ele>443</ele>
        <time>2012-05-10T14:50:31Z</time>
      </trkpt>
      <trkpt lat="46.08472" lon="6.40164">
        <ele>443</ele>
        <time>2012-05-10T14:50:32Z</time>
      </trkpt>
      <trkpt lat="46.08464" lon="6.4017">
        <ele>443</ele>
        <time>2012-05-10T14:50:33Z</time>
      </trkpt>
      <trkpt lat="46.08456" lon="6.40177">
        <ele>443</ele>
        <time>2012-05-10T14:50:34Z</time>
      </trkpt>
      <trkpt lat="46.08442" lon="6.40189">
        <ele>450</ele>
        <time>2012-05-10T14:50:36Z</time>
      </trkpt>
      <trkpt lat="46.08429" lon="6.40197">
        <ele>450</ele>
        <time>2012-05-10T14:50:38Z</time>
      </trkpt>
      <trkpt lat="46.08418" lon="6.40206">
        <ele>456</ele>
        <time>2012-05-10T14:50:41Z</time>
      </trkpt>
      <trkpt lat="46.08406" lon="6.4021">
        <ele>456</ele>
        <time>2012-05-10T14:51:07Z</time>
      </trkpt>
      <trkpt lat="46.08397" lon="6.40218">
        <ele>456</ele>
        <time>2012-05-10T14:51:09Z</time>
      </trkpt>
      <trkpt lat="46.08389" lon="6.40226">
        <ele>456</ele>
        <time>2012-05-10T14:51:11Z</time>
      </trkpt>
      <trkpt lat="46.08379" lon="6.40235">
        <ele>456</ele>
        <time>2012-05-10T14:51:13Z</time>
      </trkpt>
      <trkpt lat="46.08367" lon="6.40246">
        <ele>456</ele>
        <time>2012-05-10T14:51:15Z</time>
      </trkpt>
      <trkpt lat="46.08356" lon="6.40257">
        <ele>456</ele>
        <time>2012-05-10T14:51:17Z</time>
      </trkpt>
      <trkpt lat="46.08344" lon="6.40269">
        <ele>456</ele>
        <time>2012-05-10T14:51:19Z</time>
      </trkpt>
      <trkpt lat="46.08332" lon="6.40281">
        <ele>456</ele>
        <time>2012-05-10T14:51:21Z</time>
      </trkpt>
      <trkpt lat="46.08321" lon="6.40294">
        <ele>456</ele>
        <time>2012-05-10T14:51:23Z</time>
      </trkpt>
      <trkpt lat="46.08309" lon="6.40306">
        <ele>456</ele>
        <time>2012-05-10T14:51:25Z</time>
      </trkpt>
      <trkpt lat="46.08295" lon="6.40318">
        <ele>456</ele>
        <time>2012-05-10T14:51:27Z</time>
      </trkpt>
      <trkpt lat="46.08281" lon="6.4033">
        <ele>456</ele>
        <time>2012-05-10T14:51:29Z</time>
      </trkpt>
      <trkpt lat="46.08267" lon="6.40343">
        <ele>456</ele>
        <time>2012-05-10T14:51:31Z</time>
      </trkpt>
      <trkpt lat="46.08254" lon="6.40353">
        <ele>456</ele>
        <time>2012-05-10T14:51:33Z</time>
      </trkpt>
      <trkpt lat="46.08242" lon="6.40364">
        <ele>456</ele>
        <time>2012-05-10T14:51:35Z</time>
      </trkpt>
      <trkpt lat="46.0823" lon="6.40376">
        <ele>456</ele>
        <time>2012-05-10T14:51:37Z</time>
      </trkpt>
      <trkpt lat="46.08217" lon="6.40387">
        <ele>456</ele>
        <time>2012-05-10T14:51:39Z</time>
      </trkpt>
      <trkpt lat="46.08203" lon="6.40394">
        <ele>456</ele>
        <time>2012-05-10T14:51:41Z</time>
      </trkpt>
      <trkpt lat="46.08187" lon="6.40386">
        <ele>450</ele>
        <time>2012-05-10T14:51:43Z</time>
      </trkpt>
      <trkpt lat="46.0818" lon="6.40377">
        <ele>450</ele>
        <time>2012-05-10T14:51:44Z</time>
      </trkpt>
      <trkpt lat="46.08174" lon="6.40367">
        <ele>450</ele>
        <time>2012-05-10T14:51:45Z</time>
      </trkpt>
      <trkpt lat="46.08162" lon="6.40351">
        <ele>450</ele>
        <time>2012-05-10T14:51:47Z</time>
      </trkpt>
      <trkpt lat="46.0815" lon="6.40336">
        <ele>450</ele>
        <time>2012-05-10T14:51:49Z</time>
      </trkpt>
      <trkpt lat="46.08139" lon="6.40324">
        <ele>450</ele>
        <time>2012-05-10T14:51:51Z</time>
      </trkpt>
      <trkpt lat="46.0813" lon="6.40311">
        <ele>450</ele>
        <time>2012-05-10T14:51:53Z</time>
      </trkpt>
      <trkpt lat="46.08119" lon="6.40297">
        <ele>450</ele>
        <time>2012-05-10T14:51:55Z</time>
      </trkpt>
      <trkpt lat="46.08107" lon="6.40282">
        <ele>450</ele>
        <time>2012-05-10T14:51:57Z</time>
      </trkpt>
      <trkpt lat="46.08095" lon="6.40269">
        <ele>450</ele>
        <time>2012-05-10T14:51:59Z</time>
      </trkpt>
      <trkpt lat="46.08082" lon="6.40256">
        <ele>450</ele>
        <time>2012-05-10T14:52:01Z</time>
      </trkpt>
      <trkpt lat="46.0807" lon="6.40245">
        <ele>450</ele>
        <time>2012-05-10T14:52:03Z</time>
      </trkpt>
      <trkpt lat="46.0806" lon="6.40236">
        <ele>450</ele>
        <time>2012-05-10T14:52:05Z</time>
      </trkpt>
      <trkpt lat="46.0805" lon="6.40227">
        <ele>450</ele>
        <time>2012-05-10T14:52:07Z</time>
      </trkpt>
      <trkpt lat="46.0804" lon="6.40219">
        <ele>450</ele>
        <time>2012-05-10T14:52:09Z</time>
      </trkpt>
      <trkpt lat="46.08032" lon="6.40211">
        <ele>450</ele>
        <time>2012-05-10T14:52:11Z</time>
      </trkpt>
      <trkpt lat="46.08025" lon="6.40202">
        <ele>450</ele>
        <time>2012-05-10T14:52:13Z</time>
      </trkpt>
      <trkpt lat="46.08015" lon="6.40188">
        <ele>450</ele>
        <time>2012-05-10T14:52:16Z</time>
      </trkpt>
      <trkpt lat="46.08004" lon="6.40185">
        <ele>450</ele>
        <time>2012-05-10T14:52:18Z</time>
      </trkpt>
      <trkpt lat="46.07989" lon="6.40183">
        <ele>450</ele>
        <time>2012-05-10T14:52:20Z</time>
      </trkpt>
      <trkpt lat="46.07972" lon="6.40182">
        <ele>450</ele>
        <time>2012-05-10T14:52:22Z</time>
      </trkpt>
      <trkpt lat="46.07958" lon="6.40182">
        <ele>450</ele>
        <time>2012-05-10T14:52:24Z</time>
      </trkpt>
      <trkpt lat="46.07944" lon="6.40181">
        <ele>450</ele>
        <time>2012-05-10T14:52:26Z</time>
      </trkpt>
      <trkpt lat="46.07931" lon="6.4018">
        <ele>450</ele>
        <time>2012-05-10T14:52:28Z</time>
      </trkpt>
      <trkpt lat="46.07919" lon="6.40181">
        <ele>450</ele>
        <time>2012-05-10T14:52:30Z</time>
      </trkpt>
      <trkpt lat="46.07907" lon="6.40179">
        <ele>450</ele>
        <time>2012-05-10T14:52:32Z</time>
      </trkpt>
      <trkpt lat="46.079" lon="6.40167">
        <ele>450</ele>
        <time>2012-05-10T14:52:34Z</time>
      </trkpt>
      <trkpt lat="46.07902" lon="6.40147">
        <ele>450</ele>
        <time>2012-05-10T14:52:36Z</time>
      </trkpt>
      <trkpt lat="46.07905" lon="6.40134">
        <ele>450</ele>
        <time>2012-05-10T14:52:37Z</time>
      </trkpt>
      <trkpt lat="46.07907" lon="6.4012">
        <ele>450</ele>
        <time>2012-05-10T14:52:38Z</time>
      </trkpt>
      <trkpt lat="46.07912" lon="6.40104">
        <ele>450</ele>
        <time>2012-05-10T14:52:39Z</time>
      </trkpt>
      <trkpt lat="46.07915" lon="6.40088">
        <ele>450</ele>
        <time>2012-05-10T14:52:40Z</time>
      </trkpt>
      <trkpt lat="46.07917" lon="6.40073">
        <ele>450</ele>
        <time>2012-05-10T14:52:41Z</time>
      </trkpt>
      <trkpt lat="46.0792" lon="6.40058">
        <ele>450</ele>
        <time>2012-05-10T14:52:42Z</time>
      </trkpt>
      <trkpt lat="46.07923" lon="6.40043">
        <ele>450</ele>
        <time>2012-05-10T14:52:43Z</time>
      </trkpt>
      <trkpt lat="46.07924" lon="6.40028">
        <ele>450</ele>
        <time>2012-05-10T14:52:44Z</time>
      </trkpt>
      <trkpt lat="46.07925" lon="6.40015">
        <ele>450</ele>
        <time>2012-05-10T14:52:45Z</time>
      </trkpt>
      <trkpt lat="46.07928" lon="6.39992">
        <ele>450</ele>
        <time>2012-05-10T14:52:47Z</time>
      </trkpt>
      <trkpt lat="46.07929" lon="6.39978">
        <ele>450</ele>
        <time>2012-05-10T14:52:49Z</time>
      </trkpt>
      <trkpt lat="46.07919" lon="6.39978">
        <ele>450</ele>
        <time>2012-05-10T14:52:53Z</time>
      </trkpt>
      <trkpt lat="46.0791" lon="6.39983">
        <ele>450</ele>
        <time>2012-05-10T14:52:55Z</time>
      </trkpt>
      <trkpt lat="46.07896" lon="6.39981">
        <ele>450</ele>
        <time>2012-05-10T14:52:57Z</time>
      </trkpt>
      <trkpt lat="46.07887" lon="6.39981">
        <ele>450</ele>
        <time>2012-05-10T14:52:58Z</time>
      </trkpt>
      <trkpt lat="46.07876" lon="6.39979">
        <ele>450</ele>
        <time>2012-05-10T14:52:59Z</time>
      </trkpt>
      <trkpt lat="46.07867" lon="6.39977">
        <ele>450</ele>
        <time>2012-05-10T14:53:00Z</time>
      </trkpt>
      <trkpt lat="46.07857" lon="6.39975">
        <ele>450</ele>
        <time>2012-05-10T14:53:01Z</time>
      </trkpt>
      <trkpt lat="46.07839" lon="6.39971">
        <ele>450</ele>
        <time>2012-05-10T14:53:03Z</time>
      </trkpt>
      <trkpt lat="46.07827" lon="6.39968">
        <ele>450</ele>
        <time>2012-05-10T14:53:04Z</time>
      </trkpt>
      <trkpt lat="46.07817" lon="6.39964">
        <ele>450</ele>
        <time>2012-05-10T14:53:05Z</time>
      </trkpt>
      <trkpt lat="46.07806" lon="6.39962">
        <ele>450</ele>
        <time>2012-05-10T14:53:06Z</time>
      </trkpt>
      <trkpt lat="46.07796" lon="6.39957">
        <ele>450</ele>
        <time>2012-05-10T14:53:07Z</time>
      </trkpt>
      <trkpt lat="46.07786" lon="6.39953">
        <ele>450</ele>
        <time>2012-05-10T14:53:08Z</time>
      </trkpt>
      <trkpt lat="46.07776" lon="6.3995">
        <ele>455</ele>
        <time>2012-05-10T14:53:09Z</time>
      </trkpt>
      <trkpt lat="46.07765" lon="6.39947">
        <ele>455</ele>
        <time>2012-05-10T14:53:10Z</time>
      </trkpt>
      <trkpt lat="46.07755" lon="6.39944">
        <ele>455</ele>
        <time>2012-05-10T14:53:11Z</time>
      </trkpt>
      <trkpt lat="46.07745" lon="6.39939">
        <ele>455</ele>
        <time>2012-05-10T14:53:12Z</time>
      </trkpt>
      <trkpt lat="46.07736" lon="6.39935">
        <ele>455</ele>
        <time>2012-05-10T14:53:13Z</time>
      </trkpt>
      <trkpt lat="46.07721" lon="6.39927">
        <ele>455</ele>
        <time>2012-05-10T14:53:15Z</time>
      </trkpt>
      <trkpt lat="46.07712" lon="6.39922">
        <ele>455</ele>
        <time>2012-05-10T14:53:16Z</time>
      </trkpt>
      <trkpt lat="46.07703" lon="6.39917">
        <ele>455</ele>
        <time>2012-05-10T14:53:17Z</time>
      </trkpt>
      <trkpt lat="46.07693" lon="6.3991">
        <ele>455</ele>
        <time>2012-05-10T14:53:18Z</time>
      </trkpt>
      <trkpt lat="46.07682" lon="6.39904">
        <ele>455</ele>
        <time>2012-05-10T14:53:19Z</time>
      </trkpt>
      <trkpt lat="46.07673" lon="6.39897">
        <ele>455</ele>
        <time>2012-05-10T14:53:20Z</time>
      </trkpt>
      <trkpt lat="46.07663" lon="6.39891">
        <ele>455</ele>
        <time>2012-05-10T14:53:21Z</time>
      </trkpt>
      <trkpt lat="46.07655" lon="6.39884">
        <ele>455</ele>
        <time>2012-05-10T14:53:22Z</time>
      </trkpt>
      <trkpt lat="46.07645" lon="6.39877">
        <ele>455</ele>
        <time>2012-05-10T14:53:23Z</time>
      </trkpt>
      <trkpt lat="46.07636" lon="6.39869">
        <ele>455</ele>
        <time>2012-05-10T14:53:24Z</time>
      </trkpt>
      <trkpt lat="46.07627" lon="6.39862">
        <ele>455</ele>
        <time>2012-05-10T14:53:25Z</time>
      </trkpt>
      <trkpt lat="46.07618" lon="6.39855">
        <ele>455</ele>
        <time>2012-05-10T14:53:26Z</time>
      </trkpt>
      <trkpt lat="46.07603" lon="6.39839">
        <ele>455</ele>
        <time>2012-05-10T14:53:28Z</time>
      </trkpt>
      <trkpt lat="46.0759" lon="6.39823">
        <ele>455</ele>
        <time>2012-05-10T14:53:30Z</time>
      </trkpt>
      <trkpt lat="46.07574" lon="6.39808">
        <ele>455</ele>
        <time>2012-05-10T14:53:32Z</time>
      </trkpt>
      <trkpt lat="46.0756" lon="6.39794">
        <ele>455</ele>
        <time>2012-05-10T14:53:34Z</time>
      </trkpt>
      <trkpt lat="46.07547" lon="6.3978">
        <ele>455</ele>
        <time>2012-05-10T14:53:36Z</time>
      </trkpt>
      <trkpt lat="46.07532" lon="6.39767">
        <ele>455</ele>
        <time>2012-05-10T14:53:38Z</time>
      </trkpt>
      <trkpt lat="46.07518" lon="6.39754">
        <ele>455</ele>
        <time>2012-05-10T14:53:40Z</time>
      </trkpt>
      <trkpt lat="46.0752" lon="6.39738">
        <ele>455</ele>
        <time>2012-05-10T14:53:44Z</time>
      </trkpt>
      <trkpt lat="46.07511" lon="6.39727">
        <ele>455</ele>
        <time>2012-05-10T14:53:47Z</time>
      </trkpt>
      <trkpt lat="46.07498" lon="6.39716">
        <ele>455</ele>
        <time>2012-05-10T14:53:49Z</time>
      </trkpt>
      <trkpt lat="46.07487" lon="6.39706">
        <ele>455</ele>
        <time>2012-05-10T14:53:51Z</time>
      </trkpt>
      <trkpt lat="46.07476" lon="6.39699">
        <ele>455</ele>
        <time>2012-05-10T14:53:54Z</time>
      </trkpt>
      <trkpt lat="46.07468" lon="6.39689">
        <ele>455</ele>
        <time>2012-05-10T14:53:57Z</time>
      </trkpt>
      <trkpt lat="46.07458" lon="6.39678">
        <ele>455</ele>
        <time>2012-05-10T14:53:59Z</time>
      </trkpt>
      <trkpt lat="46.07445" lon="6.39666">
        <ele>455</ele>
        <time>2012-05-10T14:54:01Z</time>
      </trkpt>
      <trkpt lat="46.07437" lon="6.39658">
        <ele>455</ele>
        <time>2012-05-10T14:54:02Z</time>
      </trkpt>
      <trkpt lat="46.0742" lon="6.39642">
        <ele>455</ele>
        <time>2012-05-10T14:54:04Z</time>
      </trkpt>
      <trkpt lat="46.07411" lon="6.39635">
        <ele>455</ele>
        <time>2012-05-10T14:54:05Z</time>
      </trkpt>
      <trkpt lat="46.07401" lon="6.39627">
        <ele>455</ele>
        <time>2012-05-10T14:54:06Z</time>
      </trkpt>
      <trkpt lat="46.07392" lon="6.39618">
        <ele>455</ele>
        <time>2012-05-10T14:54:07Z</time>
      </trkpt>
      <trkpt lat="46.07382" lon="6.39611">
        <ele>455</ele>
        <time>2012-05-10T14:54:08Z</time>
      </trkpt>
      <trkpt lat="46.07373" lon="6.39603">
        <ele>455</ele>
        <time>2012-05-10T14:54:09Z</time>
      </trkpt>
      <trkpt lat="46.07365" lon="6.39595">
        <ele>455</ele>
        <time>2012-05-10T14:54:10Z</time>
      </trkpt>
      <trkpt lat="46.07358" lon="6.39586">
        <ele>455</ele>
        <time>2012-05-10T14:54:11Z</time>
      </trkpt>
      <trkpt lat="46.07342" lon="6.39571">
        <ele>455</ele>
        <time>2012-05-10T14:54:13Z</time>
      </trkpt>
      <trkpt lat="46.07333" lon="6.39564">
        <ele>455</ele>
        <time>2012-05-10T14:54:14Z</time>
      </trkpt>
      <trkpt lat="46.07325" lon="6.39557">
        <ele>455</ele>
        <time>2012-05-10T14:54:15Z</time>
      </trkpt>
      <trkpt lat="46.07313" lon="6.39546">
        <ele>455</ele>
        <time>2012-05-10T14:54:17Z</time>
      </trkpt>
      <trkpt lat="46.07303" lon="6.39535">
        <ele>455</ele>
        <time>2012-05-10T14:54:22Z</time>
      </trkpt>
      <trkpt lat="46.07284" lon="6.39517">
        <ele>455</ele>
        <time>2012-05-10T14:54:24Z</time>
      </trkpt>
      <trkpt lat="46.07269" lon="6.39503">
        <ele>455</ele>
        <time>2012-05-10T14:54:25Z</time>
      </trkpt>
      <trkpt lat="46.0725" lon="6.39484">
        <ele>455</ele>
        <time>2012-05-10T14:54:26Z</time>
      </trkpt>
      <trkpt lat="46.07228" lon="6.39463">
        <ele>455</ele>
        <time>2012-05-10T14:54:27Z</time>
      </trkpt>
      <trkpt lat="46.07205" lon="6.39441">
        <ele>455</ele>
        <time>2012-05-10T14:54:28Z</time>
      </trkpt>
      <trkpt lat="46.07183" lon="6.39419">
        <ele>455</ele>
        <time>2012-05-10T14:54:29Z</time>
      </trkpt>
      <trkpt lat="46.07161" lon="6.39398">
        <ele>455</ele>
        <time>2012-05-10T14:54:30Z</time>
      </trkpt>
      <trkpt lat="46.07141" lon="6.39379">
        <ele>455</ele>
        <time>2012-05-10T14:54:31Z</time>
      </trkpt>
      <trkpt lat="46.07121" lon="6.39358">
        <ele>455</ele>
        <time>2012-05-10T14:54:32Z</time>
      </trkpt>
      <trkpt lat="46.071" lon="6.39337">
        <ele>455</ele>
        <time>2012-05-10T14:54:33Z</time>
      </trkpt>
      <trkpt lat="46.07079" lon="6.39318">
        <ele>455</ele>
        <time>2012-05-10T14:54:34Z</time>
      </trkpt>
      <trkpt lat="46.0706" lon="6.39299">
        <ele>455</ele>
        <time>2012-05-10T14:54:35Z</time>
      </trkpt>
      <trkpt lat="46.07043" lon="6.39282">
        <ele>455</ele>
        <time>2012-05-10T14:54:36Z</time>
      </trkpt>
      <trkpt lat="46.07026" lon="6.39265">
        <ele>455</ele>
        <time>2012-05-10T14:54:37Z</time>
      </trkpt>
      <trkpt lat="46.0701" lon="6.39249">
        <ele>455</ele>
        <time>2012-05-10T14:54:38Z</time>
      </trkpt>
      <trkpt lat="46.06993" lon="6.39234">
        <ele>455</ele>
        <time>2012-05-10T14:54:39Z</time>
      </trkpt>
      <trkpt lat="46.06978" lon="6.39218">
        <ele>455</ele>
        <time>2012-05-10T14:54:40Z</time>
      </trkpt>
      <trkpt lat="46.06962" lon="6.39203">
        <ele>455</ele>
        <time>2012-05-10T14:54:41Z</time>
      </trkpt>
      <trkpt lat="46.06946" lon="6.39187">
        <ele>455</ele>
        <time>2012-05-10T14:54:42Z</time>
      </trkpt>
      <trkpt lat="46.06931" lon="6.39172">
        <ele>455</ele>
        <time>2012-05-10T14:54:43Z</time>
      </trkpt>
      <trkpt lat="46.06915" lon="6.39157">
        <ele>455</ele>
        <time>2012-05-10T14:54:44Z</time>
      </trkpt>
      <trkpt lat="46.06899" lon="6.39141">
        <ele>455</ele>
        <time>2012-05-10T14:54:45Z</time>
      </trkpt>
      <trkpt lat="46.06883" lon="6.39125">
        <ele>455</ele>
        <time>2012-05-10T14:54:46Z</time>
      </trkpt>
      <trkpt lat="46.06868" lon="6.3911">
        <ele>455</ele>
        <time>2012-05-10T14:54:47Z</time>
      </trkpt>
      <trkpt lat="46.06851" lon="6.39095">
        <ele>455</ele>
        <time>2012-05-10T14:54:48Z</time>
      </trkpt>
      <trkpt lat="46.06836" lon="6.3908">
        <ele>455</ele>
        <time>2012-05-10T14:54:49Z</time>
      </trkpt>
      <trkpt lat="46.06789" lon="6.39032">
        <ele>455</ele>
        <time>2012-05-10T14:54:52Z</time>
      </trkpt>
      <trkpt lat="46.06774" lon="6.39016">
        <ele>455</ele>
        <time>2012-05-10T14:54:53Z</time>
      </trkpt>
      <trkpt lat="46.06759" lon="6.39">
        <ele>455</ele>
        <time>2012-05-10T14:54:54Z</time>
      </trkpt>
      <trkpt lat="46.06743" lon="6.38986">
        <ele>455</ele>
        <time>2012-05-10T14:54:55Z</time>
      </trkpt>
      <trkpt lat="46.06726" lon="6.38972">
        <ele>460</ele>
        <time>2012-05-10T14:54:56Z</time>
      </trkpt>
      <trkpt lat="46.06711" lon="6.38956">
        <ele>460</ele>
        <time>2012-05-10T14:54:57Z</time>
      </trkpt>
      <trkpt lat="46.06696" lon="6.38942">
        <ele>460</ele>
        <time>2012-05-10T14:54:58Z</time>
      </trkpt>
      <trkpt lat="46.06681" lon="6.38928">
        <ele>460</ele>
        <time>2012-05-10T14:54:59Z</time>
      </trkpt>
      <trkpt lat="46.06665" lon="6.38912">
        <ele>460</ele>
        <time>2012-05-10T14:55:00Z</time>
      </trkpt>
      <trkpt lat="46.06651" lon="6.38898">
        <ele>460</ele>
        <time>2012-05-10T14:55:01Z</time>
      </trkpt>
      <trkpt lat="46.06636" lon="6.38885">
        <ele>460</ele>
        <time>2012-05-10T14:55:02Z</time>
      </trkpt>
      <trkpt lat="46.06621" lon="6.3887">
        <ele>460</ele>
        <time>2012-05-10T14:55:03Z</time>
      </trkpt>
      <trkpt lat="46.06606" lon="6.38856">
        <ele>460</ele>
        <time>2012-05-10T14:55:04Z</time>
      </trkpt>
      <trkpt lat="46.06591" lon="6.38841">
        <ele>460</ele>
        <time>2012-05-10T14:55:05Z</time>
      </trkpt>
      <trkpt lat="46.06576" lon="6.38827">
        <ele>460</ele>
        <time>2012-05-10T14:55:06Z</time>
      </trkpt>
      <trkpt lat="46.06561" lon="6.38812">
        <ele>460</ele>
        <time>2012-05-10T14:55:07Z</time>
      </trkpt>
      <trkpt lat="46.06547" lon="6.38797">
        <ele>460</ele>
        <time>2012-05-10T14:55:08Z</time>
      </trkpt>
      <trkpt lat="46.06532" lon="6.38784">
        <ele>460</ele>
        <time>2012-05-10T14:55:09Z</time>
      </trkpt>
      <trkpt lat="46.06518" lon="6.3877">
        <ele>460</ele>
        <time>2012-05-10T14:55:10Z</time>
      </trkpt>
      <trkpt lat="46.06504" lon="6.38756">
        <ele>460</ele>
        <time>2012-05-10T14:55:11Z</time>
      </trkpt>
      <trkpt lat="46.0649" lon="6.38743">
        <ele>460</ele>
        <time>2012-05-10T14:55:12Z</time>
      </trkpt>
      <trkpt lat="46.06476" lon="6.38728">
        <ele>460</ele>
        <time>2012-05-10T14:55:13Z</time>
      </trkpt>
      <trkpt lat="46.06461" lon="6.38714">
        <ele>460</ele>
        <time>2012-05-10T14:55:14Z</time>
      </trkpt>
      <trkpt lat="46.06447" lon="6.387">
        <ele>460</ele>
        <time>2012-05-10T14:55:15Z</time>
      </trkpt>
      <trkpt lat="46.06433" lon="6.38687">
        <ele>460</ele>
        <time>2012-05-10T14:55:16Z</time>
      </trkpt>
      <trkpt lat="46.06419" lon="6.38673">
        <ele>460</ele>
        <time>2012-05-10T14:55:17Z</time>
      </trkpt>
      <trkpt lat="46.06404" lon="6.38659">
        <ele>460</ele>
        <time>2012-05-10T14:55:18Z</time>
      </trkpt>
      <trkpt lat="46.0639" lon="6.38646">
        <ele>460</ele>
        <time>2012-05-10T14:55:19Z</time>
      </trkpt>
      <trkpt lat="46.06375" lon="6.38632">
        <ele>460</ele>
        <time>2012-05-10T14:55:20Z</time>
      </trkpt>
      <trkpt lat="46.06361" lon="6.38618">
        <ele>460</ele>
        <time>2012-05-10T14:55:21Z</time>
      </trkpt>
      <trkpt lat="46.06347" lon="6.38604">
        <ele>466</ele>
        <time>2012-05-10T14:55:22Z</time>
      </trkpt>
      <trkpt lat="46.06333" lon="6.38591">
        <ele>466</ele>
        <time>2012-05-10T14:55:23Z</time>
      </trkpt>
      <trkpt lat="46.06319" lon="6.38576">
        <ele>466</ele>
        <time>2012-05-10T14:55:24Z</time>
      </trkpt>
      <trkpt lat="46.06304" lon="6.38562">
        <ele>466</ele>
        <time>2012-05-10T14:55:25Z</time>
      </trkpt>
      <trkpt lat="46.06288" lon="6.38547">
        <ele>466</ele>
        <time>2012-05-10T14:55:26Z</time>
      </trkpt>
      <trkpt lat="46.06272" lon="6.38531">
        <ele>466</ele>
        <time>2012-05-10T14:55:27Z</time>
      </trkpt>
      <trkpt lat="46.06256" lon="6.38515">
        <ele>466</ele>
        <time>2012-05-10T14:55:28Z</time>
      </trkpt>
      <trkpt lat="46.0624" lon="6.38499">
        <ele>466</ele>
        <time>2012-05-10T14:55:29Z</time>
      </trkpt>
      <trkpt lat="46.06225" lon="6.38484">
        <ele>466</ele>
        <time>2012-05-10T14:55:30Z</time>
      </trkpt>
      <trkpt lat="46.0621" lon="6.3847">
        <ele>466</ele>
        <time>2012-05-10T14:55:31Z</time>
      </trkpt>
      <trkpt lat="46.06197" lon="6.38458">
        <ele>466</ele>
        <time>2012-05-10T14:55:32Z</time>
      </trkpt>
      <trkpt lat="46.06186" lon="6.38446">
        <ele>466</ele>
        <time>2012-05-10T14:55:33Z</time>
      </trkpt>
      <trkpt lat="46.06176" lon="6.38436">
        <ele>466</ele>
        <time>2012-05-10T14:55:34Z</time>
      </trkpt>
      <trkpt lat="46.06168" lon="6.38427">
        <ele>466</ele>
        <time>2012-05-10T14:55:35Z</time>
      </trkpt>
      <trkpt lat="46.06159" lon="6.38418">
        <ele>466</ele>
        <time>2012-05-10T14:55:36Z</time>
      </trkpt>
      <trkpt lat="46.06154" lon="6.38406">
        <ele>466</ele>
        <time>2012-05-10T14:55:37Z</time>
      </trkpt>
      <trkpt lat="46.0615" lon="6.38392">
        <ele>471</ele>
        <time>2012-05-10T14:55:38Z</time>
      </trkpt>
      <trkpt lat="46.0615" lon="6.38376">
        <ele>471</ele>
        <time>2012-05-10T14:55:39Z</time>
      </trkpt>
      <trkpt lat="46.0615" lon="6.38358">
        <ele>471</ele>
        <time>2012-05-10T14:55:40Z</time>
      </trkpt>
      <trkpt lat="46.0615" lon="6.38338">
        <ele>471</ele>
        <time>2012-05-10T14:55:41Z</time>
      </trkpt>
      <trkpt lat="46.0615" lon="6.38314">
        <ele>471</ele>
        <time>2012-05-10T14:55:42Z</time>
      </trkpt>
      <trkpt lat="46.0615" lon="6.38289">
        <ele>471</ele>
        <time>2012-05-10T14:55:43Z</time>
      </trkpt>
      <trkpt lat="46.06149" lon="6.38263">
        <ele>471</ele>
        <time>2012-05-10T14:55:44Z</time>
      </trkpt>
      <trkpt lat="46.06148" lon="6.38237">
        <ele>471</ele>
        <time>2012-05-10T14:55:45Z</time>
      </trkpt>
      <trkpt lat="46.06147" lon="6.3821">
        <ele>471</ele>
        <time>2012-05-10T14:55:46Z</time>
      </trkpt>
      <trkpt lat="46.06146" lon="6.38184">
        <ele>471</ele>
        <time>2012-05-10T14:55:47Z</time>
      </trkpt>
      <trkpt lat="46.06145" lon="6.3816">
        <ele>471</ele>
        <time>2012-05-10T14:55:48Z</time>
      </trkpt>
      <trkpt lat="46.06143" lon="6.38136">
        <ele>471</ele>
        <time>2012-05-10T14:55:49Z</time>
      </trkpt>
      <trkpt lat="46.06142" lon="6.38113">
        <ele>471</ele>
        <time>2012-05-10T14:55:50Z</time>
      </trkpt>
      <trkpt lat="46.06139" lon="6.3809">
        <ele>471</ele>
        <time>2012-05-10T14:55:51Z</time>
      </trkpt>
      <trkpt lat="46.06135" lon="6.38066">
        <ele>471</ele>
        <time>2012-05-10T14:55:52Z</time>
      </trkpt>
      <trkpt lat="46.06132" lon="6.38043">
        <ele>471</ele>
        <time>2012-05-10T14:55:53Z</time>
      </trkpt>
      <trkpt lat="46.06127" lon="6.38019">
        <ele>471</ele>
        <time>2012-05-10T14:55:54Z</time>
      </trkpt>
      <trkpt lat="46.06122" lon="6.37996">
        <ele>471</ele>
        <time>2012-05-10T14:55:55Z</time>
      </trkpt>
      <trkpt lat="46.06115" lon="6.37971">
        <ele>471</ele>
        <time>2012-05-10T14:55:56Z</time>
      </trkpt>
      <trkpt lat="46.06108" lon="6.37946">
        <ele>471</ele>
        <time>2012-05-10T14:55:57Z</time>
      </trkpt>
      <trkpt lat="46.06101" lon="6.37919">
        <ele>471</ele>
        <time>2012-05-10T14:55:58Z</time>
      </trkpt>
      <trkpt lat="46.06093" lon="6.37892">
        <ele>471</ele>
        <time>2012-05-10T14:55:59Z</time>
      </trkpt>
      <trkpt lat="46.06085" lon="6.37863">
        <ele>471</ele>
        <time>2012-05-10T14:56:00Z</time>
      </trkpt>
      <trkpt lat="46.06077" lon="6.37835">
        <ele>471</ele>
        <time>2012-05-10T14:56:01Z</time>
      </trkpt>
      <trkpt lat="46.06068" lon="6.37809">
        <ele>471</ele>
        <time>2012-05-10T14:56:02Z</time>
      </trkpt>
      <trkpt lat="46.06059" lon="6.37785">
        <ele>476</ele>
        <time>2012-05-10T14:56:03Z</time>
      </trkpt>
      <trkpt lat="46.0605" lon="6.37763">
        <ele>476</ele>
        <time>2012-05-10T14:56:04Z</time>
      </trkpt>
      <trkpt lat="46.06043" lon="6.37744">
        <ele>476</ele>
        <time>2012-05-10T14:56:05Z</time>
      </trkpt>
      <trkpt lat="46.06035" lon="6.37726">
        <ele>476</ele>
        <time>2012-05-10T14:56:06Z</time>
      </trkpt>
      <trkpt lat="46.06028" lon="6.3771">
        <ele>476</ele>
        <time>2012-05-10T14:56:07Z</time>
      </trkpt>
      <trkpt lat="46.06022" lon="6.37695">
        <ele>476</ele>
        <time>2012-05-10T14:56:08Z</time>
      </trkpt>
      <trkpt lat="46.06016" lon="6.37682">
        <ele>476</ele>
        <time>2012-05-10T14:56:09Z</time>
      </trkpt>
      <trkpt lat="46.06009" lon="6.37668">
        <ele>476</ele>
        <time>2012-05-10T14:56:10Z</time>
      </trkpt>
      <trkpt lat="46.06003" lon="6.37656">
        <ele>476</ele>
        <time>2012-05-10T14:56:11Z</time>
      </trkpt>
      <trkpt lat="46.05997" lon="6.37643">
        <ele>476</ele>
        <time>2012-05-10T14:56:12Z</time>
      </trkpt>
      <trkpt lat="46.05988" lon="6.37624">
        <ele>476</ele>
        <time>2012-05-10T14:56:14Z</time>
      </trkpt>
      <trkpt lat="46.05983" lon="6.3761">
        <ele>476</ele>
        <time>2012-05-10T14:56:16Z</time>
      </trkpt>
      <trkpt lat="46.05988" lon="6.37597">
        <ele>476</ele>
        <time>2012-05-10T14:56:19Z</time>
      </trkpt>
      <trkpt lat="46.05994" lon="6.37587">
        <ele>476</ele>
        <time>2012-05-10T14:56:21Z</time>
      </trkpt>
      <trkpt lat="46.05997" lon="6.37571">
        <ele>476</ele>
        <time>2012-05-10T14:56:23Z</time>
      </trkpt>
      <trkpt lat="46.06" lon="6.37552">
        <ele>476</ele>
        <time>2012-05-10T14:56:25Z</time>
      </trkpt>
      <trkpt lat="46.06003" lon="6.37532">
        <ele>476</ele>
        <time>2012-05-10T14:56:27Z</time>
      </trkpt>
      <trkpt lat="46.06006" lon="6.3751">
        <ele>476</ele>
        <time>2012-05-10T14:56:29Z</time>
      </trkpt>
      <trkpt lat="46.06008" lon="6.37488">
        <ele>476</ele>
        <time>2012-05-10T14:56:31Z</time>
      </trkpt>
      <trkpt lat="46.06011" lon="6.37463">
        <ele>476</ele>
        <time>2012-05-10T14:56:33Z</time>
      </trkpt>
      <trkpt lat="46.06012" lon="6.37449">
        <ele>476</ele>
        <time>2012-05-10T14:56:34Z</time>
      </trkpt>
      <trkpt lat="46.06014" lon="6.37436">
        <ele>476</ele>
        <time>2012-05-10T14:56:35Z</time>
      </trkpt>
      <trkpt lat="46.06017" lon="6.3742">
        <ele>476</ele>
        <time>2012-05-10T14:56:36Z</time>
      </trkpt>
      <trkpt lat="46.06019" lon="6.37404">
        <ele>476</ele>
        <time>2012-05-10T14:56:37Z</time>
      </trkpt>
      <trkpt lat="46.06021" lon="6.3739">
        <ele>476</ele>
        <time>2012-05-10T14:56:38Z</time>
      </trkpt>
      <trkpt lat="46.06024" lon="6.37366">
        <ele>476</ele>
        <time>2012-05-10T14:56:40Z</time>
      </trkpt>
      <trkpt lat="46.06025" lon="6.37352">
        <ele>476</ele>
        <time>2012-05-10T14:56:43Z</time>
      </trkpt>
      <trkpt lat="46.06013" lon="6.37343">
        <ele>476</ele>
        <time>2012-05-10T14:56:57Z</time>
      </trkpt>
      <trkpt lat="46.05996" lon="6.37339">
        <ele>476</ele>
        <time>2012-05-10T14:56:59Z</time>
      </trkpt>
      <trkpt lat="46.05987" lon="6.37337">
        <ele>482</ele>
        <time>2012-05-10T14:57:00Z</time>
      </trkpt>
      <trkpt lat="46.05971" lon="6.37332">
        <ele>482</ele>
        <time>2012-05-10T14:57:02Z</time>
      </trkpt>
      <trkpt lat="46.0596" lon="6.37333">
        <ele>482</ele>
        <time>2012-05-10T14:57:04Z</time>
      </trkpt>
      <trkpt lat="46.05951" lon="6.37343">
        <ele>482</ele>
        <time>2012-05-10T14:57:07Z</time>
      </trkpt>
    </trkseg>
  </trk>
</gpx>